<?xml version='1.0' encoding='UTF-8'?><gpx version="1.1" creator="JPX - https://github.com/jenetics/jpx" xmlns="http://www.topografix.com/GPX/1/1"><trk><trkseg><trkpt lat="45.89589485510568" lon="13.381297710682349"><ele>25.333333333333336</ele><time>2026-03-28T12:37:32Z</time></trkpt><trkpt lat="45.89586925696471" lon="13.381419060186364"><ele>25.666666666666668</ele><time>2026-03-28T12:37:34Z</time></trkpt><trkpt lat="45.89584394947969" lon="13.381532623524963"><ele>26.0</ele><time>2026-03-28T12:37:36Z</time></trkpt><trkpt lat="45.89582484406593" lon="13.381621427110849"><ele>26.333333333333336</ele><time>2026-03-28T12:37:38Z</time></trkpt><trkpt lat="45.89580329037084" lon="13.381728586430004"><ele>26.666666666666668</ele><time>2026-03-28T12:37:40Z</time></trkpt><trkpt lat="45.89579024921166" lon="13.381830851467848"><ele>27.0</ele><time>2026-03-28T12:37:42Z</time></trkpt><trkpt lat="45.89576847050543" lon="13.381917434551577"><ele>27.0</ele><time>2026-03-28T12:37:44Z</time></trkpt><trkpt lat="45.895746505527185" lon="13.38201106326003"><ele>27.000000000000004</ele><time>2026-03-28T12:37:46Z</time></trkpt><trkpt lat="45.89584679539915" lon="13.382073040497062"><ele>27.000000000000004</ele><time>2026-03-28T12:37:51Z</time></trkpt><trkpt lat="45.89593094953671" lon="13.382033878436854"><ele>27.0</ele><time>2026-03-28T12:37:52Z</time></trkpt><trkpt lat="45.896031826330116" lon="13.381986855751473"><ele>27.0</ele><time>2026-03-28T12:37:53Z</time></trkpt><trkpt lat="45.896140395229615" lon="13.38193174877971"><ele>26.75</ele><time>2026-03-28T12:37:54Z</time></trkpt><trkpt lat="45.89626026636026" lon="13.38186970267325"><ele>26.5</ele><time>2026-03-28T12:37:55Z</time></trkpt><trkpt lat="45.89638246913944" lon="13.381812258899835"><ele>26.25</ele><time>2026-03-28T12:37:56Z</time></trkpt><trkpt lat="45.896517359241976" lon="13.381752203933798"><ele>26.0</ele><time>2026-03-28T12:37:57Z</time></trkpt><trkpt lat="45.896657610112484" lon="13.38168731457499"><ele>26.0</ele><time>2026-03-28T12:37:58Z</time></trkpt><trkpt lat="45.89680092500408" lon="13.38161679184416"><ele>26.0</ele><time>2026-03-28T12:37:59Z</time></trkpt><trkpt lat="45.89695889316304" lon="13.381532423456953"><ele>26.0</ele><time>2026-03-28T12:38:00Z</time></trkpt><trkpt lat="45.89712982253312" lon="13.381464239838287"><ele>26.0</ele><time>2026-03-28T12:38:01Z</time></trkpt><trkpt lat="45.897313266786405" lon="13.381389625819038"><ele>26.0</ele><time>2026-03-28T12:38:02Z</time></trkpt><trkpt lat="45.89750684122112" lon="13.381313975914296"><ele>26.0</ele><time>2026-03-28T12:38:03Z</time></trkpt><trkpt lat="45.89769986868696" lon="13.381236130261595"><ele>26.0</ele><time>2026-03-28T12:38:04Z</time></trkpt><trkpt lat="45.897901996661055" lon="13.381152918096905"><ele>26.0</ele><time>2026-03-28T12:38:05Z</time></trkpt><trkpt lat="45.89810389788133" lon="13.381066290456417"><ele>26.0</ele><time>2026-03-28T12:38:06Z</time></trkpt><trkpt lat="45.89831205118662" lon="13.380985427249732"><ele>25.333333333333332</ele><time>2026-03-28T12:38:07Z</time></trkpt><trkpt lat="45.89852077427221" lon="13.380901986260008"><ele>24.666666666666664</ele><time>2026-03-28T12:38:08Z</time></trkpt><trkpt lat="45.898731539427914" lon="13.380817963896574"><ele>24.0</ele><time>2026-03-28T12:38:09Z</time></trkpt><trkpt lat="45.898935875207385" lon="13.38074597525017"><ele>24.0</ele><time>2026-03-28T12:38:10Z</time></trkpt><trkpt lat="45.899139400869295" lon="13.380670470851944"><ele>24.0</ele><time>2026-03-28T12:38:11Z</time></trkpt><trkpt lat="45.89933823539237" lon="13.380629177562824"><ele>24.0</ele><time>2026-03-28T12:38:12Z</time></trkpt><trkpt lat="45.89953699102635" lon="13.380582585378482"><ele>24.666666666666664</ele><time>2026-03-28T12:38:13Z</time></trkpt><trkpt lat="45.89973679999483" lon="13.380525288957179"><ele>25.333333333333332</ele><time>2026-03-28T12:38:14Z</time></trkpt><trkpt lat="45.89994955284822" lon="13.380492659614564"><ele>26.0</ele><time>2026-03-28T12:38:15Z</time></trkpt><trkpt lat="45.90016298782018" lon="13.380462101571256"><ele>26.0</ele><time>2026-03-28T12:38:16Z</time></trkpt><trkpt lat="45.900379057114066" lon="13.38042881357607"><ele>26.0</ele><time>2026-03-28T12:38:17Z</time></trkpt><trkpt lat="45.900603218834945" lon="13.380398362923613"><ele>26.0</ele><time>2026-03-28T12:38:18Z</time></trkpt><trkpt lat="45.90083033661609" lon="13.380372749345597"><ele>25.5</ele><time>2026-03-28T12:38:19Z</time></trkpt><trkpt lat="45.901062769884525" lon="13.380344407402887"><ele>25.0</ele><time>2026-03-28T12:38:20Z</time></trkpt><trkpt lat="45.90130278127033" lon="13.38031199499612"><ele>25.0</ele><time>2026-03-28T12:38:21Z</time></trkpt><trkpt lat="45.90155144418273" lon="13.38027910271684"><ele>25.0</ele><time>2026-03-28T12:38:22Z</time></trkpt><trkpt lat="45.901804023341484" lon="13.380240887158344"><ele>25.5</ele><time>2026-03-28T12:38:23Z</time></trkpt><trkpt lat="45.90205855671961" lon="13.380191674637482"><ele>26.0</ele><time>2026-03-28T12:38:24Z</time></trkpt><trkpt lat="45.902316999588564" lon="13.38013089273607"><ele>26.0</ele><time>2026-03-28T12:38:25Z</time></trkpt><trkpt lat="45.90257545866325" lon="13.380067110944422"><ele>26.0</ele><time>2026-03-28T12:38:26Z</time></trkpt><trkpt lat="45.902839369353046" lon="13.380005086311126"><ele>26.5</ele><time>2026-03-28T12:38:27Z</time></trkpt><trkpt lat="45.90310263018147" lon="13.379950907954548"><ele>27.0</ele><time>2026-03-28T12:38:28Z</time></trkpt><trkpt lat="45.90336528735904" lon="13.379893363029495"><ele>27.0</ele><time>2026-03-28T12:38:29Z</time></trkpt><trkpt lat="45.90363000733663" lon="13.379837187536681"><ele>27.0</ele><time>2026-03-28T12:38:30Z</time></trkpt><trkpt lat="45.90389412385132" lon="13.379779588093227"><ele>27.0</ele><time>2026-03-28T12:38:31Z</time></trkpt><trkpt lat="45.904158226454925" lon="13.379723010255734"><ele>27.0</ele><time>2026-03-28T12:38:32Z</time></trkpt><trkpt lat="45.90442145985987" lon="13.379667125898168"><ele>26.5</ele><time>2026-03-28T12:38:33Z</time></trkpt><trkpt lat="45.90468504459161" lon="13.379616254206992"><ele>26.0</ele><time>2026-03-28T12:38:34Z</time></trkpt><trkpt lat="45.904948295581534" lon="13.379574867695146"><ele>27.0</ele><time>2026-03-28T12:38:34.999Z</time></trkpt><trkpt lat="45.90521117741257" lon="13.379547858423456"><ele>28.0</ele><time>2026-03-28T12:38:35.999Z</time></trkpt><trkpt lat="45.905469694262116" lon="13.379520662618164"><ele>28.0</ele><time>2026-03-28T12:38:36.999Z</time></trkpt><trkpt lat="45.90572638332765" lon="13.379494653410328"><ele>28.0</ele><time>2026-03-28T12:38:37.999Z</time></trkpt><trkpt lat="45.90598026074239" lon="13.379463282541849"><ele>28.5</ele><time>2026-03-28T12:38:38.999Z</time></trkpt><trkpt lat="45.90623393162109" lon="13.379430442333252"><ele>29.0</ele><time>2026-03-28T12:38:39.999Z</time></trkpt><trkpt lat="45.90648510766424" lon="13.379396362173718"><ele>29.0</ele><time>2026-03-28T12:38:40.999Z</time></trkpt><trkpt lat="45.906733740809244" lon="13.379357594826303"><ele>29.0</ele><time>2026-03-28T12:38:41.999Z</time></trkpt><trkpt lat="45.90697901796102" lon="13.379302130891404"><ele>29.0</ele><time>2026-03-28T12:38:42.999Z</time></trkpt><trkpt lat="45.90722695781401" lon="13.379211178698236"><ele>29.0</ele><time>2026-03-28T12:38:43.999Z</time></trkpt><trkpt lat="45.90747892338316" lon="13.379098087346348"><ele>29.0</ele><time>2026-03-28T12:38:44.999Z</time></trkpt><trkpt lat="45.90773570570411" lon="13.37899180147269"><ele>29.0</ele><time>2026-03-28T12:38:45.999Z</time></trkpt><trkpt lat="45.90799891612508" lon="13.378904738845396"><ele>29.0</ele><time>2026-03-28T12:38:46.999Z</time></trkpt><trkpt lat="45.908266123576304" lon="13.378827942166039"><ele>29.0</ele><time>2026-03-28T12:38:47.999Z</time></trkpt><trkpt lat="45.90854449818019" lon="13.378787706622543"><ele>29.0</ele><time>2026-03-28T12:38:48.999Z</time></trkpt><trkpt lat="45.90882261896617" lon="13.378743051793933"><ele>29.0</ele><time>2026-03-28T12:38:49.999Z</time></trkpt><trkpt lat="45.90909656697944" lon="13.378704895362699"><ele>28.5</ele><time>2026-03-28T12:38:50.999Z</time></trkpt><trkpt lat="45.909351502189594" lon="13.37868139981442"><ele>28.0</ele><time>2026-03-28T12:38:51.999Z</time></trkpt><trkpt lat="45.90958176067856" lon="13.378648147440375"><ele>28.0</ele><time>2026-03-28T12:38:52.999Z</time></trkpt><trkpt lat="45.909799688950166" lon="13.378651837514507"><ele>28.0</ele><time>2026-03-28T12:38:53.999Z</time></trkpt><trkpt lat="45.91000345184775" lon="13.378658148380605"><ele>28.0</ele><time>2026-03-28T12:38:54.999Z</time></trkpt><trkpt lat="45.91019530624905" lon="13.378670434083679"><ele>28.666666666666668</ele><time>2026-03-28T12:38:55.999Z</time></trkpt><trkpt lat="45.91037821245748" lon="13.378693772377437"><ele>29.333333333333336</ele><time>2026-03-28T12:38:56.999Z</time></trkpt><trkpt lat="45.91056028433326" lon="13.378710329103747"><ele>30.0</ele><time>2026-03-28T12:38:57.999Z</time></trkpt><trkpt lat="45.9107418572481" lon="13.378715952315174"><ele>30.333333333333336</ele><time>2026-03-28T12:38:58.999Z</time></trkpt><trkpt lat="45.91091970028285" lon="13.378696957791453"><ele>30.666666666666668</ele><time>2026-03-28T12:38:59.999Z</time></trkpt><trkpt lat="45.911092701204915" lon="13.378652873709719"><ele>31.0</ele><time>2026-03-28T12:39:00.999Z</time></trkpt><trkpt lat="45.911257755464504" lon="13.378579143784648"><ele>31.0</ele><time>2026-03-28T12:39:01.999Z</time></trkpt><trkpt lat="45.91141774371188" lon="13.378496721489398"><ele>31.0</ele><time>2026-03-28T12:39:02.999Z</time></trkpt><trkpt lat="45.91157563556097" lon="13.378402966138204"><ele>31.0</ele><time>2026-03-28T12:39:03.999Z</time></trkpt><trkpt lat="45.9117236592846" lon="13.378291221216843"><ele>31.0</ele><time>2026-03-28T12:39:04.999Z</time></trkpt><trkpt lat="45.911864249012254" lon="13.378160238417033"><ele>31.0</ele><time>2026-03-28T12:39:05.999Z</time></trkpt><trkpt lat="45.91199128108098" lon="13.378015802938094"><ele>31.0</ele><time>2026-03-28T12:39:06.999Z</time></trkpt><trkpt lat="45.912113366968875" lon="13.377875742168397"><ele>31.25</ele><time>2026-03-28T12:39:07.999Z</time></trkpt><trkpt lat="45.912234714811" lon="13.37774896964501"><ele>31.5</ele><time>2026-03-28T12:39:08.999Z</time></trkpt><trkpt lat="45.9123521510337" lon="13.377629907589823"><ele>31.75</ele><time>2026-03-28T12:39:09.999Z</time></trkpt><trkpt lat="45.91246817872336" lon="13.377513487377245"><ele>32.0</ele><time>2026-03-28T12:39:10.999Z</time></trkpt><trkpt lat="45.912588373577314" lon="13.3773907785627"><ele>32.33333333333333</ele><time>2026-03-28T12:39:11.999Z</time></trkpt><trkpt lat="45.91271187786752" lon="13.37727030378141"><ele>32.666666666666664</ele><time>2026-03-28T12:39:12.999Z</time></trkpt><trkpt lat="45.91283305306147" lon="13.377138820199253"><ele>33.0</ele><time>2026-03-28T12:39:13.999Z</time></trkpt><trkpt lat="45.912958016466064" lon="13.377011319574429"><ele>33.333333333333336</ele><time>2026-03-28T12:39:14.999Z</time></trkpt><trkpt lat="45.9130901300158" lon="13.376905754632007"><ele>33.66666666666667</ele><time>2026-03-28T12:39:15.999Z</time></trkpt><trkpt lat="45.913234553019564" lon="13.376836558518264"><ele>34.0</ele><time>2026-03-28T12:39:16.999Z</time></trkpt><trkpt lat="45.91339668334699" lon="13.376793782737114"><ele>33.66666666666667</ele><time>2026-03-28T12:39:17.999Z</time></trkpt><trkpt lat="45.91356224939303" lon="13.376737451253643"><ele>33.333333333333336</ele><time>2026-03-28T12:39:18.999Z</time></trkpt><trkpt lat="45.913731755532815" lon="13.376667842549992"><ele>33.0</ele><time>2026-03-28T12:39:20Z</time></trkpt><trkpt lat="45.9139043480367" lon="13.376594892617439"><ele>33.0</ele><time>2026-03-28T12:39:21Z</time></trkpt><trkpt lat="45.914079707811155" lon="13.376513373568917"><ele>33.0</ele><time>2026-03-28T12:39:22Z</time></trkpt><trkpt lat="45.91425519811869" lon="13.376475131795072"><ele>33.0</ele><time>2026-03-28T12:39:23Z</time></trkpt><trkpt lat="45.91445015383527" lon="13.376408878202557"><ele>33.0</ele><time>2026-03-28T12:39:24Z</time></trkpt><trkpt lat="45.914643197160494" lon="13.376375627363581"><ele>33.0</ele><time>2026-03-28T12:39:25Z</time></trkpt><trkpt lat="45.914836227580196" lon="13.376340802517186"><ele>33.0</ele><time>2026-03-28T12:39:26Z</time></trkpt><trkpt lat="45.9150316725699" lon="13.37630755109642"><ele>33.333333333333336</ele><time>2026-03-28T12:39:27Z</time></trkpt><trkpt lat="45.9152264552288" lon="13.376271871011355"><ele>33.66666666666667</ele><time>2026-03-28T12:39:28Z</time></trkpt><trkpt lat="45.91541259338473" lon="13.37623901954127"><ele>34.0</ele><time>2026-03-28T12:39:29Z</time></trkpt><trkpt lat="45.91560185329324" lon="13.376206988284324"><ele>34.0</ele><time>2026-03-28T12:39:30Z</time></trkpt><trkpt lat="45.91579706368981" lon="13.376183826865285"><ele>34.0</ele><time>2026-03-28T12:39:31Z</time></trkpt><trkpt lat="45.91597992621311" lon="13.376198865896885"><ele>34.0</ele><time>2026-03-28T12:39:32Z</time></trkpt><trkpt lat="45.916141820844175" lon="13.376177058683165"><ele>33.66666666666667</ele><time>2026-03-28T12:39:33Z</time></trkpt><trkpt lat="45.91629364099668" lon="13.376183062873336"><ele>33.333333333333336</ele><time>2026-03-28T12:39:34Z</time></trkpt><trkpt lat="45.916442101297825" lon="13.376185392653113"><ele>33.0</ele><time>2026-03-28T12:39:35Z</time></trkpt><trkpt lat="45.9165941955974" lon="13.376185011449286"><ele>32.0</ele><time>2026-03-28T12:39:36Z</time></trkpt><trkpt lat="45.916746955644406" lon="13.376169908818227"><ele>31.0</ele><time>2026-03-28T12:39:37Z</time></trkpt><trkpt lat="45.916896532596155" lon="13.376146200392323"><ele>30.0</ele><time>2026-03-28T12:39:38Z</time></trkpt><trkpt lat="45.91704555652024" lon="13.376114959569918"><ele>30.0</ele><time>2026-03-28T12:39:39Z</time></trkpt><trkpt lat="45.917196881790986" lon="13.376086642989536"><ele>30.0</ele><time>2026-03-28T12:39:40Z</time></trkpt><trkpt lat="45.91734997708387" lon="13.37605956429458"><ele>30.0</ele><time>2026-03-28T12:39:41Z</time></trkpt><trkpt lat="45.91750218337747" lon="13.37603091762413"><ele>30.666666666666664</ele><time>2026-03-28T12:39:42Z</time></trkpt><trkpt lat="45.917652746006084" lon="13.376001319480126"><ele>31.333333333333332</ele><time>2026-03-28T12:39:43Z</time></trkpt><trkpt lat="45.91780411845035" lon="13.375973209540762"><ele>32.0</ele><time>2026-03-28T12:39:44Z</time></trkpt><trkpt lat="45.91796575205201" lon="13.375943106006522"><ele>32.0</ele><time>2026-03-28T12:39:45Z</time></trkpt><trkpt lat="45.91813829204149" lon="13.375909631019613"><ele>32.0</ele><time>2026-03-28T12:39:46Z</time></trkpt><trkpt lat="45.918315938365815" lon="13.375875581470499"><ele>32.0</ele><time>2026-03-28T12:39:47Z</time></trkpt><trkpt lat="45.91849773499776" lon="13.375833190101186"><ele>32.0</ele><time>2026-03-28T12:39:48Z</time></trkpt><trkpt lat="45.91868168182078" lon="13.375774684311695"><ele>32.0</ele><time>2026-03-28T12:39:49Z</time></trkpt><trkpt lat="45.918870862180846" lon="13.375675066316894"><ele>32.0</ele><time>2026-03-28T12:39:50Z</time></trkpt><trkpt lat="45.919071100220435" lon="13.37553252022244"><ele>31.5</ele><time>2026-03-28T12:39:51Z</time></trkpt><trkpt lat="45.91927482974645" lon="13.375354668246413"><ele>31.0</ele><time>2026-03-28T12:39:52Z</time></trkpt><trkpt lat="45.919484596335295" lon="13.375127923808979"><ele>31.0</ele><time>2026-03-28T12:39:53Z</time></trkpt><trkpt lat="45.91972059823428" lon="13.374867416288987"><ele>31.0</ele><time>2026-03-28T12:39:54Z</time></trkpt><trkpt lat="45.91998424796146" lon="13.374590211276931"><ele>31.5</ele><time>2026-03-28T12:39:55Z</time></trkpt><trkpt lat="45.92025659620921" lon="13.374341580577655"><ele>32.0</ele><time>2026-03-28T12:39:56Z</time></trkpt><trkpt lat="45.920482609177455" lon="13.37410280423292"><ele>32.0</ele><time>2026-03-28T12:39:57Z</time></trkpt><trkpt lat="45.920697524091175" lon="13.373948018452618"><ele>32.0</ele><time>2026-03-28T12:39:58Z</time></trkpt><trkpt lat="45.92088019682837" lon="13.373790162026207"><ele>32.0</ele><time>2026-03-28T12:39:59Z</time></trkpt><trkpt lat="45.92102281597959" lon="13.373650387900371"><ele>32.0</ele><time>2026-03-28T12:40:00Z</time></trkpt><trkpt lat="45.92114360793772" lon="13.373546922157393"><ele>32.0</ele><time>2026-03-28T12:40:01Z</time></trkpt><trkpt lat="45.92124007267667" lon="13.373473698262265"><ele>32.0</ele><time>2026-03-28T12:40:02Z</time></trkpt><trkpt lat="45.921334181294554" lon="13.373439888857218"><ele>32.0</ele><time>2026-03-28T12:40:03Z</time></trkpt><trkpt lat="45.92144795028125" lon="13.37345289083288"><ele>32.0</ele><time>2026-03-28T12:40:04Z</time></trkpt><trkpt lat="45.9215861892435" lon="13.373502901025486"><ele>32.0</ele><time>2026-03-28T12:40:05Z</time></trkpt><trkpt lat="45.92173705174956" lon="13.373584763642254"><ele>32.0</ele><time>2026-03-28T12:40:06Z</time></trkpt><trkpt lat="45.92189494015017" lon="13.373717001696196"><ele>32.0</ele><time>2026-03-28T12:40:07Z</time></trkpt><trkpt lat="45.922055109856736" lon="13.373907333773936"><ele>32.0</ele><time>2026-03-28T12:40:08Z</time></trkpt><trkpt lat="45.922223143437776" lon="13.374148264706674"><ele>32.0</ele><time>2026-03-28T12:40:09Z</time></trkpt><trkpt lat="45.92240299222536" lon="13.37441621587834"><ele>33.0</ele><time>2026-03-28T12:40:10Z</time></trkpt><trkpt lat="45.92259732835229" lon="13.374699762465127"><ele>34.0</ele><time>2026-03-28T12:40:11Z</time></trkpt><trkpt lat="45.92279598853979" lon="13.37500354430586"><ele>34.0</ele><time>2026-03-28T12:40:12Z</time></trkpt><trkpt lat="45.92300263283477" lon="13.37532917224967"><ele>34.0</ele><time>2026-03-28T12:40:13Z</time></trkpt><trkpt lat="45.92321848306459" lon="13.375665528256102"><ele>35.0</ele><time>2026-03-28T12:40:14Z</time></trkpt><trkpt lat="45.9234427368624" lon="13.376007478015426"><ele>36.0</ele><time>2026-03-28T12:40:15Z</time></trkpt><trkpt lat="45.92367250906106" lon="13.376359326429748"><ele>36.0</ele><time>2026-03-28T12:40:16Z</time></trkpt><trkpt lat="45.92390803884973" lon="13.376715677777941"><ele>36.0</ele><time>2026-03-28T12:40:17Z</time></trkpt><trkpt lat="45.92414843125085" lon="13.377081727058213"><ele>34.0</ele><time>2026-03-28T12:40:18Z</time></trkpt><trkpt lat="45.92439306334995" lon="13.377450012973227"><ele>32.0</ele><time>2026-03-28T12:40:19Z</time></trkpt><trkpt lat="45.92463747262751" lon="13.377826047049604"><ele>32.5</ele><time>2026-03-28T12:40:20Z</time></trkpt><trkpt lat="45.92487948284144" lon="13.378201653213592"><ele>33.0</ele><time>2026-03-28T12:40:21Z</time></trkpt><trkpt lat="45.92511685966652" lon="13.378564686861973"><ele>34.0</ele><time>2026-03-28T12:40:22Z</time></trkpt><trkpt lat="45.92534724315464" lon="13.378920205621597"><ele>35.0</ele><time>2026-03-28T12:40:23Z</time></trkpt><trkpt lat="45.925569721730874" lon="13.379265996085307"><ele>35.0</ele><time>2026-03-28T12:40:24Z</time></trkpt><trkpt lat="45.925784691799215" lon="13.379596939890684"><ele>35.0</ele><time>2026-03-28T12:40:25Z</time></trkpt><trkpt lat="45.925999910758" lon="13.37992339775264"><ele>34.5</ele><time>2026-03-28T12:40:26Z</time></trkpt><trkpt lat="45.92621237899365" lon="13.38024220950458"><ele>34.0</ele><time>2026-03-28T12:40:27Z</time></trkpt><trkpt lat="45.92641990101395" lon="13.380557757012"><ele>34.5</ele><time>2026-03-28T12:40:28Z</time></trkpt><trkpt lat="45.92662248934063" lon="13.38086842666043"><ele>35.0</ele><time>2026-03-28T12:40:29Z</time></trkpt><trkpt lat="45.926809302577006" lon="13.381159530447404"><ele>34.5</ele><time>2026-03-28T12:40:30Z</time></trkpt><trkpt lat="45.926983924011076" lon="13.381430063687105"><ele>34.0</ele><time>2026-03-28T12:40:31Z</time></trkpt><trkpt lat="45.92715179034272" lon="13.381689373242706"><ele>34.0</ele><time>2026-03-28T12:40:32Z</time></trkpt><trkpt lat="45.92730662879404" lon="13.381929220403318"><ele>34.0</ele><time>2026-03-28T12:40:33Z</time></trkpt><trkpt lat="45.92744878842691" lon="13.382153391625774"><ele>34.0</ele><time>2026-03-28T12:40:34Z</time></trkpt><trkpt lat="45.92756845065744" lon="13.382349889139572"><ele>34.25</ele><time>2026-03-28T12:40:35Z</time></trkpt><trkpt lat="45.927670487220304" lon="13.382527050924173"><ele>34.5</ele><time>2026-03-28T12:40:36Z</time></trkpt><trkpt lat="45.927746778512166" lon="13.382675858838526"><ele>34.75</ele><time>2026-03-28T12:40:37Z</time></trkpt><trkpt lat="45.92779921073465" lon="13.382820191540722"><ele>35.0</ele><time>2026-03-28T12:40:38Z</time></trkpt><trkpt lat="45.92782424088934" lon="13.38296916760634"><ele>35.25</ele><time>2026-03-28T12:40:39Z</time></trkpt><trkpt lat="45.92783627973249" lon="13.383118145566915"><ele>35.5</ele><time>2026-03-28T12:40:40Z</time></trkpt><trkpt lat="45.92787677146518" lon="13.383258630292486"><ele>35.75</ele><time>2026-03-28T12:40:41Z</time></trkpt><trkpt lat="45.92796410799215" lon="13.383391291276123"><ele>36.0</ele><time>2026-03-28T12:40:42Z</time></trkpt><trkpt lat="45.928081272840714" lon="13.383500495038248"><ele>36.0</ele><time>2026-03-28T12:40:42.999Z</time></trkpt><trkpt lat="45.92818763091904" lon="13.383629005294873"><ele>36.0</ele><time>2026-03-28T12:40:43.999Z</time></trkpt><trkpt lat="45.92828270607923" lon="13.383771636871243"><ele>36.0</ele><time>2026-03-28T12:40:44.999Z</time></trkpt><trkpt lat="45.92837473270673" lon="13.383911230178668"><ele>36.0</ele><time>2026-03-28T12:40:45.999Z</time></trkpt><trkpt lat="45.9284652281567" lon="13.3840558599307"><ele>36.0</ele><time>2026-03-28T12:40:46.999Z</time></trkpt><trkpt lat="45.92855475537204" lon="13.384207424614674"><ele>36.0</ele><time>2026-03-28T12:40:47.999Z</time></trkpt><trkpt lat="45.9286351260328" lon="13.384349020341851"><ele>36.0</ele><time>2026-03-28T12:40:48.999Z</time></trkpt><trkpt lat="45.928710183325585" lon="13.384491168666164"><ele>36.0</ele><time>2026-03-28T12:40:49.999Z</time></trkpt><trkpt lat="45.92878303804836" lon="13.384638418195717"><ele>36.0</ele><time>2026-03-28T12:40:50.999Z</time></trkpt><trkpt lat="45.928858302414525" lon="13.384788013436903"><ele>36.0</ele><time>2026-03-28T12:40:51.999Z</time></trkpt><trkpt lat="45.92893881612488" lon="13.384947364802636"><ele>36.0</ele><time>2026-03-28T12:40:52.999Z</time></trkpt><trkpt lat="45.92902266771471" lon="13.385116977317184"><ele>36.0</ele><time>2026-03-28T12:40:53.999Z</time></trkpt><trkpt lat="45.929109277457435" lon="13.385292613043072"><ele>36.0</ele><time>2026-03-28T12:40:54.999Z</time></trkpt><trkpt lat="45.92919820703662" lon="13.385468901062548"><ele>36.0</ele><time>2026-03-28T12:40:55.999Z</time></trkpt><trkpt lat="45.92928781290773" lon="13.385647936199481"><ele>36.0</ele><time>2026-03-28T12:40:56.999Z</time></trkpt><trkpt lat="45.929377030956694" lon="13.38582795503828"><ele>36.333333333333336</ele><time>2026-03-28T12:40:57.999Z</time></trkpt><trkpt lat="45.92946602648452" lon="13.386006138526334"><ele>36.66666666666667</ele><time>2026-03-28T12:40:58.999Z</time></trkpt><trkpt lat="45.9295548062414" lon="13.386183174310572"><ele>37.0</ele><time>2026-03-28T12:40:59.999Z</time></trkpt><trkpt lat="45.929643249053655" lon="13.386360363011548"><ele>36.333333333333336</ele><time>2026-03-28T12:41:00.999Z</time></trkpt><trkpt lat="45.92973075889738" lon="13.38654145292441"><ele>35.666666666666664</ele><time>2026-03-28T12:41:01.999Z</time></trkpt><trkpt lat="45.92982331406117" lon="13.386729100008386"><ele>35.0</ele><time>2026-03-28T12:41:02.999Z</time></trkpt><trkpt lat="45.929920998547615" lon="13.386919915435916"><ele>35.0</ele><time>2026-03-28T12:41:03.999Z</time></trkpt><trkpt lat="45.93001942247283" lon="13.387112922781778"><ele>35.0</ele><time>2026-03-28T12:41:04.999Z</time></trkpt><trkpt lat="45.93011573271518" lon="13.387300452724668"><ele>35.0</ele><time>2026-03-28T12:41:05.999Z</time></trkpt><trkpt lat="45.93020020424943" lon="13.3874693775418"><ele>35.33333333333333</ele><time>2026-03-28T12:41:06.999Z</time></trkpt><trkpt lat="45.9302859872318" lon="13.387641615128349"><ele>35.666666666666664</ele><time>2026-03-28T12:41:07.999Z</time></trkpt><trkpt lat="45.930376684239775" lon="13.387816682267948"><ele>36.0</ele><time>2026-03-28T12:41:08.999Z</time></trkpt><trkpt lat="45.930472627795" lon="13.387986305060556"><ele>36.25</ele><time>2026-03-28T12:41:09.999Z</time></trkpt><trkpt lat="45.930574851592525" lon="13.388137840022363"><ele>36.5</ele><time>2026-03-28T12:41:10.999Z</time></trkpt><trkpt lat="45.93069182058886" lon="13.388264402677033"><ele>36.75</ele><time>2026-03-28T12:41:11.999Z</time></trkpt><trkpt lat="45.930819344826354" lon="13.388381487000112"><ele>37.0</ele><time>2026-03-28T12:41:12.999Z</time></trkpt><trkpt lat="45.93094790265047" lon="13.388478915785571"><ele>37.0</ele><time>2026-03-28T12:41:13.999Z</time></trkpt><trkpt lat="45.93107958038719" lon="13.38855443216307"><ele>37.0</ele><time>2026-03-28T12:41:14.999Z</time></trkpt><trkpt lat="45.931215573806234" lon="13.388630196063728"><ele>37.0</ele><time>2026-03-28T12:41:15.999Z</time></trkpt><trkpt lat="45.931354934251175" lon="13.388714111000198"><ele>37.0</ele><time>2026-03-28T12:41:16.999Z</time></trkpt><trkpt lat="45.9314997682519" lon="13.388801451316013"><ele>37.0</ele><time>2026-03-28T12:41:17.999Z</time></trkpt><trkpt lat="45.93164627966867" lon="13.388886190077326"><ele>37.0</ele><time>2026-03-28T12:41:18.999Z</time></trkpt><trkpt lat="45.93179220617446" lon="13.38897128065071"><ele>37.0</ele><time>2026-03-28T12:41:19.999Z</time></trkpt><trkpt lat="45.931933946913794" lon="13.389056621606228"><ele>37.0</ele><time>2026-03-28T12:41:20.999Z</time></trkpt><trkpt lat="45.932074850064964" lon="13.389141422251296"><ele>37.0</ele><time>2026-03-28T12:41:21.999Z</time></trkpt><trkpt lat="45.93221884554808" lon="13.389226476883145"><ele>37.0</ele><time>2026-03-28T12:41:22.999Z</time></trkpt><trkpt lat="45.9323652407433" lon="13.389312166980258"><ele>37.0</ele><time>2026-03-28T12:41:23.999Z</time></trkpt><trkpt lat="45.93251356340374" lon="13.389398611575556"><ele>37.0</ele><time>2026-03-28T12:41:24.999Z</time></trkpt><trkpt lat="45.9326638679695" lon="13.389486973549932"><ele>37.0</ele><time>2026-03-28T12:41:26Z</time></trkpt><trkpt lat="45.932818248218766" lon="13.389574528175919"><ele>37.0</ele><time>2026-03-28T12:41:27Z</time></trkpt><trkpt lat="45.9329737965617" lon="13.389657639196322"><ele>37.0</ele><time>2026-03-28T12:41:28Z</time></trkpt><trkpt lat="45.933130913295415" lon="13.389738058072778"><ele>37.0</ele><time>2026-03-28T12:41:29Z</time></trkpt><trkpt lat="45.933292417440235" lon="13.389809780256634"><ele>36.66666666666667</ele><time>2026-03-28T12:41:30Z</time></trkpt><trkpt lat="45.93347436827215" lon="13.389857886667029"><ele>36.333333333333336</ele><time>2026-03-28T12:41:31Z</time></trkpt><trkpt lat="45.933681661779566" lon="13.389889860070292"><ele>36.0</ele><time>2026-03-28T12:41:32Z</time></trkpt><trkpt lat="45.93390900412803" lon="13.389950206749104"><ele>36.0</ele><time>2026-03-28T12:41:33Z</time></trkpt><trkpt lat="45.934150073901804" lon="13.390031277033545"><ele>36.0</ele><time>2026-03-28T12:41:34Z</time></trkpt><trkpt lat="45.93440337622048" lon="13.390113830043774"><ele>37.0</ele><time>2026-03-28T12:41:35Z</time></trkpt><trkpt lat="45.934665919203184" lon="13.390189314629135"><ele>38.0</ele><time>2026-03-28T12:41:36Z</time></trkpt><trkpt lat="45.934935698896744" lon="13.39026053325829"><ele>38.5</ele><time>2026-03-28T12:41:37Z</time></trkpt><trkpt lat="45.935210132230495" lon="13.390336617840537"><ele>39.0</ele><time>2026-03-28T12:41:38Z</time></trkpt><trkpt lat="45.93548909865523" lon="13.390412679944228"><ele>39.0</ele><time>2026-03-28T12:41:39Z</time></trkpt><trkpt lat="45.93576958869156" lon="13.390484834918864"><ele>39.0</ele><time>2026-03-28T12:41:40Z</time></trkpt><trkpt lat="45.93605116473904" lon="13.390554131081293"><ele>37.5</ele><time>2026-03-28T12:41:41Z</time></trkpt><trkpt lat="45.93633301593086" lon="13.3906243009996"><ele>36.0</ele><time>2026-03-28T12:41:42Z</time></trkpt><trkpt lat="45.9366118255607" lon="13.390696668393756"><ele>37.5</ele><time>2026-03-28T12:41:43Z</time></trkpt><trkpt lat="45.936884388833235" lon="13.39076708904154"><ele>39.0</ele><time>2026-03-28T12:41:44Z</time></trkpt><trkpt lat="45.937154836200726" lon="13.390834578195154"><ele>39.0</ele><time>2026-03-28T12:41:45Z</time></trkpt><trkpt lat="45.93742215469787" lon="13.390899521601671"><ele>39.0</ele><time>2026-03-28T12:41:46Z</time></trkpt><trkpt lat="45.93768249654596" lon="13.390963875208133"><ele>40.5</ele><time>2026-03-28T12:41:47Z</time></trkpt><trkpt lat="45.93793501160008" lon="13.391029067562371"><ele>42.0</ele><time>2026-03-28T12:41:48Z</time></trkpt><trkpt lat="45.93818171814967" lon="13.391092880512774"><ele>41.5</ele><time>2026-03-28T12:41:49Z</time></trkpt><trkpt lat="45.93842097581018" lon="13.391157113019345"><ele>41.0</ele><time>2026-03-28T12:41:50Z</time></trkpt><trkpt lat="45.93865483754239" lon="13.391218436611398"><ele>41.0</ele><time>2026-03-28T12:41:51Z</time></trkpt><trkpt lat="45.93888594675433" lon="13.391272796782337"><ele>41.0</ele><time>2026-03-28T12:41:52Z</time></trkpt><trkpt lat="45.93911410315561" lon="13.391322029664902"><ele>41.0</ele><time>2026-03-28T12:41:53Z</time></trkpt><trkpt lat="45.939343968706055" lon="13.391381595129447"><ele>41.0</ele><time>2026-03-28T12:41:54Z</time></trkpt><trkpt lat="45.93957767234222" lon="13.391443165537453"><ele>41.0</ele><time>2026-03-28T12:41:55Z</time></trkpt><trkpt lat="45.9398112507251" lon="13.391502853707959"><ele>41.0</ele><time>2026-03-28T12:41:56Z</time></trkpt><trkpt lat="45.940038101628396" lon="13.39156876444429"><ele>41.5</ele><time>2026-03-28T12:41:57Z</time></trkpt><trkpt lat="45.94025953770032" lon="13.391636470482897"><ele>42.0</ele><time>2026-03-28T12:41:58Z</time></trkpt><trkpt lat="45.94047716138725" lon="13.391715252066046"><ele>42.0</ele><time>2026-03-28T12:41:59Z</time></trkpt><trkpt lat="45.94069120522191" lon="13.391806024660125"><ele>42.0</ele><time>2026-03-28T12:42:00Z</time></trkpt><trkpt lat="45.940901911979594" lon="13.391908384559772"><ele>42.0</ele><time>2026-03-28T12:42:01Z</time></trkpt><trkpt lat="45.94110799750793" lon="13.39201827370505"><ele>42.5</ele><time>2026-03-28T12:42:02Z</time></trkpt><trkpt lat="45.94131671226619" lon="13.392135738611774"><ele>43.0</ele><time>2026-03-28T12:42:03Z</time></trkpt><trkpt lat="45.941526559370466" lon="13.392255094718909"><ele>44.0</ele><time>2026-03-28T12:42:04Z</time></trkpt><trkpt lat="45.94173822240894" lon="13.392375701132059"><ele>45.0</ele><time>2026-03-28T12:42:05Z</time></trkpt><trkpt lat="45.94195344821401" lon="13.392497783007242"><ele>45.0</ele><time>2026-03-28T12:42:06Z</time></trkpt><trkpt lat="45.94216768358539" lon="13.392621561391138"><ele>45.0</ele><time>2026-03-28T12:42:07Z</time></trkpt><trkpt lat="45.942381757108855" lon="13.392746503041689"><ele>45.0</ele><time>2026-03-28T12:42:08Z</time></trkpt><trkpt lat="45.94259454655049" lon="13.392868331340948"><ele>45.0</ele><time>2026-03-28T12:42:09Z</time></trkpt><trkpt lat="45.94280487890199" lon="13.392987225072234"><ele>44.666666666666664</ele><time>2026-03-28T12:42:10Z</time></trkpt><trkpt lat="45.94301398941404" lon="13.393106099862049"><ele>44.33333333333333</ele><time>2026-03-28T12:42:11Z</time></trkpt><trkpt lat="45.94322218419571" lon="13.393224859056001"><ele>44.0</ele><time>2026-03-28T12:42:12Z</time></trkpt><trkpt lat="45.943429248307694" lon="13.393341429036523"><ele>44.0</ele><time>2026-03-28T12:42:13Z</time></trkpt><trkpt lat="45.943635577696924" lon="13.3934563005508"><ele>44.0</ele><time>2026-03-28T12:42:14Z</time></trkpt><trkpt lat="45.94384152733472" lon="13.393575083264093"><ele>44.0</ele><time>2026-03-28T12:42:15Z</time></trkpt><trkpt lat="45.944047329867395" lon="13.393696480840246"><ele>44.0</ele><time>2026-03-28T12:42:16Z</time></trkpt><trkpt lat="45.944252095148606" lon="13.39381613609824"><ele>44.0</ele><time>2026-03-28T12:42:17Z</time></trkpt><trkpt lat="45.944457497115295" lon="13.393935349469967"><ele>44.0</ele><time>2026-03-28T12:42:18Z</time></trkpt><trkpt lat="45.944662671654385" lon="13.39405320559047"><ele>44.0</ele><time>2026-03-28T12:42:19Z</time></trkpt><trkpt lat="45.94486792928169" lon="13.394170250755657"><ele>44.0</ele><time>2026-03-28T12:42:20Z</time></trkpt><trkpt lat="45.94506909632718" lon="13.394281582319877"><ele>44.0</ele><time>2026-03-28T12:42:21Z</time></trkpt><trkpt lat="45.945266829942085" lon="13.394385085884773"><ele>44.666666666666664</ele><time>2026-03-28T12:42:22Z</time></trkpt><trkpt lat="45.945463815328246" lon="13.39447417008936"><ele>45.333333333333336</ele><time>2026-03-28T12:42:23Z</time></trkpt><trkpt lat="45.94566299859534" lon="13.394543586767075"><ele>46.0</ele><time>2026-03-28T12:42:24Z</time></trkpt><trkpt lat="45.9458634826406" lon="13.394592142473984"><ele>46.0</ele><time>2026-03-28T12:42:25Z</time></trkpt><trkpt lat="45.946063285004854" lon="13.394626031104886"><ele>46.0</ele><time>2026-03-28T12:42:26Z</time></trkpt><trkpt lat="45.9462625032387" lon="13.394659228042585"><ele>46.0</ele><time>2026-03-28T12:42:27Z</time></trkpt><trkpt lat="45.946462307989435" lon="13.39469437222697"><ele>46.0</ele><time>2026-03-28T12:42:28Z</time></trkpt><trkpt lat="45.94666351533119" lon="13.394732568935721"><ele>46.0</ele><time>2026-03-28T12:42:29Z</time></trkpt><trkpt lat="45.94686537464361" lon="13.39476919888861"><ele>46.0</ele><time>2026-03-28T12:42:30Z</time></trkpt><trkpt lat="45.94706647989142" lon="13.39480417170186"><ele>46.0</ele><time>2026-03-28T12:42:31Z</time></trkpt><trkpt lat="45.9472628581404" lon="13.394838296076736"><ele>46.0</ele><time>2026-03-28T12:42:32Z</time></trkpt><trkpt lat="45.9474531197343" lon="13.394869478810323"><ele>46.0</ele><time>2026-03-28T12:42:33Z</time></trkpt><trkpt lat="45.94763902941794" lon="13.39489858634822"><ele>46.0</ele><time>2026-03-28T12:42:34Z</time></trkpt><trkpt lat="45.94781871030939" lon="13.394929663642028"><ele>46.0</ele><time>2026-03-28T12:42:35Z</time></trkpt><trkpt lat="45.94799402196701" lon="13.394953776827949"><ele>46.0</ele><time>2026-03-28T12:42:36Z</time></trkpt><trkpt lat="45.9481716614668" lon="13.39496729449939"><ele>46.0</ele><time>2026-03-28T12:42:37Z</time></trkpt><trkpt lat="45.948351042280784" lon="13.394968379199451"><ele>46.0</ele><time>2026-03-28T12:42:38Z</time></trkpt><trkpt lat="45.948533124910504" lon="13.394955633662"><ele>46.0</ele><time>2026-03-28T12:42:39Z</time></trkpt><trkpt lat="45.94871288530698" lon="13.394934180638542"><ele>46.0</ele><time>2026-03-28T12:42:40Z</time></trkpt><trkpt lat="45.94889262877291" lon="13.394906322040661"><ele>46.0</ele><time>2026-03-28T12:42:41Z</time></trkpt><trkpt lat="45.94907013378284" lon="13.394872233273272"><ele>46.0</ele><time>2026-03-28T12:42:42Z</time></trkpt><trkpt lat="45.94924705433622" lon="13.394839869607425"><ele>46.0</ele><time>2026-03-28T12:42:43Z</time></trkpt><trkpt lat="45.949423295437015" lon="13.394810056061457"><ele>46.0</ele><time>2026-03-28T12:42:44Z</time></trkpt><trkpt lat="45.949598707789555" lon="13.394780517369453"><ele>46.0</ele><time>2026-03-28T12:42:45Z</time></trkpt><trkpt lat="45.94977660095391" lon="13.394749547973984"><ele>46.0</ele><time>2026-03-28T12:42:46Z</time></trkpt><trkpt lat="45.94995475291148" lon="13.394716387233068"><ele>46.0</ele><time>2026-03-28T12:42:47Z</time></trkpt><trkpt lat="45.95013161129397" lon="13.394681613533088"><ele>46.0</ele><time>2026-03-28T12:42:48Z</time></trkpt><trkpt lat="45.95030797993524" lon="13.394649853956212"><ele>46.0</ele><time>2026-03-28T12:42:48.999Z</time></trkpt><trkpt lat="45.95048643410764" lon="13.39462429008724"><ele>46.0</ele><time>2026-03-28T12:42:49.999Z</time></trkpt><trkpt lat="45.9506691253689" lon="13.394596923550521"><ele>46.0</ele><time>2026-03-28T12:42:50.999Z</time></trkpt><trkpt lat="45.95085389347341" lon="13.394568380626563"><ele>46.333333333333336</ele><time>2026-03-28T12:42:51.999Z</time></trkpt><trkpt lat="45.951041041158746" lon="13.394527685976913"><ele>46.666666666666664</ele><time>2026-03-28T12:42:52.999Z</time></trkpt><trkpt lat="45.95123719814135" lon="13.3944817351113"><ele>47.0</ele><time>2026-03-28T12:42:53.999Z</time></trkpt><trkpt lat="45.95144746759491" lon="13.394428498034758"><ele>47.0</ele><time>2026-03-28T12:42:54.999Z</time></trkpt><trkpt lat="45.95170627042794" lon="13.39439624994571"><ele>47.0</ele><time>2026-03-28T12:42:55.999Z</time></trkpt><trkpt lat="45.95199349674687" lon="13.394325796107646"><ele>48.0</ele><time>2026-03-28T12:42:56.999Z</time></trkpt><trkpt lat="45.95230751176214" lon="13.394286411306277"><ele>49.0</ele><time>2026-03-28T12:42:57.999Z</time></trkpt><trkpt lat="45.95262565428509" lon="13.394261592009656"><ele>47.0</ele><time>2026-03-28T12:42:58.999Z</time></trkpt><trkpt lat="45.95294881305705" lon="13.394285317182558"><ele>45.0</ele><time>2026-03-28T12:42:59.999Z</time></trkpt><trkpt lat="45.953275804171135" lon="13.39436592585007"><ele>47.0</ele><time>2026-03-28T12:43:00.999Z</time></trkpt><trkpt lat="45.953604188725386" lon="13.394476826915627"><ele>49.0</ele><time>2026-03-28T12:43:01.999Z</time></trkpt><trkpt lat="45.95392517130187" lon="13.394583595850314"><ele>49.0</ele><time>2026-03-28T12:43:02.999Z</time></trkpt><trkpt lat="45.95424209991855" lon="13.394690970388444"><ele>49.0</ele><time>2026-03-28T12:43:03.999Z</time></trkpt><trkpt lat="45.954548458235045" lon="13.39481063872375"><ele>49.0</ele><time>2026-03-28T12:43:04.999Z</time></trkpt><trkpt lat="45.954843272678524" lon="13.394929545692868"><ele>49.0</ele><time>2026-03-28T12:43:05.999Z</time></trkpt><trkpt lat="45.95513794726043" lon="13.395026154565645"><ele>50.0</ele><time>2026-03-28T12:43:06.999Z</time></trkpt><trkpt lat="45.95542714402055" lon="13.395117816562397"><ele>51.0</ele><time>2026-03-28T12:43:07.999Z</time></trkpt><trkpt lat="45.955707436471336" lon="13.395212842068478"><ele>50.0</ele><time>2026-03-28T12:43:08.999Z</time></trkpt><trkpt lat="45.95598269665324" lon="13.395303518409627"><ele>49.0</ele><time>2026-03-28T12:43:09.999Z</time></trkpt><trkpt lat="45.95625756567994" lon="13.39538475687193"><ele>49.0</ele><time>2026-03-28T12:43:10.999Z</time></trkpt><trkpt lat="45.956528361066496" lon="13.39546203327153"><ele>49.0</ele><time>2026-03-28T12:43:11.999Z</time></trkpt><trkpt lat="45.95679858434748" lon="13.395543174129681"><ele>50.0</ele><time>2026-03-28T12:43:12.999Z</time></trkpt><trkpt lat="45.95706543594308" lon="13.395628045245505"><ele>51.0</ele><time>2026-03-28T12:43:13.999Z</time></trkpt><trkpt lat="45.957330359355595" lon="13.395717791853233"><ele>52.0</ele><time>2026-03-28T12:43:14.999Z</time></trkpt><trkpt lat="45.95759183528672" lon="13.395806345741988"><ele>53.0</ele><time>2026-03-28T12:43:15.999Z</time></trkpt><trkpt lat="45.957852314357346" lon="13.395892076005325"><ele>53.0</ele><time>2026-03-28T12:43:16.999Z</time></trkpt><trkpt lat="45.958111725394375" lon="13.395976480160284"><ele>53.0</ele><time>2026-03-28T12:43:17.999Z</time></trkpt><trkpt lat="45.958368872972805" lon="13.39606028575827"><ele>52.0</ele><time>2026-03-28T12:43:18.999Z</time></trkpt><trkpt lat="45.958624927547625" lon="13.396146672500665"><ele>51.0</ele><time>2026-03-28T12:43:19.999Z</time></trkpt><trkpt lat="45.95888138876111" lon="13.396231396647059"><ele>51.0</ele><time>2026-03-28T12:43:20.999Z</time></trkpt><trkpt lat="45.95913905585307" lon="13.396310116414494"><ele>51.0</ele><time>2026-03-28T12:43:21.999Z</time></trkpt><trkpt lat="45.95939550043706" lon="13.396387156168611"><ele>49.5</ele><time>2026-03-28T12:43:22.999Z</time></trkpt><trkpt lat="45.959651966305984" lon="13.396460147512737"><ele>48.0</ele><time>2026-03-28T12:43:23.999Z</time></trkpt><trkpt lat="45.959910099517764" lon="13.39652953971888"><ele>49.0</ele><time>2026-03-28T12:43:24.999Z</time></trkpt><trkpt lat="45.96016800134315" lon="13.39659770723631"><ele>50.0</ele><time>2026-03-28T12:43:25.999Z</time></trkpt><trkpt lat="45.96041999247779" lon="13.396665492253229"><ele>50.0</ele><time>2026-03-28T12:43:26.999Z</time></trkpt><trkpt lat="45.96067053781314" lon="13.39673212337582"><ele>50.0</ele><time>2026-03-28T12:43:27.999Z</time></trkpt><trkpt lat="45.96091887523972" lon="13.396797080119617"><ele>51.5</ele><time>2026-03-28T12:43:28.999Z</time></trkpt><trkpt lat="45.96116441656745" lon="13.396862618791737"><ele>53.0</ele><time>2026-03-28T12:43:29.999Z</time></trkpt><trkpt lat="45.96140841575751" lon="13.396928879980962"><ele>53.0</ele><time>2026-03-28T12:43:31Z</time></trkpt><trkpt lat="45.96165077101289" lon="13.396994042944684"><ele>53.0</ele><time>2026-03-28T12:43:32Z</time></trkpt><trkpt lat="45.96189146015719" lon="13.397057203925524"><ele>53.5</ele><time>2026-03-28T12:43:33Z</time></trkpt><trkpt lat="45.96213138510053" lon="13.397121248846444"><ele>54.0</ele><time>2026-03-28T12:43:34Z</time></trkpt><trkpt lat="45.96237085601181" lon="13.397186721089426"><ele>54.0</ele><time>2026-03-28T12:43:35Z</time></trkpt><trkpt lat="45.962609101073454" lon="13.39725488690702"><ele>54.0</ele><time>2026-03-28T12:43:36Z</time></trkpt><trkpt lat="45.962846627601735" lon="13.397325013033456"><ele>54.0</ele><time>2026-03-28T12:43:37Z</time></trkpt><trkpt lat="45.963079456196105" lon="13.397401225398886"><ele>54.0</ele><time>2026-03-28T12:43:38Z</time></trkpt><trkpt lat="45.963306097754355" lon="13.397491468625809"><ele>54.5</ele><time>2026-03-28T12:43:39Z</time></trkpt><trkpt lat="45.96352929561912" lon="13.397598791956097"><ele>55.0</ele><time>2026-03-28T12:43:40Z</time></trkpt><trkpt lat="45.96375106366889" lon="13.397703693473108"><ele>55.0</ele><time>2026-03-28T12:43:41Z</time></trkpt><trkpt lat="45.96396930437155" lon="13.397805116017208"><ele>55.0</ele><time>2026-03-28T12:43:42Z</time></trkpt><trkpt lat="45.96418613660598" lon="13.39790293118752"><ele>55.0</ele><time>2026-03-28T12:43:43Z</time></trkpt><trkpt lat="45.964401124326876" lon="13.397998448430911"><ele>55.0</ele><time>2026-03-28T12:43:44Z</time></trkpt><trkpt lat="45.96461523936729" lon="13.398093573360807"><ele>55.0</ele><time>2026-03-28T12:43:45Z</time></trkpt><trkpt lat="45.964828068438266" lon="13.398185006984953"><ele>55.33333333333333</ele><time>2026-03-28T12:43:46Z</time></trkpt><trkpt lat="45.9650395961995" lon="13.398259460157762"><ele>55.66666666666667</ele><time>2026-03-28T12:43:47Z</time></trkpt><trkpt lat="45.96525082522636" lon="13.398312913450267"><ele>56.0</ele><time>2026-03-28T12:43:48Z</time></trkpt><trkpt lat="45.96546025675149" lon="13.398348315440028"><ele>56.0</ele><time>2026-03-28T12:43:49Z</time></trkpt><trkpt lat="45.96566562121655" lon="13.39837432818824"><ele>56.0</ele><time>2026-03-28T12:43:50Z</time></trkpt><trkpt lat="45.96586647559902" lon="13.398395204148962"><ele>56.0</ele><time>2026-03-28T12:43:51Z</time></trkpt><trkpt lat="45.9660582394459" lon="13.398415478656348"><ele>55.66666666666667</ele><time>2026-03-28T12:43:52Z</time></trkpt><trkpt lat="45.9662370911835" lon="13.398435925138587"><ele>55.33333333333333</ele><time>2026-03-28T12:43:53Z</time></trkpt><trkpt lat="45.96640063754269" lon="13.398452693183927"><ele>55.0</ele><time>2026-03-28T12:43:54Z</time></trkpt><trkpt lat="45.96655983291853" lon="13.398470988213905"><ele>55.5</ele><time>2026-03-28T12:43:55Z</time></trkpt><trkpt lat="45.96671447411696" lon="13.39848723285391"><ele>56.0</ele><time>2026-03-28T12:43:56Z</time></trkpt><trkpt lat="45.96686100315112" lon="13.398497428102884"><ele>56.5</ele><time>2026-03-28T12:43:57Z</time></trkpt><trkpt lat="45.96700508539892" lon="13.398490251037645"><ele>57.0</ele><time>2026-03-28T12:43:58Z</time></trkpt><trkpt lat="45.967163302737994" lon="13.39848854398388"><ele>57.0</ele><time>2026-03-28T12:43:59Z</time></trkpt><trkpt lat="45.967334558770645" lon="13.39845712320201"><ele>57.0</ele><time>2026-03-28T12:44:00Z</time></trkpt><trkpt lat="45.967522332302906" lon="13.398416592582286"><ele>57.0</ele><time>2026-03-28T12:44:01Z</time></trkpt><trkpt lat="45.96771528124726" lon="13.398350127362171"><ele>57.33333333333333</ele><time>2026-03-28T12:44:02Z</time></trkpt><trkpt lat="45.967916633596" lon="13.398312736363794"><ele>57.666666666666664</ele><time>2026-03-28T12:44:03Z</time></trkpt><trkpt lat="45.96812312327918" lon="13.398268342787429"><ele>58.0</ele><time>2026-03-28T12:44:04Z</time></trkpt><trkpt lat="45.968328580283824" lon="13.398222504034113"><ele>58.0</ele><time>2026-03-28T12:44:05Z</time></trkpt><trkpt lat="45.96853113825979" lon="13.398174031611463"><ele>58.0</ele><time>2026-03-28T12:44:06Z</time></trkpt><trkpt lat="45.968732370247544" lon="13.398124227622079"><ele>58.0</ele><time>2026-03-28T12:44:07Z</time></trkpt><trkpt lat="45.96892890454486" lon="13.398076573261735"><ele>58.0</ele><time>2026-03-28T12:44:08Z</time></trkpt><trkpt lat="45.96911186174344" lon="13.398034237965922"><ele>58.0</ele><time>2026-03-28T12:44:09Z</time></trkpt><trkpt lat="45.96928036445382" lon="13.397996715976733"><ele>58.0</ele><time>2026-03-28T12:44:10Z</time></trkpt><trkpt lat="45.969433912449595" lon="13.397962090781023"><ele>58.5</ele><time>2026-03-28T12:44:11Z</time></trkpt><trkpt lat="45.96957423913045" lon="13.397929623937623"><ele>59.0</ele><time>2026-03-28T12:44:12Z</time></trkpt><trkpt lat="45.969695967772225" lon="13.397895586750792"><ele>59.5</ele><time>2026-03-28T12:44:13Z</time></trkpt><trkpt lat="45.969803074337776" lon="13.397857530412484"><ele>60.0</ele><time>2026-03-28T12:44:14Z</time></trkpt><trkpt lat="45.969929961241505" lon="13.397819448147903"><ele>60.0</ele><time>2026-03-28T12:44:15Z</time></trkpt><trkpt lat="45.970069324594355" lon="13.397805565018048"><ele>60.0</ele><time>2026-03-28T12:44:16Z</time></trkpt><trkpt lat="45.97021921403959" lon="13.397794396129674"><ele>60.0</ele><time>2026-03-28T12:44:17Z</time></trkpt><trkpt lat="45.97038317001042" lon="13.3977736702991"><ele>60.0</ele><time>2026-03-28T12:44:18Z</time></trkpt><trkpt lat="45.97055291618488" lon="13.397758227707033"><ele>60.0</ele><time>2026-03-28T12:44:19Z</time></trkpt><trkpt lat="45.97072772773726" lon="13.397741959709036"><ele>60.0</ele><time>2026-03-28T12:44:20Z</time></trkpt><trkpt lat="45.97090244035312" lon="13.397725100663147"><ele>60.33333333333333</ele><time>2026-03-28T12:44:21Z</time></trkpt><trkpt lat="45.97107088419054" lon="13.397713260817149"><ele>60.666666666666664</ele><time>2026-03-28T12:44:22Z</time></trkpt><trkpt lat="45.971243381866465" lon="13.397700092877894"><ele>61.0</ele><time>2026-03-28T12:44:23Z</time></trkpt><trkpt lat="45.97141561162287" lon="13.39769113827844"><ele>61.0</ele><time>2026-03-28T12:44:24Z</time></trkpt><trkpt lat="45.97158852445335" lon="13.397688006186419"><ele>61.0</ele><time>2026-03-28T12:44:25Z</time></trkpt><trkpt lat="45.97175233869653" lon="13.397678401745782"><ele>61.0</ele><time>2026-03-28T12:44:26Z</time></trkpt><trkpt lat="45.97189664214817" lon="13.397658333246355"><ele>61.0</ele><time>2026-03-28T12:44:27Z</time></trkpt><trkpt lat="45.97203039232762" lon="13.397644288046937"><ele>61.0</ele><time>2026-03-28T12:44:28Z</time></trkpt><trkpt lat="45.97214969969077" lon="13.39764502784039"><ele>61.0</ele><time>2026-03-28T12:44:29Z</time></trkpt><trkpt lat="45.972255168729966" lon="13.397665892376963"><ele>61.0</ele><time>2026-03-28T12:44:30Z</time></trkpt><trkpt lat="45.97234583027473" lon="13.397707296980535"><ele>61.0</ele><time>2026-03-28T12:44:31Z</time></trkpt><trkpt lat="45.97240999287531" lon="13.39774233242325"><ele>60.99999999999999</ele><time>2026-03-28T12:44:32Z</time></trkpt><trkpt lat="45.97246815628092" lon="13.397792704129843"><ele>60.99999999999999</ele><time>2026-03-28T12:44:34Z</time></trkpt><trkpt lat="45.9725191864234" lon="13.397866966041391"><ele>61.0</ele><time>2026-03-28T12:44:36Z</time></trkpt><trkpt lat="45.972615356338004" lon="13.397969189098944"><ele>61.0</ele><time>2026-03-28T12:44:38Z</time></trkpt><trkpt lat="45.972761755153165" lon="13.397952196413494"><ele>61.166666666666664</ele><time>2026-03-28T12:44:40Z</time></trkpt><trkpt lat="45.97281630862637" lon="13.397880495620498"><ele>61.33333333333333</ele><time>2026-03-28T12:44:41Z</time></trkpt><trkpt lat="45.97284720614451" lon="13.397796436430028"><ele>61.5</ele><time>2026-03-28T12:44:42Z</time></trkpt><trkpt lat="45.972877098682005" lon="13.39764016050544"><ele>61.66666666666667</ele><time>2026-03-28T12:44:44Z</time></trkpt><trkpt lat="45.97294957179381" lon="13.39758329019193"><ele>61.833333333333336</ele><time>2026-03-28T12:44:45Z</time></trkpt><trkpt lat="45.97302500798632" lon="13.397528424767877"><ele>62.0</ele><time>2026-03-28T12:44:47Z</time></trkpt><trkpt lat="45.97310053864088" lon="13.39744874185154"><ele>62.0</ele><time>2026-03-28T12:44:49Z</time></trkpt><trkpt lat="45.97321000647461" lon="13.397513980764064"><ele>62.0</ele><time>2026-03-28T12:44:50Z</time></trkpt><trkpt lat="45.97330658547972" lon="13.397499725815512"><ele>62.0</ele><time>2026-03-28T12:44:51Z</time></trkpt><trkpt lat="45.97342448800302" lon="13.397468744022234"><ele>62.0</ele><time>2026-03-28T12:44:52Z</time></trkpt><trkpt lat="45.97355734983823" lon="13.397441896670301"><ele>62.0</ele><time>2026-03-28T12:44:53Z</time></trkpt><trkpt lat="45.97370503206669" lon="13.397410248677826"><ele>62.0</ele><time>2026-03-28T12:44:53.999Z</time></trkpt><trkpt lat="45.97386177356009" lon="13.397373919685947"><ele>62.0</ele><time>2026-03-28T12:44:54.999Z</time></trkpt><trkpt lat="45.97402208975191" lon="13.397338733184148"><ele>62.0</ele><time>2026-03-28T12:44:55.999Z</time></trkpt><trkpt lat="45.97417617619517" lon="13.397309720607613"><ele>62.0</ele><time>2026-03-28T12:44:56.999Z</time></trkpt><trkpt lat="45.974313800598004" lon="13.397280948340017"><ele>62.0</ele><time>2026-03-28T12:44:57.999Z</time></trkpt><trkpt lat="45.9744432792993" lon="13.397250947970557"><ele>62.0</ele><time>2026-03-28T12:44:58.999Z</time></trkpt><trkpt lat="45.97456641027675" lon="13.397227635404944"><ele>62.0</ele><time>2026-03-28T12:44:59.999Z</time></trkpt><trkpt lat="45.974678556125276" lon="13.397206081053133"><ele>62.0</ele><time>2026-03-28T12:45:00.999Z</time></trkpt><trkpt lat="45.9747738338262" lon="13.397184967596605"><ele>62.0</ele><time>2026-03-28T12:45:01.999Z</time></trkpt><trkpt lat="45.974858159507754" lon="13.397165764101567"><ele>62.0</ele><time>2026-03-28T12:45:02.999Z</time></trkpt><trkpt lat="45.974923190515106" lon="13.397153004567958"><ele>62.0</ele><time>2026-03-28T12:45:03.999Z</time></trkpt><trkpt lat="45.97501892633231" lon="13.397140698886188"><ele>62.0</ele><time>2026-03-28T12:45:05.999Z</time></trkpt><trkpt lat="45.97508402518401" lon="13.39713185687501"><ele>62.0</ele><time>2026-03-28T12:45:06.999Z</time></trkpt><trkpt lat="45.97515949432102" lon="13.39714774708434"><ele>62.0</ele><time>2026-03-28T12:45:07.999Z</time></trkpt><trkpt lat="45.97525446147513" lon="13.397084418747907"><ele>62.0</ele><time>2026-03-28T12:45:08.999Z</time></trkpt><trkpt lat="45.97536858515795" lon="13.397048630000173"><ele>62.0</ele><time>2026-03-28T12:45:09.999Z</time></trkpt><trkpt lat="45.9755025577483" lon="13.397018700602949"><ele>62.0</ele><time>2026-03-28T12:45:10.999Z</time></trkpt><trkpt lat="45.975650248213164" lon="13.39699387086204"><ele>62.0</ele><time>2026-03-28T12:45:11.999Z</time></trkpt><trkpt lat="45.975805415304904" lon="13.39698278856031"><ele>62.0</ele><time>2026-03-28T12:45:12.999Z</time></trkpt><trkpt lat="45.97596020464036" lon="13.396975002296434"><ele>62.333333333333336</ele><time>2026-03-28T12:45:13.999Z</time></trkpt><trkpt lat="45.97611690407391" lon="13.396965284207074"><ele>62.66666666666667</ele><time>2026-03-28T12:45:14.999Z</time></trkpt><trkpt lat="45.9762800265521" lon="13.396958916786433"><ele>63.0</ele><time>2026-03-28T12:45:15.999Z</time></trkpt><trkpt lat="45.976422247367545" lon="13.396951971812522"><ele>63.0</ele><time>2026-03-28T12:45:16.999Z</time></trkpt><trkpt lat="45.976552312568856" lon="13.396946924632704"><ele>63.0</ele><time>2026-03-28T12:45:17.999Z</time></trkpt><trkpt lat="45.97666907249575" lon="13.396938476393855"><ele>63.0</ele><time>2026-03-28T12:45:18.999Z</time></trkpt><trkpt lat="45.97680166858618" lon="13.396930184269683"><ele>63.0</ele><time>2026-03-28T12:45:19.999Z</time></trkpt><trkpt lat="45.97690625469801" lon="13.396922969584123"><ele>63.2</ele><time>2026-03-28T12:45:20.999Z</time></trkpt><trkpt lat="45.97701629050705" lon="13.396912026465767"><ele>63.4</ele><time>2026-03-28T12:45:21.999Z</time></trkpt><trkpt lat="45.97711983985852" lon="13.396922985479573"><ele>63.60000000000001</ele><time>2026-03-28T12:45:22.999Z</time></trkpt><trkpt lat="45.977225449246454" lon="13.396899829205228"><ele>63.800000000000004</ele><time>2026-03-28T12:45:23.999Z</time></trkpt><trkpt lat="45.97733602514767" lon="13.396881622693511"><ele>64.0</ele><time>2026-03-28T12:45:24.999Z</time></trkpt><trkpt lat="45.9774476871155" lon="13.396863480479851"><ele>63.800000000000004</ele><time>2026-03-28T12:45:25.999Z</time></trkpt><trkpt lat="45.97755700588899" lon="13.396846784074759"><ele>63.60000000000001</ele><time>2026-03-28T12:45:26.999Z</time></trkpt><trkpt lat="45.9776666264074" lon="13.396828622543183"><ele>63.4</ele><time>2026-03-28T12:45:27.999Z</time></trkpt><trkpt lat="45.97777275099129" lon="13.396811980750646"><ele>63.2</ele><time>2026-03-28T12:45:28.999Z</time></trkpt><trkpt lat="45.97787833681277" lon="13.396794081757886"><ele>63.0</ele><time>2026-03-28T12:45:29.999Z</time></trkpt><trkpt lat="45.97798257096602" lon="13.396775176722318"><ele>63.0</ele><time>2026-03-28T12:45:30.999Z</time></trkpt><trkpt lat="45.97808936022427" lon="13.39675703691797"><ele>63.0</ele><time>2026-03-28T12:45:31.999Z</time></trkpt><trkpt lat="45.97818989447839" lon="13.396741003528211"><ele>63.0</ele><time>2026-03-28T12:45:32.999Z</time></trkpt><trkpt lat="45.97828711054623" lon="13.396737085248999"><ele>63.0</ele><time>2026-03-28T12:45:33.999Z</time></trkpt><trkpt lat="45.97838413630498" lon="13.396758408561821"><ele>63.0</ele><time>2026-03-28T12:45:34.999Z</time></trkpt><trkpt lat="45.978479878909674" lon="13.396813544122923"><ele>63.0</ele><time>2026-03-28T12:45:35.999Z</time></trkpt><trkpt lat="45.97857560307244" lon="13.396879593795424"><ele>63.0</ele><time>2026-03-28T12:45:37Z</time></trkpt><trkpt lat="45.9786736947249" lon="13.396946694362644"><ele>63.0</ele><time>2026-03-28T12:45:38Z</time></trkpt><trkpt lat="45.97875949029526" lon="13.397031414898448"><ele>63.0</ele><time>2026-03-28T12:45:39Z</time></trkpt><trkpt lat="45.97884296066116" lon="13.39712785765272"><ele>63.0</ele><time>2026-03-28T12:45:40Z</time></trkpt><trkpt lat="45.97891946864086" lon="13.397230736021365"><ele>63.0</ele><time>2026-03-28T12:45:41Z</time></trkpt><trkpt lat="45.97898714712615" lon="13.397328593417832"><ele>63.0</ele><time>2026-03-28T12:45:42Z</time></trkpt><trkpt lat="45.97904856915446" lon="13.397418727344359"><ele>63.0</ele><time>2026-03-28T12:45:43Z</time></trkpt><trkpt lat="45.97910597248794" lon="13.397502782652056"><ele>63.0</ele><time>2026-03-28T12:45:44Z</time></trkpt><trkpt lat="45.97915223934725" lon="13.397572078303641"><ele>63.0</ele><time>2026-03-28T12:45:45Z</time></trkpt><trkpt lat="45.979230114629736" lon="13.397698910611728"><ele>63.25</ele><time>2026-03-28T12:45:47Z</time></trkpt><trkpt lat="45.97931249306698" lon="13.39783179156074"><ele>63.5</ele><time>2026-03-28T12:45:49Z</time></trkpt><trkpt lat="45.979412902107775" lon="13.39788452975484"><ele>63.75</ele><time>2026-03-28T12:45:51Z</time></trkpt><trkpt lat="45.979541669272905" lon="13.397879544830474"><ele>64.0</ele><time>2026-03-28T12:45:53Z</time></trkpt><trkpt lat="45.97963249762716" lon="13.39791379783162"><ele>64.0</ele><time>2026-03-28T12:45:54Z</time></trkpt><trkpt lat="45.979742767644865" lon="13.397961719250109"><ele>64.0</ele><time>2026-03-28T12:45:55Z</time></trkpt><trkpt lat="45.979875838007565" lon="13.398033311905413"><ele>64.0</ele><time>2026-03-28T12:45:56Z</time></trkpt><trkpt lat="45.98002369289496" lon="13.398090241985575"><ele>64.0</ele><time>2026-03-28T12:45:57Z</time></trkpt><trkpt lat="45.980160581961655" lon="13.398156834816131"><ele>63.0</ele><time>2026-03-28T12:45:58Z</time></trkpt><trkpt lat="45.98028761108072" lon="13.398241807717145"><ele>62.0</ele><time>2026-03-28T12:45:59Z</time></trkpt><trkpt lat="45.98040933593872" lon="13.398346893209128"><ele>61.0</ele><time>2026-03-28T12:46:00Z</time></trkpt><trkpt lat="45.98052683851557" lon="13.398468145825873"><ele>60.0</ele><time>2026-03-28T12:46:01Z</time></trkpt><trkpt lat="45.980639765146634" lon="13.398609925268484"><ele>60.0</ele><time>2026-03-28T12:46:02Z</time></trkpt><trkpt lat="45.98074303330339" lon="13.398769443554235"><ele>60.0</ele><time>2026-03-28T12:46:03Z</time></trkpt><trkpt lat="45.98083841464422" lon="13.398936170119821"><ele>60.0</ele><time>2026-03-28T12:46:04Z</time></trkpt><trkpt lat="45.98093041568469" lon="13.399097566765102"><ele>60.0</ele><time>2026-03-28T12:46:05Z</time></trkpt><trkpt lat="45.98101912958648" lon="13.399258855797303"><ele>60.25</ele><time>2026-03-28T12:46:06Z</time></trkpt><trkpt lat="45.981101574277304" lon="13.399417858178802"><ele>60.5</ele><time>2026-03-28T12:46:07Z</time></trkpt><trkpt lat="45.98118484981369" lon="13.399568383270749"><ele>60.75</ele><time>2026-03-28T12:46:08Z</time></trkpt><trkpt lat="45.9812640822802" lon="13.399708051994557"><ele>61.0</ele><time>2026-03-28T12:46:09Z</time></trkpt><trkpt lat="45.98133216058151" lon="13.399833404776816"><ele>60.99999999999999</ele><time>2026-03-28T12:46:10Z</time></trkpt><trkpt lat="45.981397908503375" lon="13.399944239868987"><ele>61.0</ele><time>2026-03-28T12:46:11Z</time></trkpt><trkpt lat="45.98145742743807" lon="13.400037883716687"><ele>61.0</ele><time>2026-03-28T12:46:12Z</time></trkpt><trkpt lat="45.9815105467985" lon="13.400127222594127"><ele>61.0</ele><time>2026-03-28T12:46:13Z</time></trkpt><trkpt lat="45.981559691802254" lon="13.400206285431434"><ele>60.99999999999999</ele><time>2026-03-28T12:46:14Z</time></trkpt><trkpt lat="45.98161882704062" lon="13.400308764067347"><ele>61.0</ele><time>2026-03-28T12:46:15Z</time></trkpt><trkpt lat="45.981693405711454" lon="13.400427138741858"><ele>61.5</ele><time>2026-03-28T12:46:16Z</time></trkpt><trkpt lat="45.981786025601025" lon="13.400556255849718"><ele>62.0</ele><time>2026-03-28T12:46:17Z</time></trkpt><trkpt lat="45.98189852503641" lon="13.400685510004086"><ele>62.5</ele><time>2026-03-28T12:46:18Z</time></trkpt><trkpt lat="45.98203733618401" lon="13.400806210817432"><ele>63.0</ele><time>2026-03-28T12:46:19Z</time></trkpt><trkpt lat="45.98219979074126" lon="13.400908409947805"><ele>63.0</ele><time>2026-03-28T12:46:20Z</time></trkpt><trkpt lat="45.982384219863754" lon="13.400977012770944"><ele>63.0</ele><time>2026-03-28T12:46:21Z</time></trkpt><trkpt lat="45.98258348317519" lon="13.400999725592829"><ele>63.0</ele><time>2026-03-28T12:46:22Z</time></trkpt><trkpt lat="45.98279390803853" lon="13.400977748525921"><ele>61.66666666666667</ele><time>2026-03-28T12:46:23Z</time></trkpt><trkpt lat="45.983008823728504" lon="13.400926585200418"><ele>60.333333333333336</ele><time>2026-03-28T12:46:24Z</time></trkpt><trkpt lat="45.983233863676396" lon="13.400877042582746"><ele>59.0</ele><time>2026-03-28T12:46:25Z</time></trkpt><trkpt lat="45.98346742834204" lon="13.400832651990212"><ele>58.5</ele><time>2026-03-28T12:46:26Z</time></trkpt><trkpt lat="45.983703978736436" lon="13.400785401285507"><ele>58.0</ele><time>2026-03-28T12:46:27Z</time></trkpt><trkpt lat="45.98394190521609" lon="13.400739868497617"><ele>58.0</ele><time>2026-03-28T12:46:28Z</time></trkpt><trkpt lat="45.98418142801372" lon="13.400692134736746"><ele>58.0</ele><time>2026-03-28T12:46:29Z</time></trkpt><trkpt lat="45.98441409504211" lon="13.400645220228512"><ele>58.0</ele><time>2026-03-28T12:46:30Z</time></trkpt><trkpt lat="45.984637721663425" lon="13.400600764964901"><ele>58.0</ele><time>2026-03-28T12:46:31Z</time></trkpt><trkpt lat="45.98485249083629" lon="13.400558069899391"><ele>58.0</ele><time>2026-03-28T12:46:32Z</time></trkpt><trkpt lat="45.98505792768475" lon="13.400518594967004"><ele>58.666666666666664</ele><time>2026-03-28T12:46:33Z</time></trkpt><trkpt lat="45.9852465193284" lon="13.400481214009464"><ele>59.33333333333333</ele><time>2026-03-28T12:46:34Z</time></trkpt><trkpt lat="45.98541874820292" lon="13.400443131729746"><ele>60.0</ele><time>2026-03-28T12:46:35Z</time></trkpt><trkpt lat="45.985575197196695" lon="13.400408773348818"><ele>60.0</ele><time>2026-03-28T12:46:36Z</time></trkpt><trkpt lat="45.985716734189765" lon="13.400378901852134"><ele>60.0</ele><time>2026-03-28T12:46:37Z</time></trkpt><trkpt lat="45.98584542339924" lon="13.400351838989625"><ele>60.0</ele><time>2026-03-28T12:46:38Z</time></trkpt><trkpt lat="45.985950251554065" lon="13.400338394057016"><ele>60.0</ele><time>2026-03-28T12:46:39Z</time></trkpt><trkpt lat="45.986038600808385" lon="13.400351879650907"><ele>60.6</ele><time>2026-03-28T12:46:40Z</time></trkpt><trkpt lat="45.9861088476144" lon="13.400342728265867"><ele>61.2</ele><time>2026-03-28T12:46:41Z</time></trkpt><trkpt lat="45.986152917978224" lon="13.400449217969813"><ele>61.8</ele><time>2026-03-28T12:46:42Z</time></trkpt><trkpt lat="45.986161533450854" lon="13.400632481165788"><ele>62.4</ele><time>2026-03-28T12:46:44Z</time></trkpt><trkpt lat="45.986107519757326" lon="13.400764043904084"><ele>63.0</ele><time>2026-03-28T12:46:45Z</time></trkpt><trkpt lat="45.98603709457432" lon="13.400931396351556"><ele>63.0</ele><time>2026-03-28T12:46:46Z</time></trkpt><trkpt lat="45.985944957839145" lon="13.401180483669492"><ele>63.0</ele><time>2026-03-28T12:46:47Z</time></trkpt><trkpt lat="45.98582421359179" lon="13.401494038777408"><ele>63.0</ele><time>2026-03-28T12:46:48Z</time></trkpt><trkpt lat="45.98569874163077" lon="13.401796982597922"><ele>62.66666666666667</ele><time>2026-03-28T12:46:49Z</time></trkpt><trkpt lat="45.98558963231511" lon="13.402063042328148"><ele>62.333333333333336</ele><time>2026-03-28T12:46:50Z</time></trkpt><trkpt lat="45.98548720430219" lon="13.402313668088068"><ele>62.0</ele><time>2026-03-28T12:46:51Z</time></trkpt><trkpt lat="45.98538125925514" lon="13.402551821372477"><ele>62.0</ele><time>2026-03-28T12:46:52Z</time></trkpt><trkpt lat="45.98526606397269" lon="13.402767399956204"><ele>62.0</ele><time>2026-03-28T12:46:53Z</time></trkpt><trkpt lat="45.98514099373253" lon="13.402957104733598"><ele>62.0</ele><time>2026-03-28T12:46:54Z</time></trkpt><trkpt lat="45.98501241743204" lon="13.403130029113008"><ele>61.333333333333336</ele><time>2026-03-28T12:46:55Z</time></trkpt><trkpt lat="45.984894492823614" lon="13.403311934316857"><ele>60.66666666666667</ele><time>2026-03-28T12:46:56Z</time></trkpt><trkpt lat="45.98478062917561" lon="13.403493042188625"><ele>60.0</ele><time>2026-03-28T12:46:56.999Z</time></trkpt><trkpt lat="45.98466458141873" lon="13.403666689688704"><ele>60.66666666666667</ele><time>2026-03-28T12:46:57.999Z</time></trkpt><trkpt lat="45.984552545538335" lon="13.403844622880445"><ele>61.333333333333336</ele><time>2026-03-28T12:46:58.999Z</time></trkpt><trkpt lat="45.9844491586808" lon="13.404033896291374"><ele>62.0</ele><time>2026-03-28T12:46:59.999Z</time></trkpt><trkpt lat="45.984354281746164" lon="13.404233375994863"><ele>62.0</ele><time>2026-03-28T12:47:00.999Z</time></trkpt><trkpt lat="45.98427077197591" lon="13.404441826154924"><ele>62.0</ele><time>2026-03-28T12:47:01.999Z</time></trkpt><trkpt lat="45.98420103122934" lon="13.404660658625346"><ele>62.0</ele><time>2026-03-28T12:47:02.999Z</time></trkpt><trkpt lat="45.9841451714345" lon="13.404884064561314"><ele>62.66666666666667</ele><time>2026-03-28T12:47:03.999Z</time></trkpt><trkpt lat="45.984104588358555" lon="13.405112282431524"><ele>63.33333333333333</ele><time>2026-03-28T12:47:04.999Z</time></trkpt><trkpt lat="45.98407163474059" lon="13.405336215559629"><ele>64.0</ele><time>2026-03-28T12:47:05.999Z</time></trkpt><trkpt lat="45.98404496372005" lon="13.405562177379728"><ele>64.33333333333333</ele><time>2026-03-28T12:47:06.999Z</time></trkpt><trkpt lat="45.98401430066376" lon="13.405788827542324"><ele>64.66666666666667</ele><time>2026-03-28T12:47:07.999Z</time></trkpt><trkpt lat="45.98398189838314" lon="13.406021098583139"><ele>65.0</ele><time>2026-03-28T12:47:08.999Z</time></trkpt><trkpt lat="45.9839515577848" lon="13.406262231696145"><ele>65.0</ele><time>2026-03-28T12:47:09.999Z</time></trkpt><trkpt lat="45.98391801131065" lon="13.406502669308976"><ele>65.0</ele><time>2026-03-28T12:47:10.999Z</time></trkpt><trkpt lat="45.98388253321185" lon="13.40674203988595"><ele>65.0</ele><time>2026-03-28T12:47:11.999Z</time></trkpt><trkpt lat="45.98384629125473" lon="13.406976812580252"><ele>65.33333333333334</ele><time>2026-03-28T12:47:12.999Z</time></trkpt><trkpt lat="45.983803185524096" lon="13.4072350050061"><ele>65.66666666666667</ele><time>2026-03-28T12:47:13.999Z</time></trkpt><trkpt lat="45.983748747138804" lon="13.407525940655555"><ele>66.0</ele><time>2026-03-28T12:47:14.999Z</time></trkpt><trkpt lat="45.98369373670349" lon="13.407814267650142"><ele>66.0</ele><time>2026-03-28T12:47:15.999Z</time></trkpt><trkpt lat="45.98364212567949" lon="13.408063293206967"><ele>66.0</ele><time>2026-03-28T12:47:16.999Z</time></trkpt><trkpt lat="45.98358153293064" lon="13.408287823685711"><ele>66.0</ele><time>2026-03-28T12:47:17.999Z</time></trkpt><trkpt lat="45.983511989173934" lon="13.408484717643175"><ele>66.0</ele><time>2026-03-28T12:47:18.999Z</time></trkpt><trkpt lat="45.98344722626816" lon="13.408666085942915"><ele>66.0</ele><time>2026-03-28T12:47:19.999Z</time></trkpt><trkpt lat="45.98338723107081" lon="13.408842843252039"><ele>66.0</ele><time>2026-03-28T12:47:20.999Z</time></trkpt><trkpt lat="45.983325218672725" lon="13.409018688658746"><ele>66.0</ele><time>2026-03-28T12:47:21.999Z</time></trkpt><trkpt lat="45.98326481137663" lon="13.409193965020194"><ele>66.5</ele><time>2026-03-28T12:47:22.999Z</time></trkpt><trkpt lat="45.98320526857562" lon="13.409371622282277"><ele>67.0</ele><time>2026-03-28T12:47:23.999Z</time></trkpt><trkpt lat="45.983145723924345" lon="13.409548762429438"><ele>67.5</ele><time>2026-03-28T12:47:24.999Z</time></trkpt><trkpt lat="45.98308632251864" lon="13.409725961457163"><ele>68.0</ele><time>2026-03-28T12:47:25.999Z</time></trkpt><trkpt lat="45.983040539109375" lon="13.409912521872922"><ele>68.0</ele><time>2026-03-28T12:47:26.999Z</time></trkpt><trkpt lat="45.98301626160787" lon="13.410114571514454"><ele>68.0</ele><time>2026-03-28T12:47:27.999Z</time></trkpt><trkpt lat="45.98300984124201" lon="13.410321158201796"><ele>68.0</ele><time>2026-03-28T12:47:28.999Z</time></trkpt><trkpt lat="45.98301290178284" lon="13.410525116157702"><ele>68.0</ele><time>2026-03-28T12:47:29.999Z</time></trkpt><trkpt lat="45.98301750429638" lon="13.410723596283118"><ele>67.5</ele><time>2026-03-28T12:47:30.999Z</time></trkpt><trkpt lat="45.98302275362176" lon="13.410919045834111"><ele>67.0</ele><time>2026-03-28T12:47:31.999Z</time></trkpt><trkpt lat="45.983027570335096" lon="13.411117658253406"><ele>66.5</ele><time>2026-03-28T12:47:32.999Z</time></trkpt><trkpt lat="45.98303122671457" lon="13.411319347473373"><ele>66.0</ele><time>2026-03-28T12:47:33.999Z</time></trkpt><trkpt lat="45.983037306908884" lon="13.411523807574072"><ele>66.0</ele><time>2026-03-28T12:47:34.999Z</time></trkpt><trkpt lat="45.98304892999049" lon="13.411730897516096"><ele>66.0</ele><time>2026-03-28T12:47:35.999Z</time></trkpt><trkpt lat="45.98305790004335" lon="13.411941617812463"><ele>66.0</ele><time>2026-03-28T12:47:36.999Z</time></trkpt><trkpt lat="45.983062833615115" lon="13.412161460128077"><ele>66.0</ele><time>2026-03-28T12:47:37.999Z</time></trkpt><trkpt lat="45.983068440267424" lon="13.412390213414342"><ele>66.0</ele><time>2026-03-28T12:47:38.999Z</time></trkpt><trkpt lat="45.983076115883776" lon="13.412619777695532"><ele>66.0</ele><time>2026-03-28T12:47:39.999Z</time></trkpt><trkpt lat="45.98308357282136" lon="13.412859488460235"><ele>66.0</ele><time>2026-03-28T12:47:40.999Z</time></trkpt><trkpt lat="45.98309065816368" lon="13.413101904376349"><ele>65.33333333333333</ele><time>2026-03-28T12:47:41.999Z</time></trkpt><trkpt lat="45.9830982989276" lon="13.413347006462791"><ele>64.66666666666666</ele><time>2026-03-28T12:47:43Z</time></trkpt><trkpt lat="45.98310553074072" lon="13.41359098366131"><ele>64.0</ele><time>2026-03-28T12:47:44Z</time></trkpt><trkpt lat="45.98311018127148" lon="13.413831995026992"><ele>64.0</ele><time>2026-03-28T12:47:45Z</time></trkpt><trkpt lat="45.983113957176045" lon="13.414076578324579"><ele>64.0</ele><time>2026-03-28T12:47:46Z</time></trkpt><trkpt lat="45.9831193494341" lon="13.414321011069715"><ele>64.0</ele><time>2026-03-28T12:47:47Z</time></trkpt><trkpt lat="45.98312408474398" lon="13.414566025975954"><ele>64.33333333333333</ele><time>2026-03-28T12:47:48Z</time></trkpt><trkpt lat="45.983127559638625" lon="13.414810765488518"><ele>64.66666666666667</ele><time>2026-03-28T12:47:49Z</time></trkpt><trkpt lat="45.983129695778786" lon="13.415054578554535"><ele>65.0</ele><time>2026-03-28T12:47:50Z</time></trkpt><trkpt lat="45.983135624615315" lon="13.415297674268228"><ele>65.33333333333334</ele><time>2026-03-28T12:47:51Z</time></trkpt><trkpt lat="45.98315215642145" lon="13.415536832867279"><ele>65.66666666666667</ele><time>2026-03-28T12:47:52Z</time></trkpt><trkpt lat="45.98318164627407" lon="13.415773106864487"><ele>66.0</ele><time>2026-03-28T12:47:53Z</time></trkpt><trkpt lat="45.983215653772376" lon="13.416009714856013"><ele>66.0</ele><time>2026-03-28T12:47:54Z</time></trkpt><trkpt lat="45.98325176540841" lon="13.416248775637639"><ele>66.0</ele><time>2026-03-28T12:47:55Z</time></trkpt><trkpt lat="45.983285764977815" lon="13.416493623779457"><ele>66.0</ele><time>2026-03-28T12:47:56Z</time></trkpt><trkpt lat="45.98332217189803" lon="13.416738260527357"><ele>66.0</ele><time>2026-03-28T12:47:57Z</time></trkpt><trkpt lat="45.983356919497815" lon="13.416978124980805"><ele>66.0</ele><time>2026-03-28T12:47:58Z</time></trkpt><trkpt lat="45.98339544381978" lon="13.417218359755628"><ele>66.0</ele><time>2026-03-28T12:47:59Z</time></trkpt><trkpt lat="45.98343284342478" lon="13.417462055807823"><ele>66.0</ele><time>2026-03-28T12:48:00Z</time></trkpt><trkpt lat="45.983472626387105" lon="13.4177060168692"><ele>66.0</ele><time>2026-03-28T12:48:01Z</time></trkpt><trkpt lat="45.983511428737685" lon="13.417952890227715"><ele>66.0</ele><time>2026-03-28T12:48:02Z</time></trkpt><trkpt lat="45.98355005951313" lon="13.418199800477858"><ele>66.0</ele><time>2026-03-28T12:48:03Z</time></trkpt><trkpt lat="45.983588508220315" lon="13.418451285866434"><ele>66.0</ele><time>2026-03-28T12:48:04Z</time></trkpt><trkpt lat="45.98362649911147" lon="13.41870178348992"><ele>66.0</ele><time>2026-03-28T12:48:05Z</time></trkpt><trkpt lat="45.983663185986515" lon="13.418955606967844"><ele>66.33333333333333</ele><time>2026-03-28T12:48:06Z</time></trkpt><trkpt lat="45.98371195402127" lon="13.419199468361834"><ele>66.66666666666666</ele><time>2026-03-28T12:48:07Z</time></trkpt><trkpt lat="45.983783133971755" lon="13.419443686369144"><ele>67.0</ele><time>2026-03-28T12:48:08Z</time></trkpt><trkpt lat="45.983879257085086" lon="13.419664352599462"><ele>66.33333333333333</ele><time>2026-03-28T12:48:09Z</time></trkpt><trkpt lat="45.9839649151222" lon="13.419869126331163"><ele>65.66666666666667</ele><time>2026-03-28T12:48:10Z</time></trkpt><trkpt lat="45.98404679487823" lon="13.420072294211458"><ele>65.0</ele><time>2026-03-28T12:48:11Z</time></trkpt><trkpt lat="45.98414100459098" lon="13.42028405981112"><ele>66.0</ele><time>2026-03-28T12:48:12Z</time></trkpt><trkpt lat="45.98423032268013" lon="13.42049574239858"><ele>67.0</ele><time>2026-03-28T12:48:13Z</time></trkpt><trkpt lat="45.98431335298279" lon="13.420698035965753"><ele>68.0</ele><time>2026-03-28T12:48:14Z</time></trkpt><trkpt lat="45.98439485937271" lon="13.42088755177642"><ele>68.0</ele><time>2026-03-28T12:48:15Z</time></trkpt><trkpt lat="45.98448009154089" lon="13.421083681676553"><ele>68.0</ele><time>2026-03-28T12:48:16Z</time></trkpt><trkpt lat="45.984559927552574" lon="13.421273433527665"><ele>68.0</ele><time>2026-03-28T12:48:17Z</time></trkpt><trkpt lat="45.984632481121416" lon="13.421454143579574"><ele>68.25</ele><time>2026-03-28T12:48:18Z</time></trkpt><trkpt lat="45.984692092205414" lon="13.421636960667314"><ele>68.5</ele><time>2026-03-28T12:48:19Z</time></trkpt><trkpt lat="45.98473395630406" lon="13.421821460726767"><ele>68.75</ele><time>2026-03-28T12:48:20Z</time></trkpt><trkpt lat="45.98476702557061" lon="13.422000163638817"><ele>69.0</ele><time>2026-03-28T12:48:21Z</time></trkpt><trkpt lat="45.984798355331264" lon="13.422162179926366"><ele>68.4</ele><time>2026-03-28T12:48:22Z</time></trkpt><trkpt lat="45.9848265287857" lon="13.422311743970445"><ele>67.80000000000001</ele><time>2026-03-28T12:48:23Z</time></trkpt><trkpt lat="45.98484683542553" lon="13.42243092433817"><ele>67.19999999999999</ele><time>2026-03-28T12:48:24Z</time></trkpt><trkpt lat="45.98486372699845" lon="13.422561375321756"><ele>66.6</ele><time>2026-03-28T12:48:26Z</time></trkpt><trkpt lat="45.98498672815521" lon="13.422483077265545"><ele>66.0</ele><time>2026-03-28T12:48:27Z</time></trkpt><trkpt lat="45.985068812223744" lon="13.422417874453252"><ele>66.0</ele><time>2026-03-28T12:48:28Z</time></trkpt><trkpt lat="45.985175165619204" lon="13.422278807990491"><ele>66.0</ele><time>2026-03-28T12:48:29Z</time></trkpt><trkpt lat="45.985322948836014" lon="13.42214173679524"><ele>66.0</ele><time>2026-03-28T12:48:30Z</time></trkpt><trkpt lat="45.985492556789474" lon="13.421990593145672"><ele>66.0</ele><time>2026-03-28T12:48:31Z</time></trkpt><trkpt lat="45.98567925287151" lon="13.42181678523918"><ele>66.0</ele><time>2026-03-28T12:48:32Z</time></trkpt><trkpt lat="45.985888121468534" lon="13.421626099691675"><ele>66.5</ele><time>2026-03-28T12:48:33Z</time></trkpt><trkpt lat="45.98610013918106" lon="13.421437531251886"><ele>67.0</ele><time>2026-03-28T12:48:34Z</time></trkpt><trkpt lat="45.98630613675352" lon="13.42125482249094"><ele>68.0</ele><time>2026-03-28T12:48:35Z</time></trkpt><trkpt lat="45.9865071993977" lon="13.421087854390535"><ele>69.0</ele><time>2026-03-28T12:48:36Z</time></trkpt><trkpt lat="45.986707506854835" lon="13.420942406336374"><ele>70.0</ele><time>2026-03-28T12:48:37Z</time></trkpt><trkpt lat="45.98691360090697" lon="13.42083282732527"><ele>71.0</ele><time>2026-03-28T12:48:38Z</time></trkpt><trkpt lat="45.98712775022532" lon="13.420764097520449"><ele>72.0</ele><time>2026-03-28T12:48:39Z</time></trkpt><trkpt lat="45.98734430801627" lon="13.420726184514631"><ele>72.33333333333333</ele><time>2026-03-28T12:48:40Z</time></trkpt><trkpt lat="45.98755675774651" lon="13.420693782691911"><ele>72.66666666666666</ele><time>2026-03-28T12:48:41Z</time></trkpt><trkpt lat="45.98777607183573" lon="13.420677366963794"><ele>73.0</ele><time>2026-03-28T12:48:42Z</time></trkpt><trkpt lat="45.98800378646167" lon="13.420699410823964"><ele>73.0</ele><time>2026-03-28T12:48:43Z</time></trkpt><trkpt lat="45.98824784776652" lon="13.420745842889666"><ele>73.0</ele><time>2026-03-28T12:48:44Z</time></trkpt><trkpt lat="45.98850045948018" lon="13.420800137752442"><ele>74.5</ele><time>2026-03-28T12:48:45Z</time></trkpt><trkpt lat="45.988761003566914" lon="13.420856228923796"><ele>76.0</ele><time>2026-03-28T12:48:46Z</time></trkpt><trkpt lat="45.98902524858772" lon="13.42091371253904"><ele>76.0</ele><time>2026-03-28T12:48:47Z</time></trkpt><trkpt lat="45.98928969414851" lon="13.420968866352727"><ele>76.0</ele><time>2026-03-28T12:48:48Z</time></trkpt><trkpt lat="45.98955221035107" lon="13.421014617473855"><ele>76.0</ele><time>2026-03-28T12:48:49Z</time></trkpt><trkpt lat="45.9898039754267" lon="13.421054708737843"><ele>76.0</ele><time>2026-03-28T12:48:50Z</time></trkpt><trkpt lat="45.99004256314007" lon="13.421100057689031"><ele>77.0</ele><time>2026-03-28T12:48:51Z</time></trkpt><trkpt lat="45.99027332636457" lon="13.421146284350082"><ele>78.0</ele><time>2026-03-28T12:48:52Z</time></trkpt><trkpt lat="45.99050332637184" lon="13.421190436610171"><ele>78.0</ele><time>2026-03-28T12:48:53Z</time></trkpt><trkpt lat="45.99073120508151" lon="13.42123318510056"><ele>78.0</ele><time>2026-03-28T12:48:54Z</time></trkpt><trkpt lat="45.99095436959226" lon="13.421280882272868"><ele>80.0</ele><time>2026-03-28T12:48:55Z</time></trkpt><trkpt lat="45.991159074801864" lon="13.421326505267427"><ele>82.0</ele><time>2026-03-28T12:48:56Z</time></trkpt><trkpt lat="45.99134839595054" lon="13.421375433855035"><ele>84.0</ele><time>2026-03-28T12:48:57Z</time></trkpt><trkpt lat="45.99153826841482" lon="13.421458101324923"><ele>84.33333333333333</ele><time>2026-03-28T12:48:58Z</time></trkpt><trkpt lat="45.991724486585845" lon="13.421595545578565"><ele>84.66666666666666</ele><time>2026-03-28T12:48:59Z</time></trkpt><trkpt lat="45.99190654305465" lon="13.421786893367164"><ele>85.0</ele><time>2026-03-28T12:48:59.999Z</time></trkpt><trkpt lat="45.99207229813843" lon="13.422035471800534"><ele>85.0</ele><time>2026-03-28T12:49:00.999Z</time></trkpt><trkpt lat="45.992238602862216" lon="13.422317712527436"><ele>85.0</ele><time>2026-03-28T12:49:01.999Z</time></trkpt><trkpt lat="45.9923983433564" lon="13.422574127739283"><ele>85.33333333333333</ele><time>2026-03-28T12:49:02.999Z</time></trkpt><trkpt lat="45.992533044210596" lon="13.422783770250007"><ele>85.66666666666667</ele><time>2026-03-28T12:49:03.999Z</time></trkpt><trkpt lat="45.99265094892451" lon="13.422952409923292"><ele>86.0</ele><time>2026-03-28T12:49:04.999Z</time></trkpt><trkpt lat="45.992774812641294" lon="13.423074368155127"><ele>86.0</ele><time>2026-03-28T12:49:05.999Z</time></trkpt><trkpt lat="45.99292298423114" lon="13.423146870830015"><ele>86.0</ele><time>2026-03-28T12:49:06.999Z</time></trkpt><trkpt lat="45.993075431904884" lon="13.42315382373035"><ele>86.0</ele><time>2026-03-28T12:49:07.999Z</time></trkpt><trkpt lat="45.99324075555539" lon="13.423086070447209"><ele>86.66666666666667</ele><time>2026-03-28T12:49:08.999Z</time></trkpt><trkpt lat="45.99342443269471" lon="13.422966368698997"><ele>87.33333333333333</ele><time>2026-03-28T12:49:09.999Z</time></trkpt><trkpt lat="45.993636301167406" lon="13.422841949067614"><ele>88.0</ele><time>2026-03-28T12:49:10.999Z</time></trkpt><trkpt lat="45.99386949440447" lon="13.422716644576802"><ele>88.0</ele><time>2026-03-28T12:49:11.999Z</time></trkpt><trkpt lat="45.99411755388108" lon="13.422579556727145"><ele>88.0</ele><time>2026-03-28T12:49:12.999Z</time></trkpt><trkpt lat="45.99437370882074" lon="13.422432692004334"><ele>88.0</ele><time>2026-03-28T12:49:13.999Z</time></trkpt><trkpt lat="45.9946390636748" lon="13.42228015968994"><ele>88.0</ele><time>2026-03-28T12:49:14.999Z</time></trkpt><trkpt lat="45.994903275955465" lon="13.422134626284656"><ele>90.0</ele><time>2026-03-28T12:49:15.999Z</time></trkpt><trkpt lat="45.9951591373962" lon="13.421988224444263"><ele>92.0</ele><time>2026-03-28T12:49:16.999Z</time></trkpt><trkpt lat="45.99540403730073" lon="13.421847390644182"><ele>92.0</ele><time>2026-03-28T12:49:17.999Z</time></trkpt><trkpt lat="45.99564176009348" lon="13.421715064183688"><ele>92.0</ele><time>2026-03-28T12:49:18.999Z</time></trkpt><trkpt lat="45.995870030897855" lon="13.421588864287171"><ele>93.5</ele><time>2026-03-28T12:49:19.999Z</time></trkpt><trkpt lat="45.99608978150598" lon="13.421461051741852"><ele>95.0</ele><time>2026-03-28T12:49:20.999Z</time></trkpt><trkpt lat="45.996299029403154" lon="13.421334474650571"><ele>94.33333333333334</ele><time>2026-03-28T12:49:21.999Z</time></trkpt><trkpt lat="45.99650131877379" lon="13.421218710497163"><ele>93.66666666666667</ele><time>2026-03-28T12:49:22.999Z</time></trkpt><trkpt lat="45.996698500744785" lon="13.421113008212686"><ele>93.0</ele><time>2026-03-28T12:49:23.999Z</time></trkpt><trkpt lat="45.99688302427254" lon="13.421024804642654"><ele>94.66666666666666</ele><time>2026-03-28T12:49:24.999Z</time></trkpt><trkpt lat="45.99706187911619" lon="13.420979110720626"><ele>96.33333333333333</ele><time>2026-03-28T12:49:25.999Z</time></trkpt><trkpt lat="45.99724927937809" lon="13.420984876789237"><ele>98.0</ele><time>2026-03-28T12:49:26.999Z</time></trkpt><trkpt lat="45.99745227684226" lon="13.421042681525885"><ele>102.5</ele><time>2026-03-28T12:49:27.999Z</time></trkpt><trkpt lat="45.99767021445831" lon="13.421116708115179"><ele>107.0</ele><time>2026-03-28T12:49:28.999Z</time></trkpt><trkpt lat="45.99789723485529" lon="13.42117583778537"><ele>107.0</ele><time>2026-03-28T12:49:29.999Z</time></trkpt><trkpt lat="45.99810110274495" lon="13.42124522461008"><ele>107.0</ele><time>2026-03-28T12:49:30.999Z</time></trkpt><trkpt lat="45.99828641828128" lon="13.421330894123765"><ele>107.0</ele><time>2026-03-28T12:49:31.999Z</time></trkpt><trkpt lat="45.99847192020696" lon="13.421400511656717"><ele>106.0</ele><time>2026-03-28T12:49:32.999Z</time></trkpt><trkpt lat="45.9986545729546" lon="13.421427931625113"><ele>105.0</ele><time>2026-03-28T12:49:33.999Z</time></trkpt><trkpt lat="45.99883787350032" lon="13.421422077649552"><ele>104.0</ele><time>2026-03-28T12:49:34.999Z</time></trkpt><trkpt lat="45.99900116054394" lon="13.421380492983722"><ele>105.0</ele><time>2026-03-28T12:49:35.999Z</time></trkpt><trkpt lat="45.99915878354074" lon="13.421309630166574"><ele>106.0</ele><time>2026-03-28T12:49:36.999Z</time></trkpt><trkpt lat="45.99929986847661" lon="13.42121831713109"><ele>107.0</ele><time>2026-03-28T12:49:37.999Z</time></trkpt><trkpt lat="45.99941661506201" lon="13.42109776949616"><ele>107.0</ele><time>2026-03-28T12:49:38.999Z</time></trkpt><trkpt lat="45.99951825778071" lon="13.420924100499795"><ele>107.0</ele><time>2026-03-28T12:49:39.999Z</time></trkpt><trkpt lat="45.999608002877764" lon="13.420703008644391"><ele>107.0</ele><time>2026-03-28T12:49:40.999Z</time></trkpt><trkpt lat="45.99970978104237" lon="13.420477537583125"><ele>107.66666666666666</ele><time>2026-03-28T12:49:41.999Z</time></trkpt><trkpt lat="45.999846849726175" lon="13.420290899337346"><ele>108.33333333333334</ele><time>2026-03-28T12:49:42.999Z</time></trkpt><trkpt lat="46.0000184200423" lon="13.4201378819171"><ele>109.0</ele><time>2026-03-28T12:49:43.999Z</time></trkpt><trkpt lat="46.00020717397819" lon="13.419989674365315"><ele>109.0</ele><time>2026-03-28T12:49:44.999Z</time></trkpt><trkpt lat="46.00039527504739" lon="13.41985174189292"><ele>109.0</ele><time>2026-03-28T12:49:45.999Z</time></trkpt><trkpt lat="46.00059078456207" lon="13.419747642508954"><ele>109.0</ele><time>2026-03-28T12:49:46.999Z</time></trkpt><trkpt lat="46.00079085365319" lon="13.41968752941364"><ele>110.66666666666667</ele><time>2026-03-28T12:49:48Z</time></trkpt><trkpt lat="46.000990370165695" lon="13.419663990290546"><ele>112.33333333333334</ele><time>2026-03-28T12:49:49Z</time></trkpt><trkpt lat="46.00119157518729" lon="13.419681624908838"><ele>114.0</ele><time>2026-03-28T12:49:50Z</time></trkpt><trkpt lat="46.00139508021179" lon="13.419744125392373"><ele>114.0</ele><time>2026-03-28T12:49:51Z</time></trkpt><trkpt lat="46.00159491213067" lon="13.419829430136888"><ele>114.0</ele><time>2026-03-28T12:49:52Z</time></trkpt><trkpt lat="46.00179684865501" lon="13.41988629526104"><ele>114.0</ele><time>2026-03-28T12:49:53Z</time></trkpt><trkpt lat="46.00201644315425" lon="13.419901916158372"><ele>115.5</ele><time>2026-03-28T12:49:54Z</time></trkpt><trkpt lat="46.002250268366986" lon="13.419880069506158"><ele>117.0</ele><time>2026-03-28T12:49:55Z</time></trkpt><trkpt lat="46.00248923855871" lon="13.419859736814576"><ele>118.5</ele><time>2026-03-28T12:49:56Z</time></trkpt><trkpt lat="46.00273291038533" lon="13.419846383435893"><ele>120.0</ele><time>2026-03-28T12:49:57Z</time></trkpt><trkpt lat="46.00297159815304" lon="13.419836796917192"><ele>120.0</ele><time>2026-03-28T12:49:58Z</time></trkpt><trkpt lat="46.00320291974755" lon="13.41984074262842"><ele>120.0</ele><time>2026-03-28T12:49:59Z</time></trkpt><trkpt lat="46.00342687546132" lon="13.419861895865246"><ele>121.66666666666666</ele><time>2026-03-28T12:50:00Z</time></trkpt><trkpt lat="46.003634924162604" lon="13.419898549051632"><ele>123.33333333333333</ele><time>2026-03-28T12:50:01Z</time></trkpt><trkpt lat="46.00381844974764" lon="13.419941364898477"><ele>125.0</ele><time>2026-03-28T12:50:02Z</time></trkpt><trkpt lat="46.00398333641236" lon="13.419980515847532"><ele>125.0</ele><time>2026-03-28T12:50:03Z</time></trkpt><trkpt lat="46.00413680833009" lon="13.420049830376927"><ele>125.0</ele><time>2026-03-28T12:50:04Z</time></trkpt><trkpt lat="46.00428005962859" lon="13.420183187865211"><ele>125.0</ele><time>2026-03-28T12:50:05Z</time></trkpt><trkpt lat="46.00440709598185" lon="13.420367504486734"><ele>124.33333333333333</ele><time>2026-03-28T12:50:06Z</time></trkpt><trkpt lat="46.00454189359771" lon="13.420534948019009"><ele>123.66666666666666</ele><time>2026-03-28T12:50:07Z</time></trkpt><trkpt lat="46.00470953322322" lon="13.420659521102822"><ele>123.0</ele><time>2026-03-28T12:50:08Z</time></trkpt><trkpt lat="46.00489723777622" lon="13.42074026801121"><ele>125.33333333333334</ele><time>2026-03-28T12:50:09Z</time></trkpt><trkpt lat="46.005101692685024" lon="13.42077169548773"><ele>127.66666666666667</ele><time>2026-03-28T12:50:10Z</time></trkpt><trkpt lat="46.00531894585565" lon="13.420789204716677"><ele>130.0</ele><time>2026-03-28T12:50:11Z</time></trkpt><trkpt lat="46.005544960426874" lon="13.420817284799416"><ele>130.0</ele><time>2026-03-28T12:50:12Z</time></trkpt><trkpt lat="46.005774199974915" lon="13.42084055756675"><ele>130.0</ele><time>2026-03-28T12:50:13Z</time></trkpt><trkpt lat="46.00597596224104" lon="13.420878203785657"><ele>130.0</ele><time>2026-03-28T12:50:14Z</time></trkpt><trkpt lat="46.00615733284616" lon="13.42092381576611"><ele>131.5</ele><time>2026-03-28T12:50:15Z</time></trkpt><trkpt lat="46.006323894533566" lon="13.420961735054952"><ele>133.0</ele><time>2026-03-28T12:50:16Z</time></trkpt><trkpt lat="46.006464815903385" lon="13.420979362142607"><ele>134.5</ele><time>2026-03-28T12:50:17Z</time></trkpt><trkpt lat="46.00658034991069" lon="13.420962444448984"><ele>136.0</ele><time>2026-03-28T12:50:18Z</time></trkpt><trkpt lat="46.006678922685055" lon="13.420890355998695"><ele>135.25</ele><time>2026-03-28T12:50:19Z</time></trkpt><trkpt lat="46.00676006758584" lon="13.420758334782102"><ele>134.5</ele><time>2026-03-28T12:50:20Z</time></trkpt><trkpt lat="46.0068212725968" lon="13.420559197958436"><ele>133.75</ele><time>2026-03-28T12:50:21Z</time></trkpt><trkpt lat="46.00686245449343" lon="13.42033809477845"><ele>133.0</ele><time>2026-03-28T12:50:22Z</time></trkpt><trkpt lat="46.006921138383234" lon="13.420153289962611"><ele>133.0</ele><time>2026-03-28T12:50:23Z</time></trkpt><trkpt lat="46.007000377760534" lon="13.420012678581799"><ele>133.0</ele><time>2026-03-28T12:50:24Z</time></trkpt><trkpt lat="46.00708877824913" lon="13.419914007368833"><ele>133.0</ele><time>2026-03-28T12:50:25Z</time></trkpt><trkpt lat="46.00719096377625" lon="13.419874176381771"><ele>133.0</ele><time>2026-03-28T12:50:26Z</time></trkpt><trkpt lat="46.00730391327352" lon="13.419890277361604"><ele>133.0</ele><time>2026-03-28T12:50:27Z</time></trkpt><trkpt lat="46.00741581297202" lon="13.41997312748373"><ele>133.0</ele><time>2026-03-28T12:50:28Z</time></trkpt><trkpt lat="46.00754088454023" lon="13.420094397988262"><ele>133.0</ele><time>2026-03-28T12:50:29Z</time></trkpt><trkpt lat="46.00768827078654" lon="13.420231948560064"><ele>137.66666666666669</ele><time>2026-03-28T12:50:30Z</time></trkpt><trkpt lat="46.00784691079589" lon="13.420392268290053"><ele>142.33333333333334</ele><time>2026-03-28T12:50:31Z</time></trkpt><trkpt lat="46.00800622395304" lon="13.420574380528212"><ele>147.0</ele><time>2026-03-28T12:50:32Z</time></trkpt><trkpt lat="46.00815687507279" lon="13.420772982840314"><ele>152.33333333333334</ele><time>2026-03-28T12:50:33Z</time></trkpt><trkpt lat="46.008294168643566" lon="13.420970366668314"><ele>157.66666666666669</ele><time>2026-03-28T12:50:34Z</time></trkpt><trkpt lat="46.00840265413774" lon="13.421131107772036"><ele>163.0</ele><time>2026-03-28T12:50:35Z</time></trkpt><trkpt lat="46.008491016284346" lon="13.421272885493481"><ele>164.4</ele><time>2026-03-28T12:50:36Z</time></trkpt><trkpt lat="46.008556163180096" lon="13.421397808733069"><ele>165.8</ele><time>2026-03-28T12:50:37Z</time></trkpt><trkpt lat="46.00862137140273" lon="13.421487103270428"><ele>167.2</ele><time>2026-03-28T12:50:38Z</time></trkpt><trkpt lat="46.0086918735352" lon="13.421513767088344"><ele>168.6</ele><time>2026-03-28T12:50:39Z</time></trkpt><trkpt lat="46.00877612536215" lon="13.421487884414251"><ele>170.0</ele><time>2026-03-28T12:50:40Z</time></trkpt><trkpt lat="46.0088637396759" lon="13.421423753087163"><ele>168.25</ele><time>2026-03-28T12:50:41Z</time></trkpt><trkpt lat="46.00894203593849" lon="13.42131454378874"><ele>166.5</ele><time>2026-03-28T12:50:42Z</time></trkpt><trkpt lat="46.00899058742555" lon="13.421170029912531"><ele>164.75</ele><time>2026-03-28T12:50:43Z</time></trkpt><trkpt lat="46.00903367752782" lon="13.420996854311548"><ele>163.0</ele><time>2026-03-28T12:50:44Z</time></trkpt><trkpt lat="46.00906821046962" lon="13.420798551339434"><ele>163.0</ele><time>2026-03-28T12:50:45Z</time></trkpt><trkpt lat="46.00910021104909" lon="13.420574861065349"><ele>163.0</ele><time>2026-03-28T12:50:46Z</time></trkpt><trkpt lat="46.00912765077805" lon="13.420331053773161"><ele>163.0</ele><time>2026-03-28T12:50:47Z</time></trkpt><trkpt lat="46.00915565101148" lon="13.42011071794965"><ele>162.25</ele><time>2026-03-28T12:50:48Z</time></trkpt><trkpt lat="46.009168397782766" lon="13.419912665562707"><ele>161.5</ele><time>2026-03-28T12:50:49Z</time></trkpt><trkpt lat="46.00915422200445" lon="13.419712768828767"><ele>160.75</ele><time>2026-03-28T12:50:50Z</time></trkpt><trkpt lat="46.00911340295624" lon="13.419521237372999"><ele>160.0</ele><time>2026-03-28T12:50:51Z</time></trkpt><trkpt lat="46.009067892734954" lon="13.419361724261545"><ele>159.2</ele><time>2026-03-28T12:50:52Z</time></trkpt><trkpt lat="46.00905086280297" lon="13.419232581654349"><ele>158.4</ele><time>2026-03-28T12:50:53Z</time></trkpt><trkpt lat="46.00907524753881" lon="13.419110912188124"><ele>157.6</ele><time>2026-03-28T12:50:54Z</time></trkpt><trkpt lat="46.009140290490244" lon="13.419010760547609"><ele>156.8</ele><time>2026-03-28T12:50:55Z</time></trkpt><trkpt lat="46.00923495975799" lon="13.418943247595546"><ele>156.0</ele><time>2026-03-28T12:50:56Z</time></trkpt><trkpt lat="46.00932107477491" lon="13.418864711851171"><ele>154.6</ele><time>2026-03-28T12:50:57Z</time></trkpt><trkpt lat="46.00937942603895" lon="13.418758802015969"><ele>153.2</ele><time>2026-03-28T12:50:58Z</time></trkpt><trkpt lat="46.00939697987879" lon="13.418616055206103"><ele>151.8</ele><time>2026-03-28T12:50:59Z</time></trkpt><trkpt lat="46.00937139185637" lon="13.418470884820726"><ele>150.4</ele><time>2026-03-28T12:51:00Z</time></trkpt><trkpt lat="46.0092998903878" lon="13.418334237276786"><ele>149.0</ele><time>2026-03-28T12:51:00.999Z</time></trkpt><trkpt lat="46.00921206219631" lon="13.418199481090419"><ele>144.25</ele><time>2026-03-28T12:51:01.999Z</time></trkpt><trkpt lat="46.009109731647484" lon="13.418077821477786"><ele>139.5</ele><time>2026-03-28T12:51:02.999Z</time></trkpt><trkpt lat="46.00901112194592" lon="13.41795667815745"><ele>134.75</ele><time>2026-03-28T12:51:03.999Z</time></trkpt><trkpt lat="46.00891231787383" lon="13.417834291176991"><ele>130.0</ele><time>2026-03-28T12:51:04.999Z</time></trkpt><trkpt lat="46.00883506538021" lon="13.417683104052943"><ele>130.0</ele><time>2026-03-28T12:51:05.999Z</time></trkpt><trkpt lat="46.008763052913025" lon="13.417551386555683"><ele>130.0</ele><time>2026-03-28T12:51:06.999Z</time></trkpt><trkpt lat="46.00872288496676" lon="13.417420529169386"><ele>130.0</ele><time>2026-03-28T12:51:07.999Z</time></trkpt><trkpt lat="46.00868720444183" lon="13.417308822349465"><ele>130.0</ele><time>2026-03-28T12:51:08.999Z</time></trkpt><trkpt lat="46.008707067896566" lon="13.417174528647173"><ele>130.0</ele><time>2026-03-28T12:51:09.999Z</time></trkpt><trkpt lat="46.008768556935664" lon="13.417021974128343"><ele>129.33333333333334</ele><time>2026-03-28T12:51:10.999Z</time></trkpt><trkpt lat="46.00883093234788" lon="13.416833579518654"><ele>128.66666666666666</ele><time>2026-03-28T12:51:11.999Z</time></trkpt><trkpt lat="46.00890625744615" lon="13.416619693177683"><ele>128.0</ele><time>2026-03-28T12:51:12.999Z</time></trkpt><trkpt lat="46.00899195097209" lon="13.416412760600641"><ele>127.66666666666666</ele><time>2026-03-28T12:51:13.999Z</time></trkpt><trkpt lat="46.009050009365126" lon="13.416214495818107"><ele>127.33333333333334</ele><time>2026-03-28T12:51:14.999Z</time></trkpt><trkpt lat="46.009074424152246" lon="13.415986603502036"><ele>127.0</ele><time>2026-03-28T12:51:15.999Z</time></trkpt><trkpt lat="46.00906143237486" lon="13.415740725530977"><ele>127.66666666666667</ele><time>2026-03-28T12:51:16.999Z</time></trkpt><trkpt lat="46.009027855617155" lon="13.415468934982968"><ele>128.33333333333334</ele><time>2026-03-28T12:51:17.999Z</time></trkpt><trkpt lat="46.00901309376827" lon="13.415180955808891"><ele>129.0</ele><time>2026-03-28T12:51:18.999Z</time></trkpt><trkpt lat="46.009017306872856" lon="13.41489232768583"><ele>129.66666666666666</ele><time>2026-03-28T12:51:19.999Z</time></trkpt><trkpt lat="46.0090095832671" lon="13.414605286021613"><ele>130.33333333333331</ele><time>2026-03-28T12:51:20.999Z</time></trkpt><trkpt lat="46.00897442176749" lon="13.414335143523083"><ele>131.0</ele><time>2026-03-28T12:51:21.999Z</time></trkpt><trkpt lat="46.00894488699751" lon="13.414083988918943"><ele>131.0</ele><time>2026-03-28T12:51:22.999Z</time></trkpt><trkpt lat="46.00895319652188" lon="13.413850534544586"><ele>131.0</ele><time>2026-03-28T12:51:23.999Z</time></trkpt><trkpt lat="46.00899529583803" lon="13.413635284931253"><ele>131.0</ele><time>2026-03-28T12:51:24.999Z</time></trkpt><trkpt lat="46.00901487423446" lon="13.413409466405033"><ele>129.0</ele><time>2026-03-28T12:51:25.999Z</time></trkpt><trkpt lat="46.00899405731669" lon="13.413155618466803"><ele>127.0</ele><time>2026-03-28T12:51:26.999Z</time></trkpt><trkpt lat="46.00894224814163" lon="13.412879102972472"><ele>125.0</ele><time>2026-03-28T12:51:27.999Z</time></trkpt><trkpt lat="46.00889356194882" lon="13.412572718927684"><ele>122.66666666666666</ele><time>2026-03-28T12:51:28.999Z</time></trkpt><trkpt lat="46.008867992770554" lon="13.412267162580045"><ele>120.33333333333334</ele><time>2026-03-28T12:51:29.999Z</time></trkpt><trkpt lat="46.00885892006986" lon="13.412006743422367"><ele>118.0</ele><time>2026-03-28T12:51:30.999Z</time></trkpt><trkpt lat="46.008878961800114" lon="13.411793482950232"><ele>117.33333333333334</ele><time>2026-03-28T12:51:31.999Z</time></trkpt><trkpt lat="46.00894775309012" lon="13.411590506336509"><ele>116.66666666666666</ele><time>2026-03-28T12:51:32.999Z</time></trkpt><trkpt lat="46.00906233153258" lon="13.411385219362245"><ele>116.0</ele><time>2026-03-28T12:51:33.999Z</time></trkpt><trkpt lat="46.00917904898208" lon="13.411137674193654"><ele>110.5</ele><time>2026-03-28T12:51:34.999Z</time></trkpt><trkpt lat="46.00931090532983" lon="13.41087212756675"><ele>105.0</ele><time>2026-03-28T12:51:35.999Z</time></trkpt><trkpt lat="46.009445941653624" lon="13.41059096400648"><ele>105.0</ele><time>2026-03-28T12:51:36.999Z</time></trkpt><trkpt lat="46.00957412987383" lon="13.410314698098338"><ele>105.0</ele><time>2026-03-28T12:51:37.999Z</time></trkpt><trkpt lat="46.00968135561383" lon="13.410030410837136"><ele>105.0</ele><time>2026-03-28T12:51:38.999Z</time></trkpt><trkpt lat="46.00975706933928" lon="13.409733409949693"><ele>105.0</ele><time>2026-03-28T12:51:39.999Z</time></trkpt><trkpt lat="46.00982920353616" lon="13.409438136352426"><ele>105.0</ele><time>2026-03-28T12:51:40.999Z</time></trkpt><trkpt lat="46.009928539680466" lon="13.409175053133929"><ele>104.66666666666666</ele><time>2026-03-28T12:51:41.999Z</time></trkpt><trkpt lat="46.01006446650551" lon="13.4089424290733"><ele>104.33333333333333</ele><time>2026-03-28T12:51:42.999Z</time></trkpt><trkpt lat="46.010214514045025" lon="13.408705841463814"><ele>104.0</ele><time>2026-03-28T12:51:43.999Z</time></trkpt><trkpt lat="46.01035391270663" lon="13.408452370313706"><ele>103.66666666666666</ele><time>2026-03-28T12:51:44.999Z</time></trkpt><trkpt lat="46.01048405537208" lon="13.408189758601123"><ele>103.33333333333334</ele><time>2026-03-28T12:51:45.999Z</time></trkpt><trkpt lat="46.010602404371504" lon="13.407914902109146"><ele>103.0</ele><time>2026-03-28T12:51:46.999Z</time></trkpt><trkpt lat="46.01070644569163" lon="13.407634354537898"><ele>103.0</ele><time>2026-03-28T12:51:47.999Z</time></trkpt><trkpt lat="46.01081087841437" lon="13.407360859385529"><ele>103.0</ele><time>2026-03-28T12:51:48.999Z</time></trkpt><trkpt lat="46.01091733205841" lon="13.407099063338988"><ele>103.0</ele><time>2026-03-28T12:51:49.999Z</time></trkpt><trkpt lat="46.011008788520094" lon="13.406863887156165"><ele>103.0</ele><time>2026-03-28T12:51:50.999Z</time></trkpt><trkpt lat="46.0110939715758" lon="13.406649578426977"><ele>103.0</ele><time>2026-03-28T12:51:51.999Z</time></trkpt><trkpt lat="46.011195095897435" lon="13.40646213175186"><ele>103.0</ele><time>2026-03-28T12:51:52.999Z</time></trkpt><trkpt lat="46.01133538369686" lon="13.406295730004246"><ele>101.0</ele><time>2026-03-28T12:51:54Z</time></trkpt><trkpt lat="46.01151013009696" lon="13.406164184423607"><ele>99.0</ele><time>2026-03-28T12:51:55Z</time></trkpt><trkpt lat="46.01169360691043" lon="13.406018521850049"><ele>97.0</ele><time>2026-03-28T12:51:56Z</time></trkpt><trkpt lat="46.01186705083092" lon="13.405835017520545"><ele>97.0</ele><time>2026-03-28T12:51:57Z</time></trkpt><trkpt lat="46.01203331588281" lon="13.405615955972552"><ele>97.0</ele><time>2026-03-28T12:51:58Z</time></trkpt><trkpt lat="46.012189804170085" lon="13.40536712603367"><ele>99.0</ele><time>2026-03-28T12:51:59Z</time></trkpt><trkpt lat="46.0123618030379" lon="13.405128585369994"><ele>101.0</ele><time>2026-03-28T12:52:00Z</time></trkpt><trkpt lat="46.01255806710959" lon="13.404915162522022"><ele>96.5</ele><time>2026-03-28T12:52:01Z</time></trkpt><trkpt lat="46.01275133352448" lon="13.404714784577553"><ele>92.0</ele><time>2026-03-28T12:52:02Z</time></trkpt><trkpt lat="46.01292481616305" lon="13.404531747729623"><ele>92.0</ele><time>2026-03-28T12:52:03Z</time></trkpt><trkpt lat="46.013070919143864" lon="13.404348237499907"><ele>92.0</ele><time>2026-03-28T12:52:04Z</time></trkpt><trkpt lat="46.01318457473329" lon="13.404135838896815"><ele>92.0</ele><time>2026-03-28T12:52:05Z</time></trkpt><trkpt lat="46.013274767980555" lon="13.403872176756149"><ele>92.0</ele><time>2026-03-28T12:52:06Z</time></trkpt><trkpt lat="46.01334574548423" lon="13.403584094543195"><ele>92.0</ele><time>2026-03-28T12:52:07Z</time></trkpt><trkpt lat="46.013413270908885" lon="13.403339395737014"><ele>92.0</ele><time>2026-03-28T12:52:08Z</time></trkpt><trkpt lat="46.01348209753933" lon="13.403128426197624"><ele>91.33333333333334</ele><time>2026-03-28T12:52:09Z</time></trkpt><trkpt lat="46.01355239119889" lon="13.402939559620714"><ele>90.66666666666667</ele><time>2026-03-28T12:52:10Z</time></trkpt><trkpt lat="46.01364308237402" lon="13.402765701996325"><ele>90.0</ele><time>2026-03-28T12:52:11Z</time></trkpt><trkpt lat="46.01375822008278" lon="13.402613336190454"><ele>90.0</ele><time>2026-03-28T12:52:12Z</time></trkpt><trkpt lat="46.013891764759165" lon="13.402486786689199"><ele>90.0</ele><time>2026-03-28T12:52:13Z</time></trkpt><trkpt lat="46.01401419205497" lon="13.402370804786953"><ele>90.0</ele><time>2026-03-28T12:52:14Z</time></trkpt><trkpt lat="46.014127156373874" lon="13.402255966121606"><ele>90.0</ele><time>2026-03-28T12:52:15Z</time></trkpt><trkpt lat="46.014218553591746" lon="13.40211341459806"><ele>89.33333333333333</ele><time>2026-03-28T12:52:16Z</time></trkpt><trkpt lat="46.01429242528606" lon="13.401931058888879"><ele>88.66666666666666</ele><time>2026-03-28T12:52:17Z</time></trkpt><trkpt lat="46.014345426410166" lon="13.401716849962678"><ele>88.0</ele><time>2026-03-28T12:52:18Z</time></trkpt><trkpt lat="46.01438728066322" lon="13.401482485208696"><ele>87.66666666666666</ele><time>2026-03-28T12:52:19Z</time></trkpt><trkpt lat="46.014437344213555" lon="13.401235799640606"><ele>87.33333333333333</ele><time>2026-03-28T12:52:20Z</time></trkpt><trkpt lat="46.0144957592278" lon="13.400985412851531"><ele>87.0</ele><time>2026-03-28T12:52:21Z</time></trkpt><trkpt lat="46.014545147412996" lon="13.400737834005508"><ele>87.0</ele><time>2026-03-28T12:52:22Z</time></trkpt><trkpt lat="46.0145932431694" lon="13.400503876127797"><ele>87.0</ele><time>2026-03-28T12:52:23Z</time></trkpt><trkpt lat="46.01463861961246" lon="13.400288651665472"><ele>87.0</ele><time>2026-03-28T12:52:24Z</time></trkpt><trkpt lat="46.01467959352256" lon="13.400092543878547"><ele>87.0</ele><time>2026-03-28T12:52:25Z</time></trkpt><trkpt lat="46.01471877647747" lon="13.3999025935424"><ele>87.0</ele><time>2026-03-28T12:52:26Z</time></trkpt><trkpt lat="46.0147573106176" lon="13.399723601588567"><ele>87.0</ele><time>2026-03-28T12:52:27Z</time></trkpt><trkpt lat="46.01479470928871" lon="13.399560244078485"><ele>87.0</ele><time>2026-03-28T12:52:28Z</time></trkpt><trkpt lat="46.01482913554136" lon="13.399407141833812"><ele>87.0</ele><time>2026-03-28T12:52:29Z</time></trkpt><trkpt lat="46.014874938215485" lon="13.399259366469776"><ele>87.0</ele><time>2026-03-28T12:52:30Z</time></trkpt><trkpt lat="46.01493351959549" lon="13.399118667695594"><ele>87.0</ele><time>2026-03-28T12:52:31Z</time></trkpt><trkpt lat="46.0150014536561" lon="13.39897793088453"><ele>87.0</ele><time>2026-03-28T12:52:32Z</time></trkpt><trkpt lat="46.015077660871455" lon="13.398834055443515"><ele>87.0</ele><time>2026-03-28T12:52:33Z</time></trkpt><trkpt lat="46.01515698430979" lon="13.398690138247256"><ele>87.0</ele><time>2026-03-28T12:52:34Z</time></trkpt><trkpt lat="46.0152341872029" lon="13.398545428722576"><ele>87.0</ele><time>2026-03-28T12:52:35Z</time></trkpt><trkpt lat="46.01531186033803" lon="13.398396871211514"><ele>87.0</ele><time>2026-03-28T12:52:36Z</time></trkpt><trkpt lat="46.015393864537515" lon="13.398247326335035"><ele>87.0</ele><time>2026-03-28T12:52:37Z</time></trkpt><trkpt lat="46.015476864803745" lon="13.398097752472294"><ele>87.0</ele><time>2026-03-28T12:52:38Z</time></trkpt><trkpt lat="46.01555813361416" lon="13.397947939520783"><ele>87.0</ele><time>2026-03-28T12:52:39Z</time></trkpt><trkpt lat="46.015636747135105" lon="13.397796594957072"><ele>87.0</ele><time>2026-03-28T12:52:40Z</time></trkpt><trkpt lat="46.01570732158736" lon="13.397643330727217"><ele>87.25</ele><time>2026-03-28T12:52:41Z</time></trkpt><trkpt lat="46.01576034709006" lon="13.397486525411704"><ele>87.5</ele><time>2026-03-28T12:52:42Z</time></trkpt><trkpt lat="46.01579349483531" lon="13.397312344224845"><ele>87.75</ele><time>2026-03-28T12:52:43Z</time></trkpt><trkpt lat="46.01579930408738" lon="13.397125458067281"><ele>88.0</ele><time>2026-03-28T12:52:44Z</time></trkpt><trkpt lat="46.015777232991184" lon="13.39693892991117"><ele>87.75</ele><time>2026-03-28T12:52:45Z</time></trkpt><trkpt lat="46.01576981330664" lon="13.396744747685164"><ele>87.5</ele><time>2026-03-28T12:52:46Z</time></trkpt><trkpt lat="46.01574639204198" lon="13.396549780042257"><ele>87.25</ele><time>2026-03-28T12:52:47Z</time></trkpt><trkpt lat="46.015747319081804" lon="13.396350147601579"><ele>87.0</ele><time>2026-03-28T12:52:48Z</time></trkpt><trkpt lat="46.01576038853364" lon="13.396150297935256"><ele>87.0</ele><time>2026-03-28T12:52:49Z</time></trkpt><trkpt lat="46.01579647804159" lon="13.395952067773454"><ele>87.0</ele><time>2026-03-28T12:52:50Z</time></trkpt><trkpt lat="46.01583386629067" lon="13.395751492014233"><ele>87.0</ele><time>2026-03-28T12:52:51Z</time></trkpt><trkpt lat="46.01587382212162" lon="13.395553328898895"><ele>87.0</ele><time>2026-03-28T12:52:52Z</time></trkpt><trkpt lat="46.015924605732835" lon="13.39535872631721"><ele>87.0</ele><time>2026-03-28T12:52:53Z</time></trkpt><trkpt lat="46.01596500094713" lon="13.395156431721084"><ele>87.0</ele><time>2026-03-28T12:52:54Z</time></trkpt><trkpt lat="46.016011142742485" lon="13.394954376516987"><ele>87.0</ele><time>2026-03-28T12:52:55Z</time></trkpt><trkpt lat="46.0160631146759" lon="13.394759708111577"><ele>87.0</ele><time>2026-03-28T12:52:56Z</time></trkpt><trkpt lat="46.016109611118175" lon="13.394564748720256"><ele>87.25</ele><time>2026-03-28T12:52:57Z</time></trkpt><trkpt lat="46.01615432990648" lon="13.394380756420631"><ele>87.5</ele><time>2026-03-28T12:52:58Z</time></trkpt><trkpt lat="46.016194140312756" lon="13.394219264820174"><ele>87.75</ele><time>2026-03-28T12:52:59Z</time></trkpt><trkpt lat="46.01623935252018" lon="13.394058442419286"><ele>88.0</ele><time>2026-03-28T12:53:00Z</time></trkpt><trkpt lat="46.016277153017754" lon="13.393892617220468"><ele>88.0</ele><time>2026-03-28T12:53:00.999Z</time></trkpt><trkpt lat="46.016318947912225" lon="13.393730391735522"><ele>88.0</ele><time>2026-03-28T12:53:01.999Z</time></trkpt><trkpt lat="46.01635948249629" lon="13.393568403979327"><ele>88.0</ele><time>2026-03-28T12:53:02.999Z</time></trkpt><trkpt lat="46.01640003660011" lon="13.393406958543503"><ele>88.0</ele><time>2026-03-28T12:53:03.999Z</time></trkpt><trkpt lat="46.01644042395163" lon="13.393244966813654"><ele>88.0</ele><time>2026-03-28T12:53:04.999Z</time></trkpt><trkpt lat="46.01647997361704" lon="13.393082757350617"><ele>88.0</ele><time>2026-03-28T12:53:05.999Z</time></trkpt><trkpt lat="46.016516922868064" lon="13.39291956395432"><ele>88.0</ele><time>2026-03-28T12:53:06.999Z</time></trkpt><trkpt lat="46.01655122945056" lon="13.392757983913523"><ele>88.0</ele><time>2026-03-28T12:53:07.999Z</time></trkpt><trkpt lat="46.01659825220935" lon="13.39260294315902"><ele>88.0</ele><time>2026-03-28T12:53:08.999Z</time></trkpt><trkpt lat="46.0166329564184" lon="13.39244275071437"><ele>88.0</ele><time>2026-03-28T12:53:09.999Z</time></trkpt><trkpt lat="46.01665588225662" lon="13.392283273188854"><ele>88.0</ele><time>2026-03-28T12:53:10.999Z</time></trkpt><trkpt lat="46.016691345216" lon="13.392144975622646"><ele>88.0</ele><time>2026-03-28T12:53:11.999Z</time></trkpt><trkpt lat="46.01672465334471" lon="13.392017689943692"><ele>88.0</ele><time>2026-03-28T12:53:12.999Z</time></trkpt><trkpt lat="46.01677323275646" lon="13.391911902496282"><ele>88.0</ele><time>2026-03-28T12:53:13.999Z</time></trkpt><trkpt lat="46.01678577024554" lon="13.391814798993275"><ele>88.0</ele><time>2026-03-28T12:53:14.999Z</time></trkpt><trkpt lat="46.016852401321735" lon="13.391686392851273"><ele>88.0</ele><time>2026-03-28T12:53:16.999Z</time></trkpt><trkpt lat="46.01691942067595" lon="13.391624710938121"><ele>88.0</ele><time>2026-03-28T12:53:18.999Z</time></trkpt><trkpt lat="46.01699750198072" lon="13.391684898440536"><ele>88.0</ele><time>2026-03-28T12:53:20.999Z</time></trkpt><trkpt lat="46.017082977048034" lon="13.39176777269565"><ele>88.0</ele><time>2026-03-28T12:53:22.999Z</time></trkpt><trkpt lat="46.01714636040002" lon="13.391837342816917"><ele>88.0</ele><time>2026-03-28T12:53:24.999Z</time></trkpt><trkpt lat="46.017201623755675" lon="13.391904706253063"><ele>88.0</ele><time>2026-03-28T12:53:27.999Z</time></trkpt><trkpt lat="46.01726816574627" lon="13.391962466902418"><ele>88.0</ele><time>2026-03-28T12:53:35.999Z</time></trkpt><trkpt lat="46.01731477916151" lon="13.39203784451272"><ele>88.0</ele><time>2026-03-28T12:53:36.999Z</time></trkpt><trkpt lat="46.017395801704836" lon="13.392104301780355"><ele>88.0</ele><time>2026-03-28T12:53:37.999Z</time></trkpt><trkpt lat="46.01747809092677" lon="13.39220769697983"><ele>88.5</ele><time>2026-03-28T12:53:38.999Z</time></trkpt><trkpt lat="46.017578671246284" lon="13.39232802563111"><ele>89.0</ele><time>2026-03-28T12:53:39.999Z</time></trkpt><trkpt lat="46.017672882011915" lon="13.39244328383617"><ele>89.5</ele><time>2026-03-28T12:53:40.999Z</time></trkpt><trkpt lat="46.01774857977436" lon="13.39256905677423"><ele>90.0</ele><time>2026-03-28T12:53:41.999Z</time></trkpt><trkpt lat="46.01783337421499" lon="13.392670952389725"><ele>90.0</ele><time>2026-03-28T12:53:42.999Z</time></trkpt><trkpt lat="46.017913435070646" lon="13.392772886333669"><ele>90.0</ele><time>2026-03-28T12:53:43.999Z</time></trkpt><trkpt lat="46.01797745965735" lon="13.392867591139082"><ele>90.0</ele><time>2026-03-28T12:53:44.999Z</time></trkpt><trkpt lat="46.01803403349388" lon="13.392974339341102"><ele>90.0</ele><time>2026-03-28T12:53:45.999Z</time></trkpt><trkpt lat="46.0180911365226" lon="13.393103069967598"><ele>90.0</ele><time>2026-03-28T12:53:46.999Z</time></trkpt><trkpt lat="46.01813802878262" lon="13.393261366808227"><ele>90.0</ele><time>2026-03-28T12:53:47.999Z</time></trkpt><trkpt lat="46.01818355693691" lon="13.39341951966754"><ele>90.0</ele><time>2026-03-28T12:53:48.999Z</time></trkpt><trkpt lat="46.01823042348936" lon="13.393567944507517"><ele>90.0</ele><time>2026-03-28T12:53:49.999Z</time></trkpt><trkpt lat="46.01830068534163" lon="13.393699094317263"><ele>90.0</ele><time>2026-03-28T12:53:50.999Z</time></trkpt><trkpt lat="46.01838460871247" lon="13.393817752584267"><ele>90.25</ele><time>2026-03-28T12:53:51.999Z</time></trkpt><trkpt lat="46.0184843108765" lon="13.393904106666719"><ele>90.5</ele><time>2026-03-28T12:53:52.999Z</time></trkpt><trkpt lat="46.0186070455562" lon="13.393964604797981"><ele>90.75</ele><time>2026-03-28T12:53:53.999Z</time></trkpt><trkpt lat="46.01875540510962" lon="13.394005213394134"><ele>91.0</ele><time>2026-03-28T12:53:54.999Z</time></trkpt><trkpt lat="46.01893013723146" lon="13.394058159966722"><ele>91.0</ele><time>2026-03-28T12:53:55.999Z</time></trkpt><trkpt lat="46.01913026061894" lon="13.394131282452198"><ele>91.0</ele><time>2026-03-28T12:53:56.999Z</time></trkpt><trkpt lat="46.01935703040337" lon="13.394212439357409"><ele>91.0</ele><time>2026-03-28T12:53:57.999Z</time></trkpt><trkpt lat="46.01959649398751" lon="13.394295220922995"><ele>89.5</ele><time>2026-03-28T12:53:58.999Z</time></trkpt><trkpt lat="46.01984037643376" lon="13.394377238558322"><ele>88.0</ele><time>2026-03-28T12:54:00Z</time></trkpt><trkpt lat="46.02007281502549" lon="13.394458226457289"><ele>88.0</ele><time>2026-03-28T12:54:01Z</time></trkpt><trkpt lat="46.02029913725871" lon="13.394537548462985"><ele>88.0</ele><time>2026-03-28T12:54:02Z</time></trkpt><trkpt lat="46.020518088334185" lon="13.394611825570975"><ele>88.66666666666666</ele><time>2026-03-28T12:54:03Z</time></trkpt><trkpt lat="46.02072180107847" lon="13.39468152581958"><ele>89.33333333333333</ele><time>2026-03-28T12:54:04Z</time></trkpt><trkpt lat="46.02090172186995" lon="13.394747965209522"><ele>90.0</ele><time>2026-03-28T12:54:05Z</time></trkpt><trkpt lat="46.021064661249696" lon="13.394799392603558"><ele>90.0</ele><time>2026-03-28T12:54:06Z</time></trkpt><trkpt lat="46.02120516326237" lon="13.394812364903892"><ele>90.0</ele><time>2026-03-28T12:54:07Z</time></trkpt><trkpt lat="46.021329584345345" lon="13.394786743167886"><ele>90.0</ele><time>2026-03-28T12:54:08Z</time></trkpt><trkpt lat="46.021440605327136" lon="13.39474586561562"><ele>90.0</ele><time>2026-03-28T12:54:09Z</time></trkpt><trkpt lat="46.02154097872949" lon="13.394676433731524"><ele>90.0</ele><time>2026-03-28T12:54:10Z</time></trkpt><trkpt lat="46.0216266341898" lon="13.394680001535036"><ele>90.0</ele><time>2026-03-28T12:54:11Z</time></trkpt><trkpt lat="46.0217120704377" lon="13.394670409359367"><ele>90.0</ele><time>2026-03-28T12:54:12Z</time></trkpt><trkpt lat="46.021800990298125" lon="13.394700225336361"><ele>90.0</ele><time>2026-03-28T12:54:13Z</time></trkpt><trkpt lat="46.0219069259122" lon="13.394729353917604"><ele>90.0</ele><time>2026-03-28T12:54:14Z</time></trkpt><trkpt lat="46.02200704321376" lon="13.394871657812669"><ele>90.0</ele><time>2026-03-28T12:54:15Z</time></trkpt><trkpt lat="46.02213605937484" lon="13.394988976881802"><ele>90.0</ele><time>2026-03-28T12:54:16Z</time></trkpt><trkpt lat="46.02228523859579" lon="13.395102864090228"><ele>90.0</ele><time>2026-03-28T12:54:17Z</time></trkpt><trkpt lat="46.022455915834" lon="13.39521115002964"><ele>90.66666666666667</ele><time>2026-03-28T12:54:18Z</time></trkpt><trkpt lat="46.02264326391824" lon="13.395315187556138"><ele>91.33333333333334</ele><time>2026-03-28T12:54:19Z</time></trkpt><trkpt lat="46.02284128182009" lon="13.395408875481541"><ele>92.0</ele><time>2026-03-28T12:54:20Z</time></trkpt><trkpt lat="46.02305373327023" lon="13.395487100012346"><ele>91.0</ele><time>2026-03-28T12:54:21Z</time></trkpt><trkpt lat="46.02327347428329" lon="13.395563282564131"><ele>90.0</ele><time>2026-03-28T12:54:22Z</time></trkpt><trkpt lat="46.02349393669701" lon="13.395644892212406"><ele>91.33333333333333</ele><time>2026-03-28T12:54:23Z</time></trkpt><trkpt lat="46.023711970290215" lon="13.395724122287533"><ele>92.66666666666666</ele><time>2026-03-28T12:54:24Z</time></trkpt><trkpt lat="46.02392977280465" lon="13.395795163665177"><ele>94.0</ele><time>2026-03-28T12:54:25Z</time></trkpt><trkpt lat="46.024145136622636" lon="13.395870523287881"><ele>94.33333333333333</ele><time>2026-03-28T12:54:26Z</time></trkpt><trkpt lat="46.024358976073096" lon="13.395947249286287"><ele>94.66666666666667</ele><time>2026-03-28T12:54:27Z</time></trkpt><trkpt lat="46.02456883995073" lon="13.396023052353533"><ele>95.0</ele><time>2026-03-28T12:54:28Z</time></trkpt><trkpt lat="46.024775373116825" lon="13.396097593453076"><ele>94.66666666666667</ele><time>2026-03-28T12:54:29Z</time></trkpt><trkpt lat="46.02498146597963" lon="13.39617151725545"><ele>94.33333333333333</ele><time>2026-03-28T12:54:30Z</time></trkpt><trkpt lat="46.025184413647814" lon="13.396243901051163"><ele>94.0</ele><time>2026-03-28T12:54:31Z</time></trkpt><trkpt lat="46.02538610051439" lon="13.396315133947926"><ele>94.0</ele><time>2026-03-28T12:54:32Z</time></trkpt><trkpt lat="46.02558290587324" lon="13.396386222119006"><ele>94.0</ele><time>2026-03-28T12:54:33Z</time></trkpt><trkpt lat="46.025778912767734" lon="13.396457875148544"><ele>94.0</ele><time>2026-03-28T12:54:34Z</time></trkpt><trkpt lat="46.02597302413704" lon="13.396530767778337"><ele>93.66666666666666</ele><time>2026-03-28T12:54:35Z</time></trkpt><trkpt lat="46.026164432190306" lon="13.39660310995672"><ele>93.33333333333333</ele><time>2026-03-28T12:54:36Z</time></trkpt><trkpt lat="46.02635669419847" lon="13.396672245791379"><ele>93.0</ele><time>2026-03-28T12:54:37Z</time></trkpt><trkpt lat="46.026548574081154" lon="13.396740264958105"><ele>94.33333333333334</ele><time>2026-03-28T12:54:38Z</time></trkpt><trkpt lat="46.02674079722007" lon="13.396807630227576"><ele>95.66666666666667</ele><time>2026-03-28T12:54:39Z</time></trkpt><trkpt lat="46.02693569776292" lon="13.396876065783804"><ele>97.0</ele><time>2026-03-28T12:54:40Z</time></trkpt><trkpt lat="46.027131819368606" lon="13.396945495833743"><ele>97.0</ele><time>2026-03-28T12:54:41Z</time></trkpt><trkpt lat="46.02733049416415" lon="13.397014993970608"><ele>97.0</ele><time>2026-03-28T12:54:42Z</time></trkpt><trkpt lat="46.02752958903003" lon="13.397086358445112"><ele>97.0</ele><time>2026-03-28T12:54:43Z</time></trkpt><trkpt lat="46.02772923934966" lon="13.397159149110012"><ele>97.33333333333334</ele><time>2026-03-28T12:54:44Z</time></trkpt><trkpt lat="46.027929444696994" lon="13.397234067497786"><ele>97.66666666666666</ele><time>2026-03-28T12:54:45Z</time></trkpt><trkpt lat="46.028130700754694" lon="13.397307866600556"><ele>98.0</ele><time>2026-03-28T12:54:46Z</time></trkpt><trkpt lat="46.02833373943638" lon="13.397383028412726"><ele>98.33333333333333</ele><time>2026-03-28T12:54:47Z</time></trkpt><trkpt lat="46.0285370041276" lon="13.397459201885889"><ele>98.66666666666666</ele><time>2026-03-28T12:54:48Z</time></trkpt><trkpt lat="46.028741581745884" lon="13.397529036856197"><ele>99.0</ele><time>2026-03-28T12:54:49Z</time></trkpt><trkpt lat="46.02894761008532" lon="13.397597078437903"><ele>98.66666666666666</ele><time>2026-03-28T12:54:50Z</time></trkpt><trkpt lat="46.02915357311553" lon="13.397670467831253"><ele>98.33333333333333</ele><time>2026-03-28T12:54:51Z</time></trkpt><trkpt lat="46.02935814883997" lon="13.397749835431428"><ele>98.0</ele><time>2026-03-28T12:54:52Z</time></trkpt><trkpt lat="46.029562284611245" lon="13.397827598651414"><ele>98.0</ele><time>2026-03-28T12:54:53Z</time></trkpt><trkpt lat="46.0297676784422" lon="13.397902232107757"><ele>98.0</ele><time>2026-03-28T12:54:54Z</time></trkpt><trkpt lat="46.029972532607246" lon="13.397977214082184"><ele>98.0</ele><time>2026-03-28T12:54:55Z</time></trkpt><trkpt lat="46.03017611498964" lon="13.398059856320858"><ele>97.66666666666666</ele><time>2026-03-28T12:54:56Z</time></trkpt><trkpt lat="46.03037733767993" lon="13.398150303986089"><ele>97.33333333333334</ele><time>2026-03-28T12:54:57Z</time></trkpt><trkpt lat="46.03057526613205" lon="13.398244061368734"><ele>97.0</ele><time>2026-03-28T12:54:58Z</time></trkpt><trkpt lat="46.03077233662031" lon="13.398334891720026"><ele>96.0</ele><time>2026-03-28T12:54:59Z</time></trkpt><trkpt lat="46.03097035657824" lon="13.398423142859059"><ele>95.0</ele><time>2026-03-28T12:55:00Z</time></trkpt><trkpt lat="46.03116635354073" lon="13.398515883234285"><ele>94.0</ele><time>2026-03-28T12:55:01Z</time></trkpt><trkpt lat="46.031359616422854" lon="13.398618061859164"><ele>94.0</ele><time>2026-03-28T12:55:02Z</time></trkpt><trkpt lat="46.03154948145993" lon="13.398732456438465"><ele>94.0</ele><time>2026-03-28T12:55:03Z</time></trkpt><trkpt lat="46.03173425789499" lon="13.398864583473127"><ele>94.0</ele><time>2026-03-28T12:55:04Z</time></trkpt><trkpt lat="46.03191652955523" lon="13.399006476789936"><ele>94.33333333333333</ele><time>2026-03-28T12:55:05Z</time></trkpt><trkpt lat="46.03209965058274" lon="13.39915076003713"><ele>94.66666666666667</ele><time>2026-03-28T12:55:06Z</time></trkpt><trkpt lat="46.032284814496265" lon="13.39929281151982"><ele>95.0</ele><time>2026-03-28T12:55:06.999Z</time></trkpt><trkpt lat="46.032472995849005" lon="13.399435469921935"><ele>96.33333333333334</ele><time>2026-03-28T12:55:07.999Z</time></trkpt><trkpt lat="46.03266254120439" lon="13.399577634897051"><ele>97.66666666666667</ele><time>2026-03-28T12:55:08.999Z</time></trkpt><trkpt lat="46.03285339350526" lon="13.399711970858755"><ele>99.0</ele><time>2026-03-28T12:55:09.999Z</time></trkpt><trkpt lat="46.03305215301217" lon="13.39983460286938"><ele>99.0</ele><time>2026-03-28T12:55:10.999Z</time></trkpt><trkpt lat="46.03325864251856" lon="13.399931387222466"><ele>99.0</ele><time>2026-03-28T12:55:11.999Z</time></trkpt><trkpt lat="46.033470896841095" lon="13.400010270370244"><ele>99.0</ele><time>2026-03-28T12:55:12.999Z</time></trkpt><trkpt lat="46.03368670982458" lon="13.400087377886836"><ele>98.5</ele><time>2026-03-28T12:55:13.999Z</time></trkpt><trkpt lat="46.033902371859455" lon="13.400186575745824"><ele>98.0</ele><time>2026-03-28T12:55:14.999Z</time></trkpt><trkpt lat="46.034115033231444" lon="13.400305866050948"><ele>98.0</ele><time>2026-03-28T12:55:15.999Z</time></trkpt><trkpt lat="46.03432224347813" lon="13.400447764736915"><ele>98.0</ele><time>2026-03-28T12:55:16.999Z</time></trkpt><trkpt lat="46.03453107289153" lon="13.400584672639257"><ele>99.0</ele><time>2026-03-28T12:55:17.999Z</time></trkpt><trkpt lat="46.03473882675828" lon="13.400720791734896"><ele>100.0</ele><time>2026-03-28T12:55:18.999Z</time></trkpt><trkpt lat="46.03494348015422" lon="13.400864717636452"><ele>100.0</ele><time>2026-03-28T12:55:19.999Z</time></trkpt><trkpt lat="46.03513891426901" lon="13.401017413393253"><ele>100.0</ele><time>2026-03-28T12:55:20.999Z</time></trkpt><trkpt lat="46.03532311576813" lon="13.401191787929665"><ele>100.0</ele><time>2026-03-28T12:55:21.999Z</time></trkpt><trkpt lat="46.03549444100338" lon="13.401391273073989"><ele>100.0</ele><time>2026-03-28T12:55:22.999Z</time></trkpt><trkpt lat="46.035656868629886" lon="13.401609290682615"><ele>100.0</ele><time>2026-03-28T12:55:23.999Z</time></trkpt><trkpt lat="46.03581743859877" lon="13.401832681358211"><ele>100.0</ele><time>2026-03-28T12:55:24.999Z</time></trkpt><trkpt lat="46.035979135532536" lon="13.402055500708784"><ele>99.5</ele><time>2026-03-28T12:55:25.999Z</time></trkpt><trkpt lat="46.036142176271554" lon="13.402280452787497"><ele>99.0</ele><time>2026-03-28T12:55:26.999Z</time></trkpt><trkpt lat="46.036304157705196" lon="13.402504092270847"><ele>99.0</ele><time>2026-03-28T12:55:27.999Z</time></trkpt><trkpt lat="46.036467275364735" lon="13.402720966376934"><ele>99.0</ele><time>2026-03-28T12:55:28.999Z</time></trkpt><trkpt lat="46.03663198748191" lon="13.402931363016625"><ele>99.0</ele><time>2026-03-28T12:55:29.999Z</time></trkpt><trkpt lat="46.036800103379676" lon="13.403130692084238"><ele>98.33333333333334</ele><time>2026-03-28T12:55:30.999Z</time></trkpt><trkpt lat="46.036972523677726" lon="13.403316226124172"><ele>97.66666666666667</ele><time>2026-03-28T12:55:31.999Z</time></trkpt><trkpt lat="46.03715176875955" lon="13.40348192323092"><ele>97.0</ele><time>2026-03-28T12:55:32.999Z</time></trkpt><trkpt lat="46.0373378913022" lon="13.403626435907128"><ele>97.33333333333334</ele><time>2026-03-28T12:55:33.999Z</time></trkpt><trkpt lat="46.03753298890556" lon="13.403736815169198"><ele>97.66666666666666</ele><time>2026-03-28T12:55:34.999Z</time></trkpt><trkpt lat="46.03773287197384" lon="13.403826657575841"><ele>98.0</ele><time>2026-03-28T12:55:35.999Z</time></trkpt><trkpt lat="46.03793038629089" lon="13.403921444119145"><ele>99.0</ele><time>2026-03-28T12:55:36.999Z</time></trkpt><trkpt lat="46.038124191199095" lon="13.40401856403542"><ele>100.0</ele><time>2026-03-28T12:55:37.999Z</time></trkpt><trkpt lat="46.03831703694707" lon="13.404111763812642"><ele>101.0</ele><time>2026-03-28T12:55:38.999Z</time></trkpt><trkpt lat="46.038507571765415" lon="13.404202732149086"><ele>101.66666666666666</ele><time>2026-03-28T12:55:39.999Z</time></trkpt><trkpt lat="46.03869589172904" lon="13.404295553601052"><ele>102.33333333333334</ele><time>2026-03-28T12:55:40.999Z</time></trkpt><trkpt lat="46.03888275048936" lon="13.404382292958987"><ele>103.0</ele><time>2026-03-28T12:55:41.999Z</time></trkpt><trkpt lat="46.03906831587803" lon="13.404470154080155"><ele>103.0</ele><time>2026-03-28T12:55:42.999Z</time></trkpt><trkpt lat="46.03925172831421" lon="13.40455989412886"><ele>103.0</ele><time>2026-03-28T12:55:43.999Z</time></trkpt><trkpt lat="46.03943425294762" lon="13.404650810254921"><ele>103.0</ele><time>2026-03-28T12:55:44.999Z</time></trkpt><trkpt lat="46.03961624929121" lon="13.404738006042338"><ele>103.0</ele><time>2026-03-28T12:55:45.999Z</time></trkpt><trkpt lat="46.03979531901613" lon="13.404820744113534"><ele>103.0</ele><time>2026-03-28T12:55:46.999Z</time></trkpt><trkpt lat="46.039953536087936" lon="13.404898161581457"><ele>103.0</ele><time>2026-03-28T12:55:47.999Z</time></trkpt><trkpt lat="46.04010799802693" lon="13.404983600091269"><ele>102.66666666666667</ele><time>2026-03-28T12:55:48.999Z</time></trkpt><trkpt lat="46.04026542432098" lon="13.405084047361983"><ele>102.33333333333334</ele><time>2026-03-28T12:55:49.999Z</time></trkpt><trkpt lat="46.04041862159316" lon="13.405220030124891"><ele>102.0</ele><time>2026-03-28T12:55:50.999Z</time></trkpt><trkpt lat="46.04056731821985" lon="13.405385586997234"><ele>102.0</ele><time>2026-03-28T12:55:51.999Z</time></trkpt><trkpt lat="46.04071920551717" lon="13.405556464377792"><ele>102.0</ele><time>2026-03-28T12:55:52.999Z</time></trkpt><trkpt lat="46.04087505347408" lon="13.405725852092068"><ele>102.0</ele><time>2026-03-28T12:55:53.999Z</time></trkpt><trkpt lat="46.04102953218992" lon="13.405894175267655"><ele>102.66666666666666</ele><time>2026-03-28T12:55:54.999Z</time></trkpt><trkpt lat="46.04118970826336" lon="13.40605218285176"><ele>103.33333333333333</ele><time>2026-03-28T12:55:55.999Z</time></trkpt><trkpt lat="46.04136224059873" lon="13.406180635687607"><ele>104.0</ele><time>2026-03-28T12:55:56.999Z</time></trkpt><trkpt lat="46.04154176342579" lon="13.406275352835383"><ele>104.0</ele><time>2026-03-28T12:55:57.999Z</time></trkpt><trkpt lat="46.041730483250376" lon="13.406317183544001"><ele>104.0</ele><time>2026-03-28T12:55:58.999Z</time></trkpt><trkpt lat="46.04193355057783" lon="13.406336093094383"><ele>104.0</ele><time>2026-03-28T12:55:59.999Z</time></trkpt><trkpt lat="46.04214036098551" lon="13.406375953949471"><ele>104.33333333333333</ele><time>2026-03-28T12:56:00.999Z</time></trkpt><trkpt lat="46.04235246846168" lon="13.406409908689097"><ele>104.66666666666666</ele><time>2026-03-28T12:56:01.999Z</time></trkpt><trkpt lat="46.042568542650415" lon="13.406440164131068"><ele>105.0</ele><time>2026-03-28T12:56:02.999Z</time></trkpt><trkpt lat="46.042785408320775" lon="13.40647426314146"><ele>105.0</ele><time>2026-03-28T12:56:03.999Z</time></trkpt><trkpt lat="46.04300397066203" lon="13.406510564746851"><ele>105.0</ele><time>2026-03-28T12:56:04.999Z</time></trkpt><trkpt lat="46.043220348540586" lon="13.406546347094192"><ele>105.0</ele><time>2026-03-28T12:56:06Z</time></trkpt><trkpt lat="46.04343582280374" lon="13.406580279391358"><ele>104.66666666666666</ele><time>2026-03-28T12:56:07Z</time></trkpt><trkpt lat="46.04364920699138" lon="13.40661167588319"><ele>104.33333333333333</ele><time>2026-03-28T12:56:08Z</time></trkpt><trkpt lat="46.04385993672756" lon="13.406644676306657"><ele>104.0</ele><time>2026-03-28T12:56:09Z</time></trkpt><trkpt lat="46.044065614602935" lon="13.406685814602515"><ele>104.33333333333333</ele><time>2026-03-28T12:56:10Z</time></trkpt><trkpt lat="46.044269081035324" lon="13.40673998978207"><ele>104.66666666666666</ele><time>2026-03-28T12:56:11Z</time></trkpt><trkpt lat="46.044470169772424" lon="13.406804367290595"><ele>105.0</ele><time>2026-03-28T12:56:12Z</time></trkpt><trkpt lat="46.04466892290854" lon="13.406872253192661"><ele>105.0</ele><time>2026-03-28T12:56:13Z</time></trkpt><trkpt lat="46.044865023124274" lon="13.406937395478955"><ele>105.0</ele><time>2026-03-28T12:56:14Z</time></trkpt><trkpt lat="46.04505435654184" lon="13.406996355100736"><ele>105.0</ele><time>2026-03-28T12:56:15Z</time></trkpt><trkpt lat="46.04524078340391" lon="13.40705124322643"><ele>105.66666666666666</ele><time>2026-03-28T12:56:16Z</time></trkpt><trkpt lat="46.04542222621312" lon="13.407109475518759"><ele>106.33333333333333</ele><time>2026-03-28T12:56:17Z</time></trkpt><trkpt lat="46.045599720910005" lon="13.407169309463647"><ele>107.0</ele><time>2026-03-28T12:56:18Z</time></trkpt><trkpt lat="46.04577535101057" lon="13.407226201246585"><ele>106.33333333333333</ele><time>2026-03-28T12:56:19Z</time></trkpt><trkpt lat="46.045943844004974" lon="13.407279873446967"><ele>105.66666666666666</ele><time>2026-03-28T12:56:20Z</time></trkpt><trkpt lat="46.046099039000985" lon="13.407329911320224"><ele>105.0</ele><time>2026-03-28T12:56:21Z</time></trkpt><trkpt lat="46.04624416810239" lon="13.407376695264501"><ele>105.0</ele><time>2026-03-28T12:56:22Z</time></trkpt><trkpt lat="46.0463762778084" lon="13.407420554562023"><ele>105.0</ele><time>2026-03-28T12:56:23Z</time></trkpt><trkpt lat="46.046504592025784" lon="13.4074646614482"><ele>105.0</ele><time>2026-03-28T12:56:24Z</time></trkpt><trkpt lat="46.04661900276569" lon="13.407502391457921"><ele>105.0</ele><time>2026-03-28T12:56:25Z</time></trkpt><trkpt lat="46.04672042675796" lon="13.407534216936227"><ele>105.0</ele><time>2026-03-28T12:56:26Z</time></trkpt><trkpt lat="46.046793673787946" lon="13.407558005572392"><ele>105.0</ele><time>2026-03-28T12:56:27Z</time></trkpt><trkpt lat="46.04686325278411" lon="13.407574984339378"><ele>105.0</ele><time>2026-03-28T12:56:29Z</time></trkpt><trkpt lat="46.046925953734004" lon="13.407583415896282"><ele>105.0</ele><time>2026-03-28T12:56:32Z</time></trkpt><trkpt lat="46.04698117530511" lon="13.407648938148018"><ele>105.0</ele><time>2026-03-28T12:56:36Z</time></trkpt><trkpt lat="46.04707350203241" lon="13.407800608004601"><ele>105.0</ele><time>2026-03-28T12:56:38Z</time></trkpt><trkpt lat="46.04717212507949" lon="13.407837635792205"><ele>105.0</ele><time>2026-03-28T12:56:39Z</time></trkpt><trkpt lat="46.047309670226646" lon="13.407851609916534"><ele>105.0</ele><time>2026-03-28T12:56:40Z</time></trkpt><trkpt lat="46.047462675256824" lon="13.407908854585509"><ele>105.0</ele><time>2026-03-28T12:56:41Z</time></trkpt><trkpt lat="46.047638347911146" lon="13.408002379485595"><ele>106.33333333333334</ele><time>2026-03-28T12:56:42Z</time></trkpt><trkpt lat="46.04783254073054" lon="13.408115602712579"><ele>107.66666666666667</ele><time>2026-03-28T12:56:43Z</time></trkpt><trkpt lat="46.04803702976737" lon="13.40823117428922"><ele>109.0</ele><time>2026-03-28T12:56:44Z</time></trkpt><trkpt lat="46.048256741752844" lon="13.408352558225886"><ele>110.0</ele><time>2026-03-28T12:56:45Z</time></trkpt><trkpt lat="46.04848324072918" lon="13.408479163142855"><ele>111.0</ele><time>2026-03-28T12:56:46Z</time></trkpt><trkpt lat="46.04871255007505" lon="13.408607443242408"><ele>111.0</ele><time>2026-03-28T12:56:47Z</time></trkpt><trkpt lat="46.04894359531914" lon="13.408735995858294"><ele>111.0</ele><time>2026-03-28T12:56:48Z</time></trkpt><trkpt lat="46.049174826557646" lon="13.408859669487915"><ele>110.0</ele><time>2026-03-28T12:56:49Z</time></trkpt><trkpt lat="46.049407493625424" lon="13.408973159556846"><ele>109.0</ele><time>2026-03-28T12:56:50Z</time></trkpt><trkpt lat="46.04964329638724" lon="13.40907410981205"><ele>109.0</ele><time>2026-03-28T12:56:51Z</time></trkpt><trkpt lat="46.04988115098018" lon="13.409169929763298"><ele>109.0</ele><time>2026-03-28T12:56:52Z</time></trkpt><trkpt lat="46.050118393076815" lon="13.409261458188483"><ele>108.5</ele><time>2026-03-28T12:56:53Z</time></trkpt><trkpt lat="46.05035149427992" lon="13.409350812976324"><ele>108.0</ele><time>2026-03-28T12:56:54Z</time></trkpt><trkpt lat="46.05057672150662" lon="13.40943663591653"><ele>108.0</ele><time>2026-03-28T12:56:55Z</time></trkpt><trkpt lat="46.050794747888965" lon="13.409522247163814"><ele>108.0</ele><time>2026-03-28T12:56:56Z</time></trkpt><trkpt lat="46.05100173692789" lon="13.40961203305265"><ele>108.0</ele><time>2026-03-28T12:56:57Z</time></trkpt><trkpt lat="46.05119258246466" lon="13.409721044474155"><ele>108.0</ele><time>2026-03-28T12:56:58Z</time></trkpt><trkpt lat="46.05139300312498" lon="13.409839061482474"><ele>108.0</ele><time>2026-03-28T12:56:59Z</time></trkpt><trkpt lat="46.05159394537707" lon="13.409965735216666"><ele>108.0</ele><time>2026-03-28T12:57:00Z</time></trkpt><trkpt lat="46.05179787458338" lon="13.410098935064175"><ele>109.0</ele><time>2026-03-28T12:57:01Z</time></trkpt><trkpt lat="46.05200572388495" lon="13.410233741199152"><ele>110.0</ele><time>2026-03-28T12:57:02Z</time></trkpt><trkpt lat="46.05221659046714" lon="13.41036824426866"><ele>109.5</ele><time>2026-03-28T12:57:03Z</time></trkpt><trkpt lat="46.0524285213409" lon="13.41050545802102"><ele>109.0</ele><time>2026-03-28T12:57:04Z</time></trkpt><trkpt lat="46.052643985801716" lon="13.410642179030278"><ele>110.0</ele><time>2026-03-28T12:57:05Z</time></trkpt><trkpt lat="46.05286233400686" lon="13.41077896962892"><ele>111.0</ele><time>2026-03-28T12:57:06Z</time></trkpt><trkpt lat="46.05308259531897" lon="13.410917857102646"><ele>111.5</ele><time>2026-03-28T12:57:07Z</time></trkpt><trkpt lat="46.053303882861414" lon="13.411057794228725"><ele>112.0</ele><time>2026-03-28T12:57:08Z</time></trkpt><trkpt lat="46.05352308148853" lon="13.4111978594124"><ele>110.5</ele><time>2026-03-28T12:57:08.999Z</time></trkpt><trkpt lat="46.05373427748497" lon="13.411336036647583"><ele>109.0</ele><time>2026-03-28T12:57:09.999Z</time></trkpt><trkpt lat="46.05394592315317" lon="13.411465474777843"><ele>109.5</ele><time>2026-03-28T12:57:10.999Z</time></trkpt><trkpt lat="46.05415724328635" lon="13.41158848852232"><ele>110.0</ele><time>2026-03-28T12:57:11.999Z</time></trkpt><trkpt lat="46.05436554166072" lon="13.411712798116335"><ele>110.0</ele><time>2026-03-28T12:57:12.999Z</time></trkpt><trkpt lat="46.05456893139396" lon="13.411845493909503"><ele>110.0</ele><time>2026-03-28T12:57:13.999Z</time></trkpt><trkpt lat="46.054764192638906" lon="13.411993716686357"><ele>110.0</ele><time>2026-03-28T12:57:14.999Z</time></trkpt><trkpt lat="46.05495380743265" lon="13.41217216376965"><ele>108.5</ele><time>2026-03-28T12:57:15.999Z</time></trkpt><trkpt lat="46.05513804096952" lon="13.412369200433853"><ele>107.0</ele><time>2026-03-28T12:57:16.999Z</time></trkpt><trkpt lat="46.05532178855021" lon="13.412575166905686"><ele>107.0</ele><time>2026-03-28T12:57:17.999Z</time></trkpt><trkpt lat="46.05551025325688" lon="13.412786926627314"><ele>107.0</ele><time>2026-03-28T12:57:18.999Z</time></trkpt><trkpt lat="46.05570348468318" lon="13.413001504367086"><ele>108.0</ele><time>2026-03-28T12:57:19.999Z</time></trkpt><trkpt lat="46.05589569146687" lon="13.413215710575788"><ele>109.0</ele><time>2026-03-28T12:57:20.999Z</time></trkpt><trkpt lat="46.05608490749025" lon="13.413424524763663"><ele>109.0</ele><time>2026-03-28T12:57:21.999Z</time></trkpt><trkpt lat="46.05627283606745" lon="13.413629014122304"><ele>109.0</ele><time>2026-03-28T12:57:22.999Z</time></trkpt><trkpt lat="46.05646047509993" lon="13.413828610501888"><ele>110.0</ele><time>2026-03-28T12:57:23.999Z</time></trkpt><trkpt lat="46.056653674615745" lon="13.41401178574766"><ele>111.0</ele><time>2026-03-28T12:57:24.999Z</time></trkpt><trkpt lat="46.05685757505367" lon="13.414172594044993"><ele>111.0</ele><time>2026-03-28T12:57:25.999Z</time></trkpt><trkpt lat="46.05706462711171" lon="13.414331733294082"><ele>111.0</ele><time>2026-03-28T12:57:26.999Z</time></trkpt><trkpt lat="46.057269025310845" lon="13.414498903073143"><ele>112.0</ele><time>2026-03-28T12:57:27.999Z</time></trkpt><trkpt lat="46.05747601486145" lon="13.414661172090076"><ele>113.0</ele><time>2026-03-28T12:57:28.999Z</time></trkpt><trkpt lat="46.057689537602975" lon="13.4148146939857"><ele>113.0</ele><time>2026-03-28T12:57:29.999Z</time></trkpt><trkpt lat="46.05791316013364" lon="13.414954967359524"><ele>113.0</ele><time>2026-03-28T12:57:30.999Z</time></trkpt><trkpt lat="46.05814493813819" lon="13.415073972158192"><ele>114.0</ele><time>2026-03-28T12:57:31.999Z</time></trkpt><trkpt lat="46.05838140923458" lon="13.41518900264498"><ele>115.0</ele><time>2026-03-28T12:57:32.999Z</time></trkpt><trkpt lat="46.05861943331138" lon="13.415313011338085"><ele>115.0</ele><time>2026-03-28T12:57:33.999Z</time></trkpt><trkpt lat="46.058860920692055" lon="13.415445854723249"><ele>115.0</ele><time>2026-03-28T12:57:34.999Z</time></trkpt><trkpt lat="46.05910517424132" lon="13.415581467733617"><ele>114.5</ele><time>2026-03-28T12:57:35.999Z</time></trkpt><trkpt lat="46.05935143682299" lon="13.415719455008194"><ele>114.0</ele><time>2026-03-28T12:57:36.999Z</time></trkpt><trkpt lat="46.059598319454686" lon="13.415862455015773"><ele>114.0</ele><time>2026-03-28T12:57:37.999Z</time></trkpt><trkpt lat="46.05984417451423" lon="13.416013211623593"><ele>114.0</ele><time>2026-03-28T12:57:38.999Z</time></trkpt><trkpt lat="46.06008648040897" lon="13.416172470659353"><ele>112.5</ele><time>2026-03-28T12:57:39.999Z</time></trkpt><trkpt lat="46.0603288826995" lon="13.416338866679823"><ele>111.0</ele><time>2026-03-28T12:57:40.999Z</time></trkpt><trkpt lat="46.060574226530704" lon="13.416496243918623"><ele>111.0</ele><time>2026-03-28T12:57:41.999Z</time></trkpt><trkpt lat="46.06082201568162" lon="13.416648090218912"><ele>111.0</ele><time>2026-03-28T12:57:42.999Z</time></trkpt><trkpt lat="46.061061574760785" lon="13.416799556111831"><ele>111.0</ele><time>2026-03-28T12:57:43.999Z</time></trkpt><trkpt lat="46.06129869349979" lon="13.41694185717121"><ele>111.0</ele><time>2026-03-28T12:57:44.999Z</time></trkpt><trkpt lat="46.061532044374225" lon="13.417063476554608"><ele>112.5</ele><time>2026-03-28T12:57:45.999Z</time></trkpt><trkpt lat="46.06176220191107" lon="13.417167246608281"><ele>114.0</ele><time>2026-03-28T12:57:46.999Z</time></trkpt><trkpt lat="46.061987571183415" lon="13.41725667068469"><ele>114.0</ele><time>2026-03-28T12:57:47.999Z</time></trkpt><trkpt lat="46.06220978886128" lon="13.417344272801143"><ele>114.0</ele><time>2026-03-28T12:57:48.999Z</time></trkpt><trkpt lat="46.062431187894084" lon="13.417433917928692"><ele>115.0</ele><time>2026-03-28T12:57:49.999Z</time></trkpt><trkpt lat="46.06265134559864" lon="13.417515442370249"><ele>116.0</ele><time>2026-03-28T12:57:50.999Z</time></trkpt><trkpt lat="46.0628768109068" lon="13.417591230722438"><ele>116.0</ele><time>2026-03-28T12:57:51.999Z</time></trkpt><trkpt lat="46.06310507930241" lon="13.41765730880325"><ele>116.0</ele><time>2026-03-28T12:57:52.999Z</time></trkpt><trkpt lat="46.06333517257998" lon="13.417721586303426"><ele>115.5</ele><time>2026-03-28T12:57:53.999Z</time></trkpt><trkpt lat="46.06356592646568" lon="13.417782961361453"><ele>115.0</ele><time>2026-03-28T12:57:54.999Z</time></trkpt><trkpt lat="46.0637979986498" lon="13.417842297312482"><ele>115.0</ele><time>2026-03-28T12:57:55.999Z</time></trkpt><trkpt lat="46.06403062059311" lon="13.417899924730557"><ele>115.0</ele><time>2026-03-28T12:57:56.999Z</time></trkpt><trkpt lat="46.06426281002783" lon="13.417961743518113"><ele>115.0</ele><time>2026-03-28T12:57:57.999Z</time></trkpt><trkpt lat="46.064492497101334" lon="13.41802447457861"><ele>115.0</ele><time>2026-03-28T12:57:58.999Z</time></trkpt><trkpt lat="46.06472184257671" lon="13.418085307834476"><ele>116.0</ele><time>2026-03-28T12:57:59.999Z</time></trkpt><trkpt lat="46.064953610519396" lon="13.41814561823399"><ele>117.0</ele><time>2026-03-28T12:58:00.999Z</time></trkpt><trkpt lat="46.06518481721637" lon="13.41820655841104"><ele>117.0</ele><time>2026-03-28T12:58:01.999Z</time></trkpt><trkpt lat="46.06541775574014" lon="13.41826930969257"><ele>117.0</ele><time>2026-03-28T12:58:02.999Z</time></trkpt><trkpt lat="46.0656513147925" lon="13.418332672520535"><ele>117.5</ele><time>2026-03-28T12:58:03.999Z</time></trkpt><trkpt lat="46.06588694649396" lon="13.418397519383948"><ele>118.0</ele><time>2026-03-28T12:58:04.999Z</time></trkpt><trkpt lat="46.066123431690855" lon="13.41846089868004"><ele>118.0</ele><time>2026-03-28T12:58:05.999Z</time></trkpt><trkpt lat="46.066361619446724" lon="13.418522808775604"><ele>118.0</ele><time>2026-03-28T12:58:06.999Z</time></trkpt><trkpt lat="46.066601651447186" lon="13.418583792464306"><ele>118.5</ele><time>2026-03-28T12:58:07.999Z</time></trkpt><trkpt lat="46.06684389230391" lon="13.418647779759745"><ele>119.0</ele><time>2026-03-28T12:58:08.999Z</time></trkpt><trkpt lat="46.067088026742745" lon="13.41871223047498"><ele>119.0</ele><time>2026-03-28T12:58:09.999Z</time></trkpt><trkpt lat="46.067332906840065" lon="13.418775146412708"><ele>119.0</ele><time>2026-03-28T12:58:11Z</time></trkpt><trkpt lat="46.06757968433836" lon="13.418840127255613"><ele>119.5</ele><time>2026-03-28T12:58:12Z</time></trkpt><trkpt lat="46.06782645404188" lon="13.418904841177616"><ele>120.0</ele><time>2026-03-28T12:58:13Z</time></trkpt><trkpt lat="46.068077757559124" lon="13.418971226540956"><ele>120.5</ele><time>2026-03-28T12:58:14Z</time></trkpt><trkpt lat="46.068337756959544" lon="13.41903666546081"><ele>121.0</ele><time>2026-03-28T12:58:15Z</time></trkpt><trkpt lat="46.06860851694583" lon="13.419108355111213"><ele>121.0</ele><time>2026-03-28T12:58:16Z</time></trkpt><trkpt lat="46.06889558534365" lon="13.419187699147102"><ele>121.0</ele><time>2026-03-28T12:58:17Z</time></trkpt><trkpt lat="46.06919682910671" lon="13.419261613397936"><ele>120.5</ele><time>2026-03-28T12:58:18Z</time></trkpt><trkpt lat="46.0695105167565" lon="13.419337012118955"><ele>120.0</ele><time>2026-03-28T12:58:19Z</time></trkpt><trkpt lat="46.0698329595829" lon="13.419422112343677"><ele>120.0</ele><time>2026-03-28T12:58:20Z</time></trkpt><trkpt lat="46.07016209248912" lon="13.419515470360121"><ele>120.0</ele><time>2026-03-28T12:58:21Z</time></trkpt><trkpt lat="46.07049720333784" lon="13.419621939199295"><ele>121.5</ele><time>2026-03-28T12:58:22Z</time></trkpt><trkpt lat="46.070836704712725" lon="13.419750352815818"><ele>123.0</ele><time>2026-03-28T12:58:23Z</time></trkpt><trkpt lat="46.07117437410594" lon="13.41989398111418"><ele>123.0</ele><time>2026-03-28T12:58:24Z</time></trkpt><trkpt lat="46.07151070510446" lon="13.42004343767758"><ele>123.0</ele><time>2026-03-28T12:58:25Z</time></trkpt><trkpt lat="46.07183898774551" lon="13.420199552125483"><ele>123.0</ele><time>2026-03-28T12:58:26Z</time></trkpt><trkpt lat="46.072165830105185" lon="13.420353667339183"><ele>123.0</ele><time>2026-03-28T12:58:27Z</time></trkpt><trkpt lat="46.07249047779191" lon="13.420483839732501"><ele>123.0</ele><time>2026-03-28T12:58:28Z</time></trkpt><trkpt lat="46.072816953486665" lon="13.42058613893911"><ele>123.0</ele><time>2026-03-28T12:58:29Z</time></trkpt><trkpt lat="46.07313637843731" lon="13.420665997064917"><ele>123.0</ele><time>2026-03-28T12:58:30Z</time></trkpt><trkpt lat="46.07343581607949" lon="13.420734053288516"><ele>123.0</ele><time>2026-03-28T12:58:31Z</time></trkpt><trkpt lat="46.07371102289234" lon="13.420794210370131"><ele>123.0</ele><time>2026-03-28T12:58:32Z</time></trkpt><trkpt lat="46.0739657091381" lon="13.420858033077625"><ele>123.0</ele><time>2026-03-28T12:58:33Z</time></trkpt><trkpt lat="46.0742099898923" lon="13.420925274803155"><ele>123.5</ele><time>2026-03-28T12:58:34Z</time></trkpt><trkpt lat="46.07445112468256" lon="13.420996013587258"><ele>124.0</ele><time>2026-03-28T12:58:35Z</time></trkpt><trkpt lat="46.07467727567418" lon="13.42105643860181"><ele>124.0</ele><time>2026-03-28T12:58:36Z</time></trkpt><trkpt lat="46.07489336190569" lon="13.421113464931574"><ele>124.0</ele><time>2026-03-28T12:58:37Z</time></trkpt><trkpt lat="46.075100603674514" lon="13.421168288434899"><ele>124.0</ele><time>2026-03-28T12:58:38Z</time></trkpt><trkpt lat="46.07530297836023" lon="13.421217364368966"><ele>124.33333333333334</ele><time>2026-03-28T12:58:39Z</time></trkpt><trkpt lat="46.075498295479335" lon="13.421261231014752"><ele>124.66666666666666</ele><time>2026-03-28T12:58:40Z</time></trkpt><trkpt lat="46.07568332110258" lon="13.421302885812834"><ele>125.0</ele><time>2026-03-28T12:58:41Z</time></trkpt><trkpt lat="46.075870758471666" lon="13.421346866316325"><ele>125.0</ele><time>2026-03-28T12:58:42Z</time></trkpt><trkpt lat="46.07605517934713" lon="13.421388125853614"><ele>125.0</ele><time>2026-03-28T12:58:43Z</time></trkpt><trkpt lat="46.07623737778902" lon="13.421425115107349"><ele>125.0</ele><time>2026-03-28T12:58:44Z</time></trkpt><trkpt lat="46.07641749549387" lon="13.421457313472947"><ele>125.0</ele><time>2026-03-28T12:58:45Z</time></trkpt><trkpt lat="46.076596778154126" lon="13.421484592264273"><ele>125.0</ele><time>2026-03-28T12:58:46Z</time></trkpt><trkpt lat="46.07677715501709" lon="13.421504900342619"><ele>125.0</ele><time>2026-03-28T12:58:47Z</time></trkpt><trkpt lat="46.07695866134038" lon="13.42152456208683"><ele>125.0</ele><time>2026-03-28T12:58:48Z</time></trkpt><trkpt lat="46.07714017666301" lon="13.421545329706571"><ele>125.0</ele><time>2026-03-28T12:58:49Z</time></trkpt><trkpt lat="46.077321546164264" lon="13.421563733038832"><ele>125.0</ele><time>2026-03-28T12:58:50Z</time></trkpt><trkpt lat="46.077503787713475" lon="13.421579045300714"><ele>125.0</ele><time>2026-03-28T12:58:51Z</time></trkpt><trkpt lat="46.07768789614947" lon="13.421591589142094"><ele>125.0</ele><time>2026-03-28T12:58:52Z</time></trkpt><trkpt lat="46.07787396289779" lon="13.421601252549898"><ele>125.0</ele><time>2026-03-28T12:58:53Z</time></trkpt><trkpt lat="46.078060220490734" lon="13.421609594376896"><ele>125.0</ele><time>2026-03-28T12:58:54Z</time></trkpt><trkpt lat="46.07824751152714" lon="13.421617336396226"><ele>125.0</ele><time>2026-03-28T12:58:55Z</time></trkpt><trkpt lat="46.0784364660618" lon="13.421626296321907"><ele>125.0</ele><time>2026-03-28T12:58:56Z</time></trkpt><trkpt lat="46.078624408756426" lon="13.42164086788024"><ele>125.33333333333333</ele><time>2026-03-28T12:58:57Z</time></trkpt><trkpt lat="46.07881130921081" lon="13.421656359898838"><ele>125.66666666666666</ele><time>2026-03-28T12:58:58Z</time></trkpt><trkpt lat="46.07899899993644" lon="13.421680951180837"><ele>126.0</ele><time>2026-03-28T12:58:59Z</time></trkpt><trkpt lat="46.079185124169086" lon="13.42172034354998"><ele>126.0</ele><time>2026-03-28T12:59:00Z</time></trkpt><trkpt lat="46.07937006625086" lon="13.421770024392346"><ele>126.0</ele><time>2026-03-28T12:59:01Z</time></trkpt><trkpt lat="46.07955468508895" lon="13.421837766487311"><ele>126.0</ele><time>2026-03-28T12:59:02Z</time></trkpt><trkpt lat="46.07973551154527" lon="13.421932853616866"><ele>126.0</ele><time>2026-03-28T12:59:03Z</time></trkpt><trkpt lat="46.07991428499432" lon="13.42204486029636"><ele>126.0</ele><time>2026-03-28T12:59:04Z</time></trkpt><trkpt lat="46.080092658411466" lon="13.422171087817075"><ele>126.0</ele><time>2026-03-28T12:59:05Z</time></trkpt><trkpt lat="46.0802718515706" lon="13.422312005117218"><ele>126.33333333333334</ele><time>2026-03-28T12:59:06Z</time></trkpt><trkpt lat="46.080447871373096" lon="13.422467782546951"><ele>126.66666666666667</ele><time>2026-03-28T12:59:07Z</time></trkpt><trkpt lat="46.08061890137921" lon="13.422648665576743"><ele>127.0</ele><time>2026-03-28T12:59:08Z</time></trkpt><trkpt lat="46.08078241661909" lon="13.422847931564117"><ele>126.66666666666667</ele><time>2026-03-28T12:59:09Z</time></trkpt><trkpt lat="46.08094208978433" lon="13.423058565838193"><ele>126.33333333333334</ele><time>2026-03-28T12:59:10Z</time></trkpt><trkpt lat="46.08109894115151" lon="13.423281987280898"><ele>126.0</ele><time>2026-03-28T12:59:10.999Z</time></trkpt><trkpt lat="46.08125500223825" lon="13.423507362479155"><ele>126.0</ele><time>2026-03-28T12:59:11.999Z</time></trkpt><trkpt lat="46.081407657513395" lon="13.423737532670936"><ele>126.0</ele><time>2026-03-28T12:59:12.999Z</time></trkpt><trkpt lat="46.08155620802579" lon="13.423970117308466"><ele>126.0</ele><time>2026-03-28T12:59:13.999Z</time></trkpt><trkpt lat="46.08170578854179" lon="13.42419911099071"><ele>127.0</ele><time>2026-03-28T12:59:14.999Z</time></trkpt><trkpt lat="46.081854437222496" lon="13.424425748597345"><ele>128.0</ele><time>2026-03-28T12:59:15.999Z</time></trkpt><trkpt lat="46.082002840532326" lon="13.42464944614952"><ele>129.0</ele><time>2026-03-28T12:59:16.999Z</time></trkpt><trkpt lat="46.08214632294361" lon="13.42487280580355"><ele>129.0</ele><time>2026-03-28T12:59:17.999Z</time></trkpt><trkpt lat="46.08229089322522" lon="13.425090300748804"><ele>129.0</ele><time>2026-03-28T12:59:18.999Z</time></trkpt><trkpt lat="46.08242758625703" lon="13.425319207085609"><ele>129.0</ele><time>2026-03-28T12:59:19.999Z</time></trkpt><trkpt lat="46.08256861101133" lon="13.425529769463026"><ele>128.33333333333334</ele><time>2026-03-28T12:59:20.999Z</time></trkpt><trkpt lat="46.08270757151182" lon="13.425746477215352"><ele>127.66666666666667</ele><time>2026-03-28T12:59:21.999Z</time></trkpt><trkpt lat="46.082842508564646" lon="13.425954635800057"><ele>127.0</ele><time>2026-03-28T12:59:22.999Z</time></trkpt><trkpt lat="46.08297960863667" lon="13.426165531963294"><ele>127.33333333333334</ele><time>2026-03-28T12:59:23.999Z</time></trkpt><trkpt lat="46.08311739337968" lon="13.426376935541827"><ele>127.66666666666666</ele><time>2026-03-28T12:59:24.999Z</time></trkpt><trkpt lat="46.08325564423207" lon="13.426584405617673"><ele>128.0</ele><time>2026-03-28T12:59:25.999Z</time></trkpt><trkpt lat="46.083392912062415" lon="13.426790458350027"><ele>128.0</ele><time>2026-03-28T12:59:26.999Z</time></trkpt><trkpt lat="46.083529896216774" lon="13.426995922979783"><ele>128.0</ele><time>2026-03-28T12:59:27.999Z</time></trkpt><trkpt lat="46.083666200974385" lon="13.427198369345417"><ele>128.0</ele><time>2026-03-28T12:59:28.999Z</time></trkpt><trkpt lat="46.08380278629058" lon="13.427400255689614"><ele>128.33333333333331</ele><time>2026-03-28T12:59:29.999Z</time></trkpt><trkpt lat="46.083937835530634" lon="13.42760355893439"><ele>128.66666666666666</ele><time>2026-03-28T12:59:30.999Z</time></trkpt><trkpt lat="46.08407065889095" lon="13.427807988603266"><ele>129.0</ele><time>2026-03-28T12:59:31.999Z</time></trkpt><trkpt lat="46.08420366698018" lon="13.428015420673583"><ele>128.33333333333334</ele><time>2026-03-28T12:59:32.999Z</time></trkpt><trkpt lat="46.084337385679255" lon="13.428219637185569"><ele>127.66666666666667</ele><time>2026-03-28T12:59:33.999Z</time></trkpt><trkpt lat="46.084470689917254" lon="13.428419250965211"><ele>127.0</ele><time>2026-03-28T12:59:34.999Z</time></trkpt><trkpt lat="46.08460325366474" lon="13.428618494071776"><ele>128.0</ele><time>2026-03-28T12:59:35.999Z</time></trkpt><trkpt lat="46.08473382465075" lon="13.428817760029341"><ele>129.0</ele><time>2026-03-28T12:59:36.999Z</time></trkpt><trkpt lat="46.08486130076431" lon="13.429013902207243"><ele>130.0</ele><time>2026-03-28T12:59:37.999Z</time></trkpt><trkpt lat="46.084979514496034" lon="13.429196407171718"><ele>130.33333333333334</ele><time>2026-03-28T12:59:38.999Z</time></trkpt><trkpt lat="46.08509015997102" lon="13.429369255423765"><ele>130.66666666666666</ele><time>2026-03-28T12:59:39.999Z</time></trkpt><trkpt lat="46.08518976641155" lon="13.429534741719324"><ele>131.0</ele><time>2026-03-28T12:59:40.999Z</time></trkpt><trkpt lat="46.08527645705302" lon="13.429699729192459"><ele>131.5</ele><time>2026-03-28T12:59:41.999Z</time></trkpt><trkpt lat="46.085353980835954" lon="13.429861893733943"><ele>132.0</ele><time>2026-03-28T12:59:42.999Z</time></trkpt><trkpt lat="46.08542545744585" lon="13.43000763750125"><ele>132.5</ele><time>2026-03-28T12:59:43.999Z</time></trkpt><trkpt lat="46.08549326292927" lon="13.43014247651527"><ele>133.0</ele><time>2026-03-28T12:59:44.999Z</time></trkpt><trkpt lat="46.08555674418226" lon="13.430267938638663"><ele>133.0</ele><time>2026-03-28T12:59:45.999Z</time></trkpt><trkpt lat="46.08561069853263" lon="13.43039246504497"><ele>133.0</ele><time>2026-03-28T12:59:46.999Z</time></trkpt><trkpt lat="46.08565011386068" lon="13.430521757933342"><ele>133.0</ele><time>2026-03-28T12:59:47.999Z</time></trkpt><trkpt lat="46.08568105689502" lon="13.430667841832452"><ele>133.0</ele><time>2026-03-28T12:59:48.999Z</time></trkpt><trkpt lat="46.0857018114588" lon="13.43080531069965"><ele>133.0</ele><time>2026-03-28T12:59:49.999Z</time></trkpt><trkpt lat="46.085693526334865" lon="13.430931738199394"><ele>133.0</ele><time>2026-03-28T12:59:50.999Z</time></trkpt><trkpt lat="46.08564173447798" lon="13.431043907001225"><ele>133.0</ele><time>2026-03-28T12:59:51.999Z</time></trkpt><trkpt lat="46.085581112185494" lon="13.431129029859122"><ele>133.0</ele><time>2026-03-28T12:59:52.999Z</time></trkpt><trkpt lat="46.0855607926363" lon="13.431230937396665"><ele>133.0</ele><time>2026-03-28T12:59:53.999Z</time></trkpt><trkpt lat="46.08557842819853" lon="13.43133251086342"><ele>133.0</ele><time>2026-03-28T12:59:54.999Z</time></trkpt><trkpt lat="46.085629799747196" lon="13.431404748767003"><ele>133.0</ele><time>2026-03-28T12:59:55.999Z</time></trkpt><trkpt lat="46.08570659382762" lon="13.431431961646997"><ele>133.0</ele><time>2026-03-28T12:59:56.999Z</time></trkpt><trkpt lat="46.085791919830235" lon="13.431412206240553"><ele>133.0</ele><time>2026-03-28T12:59:57.999Z</time></trkpt><trkpt lat="46.08586356133227" lon="13.431424758157835"><ele>133.0</ele><time>2026-03-28T12:59:58.999Z</time></trkpt><trkpt lat="46.08593169056939" lon="13.431489479982991"><ele>133.0</ele><time>2026-03-28T12:59:59.999Z</time></trkpt><trkpt lat="46.08599099925474" lon="13.431580783394613"><ele>133.0</ele><time>2026-03-28T13:00:00.999Z</time></trkpt><trkpt lat="46.08604682076328" lon="13.431683537097149"><ele>133.0</ele><time>2026-03-28T13:00:01.999Z</time></trkpt><trkpt lat="46.086106691866206" lon="13.431792771271944"><ele>133.0</ele><time>2026-03-28T13:00:02.999Z</time></trkpt><trkpt lat="46.08616514198158" lon="13.431911475269109"><ele>133.0</ele><time>2026-03-28T13:00:03.999Z</time></trkpt><trkpt lat="46.08622210006645" lon="13.432038737557303"><ele>133.0</ele><time>2026-03-28T13:00:04.999Z</time></trkpt><trkpt lat="46.086282397161135" lon="13.432165694983297"><ele>133.0</ele><time>2026-03-28T13:00:05.999Z</time></trkpt><trkpt lat="46.08634170810612" lon="13.432293404647897"><ele>133.0</ele><time>2026-03-28T13:00:06.999Z</time></trkpt><trkpt lat="46.08639806572086" lon="13.432429816087021"><ele>133.0</ele><time>2026-03-28T13:00:07.999Z</time></trkpt><trkpt lat="46.08645745236551" lon="13.432571935874773"><ele>133.0</ele><time>2026-03-28T13:00:08.999Z</time></trkpt><trkpt lat="46.086521280375386" lon="13.432719439308029"><ele>133.0</ele><time>2026-03-28T13:00:09.999Z</time></trkpt><trkpt lat="46.08658415660784" lon="13.432876972339496"><ele>133.0</ele><time>2026-03-28T13:00:10.999Z</time></trkpt><trkpt lat="46.086651047256915" lon="13.433045554162199"><ele>133.5</ele><time>2026-03-28T13:00:11.999Z</time></trkpt><trkpt lat="46.086728288603894" lon="13.433220403854355"><ele>134.0</ele><time>2026-03-28T13:00:12.999Z</time></trkpt><trkpt lat="46.08680526737457" lon="13.433403918128477"><ele>134.5</ele><time>2026-03-28T13:00:13.999Z</time></trkpt><trkpt lat="46.086878475062555" lon="13.433589367434756"><ele>135.0</ele><time>2026-03-28T13:00:14.999Z</time></trkpt><trkpt lat="46.0869524414707" lon="13.433770439224428"><ele>135.0</ele><time>2026-03-28T13:00:16Z</time></trkpt><trkpt lat="46.087027340446966" lon="13.433946552794742"><ele>135.0</ele><time>2026-03-28T13:00:17Z</time></trkpt><trkpt lat="46.087100916088566" lon="13.434118878721748"><ele>135.0</ele><time>2026-03-28T13:00:18Z</time></trkpt><trkpt lat="46.08716607467656" lon="13.43427605650768"><ele>135.0</ele><time>2026-03-28T13:00:19Z</time></trkpt><trkpt lat="46.087225282812774" lon="13.434418754018807"><ele>135.0</ele><time>2026-03-28T13:00:20Z</time></trkpt><trkpt lat="46.08728349360073" lon="13.434559342392834"><ele>135.0</ele><time>2026-03-28T13:00:21Z</time></trkpt><trkpt lat="46.08733080905886" lon="13.434682511292108"><ele>135.0</ele><time>2026-03-28T13:00:22Z</time></trkpt><trkpt lat="46.0873680071114" lon="13.43477660468095"><ele>135.0</ele><time>2026-03-28T13:00:23Z</time></trkpt><trkpt lat="46.08741452869093" lon="13.434896469030052"><ele>135.0</ele><time>2026-03-28T13:00:25Z</time></trkpt><trkpt lat="46.087449852268044" lon="13.434990627684952"><ele>135.33333333333334</ele><time>2026-03-28T13:00:29Z</time></trkpt><trkpt lat="46.087516866584714" lon="13.43508456385432"><ele>135.66666666666666</ele><time>2026-03-28T13:00:31Z</time></trkpt><trkpt lat="46.08755446264636" lon="13.435165379998734"><ele>136.0</ele><time>2026-03-28T13:00:32Z</time></trkpt><trkpt lat="46.08758297178841" lon="13.435271682680872"><ele>136.33333333333331</ele><time>2026-03-28T13:00:33Z</time></trkpt><trkpt lat="46.08762177862729" lon="13.435375998234804"><ele>136.66666666666666</ele><time>2026-03-28T13:00:34Z</time></trkpt><trkpt lat="46.08767019001215" lon="13.435489678884846"><ele>137.0</ele><time>2026-03-28T13:00:35Z</time></trkpt><trkpt lat="46.087725662005894" lon="13.435608221257349"><ele>137.0</ele><time>2026-03-28T13:00:36Z</time></trkpt><trkpt lat="46.08779402345957" lon="13.43570974495172"><ele>137.0</ele><time>2026-03-28T13:00:37Z</time></trkpt><trkpt lat="46.0878638472441" lon="13.435808267505173"><ele>137.0</ele><time>2026-03-28T13:00:38Z</time></trkpt><trkpt lat="46.08793865879113" lon="13.43591347191976"><ele>137.0</ele><time>2026-03-28T13:00:39Z</time></trkpt><trkpt lat="46.088019626090706" lon="13.43602016598668"><ele>137.0</ele><time>2026-03-28T13:00:40Z</time></trkpt><trkpt lat="46.08810698236862" lon="13.43612144493016"><ele>137.0</ele><time>2026-03-28T13:00:41Z</time></trkpt><trkpt lat="46.08819290639233" lon="13.43622843680982"><ele>137.0</ele><time>2026-03-28T13:00:42Z</time></trkpt><trkpt lat="46.08828313526901" lon="13.436335579121106"><ele>137.0</ele><time>2026-03-28T13:00:43Z</time></trkpt><trkpt lat="46.08838644389339" lon="13.436429745990493"><ele>137.0</ele><time>2026-03-28T13:00:44Z</time></trkpt><trkpt lat="46.0884916536359" lon="13.436512914039945"><ele>137.25</ele><time>2026-03-28T13:00:45Z</time></trkpt><trkpt lat="46.088603298086895" lon="13.436591024568925"><ele>137.5</ele><time>2026-03-28T13:00:46Z</time></trkpt><trkpt lat="46.088709609082485" lon="13.43667225680688"><ele>137.75</ele><time>2026-03-28T13:00:47Z</time></trkpt><trkpt lat="46.08881554524405" lon="13.436741911658451"><ele>138.0</ele><time>2026-03-28T13:00:48Z</time></trkpt><trkpt lat="46.08892102160642" lon="13.436805474468073"><ele>138.0</ele><time>2026-03-28T13:00:49Z</time></trkpt><trkpt lat="46.089020718980244" lon="13.436867410175081"><ele>138.0</ele><time>2026-03-28T13:00:50Z</time></trkpt><trkpt lat="46.08909897291716" lon="13.436919332062756"><ele>138.0</ele><time>2026-03-28T13:00:51Z</time></trkpt><trkpt lat="46.08916112835258" lon="13.436965091533779"><ele>138.0</ele><time>2026-03-28T13:00:52Z</time></trkpt><trkpt lat="46.08924781790834" lon="13.437019498733703"><ele>138.0</ele><time>2026-03-28T13:00:54Z</time></trkpt><trkpt lat="46.089310820911834" lon="13.437127700859742"><ele>138.4</ele><time>2026-03-28T13:00:57Z</time></trkpt><trkpt lat="46.08930449275242" lon="13.437321966537974"><ele>138.8</ele><time>2026-03-28T13:00:59Z</time></trkpt><trkpt lat="46.089288304417906" lon="13.437443243144"><ele>139.2</ele><time>2026-03-28T13:01:00Z</time></trkpt><trkpt lat="46.08927496503828" lon="13.437589365709654"><ele>139.6</ele><time>2026-03-28T13:01:01Z</time></trkpt><trkpt lat="46.08928010700137" lon="13.437731647509557"><ele>140.0</ele><time>2026-03-28T13:01:02Z</time></trkpt><trkpt lat="46.08926227467248" lon="13.43784726374759"><ele>140.0</ele><time>2026-03-28T13:01:03Z</time></trkpt><trkpt lat="46.08923074814003" lon="13.437953867852892"><ele>140.0</ele><time>2026-03-28T13:01:04Z</time></trkpt><trkpt lat="46.08919537691411" lon="13.43805810372064"><ele>140.0</ele><time>2026-03-28T13:01:05Z</time></trkpt><trkpt lat="46.08914945758955" lon="13.438148458739283"><ele>140.0</ele><time>2026-03-28T13:01:06Z</time></trkpt><trkpt lat="46.089110005607616" lon="13.438225562233816"><ele>140.0</ele><time>2026-03-28T13:01:07Z</time></trkpt><trkpt lat="46.089061593042295" lon="13.438354716651029"><ele>140.0</ele><time>2026-03-28T13:01:09Z</time></trkpt><trkpt lat="46.0890909971523" lon="13.438492481811018"><ele>140.0</ele><time>2026-03-28T13:01:10.999Z</time></trkpt><trkpt lat="46.08915661788744" lon="13.438547500854925"><ele>140.0</ele><time>2026-03-28T13:01:11.999Z</time></trkpt><trkpt lat="46.08923610330499" lon="13.438579762467155"><ele>140.0</ele><time>2026-03-28T13:01:12.999Z</time></trkpt><trkpt lat="46.089316700364336" lon="13.438618349508612"><ele>140.0</ele><time>2026-03-28T13:01:13.999Z</time></trkpt><trkpt lat="46.08939666161492" lon="13.438658674184678"><ele>140.0</ele><time>2026-03-28T13:01:14.999Z</time></trkpt><trkpt lat="46.08948761388638" lon="13.438674659559847"><ele>140.0</ele><time>2026-03-28T13:01:15.999Z</time></trkpt><trkpt lat="46.08959036620062" lon="13.438656589796132"><ele>140.0</ele><time>2026-03-28T13:01:16.999Z</time></trkpt><trkpt lat="46.089687305264555" lon="13.438626861622696"><ele>140.0</ele><time>2026-03-28T13:01:17.999Z</time></trkpt><trkpt lat="46.08976389789096" lon="13.438586522665311"><ele>140.0</ele><time>2026-03-28T13:01:18.999Z</time></trkpt><trkpt lat="46.08983376190724" lon="13.43855984441866"><ele>140.0</ele><time>2026-03-28T13:01:19.999Z</time></trkpt><trkpt lat="46.08990634695282" lon="13.438579524965528"><ele>140.0</ele><time>2026-03-28T13:01:20.999Z</time></trkpt><trkpt lat="46.08997055940505" lon="13.438652178734555"><ele>140.0</ele><time>2026-03-28T13:01:21.999Z</time></trkpt><trkpt lat="46.09001886422092" lon="13.43875943132075"><ele>139.75</ele><time>2026-03-28T13:01:22.999Z</time></trkpt><trkpt lat="46.09005919870134" lon="13.438900674520422"><ele>139.5</ele><time>2026-03-28T13:01:23.999Z</time></trkpt><trkpt lat="46.09009737668738" lon="13.439055611578652"><ele>139.25</ele><time>2026-03-28T13:01:24.999Z</time></trkpt><trkpt lat="46.0901410464659" lon="13.439205847491513"><ele>139.0</ele><time>2026-03-28T13:01:25.999Z</time></trkpt><trkpt lat="46.09019093847816" lon="13.439368146237923"><ele>139.0</ele><time>2026-03-28T13:01:26.999Z</time></trkpt><trkpt lat="46.09024524600328" lon="13.439551681549766"><ele>139.0</ele><time>2026-03-28T13:01:27.999Z</time></trkpt><trkpt lat="46.090304134495135" lon="13.439747949639864"><ele>139.0</ele><time>2026-03-28T13:01:28.999Z</time></trkpt><trkpt lat="46.0903704253845" lon="13.439958028875132"><ele>139.0</ele><time>2026-03-28T13:01:29.999Z</time></trkpt><trkpt lat="46.09041724578464" lon="13.44020233195313"><ele>138.33333333333334</ele><time>2026-03-28T13:01:30.999Z</time></trkpt><trkpt lat="46.09048141737719" lon="13.440480939216062"><ele>137.66666666666666</ele><time>2026-03-28T13:01:31.999Z</time></trkpt><trkpt lat="46.090549823169" lon="13.440772408134139"><ele>137.0</ele><time>2026-03-28T13:01:32.999Z</time></trkpt><trkpt lat="46.09060649206409" lon="13.4410666169478"><ele>137.0</ele><time>2026-03-28T13:01:33.999Z</time></trkpt><trkpt lat="46.09066452006532" lon="13.441338287441146"><ele>137.0</ele><time>2026-03-28T13:01:34.999Z</time></trkpt><trkpt lat="46.090719037529176" lon="13.441597032205092"><ele>137.0</ele><time>2026-03-28T13:01:35.999Z</time></trkpt><trkpt lat="46.09077230341571" lon="13.441843554065253"><ele>137.33333333333331</ele><time>2026-03-28T13:01:36.999Z</time></trkpt><trkpt lat="46.09082575808912" lon="13.442085224727899"><ele>137.66666666666666</ele><time>2026-03-28T13:01:37.999Z</time></trkpt><trkpt lat="46.09087960404712" lon="13.442320992992936"><ele>138.0</ele><time>2026-03-28T13:01:38.999Z</time></trkpt><trkpt lat="46.09093600586834" lon="13.44254806593105"><ele>138.0</ele><time>2026-03-28T13:01:39.999Z</time></trkpt><trkpt lat="46.09099497545762" lon="13.442769826881728"><ele>138.0</ele><time>2026-03-28T13:01:40.999Z</time></trkpt><trkpt lat="46.09105904358815" lon="13.442983080304368"><ele>138.0</ele><time>2026-03-28T13:01:41.999Z</time></trkpt><trkpt lat="46.09112476143135" lon="13.443189880112785"><ele>138.33333333333334</ele><time>2026-03-28T13:01:42.999Z</time></trkpt><trkpt lat="46.09118764303405" lon="13.443390858134979"><ele>138.66666666666669</ele><time>2026-03-28T13:01:43.999Z</time></trkpt><trkpt lat="46.09124829415441" lon="13.443593786807956"><ele>139.0</ele><time>2026-03-28T13:01:44.999Z</time></trkpt><trkpt lat="46.09131018998422" lon="13.443794022271959"><ele>138.75</ele><time>2026-03-28T13:01:45.999Z</time></trkpt><trkpt lat="46.09136814759807" lon="13.443992909826992"><ele>138.5</ele><time>2026-03-28T13:01:46.999Z</time></trkpt><trkpt lat="46.09141916720354" lon="13.444191742040259"><ele>138.25</ele><time>2026-03-28T13:01:47.999Z</time></trkpt><trkpt lat="46.09146262110773" lon="13.444392068205802"><ele>138.0</ele><time>2026-03-28T13:01:48.999Z</time></trkpt><trkpt lat="46.091498931884004" lon="13.44459781771921"><ele>138.5</ele><time>2026-03-28T13:01:49.999Z</time></trkpt><trkpt lat="46.0915285886658" lon="13.444803862480837"><ele>139.0</ele><time>2026-03-28T13:01:50.999Z</time></trkpt><trkpt lat="46.091554007789256" lon="13.445008825344317"><ele>139.5</ele><time>2026-03-28T13:01:51.999Z</time></trkpt><trkpt lat="46.09157498400622" lon="13.445213066466334"><ele>140.0</ele><time>2026-03-28T13:01:52.999Z</time></trkpt><trkpt lat="46.091594258158" lon="13.445416895201983"><ele>140.25</ele><time>2026-03-28T13:01:53.999Z</time></trkpt><trkpt lat="46.09161935611973" lon="13.445615747905967"><ele>140.5</ele><time>2026-03-28T13:01:54.999Z</time></trkpt><trkpt lat="46.091650865170166" lon="13.445812580519233"><ele>140.75</ele><time>2026-03-28T13:01:55.999Z</time></trkpt><trkpt lat="46.091690235414234" lon="13.446002862363537"><ele>141.0</ele><time>2026-03-28T13:01:56.999Z</time></trkpt><trkpt lat="46.09173778221596" lon="13.446186940705957"><ele>141.25</ele><time>2026-03-28T13:01:57.999Z</time></trkpt><trkpt lat="46.091795164209145" lon="13.446362649380191"><ele>141.5</ele><time>2026-03-28T13:01:58.999Z</time></trkpt><trkpt lat="46.091868744102634" lon="13.446519843735592"><ele>141.75</ele><time>2026-03-28T13:01:59.999Z</time></trkpt><trkpt lat="46.091960230816355" lon="13.446650799154625"><ele>142.0</ele><time>2026-03-28T13:02:00.999Z</time></trkpt><trkpt lat="46.092076174632076" lon="13.446745453112394"><ele>142.0</ele><time>2026-03-28T13:02:01.999Z</time></trkpt><trkpt lat="46.09219768490731" lon="13.446819866222656"><ele>142.0</ele><time>2026-03-28T13:02:02.999Z</time></trkpt><trkpt lat="46.09230501657204" lon="13.446919083197377"><ele>142.0</ele><time>2026-03-28T13:02:03.999Z</time></trkpt><trkpt lat="46.09239754126788" lon="13.447056829782293"><ele>142.0</ele><time>2026-03-28T13:02:04.999Z</time></trkpt><trkpt lat="46.09247850617273" lon="13.447223068088546"><ele>141.33333333333334</ele><time>2026-03-28T13:02:05.999Z</time></trkpt><trkpt lat="46.09256690636345" lon="13.447395473278316"><ele>140.66666666666666</ele><time>2026-03-28T13:02:06.999Z</time></trkpt><trkpt lat="46.092661142471336" lon="13.447570797027627"><ele>140.0</ele><time>2026-03-28T13:02:07.999Z</time></trkpt><trkpt lat="46.0927606264878" lon="13.44775295797793"><ele>140.0</ele><time>2026-03-28T13:02:08.999Z</time></trkpt><trkpt lat="46.09286849871304" lon="13.447931777441068"><ele>140.0</ele><time>2026-03-28T13:02:09.999Z</time></trkpt><trkpt lat="46.09296557636578" lon="13.448130075636731"><ele>140.0</ele><time>2026-03-28T13:02:10.999Z</time></trkpt><trkpt lat="46.09305464286413" lon="13.448342722943245"><ele>142.33333333333331</ele><time>2026-03-28T13:02:11.999Z</time></trkpt><trkpt lat="46.09315476565401" lon="13.44854699024717"><ele>144.66666666666666</ele><time>2026-03-28T13:02:12.999Z</time></trkpt><trkpt lat="46.09325818675274" lon="13.4487514352814"><ele>147.0</ele><time>2026-03-28T13:02:13.999Z</time></trkpt><trkpt lat="46.09335582248679" lon="13.448964815397131"><ele>141.66666666666666</ele><time>2026-03-28T13:02:14.999Z</time></trkpt><trkpt lat="46.093452930465794" lon="13.449176822385503"><ele>136.33333333333331</ele><time>2026-03-28T13:02:15.999Z</time></trkpt><trkpt lat="46.09355479027983" lon="13.449378463740409"><ele>131.0</ele><time>2026-03-28T13:02:16.999Z</time></trkpt><trkpt lat="46.09366819175055" lon="13.449563147197038"><ele>132.33333333333331</ele><time>2026-03-28T13:02:17.999Z</time></trkpt><trkpt lat="46.09379420738407" lon="13.449733513735104"><ele>133.66666666666666</ele><time>2026-03-28T13:02:18.999Z</time></trkpt><trkpt lat="46.093923900865406" lon="13.44989637009033"><ele>135.0</ele><time>2026-03-28T13:02:19.999Z</time></trkpt><trkpt lat="46.09405333066679" lon="13.450056437611455"><ele>135.66666666666666</ele><time>2026-03-28T13:02:20.999Z</time></trkpt><trkpt lat="46.094185080672396" lon="13.450217448389761"><ele>136.33333333333331</ele><time>2026-03-28T13:02:22Z</time></trkpt><trkpt lat="46.09431601755831" lon="13.450376330519891"><ele>137.0</ele><time>2026-03-28T13:02:23Z</time></trkpt><trkpt lat="46.094445490354445" lon="13.45053633731054"><ele>137.0</ele><time>2026-03-28T13:02:24Z</time></trkpt><trkpt lat="46.0945761184118" lon="13.450694948714979"><ele>137.0</ele><time>2026-03-28T13:02:25Z</time></trkpt><trkpt lat="46.09470881477591" lon="13.450850738101648"><ele>137.0</ele><time>2026-03-28T13:02:26Z</time></trkpt><trkpt lat="46.094839443563274" lon="13.451004652115827"><ele>137.66666666666666</ele><time>2026-03-28T13:02:27Z</time></trkpt><trkpt lat="46.09496811672028" lon="13.451155218788166"><ele>138.33333333333334</ele><time>2026-03-28T13:02:28Z</time></trkpt><trkpt lat="46.09509242220897" lon="13.451308940285816"><ele>139.0</ele><time>2026-03-28T13:02:29Z</time></trkpt><trkpt lat="46.0952094402686" lon="13.451473504832455"><ele>139.0</ele><time>2026-03-28T13:02:30Z</time></trkpt><trkpt lat="46.0953185803544" lon="13.451655275316176"><ele>139.0</ele><time>2026-03-28T13:02:31Z</time></trkpt><trkpt lat="46.095423839799174" lon="13.451843487307663"><ele>139.0</ele><time>2026-03-28T13:02:32Z</time></trkpt><trkpt lat="46.095528242978844" lon="13.452037768869136"><ele>139.0</ele><time>2026-03-28T13:02:33Z</time></trkpt><trkpt lat="46.095631572206024" lon="13.452235911903633"><ele>139.0</ele><time>2026-03-28T13:02:34Z</time></trkpt><trkpt lat="46.095745195362944" lon="13.452429059962183"><ele>139.0</ele><time>2026-03-28T13:02:35Z</time></trkpt><trkpt lat="46.09587370082334" lon="13.452616223948015"><ele>139.33333333333334</ele><time>2026-03-28T13:02:36Z</time></trkpt><trkpt lat="46.09601174690409" lon="13.45280609774625"><ele>139.66666666666666</ele><time>2026-03-28T13:02:37Z</time></trkpt><trkpt lat="46.096145930210206" lon="13.453005198188986"><ele>140.0</ele><time>2026-03-28T13:02:38Z</time></trkpt><trkpt lat="46.09626820223261" lon="13.45322591619242"><ele>140.0</ele><time>2026-03-28T13:02:39Z</time></trkpt><trkpt lat="46.09638176749212" lon="13.453456112648537"><ele>140.0</ele><time>2026-03-28T13:02:40Z</time></trkpt><trkpt lat="46.096492717587736" lon="13.453684718711079"><ele>140.0</ele><time>2026-03-28T13:02:41Z</time></trkpt><trkpt lat="46.09661101776566" lon="13.45392263255362"><ele>140.0</ele><time>2026-03-28T13:02:42Z</time></trkpt><trkpt lat="46.096733312072665" lon="13.45415911911169"><ele>140.0</ele><time>2026-03-28T13:02:43Z</time></trkpt><trkpt lat="46.096856024827424" lon="13.454402254878532"><ele>140.0</ele><time>2026-03-28T13:02:44Z</time></trkpt><trkpt lat="46.09697192536543" lon="13.454652153226863"><ele>140.33333333333331</ele><time>2026-03-28T13:02:45Z</time></trkpt><trkpt lat="46.09708158144244" lon="13.454918821546237"><ele>140.66666666666666</ele><time>2026-03-28T13:02:46Z</time></trkpt><trkpt lat="46.09718615481532" lon="13.455199002169696"><ele>141.0</ele><time>2026-03-28T13:02:47Z</time></trkpt><trkpt lat="46.09728963894644" lon="13.455485277304032"><ele>141.0</ele><time>2026-03-28T13:02:48Z</time></trkpt><trkpt lat="46.09739340902189" lon="13.455773431520631"><ele>141.0</ele><time>2026-03-28T13:02:49Z</time></trkpt><trkpt lat="46.097502362469456" lon="13.456059399754546"><ele>141.0</ele><time>2026-03-28T13:02:50Z</time></trkpt><trkpt lat="46.09761536427069" lon="13.456340638661827"><ele>141.0</ele><time>2026-03-28T13:02:51Z</time></trkpt><trkpt lat="46.09772292006153" lon="13.456622929251907"><ele>141.0</ele><time>2026-03-28T13:02:52Z</time></trkpt><trkpt lat="46.09781652349668" lon="13.456914637198437"><ele>140.5</ele><time>2026-03-28T13:02:53Z</time></trkpt><trkpt lat="46.09789236282762" lon="13.457219601248571"><ele>140.0</ele><time>2026-03-28T13:02:54Z</time></trkpt><trkpt lat="46.09795891832871" lon="13.457530393311421"><ele>140.0</ele><time>2026-03-28T13:02:55Z</time></trkpt><trkpt lat="46.09803116132974" lon="13.457838489424907"><ele>140.0</ele><time>2026-03-28T13:02:56Z</time></trkpt><trkpt lat="46.09810639386112" lon="13.458146821230685"><ele>140.0</ele><time>2026-03-28T13:02:57Z</time></trkpt><trkpt lat="46.098181460657976" lon="13.458460989200471"><ele>140.0</ele><time>2026-03-28T13:02:58Z</time></trkpt><trkpt lat="46.09825828538412" lon="13.458782889250246"><ele>141.0</ele><time>2026-03-28T13:02:59Z</time></trkpt><trkpt lat="46.09833576928705" lon="13.459109693619771"><ele>142.0</ele><time>2026-03-28T13:03:00Z</time></trkpt><trkpt lat="46.09841339355177" lon="13.459442780204247"><ele>142.5</ele><time>2026-03-28T13:03:01Z</time></trkpt><trkpt lat="46.098492913267854" lon="13.45978203509737"><ele>143.0</ele><time>2026-03-28T13:03:02Z</time></trkpt><trkpt lat="46.09857870569245" lon="13.460121202510546"><ele>143.5</ele><time>2026-03-28T13:03:03Z</time></trkpt><trkpt lat="46.0986726565835" lon="13.460460464009998"><ele>144.0</ele><time>2026-03-28T13:03:04Z</time></trkpt><trkpt lat="46.098770739923424" lon="13.460799338683481"><ele>144.0</ele><time>2026-03-28T13:03:05Z</time></trkpt><trkpt lat="46.098868267383985" lon="13.461131034657692"><ele>144.0</ele><time>2026-03-28T13:03:06Z</time></trkpt><trkpt lat="46.09896252314655" lon="13.461451409388983"><ele>144.5</ele><time>2026-03-28T13:03:07Z</time></trkpt><trkpt lat="46.09905603847207" lon="13.461764316435268"><ele>145.0</ele><time>2026-03-28T13:03:08Z</time></trkpt><trkpt lat="46.099151627397376" lon="13.462064115332396"><ele>145.33333333333334</ele><time>2026-03-28T13:03:09Z</time></trkpt><trkpt lat="46.0992538011914" lon="13.462351687251502"><ele>145.66666666666666</ele><time>2026-03-28T13:03:10Z</time></trkpt><trkpt lat="46.09936335725961" lon="13.462622115020126"><ele>146.0</ele><time>2026-03-28T13:03:11Z</time></trkpt><trkpt lat="46.09947507925578" lon="13.462884016526637"><ele>146.33333333333331</ele><time>2026-03-28T13:03:12Z</time></trkpt><trkpt lat="46.09958796041874" lon="13.463142485288321"><ele>146.66666666666666</ele><time>2026-03-28T13:03:13Z</time></trkpt><trkpt lat="46.099707760153834" lon="13.46339340793401"><ele>147.0</ele><time>2026-03-28T13:03:14Z</time></trkpt><trkpt lat="46.09984320199547" lon="13.463645098852513"><ele>146.5</ele><time>2026-03-28T13:03:15Z</time></trkpt><trkpt lat="46.09999780658932" lon="13.463905212316782"><ele>146.0</ele><time>2026-03-28T13:03:16Z</time></trkpt><trkpt lat="46.100148657380174" lon="13.46420819600219"><ele>146.0</ele><time>2026-03-28T13:03:16.999Z</time></trkpt><trkpt lat="46.10032998906585" lon="13.464511298859176"><ele>146.0</ele><time>2026-03-28T13:03:17.999Z</time></trkpt><trkpt lat="46.100497929838156" lon="13.464855580411003"><ele>145.0</ele><time>2026-03-28T13:03:18.999Z</time></trkpt><trkpt lat="46.10067675613255" lon="13.465208276296211"><ele>144.0</ele><time>2026-03-28T13:03:19.999Z</time></trkpt><trkpt lat="46.10086566283736" lon="13.465558031312247"><ele>144.0</ele><time>2026-03-28T13:03:20.999Z</time></trkpt><trkpt lat="46.10105254677024" lon="13.465911065842933"><ele>144.0</ele><time>2026-03-28T13:03:21.999Z</time></trkpt><trkpt lat="46.10123219918934" lon="13.466268643085611"><ele>144.0</ele><time>2026-03-28T13:03:22.999Z</time></trkpt><trkpt lat="46.10139814660179" lon="13.466637846872407"><ele>144.0</ele><time>2026-03-28T13:03:23.999Z</time></trkpt><trkpt lat="46.101551827253815" lon="13.467016134857154"><ele>145.0</ele><time>2026-03-28T13:03:24.999Z</time></trkpt><trkpt lat="46.10170439536303" lon="13.467383958766504"><ele>146.0</ele><time>2026-03-28T13:03:25.999Z</time></trkpt><trkpt lat="46.101858035532196" lon="13.46774013519436"><ele>146.0</ele><time>2026-03-28T13:03:26.999Z</time></trkpt><trkpt lat="46.10200754440076" lon="13.468083421123248"><ele>146.0</ele><time>2026-03-28T13:03:27.999Z</time></trkpt><trkpt lat="46.10215209966672" lon="13.468420277658947"><ele>146.0</ele><time>2026-03-28T13:03:28.999Z</time></trkpt><trkpt lat="46.10228977419677" lon="13.468739697693845"><ele>146.0</ele><time>2026-03-28T13:03:29.999Z</time></trkpt><trkpt lat="46.102419435596914" lon="13.46903687659588"><ele>146.0</ele><time>2026-03-28T13:03:30.999Z</time></trkpt><trkpt lat="46.10254136453108" lon="13.46931298250673"><ele>146.0</ele><time>2026-03-28T13:03:31.999Z</time></trkpt><trkpt lat="46.10266716430992" lon="13.469565743426607"><ele>146.0</ele><time>2026-03-28T13:03:32.999Z</time></trkpt><trkpt lat="46.10278230549498" lon="13.469844106532607"><ele>146.0</ele><time>2026-03-28T13:03:33.999Z</time></trkpt><trkpt lat="46.103005550078805" lon="13.470035384019063"><ele>146.0</ele><time>2026-03-28T13:03:34.999Z</time></trkpt><trkpt lat="46.10320176465554" lon="13.470255601931616"><ele>146.33333333333331</ele><time>2026-03-28T13:03:35.999Z</time></trkpt><trkpt lat="46.10337903034673" lon="13.470467909909583"><ele>146.66666666666666</ele><time>2026-03-28T13:03:36.999Z</time></trkpt><trkpt lat="46.10354919028121" lon="13.470660467664995"><ele>147.0</ele><time>2026-03-28T13:03:37.999Z</time></trkpt><trkpt lat="46.10373802854432" lon="13.470821165918014"><ele>147.0</ele><time>2026-03-28T13:03:38.999Z</time></trkpt><trkpt lat="46.10394264264455" lon="13.470953678438859"><ele>147.0</ele><time>2026-03-28T13:03:39.999Z</time></trkpt><trkpt lat="46.10413404967774" lon="13.47108210931918"><ele>147.0</ele><time>2026-03-28T13:03:40.999Z</time></trkpt><trkpt lat="46.10430612202245" lon="13.471211086291758"><ele>147.0</ele><time>2026-03-28T13:03:41.999Z</time></trkpt><trkpt lat="46.10446816694704" lon="13.471330254860792"><ele>147.0</ele><time>2026-03-28T13:03:42.999Z</time></trkpt><trkpt lat="46.10461876057552" lon="13.471436309034898"><ele>147.0</ele><time>2026-03-28T13:03:43.999Z</time></trkpt><trkpt lat="46.10475381984093" lon="13.471532247144083"><ele>147.0</ele><time>2026-03-28T13:03:44.999Z</time></trkpt><trkpt lat="46.10487603415004" lon="13.471643747423208"><ele>147.0</ele><time>2026-03-28T13:03:45.999Z</time></trkpt><trkpt lat="46.10499186114496" lon="13.471797940637135"><ele>147.0</ele><time>2026-03-28T13:03:46.999Z</time></trkpt><trkpt lat="46.105108184870915" lon="13.472001071938525"><ele>146.66666666666666</ele><time>2026-03-28T13:03:47.999Z</time></trkpt><trkpt lat="46.10521966398069" lon="13.47223347224862"><ele>146.33333333333331</ele><time>2026-03-28T13:03:48.999Z</time></trkpt><trkpt lat="46.10533800629902" lon="13.472480875264118"><ele>146.0</ele><time>2026-03-28T13:03:49.999Z</time></trkpt><trkpt lat="46.10546578192773" lon="13.472734100918236"><ele>144.0</ele><time>2026-03-28T13:03:50.999Z</time></trkpt><trkpt lat="46.10559100781294" lon="13.472981517988192"><ele>142.0</ele><time>2026-03-28T13:03:51.999Z</time></trkpt><trkpt lat="46.1057090563964" lon="13.47321703435515"><ele>140.0</ele><time>2026-03-28T13:03:52.999Z</time></trkpt><trkpt lat="46.105814476607314" lon="13.473431292829035"><ele>140.0</ele><time>2026-03-28T13:03:53.999Z</time></trkpt><trkpt lat="46.10592867035869" lon="13.47363610762824"><ele>140.0</ele><time>2026-03-28T13:03:54.999Z</time></trkpt><trkpt lat="46.10606265567909" lon="13.473821248709253"><ele>140.0</ele><time>2026-03-28T13:03:55.999Z</time></trkpt><trkpt lat="46.106217149857315" lon="13.473975020533658"><ele>139.33333333333331</ele><time>2026-03-28T13:03:56.999Z</time></trkpt><trkpt lat="46.106391309928526" lon="13.47408959406889"><ele>138.66666666666666</ele><time>2026-03-28T13:03:57.999Z</time></trkpt><trkpt lat="46.1065798490867" lon="13.474173728916638"><ele>138.0</ele><time>2026-03-28T13:03:58.999Z</time></trkpt><trkpt lat="46.10677854801303" lon="13.47421990675789"><ele>138.0</ele><time>2026-03-28T13:03:59.999Z</time></trkpt><trkpt lat="46.10699140237217" lon="13.474234674881279"><ele>138.0</ele><time>2026-03-28T13:04:00.999Z</time></trkpt><trkpt lat="46.107206054998976" lon="13.474256492622146"><ele>138.0</ele><time>2026-03-28T13:04:01.999Z</time></trkpt><trkpt lat="46.10742076804886" lon="13.474292223997733"><ele>136.33333333333334</ele><time>2026-03-28T13:04:02.999Z</time></trkpt><trkpt lat="46.1076387403104" lon="13.474318507241554"><ele>134.66666666666669</ele><time>2026-03-28T13:04:03.999Z</time></trkpt><trkpt lat="46.10785220826939" lon="13.47433853781781"><ele>133.0</ele><time>2026-03-28T13:04:04.999Z</time></trkpt><trkpt lat="46.108058757464406" lon="13.47436345690633"><ele>132.66666666666669</ele><time>2026-03-28T13:04:05.999Z</time></trkpt><trkpt lat="46.108259503902325" lon="13.47439237607869"><ele>132.33333333333334</ele><time>2026-03-28T13:04:06.999Z</time></trkpt><trkpt lat="46.108450021840135" lon="13.474420051194842"><ele>132.0</ele><time>2026-03-28T13:04:07.999Z</time></trkpt><trkpt lat="46.10863494481277" lon="13.474445641278077"><ele>132.0</ele><time>2026-03-28T13:04:08.999Z</time></trkpt><trkpt lat="46.10880262103403" lon="13.474477879038435"><ele>132.0</ele><time>2026-03-28T13:04:09.999Z</time></trkpt><trkpt lat="46.10895347479549" lon="13.474529927723376"><ele>132.0</ele><time>2026-03-28T13:04:10.999Z</time></trkpt><trkpt lat="46.10908727755112" lon="13.47461474356783"><ele>131.66666666666666</ele><time>2026-03-28T13:04:11.999Z</time></trkpt><trkpt lat="46.10922631982244" lon="13.47473399500113"><ele>131.33333333333331</ele><time>2026-03-28T13:04:12.999Z</time></trkpt><trkpt lat="46.10936821588983" lon="13.474868995002902"><ele>131.0</ele><time>2026-03-28T13:04:13.999Z</time></trkpt><trkpt lat="46.10951719205447" lon="13.475008844831263"><ele>131.0</ele><time>2026-03-28T13:04:14.999Z</time></trkpt><trkpt lat="46.10965902747952" lon="13.475159209531455"><ele>131.0</ele><time>2026-03-28T13:04:15.999Z</time></trkpt><trkpt lat="46.10980265308222" lon="13.475306296160198"><ele>131.0</ele><time>2026-03-28T13:04:16.999Z</time></trkpt><trkpt lat="46.10993476268216" lon="13.475433309001208"><ele>132.5</ele><time>2026-03-28T13:04:17.999Z</time></trkpt><trkpt lat="46.110067991861065" lon="13.475563992715111"><ele>134.0</ele><time>2026-03-28T13:04:18.999Z</time></trkpt><trkpt lat="46.110186884756054" lon="13.47569006165345"><ele>135.5</ele><time>2026-03-28T13:04:19.999Z</time></trkpt><trkpt lat="46.11028975504947" lon="13.475800132873173"><ele>137.0</ele><time>2026-03-28T13:04:20.999Z</time></trkpt><trkpt lat="46.11036406950572" lon="13.475918692369646"><ele>137.0</ele><time>2026-03-28T13:04:21.999Z</time></trkpt><trkpt lat="46.11041263589346" lon="13.476069597503187"><ele>137.0</ele><time>2026-03-28T13:04:22.999Z</time></trkpt><trkpt lat="46.11044594083754" lon="13.476239006929033"><ele>137.0</ele><time>2026-03-28T13:04:23.999Z</time></trkpt><trkpt lat="46.11048139992378" lon="13.476408692001705"><ele>137.0</ele><time>2026-03-28T13:04:24.999Z</time></trkpt><trkpt lat="46.11052966902467" lon="13.476546144786786"><ele>136.5</ele><time>2026-03-28T13:04:25.999Z</time></trkpt><trkpt lat="46.11060934130406" lon="13.4766632019212"><ele>136.0</ele><time>2026-03-28T13:04:26.999Z</time></trkpt><trkpt lat="46.110720077021874" lon="13.47675424503021"><ele>135.5</ele><time>2026-03-28T13:04:28Z</time></trkpt><trkpt lat="46.11084734669913" lon="13.476852394492184"><ele>135.0</ele><time>2026-03-28T13:04:29Z</time></trkpt><trkpt lat="46.11097344598906" lon="13.476967712306102"><ele>136.0</ele><time>2026-03-28T13:04:30Z</time></trkpt><trkpt lat="46.11108974853826" lon="13.477068169008296"><ele>137.0</ele><time>2026-03-28T13:04:31Z</time></trkpt><trkpt lat="46.1111904302745" lon="13.477145454554167"><ele>138.0</ele><time>2026-03-28T13:04:32Z</time></trkpt><trkpt lat="46.11128903494919" lon="13.47720387447793"><ele>139.0</ele><time>2026-03-28T13:04:33Z</time></trkpt><trkpt lat="46.11138187536328" lon="13.477241461967166"><ele>139.0</ele><time>2026-03-28T13:04:34Z</time></trkpt><trkpt lat="46.111467198620026" lon="13.477275267936191"><ele>139.0</ele><time>2026-03-28T13:04:35Z</time></trkpt><trkpt lat="46.11154607387517" lon="13.477312798685317"><ele>139.0</ele><time>2026-03-28T13:04:36Z</time></trkpt><trkpt lat="46.11161471492774" lon="13.477345886597279"><ele>139.0</ele><time>2026-03-28T13:04:37Z</time></trkpt><trkpt lat="46.11169487175017" lon="13.477382014861186"><ele>139.0</ele><time>2026-03-28T13:04:39Z</time></trkpt><trkpt lat="46.11175404746445" lon="13.477415884821495"><ele>139.0</ele><time>2026-03-28T13:04:42Z</time></trkpt><trkpt lat="46.11179820535064" lon="13.477480971724896"><ele>140.75</ele><time>2026-03-28T13:04:45Z</time></trkpt><trkpt lat="46.11177096027124" lon="13.477674537368486"><ele>142.5</ele><time>2026-03-28T13:04:47Z</time></trkpt><trkpt lat="46.11174167088486" lon="13.477801497293308"><ele>144.25</ele><time>2026-03-28T13:04:48Z</time></trkpt><trkpt lat="46.111714452371245" lon="13.477965133615372"><ele>146.0</ele><time>2026-03-28T13:04:49Z</time></trkpt><trkpt lat="46.11167716709361" lon="13.478143767753156"><ele>146.0</ele><time>2026-03-28T13:04:50Z</time></trkpt><trkpt lat="46.111636684231854" lon="13.478332718087772"><ele>146.0</ele><time>2026-03-28T13:04:51Z</time></trkpt><trkpt lat="46.11159921017364" lon="13.478516976334019"><ele>146.0</ele><time>2026-03-28T13:04:52Z</time></trkpt><trkpt lat="46.111558504566474" lon="13.478699930544982"><ele>146.0</ele><time>2026-03-28T13:04:53Z</time></trkpt><trkpt lat="46.11151809381679" lon="13.478880070539807"><ele>144.25</ele><time>2026-03-28T13:04:54Z</time></trkpt><trkpt lat="46.11148783179069" lon="13.479063590578356"><ele>142.5</ele><time>2026-03-28T13:04:55Z</time></trkpt><trkpt lat="46.111465446180496" lon="13.479256026159865"><ele>140.75</ele><time>2026-03-28T13:04:56Z</time></trkpt><trkpt lat="46.11145978855659" lon="13.479466884610405"><ele>139.0</ele><time>2026-03-28T13:04:57Z</time></trkpt><trkpt lat="46.11146573924998" lon="13.479698375640064"><ele>139.0</ele><time>2026-03-28T13:04:58Z</time></trkpt><trkpt lat="46.11147223587195" lon="13.479945198829025"><ele>139.0</ele><time>2026-03-28T13:04:59Z</time></trkpt><trkpt lat="46.111476066619346" lon="13.480196313961846"><ele>139.0</ele><time>2026-03-28T13:05:00Z</time></trkpt><trkpt lat="46.111482814572526" lon="13.480459683164968"><ele>138.33333333333334</ele><time>2026-03-28T13:05:01Z</time></trkpt><trkpt lat="46.11148995214053" lon="13.480718626403124"><ele>137.66666666666666</ele><time>2026-03-28T13:05:02Z</time></trkpt><trkpt lat="46.11149730773987" lon="13.480975269231891"><ele>137.0</ele><time>2026-03-28T13:05:03Z</time></trkpt><trkpt lat="46.11150600485852" lon="13.481229230626557"><ele>136.33333333333331</ele><time>2026-03-28T13:05:04Z</time></trkpt><trkpt lat="46.111514635216146" lon="13.4814817748912"><ele>135.66666666666666</ele><time>2026-03-28T13:05:05Z</time></trkpt><trkpt lat="46.11152298263266" lon="13.481732402867104"><ele>135.0</ele><time>2026-03-28T13:05:06Z</time></trkpt><trkpt lat="46.111531359622006" lon="13.4819823767947"><ele>135.66666666666666</ele><time>2026-03-28T13:05:07Z</time></trkpt><trkpt lat="46.11153743473895" lon="13.482224450950113"><ele>136.33333333333331</ele><time>2026-03-28T13:05:08Z</time></trkpt><trkpt lat="46.11154931093387" lon="13.482465117596117"><ele>137.0</ele><time>2026-03-28T13:05:09Z</time></trkpt><trkpt lat="46.11158298797197" lon="13.48271376738795"><ele>140.0</ele><time>2026-03-28T13:05:10Z</time></trkpt><trkpt lat="46.1116498466801" lon="13.482958581963775"><ele>143.0</ele><time>2026-03-28T13:05:11Z</time></trkpt><trkpt lat="46.11173655024956" lon="13.483207785317825"><ele>146.0</ele><time>2026-03-28T13:05:12Z</time></trkpt><trkpt lat="46.11181744081442" lon="13.483461157175961"><ele>146.0</ele><time>2026-03-28T13:05:13Z</time></trkpt><trkpt lat="46.11188704190703" lon="13.483686539654043"><ele>146.0</ele><time>2026-03-28T13:05:14Z</time></trkpt><trkpt lat="46.11195528616982" lon="13.483897092668327"><ele>146.0</ele><time>2026-03-28T13:05:15Z</time></trkpt><trkpt lat="46.112034748289986" lon="13.484097429542544"><ele>145.33333333333331</ele><time>2026-03-28T13:05:16Z</time></trkpt><trkpt lat="46.11215052621214" lon="13.48427604144959"><ele>144.66666666666666</ele><time>2026-03-28T13:05:17Z</time></trkpt><trkpt lat="46.11231134044215" lon="13.48443098942961"><ele>144.0</ele><time>2026-03-28T13:05:18Z</time></trkpt><trkpt lat="46.11249265734153" lon="13.484574919265667"><ele>145.0</ele><time>2026-03-28T13:05:18.999Z</time></trkpt><trkpt lat="46.1126435394453" lon="13.48470944217193"><ele>146.0</ele><time>2026-03-28T13:05:19.999Z</time></trkpt><trkpt lat="46.112786441687945" lon="13.484842753623443"><ele>147.0</ele><time>2026-03-28T13:05:20.999Z</time></trkpt><trkpt lat="46.11292323185718" lon="13.484971268919132"><ele>147.0</ele><time>2026-03-28T13:05:21.999Z</time></trkpt><trkpt lat="46.11305540869782" lon="13.485104141541047"><ele>147.0</ele><time>2026-03-28T13:05:22.999Z</time></trkpt><trkpt lat="46.113181746438855" lon="13.485253582213787"><ele>147.0</ele><time>2026-03-28T13:05:23.999Z</time></trkpt><trkpt lat="46.11329680758836" lon="13.485429161942571"><ele>147.0</ele><time>2026-03-28T13:05:24.999Z</time></trkpt><trkpt lat="46.11339155190276" lon="13.485636164493148"><ele>147.0</ele><time>2026-03-28T13:05:25.999Z</time></trkpt><trkpt lat="46.11346532103902" lon="13.485843101563473"><ele>147.0</ele><time>2026-03-28T13:05:26.999Z</time></trkpt><trkpt lat="46.113535740271544" lon="13.486041600609648"><ele>147.0</ele><time>2026-03-28T13:05:27.999Z</time></trkpt><trkpt lat="46.11359971836" lon="13.48622083648201"><ele>147.0</ele><time>2026-03-28T13:05:28.999Z</time></trkpt><trkpt lat="46.11366271971014" lon="13.4863891008878"><ele>147.0</ele><time>2026-03-28T13:05:29.999Z</time></trkpt><trkpt lat="46.1137281593886" lon="13.486558257819517"><ele>147.0</ele><time>2026-03-28T13:05:30.999Z</time></trkpt><trkpt lat="46.113790958797225" lon="13.486728666492985"><ele>146.25</ele><time>2026-03-28T13:05:31.999Z</time></trkpt><trkpt lat="46.113857020051114" lon="13.486897679204642"><ele>145.5</ele><time>2026-03-28T13:05:32.999Z</time></trkpt><trkpt lat="46.1139188279501" lon="13.487064838259924"><ele>144.75</ele><time>2026-03-28T13:05:33.999Z</time></trkpt><trkpt lat="46.11397408367974" lon="13.487217710217813"><ele>144.0</ele><time>2026-03-28T13:05:34.999Z</time></trkpt><trkpt lat="46.114022138947824" lon="13.487344408219457"><ele>143.66666666666666</ele><time>2026-03-28T13:05:35.999Z</time></trkpt><trkpt lat="46.11405614570255" lon="13.487437097101772"><ele>143.33333333333334</ele><time>2026-03-28T13:05:36.999Z</time></trkpt><trkpt lat="46.11410043495358" lon="13.487553390349037"><ele>143.0</ele><time>2026-03-28T13:05:38.999Z</time></trkpt><trkpt lat="46.114124144123515" lon="13.487659195621127"><ele>142.66666666666669</ele><time>2026-03-28T13:05:42.999Z</time></trkpt><trkpt lat="46.11414496719127" lon="13.487792981331927"><ele>142.33333333333334</ele><time>2026-03-28T13:06:08.999Z</time></trkpt><trkpt lat="46.11416500726679" lon="13.48791877254992"><ele>142.0</ele><time>2026-03-28T13:06:10.999Z</time></trkpt><trkpt lat="46.11418232077249" lon="13.48806498512908"><ele>143.0</ele><time>2026-03-28T13:06:12.999Z</time></trkpt><trkpt lat="46.11419702553835" lon="13.488216305668406"><ele>144.0</ele><time>2026-03-28T13:06:14.999Z</time></trkpt><trkpt lat="46.114200323674915" lon="13.488307208764242"><ele>145.0</ele><time>2026-03-28T13:06:15.999Z</time></trkpt><trkpt lat="46.11420322608133" lon="13.488417010599868"><ele>146.0</ele><time>2026-03-28T13:06:16.999Z</time></trkpt><trkpt lat="46.114204394556346" lon="13.488539833287192"><ele>147.0</ele><time>2026-03-28T13:06:17.999Z</time></trkpt><trkpt lat="46.11420778022592" lon="13.488669237608365"><ele>148.0</ele><time>2026-03-28T13:06:18.999Z</time></trkpt><trkpt lat="46.114218836112784" lon="13.488800692649777"><ele>148.0</ele><time>2026-03-28T13:06:19.999Z</time></trkpt><trkpt lat="46.11424238038627" lon="13.48893185646886"><ele>148.0</ele><time>2026-03-28T13:06:20.999Z</time></trkpt><trkpt lat="46.114276088315414" lon="13.489064528468225"><ele>148.0</ele><time>2026-03-28T13:06:21.999Z</time></trkpt><trkpt lat="46.11431290898593" lon="13.489200196557755"><ele>148.0</ele><time>2026-03-28T13:06:22.999Z</time></trkpt><trkpt lat="46.11434442746527" lon="13.489337280782793"><ele>148.0</ele><time>2026-03-28T13:06:23.999Z</time></trkpt><trkpt lat="46.114372503634335" lon="13.489476195371768"><ele>147.20000000000002</ele><time>2026-03-28T13:06:24.999Z</time></trkpt><trkpt lat="46.11440563154604" lon="13.48961321169946"><ele>146.4</ele><time>2026-03-28T13:06:25.999Z</time></trkpt><trkpt lat="46.11444391620159" lon="13.489749021449795"><ele>145.60000000000002</ele><time>2026-03-28T13:06:26.999Z</time></trkpt><trkpt lat="46.114489850147315" lon="13.489883161007008"><ele>144.8</ele><time>2026-03-28T13:06:27.999Z</time></trkpt><trkpt lat="46.11453847169343" lon="13.490026236602725"><ele>144.0</ele><time>2026-03-28T13:06:28.999Z</time></trkpt><trkpt lat="46.114587425805844" lon="13.49017398068553"><ele>144.0</ele><time>2026-03-28T13:06:29.999Z</time></trkpt><trkpt lat="46.11464171645884" lon="13.490325085948978"><ele>144.0</ele><time>2026-03-28T13:06:30.999Z</time></trkpt><trkpt lat="46.11468018803618" lon="13.490493526556817"><ele>144.0</ele><time>2026-03-28T13:06:31.999Z</time></trkpt><trkpt lat="46.1147417553889" lon="13.49064503235372"><ele>144.0</ele><time>2026-03-28T13:06:32.999Z</time></trkpt><trkpt lat="46.114805183581716" lon="13.49078909957466"><ele>143.5</ele><time>2026-03-28T13:06:34Z</time></trkpt><trkpt lat="46.11486769557615" lon="13.490923832729756"><ele>143.0</ele><time>2026-03-28T13:06:35Z</time></trkpt><trkpt lat="46.114934034289675" lon="13.491059934642434"><ele>142.5</ele><time>2026-03-28T13:06:36Z</time></trkpt><trkpt lat="46.11500403194585" lon="13.491194585047595"><ele>142.0</ele><time>2026-03-28T13:06:37Z</time></trkpt><trkpt lat="46.115075057144026" lon="13.491326736405501"><ele>143.0</ele><time>2026-03-28T13:06:38Z</time></trkpt><trkpt lat="46.11514573321801" lon="13.491458156068951"><ele>144.0</ele><time>2026-03-28T13:06:39Z</time></trkpt><trkpt lat="46.115216591878635" lon="13.491589915245802"><ele>145.0</ele><time>2026-03-28T13:06:40Z</time></trkpt><trkpt lat="46.115296943951094" lon="13.491699610007796"><ele>146.0</ele><time>2026-03-28T13:06:41Z</time></trkpt><trkpt lat="46.115362327179774" lon="13.49181602653713"><ele>147.0</ele><time>2026-03-28T13:06:42Z</time></trkpt><trkpt lat="46.115431370228606" lon="13.49194547162252"><ele>147.0</ele><time>2026-03-28T13:06:43Z</time></trkpt><trkpt lat="46.11552243335002" lon="13.492044509864451"><ele>147.0</ele><time>2026-03-28T13:06:44Z</time></trkpt><trkpt lat="46.11564286149054" lon="13.492107707263116"><ele>147.0</ele><time>2026-03-28T13:06:45Z</time></trkpt><trkpt lat="46.115759316425084" lon="13.492199693197481"><ele>147.0</ele><time>2026-03-28T13:06:46Z</time></trkpt><trkpt lat="46.115880227874165" lon="13.492298031817064"><ele>147.0</ele><time>2026-03-28T13:06:47Z</time></trkpt><trkpt lat="46.116005266265724" lon="13.49238786246743"><ele>147.0</ele><time>2026-03-28T13:06:48Z</time></trkpt><trkpt lat="46.11613156198478" lon="13.492464301179393"><ele>147.0</ele><time>2026-03-28T13:06:49Z</time></trkpt><trkpt lat="46.11625637048665" lon="13.492539159060245"><ele>147.0</ele><time>2026-03-28T13:06:50Z</time></trkpt><trkpt lat="46.116382676589936" lon="13.492605177864677"><ele>147.0</ele><time>2026-03-28T13:06:51Z</time></trkpt><trkpt lat="46.11651010246691" lon="13.49265819170686"><ele>147.0</ele><time>2026-03-28T13:06:52Z</time></trkpt><trkpt lat="46.11664185480487" lon="13.49270353845208"><ele>147.0</ele><time>2026-03-28T13:06:53Z</time></trkpt><trkpt lat="46.11678004344846" lon="13.49275639896652"><ele>147.0</ele><time>2026-03-28T13:06:54Z</time></trkpt><trkpt lat="46.11692254949979" lon="13.49281239850361"><ele>146.5</ele><time>2026-03-28T13:06:55Z</time></trkpt><trkpt lat="46.1170653827297" lon="13.492864887091924"><ele>146.0</ele><time>2026-03-28T13:06:56Z</time></trkpt><trkpt lat="46.117206437662006" lon="13.492919299328861"><ele>145.5</ele><time>2026-03-28T13:06:57Z</time></trkpt><trkpt lat="46.11734543695083" lon="13.492974475255927"><ele>145.0</ele><time>2026-03-28T13:06:58Z</time></trkpt><trkpt lat="46.1174852329524" lon="13.49302913602013"><ele>146.0</ele><time>2026-03-28T13:06:59Z</time></trkpt><trkpt lat="46.117624892195835" lon="13.493078442749244"><ele>147.0</ele><time>2026-03-28T13:07:00Z</time></trkpt><trkpt lat="46.11776107743458" lon="13.493126306544978"><ele>148.0</ele><time>2026-03-28T13:07:01Z</time></trkpt><trkpt lat="46.11789167261288" lon="13.49317712779136"><ele>149.0</ele><time>2026-03-28T13:07:02Z</time></trkpt><trkpt lat="46.11801570138341" lon="13.493227313669104"><ele>149.0</ele><time>2026-03-28T13:07:03Z</time></trkpt><trkpt lat="46.11813252655129" lon="13.49327024230802"><ele>149.0</ele><time>2026-03-28T13:07:04Z</time></trkpt><trkpt lat="46.11823965058785" lon="13.493307614142674"><ele>149.0</ele><time>2026-03-28T13:07:05Z</time></trkpt><trkpt lat="46.11833656970513" lon="13.493342712116881"><ele>149.0</ele><time>2026-03-28T13:07:06Z</time></trkpt><trkpt lat="46.11842513529943" lon="13.493374640349135"><ele>149.0</ele><time>2026-03-28T13:07:07Z</time></trkpt><trkpt lat="46.11850727512328" lon="13.493403612361195"><ele>149.2</ele><time>2026-03-28T13:07:08Z</time></trkpt><trkpt lat="46.118584888976635" lon="13.493429746307108"><ele>149.4</ele><time>2026-03-28T13:07:09Z</time></trkpt><trkpt lat="46.11867133427215" lon="13.4934575267521"><ele>149.6</ele><time>2026-03-28T13:07:10Z</time></trkpt><trkpt lat="46.1187797420905" lon="13.493496982437382"><ele>149.8</ele><time>2026-03-28T13:07:11Z</time></trkpt><trkpt lat="46.118911149913636" lon="13.493546342284404"><ele>150.0</ele><time>2026-03-28T13:07:12Z</time></trkpt><trkpt lat="46.119062931250085" lon="13.493607445821302"><ele>150.66666666666666</ele><time>2026-03-28T13:07:13Z</time></trkpt><trkpt lat="46.11924039929377" lon="13.49367838821305"><ele>151.33333333333331</ele><time>2026-03-28T13:07:14Z</time></trkpt><trkpt lat="46.11944178211206" lon="13.493759384218572"><ele>152.0</ele><time>2026-03-28T13:07:15Z</time></trkpt><trkpt lat="46.119682089749816" lon="13.493850288039354"><ele>150.0</ele><time>2026-03-28T13:07:16Z</time></trkpt><trkpt lat="46.11994097781452" lon="13.493948329423645"><ele>148.0</ele><time>2026-03-28T13:07:17Z</time></trkpt><trkpt lat="46.12021124612956" lon="13.494048212822857"><ele>148.0</ele><time>2026-03-28T13:07:18Z</time></trkpt><trkpt lat="46.12048533165952" lon="13.494149645658688"><ele>148.0</ele><time>2026-03-28T13:07:19Z</time></trkpt><trkpt lat="46.120751928769366" lon="13.494260265710164"><ele>149.0</ele><time>2026-03-28T13:07:20Z</time></trkpt><trkpt lat="46.1210076273173" lon="13.49437981766076"><ele>150.0</ele><time>2026-03-28T13:07:21Z</time></trkpt><trkpt lat="46.1212529578973" lon="13.494512990435489"><ele>149.5</ele><time>2026-03-28T13:07:22Z</time></trkpt><trkpt lat="46.12148417366471" lon="13.494669661348883"><ele>149.0</ele><time>2026-03-28T13:07:22.999Z</time></trkpt><trkpt lat="46.12170662340389" lon="13.494828004562924"><ele>152.0</ele><time>2026-03-28T13:07:23.999Z</time></trkpt><trkpt lat="46.12191801887555" lon="13.494985248378553"><ele>155.0</ele><time>2026-03-28T13:07:24.999Z</time></trkpt><trkpt lat="46.12211059973515" lon="13.495125673595387"><ele>155.0</ele><time>2026-03-28T13:07:25.999Z</time></trkpt><trkpt lat="46.12228755227711" lon="13.495254112371024"><ele>155.0</ele><time>2026-03-28T13:07:26.999Z</time></trkpt><trkpt lat="46.12245501114534" lon="13.495377385944629"><ele>155.0</ele><time>2026-03-28T13:07:27.999Z</time></trkpt><trkpt lat="46.12261535926355" lon="13.495495247362996"><ele>153.66666666666666</ele><time>2026-03-28T13:07:28.999Z</time></trkpt><trkpt lat="46.122767928859574" lon="13.495608326677539"><ele>152.33333333333334</ele><time>2026-03-28T13:07:29.999Z</time></trkpt><trkpt lat="46.12292486447343" lon="13.495713061598476"><ele>151.0</ele><time>2026-03-28T13:07:30.999Z</time></trkpt><trkpt lat="46.123094753672426" lon="13.495808065159606"><ele>153.0</ele><time>2026-03-28T13:07:31.999Z</time></trkpt><trkpt lat="46.12329211032423" lon="13.49590993357007"><ele>155.0</ele><time>2026-03-28T13:07:32.999Z</time></trkpt><trkpt lat="46.12351018936068" lon="13.496016996065652"><ele>157.0</ele><time>2026-03-28T13:07:33.999Z</time></trkpt><trkpt lat="46.12373996420092" lon="13.496109200568855"><ele>157.0</ele><time>2026-03-28T13:07:34.999Z</time></trkpt><trkpt lat="46.12396394472435" lon="13.496193578542748"><ele>157.0</ele><time>2026-03-28T13:07:35.999Z</time></trkpt><trkpt lat="46.12417741808223" lon="13.496265329879042"><ele>155.33333333333334</ele><time>2026-03-28T13:07:36.999Z</time></trkpt><trkpt lat="46.1243846571697" lon="13.496317462934071"><ele>153.66666666666666</ele><time>2026-03-28T13:07:37.999Z</time></trkpt><trkpt lat="46.12458955743291" lon="13.496341745306175"><ele>152.0</ele><time>2026-03-28T13:07:38.999Z</time></trkpt><trkpt lat="46.124793213857586" lon="13.496335618374662"><ele>153.0</ele><time>2026-03-28T13:07:39.999Z</time></trkpt><trkpt lat="46.12499587530456" lon="13.496297280440054"><ele>154.0</ele><time>2026-03-28T13:07:40.999Z</time></trkpt><trkpt lat="46.125198567618305" lon="13.496256736997834"><ele>155.0</ele><time>2026-03-28T13:07:41.999Z</time></trkpt><trkpt lat="46.12540304996812" lon="13.49624014912925"><ele>155.0</ele><time>2026-03-28T13:07:42.999Z</time></trkpt><trkpt lat="46.12560731312042" lon="13.496261715164989"><ele>155.0</ele><time>2026-03-28T13:07:43.999Z</time></trkpt><trkpt lat="46.12580378171189" lon="13.496306790631483"><ele>155.0</ele><time>2026-03-28T13:07:44.999Z</time></trkpt><trkpt lat="46.12599617349855" lon="13.49637683076874"><ele>153.66666666666666</ele><time>2026-03-28T13:07:45.999Z</time></trkpt><trkpt lat="46.12618880829397" lon="13.496472737669851"><ele>152.33333333333334</ele><time>2026-03-28T13:07:46.999Z</time></trkpt><trkpt lat="46.12638058247034" lon="13.496592848814323"><ele>151.0</ele><time>2026-03-28T13:07:47.999Z</time></trkpt><trkpt lat="46.12657636272791" lon="13.496719619879727"><ele>153.66666666666669</ele><time>2026-03-28T13:07:48.999Z</time></trkpt><trkpt lat="46.126775239198714" lon="13.496844732143053"><ele>156.33333333333334</ele><time>2026-03-28T13:07:49.999Z</time></trkpt><trkpt lat="46.126968770964154" lon="13.496962378966536"><ele>159.0</ele><time>2026-03-28T13:07:50.999Z</time></trkpt><trkpt lat="46.12716124266399" lon="13.49707230557029"><ele>157.66666666666666</ele><time>2026-03-28T13:07:51.999Z</time></trkpt><trkpt lat="46.12736310576554" lon="13.4971843756995"><ele>156.33333333333331</ele><time>2026-03-28T13:07:52.999Z</time></trkpt><trkpt lat="46.127568694044605" lon="13.49732879387987"><ele>155.0</ele><time>2026-03-28T13:07:53.999Z</time></trkpt><trkpt lat="46.127797314539286" lon="13.497471681732739"><ele>155.0</ele><time>2026-03-28T13:07:54.999Z</time></trkpt><trkpt lat="46.128046354922354" lon="13.497603827842982"><ele>155.0</ele><time>2026-03-28T13:07:55.999Z</time></trkpt><trkpt lat="46.12829462451692" lon="13.497775081465234"><ele>153.5</ele><time>2026-03-28T13:07:56.999Z</time></trkpt><trkpt lat="46.12854378840503" lon="13.497932692288519"><ele>152.0</ele><time>2026-03-28T13:07:57.999Z</time></trkpt><trkpt lat="46.12879095432865" lon="13.498083772099722"><ele>152.0</ele><time>2026-03-28T13:07:58.999Z</time></trkpt><trkpt lat="46.129024502320405" lon="13.498234262214746"><ele>152.0</ele><time>2026-03-28T13:07:59.999Z</time></trkpt><trkpt lat="46.12923120566211" lon="13.498383648382555"><ele>153.33333333333331</ele><time>2026-03-28T13:08:00.999Z</time></trkpt><trkpt lat="46.12941028790349" lon="13.498544238993833"><ele>154.66666666666666</ele><time>2026-03-28T13:08:01.999Z</time></trkpt><trkpt lat="46.129587153157786" lon="13.498642554701979"><ele>156.0</ele><time>2026-03-28T13:08:02.999Z</time></trkpt><trkpt lat="46.12970777033135" lon="13.498923685897342"><ele>156.0</ele><time>2026-03-28T13:08:03.999Z</time></trkpt><trkpt lat="46.12986510597455" lon="13.499124768733116"><ele>156.0</ele><time>2026-03-28T13:08:04.999Z</time></trkpt><trkpt lat="46.13002907144912" lon="13.49932957323061"><ele>156.0</ele><time>2026-03-28T13:08:05.999Z</time></trkpt><trkpt lat="46.13019040602231" lon="13.499545218123457"><ele>156.33333333333334</ele><time>2026-03-28T13:08:06.999Z</time></trkpt><trkpt lat="46.13035200080747" lon="13.499757432529991"><ele>156.66666666666669</ele><time>2026-03-28T13:08:07.999Z</time></trkpt><trkpt lat="46.130515168173105" lon="13.499963072835044"><ele>157.0</ele><time>2026-03-28T13:08:08.999Z</time></trkpt><trkpt lat="46.13067739023759" lon="13.50016880673691"><ele>157.33333333333334</ele><time>2026-03-28T13:08:09.999Z</time></trkpt><trkpt lat="46.13083681592453" lon="13.500374511092605"><ele>157.66666666666666</ele><time>2026-03-28T13:08:10.999Z</time></trkpt><trkpt lat="46.1309996501338" lon="13.500576312546842"><ele>158.0</ele><time>2026-03-28T13:08:11.999Z</time></trkpt><trkpt lat="46.13117432396602" lon="13.5007739038183"><ele>155.5</ele><time>2026-03-28T13:08:12.999Z</time></trkpt><trkpt lat="46.131361096308694" lon="13.500960953098106"><ele>153.0</ele><time>2026-03-28T13:08:13.999Z</time></trkpt><trkpt lat="46.131553665778675" lon="13.501143615964926"><ele>154.5</ele><time>2026-03-28T13:08:14.999Z</time></trkpt><trkpt lat="46.131750865803134" lon="13.501330164170897"><ele>156.0</ele><time>2026-03-28T13:08:15.999Z</time></trkpt><trkpt lat="46.13195058876555" lon="13.501522650875486"><ele>156.0</ele><time>2026-03-28T13:08:16.999Z</time></trkpt><trkpt lat="46.13215280211917" lon="13.501717742107285"><ele>156.0</ele><time>2026-03-28T13:08:17.999Z</time></trkpt><trkpt lat="46.132358146154516" lon="13.501916936389563"><ele>156.0</ele><time>2026-03-28T13:08:18.999Z</time></trkpt><trkpt lat="46.13256520217547" lon="13.502119454459425"><ele>156.0</ele><time>2026-03-28T13:08:19.999Z</time></trkpt><trkpt lat="46.132772642852736" lon="13.502322813893974"><ele>156.0</ele><time>2026-03-28T13:08:20.999Z</time></trkpt><trkpt lat="46.13297832080846" lon="13.502521005117812"><ele>156.0</ele><time>2026-03-28T13:08:21.999Z</time></trkpt><trkpt lat="46.13317728542581" lon="13.502709987134708"><ele>156.0</ele><time>2026-03-28T13:08:22.999Z</time></trkpt><trkpt lat="46.13337558693592" lon="13.502890134651354"><ele>156.0</ele><time>2026-03-28T13:08:23.999Z</time></trkpt><trkpt lat="46.13357293309621" lon="13.503056055595922"><ele>156.0</ele><time>2026-03-28T13:08:24.999Z</time></trkpt><trkpt lat="46.13377448633366" lon="13.503199534226965"><ele>156.0</ele><time>2026-03-28T13:08:25.999Z</time></trkpt><trkpt lat="46.13397975438793" lon="13.503319080733693"><ele>156.0</ele><time>2026-03-28T13:08:26.999Z</time></trkpt><trkpt lat="46.13418476032472" lon="13.503429443865295"><ele>156.0</ele><time>2026-03-28T13:08:27.999Z</time></trkpt><trkpt lat="46.13438652024736" lon="13.503543906964772"><ele>156.0</ele><time>2026-03-28T13:08:28.999Z</time></trkpt><trkpt lat="46.13458635658216" lon="13.50365812925312"><ele>156.0</ele><time>2026-03-28T13:08:29.999Z</time></trkpt><trkpt lat="46.13478702173852" lon="13.50377050402929"><ele>157.33333333333334</ele><time>2026-03-28T13:08:30.999Z</time></trkpt><trkpt lat="46.13498726760105" lon="13.503882681224672"><ele>158.66666666666669</ele><time>2026-03-28T13:08:31.999Z</time></trkpt><trkpt lat="46.13518830173817" lon="13.503993086645902"><ele>160.0</ele><time>2026-03-28T13:08:32.999Z</time></trkpt><trkpt lat="46.13539057112021" lon="13.504103330456623"><ele>160.0</ele><time>2026-03-28T13:08:33.999Z</time></trkpt><trkpt lat="46.1355928808409" lon="13.504214960164104"><ele>160.0</ele><time>2026-03-28T13:08:34.999Z</time></trkpt><trkpt lat="46.1357967345561" lon="13.504326968841596"><ele>160.0</ele><time>2026-03-28T13:08:35.999Z</time></trkpt><trkpt lat="46.13600165577036" lon="13.504440241787526"><ele>160.33333333333334</ele><time>2026-03-28T13:08:36.999Z</time></trkpt><trkpt lat="46.136205256775774" lon="13.504555174161162"><ele>160.66666666666666</ele><time>2026-03-28T13:08:37.999Z</time></trkpt><trkpt lat="46.136407899236744" lon="13.504671415509982"><ele>161.0</ele><time>2026-03-28T13:08:39Z</time></trkpt><trkpt lat="46.13660483403559" lon="13.504788196906784"><ele>163.0</ele><time>2026-03-28T13:08:40Z</time></trkpt><trkpt lat="46.136791991245566" lon="13.504890553345847"><ele>165.0</ele><time>2026-03-28T13:08:41Z</time></trkpt><trkpt lat="46.13696891505022" lon="13.504960613280975"><ele>167.0</ele><time>2026-03-28T13:08:42Z</time></trkpt><trkpt lat="46.137144448222635" lon="13.504994851284993"><ele>167.0</ele><time>2026-03-28T13:08:43Z</time></trkpt><trkpt lat="46.13733064829775" lon="13.504985805627111"><ele>167.0</ele><time>2026-03-28T13:08:44Z</time></trkpt><trkpt lat="46.13752054894003" lon="13.504934269287581"><ele>167.0</ele><time>2026-03-28T13:08:45Z</time></trkpt><trkpt lat="46.137694962894884" lon="13.504879254615846"><ele>169.33333333333331</ele><time>2026-03-28T13:08:46Z</time></trkpt><trkpt lat="46.13785896613829" lon="13.504853335322066"><ele>171.66666666666666</ele><time>2026-03-28T13:08:47Z</time></trkpt><trkpt lat="46.1380256393791" lon="13.504842863683884"><ele>174.0</ele><time>2026-03-28T13:08:48Z</time></trkpt><trkpt lat="46.138191001936654" lon="13.504871250886328"><ele>174.66666666666666</ele><time>2026-03-28T13:08:49Z</time></trkpt><trkpt lat="46.13836090027664" lon="13.504948516185644"><ele>175.33333333333331</ele><time>2026-03-28T13:08:50Z</time></trkpt><trkpt lat="46.13853323224417" lon="13.505062476031236"><ele>176.0</ele><time>2026-03-28T13:08:51Z</time></trkpt><trkpt lat="46.13871380669452" lon="13.505177112381443"><ele>176.0</ele><time>2026-03-28T13:08:52Z</time></trkpt><trkpt lat="46.13890089979279" lon="13.505299882682893"><ele>176.0</ele><time>2026-03-28T13:08:53Z</time></trkpt><trkpt lat="46.139088655691324" lon="13.505422510244786"><ele>176.0</ele><time>2026-03-28T13:08:54Z</time></trkpt><trkpt lat="46.13926830738584" lon="13.505543484480992"><ele>174.66666666666666</ele><time>2026-03-28T13:08:55Z</time></trkpt><trkpt lat="46.13943780087095" lon="13.50566883670229"><ele>173.33333333333334</ele><time>2026-03-28T13:08:56Z</time></trkpt><trkpt lat="46.13959673630532" lon="13.50580808588371"><ele>172.0</ele><time>2026-03-28T13:08:57Z</time></trkpt><trkpt lat="46.13974270510348" lon="13.505970909886361"><ele>172.0</ele><time>2026-03-28T13:08:58Z</time></trkpt><trkpt lat="46.13988064077746" lon="13.506158670919552"><ele>172.0</ele><time>2026-03-28T13:08:59Z</time></trkpt><trkpt lat="46.14001108522737" lon="13.506371949837147"><ele>172.0</ele><time>2026-03-28T13:09:00Z</time></trkpt><trkpt lat="46.14013900773329" lon="13.506601125503323"><ele>171.0</ele><time>2026-03-28T13:09:01Z</time></trkpt><trkpt lat="46.14027417937493" lon="13.506830112441243"><ele>170.0</ele><time>2026-03-28T13:09:02Z</time></trkpt><trkpt lat="46.14041707624941" lon="13.507059547492547"><ele>169.0</ele><time>2026-03-28T13:09:03Z</time></trkpt><trkpt lat="46.14057138243553" lon="13.507286019903576"><ele>169.0</ele><time>2026-03-28T13:09:04Z</time></trkpt><trkpt lat="46.140741107879606" lon="13.507496835817593"><ele>169.0</ele><time>2026-03-28T13:09:05Z</time></trkpt><trkpt lat="46.140926190322745" lon="13.507688317732894"><ele>169.0</ele><time>2026-03-28T13:09:06Z</time></trkpt><trkpt lat="46.14111809675298" lon="13.507851590958056"><ele>169.0</ele><time>2026-03-28T13:09:07Z</time></trkpt><trkpt lat="46.14131540825249" lon="13.507991928270828"><ele>169.0</ele><time>2026-03-28T13:09:08Z</time></trkpt><trkpt lat="46.14151317003867" lon="13.50811532839481"><ele>170.0</ele><time>2026-03-28T13:09:09Z</time></trkpt><trkpt lat="46.14170444860203" lon="13.50824104786408"><ele>171.0</ele><time>2026-03-28T13:09:10Z</time></trkpt><trkpt lat="46.14188576140544" lon="13.508390571393587"><ele>172.0</ele><time>2026-03-28T13:09:11Z</time></trkpt><trkpt lat="46.142047467551244" lon="13.508569111646777"><ele>171.0</ele><time>2026-03-28T13:09:12Z</time></trkpt><trkpt lat="46.142192679654215" lon="13.508770487945894"><ele>170.0</ele><time>2026-03-28T13:09:13Z</time></trkpt><trkpt lat="46.142323302504494" lon="13.508996900699225"><ele>169.0</ele><time>2026-03-28T13:09:14Z</time></trkpt><trkpt lat="46.1424483331078" lon="13.509240171963183"><ele>171.0</ele><time>2026-03-28T13:09:15Z</time></trkpt><trkpt lat="46.142582535099805" lon="13.509483396656341"><ele>173.0</ele><time>2026-03-28T13:09:16Z</time></trkpt><trkpt lat="46.14272285989385" lon="13.509729052953796"><ele>175.0</ele><time>2026-03-28T13:09:17Z</time></trkpt><trkpt lat="46.142866464426845" lon="13.509981752083702"><ele>175.0</ele><time>2026-03-28T13:09:18Z</time></trkpt><trkpt lat="46.143007671523" lon="13.51023352100229"><ele>175.0</ele><time>2026-03-28T13:09:19Z</time></trkpt><trkpt lat="46.143148105581126" lon="13.510476338562016"><ele>175.0</ele><time>2026-03-28T13:09:20Z</time></trkpt><trkpt lat="46.14329968901144" lon="13.510704387609941"><ele>176.0</ele><time>2026-03-28T13:09:21Z</time></trkpt><trkpt lat="46.14346621519431" lon="13.510906492489172"><ele>177.0</ele><time>2026-03-28T13:09:22Z</time></trkpt><trkpt lat="46.14363838554946" lon="13.511097364915628"><ele>178.0</ele><time>2026-03-28T13:09:22.999Z</time></trkpt><trkpt lat="46.143810494926754" lon="13.511289831505676"><ele>178.0</ele><time>2026-03-28T13:09:23.999Z</time></trkpt><trkpt lat="46.143987529828436" lon="13.511479923365425"><ele>178.0</ele><time>2026-03-28T13:09:24.999Z</time></trkpt><trkpt lat="46.144165922270716" lon="13.511663226753038"><ele>178.0</ele><time>2026-03-28T13:09:25.999Z</time></trkpt><trkpt lat="46.14434505189913" lon="13.511846237307815"><ele>178.33333333333334</ele><time>2026-03-28T13:09:26.999Z</time></trkpt><trkpt lat="46.144527927715565" lon="13.51202574691854"><ele>178.66666666666666</ele><time>2026-03-28T13:09:27.999Z</time></trkpt><trkpt lat="46.14471383036531" lon="13.512199918599137"><ele>179.0</ele><time>2026-03-28T13:09:28.999Z</time></trkpt><trkpt lat="46.14490020234914" lon="13.51237605834528"><ele>179.33333333333331</ele><time>2026-03-28T13:09:29.999Z</time></trkpt><trkpt lat="46.14508564405449" lon="13.512554741883179"><ele>179.66666666666666</ele><time>2026-03-28T13:09:30.999Z</time></trkpt><trkpt lat="46.14527104785326" lon="13.512735750457965"><ele>180.0</ele><time>2026-03-28T13:09:31.999Z</time></trkpt><trkpt lat="46.145455589211444" lon="13.512915931593744"><ele>180.0</ele><time>2026-03-28T13:09:32.999Z</time></trkpt><trkpt lat="46.14563877355229" lon="13.513088819060428"><ele>180.0</ele><time>2026-03-28T13:09:33.999Z</time></trkpt><trkpt lat="46.14581767650166" lon="13.513253328865144"><ele>180.0</ele><time>2026-03-28T13:09:34.999Z</time></trkpt><trkpt lat="46.14598997872561" lon="13.513419664126014"><ele>180.33333333333334</ele><time>2026-03-28T13:09:35.999Z</time></trkpt><trkpt lat="46.1461496351269" lon="13.513594540045672"><ele>180.66666666666669</ele><time>2026-03-28T13:09:36.999Z</time></trkpt><trkpt lat="46.14629518365265" lon="13.51377451227226"><ele>181.0</ele><time>2026-03-28T13:09:37.999Z</time></trkpt><trkpt lat="46.14642627327046" lon="13.513945974389314"><ele>186.33333333333334</ele><time>2026-03-28T13:09:38.999Z</time></trkpt><trkpt lat="46.14655133811834" lon="13.514104257878532"><ele>191.66666666666669</ele><time>2026-03-28T13:09:39.999Z</time></trkpt><trkpt lat="46.14666633284295" lon="13.514242422066115"><ele>197.0</ele><time>2026-03-28T13:09:40.999Z</time></trkpt><trkpt lat="46.14677166578909" lon="13.51437257223064"><ele>197.0</ele><time>2026-03-28T13:09:41.999Z</time></trkpt><trkpt lat="46.14687424363964" lon="13.514488611681895"><ele>197.0</ele><time>2026-03-28T13:09:42.999Z</time></trkpt><trkpt lat="46.1469803922865" lon="13.514594993728862"><ele>197.0</ele><time>2026-03-28T13:09:43.999Z</time></trkpt><trkpt lat="46.14709775971706" lon="13.5146813041849"><ele>197.0</ele><time>2026-03-28T13:09:44.999Z</time></trkpt><trkpt lat="46.14722730646401" lon="13.514729938803306"><ele>195.0</ele><time>2026-03-28T13:09:45.999Z</time></trkpt><trkpt lat="46.14737043575155" lon="13.514745108025322"><ele>193.0</ele><time>2026-03-28T13:09:46.999Z</time></trkpt><trkpt lat="46.147527041782915" lon="13.514735602011006"><ele>191.0</ele><time>2026-03-28T13:09:47.999Z</time></trkpt><trkpt lat="46.1476936945628" lon="13.51473190883933"><ele>191.0</ele><time>2026-03-28T13:09:48.999Z</time></trkpt><trkpt lat="46.147864131592996" lon="13.514744507723227"><ele>191.0</ele><time>2026-03-28T13:09:49.999Z</time></trkpt><trkpt lat="46.148035311109375" lon="13.514765787628887"><ele>191.0</ele><time>2026-03-28T13:09:50.999Z</time></trkpt><trkpt lat="46.148206566318734" lon="13.514799053269474"><ele>190.66666666666666</ele><time>2026-03-28T13:09:51.999Z</time></trkpt><trkpt lat="46.148381829565714" lon="13.514811208776347"><ele>190.33333333333334</ele><time>2026-03-28T13:09:52.999Z</time></trkpt><trkpt lat="46.148564495570945" lon="13.514778532340246"><ele>190.0</ele><time>2026-03-28T13:09:53.999Z</time></trkpt><trkpt lat="46.14874643095827" lon="13.514734619036147"><ele>190.0</ele><time>2026-03-28T13:09:54.999Z</time></trkpt><trkpt lat="46.148906816366676" lon="13.514711452718256"><ele>190.0</ele><time>2026-03-28T13:09:55.999Z</time></trkpt><trkpt lat="46.14905522157771" lon="13.514711895857083"><ele>190.0</ele><time>2026-03-28T13:09:56.999Z</time></trkpt><trkpt lat="46.14920053018974" lon="13.514750777301964"><ele>192.0</ele><time>2026-03-28T13:09:57.999Z</time></trkpt><trkpt lat="46.14934024050233" lon="13.51484102952356"><ele>194.0</ele><time>2026-03-28T13:09:58.999Z</time></trkpt><trkpt lat="46.14947418725281" lon="13.514965146994218"><ele>196.0</ele><time>2026-03-28T13:09:59.999Z</time></trkpt><trkpt lat="46.14959647210727" lon="13.515133362881187"><ele>196.0</ele><time>2026-03-28T13:10:00.999Z</time></trkpt><trkpt lat="46.14972147909113" lon="13.515312122264842"><ele>196.0</ele><time>2026-03-28T13:10:01.999Z</time></trkpt><trkpt lat="46.1498644952796" lon="13.515489715018687"><ele>196.0</ele><time>2026-03-28T13:10:02.999Z</time></trkpt><trkpt lat="46.150008852306314" lon="13.515670630925447"><ele>193.0</ele><time>2026-03-28T13:10:03.999Z</time></trkpt><trkpt lat="46.150139005884704" lon="13.515874605032778"><ele>190.0</ele><time>2026-03-28T13:10:04.999Z</time></trkpt><trkpt lat="46.150251994582106" lon="13.5160991136496"><ele>187.0</ele><time>2026-03-28T13:10:05.999Z</time></trkpt><trkpt lat="46.150345904253605" lon="13.516348267377683"><ele>187.0</ele><time>2026-03-28T13:10:06.999Z</time></trkpt><trkpt lat="46.150424275792474" lon="13.516614633868754"><ele>187.0</ele><time>2026-03-28T13:10:07.999Z</time></trkpt><trkpt lat="46.15049666087738" lon="13.516878858998924"><ele>187.0</ele><time>2026-03-28T13:10:08.999Z</time></trkpt><trkpt lat="46.15056651637862" lon="13.517127167821748"><ele>187.0</ele><time>2026-03-28T13:10:09.999Z</time></trkpt><trkpt lat="46.150628742132376" lon="13.517352489212344"><ele>187.0</ele><time>2026-03-28T13:10:10.999Z</time></trkpt><trkpt lat="46.150687671122995" lon="13.517567237789564"><ele>187.0</ele><time>2026-03-28T13:10:11.999Z</time></trkpt><trkpt lat="46.150745711450824" lon="13.517777206222403"><ele>186.66666666666669</ele><time>2026-03-28T13:10:12.999Z</time></trkpt><trkpt lat="46.15081007348714" lon="13.518007776485415"><ele>186.33333333333334</ele><time>2026-03-28T13:10:13.999Z</time></trkpt><trkpt lat="46.15088079795454" lon="13.518260972722018"><ele>186.0</ele><time>2026-03-28T13:10:14.999Z</time></trkpt><trkpt lat="46.15095201514739" lon="13.518532529841583"><ele>187.0</ele><time>2026-03-28T13:10:15.999Z</time></trkpt><trkpt lat="46.15102603974411" lon="13.518823282761742"><ele>188.0</ele><time>2026-03-28T13:10:16.999Z</time></trkpt><trkpt lat="46.151106871740026" lon="13.519118619737272"><ele>189.0</ele><time>2026-03-28T13:10:17.999Z</time></trkpt><trkpt lat="46.15119108828668" lon="13.519414686658704"><ele>191.0</ele><time>2026-03-28T13:10:18.999Z</time></trkpt><trkpt lat="46.15127350356188" lon="13.519712930676846"><ele>193.0</ele><time>2026-03-28T13:10:19.999Z</time></trkpt><trkpt lat="46.15135663345479" lon="13.51999985076752"><ele>195.0</ele><time>2026-03-28T13:10:20.999Z</time></trkpt><trkpt lat="46.15145121530105" lon="13.520273326382792"><ele>193.66666666666666</ele><time>2026-03-28T13:10:21.999Z</time></trkpt><trkpt lat="46.15156264817002" lon="13.5205269788451"><ele>192.33333333333331</ele><time>2026-03-28T13:10:22.999Z</time></trkpt><trkpt lat="46.1516865178686" lon="13.520763355246382"><ele>191.0</ele><time>2026-03-28T13:10:23.999Z</time></trkpt><trkpt lat="46.151820304037685" lon="13.520981016490161"><ele>191.0</ele><time>2026-03-28T13:10:24.999Z</time></trkpt><trkpt lat="46.151968241220715" lon="13.52117891053034"><ele>191.0</ele><time>2026-03-28T13:10:25.999Z</time></trkpt><trkpt lat="46.15213341412528" lon="13.521353550205866"><ele>191.0</ele><time>2026-03-28T13:10:26.999Z</time></trkpt><trkpt lat="46.1523131624755" lon="13.521510674210617"><ele>194.33333333333331</ele><time>2026-03-28T13:10:27.999Z</time></trkpt><trkpt lat="46.15250479437305" lon="13.521654750665213"><ele>197.66666666666666</ele><time>2026-03-28T13:10:28.999Z</time></trkpt><trkpt lat="46.15270889089952" lon="13.521789563802201"><ele>201.0</ele><time>2026-03-28T13:10:29.999Z</time></trkpt><trkpt lat="46.15291639677789" lon="13.521933808409784"><ele>201.0</ele><time>2026-03-28T13:10:30.999Z</time></trkpt><trkpt lat="46.15310623162648" lon="13.522059831310603"><ele>201.0</ele><time>2026-03-28T13:10:31.999Z</time></trkpt><trkpt lat="46.153278428921425" lon="13.522155259340112"><ele>201.0</ele><time>2026-03-28T13:10:32.999Z</time></trkpt><trkpt lat="46.153421893717145" lon="13.522249781737852"><ele>201.33333333333331</ele><time>2026-03-28T13:10:33.999Z</time></trkpt><trkpt lat="46.153548664757224" lon="13.522387300506287"><ele>201.66666666666666</ele><time>2026-03-28T13:10:34.999Z</time></trkpt><trkpt lat="46.1536604052532" lon="13.52257455367674"><ele>202.0</ele><time>2026-03-28T13:10:35.999Z</time></trkpt><trkpt lat="46.153762223142195" lon="13.522792711655796"><ele>200.66666666666666</ele><time>2026-03-28T13:10:36.999Z</time></trkpt><trkpt lat="46.1538555404241" lon="13.523031945564542"><ele>199.33333333333331</ele><time>2026-03-28T13:10:37.999Z</time></trkpt><trkpt lat="46.153925728059434" lon="13.52329002308493"><ele>198.0</ele><time>2026-03-28T13:10:38.999Z</time></trkpt><trkpt lat="46.15397347855074" lon="13.52355892006448"><ele>199.0</ele><time>2026-03-28T13:10:39.999Z</time></trkpt><trkpt lat="46.154011392182674" lon="13.5238221425434"><ele>200.0</ele><time>2026-03-28T13:10:40.999Z</time></trkpt><trkpt lat="46.154078028457526" lon="13.524072681942785"><ele>201.0</ele><time>2026-03-28T13:10:41.999Z</time></trkpt><trkpt lat="46.1541733794197" lon="13.524323059645194"><ele>200.33333333333331</ele><time>2026-03-28T13:10:42.999Z</time></trkpt><trkpt lat="46.15428688989205" lon="13.524568029479127"><ele>199.66666666666666</ele><time>2026-03-28T13:10:43.999Z</time></trkpt><trkpt lat="46.15441267909138" lon="13.524801998290442"><ele>199.0</ele><time>2026-03-28T13:10:45Z</time></trkpt><trkpt lat="46.15454718868685" lon="13.525028053288505"><ele>199.0</ele><time>2026-03-28T13:10:46Z</time></trkpt><trkpt lat="46.154685368918294" lon="13.5252591713949"><ele>199.0</ele><time>2026-03-28T13:10:47Z</time></trkpt><trkpt lat="46.15481869528177" lon="13.525495381674133"><ele>199.0</ele><time>2026-03-28T13:10:48Z</time></trkpt><trkpt lat="46.154950623196925" lon="13.525730153479719"><ele>199.33333333333331</ele><time>2026-03-28T13:10:49Z</time></trkpt><trkpt lat="46.15508374813535" lon="13.52595971445078"><ele>199.66666666666669</ele><time>2026-03-28T13:10:50Z</time></trkpt><trkpt lat="46.15521384250481" lon="13.526185881493117"><ele>200.0</ele><time>2026-03-28T13:10:51Z</time></trkpt><trkpt lat="46.15534186019398" lon="13.526405645100565"><ele>200.0</ele><time>2026-03-28T13:10:52Z</time></trkpt><trkpt lat="46.15546448672649" lon="13.526622498142265"><ele>200.0</ele><time>2026-03-28T13:10:53Z</time></trkpt><trkpt lat="46.155579768476805" lon="13.526838608451815"><ele>200.0</ele><time>2026-03-28T13:10:54Z</time></trkpt><trkpt lat="46.155682622589474" lon="13.527061215676264"><ele>200.33333333333334</ele><time>2026-03-28T13:10:55Z</time></trkpt><trkpt lat="46.155772148322725" lon="13.527303005867749"><ele>200.66666666666669</ele><time>2026-03-28T13:10:56Z</time></trkpt><trkpt lat="46.155855609728" lon="13.527558877141027"><ele>201.0</ele><time>2026-03-28T13:10:57Z</time></trkpt><trkpt lat="46.155935089307285" lon="13.527825356315887"><ele>200.66666666666669</ele><time>2026-03-28T13:10:58Z</time></trkpt><trkpt lat="46.15601410287481" lon="13.528097045142108"><ele>200.33333333333334</ele><time>2026-03-28T13:10:59Z</time></trkpt><trkpt lat="46.15609188042409" lon="13.52835321209241"><ele>200.0</ele><time>2026-03-28T13:11:00Z</time></trkpt><trkpt lat="46.156163299618974" lon="13.528583886605485"><ele>201.0</ele><time>2026-03-28T13:11:01Z</time></trkpt><trkpt lat="46.15623503837291" lon="13.528800281804234"><ele>202.0</ele><time>2026-03-28T13:11:02Z</time></trkpt><trkpt lat="46.15632865529637" lon="13.529017292514034"><ele>203.0</ele><time>2026-03-28T13:11:03Z</time></trkpt><trkpt lat="46.15645021102252" lon="13.52922740648973"><ele>203.33333333333334</ele><time>2026-03-28T13:11:04Z</time></trkpt><trkpt lat="46.156588429049165" lon="13.52942561678108"><ele>203.66666666666669</ele><time>2026-03-28T13:11:05Z</time></trkpt><trkpt lat="46.15673237182205" lon="13.529623984411236"><ele>204.0</ele><time>2026-03-28T13:11:06Z</time></trkpt><trkpt lat="46.15687481525172" lon="13.5298211541645"><ele>206.0</ele><time>2026-03-28T13:11:07Z</time></trkpt><trkpt lat="46.15701178783775" lon="13.530012283575182"><ele>208.0</ele><time>2026-03-28T13:11:08Z</time></trkpt><trkpt lat="46.1571408334592" lon="13.53021088703798"><ele>210.0</ele><time>2026-03-28T13:11:09Z</time></trkpt><trkpt lat="46.15725752515402" lon="13.530423039038618"><ele>209.33333333333331</ele><time>2026-03-28T13:11:10Z</time></trkpt><trkpt lat="46.157367562548096" lon="13.530643297481905"><ele>208.66666666666666</ele><time>2026-03-28T13:11:11Z</time></trkpt><trkpt lat="46.15746872688114" lon="13.530863427349404"><ele>208.0</ele><time>2026-03-28T13:11:12Z</time></trkpt><trkpt lat="46.15756344134425" lon="13.531067672797235"><ele>208.75</ele><time>2026-03-28T13:11:13Z</time></trkpt><trkpt lat="46.15764760975905" lon="13.531248842984052"><ele>209.5</ele><time>2026-03-28T13:11:14Z</time></trkpt><trkpt lat="46.157728514966145" lon="13.53142587899399"><ele>210.25</ele><time>2026-03-28T13:11:15Z</time></trkpt><trkpt lat="46.157804406401176" lon="13.531594900682915"><ele>211.0</ele><time>2026-03-28T13:11:16Z</time></trkpt><trkpt lat="46.15787829301482" lon="13.531762053406343"><ele>211.0</ele><time>2026-03-28T13:11:17Z</time></trkpt><trkpt lat="46.15795617836012" lon="13.53192377848299"><ele>211.0</ele><time>2026-03-28T13:11:18Z</time></trkpt><trkpt lat="46.15803446053985" lon="13.532086153862048"><ele>211.0</ele><time>2026-03-28T13:11:19Z</time></trkpt><trkpt lat="46.15810701511024" lon="13.532254885994957"><ele>211.0</ele><time>2026-03-28T13:11:20Z</time></trkpt><trkpt lat="46.15817971985478" lon="13.53242142021244"><ele>211.0</ele><time>2026-03-28T13:11:21Z</time></trkpt><trkpt lat="46.15825516133121" lon="13.53258349677122"><ele>211.0</ele><time>2026-03-28T13:11:22Z</time></trkpt><trkpt lat="46.15833086039729" lon="13.532743228776098"><ele>211.0</ele><time>2026-03-28T13:11:23Z</time></trkpt><trkpt lat="46.158410489377836" lon="13.53289247966401"><ele>211.0</ele><time>2026-03-28T13:11:24Z</time></trkpt><trkpt lat="46.158496441647614" lon="13.533034005069016"><ele>211.5</ele><time>2026-03-28T13:11:25Z</time></trkpt><trkpt lat="46.15858180823573" lon="13.533171174819211"><ele>212.0</ele><time>2026-03-28T13:11:26Z</time></trkpt><trkpt lat="46.15865633093931" lon="13.533297362126172"><ele>212.5</ele><time>2026-03-28T13:11:27Z</time></trkpt><trkpt lat="46.1587370336036" lon="13.533411272843864"><ele>213.0</ele><time>2026-03-28T13:11:27.999Z</time></trkpt><trkpt lat="46.15883503651864" lon="13.533499188978842"><ele>213.0</ele><time>2026-03-28T13:11:28.999Z</time></trkpt><trkpt lat="46.15890401422478" lon="13.53361710412809"><ele>213.0</ele><time>2026-03-28T13:11:29.999Z</time></trkpt><trkpt lat="46.158975832103486" lon="13.533714217027839"><ele>213.0</ele><time>2026-03-28T13:11:30.999Z</time></trkpt><trkpt lat="46.15921795845545" lon="13.533538632748822"><ele>213.60000000000002</ele><time>2026-03-28T13:11:31.999Z</time></trkpt><trkpt lat="46.159351332520934" lon="13.533520475567204"><ele>214.20000000000002</ele><time>2026-03-28T13:11:32.999Z</time></trkpt><trkpt lat="46.15946107916096" lon="13.533515251734675"><ele>214.8</ele><time>2026-03-28T13:11:33.999Z</time></trkpt><trkpt lat="46.159548274260835" lon="13.533535102065605"><ele>215.4</ele><time>2026-03-28T13:11:34.999Z</time></trkpt><trkpt lat="46.159614432313454" lon="13.53359406310926"><ele>216.0</ele><time>2026-03-28T13:11:35.999Z</time></trkpt><trkpt lat="46.15966212781283" lon="13.533671420028565"><ele>216.33333333333334</ele><time>2026-03-28T13:11:36.999Z</time></trkpt><trkpt lat="46.15970382086663" lon="13.533761947130158"><ele>216.66666666666669</ele><time>2026-03-28T13:11:37.999Z</time></trkpt><trkpt lat="46.15974662007275" lon="13.533834381288445"><ele>217.0</ele><time>2026-03-28T13:11:38.999Z</time></trkpt><trkpt lat="46.159796838673124" lon="13.533963725950665"><ele>217.33333333333334</ele><time>2026-03-28T13:11:40.999Z</time></trkpt><trkpt lat="46.15978762291907" lon="13.534073189182418"><ele>217.66666666666669</ele><time>2026-03-28T13:11:41.999Z</time></trkpt><trkpt lat="46.15977242143852" lon="13.534209381541215"><ele>218.0</ele><time>2026-03-28T13:11:42.999Z</time></trkpt><trkpt lat="46.15975924781912" lon="13.53437409930349"><ele>218.0</ele><time>2026-03-28T13:11:43.999Z</time></trkpt><trkpt lat="46.15974899956111" lon="13.53453986145404"><ele>218.0</ele><time>2026-03-28T13:11:44.999Z</time></trkpt><trkpt lat="46.159752798634784" lon="13.53469566160326"><ele>218.0</ele><time>2026-03-28T13:11:45.999Z</time></trkpt><trkpt lat="46.1597995136673" lon="13.534854837198006"><ele>218.0</ele><time>2026-03-28T13:11:46.999Z</time></trkpt><trkpt lat="46.159880706705074" lon="13.535016075135141"><ele>219.33333333333334</ele><time>2026-03-28T13:11:47.999Z</time></trkpt><trkpt lat="46.15997273627803" lon="13.53519795664988"><ele>220.66666666666669</ele><time>2026-03-28T13:11:48.999Z</time></trkpt><trkpt lat="46.16006739923496" lon="13.53540067860673"><ele>222.0</ele><time>2026-03-28T13:11:49.999Z</time></trkpt><trkpt lat="46.160158415999916" lon="13.535606156370154"><ele>222.66666666666669</ele><time>2026-03-28T13:11:50.999Z</time></trkpt><trkpt lat="46.160235590224396" lon="13.535819914731661"><ele>223.33333333333334</ele><time>2026-03-28T13:11:51.999Z</time></trkpt><trkpt lat="46.16028923126549" lon="13.536056610821685"><ele>224.0</ele><time>2026-03-28T13:11:52.999Z</time></trkpt><trkpt lat="46.160332576957465" lon="13.536296145304156"><ele>226.33333333333334</ele><time>2026-03-28T13:11:53.999Z</time></trkpt><trkpt lat="46.16035928754998" lon="13.536532096542551"><ele>228.66666666666669</ele><time>2026-03-28T13:11:54.999Z</time></trkpt><trkpt lat="46.16035493235521" lon="13.536769344841323"><ele>231.0</ele><time>2026-03-28T13:11:55.999Z</time></trkpt><trkpt lat="46.16033651123032" lon="13.536999744148817"><ele>233.25</ele><time>2026-03-28T13:11:56.999Z</time></trkpt><trkpt lat="46.160323247689014" lon="13.53721424844977"><ele>235.5</ele><time>2026-03-28T13:11:57.999Z</time></trkpt><trkpt lat="46.16033045406201" lon="13.537409804796061"><ele>237.75</ele><time>2026-03-28T13:11:58.999Z</time></trkpt><trkpt lat="46.16037210589864" lon="13.537601769043993"><ele>240.0</ele><time>2026-03-28T13:11:59.999Z</time></trkpt><trkpt lat="46.16044690598906" lon="13.537798593692704"><ele>241.66666666666669</ele><time>2026-03-28T13:12:00.999Z</time></trkpt><trkpt lat="46.1605294958729" lon="13.538011387619138"><ele>243.33333333333334</ele><time>2026-03-28T13:12:01.999Z</time></trkpt><trkpt lat="46.16061643671815" lon="13.53825067277881"><ele>245.0</ele><time>2026-03-28T13:12:02.999Z</time></trkpt><trkpt lat="46.1607111761519" lon="13.538506120458205"><ele>245.33333333333334</ele><time>2026-03-28T13:12:03.999Z</time></trkpt><trkpt lat="46.160804668326065" lon="13.538774869330668"><ele>245.66666666666669</ele><time>2026-03-28T13:12:04.999Z</time></trkpt><trkpt lat="46.16089133825664" lon="13.539052298664103"><ele>246.0</ele><time>2026-03-28T13:12:05.999Z</time></trkpt><trkpt lat="46.16096395761973" lon="13.539321657684578"><ele>246.33333333333331</ele><time>2026-03-28T13:12:06.999Z</time></trkpt><trkpt lat="46.161030925108555" lon="13.539568506329886"><ele>246.66666666666666</ele><time>2026-03-28T13:12:07.999Z</time></trkpt><trkpt lat="46.16109339236061" lon="13.539784493539253"><ele>247.0</ele><time>2026-03-28T13:12:08.999Z</time></trkpt><trkpt lat="46.16114824520537" lon="13.539987457711822"><ele>247.0</ele><time>2026-03-28T13:12:09.999Z</time></trkpt><trkpt lat="46.16118026412075" lon="13.540206317299374"><ele>247.0</ele><time>2026-03-28T13:12:10.999Z</time></trkpt><trkpt lat="46.16118141600773" lon="13.540446631834735"><ele>247.0</ele><time>2026-03-28T13:12:11.999Z</time></trkpt><trkpt lat="46.1611656628983" lon="13.540703249578987"><ele>248.33333333333331</ele><time>2026-03-28T13:12:12.999Z</time></trkpt><trkpt lat="46.16114687123039" lon="13.540970842157938"><ele>249.66666666666669</ele><time>2026-03-28T13:12:13.999Z</time></trkpt><trkpt lat="46.16113326932004" lon="13.54124154683786"><ele>251.0</ele><time>2026-03-28T13:12:14.999Z</time></trkpt><trkpt lat="46.161122121709695" lon="13.5415017322886"><ele>251.66666666666669</ele><time>2026-03-28T13:12:15.999Z</time></trkpt><trkpt lat="46.1611151266286" lon="13.541751502676286"><ele>252.33333333333331</ele><time>2026-03-28T13:12:16.999Z</time></trkpt><trkpt lat="46.16112529025418" lon="13.541991425223076"><ele>253.0</ele><time>2026-03-28T13:12:17.999Z</time></trkpt><trkpt lat="46.161155295404704" lon="13.542219752573585"><ele>255.0</ele><time>2026-03-28T13:12:18.999Z</time></trkpt><trkpt lat="46.16120845903847" lon="13.542438573980835"><ele>257.0</ele><time>2026-03-28T13:12:19.999Z</time></trkpt><trkpt lat="46.161290701851655" lon="13.542646812539394"><ele>259.0</ele><time>2026-03-28T13:12:20.999Z</time></trkpt><trkpt lat="46.16139416058073" lon="13.542842077804536"><ele>257.3333333333333</ele><time>2026-03-28T13:12:21.999Z</time></trkpt><trkpt lat="46.16150509800995" lon="13.543037804771226"><ele>255.66666666666669</ele><time>2026-03-28T13:12:22.999Z</time></trkpt><trkpt lat="46.161620392731" lon="13.543246649246806"><ele>254.0</ele><time>2026-03-28T13:12:23.999Z</time></trkpt><trkpt lat="46.1617406058997" lon="13.543461929313915"><ele>254.0</ele><time>2026-03-28T13:12:24.999Z</time></trkpt><trkpt lat="46.16186435433622" lon="13.54368220260994"><ele>254.0</ele><time>2026-03-28T13:12:25.999Z</time></trkpt><trkpt lat="46.16198630902577" lon="13.54390614461467"><ele>254.0</ele><time>2026-03-28T13:12:26.999Z</time></trkpt><trkpt lat="46.162095376465906" lon="13.544141892281575"><ele>254.33333333333334</ele><time>2026-03-28T13:12:27.999Z</time></trkpt><trkpt lat="46.16220069162449" lon="13.544391707400228"><ele>254.66666666666669</ele><time>2026-03-28T13:12:28.999Z</time></trkpt><trkpt lat="46.16229966000172" lon="13.544649105721119"><ele>255.0</ele><time>2026-03-28T13:12:29.999Z</time></trkpt><trkpt lat="46.16238539719753" lon="13.544913701573051"><ele>255.33333333333331</ele><time>2026-03-28T13:12:30.999Z</time></trkpt><trkpt lat="46.16245505267171" lon="13.545179632202593"><ele>255.66666666666666</ele><time>2026-03-28T13:12:31.999Z</time></trkpt><trkpt lat="46.16251652375199" lon="13.545428998664018"><ele>256.0</ele><time>2026-03-28T13:12:32.999Z</time></trkpt><trkpt lat="46.162581696855526" lon="13.54564881146783"><ele>256.0</ele><time>2026-03-28T13:12:33.999Z</time></trkpt><trkpt lat="46.1626705761365" lon="13.545852751347974"><ele>256.0</ele><time>2026-03-28T13:12:34.999Z</time></trkpt><trkpt lat="46.162792812841026" lon="13.546032230144677"><ele>256.0</ele><time>2026-03-28T13:12:35.999Z</time></trkpt><trkpt lat="46.16292898115412" lon="13.546204798316637"><ele>259.66666666666663</ele><time>2026-03-28T13:12:36.999Z</time></trkpt><trkpt lat="46.16304173572156" lon="13.54641405171971"><ele>263.3333333333333</ele><time>2026-03-28T13:12:37.999Z</time></trkpt><trkpt lat="46.16313228535171" lon="13.546663934856886"><ele>267.0</ele><time>2026-03-28T13:12:38.999Z</time></trkpt><trkpt lat="46.16321673063627" lon="13.546944585440741"><ele>269.0</ele><time>2026-03-28T13:12:39.999Z</time></trkpt><trkpt lat="46.16331562618472" lon="13.547229752982563"><ele>271.0</ele><time>2026-03-28T13:12:40.999Z</time></trkpt><trkpt lat="46.16344031748775" lon="13.547494682086077"><ele>273.0</ele><time>2026-03-28T13:12:41.999Z</time></trkpt><trkpt lat="46.163574562868234" lon="13.54776041323732"><ele>274.5</ele><time>2026-03-28T13:12:42.999Z</time></trkpt><trkpt lat="46.16368861361556" lon="13.548043203675805"><ele>276.0</ele><time>2026-03-28T13:12:43.999Z</time></trkpt><trkpt lat="46.16379334366131" lon="13.548338281778156"><ele>276.0</ele><time>2026-03-28T13:12:44.999Z</time></trkpt><trkpt lat="46.16390014800421" lon="13.54863222411132"><ele>276.0</ele><time>2026-03-28T13:12:45.999Z</time></trkpt><trkpt lat="46.16399427736868" lon="13.548928673688309"><ele>278.0</ele><time>2026-03-28T13:12:46.999Z</time></trkpt><trkpt lat="46.16405645192211" lon="13.54923228576756"><ele>280.0</ele><time>2026-03-28T13:12:47.999Z</time></trkpt><trkpt lat="46.164101233352945" lon="13.54953487284614"><ele>282.0</ele><time>2026-03-28T13:12:48.999Z</time></trkpt><trkpt lat="46.16416355067023" lon="13.549817366831247"><ele>282.0</ele><time>2026-03-28T13:12:49.999Z</time></trkpt><trkpt lat="46.16424175535736" lon="13.550088703091001"><ele>282.0</ele><time>2026-03-28T13:12:51Z</time></trkpt><trkpt lat="46.16432262451192" lon="13.55033916696499"><ele>282.0</ele><time>2026-03-28T13:12:52Z</time></trkpt><trkpt lat="46.16441421921367" lon="13.55057599018353"><ele>280.6666666666667</ele><time>2026-03-28T13:12:53Z</time></trkpt><trkpt lat="46.16453224638206" lon="13.550798431911025"><ele>279.33333333333337</ele><time>2026-03-28T13:12:54Z</time></trkpt><trkpt lat="46.16467617030997" lon="13.551022340313057"><ele>278.0</ele><time>2026-03-28T13:12:55Z</time></trkpt><trkpt lat="46.1648171933453" lon="13.55126907066569"><ele>283.0</ele><time>2026-03-28T13:12:56Z</time></trkpt><trkpt lat="46.16492397349644" lon="13.551505416495548"><ele>288.0</ele><time>2026-03-28T13:12:57Z</time></trkpt><trkpt lat="46.16500445042916" lon="13.551718649244624"><ele>293.0</ele><time>2026-03-28T13:12:58Z</time></trkpt><trkpt lat="46.16507030491347" lon="13.551896143054869"><ele>293.0</ele><time>2026-03-28T13:12:59Z</time></trkpt><trkpt lat="46.165143112338896" lon="13.552026028336696"><ele>293.0</ele><time>2026-03-28T13:13:00Z</time></trkpt><trkpt lat="46.16523781164779" lon="13.552120891120506"><ele>293.0</ele><time>2026-03-28T13:13:01Z</time></trkpt><trkpt lat="46.16536954959777" lon="13.552179196676624"><ele>293.0</ele><time>2026-03-28T13:13:02Z</time></trkpt><trkpt lat="46.16552896141959" lon="13.552214377258654"><ele>294.6666666666667</ele><time>2026-03-28T13:13:03Z</time></trkpt><trkpt lat="46.16569373018446" lon="13.552283937412696"><ele>296.3333333333333</ele><time>2026-03-28T13:13:04Z</time></trkpt><trkpt lat="46.16584532283385" lon="13.55239102458989"><ele>298.0</ele><time>2026-03-28T13:13:05Z</time></trkpt><trkpt lat="46.165969427041034" lon="13.552496255072045"><ele>298.0</ele><time>2026-03-28T13:13:06Z</time></trkpt><trkpt lat="46.16607512923571" lon="13.552627910093134"><ele>298.0</ele><time>2026-03-28T13:13:07Z</time></trkpt><trkpt lat="46.16615965955664" lon="13.552807838496939"><ele>298.0</ele><time>2026-03-28T13:13:08Z</time></trkpt><trkpt lat="46.166226398461156" lon="13.553007517405145"><ele>298.0</ele><time>2026-03-28T13:13:09Z</time></trkpt><trkpt lat="46.16630015167066" lon="13.553194646567551"><ele>297.3333333333333</ele><time>2026-03-28T13:13:10Z</time></trkpt><trkpt lat="46.166393096123656" lon="13.553375025373022"><ele>296.6666666666667</ele><time>2026-03-28T13:13:11Z</time></trkpt><trkpt lat="46.166507792896525" lon="13.553550255373919"><ele>296.0</ele><time>2026-03-28T13:13:12Z</time></trkpt><trkpt lat="46.1666368234388" lon="13.553731555516155"><ele>296.0</ele><time>2026-03-28T13:13:13Z</time></trkpt><trkpt lat="46.166760721239655" lon="13.553930272471941"><ele>296.0</ele><time>2026-03-28T13:13:14Z</time></trkpt><trkpt lat="46.166882704707874" lon="13.554146304558474"><ele>296.0</ele><time>2026-03-28T13:13:15Z</time></trkpt><trkpt lat="46.16701034286171" lon="13.554361043159576"><ele>295.33333333333337</ele><time>2026-03-28T13:13:16Z</time></trkpt><trkpt lat="46.167130392281436" lon="13.554579302185257"><ele>294.6666666666667</ele><time>2026-03-28T13:13:17Z</time></trkpt><trkpt lat="46.1672363741155" lon="13.554797088515294"><ele>294.0</ele><time>2026-03-28T13:13:18Z</time></trkpt><trkpt lat="46.167345727417725" lon="13.555013316050559"><ele>296.0</ele><time>2026-03-28T13:13:19Z</time></trkpt><trkpt lat="46.167480145001825" lon="13.555210297879894"><ele>298.0</ele><time>2026-03-28T13:13:20Z</time></trkpt><trkpt lat="46.1676384110999" lon="13.55538743575484"><ele>300.0</ele><time>2026-03-28T13:13:21Z</time></trkpt><trkpt lat="46.16779389215261" lon="13.555585441333621"><ele>300.0</ele><time>2026-03-28T13:13:22Z</time></trkpt><trkpt lat="46.167927681559966" lon="13.555815304285364"><ele>300.0</ele><time>2026-03-28T13:13:23Z</time></trkpt><trkpt lat="46.16803484804985" lon="13.556048098748965"><ele>300.0</ele><time>2026-03-28T13:13:24Z</time></trkpt><trkpt lat="46.16811402621372" lon="13.556261809607117"><ele>303.6666666666667</ele><time>2026-03-28T13:13:25Z</time></trkpt><trkpt lat="46.16820408314909" lon="13.55646575981833"><ele>307.33333333333337</ele><time>2026-03-28T13:13:26Z</time></trkpt><trkpt lat="46.1683368363434" lon="13.556642617691452"><ele>311.0</ele><time>2026-03-28T13:13:27Z</time></trkpt><trkpt lat="46.168498720930785" lon="13.556813434909563"><ele>311.0</ele><time>2026-03-28T13:13:28Z</time></trkpt><trkpt lat="46.1686712511517" lon="13.556991686042423"><ele>311.0</ele><time>2026-03-28T13:13:29Z</time></trkpt><trkpt lat="46.168849304330564" lon="13.55718919377117"><ele>311.0</ele><time>2026-03-28T13:13:30Z</time></trkpt><trkpt lat="46.16903816464913" lon="13.557400748839543"><ele>319.0</ele><time>2026-03-28T13:13:31Z</time></trkpt><trkpt lat="46.16922913955243" lon="13.557594798054245"><ele>327.0</ele><time>2026-03-28T13:13:32Z</time></trkpt><trkpt lat="46.16942021894619" lon="13.557761714454841"><ele>329.5</ele><time>2026-03-28T13:13:33Z</time></trkpt><trkpt lat="46.169632062810855" lon="13.557889844455993"><ele>332.0</ele><time>2026-03-28T13:13:34Z</time></trkpt><trkpt lat="46.16986251521784" lon="13.55799931081041"><ele>332.0</ele><time>2026-03-28T13:13:35Z</time></trkpt><trkpt lat="46.17005836950014" lon="13.558095083370924"><ele>332.0</ele><time>2026-03-28T13:13:35.999Z</time></trkpt><trkpt lat="46.1702120469765" lon="13.558180542912021"><ele>332.0</ele><time>2026-03-28T13:13:36.999Z</time></trkpt><trkpt lat="46.1703329660845" lon="13.558256115392812"><ele>332.0</ele><time>2026-03-28T13:13:37.999Z</time></trkpt><trkpt lat="46.17042869297605" lon="13.558331077377476"><ele>332.0</ele><time>2026-03-28T13:13:38.999Z</time></trkpt><trkpt lat="46.17049294245727" lon="13.558432831354237"><ele>332.0</ele><time>2026-03-28T13:13:39.999Z</time></trkpt><trkpt lat="46.17054776983075" lon="13.558536444220087"><ele>332.0</ele><time>2026-03-28T13:13:40.999Z</time></trkpt><trkpt lat="46.170607580154616" lon="13.558577331312339"><ele>332.0</ele><time>2026-03-28T13:13:41.999Z</time></trkpt><trkpt lat="46.17067573308499" lon="13.558555442046115"><ele>332.0</ele><time>2026-03-28T13:13:42.999Z</time></trkpt><trkpt lat="46.17071501214756" lon="13.558456341083993"><ele>332.0</ele><time>2026-03-28T13:13:43.999Z</time></trkpt><trkpt lat="46.170689292024655" lon="13.558330367017415"><ele>332.0</ele><time>2026-03-28T13:13:44.999Z</time></trkpt><trkpt lat="46.170598967035716" lon="13.558226516664988"><ele>332.0</ele><time>2026-03-28T13:13:45.999Z</time></trkpt><trkpt lat="46.17047887945127" lon="13.558112015107687"><ele>332.0</ele><time>2026-03-28T13:13:46.999Z</time></trkpt><trkpt lat="46.17034787151524" lon="13.557955193975278"><ele>342.6666666666667</ele><time>2026-03-28T13:13:47.999Z</time></trkpt><trkpt lat="46.17017495959626" lon="13.557738550949919"><ele>353.3333333333333</ele><time>2026-03-28T13:13:48.999Z</time></trkpt><trkpt lat="46.17004391434482" lon="13.557602170031215"><ele>364.0</ele><time>2026-03-28T13:13:49.999Z</time></trkpt><trkpt lat="46.16994112741568" lon="13.55749267811289"><ele>364.0</ele><time>2026-03-28T13:13:50.999Z</time></trkpt><trkpt lat="46.169860905336904" lon="13.55742668235203"><ele>364.0</ele><time>2026-03-28T13:13:51.999Z</time></trkpt><trkpt lat="46.169802089109915" lon="13.557390866490458"><ele>364.0</ele><time>2026-03-28T13:13:52.999Z</time></trkpt><trkpt lat="46.16976895662145" lon="13.557255901291098"><ele>364.0</ele><time>2026-03-28T13:13:54.999Z</time></trkpt><trkpt lat="46.1699052149315" lon="13.557236564478668"><ele>364.0</ele><time>2026-03-28T13:13:56.999Z</time></trkpt><trkpt lat="46.1700147485852" lon="13.557346024493757"><ele>364.0</ele><time>2026-03-28T13:13:57.999Z</time></trkpt><trkpt lat="46.17014863667174" lon="13.557466807410886"><ele>364.0</ele><time>2026-03-28T13:13:58.999Z</time></trkpt><trkpt lat="46.170334076387036" lon="13.55758481814103"><ele>364.0</ele><time>2026-03-28T13:13:59.999Z</time></trkpt><trkpt lat="46.170558263882704" lon="13.557698170231161"><ele>366.3333333333333</ele><time>2026-03-28T13:14:00.999Z</time></trkpt><trkpt lat="46.17073985867176" lon="13.557796677004784"><ele>368.6666666666667</ele><time>2026-03-28T13:14:01.999Z</time></trkpt><trkpt lat="46.17087131170994" lon="13.557901463347582"><ele>371.0</ele><time>2026-03-28T13:14:02.999Z</time></trkpt><trkpt lat="46.17096675138819" lon="13.558001692623016"><ele>371.0</ele><time>2026-03-28T13:14:03.999Z</time></trkpt><trkpt lat="46.1710532597111" lon="13.558069312570204"><ele>371.0</ele><time>2026-03-28T13:14:04.999Z</time></trkpt><trkpt lat="46.171153090649874" lon="13.558113852231775"><ele>371.0</ele><time>2026-03-28T13:14:05.999Z</time></trkpt><trkpt lat="46.1712429612686" lon="13.558177278204711"><ele>371.0</ele><time>2026-03-28T13:14:06.999Z</time></trkpt><trkpt lat="46.17130835858832" lon="13.55829086045971"><ele>371.0</ele><time>2026-03-28T13:14:07.999Z</time></trkpt><trkpt lat="46.17134047883711" lon="13.558460057556857"><ele>371.0</ele><time>2026-03-28T13:14:08.999Z</time></trkpt><trkpt lat="46.17136779831841" lon="13.558654960548191"><ele>371.0</ele><time>2026-03-28T13:14:09.999Z</time></trkpt><trkpt lat="46.171366195908845" lon="13.55886826246037"><ele>371.0</ele><time>2026-03-28T13:14:10.999Z</time></trkpt><trkpt lat="46.17135801406848" lon="13.559067585519157"><ele>371.0</ele><time>2026-03-28T13:14:11.999Z</time></trkpt><trkpt lat="46.17140091880547" lon="13.559222316690539"><ele>374.25</ele><time>2026-03-28T13:14:12.999Z</time></trkpt><trkpt lat="46.17148525387087" lon="13.559330061648122"><ele>377.5</ele><time>2026-03-28T13:14:13.999Z</time></trkpt><trkpt lat="46.17160677088111" lon="13.5594122633827"><ele>380.75</ele><time>2026-03-28T13:14:14.999Z</time></trkpt><trkpt lat="46.171749368604445" lon="13.559485839312895"><ele>384.0</ele><time>2026-03-28T13:14:15.999Z</time></trkpt><trkpt lat="46.171862964039946" lon="13.559565006899513"><ele>384.0</ele><time>2026-03-28T13:14:16.999Z</time></trkpt><trkpt lat="46.171923693515595" lon="13.559655955034716"><ele>384.0</ele><time>2026-03-28T13:14:17.999Z</time></trkpt><trkpt lat="46.171977295108064" lon="13.559754433806914"><ele>384.0</ele><time>2026-03-28T13:14:18.999Z</time></trkpt><trkpt lat="46.17201750486998" lon="13.559849079714718"><ele>384.0</ele><time>2026-03-28T13:14:19.999Z</time></trkpt><trkpt lat="46.17213440063396" lon="13.559835697259146"><ele>384.0</ele><time>2026-03-28T13:14:21.999Z</time></trkpt><trkpt lat="46.17216660498944" lon="13.559721939437754"><ele>384.0</ele><time>2026-03-28T13:14:22.999Z</time></trkpt><trkpt lat="46.172132002748796" lon="13.55960761951636"><ele>384.0</ele><time>2026-03-28T13:14:23.999Z</time></trkpt><trkpt lat="46.17204171158148" lon="13.559512134555481"><ele>384.0</ele><time>2026-03-28T13:14:24.999Z</time></trkpt><trkpt lat="46.17194069634455" lon="13.559399969088854"><ele>384.0</ele><time>2026-03-28T13:14:25.999Z</time></trkpt><trkpt lat="46.171842857558204" lon="13.559250505536266"><ele>394.5</ele><time>2026-03-28T13:14:26.999Z</time></trkpt><trkpt lat="46.17178006078585" lon="13.559086442796039"><ele>405.0</ele><time>2026-03-28T13:14:27.999Z</time></trkpt><trkpt lat="46.17173746995853" lon="13.55889906168115"><ele>415.5</ele><time>2026-03-28T13:14:28.999Z</time></trkpt><trkpt lat="46.1716974858821" lon="13.558665137329148"><ele>426.0</ele><time>2026-03-28T13:14:29.999Z</time></trkpt><trkpt lat="46.17165397125697" lon="13.558409955686471"><ele>426.0</ele><time>2026-03-28T13:14:30.999Z</time></trkpt><trkpt lat="46.17161333487051" lon="13.558169840709237"><ele>426.0</ele><time>2026-03-28T13:14:31.999Z</time></trkpt><trkpt lat="46.171591357379576" lon="13.557983486527325"><ele>426.0</ele><time>2026-03-28T13:14:32.999Z</time></trkpt><trkpt lat="46.17158528303136" lon="13.557830446533846"><ele>426.0</ele><time>2026-03-28T13:14:33.999Z</time></trkpt><trkpt lat="46.17158051724418" lon="13.557700686800567"><ele>429.4</ele><time>2026-03-28T13:14:34.999Z</time></trkpt><trkpt lat="46.17153502355217" lon="13.557600372856351"><ele>432.8</ele><time>2026-03-28T13:14:35.999Z</time></trkpt><trkpt lat="46.1714489681822" lon="13.557537434974194"><ele>436.19999999999993</ele><time>2026-03-28T13:14:36.999Z</time></trkpt><trkpt lat="46.171364146134685" lon="13.557516952176792"><ele>439.59999999999997</ele><time>2026-03-28T13:14:37.999Z</time></trkpt><trkpt lat="46.1713089232242" lon="13.557424822728054"><ele>443.0</ele><time>2026-03-28T13:14:39.999Z</time></trkpt><trkpt lat="46.17139803939462" lon="13.557333570809867"><ele>442.99999999999994</ele><time>2026-03-28T13:14:41.999Z</time></trkpt><trkpt lat="46.17149420190239" lon="13.557380096646186"><ele>443.0</ele><time>2026-03-28T13:14:42.999Z</time></trkpt><trkpt lat="46.17160111348952" lon="13.557428379936026"><ele>443.0</ele><time>2026-03-28T13:14:43.999Z</time></trkpt><trkpt lat="46.17164033000656" lon="13.557506823762637"><ele>443.0</ele><time>2026-03-28T13:14:44.999Z</time></trkpt><trkpt lat="46.17166447140862" lon="13.55759246994297"><ele>442.99999999999994</ele><time>2026-03-28T13:14:45.999Z</time></trkpt><trkpt lat="46.17167020860228" lon="13.557698468489578"><ele>443.0</ele><time>2026-03-28T13:14:46.999Z</time></trkpt><trkpt lat="46.17166669893964" lon="13.557807374452954"><ele>438.75</ele><time>2026-03-28T13:14:47.999Z</time></trkpt><trkpt lat="46.17167378882141" lon="13.557911299215489"><ele>434.5</ele><time>2026-03-28T13:14:48.999Z</time></trkpt><trkpt lat="46.17172791856253" lon="13.558078276971468"><ele>430.25</ele><time>2026-03-28T13:14:49.999Z</time></trkpt><trkpt lat="46.17182308523297" lon="13.558222237267824"><ele>426.0</ele><time>2026-03-28T13:14:50.999Z</time></trkpt><trkpt lat="46.17192137068015" lon="13.55841317199983"><ele>426.0</ele><time>2026-03-28T13:14:51.999Z</time></trkpt><trkpt lat="46.17202505923433" lon="13.558605241425804"><ele>426.0</ele><time>2026-03-28T13:14:52.999Z</time></trkpt><trkpt lat="46.17213603703572" lon="13.558807015810148"><ele>426.0</ele><time>2026-03-28T13:14:53.999Z</time></trkpt><trkpt lat="46.172265940022456" lon="13.559016873936017"><ele>427.75</ele><time>2026-03-28T13:14:54.999Z</time></trkpt><trkpt lat="46.17239687563097" lon="13.559181578837686"><ele>429.5</ele><time>2026-03-28T13:14:56Z</time></trkpt><trkpt lat="46.172501812796654" lon="13.559312400633768"><ele>431.25</ele><time>2026-03-28T13:14:57Z</time></trkpt><trkpt lat="46.172572048370476" lon="13.559439673831845"><ele>433.0</ele><time>2026-03-28T13:14:58Z</time></trkpt><trkpt lat="46.1726082639213" lon="13.559559302874181"><ele>433.0</ele><time>2026-03-28T13:14:59Z</time></trkpt><trkpt lat="46.17259254531558" lon="13.55969410846448"><ele>433.0</ele><time>2026-03-28T13:15:00Z</time></trkpt><trkpt lat="46.17254314071053" lon="13.559863693539103"><ele>433.0</ele><time>2026-03-28T13:15:01Z</time></trkpt><trkpt lat="46.172497452828395" lon="13.560110467821604"><ele>433.0</ele><time>2026-03-28T13:15:02Z</time></trkpt><trkpt lat="46.17249491175051" lon="13.56040189376151"><ele>435.0</ele><time>2026-03-28T13:15:03Z</time></trkpt><trkpt lat="46.17250410485595" lon="13.560615693165596"><ele>437.0</ele><time>2026-03-28T13:15:04Z</time></trkpt><trkpt lat="46.17254386559878" lon="13.560777989073385"><ele>439.0</ele><time>2026-03-28T13:15:05Z</time></trkpt><trkpt lat="46.172601009998594" lon="13.560923389788837"><ele>441.0</ele><time>2026-03-28T13:15:06Z</time></trkpt><trkpt lat="46.17268267737058" lon="13.561058987895125"><ele>441.0</ele><time>2026-03-28T13:15:07Z</time></trkpt><trkpt lat="46.172769273894524" lon="13.561165031218762"><ele>441.0</ele><time>2026-03-28T13:15:08Z</time></trkpt><trkpt lat="46.17283725355536" lon="13.56122047899519"><ele>441.0</ele><time>2026-03-28T13:15:09Z</time></trkpt><trkpt lat="46.1729020997539" lon="13.561210685352085"><ele>441.0</ele><time>2026-03-28T13:15:10Z</time></trkpt><trkpt lat="46.172954015479284" lon="13.561132873342602"><ele>441.0</ele><time>2026-03-28T13:15:11Z</time></trkpt><trkpt lat="46.172945970730666" lon="13.561007167705826"><ele>441.0</ele><time>2026-03-28T13:15:12Z</time></trkpt><trkpt lat="46.172896452045684" lon="13.56089383756286"><ele>441.0</ele><time>2026-03-28T13:15:13Z</time></trkpt><trkpt lat="46.172795176710906" lon="13.56080807912866"><ele>441.0</ele><time>2026-03-28T13:15:14Z</time></trkpt><trkpt lat="46.17270060953166" lon="13.560703853380291"><ele>441.0</ele><time>2026-03-28T13:15:15Z</time></trkpt><trkpt lat="46.17267277027677" lon="13.560543042513618"><ele>441.0</ele><time>2026-03-28T13:15:16Z</time></trkpt><trkpt lat="46.17268135731695" lon="13.560329483912705"><ele>438.33333333333337</ele><time>2026-03-28T13:15:17Z</time></trkpt><trkpt lat="46.172714465916904" lon="13.560126461473534"><ele>435.6666666666667</ele><time>2026-03-28T13:15:18Z</time></trkpt><trkpt lat="46.17278706889571" lon="13.5599296543067"><ele>433.0</ele><time>2026-03-28T13:15:19Z</time></trkpt><trkpt lat="46.17286914487168" lon="13.55971897471469"><ele>438.25</ele><time>2026-03-28T13:15:20Z</time></trkpt><trkpt lat="46.17291455424487" lon="13.559527731834272"><ele>443.5</ele><time>2026-03-28T13:15:21Z</time></trkpt><trkpt lat="46.17291925116604" lon="13.55933805199159"><ele>448.75</ele><time>2026-03-28T13:15:22Z</time></trkpt><trkpt lat="46.172885630631804" lon="13.559145916518654"><ele>454.0</ele><time>2026-03-28T13:15:23Z</time></trkpt><trkpt lat="46.17281482988902" lon="13.558942059141259"><ele>454.0</ele><time>2026-03-28T13:15:24Z</time></trkpt><trkpt lat="46.1727286314736" lon="13.558731290266426"><ele>454.0</ele><time>2026-03-28T13:15:25Z</time></trkpt><trkpt lat="46.1726437008682" lon="13.558537800998355"><ele>454.0</ele><time>2026-03-28T13:15:26Z</time></trkpt><trkpt lat="46.17258035565563" lon="13.558366894107673"><ele>455.0</ele><time>2026-03-28T13:15:27Z</time></trkpt><trkpt lat="46.172555619882495" lon="13.55815838676884"><ele>456.0</ele><time>2026-03-28T13:15:28Z</time></trkpt><trkpt lat="46.17255492449579" lon="13.557913811375712"><ele>457.0</ele><time>2026-03-28T13:15:29Z</time></trkpt><trkpt lat="46.17254666878094" lon="13.557653540027943"><ele>460.25</ele><time>2026-03-28T13:15:30Z</time></trkpt><trkpt lat="46.17249132790366" lon="13.557420564440415"><ele>463.5</ele><time>2026-03-28T13:15:31Z</time></trkpt><trkpt lat="46.17243781419545" lon="13.557242118822021"><ele>466.75</ele><time>2026-03-28T13:15:32Z</time></trkpt><trkpt lat="46.17241241894119" lon="13.557095320830744"><ele>470.0</ele><time>2026-03-28T13:15:33Z</time></trkpt><trkpt lat="46.1724098665645" lon="13.556988860060589"><ele>470.0</ele><time>2026-03-28T13:15:34Z</time></trkpt><trkpt lat="46.17249173949392" lon="13.556917436199525"><ele>470.0</ele><time>2026-03-28T13:15:36Z</time></trkpt><trkpt lat="46.1725399729308" lon="13.556979150163517"><ele>470.0</ele><time>2026-03-28T13:15:36.999Z</time></trkpt><trkpt lat="46.17257077652452" lon="13.55714841717388"><ele>470.0</ele><time>2026-03-28T13:15:37.999Z</time></trkpt><trkpt lat="46.17257415380637" lon="13.557352288090105"><ele>470.0</ele><time>2026-03-28T13:15:38.999Z</time></trkpt><trkpt lat="46.17263824930325" lon="13.557561420075608"><ele>470.0</ele><time>2026-03-28T13:15:39.999Z</time></trkpt><trkpt lat="46.17271166737742" lon="13.557786400248387"><ele>470.0</ele><time>2026-03-28T13:15:40.999Z</time></trkpt><trkpt lat="46.172747489424474" lon="13.558002577995403"><ele>470.0</ele><time>2026-03-28T13:15:41.999Z</time></trkpt><trkpt lat="46.17281827782592" lon="13.558218067699164"><ele>465.66666666666663</ele><time>2026-03-28T13:15:42.999Z</time></trkpt><trkpt lat="46.172917984194186" lon="13.558424157377742"><ele>461.33333333333337</ele><time>2026-03-28T13:15:43.999Z</time></trkpt><trkpt lat="46.17301096695321" lon="13.558622180868044"><ele>457.0</ele><time>2026-03-28T13:15:44.999Z</time></trkpt><trkpt lat="46.173081357891604" lon="13.55878244812822"><ele>456.25</ele><time>2026-03-28T13:15:45.999Z</time></trkpt><trkpt lat="46.17315992887734" lon="13.558908948673016"><ele>455.5</ele><time>2026-03-28T13:15:46.999Z</time></trkpt><trkpt lat="46.173259536088445" lon="13.559009104918593"><ele>454.75</ele><time>2026-03-28T13:15:47.999Z</time></trkpt><trkpt lat="46.17339379612335" lon="13.559075080847665"><ele>454.0</ele><time>2026-03-28T13:15:48.999Z</time></trkpt><trkpt lat="46.17352885260673" lon="13.559138737237415"><ele>461.5</ele><time>2026-03-28T13:15:49.999Z</time></trkpt><trkpt lat="46.17362349558881" lon="13.559241764016264"><ele>469.0</ele><time>2026-03-28T13:15:50.999Z</time></trkpt><trkpt lat="46.17369149526458" lon="13.559394931154403"><ele>476.5</ele><time>2026-03-28T13:15:51.999Z</time></trkpt><trkpt lat="46.17372800529964" lon="13.559590939948752"><ele>484.0</ele><time>2026-03-28T13:15:52.999Z</time></trkpt><trkpt lat="46.1737469092848" lon="13.559827995537757"><ele>484.0</ele><time>2026-03-28T13:15:53.999Z</time></trkpt><trkpt lat="46.173775045488604" lon="13.560122234382142"><ele>484.0</ele><time>2026-03-28T13:15:54.999Z</time></trkpt><trkpt lat="46.17381934138985" lon="13.560441043409822"><ele>484.0</ele><time>2026-03-28T13:15:55.999Z</time></trkpt><trkpt lat="46.173854747742666" lon="13.560698523658871"><ele>482.0</ele><time>2026-03-28T13:15:56.999Z</time></trkpt><trkpt lat="46.173893341939866" lon="13.560923488712906"><ele>480.0</ele><time>2026-03-28T13:15:57.999Z</time></trkpt><trkpt lat="46.1739448291486" lon="13.561108152360877"><ele>478.0</ele><time>2026-03-28T13:15:58.999Z</time></trkpt><trkpt lat="46.174011115931286" lon="13.561258870490656"><ele>476.0</ele><time>2026-03-28T13:15:59.999Z</time></trkpt><trkpt lat="46.17409828705333" lon="13.561378101812641"><ele>483.25</ele><time>2026-03-28T13:16:00.999Z</time></trkpt><trkpt lat="46.17419313030979" lon="13.561489807023655"><ele>490.5</ele><time>2026-03-28T13:16:01.999Z</time></trkpt><trkpt lat="46.174275734011424" lon="13.561619514493104"><ele>497.75</ele><time>2026-03-28T13:16:02.999Z</time></trkpt><trkpt lat="46.17432542811044" lon="13.56177912236407"><ele>505.0</ele><time>2026-03-28T13:16:03.999Z</time></trkpt><trkpt lat="46.174356579655594" lon="13.561971918024234"><ele>502.5</ele><time>2026-03-28T13:16:04.999Z</time></trkpt><trkpt lat="46.174416628821696" lon="13.56215436824796"><ele>500.0</ele><time>2026-03-28T13:16:05.999Z</time></trkpt><trkpt lat="46.17451966252306" lon="13.562298145511983"><ele>497.5</ele><time>2026-03-28T13:16:06.999Z</time></trkpt><trkpt lat="46.17463892576871" lon="13.562408408213251"><ele>495.0</ele><time>2026-03-28T13:16:07.999Z</time></trkpt><trkpt lat="46.17477929610192" lon="13.562503360003255"><ele>499.66666666666663</ele><time>2026-03-28T13:16:08.999Z</time></trkpt><trkpt lat="46.17492289131045" lon="13.562624399243981"><ele>504.3333333333333</ele><time>2026-03-28T13:16:09.999Z</time></trkpt><trkpt lat="46.17506644344005" lon="13.562769742213714"><ele>509.0</ele><time>2026-03-28T13:16:10.999Z</time></trkpt><trkpt lat="46.1752099456095" lon="13.56292950542771"><ele>509.0</ele><time>2026-03-28T13:16:11.999Z</time></trkpt><trkpt lat="46.17535308055486" lon="13.56310413574586"><ele>509.0</ele><time>2026-03-28T13:16:12.999Z</time></trkpt><trkpt lat="46.17548598545732" lon="13.56325898564165"><ele>509.0</ele><time>2026-03-28T13:16:13.999Z</time></trkpt><trkpt lat="46.17559813392561" lon="13.56337772193242"><ele>514.25</ele><time>2026-03-28T13:16:14.999Z</time></trkpt><trkpt lat="46.175694452972564" lon="13.563503968523067"><ele>519.5</ele><time>2026-03-28T13:16:15.999Z</time></trkpt><trkpt lat="46.175774537595316" lon="13.563665689474844"><ele>524.75</ele><time>2026-03-28T13:16:16.999Z</time></trkpt><trkpt lat="46.17582778558915" lon="13.563865324274333"><ele>530.0</ele><time>2026-03-28T13:16:17.999Z</time></trkpt><trkpt lat="46.17585994787034" lon="13.564090383653495"><ele>530.0</ele><time>2026-03-28T13:16:18.999Z</time></trkpt><trkpt lat="46.175831132571346" lon="13.564355862429375"><ele>530.0</ele><time>2026-03-28T13:16:19.999Z</time></trkpt><trkpt lat="46.17582714055449" lon="13.564644504942672"><ele>530.0</ele><time>2026-03-28T13:16:20.999Z</time></trkpt><trkpt lat="46.17582534223377" lon="13.564949065461525"><ele>530.0</ele><time>2026-03-28T13:16:21.999Z</time></trkpt><trkpt lat="46.175844404062765" lon="13.565261011624141"><ele>530.0</ele><time>2026-03-28T13:16:22.999Z</time></trkpt><trkpt lat="46.17585125105104" lon="13.5655757827184"><ele>530.0</ele><time>2026-03-28T13:16:23.999Z</time></trkpt><trkpt lat="46.17587840560642" lon="13.565856620791886"><ele>530.0</ele><time>2026-03-28T13:16:24.999Z</time></trkpt><trkpt lat="46.175873304960085" lon="13.56611115198731"><ele>530.0</ele><time>2026-03-28T13:16:25.999Z</time></trkpt><trkpt lat="46.17585266152867" lon="13.566348305452195"><ele>530.0</ele><time>2026-03-28T13:16:26.999Z</time></trkpt><trkpt lat="46.17583652370648" lon="13.56658682938825"><ele>530.75</ele><time>2026-03-28T13:16:27.999Z</time></trkpt><trkpt lat="46.17582662146499" lon="13.566798969549794"><ele>531.5</ele><time>2026-03-28T13:16:28.999Z</time></trkpt><trkpt lat="46.17583404905628" lon="13.566983939196383"><ele>532.25</ele><time>2026-03-28T13:16:29.999Z</time></trkpt><trkpt lat="46.17587620570958" lon="13.567146752537255"><ele>533.0</ele><time>2026-03-28T13:16:30.999Z</time></trkpt><trkpt lat="46.175960881499314" lon="13.567307377894624"><ele>530.75</ele><time>2026-03-28T13:16:31.999Z</time></trkpt><trkpt lat="46.17605517104984" lon="13.56745992022766"><ele>528.5</ele><time>2026-03-28T13:16:32.999Z</time></trkpt><trkpt lat="46.17615184253738" lon="13.567594393947388"><ele>526.25</ele><time>2026-03-28T13:16:33.999Z</time></trkpt><trkpt lat="46.17626909283089" lon="13.567705303473545"><ele>524.0</ele><time>2026-03-28T13:16:34.999Z</time></trkpt><trkpt lat="46.17640638707678" lon="13.567803804860995"><ele>525.0</ele><time>2026-03-28T13:16:35.999Z</time></trkpt><trkpt lat="46.17655692984379" lon="13.567905688059584"><ele>526.0</ele><time>2026-03-28T13:16:36.999Z</time></trkpt><trkpt lat="46.176693867028526" lon="13.567996918144548"><ele>527.0</ele><time>2026-03-28T13:16:37.999Z</time></trkpt><trkpt lat="46.17680657434092" lon="13.56805785767781"><ele>528.0</ele><time>2026-03-28T13:16:38.999Z</time></trkpt><trkpt lat="46.17693093936804" lon="13.568072931446018"><ele>528.0</ele><time>2026-03-28T13:16:39.999Z</time></trkpt><trkpt lat="46.177026088749194" lon="13.568131153362218"><ele>528.0</ele><time>2026-03-28T13:16:40.999Z</time></trkpt><trkpt lat="46.17710302410541" lon="13.568181762592113"><ele>528.0</ele><time>2026-03-28T13:16:41.999Z</time></trkpt><trkpt lat="46.177197461868516" lon="13.568239133313908"><ele>528.0</ele><time>2026-03-28T13:16:43.999Z</time></trkpt><trkpt lat="46.17709422504551" lon="13.568097183598098"><ele>528.0</ele><time>2026-03-28T13:16:49.999Z</time></trkpt><trkpt lat="46.177003372858444" lon="13.568020264379447"><ele>528.0</ele><time>2026-03-28T13:16:50.999Z</time></trkpt><trkpt lat="46.17690795614384" lon="13.567898894348149"><ele>528.0</ele><time>2026-03-28T13:16:51.999Z</time></trkpt><trkpt lat="46.17679929078818" lon="13.567776081326599"><ele>528.0</ele><time>2026-03-28T13:16:52.999Z</time></trkpt><trkpt lat="46.17668081705855" lon="13.567645456341364"><ele>528.0</ele><time>2026-03-28T13:16:53.999Z</time></trkpt><trkpt lat="46.176556159866884" lon="13.567507754809654"><ele>527.0</ele><time>2026-03-28T13:16:54.999Z</time></trkpt><trkpt lat="46.1764384879486" lon="13.567375012482431"><ele>526.0</ele><time>2026-03-28T13:16:55.999Z</time></trkpt><trkpt lat="46.17633976153229" lon="13.567249780894626"><ele>525.0</ele><time>2026-03-28T13:16:56.999Z</time></trkpt><trkpt lat="46.176266576363425" lon="13.567114895516244"><ele>524.0</ele><time>2026-03-28T13:16:57.999Z</time></trkpt><trkpt lat="46.1762113989052" lon="13.566991879890322"><ele>525.8</ele><time>2026-03-28T13:16:58.999Z</time></trkpt><trkpt lat="46.17616847008757" lon="13.566869067496098"><ele>527.5999999999999</ele><time>2026-03-28T13:16:59.999Z</time></trkpt><trkpt lat="46.176151563877895" lon="13.566740688903904"><ele>529.4</ele><time>2026-03-28T13:17:00.999Z</time></trkpt><trkpt lat="46.17617903411168" lon="13.566584707052664"><ele>531.1999999999999</ele><time>2026-03-28T13:17:02Z</time></trkpt><trkpt lat="46.176234330928324" lon="13.566415389661776"><ele>533.0</ele><time>2026-03-28T13:17:03Z</time></trkpt><trkpt lat="46.17628361763439" lon="13.566221642060302"><ele>532.0</ele><time>2026-03-28T13:17:04Z</time></trkpt><trkpt lat="46.1763029245582" lon="13.565993365258343"><ele>531.0</ele><time>2026-03-28T13:17:05Z</time></trkpt><trkpt lat="46.1763243253167" lon="13.565749462821701"><ele>530.0</ele><time>2026-03-28T13:17:06Z</time></trkpt><trkpt lat="46.17637223295431" lon="13.565521438840552"><ele>530.25</ele><time>2026-03-28T13:17:07Z</time></trkpt><trkpt lat="46.17641504609501" lon="13.565318883856918"><ele>530.5</ele><time>2026-03-28T13:17:08Z</time></trkpt><trkpt lat="46.17646287112027" lon="13.565144324736107"><ele>530.75</ele><time>2026-03-28T13:17:09Z</time></trkpt><trkpt lat="46.17649824574818" lon="13.564969506794919"><ele>531.0</ele><time>2026-03-28T13:17:10Z</time></trkpt><trkpt lat="46.17649974844779" lon="13.564776721913839"><ele>531.0</ele><time>2026-03-28T13:17:11Z</time></trkpt><trkpt lat="46.176497758332715" lon="13.564594634178638"><ele>531.0</ele><time>2026-03-28T13:17:12Z</time></trkpt><trkpt lat="46.17649246163857" lon="13.564429305916823"><ele>531.0</ele><time>2026-03-28T13:17:13Z</time></trkpt><trkpt lat="46.17652181156765" lon="13.56427559998467"><ele>531.0</ele><time>2026-03-28T13:17:14Z</time></trkpt><trkpt lat="46.176561171511175" lon="13.564125426375828"><ele>539.8</ele><time>2026-03-28T13:17:15Z</time></trkpt><trkpt lat="46.176599590230595" lon="13.56398737421455"><ele>548.6</ele><time>2026-03-28T13:17:16Z</time></trkpt><trkpt lat="46.17662897093811" lon="13.563843325714842"><ele>557.4</ele><time>2026-03-28T13:17:17Z</time></trkpt><trkpt lat="46.17664821047371" lon="13.563693827515579"><ele>566.2</ele><time>2026-03-28T13:17:18Z</time></trkpt><trkpt lat="46.17665428934014" lon="13.563539411686376"><ele>575.0</ele><time>2026-03-28T13:17:19Z</time></trkpt><trkpt lat="46.17666039585172" lon="13.563404224423453"><ele>575.4</ele><time>2026-03-28T13:17:20Z</time></trkpt><trkpt lat="46.176663639964964" lon="13.56327091026032"><ele>575.8</ele><time>2026-03-28T13:17:21Z</time></trkpt><trkpt lat="46.17665735493458" lon="13.563139464255942"><ele>576.2</ele><time>2026-03-28T13:17:22Z</time></trkpt><trkpt lat="46.176655567168694" lon="13.562999182122299"><ele>576.6</ele><time>2026-03-28T13:17:23Z</time></trkpt><trkpt lat="46.176616274809064" lon="13.562860146874783"><ele>577.0</ele><time>2026-03-28T13:17:24Z</time></trkpt><trkpt lat="46.176549321619554" lon="13.562738172941547"><ele>573.4</ele><time>2026-03-28T13:17:25Z</time></trkpt><trkpt lat="46.17648003284551" lon="13.562634260622351"><ele>569.8000000000001</ele><time>2026-03-28T13:17:26Z</time></trkpt><trkpt lat="46.17641130544149" lon="13.56254491483307"><ele>566.2</ele><time>2026-03-28T13:17:27Z</time></trkpt><trkpt lat="46.17634613305003" lon="13.562459152009206"><ele>562.6</ele><time>2026-03-28T13:17:28Z</time></trkpt><trkpt lat="46.17628127550228" lon="13.562364970154723"><ele>559.0</ele><time>2026-03-28T13:17:29Z</time></trkpt><trkpt lat="46.1762236492588" lon="13.562246275133045"><ele>559.0</ele><time>2026-03-28T13:17:30Z</time></trkpt><trkpt lat="46.17616242528769" lon="13.562123037740873"><ele>559.0</ele><time>2026-03-28T13:17:31Z</time></trkpt><trkpt lat="46.17610632108002" lon="13.561987830513644"><ele>559.0</ele><time>2026-03-28T13:17:32Z</time></trkpt><trkpt lat="46.17605941059889" lon="13.561851146891062"><ele>559.0</ele><time>2026-03-28T13:17:33Z</time></trkpt><trkpt lat="46.17603829642337" lon="13.561705073243301"><ele>559.0</ele><time>2026-03-28T13:17:34Z</time></trkpt><trkpt lat="46.17604418611962" lon="13.561554028912665"><ele>562.8</ele><time>2026-03-28T13:17:35Z</time></trkpt><trkpt lat="46.17605393174709" lon="13.561400960648887"><ele>566.5999999999999</ele><time>2026-03-28T13:17:36Z</time></trkpt><trkpt lat="46.17606193149494" lon="13.561238140302569"><ele>570.4</ele><time>2026-03-28T13:17:37Z</time></trkpt><trkpt lat="46.17607330080233" lon="13.561075863952539"><ele>574.1999999999999</ele><time>2026-03-28T13:17:38Z</time></trkpt><trkpt lat="46.17608877111382" lon="13.560914890670134"><ele>578.0</ele><time>2026-03-28T13:17:39Z</time></trkpt><trkpt lat="46.17609447144725" lon="13.560755816562626"><ele>582.0</ele><time>2026-03-28T13:17:40Z</time></trkpt><trkpt lat="46.17609229543207" lon="13.56058690657027"><ele>586.0</ele><time>2026-03-28T13:17:40.999Z</time></trkpt><trkpt lat="46.17609228349374" lon="13.560367129871592"><ele>590.0</ele><time>2026-03-28T13:17:41.999Z</time></trkpt><trkpt lat="46.17603536676377" lon="13.560108011822377"><ele>594.6666666666666</ele><time>2026-03-28T13:17:42.999Z</time></trkpt><trkpt lat="46.17596705150814" lon="13.559825024335085"><ele>599.3333333333334</ele><time>2026-03-28T13:17:43.999Z</time></trkpt><trkpt lat="46.17589720546871" lon="13.559535695756953"><ele>604.0</ele><time>2026-03-28T13:17:44.999Z</time></trkpt><trkpt lat="46.17581539464674" lon="13.559245578319373"><ele>609.3333333333334</ele><time>2026-03-28T13:17:45.999Z</time></trkpt><trkpt lat="46.17577466223113" lon="13.558949467912981"><ele>614.6666666666666</ele><time>2026-03-28T13:17:46.999Z</time></trkpt><trkpt lat="46.175751270796596" lon="13.55867096133021"><ele>620.0</ele><time>2026-03-28T13:17:47.999Z</time></trkpt><trkpt lat="46.175741720047746" lon="13.55842958462567"><ele>622.3333333333333</ele><time>2026-03-28T13:17:48.999Z</time></trkpt><trkpt lat="46.175751846888026" lon="13.558190089631026"><ele>624.6666666666666</ele><time>2026-03-28T13:17:49.999Z</time></trkpt><trkpt lat="46.175792473853" lon="13.557958460126743"><ele>627.0</ele><time>2026-03-28T13:17:50.999Z</time></trkpt><trkpt lat="46.17584384273514" lon="13.557740711508753"><ele>627.5</ele><time>2026-03-28T13:17:51.999Z</time></trkpt><trkpt lat="46.17586959270365" lon="13.557532344415387"><ele>628.0</ele><time>2026-03-28T13:17:52.999Z</time></trkpt><trkpt lat="46.17586997178216" lon="13.557351504112791"><ele>628.5</ele><time>2026-03-28T13:17:53.999Z</time></trkpt><trkpt lat="46.175864469859434" lon="13.557182572994277"><ele>629.0</ele><time>2026-03-28T13:17:54.999Z</time></trkpt><trkpt lat="46.17587425005102" lon="13.557031722369205"><ele>629.0</ele><time>2026-03-28T13:17:55.999Z</time></trkpt><trkpt lat="46.17590944441174" lon="13.556875819271742"><ele>629.0</ele><time>2026-03-28T13:17:56.999Z</time></trkpt><trkpt lat="46.17596736521225" lon="13.55673583413241"><ele>629.0</ele><time>2026-03-28T13:17:57.999Z</time></trkpt><trkpt lat="46.17604608247371" lon="13.556619824897698"><ele>629.0</ele><time>2026-03-28T13:17:58.999Z</time></trkpt><trkpt lat="46.17614366700594" lon="13.556562720375402"><ele>629.0</ele><time>2026-03-28T13:17:59.999Z</time></trkpt><trkpt lat="46.176262949575595" lon="13.556538962310958"><ele>629.0</ele><time>2026-03-28T13:18:00.999Z</time></trkpt><trkpt lat="46.176404988023556" lon="13.556566112608541"><ele>629.0</ele><time>2026-03-28T13:18:01.999Z</time></trkpt><trkpt lat="46.176566844907065" lon="13.556608180393003"><ele>629.0</ele><time>2026-03-28T13:18:02.999Z</time></trkpt><trkpt lat="46.17674487346033" lon="13.55664482184384"><ele>632.0</ele><time>2026-03-28T13:18:03.999Z</time></trkpt><trkpt lat="46.17690940614395" lon="13.556677995874013"><ele>635.0</ele><time>2026-03-28T13:18:04.999Z</time></trkpt><trkpt lat="46.17704179878971" lon="13.556714395508696"><ele>638.0</ele><time>2026-03-28T13:18:05.999Z</time></trkpt><trkpt lat="46.17716858637763" lon="13.556778870895263"><ele>641.0</ele><time>2026-03-28T13:18:06.999Z</time></trkpt><trkpt lat="46.17729274701988" lon="13.556882853158774"><ele>637.6666666666666</ele><time>2026-03-28T13:18:07.999Z</time></trkpt><trkpt lat="46.177415007535785" lon="13.557010511732068"><ele>634.3333333333334</ele><time>2026-03-28T13:18:08.999Z</time></trkpt><trkpt lat="46.177542547604624" lon="13.55715913288963"><ele>631.0</ele><time>2026-03-28T13:18:09.999Z</time></trkpt><trkpt lat="46.17768968973377" lon="13.557301346803364"><ele>635.3333333333334</ele><time>2026-03-28T13:18:10.999Z</time></trkpt><trkpt lat="46.17784856896695" lon="13.557441298383923"><ele>639.6666666666666</ele><time>2026-03-28T13:18:11.999Z</time></trkpt><trkpt lat="46.178021272918095" lon="13.557569381135906"><ele>644.0</ele><time>2026-03-28T13:18:12.999Z</time></trkpt><trkpt lat="46.17820218017011" lon="13.55768266643263"><ele>644.0</ele><time>2026-03-28T13:18:13.999Z</time></trkpt><trkpt lat="46.17839402964697" lon="13.55778154456221"><ele>644.0</ele><time>2026-03-28T13:18:14.999Z</time></trkpt><trkpt lat="46.17860188693752" lon="13.557874861828244"><ele>644.0</ele><time>2026-03-28T13:18:15.999Z</time></trkpt><trkpt lat="46.17881555014727" lon="13.557968966003713"><ele>652.6666666666666</ele><time>2026-03-28T13:18:16.999Z</time></trkpt><trkpt lat="46.17903194783493" lon="13.55806036782625"><ele>661.3333333333334</ele><time>2026-03-28T13:18:17.999Z</time></trkpt><trkpt lat="46.17924160174347" lon="13.558139028062445"><ele>670.0</ele><time>2026-03-28T13:18:18.999Z</time></trkpt><trkpt lat="46.179448255259736" lon="13.558190023409397"><ele>670.0</ele><time>2026-03-28T13:18:19.999Z</time></trkpt><trkpt lat="46.17964351453417" lon="13.558237237308889"><ele>670.0</ele><time>2026-03-28T13:18:20.999Z</time></trkpt><trkpt lat="46.17981515703978" lon="13.558316162836272"><ele>670.0</ele><time>2026-03-28T13:18:21.999Z</time></trkpt><trkpt lat="46.179973367977645" lon="13.558424982220506"><ele>669.75</ele><time>2026-03-28T13:18:22.999Z</time></trkpt><trkpt lat="46.18011480474692" lon="13.558521569761622"><ele>669.5</ele><time>2026-03-28T13:18:23.999Z</time></trkpt><trkpt lat="46.180246617559625" lon="13.55857697588319"><ele>669.25</ele><time>2026-03-28T13:18:24.999Z</time></trkpt><trkpt lat="46.18039688326702" lon="13.558578452442372"><ele>669.0</ele><time>2026-03-28T13:18:25.999Z</time></trkpt><trkpt lat="46.180562880132335" lon="13.558518086122477"><ele>671.0</ele><time>2026-03-28T13:18:26.999Z</time></trkpt><trkpt lat="46.180731019819625" lon="13.558475476613221"><ele>673.0</ele><time>2026-03-28T13:18:27.999Z</time></trkpt><trkpt lat="46.180894248555276" lon="13.558421724564068"><ele>675.0</ele><time>2026-03-28T13:18:28.999Z</time></trkpt><trkpt lat="46.1810831830397" lon="13.558411585513985"><ele>675.0</ele><time>2026-03-28T13:18:29.999Z</time></trkpt><trkpt lat="46.18128501119965" lon="13.558418415441047"><ele>675.0</ele><time>2026-03-28T13:18:30.999Z</time></trkpt><trkpt lat="46.18150371190197" lon="13.558433233187007"><ele>675.0</ele><time>2026-03-28T13:18:31.999Z</time></trkpt><trkpt lat="46.18172877328171" lon="13.558440096023267"><ele>678.0</ele><time>2026-03-28T13:18:32.999Z</time></trkpt><trkpt lat="46.18194982364464" lon="13.558439988542473"><ele>681.0</ele><time>2026-03-28T13:18:33.999Z</time></trkpt><trkpt lat="46.18215643971386" lon="13.558455526505645"><ele>684.0</ele><time>2026-03-28T13:18:34.999Z</time></trkpt><trkpt lat="46.1823584998349" lon="13.558494978077055"><ele>684.6666666666666</ele><time>2026-03-28T13:18:35.999Z</time></trkpt><trkpt lat="46.18253160129481" lon="13.558535239848801"><ele>685.3333333333333</ele><time>2026-03-28T13:18:36.999Z</time></trkpt><trkpt lat="46.1827024080422" lon="13.558562617499677"><ele>686.0</ele><time>2026-03-28T13:18:37.999Z</time></trkpt><trkpt lat="46.18287011376286" lon="13.558597958711559"><ele>686.0</ele><time>2026-03-28T13:18:38.999Z</time></trkpt><trkpt lat="46.183026620426105" lon="13.558650764886075"><ele>686.0</ele><time>2026-03-28T13:18:39.999Z</time></trkpt><trkpt lat="46.183175463208734" lon="13.55871957831475"><ele>686.0</ele><time>2026-03-28T13:18:40.999Z</time></trkpt><trkpt lat="46.18330444870966" lon="13.558813214140507"><ele>697.3333333333333</ele><time>2026-03-28T13:18:41.999Z</time></trkpt><trkpt lat="46.183432518243784" lon="13.558897751666201"><ele>708.6666666666666</ele><time>2026-03-28T13:18:42.999Z</time></trkpt><trkpt lat="46.183582842680735" lon="13.558935677457509"><ele>720.0</ele><time>2026-03-28T13:18:43.999Z</time></trkpt><trkpt lat="46.183752703091336" lon="13.558919209777299"><ele>720.0</ele><time>2026-03-28T13:18:44.999Z</time></trkpt><trkpt lat="46.18392963901073" lon="13.55887138135585"><ele>720.0</ele><time>2026-03-28T13:18:45.999Z</time></trkpt><trkpt lat="46.184112997507" lon="13.558825699915555"><ele>720.0</ele><time>2026-03-28T13:18:46.999Z</time></trkpt><trkpt lat="46.184268922022625" lon="13.558799345516022"><ele>719.6666666666666</ele><time>2026-03-28T13:18:47.999Z</time></trkpt><trkpt lat="46.18442013257021" lon="13.558793045766643"><ele>719.3333333333333</ele><time>2026-03-28T13:18:48.999Z</time></trkpt><trkpt lat="46.18457711980367" lon="13.55883316641496"><ele>719.0</ele><time>2026-03-28T13:18:49.999Z</time></trkpt><trkpt lat="46.18474705926175" lon="13.558901198074896"><ele>720.5</ele><time>2026-03-28T13:18:50.999Z</time></trkpt><trkpt lat="46.184914587488656" lon="13.558963192644047"><ele>722.0</ele><time>2026-03-28T13:18:51.999Z</time></trkpt><trkpt lat="46.18505306082905" lon="13.559012802602625"><ele>723.5</ele><time>2026-03-28T13:18:52.999Z</time></trkpt><trkpt lat="46.18516882005217" lon="13.559050245971129"><ele>725.0</ele><time>2026-03-28T13:18:53.999Z</time></trkpt><trkpt lat="46.185269965710106" lon="13.559056789934676"><ele>725.0</ele><time>2026-03-28T13:18:54.999Z</time></trkpt><trkpt lat="46.185362345793656" lon="13.558996508799307"><ele>725.0</ele><time>2026-03-28T13:18:55.999Z</time></trkpt><trkpt lat="46.185435197397126" lon="13.558879141845761"><ele>725.0</ele><time>2026-03-28T13:18:56.999Z</time></trkpt><trkpt lat="46.1854665797132" lon="13.558706090702133"><ele>725.0</ele><time>2026-03-28T13:18:57.999Z</time></trkpt><trkpt lat="46.18548426584958" lon="13.558505466040513"><ele>721.5</ele><time>2026-03-28T13:18:58.999Z</time></trkpt><trkpt lat="46.18553402993633" lon="13.558322561418674"><ele>718.0</ele><time>2026-03-28T13:18:59.999Z</time></trkpt><trkpt lat="46.18561188034052" lon="13.558160750972057"><ele>714.5</ele><time>2026-03-28T13:19:00.999Z</time></trkpt><trkpt lat="46.18566999670558" lon="13.55804239564548"><ele>711.0</ele><time>2026-03-28T13:19:01.999Z</time></trkpt><trkpt lat="46.185708113766744" lon="13.557934310368022"><ele>714.4</ele><time>2026-03-28T13:19:02.999Z</time></trkpt><trkpt lat="46.185705727039064" lon="13.557834472678877"><ele>717.8</ele><time>2026-03-28T13:19:03.999Z</time></trkpt><trkpt lat="46.18566657499546" lon="13.557733440454887"><ele>721.1999999999999</ele><time>2026-03-28T13:19:04.999Z</time></trkpt><trkpt lat="46.185591630278914" lon="13.557661485465086"><ele>724.5999999999999</ele><time>2026-03-28T13:19:05.999Z</time></trkpt><trkpt lat="46.1854730638601" lon="13.557631686868058"><ele>728.0</ele><time>2026-03-28T13:19:06.999Z</time></trkpt><trkpt lat="46.18533192516823" lon="13.557570378032565"><ele>728.0</ele><time>2026-03-28T13:19:08Z</time></trkpt><trkpt lat="46.18517926019254" lon="13.557521104188691"><ele>728.0</ele><time>2026-03-28T13:19:09Z</time></trkpt><trkpt lat="46.185021807346786" lon="13.55745885429492"><ele>728.0</ele><time>2026-03-28T13:19:10Z</time></trkpt><trkpt lat="46.184885907806155" lon="13.557372247943318"><ele>730.3333333333333</ele><time>2026-03-28T13:19:11Z</time></trkpt><trkpt lat="46.1847494281752" lon="13.557233744380268"><ele>732.6666666666666</ele><time>2026-03-28T13:19:12Z</time></trkpt><trkpt lat="46.18460050980477" lon="13.557070630298274"><ele>735.0</ele><time>2026-03-28T13:19:13Z</time></trkpt><trkpt lat="46.18443206246821" lon="13.556884962948752"><ele>735.0</ele><time>2026-03-28T13:19:14Z</time></trkpt><trkpt lat="46.18425228218043" lon="13.556686804245276"><ele>735.0</ele><time>2026-03-28T13:19:15Z</time></trkpt><trkpt lat="46.1840583382385" lon="13.556475838701076"><ele>736.0</ele><time>2026-03-28T13:19:16Z</time></trkpt><trkpt lat="46.18385975408175" lon="13.556258660361854"><ele>737.0</ele><time>2026-03-28T13:19:17Z</time></trkpt><trkpt lat="46.18366261473015" lon="13.556042120701669"><ele>737.0</ele><time>2026-03-28T13:19:18Z</time></trkpt><trkpt lat="46.183504950549384" lon="13.555777753038907"><ele>737.0</ele><time>2026-03-28T13:19:19Z</time></trkpt><trkpt lat="46.183336370264946" lon="13.555542588411383"><ele>735.6666666666666</ele><time>2026-03-28T13:19:20Z</time></trkpt><trkpt lat="46.18316200010722" lon="13.555335985790556"><ele>734.3333333333334</ele><time>2026-03-28T13:19:21Z</time></trkpt><trkpt lat="46.183004857209696" lon="13.5551457739989"><ele>733.0</ele><time>2026-03-28T13:19:22Z</time></trkpt><trkpt lat="46.18286071896606" lon="13.554953152929146"><ele>733.0</ele><time>2026-03-28T13:19:23Z</time></trkpt><trkpt lat="46.1827469259801" lon="13.554741707579874"><ele>733.0</ele><time>2026-03-28T13:19:24Z</time></trkpt><trkpt lat="46.18264589735737" lon="13.554558127174428"><ele>733.0</ele><time>2026-03-28T13:19:25Z</time></trkpt><trkpt lat="46.182573840747246" lon="13.554387156987282"><ele>738.75</ele><time>2026-03-28T13:19:26Z</time></trkpt><trkpt lat="46.18248419535707" lon="13.554248436036916"><ele>744.5</ele><time>2026-03-28T13:19:27Z</time></trkpt><trkpt lat="46.18242933125697" lon="13.554094989107181"><ele>750.25</ele><time>2026-03-28T13:19:28Z</time></trkpt><trkpt lat="46.18241414673394" lon="13.553933517561855"><ele>756.0</ele><time>2026-03-28T13:19:29Z</time></trkpt><trkpt lat="46.18242574501703" lon="13.55376479518949"><ele>757.5</ele><time>2026-03-28T13:19:30Z</time></trkpt><trkpt lat="46.182460182439165" lon="13.553577567851844"><ele>759.0</ele><time>2026-03-28T13:19:31Z</time></trkpt><trkpt lat="46.182489513949044" lon="13.553374833418719"><ele>760.5</ele><time>2026-03-28T13:19:32Z</time></trkpt><trkpt lat="46.18251507134851" lon="13.553157958353061"><ele>762.0</ele><time>2026-03-28T13:19:33Z</time></trkpt><trkpt lat="46.18254202505291" lon="13.552942899082076"><ele>761.25</ele><time>2026-03-28T13:19:34Z</time></trkpt><trkpt lat="46.182569770975874" lon="13.55274942961009"><ele>760.5</ele><time>2026-03-28T13:19:35Z</time></trkpt><trkpt lat="46.182595609416026" lon="13.55258368725243"><ele>759.75</ele><time>2026-03-28T13:19:36Z</time></trkpt><trkpt lat="46.18264226495846" lon="13.552420091096398"><ele>759.0</ele><time>2026-03-28T13:19:37Z</time></trkpt><trkpt lat="46.18272213268576" lon="13.552254135815996"><ele>759.0</ele><time>2026-03-28T13:19:38Z</time></trkpt><trkpt lat="46.18283169837429" lon="13.55208333635215"><ele>759.0</ele><time>2026-03-28T13:19:39Z</time></trkpt><trkpt lat="46.18292486528352" lon="13.551892053909556"><ele>759.0</ele><time>2026-03-28T13:19:40Z</time></trkpt><trkpt lat="46.18297802495676" lon="13.55166342877543"><ele>755.6666666666666</ele><time>2026-03-28T13:19:41Z</time></trkpt><trkpt lat="46.18299600450577" lon="13.5514212634102"><ele>752.3333333333333</ele><time>2026-03-28T13:19:42Z</time></trkpt><trkpt lat="46.18300179623712" lon="13.551201837454828"><ele>749.0</ele><time>2026-03-28T13:19:42.999Z</time></trkpt><trkpt lat="46.18301815187369" lon="13.551010885585436"><ele>748.6</ele><time>2026-03-28T13:19:43.999Z</time></trkpt><trkpt lat="46.183058870253575" lon="13.550872349978825"><ele>748.2</ele><time>2026-03-28T13:19:44.999Z</time></trkpt><trkpt lat="46.18311844905992" lon="13.550765187459403"><ele>747.8000000000001</ele><time>2026-03-28T13:19:45.999Z</time></trkpt><trkpt lat="46.183178336002236" lon="13.550658435411671"><ele>747.4000000000001</ele><time>2026-03-28T13:19:46.999Z</time></trkpt><trkpt lat="46.18323553886793" lon="13.550546974478092"><ele>747.0</ele><time>2026-03-28T13:19:47.999Z</time></trkpt><trkpt lat="46.18328820679138" lon="13.550435038621021"><ele>748.6666666666666</ele><time>2026-03-28T13:19:48.999Z</time></trkpt><trkpt lat="46.183333881341674" lon="13.550328446485432"><ele>750.3333333333334</ele><time>2026-03-28T13:19:49.999Z</time></trkpt><trkpt lat="46.183374570292834" lon="13.550220962175448"><ele>752.0</ele><time>2026-03-28T13:19:50.999Z</time></trkpt><trkpt lat="46.18341713534009" lon="13.550121495042156"><ele>753.6666666666667</ele><time>2026-03-28T13:19:51.999Z</time></trkpt><trkpt lat="46.18346930894681" lon="13.550033658015119"><ele>755.3333333333334</ele><time>2026-03-28T13:19:52.999Z</time></trkpt><trkpt lat="46.183530261414745" lon="13.549960237093025"><ele>757.0</ele><time>2026-03-28T13:19:53.999Z</time></trkpt><trkpt lat="46.18358383828306" lon="13.54990747633044"><ele>757.0</ele><time>2026-03-28T13:19:54.999Z</time></trkpt><trkpt lat="46.183708828198135" lon="13.549930930171689"><ele>757.0</ele><time>2026-03-28T13:19:56.999Z</time></trkpt><trkpt lat="46.18377756248394" lon="13.549996811344734"><ele>757.0</ele><time>2026-03-28T13:19:57.999Z</time></trkpt><trkpt lat="46.18387142727447" lon="13.550028789137203"><ele>757.0</ele><time>2026-03-28T13:19:58.999Z</time></trkpt><trkpt lat="46.183992500712144" lon="13.550014618639164"><ele>757.0</ele><time>2026-03-28T13:19:59.999Z</time></trkpt><trkpt lat="46.18413746501306" lon="13.549988147257775"><ele>760.0</ele><time>2026-03-28T13:20:00.999Z</time></trkpt><trkpt lat="46.18429685660466" lon="13.549962994846652"><ele>763.0</ele><time>2026-03-28T13:20:01.999Z</time></trkpt><trkpt lat="46.18446395710912" lon="13.54992972004585"><ele>766.0</ele><time>2026-03-28T13:20:02.999Z</time></trkpt><trkpt lat="46.18463581520868" lon="13.549873309404061"><ele>766.0</ele><time>2026-03-28T13:20:03.999Z</time></trkpt><trkpt lat="46.18481214277666" lon="13.5497780103457"><ele>766.0</ele><time>2026-03-28T13:20:04.999Z</time></trkpt><trkpt lat="46.18499333295848" lon="13.549669933767454"><ele>766.0</ele><time>2026-03-28T13:20:05.999Z</time></trkpt><trkpt lat="46.185176360464325" lon="13.549566774889211"><ele>762.3333333333334</ele><time>2026-03-28T13:20:06.999Z</time></trkpt><trkpt lat="46.18535239837876" lon="13.549460272493654"><ele>758.6666666666666</ele><time>2026-03-28T13:20:07.999Z</time></trkpt><trkpt lat="46.18551082365138" lon="13.549334962074818"><ele>755.0</ele><time>2026-03-28T13:20:08.999Z</time></trkpt><trkpt lat="46.18564173946709" lon="13.549208655491837"><ele>764.0</ele><time>2026-03-28T13:20:09.999Z</time></trkpt><trkpt lat="46.18577305953115" lon="13.549111323931102"><ele>773.0</ele><time>2026-03-28T13:20:10.999Z</time></trkpt><trkpt lat="46.18593639694362" lon="13.549050384370075"><ele>782.0</ele><time>2026-03-28T13:20:11.999Z</time></trkpt><trkpt lat="46.18612128723422" lon="13.549008960734856"><ele>782.0</ele><time>2026-03-28T13:20:12.999Z</time></trkpt><trkpt lat="46.18632316284976" lon="13.548962805218418"><ele>782.0</ele><time>2026-03-28T13:20:13.999Z</time></trkpt><trkpt lat="46.18654132141316" lon="13.548909205342927"><ele>782.0</ele><time>2026-03-28T13:20:14.999Z</time></trkpt><trkpt lat="46.18674149644571" lon="13.548853691412065"><ele>788.6666666666667</ele><time>2026-03-28T13:20:15.999Z</time></trkpt><trkpt lat="46.18691101139409" lon="13.548817434399009"><ele>795.3333333333333</ele><time>2026-03-28T13:20:16.999Z</time></trkpt><trkpt lat="46.18707136018783" lon="13.54881335230447"><ele>802.0</ele><time>2026-03-28T13:20:17.999Z</time></trkpt><trkpt lat="46.187226727042564" lon="13.548843773125048"><ele>806.0</ele><time>2026-03-28T13:20:18.999Z</time></trkpt><trkpt lat="46.187376953537" lon="13.54886943323101"><ele>810.0</ele><time>2026-03-28T13:20:19.999Z</time></trkpt><trkpt lat="46.18752696659875" lon="13.548859004125946"><ele>814.0</ele><time>2026-03-28T13:20:20.999Z</time></trkpt><trkpt lat="46.18767838832561" lon="13.548790926479489"><ele>804.6666666666666</ele><time>2026-03-28T13:20:21.999Z</time></trkpt><trkpt lat="46.187825257297376" lon="13.54867820901449"><ele>795.3333333333333</ele><time>2026-03-28T13:20:22.999Z</time></trkpt><trkpt lat="46.18797987990987" lon="13.548565597775974"><ele>786.0</ele><time>2026-03-28T13:20:23.999Z</time></trkpt><trkpt lat="46.18812518493807" lon="13.548503462431485"><ele>793.6666666666667</ele><time>2026-03-28T13:20:24.999Z</time></trkpt><trkpt lat="46.18828424469807" lon="13.548470102422263"><ele>801.3333333333334</ele><time>2026-03-28T13:20:25.999Z</time></trkpt><trkpt lat="46.18846604463435" lon="13.548472259841605"><ele>809.0</ele><time>2026-03-28T13:20:26.999Z</time></trkpt><trkpt lat="46.188659945551784" lon="13.548457736026867"><ele>809.0</ele><time>2026-03-28T13:20:27.999Z</time></trkpt><trkpt lat="46.188849748608334" lon="13.548409746491378"><ele>809.0</ele><time>2026-03-28T13:20:28.999Z</time></trkpt><trkpt lat="46.1890377268578" lon="13.548318750742359"><ele>809.0</ele><time>2026-03-28T13:20:29.999Z</time></trkpt><trkpt lat="46.18923141306016" lon="13.548224104705602"><ele>813.3333333333334</ele><time>2026-03-28T13:20:30.999Z</time></trkpt><trkpt lat="46.189435035808856" lon="13.548175635493601"><ele>817.6666666666667</ele><time>2026-03-28T13:20:31.999Z</time></trkpt><trkpt lat="46.18964808816978" lon="13.54813537115832"><ele>822.0</ele><time>2026-03-28T13:20:32.999Z</time></trkpt><trkpt lat="46.189821053508666" lon="13.548096365917978"><ele>826.75</ele><time>2026-03-28T13:20:33.999Z</time></trkpt><trkpt lat="46.189967102316665" lon="13.548068094375317"><ele>831.5</ele><time>2026-03-28T13:20:34.999Z</time></trkpt><trkpt lat="46.19009524369082" lon="13.548058233389234"><ele>836.25</ele><time>2026-03-28T13:20:35.999Z</time></trkpt><trkpt lat="46.190227705881185" lon="13.548090043936066"><ele>841.0</ele><time>2026-03-28T13:20:36.999Z</time></trkpt><trkpt lat="46.19036887398203" lon="13.5481664160278"><ele>841.0</ele><time>2026-03-28T13:20:37.999Z</time></trkpt><trkpt lat="46.1905164742855" lon="13.548239099813943"><ele>841.0</ele><time>2026-03-28T13:20:38.999Z</time></trkpt><trkpt lat="46.19067521871422" lon="13.548286668962072"><ele>841.0</ele><time>2026-03-28T13:20:39.999Z</time></trkpt><trkpt lat="46.19084281349423" lon="13.548317608728683"><ele>846.3333333333333</ele><time>2026-03-28T13:20:40.999Z</time></trkpt><trkpt lat="46.191024220924945" lon="13.548326403198047"><ele>851.6666666666667</ele><time>2026-03-28T13:20:41.999Z</time></trkpt><trkpt lat="46.19121790870297" lon="13.548336512350444"><ele>857.0</ele><time>2026-03-28T13:20:42.999Z</time></trkpt><trkpt lat="46.19139941388193" lon="13.548358658211738"><ele>861.0</ele><time>2026-03-28T13:20:43.999Z</time></trkpt><trkpt lat="46.19154823969026" lon="13.54837674017578"><ele>865.0</ele><time>2026-03-28T13:20:44.999Z</time></trkpt><trkpt lat="46.191684390579034" lon="13.548379426554337"><ele>869.0</ele><time>2026-03-28T13:20:45.999Z</time></trkpt><trkpt lat="46.19182753480776" lon="13.548361370914279"><ele>873.0</ele><time>2026-03-28T13:20:46.999Z</time></trkpt><trkpt lat="46.191977878662904" lon="13.548265647247542"><ele>873.0</ele><time>2026-03-28T13:20:47.999Z</time></trkpt><trkpt lat="46.19213936454086" lon="13.548157498978636"><ele>873.0</ele><time>2026-03-28T13:20:48.999Z</time></trkpt><trkpt lat="46.192285223534086" lon="13.548085235458542"><ele>873.0</ele><time>2026-03-28T13:20:49.999Z</time></trkpt><trkpt lat="46.19241165269459" lon="13.548049616436613"><ele>871.0</ele><time>2026-03-28T13:20:50.999Z</time></trkpt><trkpt lat="46.19252511678042" lon="13.548011432357557"><ele>869.0</ele><time>2026-03-28T13:20:51.999Z</time></trkpt><trkpt lat="46.19262049966475" lon="13.547959022216869"><ele>867.0</ele><time>2026-03-28T13:20:52.999Z</time></trkpt><trkpt lat="46.19269892131589" lon="13.5478937998691"><ele>865.0</ele><time>2026-03-28T13:20:53.999Z</time></trkpt><trkpt lat="46.19274313821038" lon="13.547796426590788"><ele>863.0</ele><time>2026-03-28T13:20:54.999Z</time></trkpt><trkpt lat="46.192741925116025" lon="13.547675950516526"><ele>863.0</ele><time>2026-03-28T13:20:55.999Z</time></trkpt><trkpt lat="46.19270110251074" lon="13.54756880719941"><ele>863.0</ele><time>2026-03-28T13:20:56.999Z</time></trkpt><trkpt lat="46.19261171518955" lon="13.547500247012238"><ele>863.0</ele><time>2026-03-28T13:20:57.999Z</time></trkpt><trkpt lat="46.192511618956715" lon="13.547425771572046"><ele>863.0</ele><time>2026-03-28T13:20:58.999Z</time></trkpt><trkpt lat="46.19239564364846" lon="13.547308775966112"><ele>863.0</ele><time>2026-03-28T13:20:59.999Z</time></trkpt><trkpt lat="46.19226813891997" lon="13.54719469411383"><ele>859.75</ele><time>2026-03-28T13:21:00.999Z</time></trkpt><trkpt lat="46.192174184075654" lon="13.547097159964055"><ele>856.5</ele><time>2026-03-28T13:21:01.999Z</time></trkpt><trkpt lat="46.19210726662518" lon="13.546970704826478"><ele>853.25</ele><time>2026-03-28T13:21:02.999Z</time></trkpt><trkpt lat="46.19207560842506" lon="13.546807131298708"><ele>850.0</ele><time>2026-03-28T13:21:03.999Z</time></trkpt><trkpt lat="46.19207011327056" lon="13.546631389873433"><ele>850.0</ele><time>2026-03-28T13:21:04.999Z</time></trkpt><trkpt lat="46.192089310934215" lon="13.546437754752883"><ele>850.0</ele><time>2026-03-28T13:21:05.999Z</time></trkpt><trkpt lat="46.1921024613861" lon="13.54622950559287"><ele>850.0</ele><time>2026-03-28T13:21:06.999Z</time></trkpt><trkpt lat="46.192095945471415" lon="13.54602151018522"><ele>850.0</ele><time>2026-03-28T13:21:07.999Z</time></trkpt><trkpt lat="46.19206022462075" lon="13.545800471215465"><ele>849.6666666666666</ele><time>2026-03-28T13:21:08.999Z</time></trkpt><trkpt lat="46.19199513374954" lon="13.545569774975444"><ele>849.3333333333333</ele><time>2026-03-28T13:21:09.999Z</time></trkpt><trkpt lat="46.19193258302338" lon="13.545328498409644"><ele>849.0</ele><time>2026-03-28T13:21:10.999Z</time></trkpt><trkpt lat="46.191896703672896" lon="13.545096860391308"><ele>849.0</ele><time>2026-03-28T13:21:11.999Z</time></trkpt><trkpt lat="46.19188648184406" lon="13.544862451116265"><ele>849.0</ele><time>2026-03-28T13:21:12.999Z</time></trkpt><trkpt lat="46.191894892778315" lon="13.544662298093215"><ele>849.0</ele><time>2026-03-28T13:21:14Z</time></trkpt><trkpt lat="46.191920273319035" lon="13.544512197677351"><ele>849.0</ele><time>2026-03-28T13:21:15Z</time></trkpt><trkpt lat="46.19196884572352" lon="13.544402846032366"><ele>849.8000000000001</ele><time>2026-03-28T13:21:16Z</time></trkpt><trkpt lat="46.19204737568205" lon="13.544333576504279"><ele>850.6</ele><time>2026-03-28T13:21:17Z</time></trkpt><trkpt lat="46.19215162330339" lon="13.544305867426363"><ele>851.4</ele><time>2026-03-28T13:21:18Z</time></trkpt><trkpt lat="46.19227212858158" lon="13.544337666416656"><ele>852.2</ele><time>2026-03-28T13:21:19Z</time></trkpt><trkpt lat="46.192383852819695" lon="13.544349334172761"><ele>853.0</ele><time>2026-03-28T13:21:20Z</time></trkpt><trkpt lat="46.19247947999277" lon="13.544307243128022"><ele>859.4</ele><time>2026-03-28T13:21:21Z</time></trkpt><trkpt lat="46.19254502925435" lon="13.544222512916477"><ele>865.8</ele><time>2026-03-28T13:21:22Z</time></trkpt><trkpt lat="46.19257968204296" lon="13.544093942090937"><ele>872.2</ele><time>2026-03-28T13:21:23Z</time></trkpt><trkpt lat="46.19258600721694" lon="13.54393151940834"><ele>878.6</ele><time>2026-03-28T13:21:24Z</time></trkpt><trkpt lat="46.192582824659155" lon="13.543737796914456"><ele>885.0</ele><time>2026-03-28T13:21:25Z</time></trkpt><trkpt lat="46.19258487879928" lon="13.54351550083949"><ele>885.0</ele><time>2026-03-28T13:21:26Z</time></trkpt><trkpt lat="46.192584807915935" lon="13.543279099382762"><ele>885.0</ele><time>2026-03-28T13:21:27Z</time></trkpt><trkpt lat="46.19257033787732" lon="13.543035018071334"><ele>885.0</ele><time>2026-03-28T13:21:28Z</time></trkpt><trkpt lat="46.19253887182598" lon="13.542785011076704"><ele>884.5</ele><time>2026-03-28T13:21:29Z</time></trkpt><trkpt lat="46.19250637941814" lon="13.542566497633707"><ele>884.0</ele><time>2026-03-28T13:21:30Z</time></trkpt><trkpt lat="46.1924705630504" lon="13.542380991674293"><ele>883.5</ele><time>2026-03-28T13:21:31Z</time></trkpt><trkpt lat="46.19246046022111" lon="13.5422177164319"><ele>883.0</ele><time>2026-03-28T13:21:32Z</time></trkpt><trkpt lat="46.19248333258028" lon="13.542084589095696"><ele>883.8</ele><time>2026-03-28T13:21:33Z</time></trkpt><trkpt lat="46.19253140669078" lon="13.541980494729088"><ele>884.5999999999999</ele><time>2026-03-28T13:21:34Z</time></trkpt><trkpt lat="46.192603258177755" lon="13.541886522528703"><ele>885.4000000000001</ele><time>2026-03-28T13:21:35Z</time></trkpt><trkpt lat="46.19269841662357" lon="13.541828621802528"><ele>886.2</ele><time>2026-03-28T13:21:36Z</time></trkpt><trkpt lat="46.19278538592397" lon="13.541772226576779"><ele>887.0</ele><time>2026-03-28T13:21:37Z</time></trkpt><trkpt lat="46.19283674403681" lon="13.541662745418126"><ele>887.0</ele><time>2026-03-28T13:21:38Z</time></trkpt><trkpt lat="46.19286944826404" lon="13.541532678102941"><ele>887.0</ele><time>2026-03-28T13:21:39Z</time></trkpt><trkpt lat="46.192875450113" lon="13.541386851513789"><ele>887.0</ele><time>2026-03-28T13:21:40Z</time></trkpt><trkpt lat="46.192857743378546" lon="13.54122418537029"><ele>887.0</ele><time>2026-03-28T13:21:41Z</time></trkpt><trkpt lat="46.19281510640424" lon="13.541039697131255"><ele>887.0</ele><time>2026-03-28T13:21:42Z</time></trkpt><trkpt lat="46.19275201752327" lon="13.540834284780368"><ele>889.6666666666667</ele><time>2026-03-28T13:21:43Z</time></trkpt><trkpt lat="46.192690115320275" lon="13.540608804870011"><ele>892.3333333333333</ele><time>2026-03-28T13:21:44Z</time></trkpt><trkpt lat="46.192630211119585" lon="13.54038633527025"><ele>895.0</ele><time>2026-03-28T13:21:45Z</time></trkpt><trkpt lat="46.192580909090886" lon="13.540208780749337"><ele>896.0</ele><time>2026-03-28T13:21:46Z</time></trkpt><trkpt lat="46.19254778601515" lon="13.540059014832448"><ele>897.0</ele><time>2026-03-28T13:21:47Z</time></trkpt><trkpt lat="46.19253170646683" lon="13.539924230302043"><ele>898.0</ele><time>2026-03-28T13:21:47.999Z</time></trkpt><trkpt lat="46.192562264990855" lon="13.53976979789545"><ele>899.0</ele><time>2026-03-28T13:21:48.999Z</time></trkpt><trkpt lat="46.19262182023704" lon="13.539615359955294"><ele>900.0</ele><time>2026-03-28T13:21:49.999Z</time></trkpt><trkpt lat="46.19265068049973" lon="13.539449002755365"><ele>903.0</ele><time>2026-03-28T13:21:50.999Z</time></trkpt><trkpt lat="46.19263231347842" lon="13.539244773973873"><ele>906.0</ele><time>2026-03-28T13:21:51.999Z</time></trkpt><trkpt lat="46.19259420666464" lon="13.539003799426196"><ele>909.0</ele><time>2026-03-28T13:21:52.999Z</time></trkpt><trkpt lat="46.19255459056888" lon="13.538734647357305"><ele>909.6666666666667</ele><time>2026-03-28T13:21:53.999Z</time></trkpt><trkpt lat="46.19251436441539" lon="13.538448192647216"><ele>910.3333333333334</ele><time>2026-03-28T13:21:54.999Z</time></trkpt><trkpt lat="46.19248211845817" lon="13.538193677664076"><ele>911.0</ele><time>2026-03-28T13:21:55.999Z</time></trkpt><trkpt lat="46.192463261276465" lon="13.537957454583907"><ele>911.0</ele><time>2026-03-28T13:21:56.999Z</time></trkpt><trkpt lat="46.192454972876234" lon="13.537735271087538"><ele>911.0</ele><time>2026-03-28T13:21:57.999Z</time></trkpt><trkpt lat="46.19245915543323" lon="13.537529750560923"><ele>911.0</ele><time>2026-03-28T13:21:58.999Z</time></trkpt><trkpt lat="46.19248220149485" lon="13.537336920557028"><ele>911.0</ele><time>2026-03-28T13:21:59.999Z</time></trkpt><trkpt lat="46.192537549766556" lon="13.537157471652273"><ele>911.3333333333334</ele><time>2026-03-28T13:22:00.999Z</time></trkpt><trkpt lat="46.19261226765829" lon="13.536978539561469"><ele>911.6666666666667</ele><time>2026-03-28T13:22:01.999Z</time></trkpt><trkpt lat="46.19270895547695" lon="13.536803401323988"><ele>912.0</ele><time>2026-03-28T13:22:02.999Z</time></trkpt><trkpt lat="46.19281741100932" lon="13.536631564356973"><ele>912.0</ele><time>2026-03-28T13:22:03.999Z</time></trkpt><trkpt lat="46.19290554121093" lon="13.536469101921353"><ele>912.0</ele><time>2026-03-28T13:22:04.999Z</time></trkpt><trkpt lat="46.19296706367696" lon="13.53632628019019"><ele>912.0</ele><time>2026-03-28T13:22:05.999Z</time></trkpt><trkpt lat="46.1930051222998" lon="13.536161788465403"><ele>912.0</ele><time>2026-03-28T13:22:06.999Z</time></trkpt><trkpt lat="46.19301857861696" lon="13.535970624059855"><ele>909.6666666666667</ele><time>2026-03-28T13:22:07.999Z</time></trkpt><trkpt lat="46.193015117539204" lon="13.535752728504006"><ele>907.3333333333334</ele><time>2026-03-28T13:22:08.999Z</time></trkpt><trkpt lat="46.19301975351396" lon="13.535518915160699"><ele>905.0</ele><time>2026-03-28T13:22:09.999Z</time></trkpt><trkpt lat="46.19303210578193" lon="13.53531166056951"><ele>903.75</ele><time>2026-03-28T13:22:10.999Z</time></trkpt><trkpt lat="46.193058216938915" lon="13.53514003332737"><ele>902.5</ele><time>2026-03-28T13:22:11.999Z</time></trkpt><trkpt lat="46.19310880535823" lon="13.534969734365378"><ele>901.25</ele><time>2026-03-28T13:22:12.999Z</time></trkpt><trkpt lat="46.19313668665194" lon="13.534794137791408"><ele>900.0</ele><time>2026-03-28T13:22:13.999Z</time></trkpt><trkpt lat="46.193276117903494" lon="13.534665486654335"><ele>906.25</ele><time>2026-03-28T13:22:14.999Z</time></trkpt><trkpt lat="46.19337500709176" lon="13.534515871447137"><ele>912.5</ele><time>2026-03-28T13:22:15.999Z</time></trkpt><trkpt lat="46.19347217130854" lon="13.534351260714107"><ele>918.75</ele><time>2026-03-28T13:22:16.999Z</time></trkpt><trkpt lat="46.19356345752555" lon="13.53419436642233"><ele>925.0</ele><time>2026-03-28T13:22:17.999Z</time></trkpt><trkpt lat="46.193654007957036" lon="13.534073937778047"><ele>925.0</ele><time>2026-03-28T13:22:18.999Z</time></trkpt><trkpt lat="46.1937768257105" lon="13.533966117595588"><ele>925.0</ele><time>2026-03-28T13:22:19.999Z</time></trkpt><trkpt lat="46.193923101151924" lon="13.53386803292552"><ele>925.0</ele><time>2026-03-28T13:22:20.999Z</time></trkpt><trkpt lat="46.19407384800832" lon="13.53376105231053"><ele>933.3333333333333</ele><time>2026-03-28T13:22:21.999Z</time></trkpt><trkpt lat="46.19423243348186" lon="13.533655159280887"><ele>941.6666666666667</ele><time>2026-03-28T13:22:22.999Z</time></trkpt><trkpt lat="46.194376057762994" lon="13.533561653192365"><ele>950.0</ele><time>2026-03-28T13:22:23.999Z</time></trkpt><trkpt lat="46.19450115675968" lon="13.533474909493354"><ele>950.0</ele><time>2026-03-28T13:22:24.999Z</time></trkpt><trkpt lat="46.194614741790836" lon="13.533364007837964"><ele>950.0</ele><time>2026-03-28T13:22:25.999Z</time></trkpt><trkpt lat="46.194717475891586" lon="13.533206524388657"><ele>950.0</ele><time>2026-03-28T13:22:26.999Z</time></trkpt><trkpt lat="46.19481268178563" lon="13.533026594293233"><ele>950.0</ele><time>2026-03-28T13:22:27.999Z</time></trkpt><trkpt lat="46.1949058943716" lon="13.532826421744893"><ele>956.6666666666667</ele><time>2026-03-28T13:22:28.999Z</time></trkpt><trkpt lat="46.19500964231432" lon="13.532618272580919"><ele>963.3333333333333</ele><time>2026-03-28T13:22:29.999Z</time></trkpt><trkpt lat="46.19511278290359" lon="13.532403898641263"><ele>970.0</ele><time>2026-03-28T13:22:30.999Z</time></trkpt><trkpt lat="46.19519845872465" lon="13.532202556380337"><ele>969.6666666666666</ele><time>2026-03-28T13:22:31.999Z</time></trkpt><trkpt lat="46.1952619595038" lon="13.532005605853234"><ele>969.3333333333333</ele><time>2026-03-28T13:22:32.999Z</time></trkpt><trkpt lat="46.19530603196002" lon="13.531780306875717"><ele>969.0</ele><time>2026-03-28T13:22:33.999Z</time></trkpt><trkpt lat="46.19533286961282" lon="13.531534498374123"><ele>969.0</ele><time>2026-03-28T13:22:34.999Z</time></trkpt><trkpt lat="46.19535004560847" lon="13.531262784396485"><ele>969.0</ele><time>2026-03-28T13:22:35.999Z</time></trkpt><trkpt lat="46.19537428014374" lon="13.530983562566156"><ele>969.0</ele><time>2026-03-28T13:22:36.999Z</time></trkpt><trkpt lat="46.19540350866584" lon="13.530749079870764"><ele>968.0</ele><time>2026-03-28T13:22:37.999Z</time></trkpt><trkpt lat="46.19544013182992" lon="13.53053591603126"><ele>967.0</ele><time>2026-03-28T13:22:38.999Z</time></trkpt><trkpt lat="46.195500211412345" lon="13.530336489659216"><ele>966.0</ele><time>2026-03-28T13:22:39.999Z</time></trkpt><trkpt lat="46.195584792676364" lon="13.530143750577176"><ele>973.0</ele><time>2026-03-28T13:22:40.999Z</time></trkpt><trkpt lat="46.19568175243708" lon="13.529937365274224"><ele>980.0</ele><time>2026-03-28T13:22:41.999Z</time></trkpt><trkpt lat="46.195792387574876" lon="13.529720101986966"><ele>987.0</ele><time>2026-03-28T13:22:42.999Z</time></trkpt><trkpt lat="46.19591541107911" lon="13.529501955864426"><ele>987.0</ele><time>2026-03-28T13:22:43.999Z</time></trkpt><trkpt lat="46.19603995958455" lon="13.529295252358743"><ele>987.0</ele><time>2026-03-28T13:22:44.999Z</time></trkpt><trkpt lat="46.19613567466798" lon="13.529131636300585"><ele>987.0</ele><time>2026-03-28T13:22:45.999Z</time></trkpt><trkpt lat="46.196213007562505" lon="13.528987675309057"><ele>987.0</ele><time>2026-03-28T13:22:46.999Z</time></trkpt><trkpt lat="46.19626644181264" lon="13.528833944056375"><ele>987.0</ele><time>2026-03-28T13:22:47.999Z</time></trkpt><trkpt lat="46.196288998277495" lon="13.528659497745132"><ele>987.0</ele><time>2026-03-28T13:22:48.999Z</time></trkpt><trkpt lat="46.196282642412804" lon="13.528466311197391"><ele>987.0</ele><time>2026-03-28T13:22:49.999Z</time></trkpt><trkpt lat="46.196251754698146" lon="13.528265328882092"><ele>987.0</ele><time>2026-03-28T13:22:50.999Z</time></trkpt><trkpt lat="46.196217291653355" lon="13.528065337933013"><ele>987.0</ele><time>2026-03-28T13:22:51.999Z</time></trkpt><trkpt lat="46.19619709935997" lon="13.527903157070995"><ele>987.0</ele><time>2026-03-28T13:22:52.999Z</time></trkpt><trkpt lat="46.19619534077377" lon="13.527753728803296"><ele>987.0</ele><time>2026-03-28T13:22:53.999Z</time></trkpt><trkpt lat="46.1962256554123" lon="13.527613605822664"><ele>988.25</ele><time>2026-03-28T13:22:54.999Z</time></trkpt><trkpt lat="46.19628965849449" lon="13.527487149623138"><ele>989.5</ele><time>2026-03-28T13:22:55.999Z</time></trkpt><trkpt lat="46.196377938430444" lon="13.52737507728374"><ele>990.75</ele><time>2026-03-28T13:22:56.999Z</time></trkpt><trkpt lat="46.19648121949083" lon="13.527263199829097"><ele>992.0</ele><time>2026-03-28T13:22:57.999Z</time></trkpt><trkpt lat="46.19658924801696" lon="13.52714726688277"><ele>997.5</ele><time>2026-03-28T13:22:58.999Z</time></trkpt><trkpt lat="46.19669271659121" lon="13.52704449714582"><ele>1003.0</ele><time>2026-03-28T13:22:59.999Z</time></trkpt><trkpt lat="46.196789752737224" lon="13.526967621306158"><ele>1008.5</ele><time>2026-03-28T13:23:00.999Z</time></trkpt><trkpt lat="46.19689649575815" lon="13.526937503031828"><ele>1014.0</ele><time>2026-03-28T13:23:01.999Z</time></trkpt><trkpt lat="46.1970038017447" lon="13.52695125111221"><ele>1014.0</ele><time>2026-03-28T13:23:02.999Z</time></trkpt><trkpt lat="46.197114061029374" lon="13.526992776839885"><ele>1014.0000000000001</ele><time>2026-03-28T13:23:03.999Z</time></trkpt><trkpt lat="46.19722147797902" lon="13.527044522020818"><ele>1014.0000000000001</ele><time>2026-03-28T13:23:04.999Z</time></trkpt><trkpt lat="46.19731001124046" lon="13.527084233155277"><ele>1014.0</ele><time>2026-03-28T13:23:05.999Z</time></trkpt><trkpt lat="46.19737078958643" lon="13.527150865946405"><ele>1014.0</ele><time>2026-03-28T13:23:06.999Z</time></trkpt><trkpt lat="46.197415761544725" lon="13.527256622754033"><ele>1013.75</ele><time>2026-03-28T13:23:07.999Z</time></trkpt><trkpt lat="46.1974253101956" lon="13.527400069239837"><ele>1013.5</ele><time>2026-03-28T13:23:08.999Z</time></trkpt><trkpt lat="46.197388615217676" lon="13.527546497643725"><ele>1013.25</ele><time>2026-03-28T13:23:09.999Z</time></trkpt><trkpt lat="46.19734319663285" lon="13.527702703962158"><ele>1013.0</ele><time>2026-03-28T13:23:10.999Z</time></trkpt><trkpt lat="46.197309293103714" lon="13.527882877533651"><ele>1013.5</ele><time>2026-03-28T13:23:11.999Z</time></trkpt><trkpt lat="46.19726321263781" lon="13.528069975496047"><ele>1014.0</ele><time>2026-03-28T13:23:12.999Z</time></trkpt><trkpt lat="46.19721994343486" lon="13.528261648474079"><ele>1014.5</ele><time>2026-03-28T13:23:13.999Z</time></trkpt><trkpt lat="46.19717314627658" lon="13.528419929654316"><ele>1015.0</ele><time>2026-03-28T13:23:14.999Z</time></trkpt><trkpt lat="46.197168403304936" lon="13.528591231604645"><ele>1016.5</ele><time>2026-03-28T13:23:15.999Z</time></trkpt><trkpt lat="46.197153800420736" lon="13.528761758996232"><ele>1018.0</ele><time>2026-03-28T13:23:16.999Z</time></trkpt><trkpt lat="46.1971933603051" lon="13.528939945249421"><ele>1019.5</ele><time>2026-03-28T13:23:17.999Z</time></trkpt><trkpt lat="46.19721637570452" lon="13.5291202649967"><ele>1021.0</ele><time>2026-03-28T13:23:18.999Z</time></trkpt><trkpt lat="46.19720640330857" lon="13.529295760725466"><ele>1021.0</ele><time>2026-03-28T13:23:20Z</time></trkpt><trkpt lat="46.19713377427059" lon="13.529443816230238"><ele>1021.0</ele><time>2026-03-28T13:23:21Z</time></trkpt><trkpt lat="46.197075299651495" lon="13.529616943016125"><ele>1021.0</ele><time>2026-03-28T13:23:22Z</time></trkpt><trkpt lat="46.19700406416383" lon="13.529764461253759"><ele>1021.0</ele><time>2026-03-28T13:23:23Z</time></trkpt><trkpt lat="46.19696421011272" lon="13.529908827862828"><ele>1023.4</ele><time>2026-03-28T13:23:24Z</time></trkpt><trkpt lat="46.19695616039881" lon="13.530073394519118"><ele>1025.8</ele><time>2026-03-28T13:23:25Z</time></trkpt><trkpt lat="46.19696955285895" lon="13.530244176390505"><ele>1028.1999999999998</ele><time>2026-03-28T13:23:26Z</time></trkpt><trkpt lat="46.196974169175" lon="13.530403354799653"><ele>1030.6</ele><time>2026-03-28T13:23:27Z</time></trkpt><trkpt lat="46.19699391394853" lon="13.530547704059472"><ele>1033.0</ele><time>2026-03-28T13:23:28Z</time></trkpt><trkpt lat="46.197030483165015" lon="13.530676480414447"><ele>1034.6</ele><time>2026-03-28T13:23:29Z</time></trkpt><trkpt lat="46.19705997615584" lon="13.53080996393526"><ele>1036.1999999999998</ele><time>2026-03-28T13:23:30Z</time></trkpt><trkpt lat="46.197093073093825" lon="13.530966094739648"><ele>1037.8</ele><time>2026-03-28T13:23:31Z</time></trkpt><trkpt lat="46.197117544549336" lon="13.531135400112763"><ele>1039.3999999999999</ele><time>2026-03-28T13:23:32Z</time></trkpt><trkpt lat="46.197119805589985" lon="13.5312993251878"><ele>1041.0</ele><time>2026-03-28T13:23:33Z</time></trkpt><trkpt lat="46.19707779848261" lon="13.53144238043569"><ele>1041.1666666666667</ele><time>2026-03-28T13:23:34Z</time></trkpt><trkpt lat="46.19703437731521" lon="13.53157324069547"><ele>1041.3333333333333</ele><time>2026-03-28T13:23:35Z</time></trkpt><trkpt lat="46.197002688380074" lon="13.531705039268179"><ele>1041.5</ele><time>2026-03-28T13:23:36Z</time></trkpt><trkpt lat="46.19696316915005" lon="13.531819228839584"><ele>1041.6666666666665</ele><time>2026-03-28T13:23:37Z</time></trkpt><trkpt lat="46.196930372464195" lon="13.531929688706327"><ele>1041.8333333333333</ele><time>2026-03-28T13:23:38Z</time></trkpt><trkpt lat="46.19690100069134" lon="13.532036868773979"><ele>1042.0</ele><time>2026-03-28T13:23:39Z</time></trkpt><trkpt lat="46.19687536700396" lon="13.532149923514996"><ele>1043.75</ele><time>2026-03-28T13:23:40Z</time></trkpt><trkpt lat="46.19688040428071" lon="13.532292346395536"><ele>1045.5</ele><time>2026-03-28T13:23:41Z</time></trkpt><trkpt lat="46.19691181916781" lon="13.532448169110776"><ele>1047.25</ele><time>2026-03-28T13:23:42Z</time></trkpt><trkpt lat="46.19696451385287" lon="13.532617850029453"><ele>1049.0</ele><time>2026-03-28T13:23:43Z</time></trkpt><trkpt lat="46.19701909444106" lon="13.532794928576108"><ele>1051.0</ele><time>2026-03-28T13:23:44Z</time></trkpt><trkpt lat="46.19703366345135" lon="13.53298186404756"><ele>1053.0</ele><time>2026-03-28T13:23:45Z</time></trkpt><trkpt lat="46.19699766113067" lon="13.533168411724283"><ele>1055.0</ele><time>2026-03-28T13:23:46Z</time></trkpt><trkpt lat="46.19696626923666" lon="13.533383530053129"><ele>1057.0</ele><time>2026-03-28T13:23:47Z</time></trkpt><trkpt lat="46.196916692310026" lon="13.533600102047947"><ele>1059.5</ele><time>2026-03-28T13:23:48Z</time></trkpt><trkpt lat="46.19686410941188" lon="13.533826958125719"><ele>1062.0</ele><time>2026-03-28T13:23:49Z</time></trkpt><trkpt lat="46.19682124000217" lon="13.534012180049531"><ele>1064.5</ele><time>2026-03-28T13:23:49.999Z</time></trkpt><trkpt lat="46.19678741497158" lon="13.53416022375633"><ele>1067.0</ele><time>2026-03-28T13:23:50.999Z</time></trkpt><trkpt lat="46.196769819688924" lon="13.534287763161185"><ele>1067.0</ele><time>2026-03-28T13:23:51.999Z</time></trkpt><trkpt lat="46.19677234900268" lon="13.53443187319491"><ele>1067.0</ele><time>2026-03-28T13:23:52.999Z</time></trkpt><trkpt lat="46.19680515440701" lon="13.534569773038253"><ele>1067.0</ele><time>2026-03-28T13:23:53.999Z</time></trkpt><trkpt lat="46.19687334123835" lon="13.534681801382199"><ele>1067.0</ele><time>2026-03-28T13:23:54.999Z</time></trkpt><trkpt lat="46.19696114671715" lon="13.534755133092762"><ele>1067.0</ele><time>2026-03-28T13:23:55.999Z</time></trkpt><trkpt lat="46.19706718575128" lon="13.534788744005581"><ele>1068.0</ele><time>2026-03-28T13:23:56.999Z</time></trkpt><trkpt lat="46.19718244142306" lon="13.534763107101941"><ele>1069.0</ele><time>2026-03-28T13:23:57.999Z</time></trkpt><trkpt lat="46.19731274581265" lon="13.534699152391504"><ele>1070.0</ele><time>2026-03-28T13:23:58.999Z</time></trkpt><trkpt lat="46.197433310304376" lon="13.53465240397777"><ele>1071.0</ele><time>2026-03-28T13:23:59.999Z</time></trkpt><trkpt lat="46.197526081966" lon="13.534620604450819"><ele>1074.0</ele><time>2026-03-28T13:24:00.999Z</time></trkpt><trkpt lat="46.1976147283226" lon="13.534617385044482"><ele>1077.0</ele><time>2026-03-28T13:24:01.999Z</time></trkpt><trkpt lat="46.19769431391026" lon="13.534676761621984"><ele>1080.0</ele><time>2026-03-28T13:24:02.999Z</time></trkpt><trkpt lat="46.19775149472806" lon="13.534791162691105"><ele>1083.0</ele><time>2026-03-28T13:24:03.999Z</time></trkpt><trkpt lat="46.197781366457036" lon="13.53495712712507"><ele>1086.0</ele><time>2026-03-28T13:24:04.999Z</time></trkpt><trkpt lat="46.1978111589675" lon="13.535152773368385"><ele>1086.0</ele><time>2026-03-28T13:24:05.999Z</time></trkpt><trkpt lat="46.197849978524495" lon="13.535377303181516"><ele>1086.0</ele><time>2026-03-28T13:24:06.999Z</time></trkpt><trkpt lat="46.19789240165719" lon="13.535621554187516"><ele>1086.0</ele><time>2026-03-28T13:24:07.999Z</time></trkpt><trkpt lat="46.19793572504444" lon="13.535837825416161"><ele>1085.8</ele><time>2026-03-28T13:24:08.999Z</time></trkpt><trkpt lat="46.197963819271685" lon="13.536013035642311"><ele>1085.6</ele><time>2026-03-28T13:24:09.999Z</time></trkpt><trkpt lat="46.19797973138256" lon="13.536150805056732"><ele>1085.4</ele><time>2026-03-28T13:24:10.999Z</time></trkpt><trkpt lat="46.198002277811824" lon="13.536260428064946"><ele>1085.2</ele><time>2026-03-28T13:24:11.999Z</time></trkpt><trkpt lat="46.198110763556336" lon="13.536355773494245"><ele>1085.0</ele><time>2026-03-28T13:24:13.999Z</time></trkpt><trkpt lat="46.19818497900247" lon="13.536323390921616"><ele>1089.6</ele><time>2026-03-28T13:24:14.999Z</time></trkpt><trkpt lat="46.198243512020575" lon="13.536233350543839"><ele>1094.2</ele><time>2026-03-28T13:24:15.999Z</time></trkpt><trkpt lat="46.198261956341504" lon="13.536108765987523"><ele>1098.8</ele><time>2026-03-28T13:24:16.999Z</time></trkpt><trkpt lat="46.19826505384215" lon="13.535947984274356"><ele>1103.4</ele><time>2026-03-28T13:24:17.999Z</time></trkpt><trkpt lat="46.198286705361525" lon="13.535752305220774"><ele>1108.0</ele><time>2026-03-28T13:24:18.999Z</time></trkpt><trkpt lat="46.198312304284386" lon="13.53552004132341"><ele>1107.0</ele><time>2026-03-28T13:24:19.999Z</time></trkpt><trkpt lat="46.19834092313273" lon="13.535274342235498"><ele>1106.0</ele><time>2026-03-28T13:24:20.999Z</time></trkpt><trkpt lat="46.198371679012496" lon="13.535015105179786"><ele>1105.0</ele><time>2026-03-28T13:24:21.999Z</time></trkpt><trkpt lat="46.198398475048016" lon="13.53473691291626"><ele>1105.6666666666665</ele><time>2026-03-28T13:24:22.999Z</time></trkpt><trkpt lat="46.198425286638184" lon="13.53444005279813"><ele>1106.3333333333333</ele><time>2026-03-28T13:24:23.999Z</time></trkpt><trkpt lat="46.19845700225594" lon="13.534142975073078"><ele>1107.0</ele><time>2026-03-28T13:24:24.999Z</time></trkpt><trkpt lat="46.198494416561665" lon="13.53384879979473"><ele>1108.3333333333333</ele><time>2026-03-28T13:24:25.999Z</time></trkpt><trkpt lat="46.19852784070214" lon="13.533572567411253"><ele>1109.6666666666665</ele><time>2026-03-28T13:24:26.999Z</time></trkpt><trkpt lat="46.198549794653" lon="13.533324469009699"><ele>1111.0</ele><time>2026-03-28T13:24:27.999Z</time></trkpt><trkpt lat="46.19857307911626" lon="13.533106213165551"><ele>1111.0</ele><time>2026-03-28T13:24:28.999Z</time></trkpt><trkpt lat="46.19859728099247" lon="13.532900875041953"><ele>1111.0</ele><time>2026-03-28T13:24:29.999Z</time></trkpt><trkpt lat="46.19861728328307" lon="13.532718384489336"><ele>1111.0</ele><time>2026-03-28T13:24:30.999Z</time></trkpt><trkpt lat="46.198635357789534" lon="13.532560508683117"><ele>1111.0</ele><time>2026-03-28T13:24:31.999Z</time></trkpt><trkpt lat="46.1986678474013" lon="13.532439538106797"><ele>1110.6</ele><time>2026-03-28T13:24:32.999Z</time></trkpt><trkpt lat="46.19872109815047" lon="13.532347827578246"><ele>1110.1999999999998</ele><time>2026-03-28T13:24:33.999Z</time></trkpt><trkpt lat="46.1987968341276" lon="13.53227551139106"><ele>1109.8000000000002</ele><time>2026-03-28T13:24:34.999Z</time></trkpt><trkpt lat="46.19889750866949" lon="13.532236964397681"><ele>1109.4</ele><time>2026-03-28T13:24:35.999Z</time></trkpt><trkpt lat="46.19901782022281" lon="13.53222169791853"><ele>1109.0</ele><time>2026-03-28T13:24:36.999Z</time></trkpt><trkpt lat="46.1991172541453" lon="13.532201775323587"><ele>1113.0</ele><time>2026-03-28T13:24:37.999Z</time></trkpt><trkpt lat="46.19919297840093" lon="13.532210305208462"><ele>1117.0</ele><time>2026-03-28T13:24:38.999Z</time></trkpt><trkpt lat="46.19925825148349" lon="13.532258891309692"><ele>1121.0</ele><time>2026-03-28T13:24:39.999Z</time></trkpt><trkpt lat="46.1993014459958" lon="13.53234796210559"><ele>1125.0</ele><time>2026-03-28T13:24:40.999Z</time></trkpt><trkpt lat="46.199320562025974" lon="13.532477998684472"><ele>1129.0</ele><time>2026-03-28T13:24:41.999Z</time></trkpt><trkpt lat="46.199322307870894" lon="13.532630023499213"><ele>1133.0</ele><time>2026-03-28T13:24:42.999Z</time></trkpt><trkpt lat="46.19932415370503" lon="13.532800503186499"><ele>1133.5</ele><time>2026-03-28T13:24:43.999Z</time></trkpt><trkpt lat="46.199328568443555" lon="13.532992878646295"><ele>1134.0</ele><time>2026-03-28T13:24:44.999Z</time></trkpt><trkpt lat="46.19933856552553" lon="13.533209173111926"><ele>1134.5</ele><time>2026-03-28T13:24:45.999Z</time></trkpt><trkpt lat="46.1993472583415" lon="13.533439556049695"><ele>1135.0</ele><time>2026-03-28T13:24:46.999Z</time></trkpt><trkpt lat="46.19935441527753" lon="13.53369192788845"><ele>1136.3333333333333</ele><time>2026-03-28T13:24:47.999Z</time></trkpt><trkpt lat="46.19935664549003" lon="13.533958722666334"><ele>1137.6666666666667</ele><time>2026-03-28T13:24:48.999Z</time></trkpt><trkpt lat="46.199359376909584" lon="13.53423180086171"><ele>1139.0</ele><time>2026-03-28T13:24:49.999Z</time></trkpt><trkpt lat="46.19936095408976" lon="13.534505047933985"><ele>1140.0</ele><time>2026-03-28T13:24:50.999Z</time></trkpt><trkpt lat="46.19936612003088" lon="13.534777701094555"><ele>1141.0</ele><time>2026-03-28T13:24:51.999Z</time></trkpt><trkpt lat="46.19937303718354" lon="13.535051955349726"><ele>1142.0</ele><time>2026-03-28T13:24:52.999Z</time></trkpt><trkpt lat="46.19938436930245" lon="13.535337249507963"><ele>1143.3333333333335</ele><time>2026-03-28T13:24:53.999Z</time></trkpt><trkpt lat="46.19939477592829" lon="13.535629219355002"><ele>1144.6666666666667</ele><time>2026-03-28T13:24:54.999Z</time></trkpt><trkpt lat="46.1994055814562" lon="13.535927319467062"><ele>1146.0</ele><time>2026-03-28T13:24:55.999Z</time></trkpt><trkpt lat="46.19941962250595" lon="13.536219316927944"><ele>1147.3333333333333</ele><time>2026-03-28T13:24:56.999Z</time></trkpt><trkpt lat="46.19943323047972" lon="13.536494705149666"><ele>1148.6666666666665</ele><time>2026-03-28T13:24:57.999Z</time></trkpt><trkpt lat="46.19945185855581" lon="13.536769985389663"><ele>1150.0</ele><time>2026-03-28T13:24:58.999Z</time></trkpt><trkpt lat="46.19948074463207" lon="13.537053926320413"><ele>1150.6666666666665</ele><time>2026-03-28T13:24:59.999Z</time></trkpt><trkpt lat="46.199522937706675" lon="13.537349059023185"><ele>1151.3333333333333</ele><time>2026-03-28T13:25:00.999Z</time></trkpt><trkpt lat="46.19957231716759" lon="13.53765463929988"><ele>1152.0</ele><time>2026-03-28T13:25:01.999Z</time></trkpt><trkpt lat="46.19962397114416" lon="13.537957677110228"><ele>1152.6666666666667</ele><time>2026-03-28T13:25:02.999Z</time></trkpt><trkpt lat="46.19967558720694" lon="13.538259931139809"><ele>1153.3333333333335</ele><time>2026-03-28T13:25:03.999Z</time></trkpt><trkpt lat="46.199726582148145" lon="13.538563503030423"><ele>1154.0</ele><time>2026-03-28T13:25:04.999Z</time></trkpt><trkpt lat="46.19977687108632" lon="13.53885651426837"><ele>1158.3333333333335</ele><time>2026-03-28T13:25:05.999Z</time></trkpt><trkpt lat="46.199822122398324" lon="13.53911849615652"><ele>1162.6666666666667</ele><time>2026-03-28T13:25:06.999Z</time></trkpt><trkpt lat="46.199854772772206" lon="13.539374827913363"><ele>1167.0</ele><time>2026-03-28T13:25:07.999Z</time></trkpt><trkpt lat="46.199864049562954" lon="13.539626584854421"><ele>1169.3333333333333</ele><time>2026-03-28T13:25:08.999Z</time></trkpt><trkpt lat="46.199852204059" lon="13.539884901097068"><ele>1171.6666666666665</ele><time>2026-03-28T13:25:09.999Z</time></trkpt><trkpt lat="46.19981986490826" lon="13.54014333963283"><ele>1174.0</ele><time>2026-03-28T13:25:10.999Z</time></trkpt><trkpt lat="46.19978147849891" lon="13.540396275870156"><ele>1174.75</ele><time>2026-03-28T13:25:11.999Z</time></trkpt><trkpt lat="46.19977075983558" lon="13.54060696174157"><ele>1175.5</ele><time>2026-03-28T13:25:12.999Z</time></trkpt><trkpt lat="46.199726811703954" lon="13.540781209891659"><ele>1176.25</ele><time>2026-03-28T13:25:13.999Z</time></trkpt><trkpt lat="46.199725137116054" lon="13.54096163620085"><ele>1177.0</ele><time>2026-03-28T13:25:14.999Z</time></trkpt><trkpt lat="46.19974610245099" lon="13.541154567886638"><ele>1177.5</ele><time>2026-03-28T13:25:15.999Z</time></trkpt><trkpt lat="46.19979670376209" lon="13.541342769843201"><ele>1178.0</ele><time>2026-03-28T13:25:16.999Z</time></trkpt><trkpt lat="46.19986809450096" lon="13.541531419653488"><ele>1178.5</ele><time>2026-03-28T13:25:17.999Z</time></trkpt><trkpt lat="46.199943194823426" lon="13.541733987389595"><ele>1179.0</ele><time>2026-03-28T13:25:18.999Z</time></trkpt><trkpt lat="46.200006266429355" lon="13.541963763577455"><ele>1187.6666666666667</ele><time>2026-03-28T13:25:19.999Z</time></trkpt><trkpt lat="46.20007342706439" lon="13.542211539484684"><ele>1196.3333333333335</ele><time>2026-03-28T13:25:20.999Z</time></trkpt><trkpt lat="46.20013475173917" lon="13.542478411525668"><ele>1205.0</ele><time>2026-03-28T13:25:21.999Z</time></trkpt><trkpt lat="46.200194601777284" lon="13.54273648250702"><ele>1205.5</ele><time>2026-03-28T13:25:22.999Z</time></trkpt><trkpt lat="46.20025158465885" lon="13.542964036812178"><ele>1206.0</ele><time>2026-03-28T13:25:23.999Z</time></trkpt><trkpt lat="46.20029844850731" lon="13.54314891185129"><ele>1206.5</ele><time>2026-03-28T13:25:24.999Z</time></trkpt><trkpt lat="46.20034355567884" lon="13.543316878370193"><ele>1207.0</ele><time>2026-03-28T13:25:26Z</time></trkpt><trkpt lat="46.20041248770572" lon="13.543478426340425"><ele>1207.0</ele><time>2026-03-28T13:25:27Z</time></trkpt><trkpt lat="46.20050541096801" lon="13.543613884956924"><ele>1207.0</ele><time>2026-03-28T13:25:28Z</time></trkpt><trkpt lat="46.2006025403307" lon="13.543726105319804"><ele>1207.0</ele><time>2026-03-28T13:25:29Z</time></trkpt><trkpt lat="46.200686297696485" lon="13.543807732784881"><ele>1207.0</ele><time>2026-03-28T13:25:30Z</time></trkpt><trkpt lat="46.20077265642374" lon="13.543870286290472"><ele>1209.0</ele><time>2026-03-28T13:25:31Z</time></trkpt><trkpt lat="46.20086278763764" lon="13.543880989760057"><ele>1211.0</ele><time>2026-03-28T13:25:32Z</time></trkpt><trkpt lat="46.200950368262006" lon="13.543822993230593"><ele>1213.0</ele><time>2026-03-28T13:25:33Z</time></trkpt><trkpt lat="46.2010272381563" lon="13.54371909038256"><ele>1215.0</ele><time>2026-03-28T13:25:34Z</time></trkpt><trkpt lat="46.201094898086346" lon="13.543578042957604"><ele>1217.0</ele><time>2026-03-28T13:25:35Z</time></trkpt><trkpt lat="46.20116657649302" lon="13.543437206856533"><ele>1219.0</ele><time>2026-03-28T13:25:36Z</time></trkpt><trkpt lat="46.20124224558805" lon="13.54332661911445"><ele>1221.0</ele><time>2026-03-28T13:25:37Z</time></trkpt><trkpt lat="46.20133179904211" lon="13.543266666460774"><ele>1223.0</ele><time>2026-03-28T13:25:38Z</time></trkpt><trkpt lat="46.201428858852836" lon="13.543247618251302"><ele>1225.0</ele><time>2026-03-28T13:25:39Z</time></trkpt><trkpt lat="46.201529832451484" lon="13.543264002616443"><ele>1227.0</ele><time>2026-03-28T13:25:40Z</time></trkpt><trkpt lat="46.201631190602264" lon="13.543308822373051"><ele>1230.2</ele><time>2026-03-28T13:25:41Z</time></trkpt><trkpt lat="46.20173903609458" lon="13.543349565081693"><ele>1233.4</ele><time>2026-03-28T13:25:42Z</time></trkpt><trkpt lat="46.201828518884845" lon="13.54336907681809"><ele>1236.6</ele><time>2026-03-28T13:25:43Z</time></trkpt><trkpt lat="46.20191178040932" lon="13.54336938556136"><ele>1239.8</ele><time>2026-03-28T13:25:44Z</time></trkpt><trkpt lat="46.20198702609654" lon="13.543319966598679"><ele>1243.0</ele><time>2026-03-28T13:25:45Z</time></trkpt><trkpt lat="46.20203863115493" lon="13.543219070169034"><ele>1243.0</ele><time>2026-03-28T13:25:46Z</time></trkpt><trkpt lat="46.20208073218175" lon="13.543096160461104"><ele>1243.0</ele><time>2026-03-28T13:25:47Z</time></trkpt><trkpt lat="46.20213149176815" lon="13.54297130193502"><ele>1243.0</ele><time>2026-03-28T13:25:48Z</time></trkpt><trkpt lat="46.20218245977965" lon="13.542853838422456"><ele>1243.0</ele><time>2026-03-28T13:25:49Z</time></trkpt><trkpt lat="46.20222305840892" lon="13.54275271408932"><ele>1243.0</ele><time>2026-03-28T13:25:50Z</time></trkpt><trkpt lat="46.202260080198144" lon="13.542657157428758"><ele>1243.0</ele><time>2026-03-28T13:25:51Z</time></trkpt><trkpt lat="46.20229219303561" lon="13.542572835209993"><ele>1244.5</ele><time>2026-03-28T13:25:52Z</time></trkpt><trkpt lat="46.202322937996755" lon="13.54248599875186"><ele>1246.0</ele><time>2026-03-28T13:25:53Z</time></trkpt><trkpt lat="46.20235890504663" lon="13.542371382742633"><ele>1247.5</ele><time>2026-03-28T13:25:55.999Z</time></trkpt><trkpt lat="46.2023897490586" lon="13.542263631089934"><ele>1249.0</ele><time>2026-03-28T13:25:57.999Z</time></trkpt><trkpt lat="46.20241225215906" lon="13.542102421279663"><ele>1250.5</ele><time>2026-03-28T13:25:59.999Z</time></trkpt><trkpt lat="46.20240801297129" lon="13.54200611747341"><ele>1252.0</ele><time>2026-03-28T13:26:00.999Z</time></trkpt><trkpt lat="46.20239300674954" lon="13.541889760723002"><ele>1254.0</ele><time>2026-03-28T13:26:01.999Z</time></trkpt><trkpt lat="46.20235963870568" lon="13.541749993529216"><ele>1256.0</ele><time>2026-03-28T13:26:02.999Z</time></trkpt><trkpt lat="46.20232071320711" lon="13.541593145997277"><ele>1258.0</ele><time>2026-03-28T13:26:03.999Z</time></trkpt><trkpt lat="46.20227740375523" lon="13.541427914510198"><ele>1260.0</ele><time>2026-03-28T13:26:04.999Z</time></trkpt><trkpt lat="46.20223145396383" lon="13.54124948273961"><ele>1260.5</ele><time>2026-03-28T13:26:05.999Z</time></trkpt><trkpt lat="46.202185733853014" lon="13.541057410213709"><ele>1261.0</ele><time>2026-03-28T13:26:06.999Z</time></trkpt><trkpt lat="46.20213516362381" lon="13.540861891717665"><ele>1261.5</ele><time>2026-03-28T13:26:07.999Z</time></trkpt><trkpt lat="46.202083210111276" lon="13.540672320151186"><ele>1262.0</ele><time>2026-03-28T13:26:08.999Z</time></trkpt><trkpt lat="46.20203785877171" lon="13.54049165955696"><ele>1263.25</ele><time>2026-03-28T13:26:09.999Z</time></trkpt><trkpt lat="46.202008801185066" lon="13.540303283574286"><ele>1264.5</ele><time>2026-03-28T13:26:10.999Z</time></trkpt><trkpt lat="46.20200119965347" lon="13.540105021961848"><ele>1265.75</ele><time>2026-03-28T13:26:11.999Z</time></trkpt><trkpt lat="46.20200622857341" lon="13.539904981127204"><ele>1267.0</ele><time>2026-03-28T13:26:12.999Z</time></trkpt><trkpt lat="46.20201285367654" lon="13.539704667372597"><ele>1267.5</ele><time>2026-03-28T13:26:13.999Z</time></trkpt><trkpt lat="46.202020312300036" lon="13.539507044089419"><ele>1268.0</ele><time>2026-03-28T13:26:14.999Z</time></trkpt><trkpt lat="46.2020374798073" lon="13.539309753226636"><ele>1268.5</ele><time>2026-03-28T13:26:15.999Z</time></trkpt><trkpt lat="46.202064330565435" lon="13.53910997414048"><ele>1269.0</ele><time>2026-03-28T13:26:16.999Z</time></trkpt><trkpt lat="46.20209511946235" lon="13.538906208171415"><ele>1268.5</ele><time>2026-03-28T13:26:17.999Z</time></trkpt><trkpt lat="46.20212768240294" lon="13.53869730703691"><ele>1268.0</ele><time>2026-03-28T13:26:18.999Z</time></trkpt><trkpt lat="46.20215829396021" lon="13.538486585201355"><ele>1267.5</ele><time>2026-03-28T13:26:19.999Z</time></trkpt><trkpt lat="46.202192698023715" lon="13.538279633661194"><ele>1267.0</ele><time>2026-03-28T13:26:20.999Z</time></trkpt><trkpt lat="46.20222916065883" lon="13.53808568755437"><ele>1267.0</ele><time>2026-03-28T13:26:21.999Z</time></trkpt><trkpt lat="46.20225420557364" lon="13.537927446949219"><ele>1267.0</ele><time>2026-03-28T13:26:22.999Z</time></trkpt><trkpt lat="46.20227401892929" lon="13.53779151930957"><ele>1267.0</ele><time>2026-03-28T13:26:23.999Z</time></trkpt><trkpt lat="46.20229220437281" lon="13.537684920063743"><ele>1267.0</ele><time>2026-03-28T13:26:24.999Z</time></trkpt><trkpt lat="46.20235377986427" lon="13.537554389435742"><ele>1267.0</ele><time>2026-03-28T13:26:26.999Z</time></trkpt><trkpt lat="46.20247385518966" lon="13.53758494428858"><ele>1274.6</ele><time>2026-03-28T13:26:28.999Z</time></trkpt><trkpt lat="46.20253256324961" lon="13.537660381359396"><ele>1282.2</ele><time>2026-03-28T13:26:29.999Z</time></trkpt><trkpt lat="46.20255891565355" lon="13.53776747342661"><ele>1289.8</ele><time>2026-03-28T13:26:30.999Z</time></trkpt><trkpt lat="46.20254343213121" lon="13.537899283095358"><ele>1297.4</ele><time>2026-03-28T13:26:31.999Z</time></trkpt><trkpt lat="46.20250409619312" lon="13.538050535577234"><ele>1305.0</ele><time>2026-03-28T13:26:32.999Z</time></trkpt><trkpt lat="46.202465534842425" lon="13.538242823312473"><ele>1305.5</ele><time>2026-03-28T13:26:33.999Z</time></trkpt><trkpt lat="46.20242895607566" lon="13.538421423293952"><ele>1306.0</ele><time>2026-03-28T13:26:34.999Z</time></trkpt><trkpt lat="46.20241059280236" lon="13.53857989115561"><ele>1306.5</ele><time>2026-03-28T13:26:35.999Z</time></trkpt><trkpt lat="46.20242302055614" lon="13.538732340254462"><ele>1307.0</ele><time>2026-03-28T13:26:36.999Z</time></trkpt><trkpt lat="46.20245712612797" lon="13.538874833134566"><ele>1307.6</ele><time>2026-03-28T13:26:37.999Z</time></trkpt><trkpt lat="46.202507716935" lon="13.539010630766754"><ele>1308.1999999999998</ele><time>2026-03-28T13:26:38.999Z</time></trkpt><trkpt lat="46.20256121930096" lon="13.539146217371655"><ele>1308.8</ele><time>2026-03-28T13:26:39.999Z</time></trkpt><trkpt lat="46.202616366847906" lon="13.539279076476845"><ele>1309.4</ele><time>2026-03-28T13:26:40.999Z</time></trkpt><trkpt lat="46.20265872767877" lon="13.539401112604292"><ele>1310.0</ele><time>2026-03-28T13:26:41.999Z</time></trkpt><trkpt lat="46.202688423320765" lon="13.53950887415594"><ele>1310.0</ele><time>2026-03-28T13:26:42.999Z</time></trkpt><trkpt lat="46.20272575688314" lon="13.539605380208357"><ele>1310.0</ele><time>2026-03-28T13:26:43.999Z</time></trkpt><trkpt lat="46.202769552981344" lon="13.53968250317718"><ele>1310.0</ele><time>2026-03-28T13:26:44.999Z</time></trkpt><trkpt lat="46.20287557841595" lon="13.539747697511757"><ele>1310.0</ele><time>2026-03-28T13:26:46.999Z</time></trkpt><trkpt lat="46.20296850934863" lon="13.539646471712592"><ele>1310.0</ele><time>2026-03-28T13:26:48.999Z</time></trkpt><trkpt lat="46.203046758053716" lon="13.53945897567836"><ele>1310.0</ele><time>2026-03-28T13:26:50.999Z</time></trkpt><trkpt lat="46.20304277798303" lon="13.539366202117348"><ele>1310.0</ele><time>2026-03-28T13:26:51.999Z</time></trkpt><trkpt lat="46.20287208718917" lon="13.539284844298635"><ele>1310.0</ele><time>2026-03-28T13:26:52.999Z</time></trkpt><trkpt lat="46.20282758565766" lon="13.539156925394524"><ele>1310.0</ele><time>2026-03-28T13:26:54.999Z</time></trkpt><trkpt lat="46.20276467052543" lon="13.53913812048041"><ele>1310.0</ele><time>2026-03-28T13:32:01.999Z</time></trkpt><trkpt lat="46.20278583355777" lon="13.5389988467475"><ele>1310.0</ele><time>2026-03-28T13:36:52.999Z</time></trkpt><trkpt lat="46.202757268477164" lon="13.5388440400898"><ele>1310.0</ele><time>2026-03-28T13:36:54.999Z</time></trkpt><trkpt lat="46.20273574598639" lon="13.538747622848144"><ele>1310.0</ele><time>2026-03-28T13:36:55.999Z</time></trkpt><trkpt lat="46.20271781302325" lon="13.538641553690983"><ele>1310.0</ele><time>2026-03-28T13:36:56.999Z</time></trkpt><trkpt lat="46.20270309843511" lon="13.53854653500515"><ele>1310.0</ele><time>2026-03-28T13:36:57.999Z</time></trkpt><trkpt lat="46.202693840648" lon="13.538450318303552"><ele>1310.0</ele><time>2026-03-28T13:36:58.999Z</time></trkpt><trkpt lat="46.202689994839744" lon="13.538346299974858"><ele>1309.5</ele><time>2026-03-28T13:36:59.999Z</time></trkpt><trkpt lat="46.20269778008046" lon="13.538234696587553"><ele>1309.0</ele><time>2026-03-28T13:37:00.999Z</time></trkpt><trkpt lat="46.20270118580112" lon="13.538120454783739"><ele>1308.5</ele><time>2026-03-28T13:37:01.999Z</time></trkpt><trkpt lat="46.20270831994913" lon="13.538013818466627"><ele>1308.0</ele><time>2026-03-28T13:37:02.999Z</time></trkpt><trkpt lat="46.20272789559143" lon="13.53790923009561"><ele>1307.5</ele><time>2026-03-28T13:37:03.999Z</time></trkpt><trkpt lat="46.20274365672089" lon="13.537806946337419"><ele>1307.0</ele><time>2026-03-28T13:37:04.998Z</time></trkpt><trkpt lat="46.20275954329225" lon="13.53770146735801"><ele>1306.7142857142856</ele><time>2026-03-28T13:37:05.998Z</time></trkpt><trkpt lat="46.202778871661195" lon="13.537599639804126"><ele>1306.4285714285716</ele><time>2026-03-28T13:37:06.998Z</time></trkpt><trkpt lat="46.20279438696556" lon="13.537498761558812"><ele>1306.142857142857</ele><time>2026-03-28T13:37:07.998Z</time></trkpt><trkpt lat="46.20280993031123" lon="13.537401753521511"><ele>1305.8571428571427</ele><time>2026-03-28T13:37:08.998Z</time></trkpt><trkpt lat="46.202812640945595" lon="13.537302411829042"><ele>1305.5714285714284</ele><time>2026-03-28T13:37:09.998Z</time></trkpt><trkpt lat="46.20279169967817" lon="13.537201149301321"><ele>1305.2857142857142</ele><time>2026-03-28T13:37:10.998Z</time></trkpt><trkpt lat="46.20275632710677" lon="13.537113784854624"><ele>1305.0</ele><time>2026-03-28T13:37:11.998Z</time></trkpt><trkpt lat="46.202707665742054" lon="13.537036483522403"><ele>1305.0</ele><time>2026-03-28T13:37:12.998Z</time></trkpt><trkpt lat="46.20265186480368" lon="13.53697479598631"><ele>1305.0</ele><time>2026-03-28T13:37:13.998Z</time></trkpt><trkpt lat="46.20260324867627" lon="13.536911288432972"><ele>1305.0</ele><time>2026-03-28T13:37:14.998Z</time></trkpt><trkpt lat="46.20250335079446" lon="13.53684190950065"><ele>1305.0</ele><time>2026-03-28T13:37:16.998Z</time></trkpt><trkpt lat="46.20239822429833" lon="13.53686455185102"><ele>1305.0</ele><time>2026-03-28T13:37:18.998Z</time></trkpt><trkpt lat="46.20232519063004" lon="13.537001317393457"><ele>1298.8333333333333</ele><time>2026-03-28T13:37:20.998Z</time></trkpt><trkpt lat="46.202312001838195" lon="13.537183100762805"><ele>1292.6666666666667</ele><time>2026-03-28T13:37:22.998Z</time></trkpt><trkpt lat="46.20231176794589" lon="13.537275337194457"><ele>1286.5</ele><time>2026-03-28T13:37:23.998Z</time></trkpt><trkpt lat="46.20231062686736" lon="13.537388879940954"><ele>1280.3333333333335</ele><time>2026-03-28T13:37:24.998Z</time></trkpt><trkpt lat="46.20230748600999" lon="13.537495377542841"><ele>1274.1666666666667</ele><time>2026-03-28T13:37:25.998Z</time></trkpt><trkpt lat="46.20229809375437" lon="13.537613304813407"><ele>1268.0</ele><time>2026-03-28T13:37:26.998Z</time></trkpt><trkpt lat="46.20227841270412" lon="13.537744012120527"><ele>1268.0</ele><time>2026-03-28T13:37:27.999Z</time></trkpt><trkpt lat="46.20224974203769" lon="13.537881627773626"><ele>1268.0</ele><time>2026-03-28T13:37:28.999Z</time></trkpt><trkpt lat="46.20222519087531" lon="13.538025497487922"><ele>1268.0</ele><time>2026-03-28T13:37:29.999Z</time></trkpt><trkpt lat="46.20220252065234" lon="13.538173040781796"><ele>1268.0</ele><time>2026-03-28T13:37:30.999Z</time></trkpt><trkpt lat="46.20217624353438" lon="13.53832233720469"><ele>1268.0</ele><time>2026-03-28T13:37:31.999Z</time></trkpt><trkpt lat="46.20215059090313" lon="13.538468119445572"><ele>1267.8</ele><time>2026-03-28T13:37:32.999Z</time></trkpt><trkpt lat="46.202123495199345" lon="13.538614900090298"><ele>1267.6</ele><time>2026-03-28T13:37:33.999Z</time></trkpt><trkpt lat="46.202100162962914" lon="13.538759955698366"><ele>1267.4</ele><time>2026-03-28T13:37:34.999Z</time></trkpt><trkpt lat="46.20207953312092" lon="13.538907771434321"><ele>1267.2</ele><time>2026-03-28T13:37:35.999Z</time></trkpt><trkpt lat="46.202054544941795" lon="13.53905217166756"><ele>1267.0</ele><time>2026-03-28T13:37:36.999Z</time></trkpt><trkpt lat="46.20203039563309" lon="13.53919406623101"><ele>1267.0</ele><time>2026-03-28T13:37:37.999Z</time></trkpt><trkpt lat="46.20201104960596" lon="13.539336445182975"><ele>1267.0</ele><time>2026-03-28T13:37:38.999Z</time></trkpt><trkpt lat="46.20199957794061" lon="13.539478411463493"><ele>1267.0</ele><time>2026-03-28T13:37:39.999Z</time></trkpt><trkpt lat="46.20199290708839" lon="13.539621451121521"><ele>1267.0</ele><time>2026-03-28T13:37:40.999Z</time></trkpt><trkpt lat="46.20198730688419" lon="13.539763363020926"><ele>1267.0</ele><time>2026-03-28T13:37:41.999Z</time></trkpt><trkpt lat="46.201984470359385" lon="13.539905991243083"><ele>1267.0</ele><time>2026-03-28T13:37:42.999Z</time></trkpt><trkpt lat="46.2019859342488" lon="13.540047292573066"><ele>1267.0</ele><time>2026-03-28T13:37:43.999Z</time></trkpt><trkpt lat="46.20198502014366" lon="13.540189508861229"><ele>1267.0</ele><time>2026-03-28T13:37:44.999Z</time></trkpt><trkpt lat="46.20199678886268" lon="13.540328587019513"><ele>1267.0</ele><time>2026-03-28T13:37:45.999Z</time></trkpt><trkpt lat="46.20202131372996" lon="13.540476447622922"><ele>1267.0</ele><time>2026-03-28T13:37:46.999Z</time></trkpt><trkpt lat="46.20206073859175" lon="13.540625171654472"><ele>1266.0</ele><time>2026-03-28T13:37:47.999Z</time></trkpt><trkpt lat="46.202103800108674" lon="13.540773543953403"><ele>1265.0</ele><time>2026-03-28T13:37:48.999Z</time></trkpt><trkpt lat="46.20214185644941" lon="13.540923710256033"><ele>1264.0</ele><time>2026-03-28T13:37:49.999Z</time></trkpt><trkpt lat="46.20218479540951" lon="13.541074570171425"><ele>1263.0</ele><time>2026-03-28T13:37:50.999Z</time></trkpt><trkpt lat="46.20222040668882" lon="13.541225153747423"><ele>1262.0</ele><time>2026-03-28T13:37:51.999Z</time></trkpt><trkpt lat="46.20225863577077" lon="13.541375827867984"><ele>1261.6</ele><time>2026-03-28T13:37:52.999Z</time></trkpt><trkpt lat="46.2023006358234" lon="13.54151520136437"><ele>1261.2</ele><time>2026-03-28T13:37:53.999Z</time></trkpt><trkpt lat="46.20234026205122" lon="13.541651823302763"><ele>1260.8</ele><time>2026-03-28T13:37:54.999Z</time></trkpt><trkpt lat="46.20237440485035" lon="13.54178670803345"><ele>1260.4</ele><time>2026-03-28T13:37:55.999Z</time></trkpt><trkpt lat="46.20238823828217" lon="13.541925941825893"><ele>1260.0</ele><time>2026-03-28T13:37:56.999Z</time></trkpt><trkpt lat="46.20238978441123" lon="13.542063462955689"><ele>1258.8</ele><time>2026-03-28T13:37:57.999Z</time></trkpt><trkpt lat="46.20237599548209" lon="13.54219917367435"><ele>1257.6</ele><time>2026-03-28T13:37:58.999Z</time></trkpt><trkpt lat="46.202348990581775" lon="13.542329252878062"><ele>1256.4</ele><time>2026-03-28T13:37:59.999Z</time></trkpt><trkpt lat="46.20230651702568" lon="13.542452670345643"><ele>1255.2</ele><time>2026-03-28T13:38:00.999Z</time></trkpt><trkpt lat="46.2022570053695" lon="13.542572561755732"><ele>1254.0</ele><time>2026-03-28T13:38:01.999Z</time></trkpt><trkpt lat="46.20220751579683" lon="13.542693019846885"><ele>1254.0</ele><time>2026-03-28T13:38:02.999Z</time></trkpt><trkpt lat="46.20216263370937" lon="13.54281880692486"><ele>1254.0</ele><time>2026-03-28T13:38:03.999Z</time></trkpt><trkpt lat="46.20211981617422" lon="13.542943386768687"><ele>1254.0</ele><time>2026-03-28T13:38:04.999Z</time></trkpt><trkpt lat="46.20207699921937" lon="13.5430628227702"><ele>1254.0</ele><time>2026-03-28T13:38:05.999Z</time></trkpt><trkpt lat="46.20203259856819" lon="13.543168443750124"><ele>1254.0</ele><time>2026-03-28T13:38:06.999Z</time></trkpt><trkpt lat="46.20198596189174" lon="13.543262509549054"><ele>1252.1666666666667</ele><time>2026-03-28T13:38:07.999Z</time></trkpt><trkpt lat="46.20191632078819" lon="13.543312816395467"><ele>1250.3333333333333</ele><time>2026-03-28T13:38:08.999Z</time></trkpt><trkpt lat="46.20185045474356" lon="13.543356507362681"><ele>1248.5</ele><time>2026-03-28T13:38:09.999Z</time></trkpt><trkpt lat="46.201774357024526" lon="13.543300745827837"><ele>1246.6666666666665</ele><time>2026-03-28T13:38:10.999Z</time></trkpt><trkpt lat="46.20168331968195" lon="13.54325782638253"><ele>1244.8333333333333</ele><time>2026-03-28T13:38:11.999Z</time></trkpt><trkpt lat="46.201587323941716" lon="13.543243630690492"><ele>1243.0</ele><time>2026-03-28T13:38:12.999Z</time></trkpt><trkpt lat="46.201496630872015" lon="13.543210302192941"><ele>1240.3333333333333</ele><time>2026-03-28T13:38:13.999Z</time></trkpt><trkpt lat="46.20140938811418" lon="13.54319572069679"><ele>1237.6666666666665</ele><time>2026-03-28T13:38:14.999Z</time></trkpt><trkpt lat="46.20132263262942" lon="13.543204835017114"><ele>1235.0</ele><time>2026-03-28T13:38:15.999Z</time></trkpt><trkpt lat="46.20124445122057" lon="13.543257441510187"><ele>1232.3333333333333</ele><time>2026-03-28T13:38:16.999Z</time></trkpt><trkpt lat="46.201182810506815" lon="13.543344745973274"><ele>1229.6666666666667</ele><time>2026-03-28T13:38:17.999Z</time></trkpt><trkpt lat="46.20113205388925" lon="13.54345021893859"><ele>1227.0</ele><time>2026-03-28T13:38:18.999Z</time></trkpt><trkpt lat="46.20108215538125" lon="13.543567247014703"><ele>1227.0</ele><time>2026-03-28T13:38:19.999Z</time></trkpt><trkpt lat="46.20102499812754" lon="13.543670112207897"><ele>1227.0</ele><time>2026-03-28T13:38:20.999Z</time></trkpt><trkpt lat="46.200968397637126" lon="13.543761598495385"><ele>1227.0</ele><time>2026-03-28T13:38:21.999Z</time></trkpt><trkpt lat="46.200906268800026" lon="13.543828920080689"><ele>1227.0</ele><time>2026-03-28T13:38:22.999Z</time></trkpt><trkpt lat="46.20082914116558" lon="13.543846368588174"><ele>1227.0</ele><time>2026-03-28T13:38:23.999Z</time></trkpt><trkpt lat="46.200749111207" lon="13.543817632769489"><ele>1227.0</ele><time>2026-03-28T13:38:24.999Z</time></trkpt><trkpt lat="46.20067885544941" lon="13.543731351036438"><ele>1223.0</ele><time>2026-03-28T13:38:25.999Z</time></trkpt><trkpt lat="46.20060309424394" lon="13.543653757217031"><ele>1219.0</ele><time>2026-03-28T13:38:26.999Z</time></trkpt><trkpt lat="46.20051755014697" lon="13.543585168958552"><ele>1215.0</ele><time>2026-03-28T13:38:27.999Z</time></trkpt><trkpt lat="46.200449304097866" lon="13.543490542060509"><ele>1211.0</ele><time>2026-03-28T13:38:28.999Z</time></trkpt><trkpt lat="46.200392870937016" lon="13.543388058622005"><ele>1207.0</ele><time>2026-03-28T13:38:29.999Z</time></trkpt><trkpt lat="46.200362750188255" lon="13.54325378599366"><ele>1207.0</ele><time>2026-03-28T13:38:30.999Z</time></trkpt><trkpt lat="46.20032234785659" lon="13.543109314695904"><ele>1207.0</ele><time>2026-03-28T13:38:31.999Z</time></trkpt><trkpt lat="46.20027006432117" lon="13.542956311973901"><ele>1207.0</ele><time>2026-03-28T13:38:32.999Z</time></trkpt><trkpt lat="46.20023291926571" lon="13.542786632191248"><ele>1207.0</ele><time>2026-03-28T13:38:33.999Z</time></trkpt><trkpt lat="46.20018834601834" lon="13.542615383384097"><ele>1207.0</ele><time>2026-03-28T13:38:34.999Z</time></trkpt><trkpt lat="46.20016145667942" lon="13.542426883580099"><ele>1207.0</ele><time>2026-03-28T13:38:35.999Z</time></trkpt><trkpt lat="46.20011609600172" lon="13.542246815874817"><ele>1207.0</ele><time>2026-03-28T13:38:36.999Z</time></trkpt><trkpt lat="46.20006957021202" lon="13.542068478089925"><ele>1207.0</ele><time>2026-03-28T13:38:37.999Z</time></trkpt><trkpt lat="46.200007415008066" lon="13.541900863895169"><ele>1207.0</ele><time>2026-03-28T13:38:38.999Z</time></trkpt><trkpt lat="46.199964981607955" lon="13.541729582838707"><ele>1207.0</ele><time>2026-03-28T13:38:39.999Z</time></trkpt><trkpt lat="46.19991060229038" lon="13.54157267911612"><ele>1207.0</ele><time>2026-03-28T13:38:40.999Z</time></trkpt><trkpt lat="46.199849195385966" lon="13.541427928912235"><ele>1207.0</ele><time>2026-03-28T13:38:41.999Z</time></trkpt><trkpt lat="46.19979901433083" lon="13.541289055395765"><ele>1201.0</ele><time>2026-03-28T13:38:42.999Z</time></trkpt><trkpt lat="46.199760752173376" lon="13.541151093633621"><ele>1195.0</ele><time>2026-03-28T13:38:43.999Z</time></trkpt><trkpt lat="46.19974203245109" lon="13.541002647791245"><ele>1189.0</ele><time>2026-03-28T13:38:44.999Z</time></trkpt><trkpt lat="46.199739788944484" lon="13.540852433432814"><ele>1183.0</ele><time>2026-03-28T13:38:45.999Z</time></trkpt><trkpt lat="46.199755924985425" lon="13.54070105683329"><ele>1177.0</ele><time>2026-03-28T13:38:46.999Z</time></trkpt><trkpt lat="46.19977833147832" lon="13.54054303378152"><ele>1176.25</ele><time>2026-03-28T13:38:47.999Z</time></trkpt><trkpt lat="46.1997999918511" lon="13.540380523608082"><ele>1175.5</ele><time>2026-03-28T13:38:48.999Z</time></trkpt><trkpt lat="46.19982321799113" lon="13.540212026713867"><ele>1174.75</ele><time>2026-03-28T13:38:49.999Z</time></trkpt><trkpt lat="46.1998464518009" lon="13.540039951867522"><ele>1174.0</ele><time>2026-03-28T13:38:50.999Z</time></trkpt><trkpt lat="46.19986573707208" lon="13.539863716885069"><ele>1172.25</ele><time>2026-03-28T13:38:51.999Z</time></trkpt><trkpt lat="46.19987552197424" lon="13.539685545498704"><ele>1170.5</ele><time>2026-03-28T13:38:52.999Z</time></trkpt><trkpt lat="46.199874523393824" lon="13.539499875510089"><ele>1168.75</ele><time>2026-03-28T13:38:53.999Z</time></trkpt><trkpt lat="46.19985911668292" lon="13.539306053123216"><ele>1167.0</ele><time>2026-03-28T13:38:54.999Z</time></trkpt><trkpt lat="46.19983238166094" lon="13.539106756050447"><ele>1167.0</ele><time>2026-03-28T13:38:55.999Z</time></trkpt><trkpt lat="46.19979931391647" lon="13.538903035139775"><ele>1167.0</ele><time>2026-03-28T13:38:56.999Z</time></trkpt><trkpt lat="46.199762897171" lon="13.538694840855255"><ele>1167.0</ele><time>2026-03-28T13:38:57.999Z</time></trkpt><trkpt lat="46.19972820248013" lon="13.53847704949424"><ele>1167.0</ele><time>2026-03-28T13:38:58.999Z</time></trkpt><trkpt lat="46.19969202027842" lon="13.538259849270352"><ele>1162.6666666666667</ele><time>2026-03-28T13:38:59.999Z</time></trkpt><trkpt lat="46.19965567575565" lon="13.53803797086112"><ele>1158.3333333333335</ele><time>2026-03-28T13:39:00.999Z</time></trkpt><trkpt lat="46.19962095908259" lon="13.537821232073656"><ele>1154.0</ele><time>2026-03-28T13:39:01.999Z</time></trkpt><trkpt lat="46.19958441117441" lon="13.537607138481173"><ele>1153.5</ele><time>2026-03-28T13:39:02.999Z</time></trkpt><trkpt lat="46.19954994918393" lon="13.537394372115106"><ele>1153.0</ele><time>2026-03-28T13:39:03.999Z</time></trkpt><trkpt lat="46.199521318763225" lon="13.537183199554491"><ele>1152.5</ele><time>2026-03-28T13:39:04.999Z</time></trkpt><trkpt lat="46.19949871386712" lon="13.536977390411243"><ele>1152.0</ele><time>2026-03-28T13:39:05.999Z</time></trkpt><trkpt lat="46.19947855915888" lon="13.53677511778981"><ele>1151.5</ele><time>2026-03-28T13:39:06.999Z</time></trkpt><trkpt lat="46.199461780366995" lon="13.536575063945994"><ele>1151.0</ele><time>2026-03-28T13:39:07.999Z</time></trkpt><trkpt lat="46.19944955729783" lon="13.536374506480392"><ele>1150.5</ele><time>2026-03-28T13:39:08.999Z</time></trkpt><trkpt lat="46.19943765371689" lon="13.536180533816111"><ele>1150.0</ele><time>2026-03-28T13:39:09.999Z</time></trkpt><trkpt lat="46.19942763200183" lon="13.535989422990788"><ele>1149.0</ele><time>2026-03-28T13:39:10.999Z</time></trkpt><trkpt lat="46.19941874598118" lon="13.535800521062372"><ele>1148.0</ele><time>2026-03-28T13:39:11.999Z</time></trkpt><trkpt lat="46.19940984319487" lon="13.535615004057302"><ele>1147.0</ele><time>2026-03-28T13:39:12.999Z</time></trkpt><trkpt lat="46.19940211667272" lon="13.535431078217414"><ele>1146.0</ele><time>2026-03-28T13:39:13.999Z</time></trkpt><trkpt lat="46.19939761791987" lon="13.535248623114509"><ele>1145.0</ele><time>2026-03-28T13:39:14.999Z</time></trkpt><trkpt lat="46.199393730265996" lon="13.535064679466286"><ele>1144.0</ele><time>2026-03-28T13:39:15.999Z</time></trkpt><trkpt lat="46.199389337596166" lon="13.534878426935439"><ele>1143.0</ele><time>2026-03-28T13:39:16.999Z</time></trkpt><trkpt lat="46.199384565426556" lon="13.53469334566954"><ele>1142.0</ele><time>2026-03-28T13:39:17.999Z</time></trkpt><trkpt lat="46.19938202173649" lon="13.534512387310626"><ele>1141.25</ele><time>2026-03-28T13:39:18.999Z</time></trkpt><trkpt lat="46.19937931944622" lon="13.534331222983148"><ele>1140.5</ele><time>2026-03-28T13:39:19.999Z</time></trkpt><trkpt lat="46.19937553768187" lon="13.534144927687437"><ele>1139.75</ele><time>2026-03-28T13:39:20.999Z</time></trkpt><trkpt lat="46.1993713531889" lon="13.533944761117713"><ele>1139.0</ele><time>2026-03-28T13:39:21.999Z</time></trkpt><trkpt lat="46.199366566324876" lon="13.5337392002206"><ele>1138.0</ele><time>2026-03-28T13:39:22.999Z</time></trkpt><trkpt lat="46.19936525313406" lon="13.533532878014595"><ele>1137.0</ele><time>2026-03-28T13:39:23.999Z</time></trkpt><trkpt lat="46.199362628696434" lon="13.533330131321172"><ele>1136.0</ele><time>2026-03-28T13:39:24.999Z</time></trkpt><trkpt lat="46.19936207384911" lon="13.533138858491899"><ele>1135.0</ele><time>2026-03-28T13:39:25.999Z</time></trkpt><trkpt lat="46.19936256863643" lon="13.532964091176026"><ele>1134.6</ele><time>2026-03-28T13:39:26.999Z</time></trkpt><trkpt lat="46.19936003787196" lon="13.53281074243174"><ele>1134.2</ele><time>2026-03-28T13:39:27.999Z</time></trkpt><trkpt lat="46.19935452185166" lon="13.532664865493173"><ele>1133.8</ele><time>2026-03-28T13:39:28.999Z</time></trkpt><trkpt lat="46.199349853719156" lon="13.53252968145793"><ele>1133.4</ele><time>2026-03-28T13:39:29.999Z</time></trkpt><trkpt lat="46.1993439377962" lon="13.532410876145793"><ele>1133.0</ele><time>2026-03-28T13:39:30.999Z</time></trkpt><trkpt lat="46.19932024432601" lon="13.532304136418345"><ele>1133.0</ele><time>2026-03-28T13:39:31.999Z</time></trkpt><trkpt lat="46.19927149530859" lon="13.532227438633438"><ele>1133.0</ele><time>2026-03-28T13:39:32.999Z</time></trkpt><trkpt lat="46.199213396649384" lon="13.532159997994613"><ele>1133.0</ele><time>2026-03-28T13:39:33.999Z</time></trkpt><trkpt lat="46.19912516241752" lon="13.532174653980267"><ele>1133.0</ele><time>2026-03-28T13:39:34.999Z</time></trkpt><trkpt lat="46.19903795665689" lon="13.532186835365678"><ele>1133.0</ele><time>2026-03-28T13:39:35.999Z</time></trkpt><trkpt lat="46.19893961260195" lon="13.532206422085457"><ele>1133.0</ele><time>2026-03-28T13:39:36.999Z</time></trkpt><trkpt lat="46.198842659683585" lon="13.53222176222672"><ele>1129.0</ele><time>2026-03-28T13:39:37.999Z</time></trkpt><trkpt lat="46.19875258263906" lon="13.53225933852597"><ele>1125.0</ele><time>2026-03-28T13:39:38.999Z</time></trkpt><trkpt lat="46.19868050621861" lon="13.53233263260824"><ele>1121.0</ele><time>2026-03-28T13:39:39.999Z</time></trkpt><trkpt lat="46.19863582845968" lon="13.532434422659904"><ele>1117.0</ele><time>2026-03-28T13:39:40.999Z</time></trkpt><trkpt lat="46.1986095666395" lon="13.5325417789672"><ele>1113.0</ele><time>2026-03-28T13:39:41.999Z</time></trkpt><trkpt lat="46.19859893753004" lon="13.532673790730177"><ele>1109.0</ele><time>2026-03-28T13:39:42.999Z</time></trkpt><trkpt lat="46.19858709553274" lon="13.532817653665543"><ele>1109.5</ele><time>2026-03-28T13:39:44Z</time></trkpt><trkpt lat="46.19857072382594" lon="13.532975232813737"><ele>1110.0</ele><time>2026-03-28T13:39:44.999Z</time></trkpt><trkpt lat="46.198558392486824" lon="13.533160507384544"><ele>1110.5</ele><time>2026-03-28T13:39:46Z</time></trkpt><trkpt lat="46.19853436068085" lon="13.53338606848323"><ele>1111.0</ele><time>2026-03-28T13:39:47Z</time></trkpt><trkpt lat="46.19850150198327" lon="13.533632216698512"><ele>1109.6666666666665</ele><time>2026-03-28T13:39:48Z</time></trkpt><trkpt lat="46.19847261136135" lon="13.53391161854774"><ele>1108.3333333333333</ele><time>2026-03-28T13:39:49Z</time></trkpt><trkpt lat="46.19843698481499" lon="13.534202672444394"><ele>1107.0</ele><time>2026-03-28T13:39:50Z</time></trkpt><trkpt lat="46.1984029617789" lon="13.534498207385022"><ele>1106.3333333333333</ele><time>2026-03-28T13:39:50.999Z</time></trkpt><trkpt lat="46.198378158412" lon="13.534778946995754"><ele>1105.6666666666665</ele><time>2026-03-28T13:39:51.999Z</time></trkpt><trkpt lat="46.19835216563608" lon="13.535048428792425"><ele>1105.0</ele><time>2026-03-28T13:39:52.999Z</time></trkpt><trkpt lat="46.19831898593742" lon="13.535303912065475"><ele>1105.75</ele><time>2026-03-28T13:39:53.999Z</time></trkpt><trkpt lat="46.19829416744762" lon="13.535552577119839"><ele>1106.5</ele><time>2026-03-28T13:39:54.999Z</time></trkpt><trkpt lat="46.19827079257198" lon="13.535768189038448"><ele>1107.25</ele><time>2026-03-28T13:39:55.999Z</time></trkpt><trkpt lat="46.19825168700101" lon="13.53594586950802"><ele>1108.0</ele><time>2026-03-28T13:39:56.999Z</time></trkpt><trkpt lat="46.198234794755756" lon="13.536093964785989"><ele>1108.0</ele><time>2026-03-28T13:39:57.999Z</time></trkpt><trkpt lat="46.19821636202373" lon="13.536204780307095"><ele>1108.0</ele><time>2026-03-28T13:39:58.999Z</time></trkpt><trkpt lat="46.19817628663437" lon="13.536283928210876"><ele>1108.0</ele><time>2026-03-28T13:39:59.999Z</time></trkpt><trkpt lat="46.19810983303448" lon="13.53631340035441"><ele>1108.0</ele><time>2026-03-28T13:40:00.999Z</time></trkpt><trkpt lat="46.19804917660217" lon="13.536267967132693"><ele>1108.0</ele><time>2026-03-28T13:40:01.999Z</time></trkpt><trkpt lat="46.19800519600967" lon="13.536165502272123"><ele>1108.0</ele><time>2026-03-28T13:40:02.999Z</time></trkpt><trkpt lat="46.19798802720724" lon="13.536026033770352"><ele>1102.5</ele><time>2026-03-28T13:40:03.999Z</time></trkpt><trkpt lat="46.19796371377702" lon="13.535859097562229"><ele>1097.0</ele><time>2026-03-28T13:40:04.999Z</time></trkpt><trkpt lat="46.19793054558097" lon="13.535668738741004"><ele>1091.5</ele><time>2026-03-28T13:40:05.999Z</time></trkpt><trkpt lat="46.19788948907074" lon="13.535457193408439"><ele>1086.0</ele><time>2026-03-28T13:40:06.999Z</time></trkpt><trkpt lat="46.19785614543587" lon="13.535235794771689"><ele>1086.0</ele><time>2026-03-28T13:40:07.999Z</time></trkpt><trkpt lat="46.197819938736274" lon="13.53502661724715"><ele>1086.0</ele><time>2026-03-28T13:40:08.999Z</time></trkpt><trkpt lat="46.19778764571036" lon="13.534862914113907"><ele>1086.0</ele><time>2026-03-28T13:40:09.999Z</time></trkpt><trkpt lat="46.19775783497909" lon="13.534728450659303"><ele>1086.0</ele><time>2026-03-28T13:40:10.999Z</time></trkpt><trkpt lat="46.19770466382139" lon="13.534625798730257"><ele>1086.0</ele><time>2026-03-28T13:40:11.999Z</time></trkpt><trkpt lat="46.19762604524959" lon="13.534573614335281"><ele>1086.0</ele><time>2026-03-28T13:40:12.999Z</time></trkpt><trkpt lat="46.19753235908789" lon="13.534570411826008"><ele>1086.0</ele><time>2026-03-28T13:40:13.999Z</time></trkpt><trkpt lat="46.19742185241393" lon="13.534619066912498"><ele>1086.0</ele><time>2026-03-28T13:40:14.999Z</time></trkpt><trkpt lat="46.19730128771221" lon="13.534672384882631"><ele>1086.0</ele><time>2026-03-28T13:40:15.999Z</time></trkpt><trkpt lat="46.1971824232532" lon="13.534709332849888"><ele>1083.0</ele><time>2026-03-28T13:40:16.999Z</time></trkpt><trkpt lat="46.19707719381232" lon="13.534728132255779"><ele>1080.0</ele><time>2026-03-28T13:40:17.999Z</time></trkpt><trkpt lat="46.19698174829472" lon="13.534708178539459"><ele>1077.0</ele><time>2026-03-28T13:40:18.999Z</time></trkpt><trkpt lat="46.196898253547516" lon="13.534647182518627"><ele>1074.0</ele><time>2026-03-28T13:40:19.999Z</time></trkpt><trkpt lat="46.19683664008984" lon="13.534545819409065"><ele>1071.0</ele><time>2026-03-28T13:40:20.999Z</time></trkpt><trkpt lat="46.19679511043991" lon="13.534399814156153"><ele>1070.0</ele><time>2026-03-28T13:40:21.999Z</time></trkpt><trkpt lat="46.19679053808839" lon="13.53425392690679"><ele>1069.0</ele><time>2026-03-28T13:40:22.999Z</time></trkpt><trkpt lat="46.196817309053564" lon="13.53410631052138"><ele>1068.0</ele><time>2026-03-28T13:40:23.999Z</time></trkpt><trkpt lat="46.1968568852043" lon="13.533944282573566"><ele>1067.0</ele><time>2026-03-28T13:40:24.999Z</time></trkpt><trkpt lat="46.19689619473321" lon="13.533760368368757"><ele>1064.5</ele><time>2026-03-28T13:40:25.999Z</time></trkpt><trkpt lat="46.19693908630552" lon="13.53357266871794"><ele>1062.0</ele><time>2026-03-28T13:40:26.999Z</time></trkpt><trkpt lat="46.1969828210846" lon="13.533389596320891"><ele>1059.5</ele><time>2026-03-28T13:40:27.999Z</time></trkpt><trkpt lat="46.19701741980035" lon="13.533229200504778"><ele>1057.0</ele><time>2026-03-28T13:40:28.999Z</time></trkpt><trkpt lat="46.19704032840328" lon="13.533073572575761"><ele>1057.0</ele><time>2026-03-28T13:40:29.999Z</time></trkpt><trkpt lat="46.19704823372083" lon="13.532914397038395"><ele>1057.0</ele><time>2026-03-28T13:40:30.999Z</time></trkpt><trkpt lat="46.19703127277552" lon="13.532750539916274"><ele>1057.0</ele><time>2026-03-28T13:40:31.999Z</time></trkpt><trkpt lat="46.19698303065141" lon="13.53259376045281"><ele>1057.0</ele><time>2026-03-28T13:40:32.999Z</time></trkpt><trkpt lat="46.19694340158797" lon="13.53244035559419"><ele>1055.4</ele><time>2026-03-28T13:40:33.999Z</time></trkpt><trkpt lat="46.19689883446412" lon="13.532308155165312"><ele>1053.8000000000002</ele><time>2026-03-28T13:40:34.999Z</time></trkpt><trkpt lat="46.19689403341062" lon="13.53216363728747"><ele>1052.2</ele><time>2026-03-28T13:40:35.999Z</time></trkpt><trkpt lat="46.19692131586062" lon="13.5320083916667"><ele>1050.6000000000001</ele><time>2026-03-28T13:40:36.999Z</time></trkpt><trkpt lat="46.1969710782888" lon="13.53185616748021"><ele>1049.0</ele><time>2026-03-28T13:40:37.999Z</time></trkpt><trkpt lat="46.19702884436841" lon="13.531694022108358"><ele>1047.25</ele><time>2026-03-28T13:40:38.999Z</time></trkpt><trkpt lat="46.19708010185389" lon="13.531533770713361"><ele>1045.5</ele><time>2026-03-28T13:40:39.999Z</time></trkpt><trkpt lat="46.19712419697709" lon="13.531376629487417"><ele>1043.75</ele><time>2026-03-28T13:40:40.999Z</time></trkpt><trkpt lat="46.19715395748628" lon="13.53121547687273"><ele>1042.0</ele><time>2026-03-28T13:40:41.999Z</time></trkpt><trkpt lat="46.19712207800181" lon="13.5310379893495"><ele>1041.75</ele><time>2026-03-28T13:40:42.999Z</time></trkpt><trkpt lat="46.197085091697105" lon="13.530855361063425"><ele>1041.5</ele><time>2026-03-28T13:40:43.999Z</time></trkpt><trkpt lat="46.19703392053634" lon="13.53066290800422"><ele>1041.25</ele><time>2026-03-28T13:40:44.999Z</time></trkpt><trkpt lat="46.19701504309724" lon="13.530459668901774"><ele>1041.0</ele><time>2026-03-28T13:40:45.999Z</time></trkpt><trkpt lat="46.19699278006308" lon="13.530268744781425"><ele>1039.3999999999999</ele><time>2026-03-28T13:40:46.999Z</time></trkpt><trkpt lat="46.196963520687795" lon="13.53010909441604"><ele>1037.8</ele><time>2026-03-28T13:40:47.999Z</time></trkpt><trkpt lat="46.19696840786865" lon="13.529962933214557"><ele>1036.1999999999998</ele><time>2026-03-28T13:40:48.999Z</time></trkpt><trkpt lat="46.197001079421554" lon="13.529817492724973"><ele>1034.6</ele><time>2026-03-28T13:40:49.999Z</time></trkpt><trkpt lat="46.197058691635405" lon="13.529676183198841"><ele>1033.0</ele><time>2026-03-28T13:40:50.999Z</time></trkpt><trkpt lat="46.19712677307656" lon="13.529535458447173"><ele>1030.0</ele><time>2026-03-28T13:40:51.999Z</time></trkpt><trkpt lat="46.197183493136734" lon="13.529394353913784"><ele>1027.0</ele><time>2026-03-28T13:40:52.999Z</time></trkpt><trkpt lat="46.197237154529326" lon="13.529258481145039"><ele>1024.0</ele><time>2026-03-28T13:40:53.999Z</time></trkpt><trkpt lat="46.19724424068349" lon="13.529092757390083"><ele>1021.0</ele><time>2026-03-28T13:40:54.999Z</time></trkpt><trkpt lat="46.19719907584905" lon="13.528930772164887"><ele>1021.0</ele><time>2026-03-28T13:40:55.999Z</time></trkpt><trkpt lat="46.197175513323884" lon="13.528766981587372"><ele>1020.9999999999999</ele><time>2026-03-28T13:40:56.999Z</time></trkpt><trkpt lat="46.19717537921206" lon="13.528604222074245"><ele>1020.9999999999999</ele><time>2026-03-28T13:40:57.999Z</time></trkpt><trkpt lat="46.19719690436177" lon="13.528449417453484"><ele>1021.0</ele><time>2026-03-28T13:40:58.999Z</time></trkpt><trkpt lat="46.197229034538495" lon="13.528301499532141"><ele>1021.0</ele><time>2026-03-28T13:40:59.999Z</time></trkpt><trkpt lat="46.19727075486329" lon="13.528153035411963"><ele>1019.8</ele><time>2026-03-28T13:41:00.999Z</time></trkpt><trkpt lat="46.197308530273354" lon="13.52800328399086"><ele>1018.5999999999999</ele><time>2026-03-28T13:41:01.999Z</time></trkpt><trkpt lat="46.197344206991744" lon="13.527851250702167"><ele>1017.4</ele><time>2026-03-28T13:41:02.999Z</time></trkpt><trkpt lat="46.197376502524286" lon="13.527703498873302"><ele>1016.2</ele><time>2026-03-28T13:41:03.999Z</time></trkpt><trkpt lat="46.197413565146036" lon="13.527564083675768"><ele>1015.0</ele><time>2026-03-28T13:41:04.999Z</time></trkpt><trkpt lat="46.19743878332278" lon="13.52743041108413"><ele>1014.8</ele><time>2026-03-28T13:41:05.999Z</time></trkpt><trkpt lat="46.19744180683261" lon="13.527308191188608"><ele>1014.6</ele><time>2026-03-28T13:41:06.999Z</time></trkpt><trkpt lat="46.197420394743716" lon="13.527192440364605"><ele>1014.4000000000001</ele><time>2026-03-28T13:41:07.999Z</time></trkpt><trkpt lat="46.197366789850314" lon="13.527097354209124"><ele>1014.2</ele><time>2026-03-28T13:41:08.999Z</time></trkpt><trkpt lat="46.19728445956942" lon="13.527031153524147"><ele>1014.0</ele><time>2026-03-28T13:41:09.999Z</time></trkpt><trkpt lat="46.197179376103385" lon="13.526979873486376"><ele>1014.0</ele><time>2026-03-28T13:41:10.999Z</time></trkpt><trkpt lat="46.19706374954735" lon="13.52694139448149"><ele>1014.0000000000001</ele><time>2026-03-28T13:41:11.999Z</time></trkpt><trkpt lat="46.19695588980135" lon="13.526913762801964"><ele>1014.0000000000001</ele><time>2026-03-28T13:41:12.999Z</time></trkpt><trkpt lat="46.196847092520585" lon="13.52691289085218"><ele>1014.0</ele><time>2026-03-28T13:41:13.999Z</time></trkpt><trkpt lat="46.19673919309146" lon="13.526944894814497"><ele>1014.0</ele><time>2026-03-28T13:41:14.999Z</time></trkpt><trkpt lat="46.196636120625485" lon="13.527025063833735"><ele>1013.8000000000001</ele><time>2026-03-28T13:41:15.999Z</time></trkpt><trkpt lat="46.19654334518768" lon="13.52711991832344"><ele>1013.6000000000001</ele><time>2026-03-28T13:41:16.999Z</time></trkpt><trkpt lat="46.19646231666493" lon="13.527216177595463"><ele>1013.4</ele><time>2026-03-28T13:41:17.999Z</time></trkpt><trkpt lat="46.196383388821154" lon="13.527305843775741"><ele>1013.2</ele><time>2026-03-28T13:41:18.999Z</time></trkpt><trkpt lat="46.196309283441195" lon="13.527398648499274"><ele>1013.0</ele><time>2026-03-28T13:41:19.999Z</time></trkpt><trkpt lat="46.196244031751505" lon="13.527498064185954"><ele>1008.8</ele><time>2026-03-28T13:41:20.999Z</time></trkpt><trkpt lat="46.196190686112125" lon="13.527609172567338"><ele>1004.5999999999999</ele><time>2026-03-28T13:41:21.999Z</time></trkpt><trkpt lat="46.196167823383284" lon="13.52774209154432"><ele>1000.4000000000001</ele><time>2026-03-28T13:41:22.999Z</time></trkpt><trkpt lat="46.196170061308536" lon="13.527892815744831"><ele>996.2</ele><time>2026-03-28T13:41:23.999Z</time></trkpt><trkpt lat="46.19619872141352" lon="13.52806591337316"><ele>992.0</ele><time>2026-03-28T13:41:24.999Z</time></trkpt><trkpt lat="46.19622931706412" lon="13.528256093835338"><ele>990.75</ele><time>2026-03-28T13:41:25.999Z</time></trkpt><trkpt lat="46.196257561118145" lon="13.528456035042845"><ele>989.5</ele><time>2026-03-28T13:41:26.999Z</time></trkpt><trkpt lat="46.19626663214786" lon="13.528650963425015"><ele>988.25</ele><time>2026-03-28T13:41:27.999Z</time></trkpt><trkpt lat="46.196244259541565" lon="13.528834096430643"><ele>987.0</ele><time>2026-03-28T13:41:28.999Z</time></trkpt><trkpt lat="46.19618360705551" lon="13.529002204274184"><ele>987.0</ele><time>2026-03-28T13:41:29.999Z</time></trkpt><trkpt lat="46.19609448809361" lon="13.529157834505886"><ele>987.0</ele><time>2026-03-28T13:41:30.999Z</time></trkpt><trkpt lat="46.195991255493524" lon="13.529312969834898"><ele>987.0</ele><time>2026-03-28T13:41:31.999Z</time></trkpt><trkpt lat="46.19587988516984" lon="13.529496488497855"><ele>989.3333333333333</ele><time>2026-03-28T13:41:32.999Z</time></trkpt><trkpt lat="46.195770572467936" lon="13.529699501482169"><ele>991.6666666666666</ele><time>2026-03-28T13:41:33.999Z</time></trkpt><trkpt lat="46.19566847900912" lon="13.529912320830201"><ele>994.0</ele><time>2026-03-28T13:41:34.999Z</time></trkpt><trkpt lat="46.19557140545549" lon="13.53012539114887"><ele>984.6666666666666</ele><time>2026-03-28T13:41:35.999Z</time></trkpt><trkpt lat="46.1954847454993" lon="13.530327216736927"><ele>975.3333333333333</ele><time>2026-03-28T13:41:36.999Z</time></trkpt><trkpt lat="46.195422018423145" lon="13.530529572925396"><ele>966.0</ele><time>2026-03-28T13:41:37.999Z</time></trkpt><trkpt lat="46.19538250480978" lon="13.530746382261773"><ele>966.0</ele><time>2026-03-28T13:41:38.999Z</time></trkpt><trkpt lat="46.195365746670895" lon="13.530973454096854"><ele>966.0</ele><time>2026-03-28T13:41:40Z</time></trkpt><trkpt lat="46.19534990236594" lon="13.5311920224957"><ele>966.0</ele><time>2026-03-28T13:41:41Z</time></trkpt><trkpt lat="46.19532752433039" lon="13.531404246637742"><ele>966.75</ele><time>2026-03-28T13:41:42Z</time></trkpt><trkpt lat="46.19530527080118" lon="13.531614300766137"><ele>967.5</ele><time>2026-03-28T13:41:43Z</time></trkpt><trkpt lat="46.19528111811129" lon="13.531818763425951"><ele>968.25</ele><time>2026-03-28T13:41:44Z</time></trkpt><trkpt lat="46.19523860900691" lon="13.532005114839954"><ele>969.0</ele><time>2026-03-28T13:41:45Z</time></trkpt><trkpt lat="46.195178351916965" lon="13.532189011994321"><ele>969.3333333333333</ele><time>2026-03-28T13:41:46Z</time></trkpt><trkpt lat="46.19509661754157" lon="13.532381934547272"><ele>969.6666666666666</ele><time>2026-03-28T13:41:47Z</time></trkpt><trkpt lat="46.19499568694987" lon="13.53258288422262"><ele>970.0</ele><time>2026-03-28T13:41:48Z</time></trkpt><trkpt lat="46.19489172694329" lon="13.532791178593476"><ele>963.3333333333333</ele><time>2026-03-28T13:41:49Z</time></trkpt><trkpt lat="46.19480046140598" lon="13.532992156124212"><ele>956.6666666666667</ele><time>2026-03-28T13:41:50Z</time></trkpt><trkpt lat="46.19471462159653" lon="13.533166965439955"><ele>950.0</ele><time>2026-03-28T13:41:51Z</time></trkpt><trkpt lat="46.194617464645894" lon="13.53331691873225"><ele>950.0</ele><time>2026-03-28T13:41:52Z</time></trkpt><trkpt lat="46.19450586572324" lon="13.53343255138054"><ele>950.0</ele><time>2026-03-28T13:41:53Z</time></trkpt><trkpt lat="46.19439496360009" lon="13.533487766600528"><ele>950.0</ele><time>2026-03-28T13:41:54Z</time></trkpt><trkpt lat="46.194320304240776" lon="13.533562354995698"><ele>950.0</ele><time>2026-03-28T13:41:55Z</time></trkpt><trkpt lat="46.194239823138616" lon="13.533611743543366"><ele>950.0</ele><time>2026-03-28T13:41:56Z</time></trkpt><trkpt lat="46.1941469530417" lon="13.533676856744732"><ele>952.6</ele><time>2026-03-28T13:41:57Z</time></trkpt><trkpt lat="46.19404782917759" lon="13.533728117776045"><ele>955.2</ele><time>2026-03-28T13:41:58Z</time></trkpt><trkpt lat="46.193947140718834" lon="13.533796394471514"><ele>957.8</ele><time>2026-03-28T13:41:59Z</time></trkpt><trkpt lat="46.19384893643221" lon="13.533882151081018"><ele>960.4</ele><time>2026-03-28T13:42:00Z</time></trkpt><trkpt lat="46.19374536282334" lon="13.53395657242981"><ele>963.0</ele><time>2026-03-28T13:42:01Z</time></trkpt><trkpt lat="46.19365463335709" lon="13.534036005997123"><ele>955.4</ele><time>2026-03-28T13:42:02Z</time></trkpt><trkpt lat="46.193577075060766" lon="13.534127851853732"><ele>947.8</ele><time>2026-03-28T13:42:03Z</time></trkpt><trkpt lat="46.1935113444815" lon="13.534231858792843"><ele>940.2</ele><time>2026-03-28T13:42:04Z</time></trkpt><trkpt lat="46.193452829321856" lon="13.534339349314472"><ele>932.6</ele><time>2026-03-28T13:42:05Z</time></trkpt><trkpt lat="46.19338862865884" lon="13.534441636994138"><ele>925.0</ele><time>2026-03-28T13:42:06Z</time></trkpt><trkpt lat="46.193319829677186" lon="13.53454136163996"><ele>927.8</ele><time>2026-03-28T13:42:07Z</time></trkpt><trkpt lat="46.19325300476494" lon="13.534652355221295"><ele>930.6</ele><time>2026-03-28T13:42:08Z</time></trkpt><trkpt lat="46.193183812032224" lon="13.534766564707953"><ele>933.4000000000001</ele><time>2026-03-28T13:42:09Z</time></trkpt><trkpt lat="46.193119405267815" lon="13.534874661637144"><ele>936.2</ele><time>2026-03-28T13:42:10Z</time></trkpt><trkpt lat="46.19306677924952" lon="13.53499607729677"><ele>939.0</ele><time>2026-03-28T13:42:11Z</time></trkpt><trkpt lat="46.1930261048441" lon="13.535140251082927"><ele>930.5</ele><time>2026-03-28T13:42:12Z</time></trkpt><trkpt lat="46.1930057661504" lon="13.535306226817951"><ele>922.0</ele><time>2026-03-28T13:42:13Z</time></trkpt><trkpt lat="46.192999745298195" lon="13.535479199271151"><ele>913.5</ele><time>2026-03-28T13:42:14Z</time></trkpt><trkpt lat="46.19299505199331" lon="13.53565991878406"><ele>905.0</ele><time>2026-03-28T13:42:15Z</time></trkpt><trkpt lat="46.192991438791296" lon="13.53584299900889"><ele>905.0</ele><time>2026-03-28T13:42:16Z</time></trkpt><trkpt lat="46.19298718559984" lon="13.536010623892006"><ele>905.0</ele><time>2026-03-28T13:42:17Z</time></trkpt><trkpt lat="46.19297451357979" lon="13.536162589217177"><ele>905.0</ele><time>2026-03-28T13:42:18Z</time></trkpt><trkpt lat="46.19294597256782" lon="13.536300609280458"><ele>905.0</ele><time>2026-03-28T13:42:19Z</time></trkpt><trkpt lat="46.19289595226141" lon="13.536416408468252"><ele>905.0</ele><time>2026-03-28T13:42:19.999Z</time></trkpt><trkpt lat="46.19283194003644" lon="13.536522915370854"><ele>906.2</ele><time>2026-03-28T13:42:20.999Z</time></trkpt><trkpt lat="46.19276389205829" lon="13.536636440969177"><ele>907.4</ele><time>2026-03-28T13:42:21.999Z</time></trkpt><trkpt lat="46.19269338398615" lon="13.536756044233767"><ele>908.5999999999999</ele><time>2026-03-28T13:42:22.999Z</time></trkpt><trkpt lat="46.19262521581439" lon="13.536884944520185"><ele>909.8</ele><time>2026-03-28T13:42:23.999Z</time></trkpt><trkpt lat="46.192560074136885" lon="13.537015373204099"><ele>911.0</ele><time>2026-03-28T13:42:24.999Z</time></trkpt><trkpt lat="46.19250402420134" lon="13.53715561369961"><ele>911.0</ele><time>2026-03-28T13:42:25.999Z</time></trkpt><trkpt lat="46.19245985129131" lon="13.537311384271236"><ele>911.0</ele><time>2026-03-28T13:42:26.999Z</time></trkpt><trkpt lat="46.19243214089985" lon="13.537478606860745"><ele>911.0</ele><time>2026-03-28T13:42:27.999Z</time></trkpt><trkpt lat="46.19242291451147" lon="13.537662210083054"><ele>911.0</ele><time>2026-03-28T13:42:28.999Z</time></trkpt><trkpt lat="46.19242714652066" lon="13.53786537550071"><ele>911.0</ele><time>2026-03-28T13:42:29.999Z</time></trkpt><trkpt lat="46.19244388394546" lon="13.538082939979477"><ele>911.0</ele><time>2026-03-28T13:42:30.999Z</time></trkpt><trkpt lat="46.19247050086937" lon="13.538314491661023"><ele>911.0</ele><time>2026-03-28T13:42:31.999Z</time></trkpt><trkpt lat="46.19250277398049" lon="13.53854772381734"><ele>910.5</ele><time>2026-03-28T13:42:32.999Z</time></trkpt><trkpt lat="46.19254034814184" lon="13.53876898353823"><ele>910.0</ele><time>2026-03-28T13:42:33.999Z</time></trkpt><trkpt lat="46.19257172071712" lon="13.538971637835647"><ele>909.5</ele><time>2026-03-28T13:42:34.999Z</time></trkpt><trkpt lat="46.1925965487494" lon="13.539152336558537"><ele>909.0</ele><time>2026-03-28T13:42:35.999Z</time></trkpt><trkpt lat="46.1926160868367" lon="13.539318927057645"><ele>909.0</ele><time>2026-03-28T13:42:36.999Z</time></trkpt><trkpt lat="46.192613873488675" lon="13.539482234032985"><ele>909.0000000000001</ele><time>2026-03-28T13:42:37.999Z</time></trkpt><trkpt lat="46.192579478399615" lon="13.539634882405755"><ele>909.0000000000001</ele><time>2026-03-28T13:42:38.999Z</time></trkpt><trkpt lat="46.192529571601405" lon="13.539772151661396"><ele>909.0</ele><time>2026-03-28T13:42:39.999Z</time></trkpt><trkpt lat="46.192502960973314" lon="13.53991065174292"><ele>909.0</ele><time>2026-03-28T13:42:40.999Z</time></trkpt><trkpt lat="46.192519772376656" lon="13.540060700216745"><ele>906.0</ele><time>2026-03-28T13:42:41.999Z</time></trkpt><trkpt lat="46.19257006471066" lon="13.540248310707323"><ele>903.0</ele><time>2026-03-28T13:42:42.999Z</time></trkpt><trkpt lat="46.19263140335995" lon="13.54045133974078"><ele>900.0</ele><time>2026-03-28T13:42:43.999Z</time></trkpt><trkpt lat="46.19269094410454" lon="13.540670482223069"><ele>898.75</ele><time>2026-03-28T13:42:44.999Z</time></trkpt><trkpt lat="46.19273171786551" lon="13.540871318689957"><ele>897.5</ele><time>2026-03-28T13:42:45.999Z</time></trkpt><trkpt lat="46.192781775627" lon="13.541057936586238"><ele>896.25</ele><time>2026-03-28T13:42:46.999Z</time></trkpt><trkpt lat="46.19283483345774" lon="13.541220881125048"><ele>895.0</ele><time>2026-03-28T13:42:47.999Z</time></trkpt><trkpt lat="46.1928518213038" lon="13.541382626232643"><ele>893.4</ele><time>2026-03-28T13:42:48.999Z</time></trkpt><trkpt lat="46.19283953459592" lon="13.541528578477413"><ele>891.8</ele><time>2026-03-28T13:42:49.999Z</time></trkpt><trkpt lat="46.19279965280411" lon="13.541659309133019"><ele>890.2</ele><time>2026-03-28T13:42:50.999Z</time></trkpt><trkpt lat="46.192729390585285" lon="13.541764742826565"><ele>888.6</ele><time>2026-03-28T13:42:51.999Z</time></trkpt><trkpt lat="46.1926263844427" lon="13.541832301326965"><ele>887.0</ele><time>2026-03-28T13:42:52.999Z</time></trkpt><trkpt lat="46.192533009963" lon="13.541885203864135"><ele>887.0</ele><time>2026-03-28T13:42:53.999Z</time></trkpt><trkpt lat="46.1924655153083" lon="13.541974927673285"><ele>887.0</ele><time>2026-03-28T13:42:54.999Z</time></trkpt><trkpt lat="46.19243445124505" lon="13.542090370088664"><ele>887.0</ele><time>2026-03-28T13:42:55.999Z</time></trkpt><trkpt lat="46.192428930375364" lon="13.542233762182146"><ele>887.0</ele><time>2026-03-28T13:42:56.999Z</time></trkpt><trkpt lat="46.19244177045028" lon="13.542376617511946"><ele>887.0</ele><time>2026-03-28T13:42:57.999Z</time></trkpt><trkpt lat="46.19247050372261" lon="13.542522915592714"><ele>886.6666666666667</ele><time>2026-03-28T13:42:58.999Z</time></trkpt><trkpt lat="46.19250145693268" lon="13.542657534271695"><ele>886.3333333333334</ele><time>2026-03-28T13:42:59.999Z</time></trkpt><trkpt lat="46.192515212656865" lon="13.542778179211943"><ele>886.0</ele><time>2026-03-28T13:43:00.999Z</time></trkpt><trkpt lat="46.19252346091914" lon="13.542870591583917"><ele>885.6666666666667</ele><time>2026-03-28T13:43:01.999Z</time></trkpt><trkpt lat="46.19251740536857" lon="13.542963773820384"><ele>885.3333333333334</ele><time>2026-03-28T13:43:03.999Z</time></trkpt><trkpt lat="46.19253291986153" lon="13.543061432067955"><ele>885.0</ele><time>2026-03-28T13:43:07.999Z</time></trkpt><trkpt lat="46.19253205193259" lon="13.542929114094129"><ele>884.6</ele><time>2026-03-28T13:43:11.999Z</time></trkpt><trkpt lat="46.192535318672945" lon="13.542810242707993"><ele>884.2</ele><time>2026-03-28T13:43:12.999Z</time></trkpt><trkpt lat="46.192525493506906" lon="13.542696650807336"><ele>883.8</ele><time>2026-03-28T13:43:13.999Z</time></trkpt><trkpt lat="46.19249615138552" lon="13.542556775407826"><ele>883.4</ele><time>2026-03-28T13:43:14.999Z</time></trkpt><trkpt lat="46.19246741506802" lon="13.542392303861284"><ele>883.0</ele><time>2026-03-28T13:43:15.999Z</time></trkpt><trkpt lat="46.19244432174279" lon="13.54223712039225"><ele>883.0</ele><time>2026-03-28T13:43:16.999Z</time></trkpt><trkpt lat="46.192466215369066" lon="13.542077025342566"><ele>883.0</ele><time>2026-03-28T13:43:17.999Z</time></trkpt><trkpt lat="46.19249738358403" lon="13.541941984334663"><ele>883.0</ele><time>2026-03-28T13:43:18.999Z</time></trkpt><trkpt lat="46.19256880063317" lon="13.541849204670545"><ele>883.0</ele><time>2026-03-28T13:43:19.999Z</time></trkpt><trkpt lat="46.192665882903526" lon="13.541813719360512"><ele>883.0</ele><time>2026-03-28T13:43:20.999Z</time></trkpt><trkpt lat="46.192758400225394" lon="13.541778418393406"><ele>883.8</ele><time>2026-03-28T13:43:21.999Z</time></trkpt><trkpt lat="46.19281996069808" lon="13.541694167475663"><ele>884.5999999999999</ele><time>2026-03-28T13:43:22.999Z</time></trkpt><trkpt lat="46.1928566793427" lon="13.541587350324559"><ele>885.4000000000001</ele><time>2026-03-28T13:43:23.999Z</time></trkpt><trkpt lat="46.19287067166116" lon="13.541442945610298"><ele>886.2</ele><time>2026-03-28T13:43:24.999Z</time></trkpt><trkpt lat="46.19286537600451" lon="13.541286845381128"><ele>887.0</ele><time>2026-03-28T13:43:25.999Z</time></trkpt><trkpt lat="46.19282939368512" lon="13.541099294053371"><ele>889.6666666666667</ele><time>2026-03-28T13:43:26.999Z</time></trkpt><trkpt lat="46.19276376138912" lon="13.5408864907339"><ele>892.3333333333333</ele><time>2026-03-28T13:43:27.999Z</time></trkpt><trkpt lat="46.19269181752258" lon="13.540638057606596"><ele>895.0</ele><time>2026-03-28T13:43:28.999Z</time></trkpt><trkpt lat="46.192618960471684" lon="13.540381936917399"><ele>896.25</ele><time>2026-03-28T13:43:29.999Z</time></trkpt><trkpt lat="46.19255879083766" lon="13.540154852060796"><ele>897.5</ele><time>2026-03-28T13:43:30.999Z</time></trkpt><trkpt lat="46.19252076179448" lon="13.53998338260572"><ele>898.75</ele><time>2026-03-28T13:43:31.999Z</time></trkpt><trkpt lat="46.192516239405506" lon="13.539860942098617"><ele>900.0</ele><time>2026-03-28T13:43:32.999Z</time></trkpt><trkpt lat="46.192540232305504" lon="13.539751270771864"><ele>900.0</ele><time>2026-03-28T13:43:33.999Z</time></trkpt><trkpt lat="46.19260411109889" lon="13.539611796441624"><ele>900.0</ele><time>2026-03-28T13:43:34.999Z</time></trkpt><trkpt lat="46.19264418983069" lon="13.539454554630803"><ele>900.0</ele><time>2026-03-28T13:43:35.999Z</time></trkpt><trkpt lat="46.19263500256248" lon="13.539273967654063"><ele>900.0</ele><time>2026-03-28T13:43:36.999Z</time></trkpt><trkpt lat="46.192600396753946" lon="13.53906859559643"><ele>903.0</ele><time>2026-03-28T13:43:37.999Z</time></trkpt><trkpt lat="46.192560268733594" lon="13.538835895694275"><ele>906.0</ele><time>2026-03-28T13:43:38.999Z</time></trkpt><trkpt lat="46.192525095158814" lon="13.538586825388476"><ele>909.0</ele><time>2026-03-28T13:43:39.999Z</time></trkpt><trkpt lat="46.19248687511678" lon="13.538331841794168"><ele>909.6666666666667</ele><time>2026-03-28T13:43:40.999Z</time></trkpt><trkpt lat="46.19246098476126" lon="13.538089258410164"><ele>910.3333333333334</ele><time>2026-03-28T13:43:41.999Z</time></trkpt><trkpt lat="46.19244794106959" lon="13.537856296351853"><ele>911.0</ele><time>2026-03-28T13:43:42.999Z</time></trkpt><trkpt lat="46.192447638865836" lon="13.537646767089038"><ele>911.0</ele><time>2026-03-28T13:43:43.999Z</time></trkpt><trkpt lat="46.192460729591495" lon="13.537452648730481"><ele>911.0</ele><time>2026-03-28T13:43:44.999Z</time></trkpt><trkpt lat="46.19248910933703" lon="13.537265209291746"><ele>911.0</ele><time>2026-03-28T13:43:46Z</time></trkpt><trkpt lat="46.19255726506817" lon="13.537081711989195"><ele>911.0</ele><time>2026-03-28T13:43:47Z</time></trkpt><trkpt lat="46.19264520215749" lon="13.536904814385005"><ele>911.25</ele><time>2026-03-28T13:43:48Z</time></trkpt><trkpt lat="46.19274893762076" lon="13.536727820666494"><ele>911.5</ele><time>2026-03-28T13:43:49Z</time></trkpt><trkpt lat="46.192835702579" lon="13.536565293150044"><ele>911.75</ele><time>2026-03-28T13:43:50Z</time></trkpt><trkpt lat="46.19290950450788" lon="13.536435522272221"><ele>912.0</ele><time>2026-03-28T13:43:51Z</time></trkpt><trkpt lat="46.19296477299558" lon="13.536309494652434"><ele>910.25</ele><time>2026-03-28T13:43:52Z</time></trkpt><trkpt lat="46.1929928047674" lon="13.536149479679002"><ele>908.5</ele><time>2026-03-28T13:43:53Z</time></trkpt><trkpt lat="46.19300939740143" lon="13.535958026966581"><ele>906.75</ele><time>2026-03-28T13:43:54Z</time></trkpt><trkpt lat="46.193009845481285" lon="13.535743717869483"><ele>905.0</ele><time>2026-03-28T13:43:55Z</time></trkpt><trkpt lat="46.19301396683182" lon="13.535509137971486"><ele>903.75</ele><time>2026-03-28T13:43:56Z</time></trkpt><trkpt lat="46.19302145236507" lon="13.535307255387465"><ele>902.5</ele><time>2026-03-28T13:43:57Z</time></trkpt><trkpt lat="46.1930507318836" lon="13.535133285855423"><ele>901.25</ele><time>2026-03-28T13:43:58Z</time></trkpt><trkpt lat="46.19310667822465" lon="13.534955382666489"><ele>900.0</ele><time>2026-03-28T13:43:59Z</time></trkpt><trkpt lat="46.19318751685655" lon="13.534793634808102"><ele>908.3333333333333</ele><time>2026-03-28T13:44:00Z</time></trkpt><trkpt lat="46.193286452556116" lon="13.53463788601844"><ele>916.6666666666666</ele><time>2026-03-28T13:44:01Z</time></trkpt><trkpt lat="46.19339111956417" lon="13.534467803685514"><ele>925.0</ele><time>2026-03-28T13:44:02Z</time></trkpt><trkpt lat="46.19348720481392" lon="13.53430095565092"><ele>925.0</ele><time>2026-03-28T13:44:03Z</time></trkpt><trkpt lat="46.19357269047573" lon="13.534172011292465"><ele>925.0</ele><time>2026-03-28T13:44:04Z</time></trkpt><trkpt lat="46.19365058293384" lon="13.534080730668107"><ele>925.0</ele><time>2026-03-28T13:44:05Z</time></trkpt><trkpt lat="46.19373106184805" lon="13.53400830035458"><ele>925.0</ele><time>2026-03-28T13:44:06Z</time></trkpt><trkpt lat="46.19382013515814" lon="13.533943018281358"><ele>925.0</ele><time>2026-03-28T13:44:07Z</time></trkpt><trkpt lat="46.19392723450573" lon="13.533864319853393"><ele>931.25</ele><time>2026-03-28T13:44:08Z</time></trkpt><trkpt lat="46.19404974775578" lon="13.533779077588513"><ele>937.5</ele><time>2026-03-28T13:44:09Z</time></trkpt><trkpt lat="46.19416252928109" lon="13.533678316882364"><ele>943.75</ele><time>2026-03-28T13:44:10Z</time></trkpt><trkpt lat="46.19427271943443" lon="13.53362734362667"><ele>950.0</ele><time>2026-03-28T13:44:11Z</time></trkpt><trkpt lat="46.19432220528297" lon="13.533426420014175"><ele>950.0000000000001</ele><time>2026-03-28T13:44:12Z</time></trkpt><trkpt lat="46.194379751454484" lon="13.53331733500168"><ele>950.0</ele><time>2026-03-28T13:44:13Z</time></trkpt><trkpt lat="46.19442630661136" lon="13.533227505786982"><ele>950.0</ele><time>2026-03-28T13:44:14Z</time></trkpt><trkpt lat="46.19447096107595" lon="13.533148921752273"><ele>950.0</ele><time>2026-03-28T13:44:15Z</time></trkpt><trkpt lat="46.194523532896575" lon="13.53301472537067"><ele>950.0000000000001</ele><time>2026-03-28T13:44:17Z</time></trkpt><trkpt lat="46.19454743988997" lon="13.532906056675792"><ele>950.0</ele><time>2026-03-28T13:44:19Z</time></trkpt><trkpt lat="46.19451987220696" lon="13.532769656982316"><ele>950.0</ele><time>2026-03-28T13:48:37Z</time></trkpt><trkpt lat="46.194501181843904" lon="13.532666481043263"><ele>950.0</ele><time>2026-03-28T13:48:38Z</time></trkpt><trkpt lat="46.19449750261299" lon="13.53252830793489"><ele>950.0</ele><time>2026-03-28T13:48:39Z</time></trkpt><trkpt lat="46.19455173870682" lon="13.53236523116701"><ele>950.0</ele><time>2026-03-28T13:48:40Z</time></trkpt><trkpt lat="46.19457131525855" lon="13.532199379148253"><ele>950.0</ele><time>2026-03-28T13:48:41Z</time></trkpt><trkpt lat="46.19458736062585" lon="13.532055115445127"><ele>948.3333333333334</ele><time>2026-03-28T13:48:42Z</time></trkpt><trkpt lat="46.19460201685802" lon="13.53193378830919"><ele>946.6666666666667</ele><time>2026-03-28T13:48:43Z</time></trkpt><trkpt lat="46.1946267539468" lon="13.53182248025794"><ele>945.0</ele><time>2026-03-28T13:48:44Z</time></trkpt><trkpt lat="46.19464548058297" lon="13.531732465197832"><ele>943.3333333333333</ele><time>2026-03-28T13:48:45Z</time></trkpt><trkpt lat="46.19471492189923" lon="13.531625609065154"><ele>941.6666666666666</ele><time>2026-03-28T13:48:47Z</time></trkpt><trkpt lat="46.19475165205565" lon="13.531545007765004"><ele>940.0</ele><time>2026-03-28T13:48:48Z</time></trkpt><trkpt lat="46.19478844957881" lon="13.531463324435265"><ele>939.9999999999999</ele><time>2026-03-28T13:48:49Z</time></trkpt><trkpt lat="46.194813399340234" lon="13.531357436405994"><ele>940.0</ele><time>2026-03-28T13:48:50Z</time></trkpt><trkpt lat="46.19484473225125" lon="13.53124585276373"><ele>940.0</ele><time>2026-03-28T13:48:51Z</time></trkpt><trkpt lat="46.19484651024825" lon="13.53113740265086"><ele>940.0</ele><time>2026-03-28T13:48:52Z</time></trkpt><trkpt lat="46.19486882930786" lon="13.53102637433708"><ele>939.9999999999999</ele><time>2026-03-28T13:48:53Z</time></trkpt><trkpt lat="46.19487258450634" lon="13.530903826015676"><ele>940.0</ele><time>2026-03-28T13:48:54Z</time></trkpt><trkpt lat="46.19490264255198" lon="13.530808490797453"><ele>944.6</ele><time>2026-03-28T13:48:55Z</time></trkpt><trkpt lat="46.194929390615705" lon="13.530724844273463"><ele>949.2</ele><time>2026-03-28T13:48:56Z</time></trkpt><trkpt lat="46.19494650325261" lon="13.530563101011262"><ele>953.8</ele><time>2026-03-28T13:48:58Z</time></trkpt><trkpt lat="46.19491789579125" lon="13.530384697716405"><ele>958.4</ele><time>2026-03-28T13:49:00Z</time></trkpt><trkpt lat="46.19490960640361" lon="13.5302807287648"><ele>963.0</ele><time>2026-03-28T13:49:01Z</time></trkpt><trkpt lat="46.194906836972876" lon="13.530164203833253"><ele>963.0</ele><time>2026-03-28T13:49:02Z</time></trkpt><trkpt lat="46.1948900764955" lon="13.530041992135986"><ele>963.0</ele><time>2026-03-28T13:49:03Z</time></trkpt><trkpt lat="46.19486250620986" lon="13.52992513590555"><ele>963.0</ele><time>2026-03-28T13:49:04Z</time></trkpt><trkpt lat="46.19482016850031" lon="13.529825909196767"><ele>963.0</ele><time>2026-03-28T13:49:05Z</time></trkpt><trkpt lat="46.194774751416176" lon="13.529728428838794"><ele>963.0</ele><time>2026-03-28T13:49:06Z</time></trkpt><trkpt lat="46.194704310372785" lon="13.529650489552305"><ele>963.0</ele><time>2026-03-28T13:49:07Z</time></trkpt><trkpt lat="46.19460687767062" lon="13.529649546360366"><ele>959.1666666666666</ele><time>2026-03-28T13:49:08Z</time></trkpt><trkpt lat="46.19454099005534" lon="13.529594844439726"><ele>955.3333333333333</ele><time>2026-03-28T13:49:09Z</time></trkpt><trkpt lat="46.194498546995526" lon="13.529514717460586"><ele>951.5</ele><time>2026-03-28T13:49:10Z</time></trkpt><trkpt lat="46.194482656509784" lon="13.529404304034703"><ele>947.6666666666666</ele><time>2026-03-28T13:49:11Z</time></trkpt><trkpt lat="46.19448017353625" lon="13.529284490035831"><ele>943.8333333333333</ele><time>2026-03-28T13:49:12Z</time></trkpt><trkpt lat="46.194479737960776" lon="13.529172343836768"><ele>940.0</ele><time>2026-03-28T13:49:13Z</time></trkpt><trkpt lat="46.194464299460805" lon="13.529019281050704"><ele>939.8333333333333</ele><time>2026-03-28T13:49:15Z</time></trkpt><trkpt lat="46.19442242431169" lon="13.528911882316608"><ele>939.6666666666666</ele><time>2026-03-28T13:49:17Z</time></trkpt><trkpt lat="46.19435364827622" lon="13.52890945936565"><ele>939.5</ele><time>2026-03-28T13:49:18Z</time></trkpt><trkpt lat="46.19430156324902" lon="13.52899913277937"><ele>939.3333333333333</ele><time>2026-03-28T13:49:19Z</time></trkpt><trkpt lat="46.1943341311286" lon="13.52911629560681"><ele>939.1666666666666</ele><time>2026-03-28T13:49:20Z</time></trkpt><trkpt lat="46.19439012423689" lon="13.529261747461486"><ele>939.0</ele><time>2026-03-28T13:49:22Z</time></trkpt><trkpt lat="46.19436469818577" lon="13.529422734289964"><ele>939.0</ele><time>2026-03-28T13:49:24Z</time></trkpt><trkpt lat="46.19429727769807" lon="13.52951456107924"><ele>939.0</ele><time>2026-03-28T13:49:26Z</time></trkpt><trkpt lat="46.194226059086695" lon="13.529554431397347"><ele>939.0</ele><time>2026-03-28T13:49:29Z</time></trkpt><trkpt lat="46.19421356556358" lon="13.529650899486821"><ele>939.0</ele><time>2026-03-28T13:49:32Z</time></trkpt><trkpt lat="46.19424128683416" lon="13.529768018045631"><ele>939.0</ele><time>2026-03-28T13:49:34Z</time></trkpt><trkpt lat="46.194306553779434" lon="13.529888315272231"><ele>939.0</ele><time>2026-03-28T13:49:36Z</time></trkpt><trkpt lat="46.19438562486226" lon="13.53002299868832"><ele>939.2</ele><time>2026-03-28T13:49:38Z</time></trkpt><trkpt lat="46.19440853048918" lon="13.530186716957058"><ele>939.4000000000001</ele><time>2026-03-28T13:49:40Z</time></trkpt><trkpt lat="46.194305588426474" lon="13.530299630845215"><ele>939.6</ele><time>2026-03-28T13:49:42Z</time></trkpt><trkpt lat="46.194233244455205" lon="13.530310191558673"><ele>939.8</ele><time>2026-03-28T13:49:43Z</time></trkpt><trkpt lat="46.19416921586153" lon="13.53032322117689"><ele>940.0</ele><time>2026-03-28T13:49:44Z</time></trkpt><trkpt lat="46.1941102231603" lon="13.530380367295782"><ele>939.4999999999999</ele><time>2026-03-28T13:49:45Z</time></trkpt><trkpt lat="46.19406552017324" lon="13.530471178668174"><ele>939.0</ele><time>2026-03-28T13:49:46Z</time></trkpt><trkpt lat="46.1940256691225" lon="13.530571803526577"><ele>938.5</ele><time>2026-03-28T13:49:47Z</time></trkpt><trkpt lat="46.19398545966712" lon="13.53066902531591"><ele>938.0</ele><time>2026-03-28T13:49:48Z</time></trkpt><trkpt lat="46.19394286072425" lon="13.530766210303973"><ele>937.4999999999999</ele><time>2026-03-28T13:49:49Z</time></trkpt><trkpt lat="46.19389751665995" lon="13.530861250658731"><ele>937.0</ele><time>2026-03-28T13:49:50Z</time></trkpt><trkpt lat="46.19385633725267" lon="13.530956513432695"><ele>933.6666666666666</ele><time>2026-03-28T13:49:51Z</time></trkpt><trkpt lat="46.193819746090035" lon="13.531049606153355"><ele>930.3333333333333</ele><time>2026-03-28T13:49:52Z</time></trkpt><trkpt lat="46.193790192367565" lon="13.531132228201091"><ele>927.0</ele><time>2026-03-28T13:49:53Z</time></trkpt><trkpt lat="46.193721681228254" lon="13.53121136103271"><ele>923.6666666666667</ele><time>2026-03-28T13:49:55Z</time></trkpt><trkpt lat="46.19364760224564" lon="13.531166030726007"><ele>920.3333333333334</ele><time>2026-03-28T13:49:58Z</time></trkpt><trkpt lat="46.19366952144075" lon="13.5309995510478"><ele>917.0</ele><time>2026-03-28T13:50:00Z</time></trkpt><trkpt lat="46.19367390769907" lon="13.530900960346324"><ele>917.0000000000001</ele><time>2026-03-28T13:50:01Z</time></trkpt><trkpt lat="46.193651685674034" lon="13.530796989604879"><ele>917.0</ele><time>2026-03-28T13:50:02Z</time></trkpt><trkpt lat="46.19360905986181" lon="13.530702803374401"><ele>917.0</ele><time>2026-03-28T13:50:03Z</time></trkpt><trkpt lat="46.193540537273776" lon="13.530619136216066"><ele>917.0</ele><time>2026-03-28T13:50:04.001Z</time></trkpt><trkpt lat="46.19346435762045" lon="13.530552213123537"><ele>917.0000000000001</ele><time>2026-03-28T13:50:05.001Z</time></trkpt><trkpt lat="46.19338310964091" lon="13.530493580482783"><ele>917.0</ele><time>2026-03-28T13:50:06.001Z</time></trkpt><trkpt lat="46.193303795689935" lon="13.530436429790775"><ele>917.8333333333334</ele><time>2026-03-28T13:50:07.001Z</time></trkpt><trkpt lat="46.19324104529881" lon="13.53036327374119"><ele>918.6666666666667</ele><time>2026-03-28T13:50:08.001Z</time></trkpt><trkpt lat="46.19319775399076" lon="13.530266614433518"><ele>919.5</ele><time>2026-03-28T13:50:09.001Z</time></trkpt><trkpt lat="46.193178527200246" lon="13.530146238353169"><ele>920.3333333333333</ele><time>2026-03-28T13:50:10.001Z</time></trkpt><trkpt lat="46.19317495368924" lon="13.53002883678398"><ele>921.1666666666666</ele><time>2026-03-28T13:50:11.001Z</time></trkpt><trkpt lat="46.19318583773427" lon="13.529901285049139"><ele>922.0</ele><time>2026-03-28T13:50:12.001Z</time></trkpt><trkpt lat="46.19320714471619" lon="13.52976258420319"><ele>922.0</ele><time>2026-03-28T13:50:13.001Z</time></trkpt><trkpt lat="46.19324200433476" lon="13.529633453042637"><ele>922.0</ele><time>2026-03-28T13:50:14.001Z</time></trkpt><trkpt lat="46.19327126852906" lon="13.529507869937191"><ele>922.0</ele><time>2026-03-28T13:50:15.001Z</time></trkpt><trkpt lat="46.193281189957204" lon="13.52938131362256"><ele>922.0</ele><time>2026-03-28T13:50:16.001Z</time></trkpt><trkpt lat="46.19329886045267" lon="13.52923805930833"><ele>922.0</ele><time>2026-03-28T13:50:17.001Z</time></trkpt><trkpt lat="46.19325615792059" lon="13.529095204032153"><ele>922.2</ele><time>2026-03-28T13:50:18.001Z</time></trkpt><trkpt lat="46.193217562190895" lon="13.52895256902234"><ele>922.4000000000001</ele><time>2026-03-28T13:50:19.001Z</time></trkpt><trkpt lat="46.19319064243201" lon="13.528824725336678"><ele>922.5999999999999</ele><time>2026-03-28T13:50:20.001Z</time></trkpt><trkpt lat="46.19318011058049" lon="13.528703358642955"><ele>922.8</ele><time>2026-03-28T13:50:21.001Z</time></trkpt><trkpt lat="46.19318468402529" lon="13.528586686847133"><ele>923.0</ele><time>2026-03-28T13:50:22.001Z</time></trkpt><trkpt lat="46.19321400834453" lon="13.528470605515414"><ele>923.0</ele><time>2026-03-28T13:50:23.001Z</time></trkpt><trkpt lat="46.19325125156192" lon="13.52833554972751"><ele>923.0</ele><time>2026-03-28T13:50:24.001Z</time></trkpt><trkpt lat="46.19329344766337" lon="13.528194542370224"><ele>923.0</ele><time>2026-03-28T13:50:25.001Z</time></trkpt><trkpt lat="46.193327803030016" lon="13.528057864900484"><ele>923.0</ele><time>2026-03-28T13:50:26.001Z</time></trkpt><trkpt lat="46.19335059127876" lon="13.527920615733493"><ele>923.0</ele><time>2026-03-28T13:50:27.001Z</time></trkpt><trkpt lat="46.19335936033142" lon="13.527782068175506"><ele>923.0</ele><time>2026-03-28T13:50:28.001Z</time></trkpt><trkpt lat="46.193350949289844" lon="13.52763778978046"><ele>923.0</ele><time>2026-03-28T13:50:29Z</time></trkpt><trkpt lat="46.19334724744907" lon="13.52750145396555"><ele>923.0</ele><time>2026-03-28T13:50:30Z</time></trkpt><trkpt lat="46.19334388608404" lon="13.527359966636013"><ele>923.0</ele><time>2026-03-28T13:50:31Z</time></trkpt><trkpt lat="46.19333915378075" lon="13.52722184771865"><ele>923.0</ele><time>2026-03-28T13:50:32Z</time></trkpt><trkpt lat="46.19336757800326" lon="13.527086758776136"><ele>923.0</ele><time>2026-03-28T13:50:33Z</time></trkpt><trkpt lat="46.19340833678629" lon="13.526952896691302"><ele>923.0</ele><time>2026-03-28T13:50:34Z</time></trkpt><trkpt lat="46.19346541942187" lon="13.526831074091373"><ele>923.0</ele><time>2026-03-28T13:50:35Z</time></trkpt><trkpt lat="46.1935061821141" lon="13.526707147812733"><ele>923.0</ele><time>2026-03-28T13:50:36Z</time></trkpt><trkpt lat="46.193540029386774" lon="13.526587598507021"><ele>923.0</ele><time>2026-03-28T13:50:37Z</time></trkpt><trkpt lat="46.19356820667887" lon="13.526482072676398"><ele>923.0</ele><time>2026-03-28T13:50:38Z</time></trkpt><trkpt lat="46.19358994702629" lon="13.52638618960566"><ele>923.0</ele><time>2026-03-28T13:50:39Z</time></trkpt><trkpt lat="46.19356947580391" lon="13.526212779135417"><ele>923.0</ele><time>2026-03-28T13:50:41Z</time></trkpt><trkpt lat="46.1934758272271" lon="13.526126232877155"><ele>923.0</ele><time>2026-03-28T13:50:43Z</time></trkpt><trkpt lat="46.193346781082376" lon="13.526094845369427"><ele>923.0</ele><time>2026-03-28T13:50:45Z</time></trkpt><trkpt lat="46.1932397005445" lon="13.526059122528357"><ele>917.5000000000001</ele><time>2026-03-28T13:50:47Z</time></trkpt><trkpt lat="46.19317520461672" lon="13.526071832945414"><ele>912.0</ele><time>2026-03-28T13:50:50Z</time></trkpt><trkpt lat="46.19310580700378" lon="13.526092473181592"><ele>906.5</ele><time>2026-03-28T13:52:14.001Z</time></trkpt><trkpt lat="46.19315342696039" lon="13.526181050927386"><ele>901.0</ele><time>2026-03-28T13:52:16.001Z</time></trkpt><trkpt lat="46.193277297410056" lon="13.526140553095125"><ele>895.5000000000001</ele><time>2026-03-28T13:52:18.001Z</time></trkpt><trkpt lat="46.19336580165302" lon="13.52613427457477"><ele>890.0</ele><time>2026-03-28T13:52:19.001Z</time></trkpt><trkpt lat="46.19346007576142" lon="13.526147258044686"><ele>890.0</ele><time>2026-03-28T13:52:20.001Z</time></trkpt><trkpt lat="46.193519982305396" lon="13.526186765188024"><ele>890.0</ele><time>2026-03-28T13:52:21Z</time></trkpt><trkpt lat="46.193555864071115" lon="13.526340686399283"><ele>890.0</ele><time>2026-03-28T13:52:23Z</time></trkpt><trkpt lat="46.193532376243304" lon="13.526455937518751"><ele>890.0</ele><time>2026-03-28T13:52:24Z</time></trkpt><trkpt lat="46.19349497263814" lon="13.526598008985935"><ele>890.0</ele><time>2026-03-28T13:52:25Z</time></trkpt><trkpt lat="46.19343646289931" lon="13.52677089408458"><ele>890.0</ele><time>2026-03-28T13:52:26Z</time></trkpt><trkpt lat="46.19337807852376" lon="13.526951257121741"><ele>890.0</ele><time>2026-03-28T13:52:27Z</time></trkpt><trkpt lat="46.193326028376646" lon="13.52713556353757"><ele>890.0</ele><time>2026-03-28T13:52:28Z</time></trkpt><trkpt lat="46.19329223912875" lon="13.52728639210098"><ele>890.0</ele><time>2026-03-28T13:52:29Z</time></trkpt><trkpt lat="46.19328500239666" lon="13.52745177471935"><ele>898.25</ele><time>2026-03-28T13:52:30Z</time></trkpt><trkpt lat="46.19330500120526" lon="13.527639205695516"><ele>906.5</ele><time>2026-03-28T13:52:31Z</time></trkpt><trkpt lat="46.19333506748648" lon="13.52781185849045"><ele>914.75</ele><time>2026-03-28T13:52:32Z</time></trkpt><trkpt lat="46.19333671085342" lon="13.527961118489879"><ele>923.0</ele><time>2026-03-28T13:52:33Z</time></trkpt><trkpt lat="46.193288468795366" lon="13.528097471859349"><ele>923.0</ele><time>2026-03-28T13:52:34Z</time></trkpt><trkpt lat="46.19325166095075" lon="13.528222832836164"><ele>923.0</ele><time>2026-03-28T13:52:35Z</time></trkpt><trkpt lat="46.19321528087134" lon="13.528345952993783"><ele>923.0</ele><time>2026-03-28T13:52:36Z</time></trkpt><trkpt lat="46.19318104000321" lon="13.52846998783114"><ele>923.0</ele><time>2026-03-28T13:52:37Z</time></trkpt><trkpt lat="46.193144572207025" lon="13.528595465448893"><ele>923.0</ele><time>2026-03-28T13:52:38Z</time></trkpt><trkpt lat="46.19312874968051" lon="13.52872639110968"><ele>922.4</ele><time>2026-03-28T13:52:39Z</time></trkpt><trkpt lat="46.19313068804583" lon="13.52884294917071"><ele>921.8</ele><time>2026-03-28T13:52:40Z</time></trkpt><trkpt lat="46.19316286721892" lon="13.528962954609664"><ele>921.2</ele><time>2026-03-28T13:52:41Z</time></trkpt><trkpt lat="46.19320983988943" lon="13.529094815156677"><ele>920.6</ele><time>2026-03-28T13:52:42Z</time></trkpt><trkpt lat="46.19325422851748" lon="13.529243263032043"><ele>920.0</ele><time>2026-03-28T13:52:43Z</time></trkpt><trkpt lat="46.19328238419888" lon="13.529386167475204"><ele>920.0</ele><time>2026-03-28T13:52:44Z</time></trkpt><trkpt lat="46.19328233345647" lon="13.529525776076575"><ele>920.0</ele><time>2026-03-28T13:52:45Z</time></trkpt><trkpt lat="46.19325098006524" lon="13.529653533978744"><ele>920.0</ele><time>2026-03-28T13:52:46Z</time></trkpt><trkpt lat="46.19319441192704" lon="13.529783187984998"><ele>920.0</ele><time>2026-03-28T13:52:47Z</time></trkpt><trkpt lat="46.193164378882564" lon="13.529916479170573"><ele>920.0</ele><time>2026-03-28T13:52:48Z</time></trkpt><trkpt lat="46.193155806764835" lon="13.530038830620384"><ele>920.3333333333334</ele><time>2026-03-28T13:52:49Z</time></trkpt><trkpt lat="46.193161809059774" lon="13.530167051670086"><ele>920.6666666666667</ele><time>2026-03-28T13:52:50Z</time></trkpt><trkpt lat="46.193189642411774" lon="13.53028672799889"><ele>921.0</ele><time>2026-03-28T13:52:51Z</time></trkpt><trkpt lat="46.193235659056654" lon="13.530384541771479"><ele>921.3333333333333</ele><time>2026-03-28T13:52:52Z</time></trkpt><trkpt lat="46.193301625461025" lon="13.530463343966389"><ele>921.6666666666666</ele><time>2026-03-28T13:52:53Z</time></trkpt><trkpt lat="46.193385071819606" lon="13.530518367359056"><ele>922.0</ele><time>2026-03-28T13:52:54Z</time></trkpt><trkpt lat="46.19347151316813" lon="13.53057554289636"><ele>921.1666666666666</ele><time>2026-03-28T13:52:55Z</time></trkpt><trkpt lat="46.19354682347356" lon="13.530645866374398"><ele>920.3333333333333</ele><time>2026-03-28T13:52:56Z</time></trkpt><trkpt lat="46.19360685218083" lon="13.530743095143315"><ele>919.5</ele><time>2026-03-28T13:52:57Z</time></trkpt><trkpt lat="46.19364928988581" lon="13.53085406697275"><ele>918.6666666666667</ele><time>2026-03-28T13:52:58Z</time></trkpt><trkpt lat="46.1936652477046" lon="13.530970727462662"><ele>917.8333333333334</ele><time>2026-03-28T13:52:59Z</time></trkpt><trkpt lat="46.19365113905651" lon="13.531061824748232"><ele>917.0</ele><time>2026-03-28T13:53:00Z</time></trkpt><trkpt lat="46.193635623494465" lon="13.531154345174192"><ele>917.0000000000001</ele><time>2026-03-28T13:53:01Z</time></trkpt><trkpt lat="46.193671982399536" lon="13.531268916194335"><ele>917.0</ele><time>2026-03-28T13:53:03Z</time></trkpt><trkpt lat="46.193772749331146" lon="13.53123320773869"><ele>917.0</ele><time>2026-03-28T13:53:05Z</time></trkpt><trkpt lat="46.19380101580136" lon="13.53113862924945"><ele>917.0</ele><time>2026-03-28T13:53:06Z</time></trkpt><trkpt lat="46.19382656278512" lon="13.531035180867917"><ele>917.0000000000001</ele><time>2026-03-28T13:53:07Z</time></trkpt><trkpt lat="46.193868954675104" lon="13.53093211415318"><ele>917.0</ele><time>2026-03-28T13:53:08Z</time></trkpt><trkpt lat="46.19392395354293" lon="13.530818195530015"><ele>917.0</ele><time>2026-03-28T13:53:09Z</time></trkpt><trkpt lat="46.193982742230446" lon="13.530687983491042"><ele>917.0</ele><time>2026-03-28T13:53:10Z</time></trkpt><trkpt lat="46.19403832514994" lon="13.53055980078322"><ele>917.0</ele><time>2026-03-28T13:53:11Z</time></trkpt><trkpt lat="46.19408973283642" lon="13.53044609131505"><ele>917.0</ele><time>2026-03-28T13:53:12Z</time></trkpt><trkpt lat="46.194143570124844" lon="13.530360087271927"><ele>917.0</ele><time>2026-03-28T13:53:13Z</time></trkpt><trkpt lat="46.194216195884984" lon="13.530310400529817"><ele>920.8333333333334</ele><time>2026-03-28T13:53:14Z</time></trkpt><trkpt lat="46.1943040892392" lon="13.530288091077328"><ele>924.6666666666667</ele><time>2026-03-28T13:53:15Z</time></trkpt><trkpt lat="46.1943771368606" lon="13.530246567243715"><ele>928.5</ele><time>2026-03-28T13:53:16Z</time></trkpt><trkpt lat="46.194430956956204" lon="13.530186313255607"><ele>932.3333333333333</ele><time>2026-03-28T13:53:17Z</time></trkpt><trkpt lat="46.194441427352864" lon="13.530076529894385"><ele>936.1666666666666</ele><time>2026-03-28T13:53:18Z</time></trkpt><trkpt lat="46.19441027869192" lon="13.529960950483876"><ele>940.0</ele><time>2026-03-28T13:53:19Z</time></trkpt><trkpt lat="46.19433801341613" lon="13.529846475280518"><ele>940.0</ele><time>2026-03-28T13:53:20Z</time></trkpt><trkpt lat="46.194290204655275" lon="13.529751635861816"><ele>940.0</ele><time>2026-03-28T13:53:21Z</time></trkpt><trkpt lat="46.194253612655054" lon="13.529635842173542"><ele>940.0</ele><time>2026-03-28T13:53:23Z</time></trkpt><trkpt lat="46.19423467358817" lon="13.529513272441179"><ele>940.0</ele><time>2026-03-28T13:53:26Z</time></trkpt><trkpt lat="46.194195905892194" lon="13.529386296337142"><ele>940.0</ele><time>2026-03-28T13:53:28Z</time></trkpt><trkpt lat="46.194188811749285" lon="13.529230354325842"><ele>939.8333333333333</ele><time>2026-03-28T13:53:30Z</time></trkpt><trkpt lat="46.194152821305224" lon="13.52906592190154"><ele>939.6666666666666</ele><time>2026-03-28T13:53:32Z</time></trkpt><trkpt lat="46.19412824703786" lon="13.52897958846109"><ele>939.5</ele><time>2026-03-28T13:53:33Z</time></trkpt><trkpt lat="46.194098121940584" lon="13.528857547822069"><ele>939.3333333333333</ele><time>2026-03-28T13:53:35Z</time></trkpt><trkpt lat="46.19410010394967" lon="13.5287434036992"><ele>939.1666666666666</ele><time>2026-03-28T13:53:38Z</time></trkpt><trkpt lat="46.19410742722522" lon="13.52864175638855"><ele>939.0</ele><time>2026-03-28T13:53:40Z</time></trkpt><trkpt lat="46.194147243719584" lon="13.528533630738714"><ele>938.5</ele><time>2026-03-28T13:53:42Z</time></trkpt><trkpt lat="46.194204150213345" lon="13.528420391384449"><ele>938.0</ele><time>2026-03-28T13:53:44Z</time></trkpt><trkpt lat="46.19426209302205" lon="13.528303398606187"><ele>937.5</ele><time>2026-03-28T13:53:46Z</time></trkpt><trkpt lat="46.19432379342298" lon="13.528213609295367"><ele>937.0</ele><time>2026-03-28T13:53:48Z</time></trkpt><trkpt lat="46.19440105044814" lon="13.528172264333021"><ele>936.5</ele><time>2026-03-28T13:53:51Z</time></trkpt><trkpt lat="46.194320248895586" lon="13.528184138355712"><ele>936.0</ele><time>2026-03-28T13:54:10.999Z</time></trkpt><trkpt lat="46.19427461571821" lon="13.528258294349804"><ele>936.0</ele><time>2026-03-28T13:54:11.999Z</time></trkpt><trkpt lat="46.1942170645162" lon="13.52836916997383"><ele>936.0</ele><time>2026-03-28T13:54:12.999Z</time></trkpt><trkpt lat="46.19417053940217" lon="13.528464186061726"><ele>936.0</ele><time>2026-03-28T13:54:13.999Z</time></trkpt><trkpt lat="46.194133491358016" lon="13.528549400428322"><ele>936.0</ele><time>2026-03-28T13:54:15Z</time></trkpt><trkpt lat="46.19409359109658" lon="13.528705548864806"><ele>936.0</ele><time>2026-03-28T13:54:17Z</time></trkpt><trkpt lat="46.194096268016814" lon="13.528797365182532"><ele>936.0</ele><time>2026-03-28T13:54:18Z</time></trkpt><trkpt lat="46.194121022757926" lon="13.528975360709682"><ele>936.5</ele><time>2026-03-28T13:54:20Z</time></trkpt><trkpt lat="46.19415110233452" lon="13.52906720447956"><ele>937.0</ele><time>2026-03-28T13:54:21Z</time></trkpt><trkpt lat="46.19417644649865" lon="13.529169120518208"><ele>937.5</ele><time>2026-03-28T13:54:22Z</time></trkpt><trkpt lat="46.19419317248953" lon="13.529274510766033"><ele>938.0</ele><time>2026-03-28T13:54:23Z</time></trkpt><trkpt lat="46.19420146640053" lon="13.529376803278122"><ele>938.5</ele><time>2026-03-28T13:54:24Z</time></trkpt><trkpt lat="46.19420873581337" lon="13.529469377047942"><ele>939.0</ele><time>2026-03-28T13:54:25Z</time></trkpt><trkpt lat="46.194228269153434" lon="13.529615264181281"><ele>939.1666666666666</ele><time>2026-03-28T13:54:27Z</time></trkpt><trkpt lat="46.194250958232395" lon="13.529782253406546"><ele>939.3333333333333</ele><time>2026-03-28T13:54:29Z</time></trkpt><trkpt lat="46.19428422918695" lon="13.529881962755484"><ele>939.5</ele><time>2026-03-28T13:54:30Z</time></trkpt><trkpt lat="46.19433821866596" lon="13.529955902825435"><ele>939.6666666666666</ele><time>2026-03-28T13:54:31Z</time></trkpt><trkpt lat="46.1943881693254" lon="13.530026594650394"><ele>939.8333333333333</ele><time>2026-03-28T13:54:32Z</time></trkpt><trkpt lat="46.19441212755814" lon="13.530115688272623"><ele>940.0</ele><time>2026-03-28T13:54:33Z</time></trkpt><trkpt lat="46.1944035205518" lon="13.530209721554918"><ele>939.9999999999999</ele><time>2026-03-28T13:54:34Z</time></trkpt><trkpt lat="46.19435053099219" lon="13.530285210704973"><ele>940.0</ele><time>2026-03-28T13:54:35Z</time></trkpt><trkpt lat="46.19427578714058" lon="13.53032157334646"><ele>940.0</ele><time>2026-03-28T13:54:36Z</time></trkpt><trkpt lat="46.194193213796346" lon="13.530317472927607"><ele>940.0</ele><time>2026-03-28T13:54:37Z</time></trkpt><trkpt lat="46.19411505946468" lon="13.5303556497303"><ele>939.9999999999999</ele><time>2026-03-28T13:54:38Z</time></trkpt><trkpt lat="46.19405815485478" lon="13.530466538321718"><ele>940.0</ele><time>2026-03-28T13:54:39Z</time></trkpt><trkpt lat="46.19401048987767" lon="13.530606899378963"><ele>935.4</ele><time>2026-03-28T13:54:40Z</time></trkpt><trkpt lat="46.19395621376534" lon="13.530744394114485"><ele>930.8</ele><time>2026-03-28T13:54:41Z</time></trkpt><trkpt lat="46.19389828001917" lon="13.53086627236761"><ele>926.2</ele><time>2026-03-28T13:54:42Z</time></trkpt><trkpt lat="46.19384368050056" lon="13.530977179164717"><ele>921.6</ele><time>2026-03-28T13:54:43Z</time></trkpt><trkpt lat="46.19380680303826" lon="13.531076373089087"><ele>917.0</ele><time>2026-03-28T13:54:44Z</time></trkpt><trkpt lat="46.193769209168615" lon="13.53122534066579"><ele>917.0000000000001</ele><time>2026-03-28T13:54:46Z</time></trkpt><trkpt lat="46.193688023126136" lon="13.531242657923677"><ele>917.0</ele><time>2026-03-28T13:54:48Z</time></trkpt><trkpt lat="46.193647230430564" lon="13.531085123216748"><ele>917.0</ele><time>2026-03-28T13:54:50Z</time></trkpt><trkpt lat="46.1936648049586" lon="13.530983296646458"><ele>917.0</ele><time>2026-03-28T13:54:51Z</time></trkpt><trkpt lat="46.1936681064191" lon="13.530861299979641"><ele>917.0000000000001</ele><time>2026-03-28T13:54:52Z</time></trkpt><trkpt lat="46.193631680506066" lon="13.530739385344082"><ele>917.0</ele><time>2026-03-28T13:54:53Z</time></trkpt><trkpt lat="46.193566549119886" lon="13.530636275543776"><ele>917.0</ele><time>2026-03-28T13:54:54Z</time></trkpt><trkpt lat="46.19348350404783" lon="13.530551573307395"><ele>917.0</ele><time>2026-03-28T13:54:55Z</time></trkpt><trkpt lat="46.19338426002382" lon="13.530489916428206"><ele>917.0</ele><time>2026-03-28T13:54:56Z</time></trkpt><trkpt lat="46.19329431490393" lon="13.530428611565087"><ele>917.0</ele><time>2026-03-28T13:54:57Z</time></trkpt><trkpt lat="46.193225494000295" lon="13.530350060736573"><ele>917.0</ele><time>2026-03-28T13:54:58Z</time></trkpt><trkpt lat="46.19318036533809" lon="13.53022722132504"><ele>917.6</ele><time>2026-03-28T13:54:59Z</time></trkpt><trkpt lat="46.193165004605625" lon="13.530090847208427"><ele>918.2</ele><time>2026-03-28T13:55:00Z</time></trkpt><trkpt lat="46.19316787948709" lon="13.529952771092802"><ele>918.8</ele><time>2026-03-28T13:55:01Z</time></trkpt><trkpt lat="46.19318863971797" lon="13.529805748217388"><ele>919.4</ele><time>2026-03-28T13:55:02Z</time></trkpt><trkpt lat="46.19322910250705" lon="13.52965681210698"><ele>920.0</ele><time>2026-03-28T13:55:03Z</time></trkpt><trkpt lat="46.19326661162741" lon="13.529524099173798"><ele>920.0</ele><time>2026-03-28T13:55:04Z</time></trkpt><trkpt lat="46.193283333757236" lon="13.529391633345876"><ele>920.0</ele><time>2026-03-28T13:55:05Z</time></trkpt><trkpt lat="46.19326948382533" lon="13.529260165514337"><ele>920.0</ele><time>2026-03-28T13:55:06Z</time></trkpt><trkpt lat="46.193235262455815" lon="13.529135233272342"><ele>920.0</ele><time>2026-03-28T13:55:07Z</time></trkpt><trkpt lat="46.193198036964155" lon="13.52902207861888"><ele>920.0</ele><time>2026-03-28T13:55:08Z</time></trkpt><trkpt lat="46.193163769289086" lon="13.528904465846828"><ele>920.6</ele><time>2026-03-28T13:55:09Z</time></trkpt><trkpt lat="46.19314378681405" lon="13.52879013878214"><ele>921.2</ele><time>2026-03-28T13:55:10Z</time></trkpt><trkpt lat="46.19314082534048" lon="13.52867741526432"><ele>921.8</ele><time>2026-03-28T13:55:11Z</time></trkpt><trkpt lat="46.19315894234567" lon="13.528564134655882"><ele>922.4</ele><time>2026-03-28T13:55:12Z</time></trkpt><trkpt lat="46.193220654956626" lon="13.528444640203116"><ele>923.0</ele><time>2026-03-28T13:55:13Z</time></trkpt><trkpt lat="46.19326238645165" lon="13.528298471883982"><ele>923.0</ele><time>2026-03-28T13:55:14Z</time></trkpt><trkpt lat="46.193305111621974" lon="13.528153628326523"><ele>923.0</ele><time>2026-03-28T13:55:15Z</time></trkpt><trkpt lat="46.193339950221834" lon="13.528003948151808"><ele>923.0</ele><time>2026-03-28T13:55:16Z</time></trkpt><trkpt lat="46.19333948447805" lon="13.52784910680383"><ele>923.0</ele><time>2026-03-28T13:55:17Z</time></trkpt><trkpt lat="46.19334432572465" lon="13.527706777133746"><ele>923.0</ele><time>2026-03-28T13:55:18Z</time></trkpt><trkpt lat="46.193335679574126" lon="13.527553010997398"><ele>923.0</ele><time>2026-03-28T13:55:19Z</time></trkpt><trkpt lat="46.19333093296302" lon="13.52740321756753"><ele>923.0</ele><time>2026-03-28T13:55:20Z</time></trkpt><trkpt lat="46.19334098992428" lon="13.527248515596497"><ele>923.0</ele><time>2026-03-28T13:55:21Z</time></trkpt><trkpt lat="46.19336819358766" lon="13.527097768689934"><ele>923.0</ele><time>2026-03-28T13:55:22Z</time></trkpt><trkpt lat="46.193411465657334" lon="13.526951830643652"><ele>923.0</ele><time>2026-03-28T13:55:23Z</time></trkpt><trkpt lat="46.19345817599468" lon="13.526802452255572"><ele>923.0</ele><time>2026-03-28T13:55:24Z</time></trkpt><trkpt lat="46.19351715498855" lon="13.526669887350442"><ele>923.0</ele><time>2026-03-28T13:55:25Z</time></trkpt><trkpt lat="46.19355216808339" lon="13.526542138087775"><ele>923.0</ele><time>2026-03-28T13:55:26Z</time></trkpt><trkpt lat="46.19356412547939" lon="13.526429843616414"><ele>923.0</ele><time>2026-03-28T13:55:27Z</time></trkpt><trkpt lat="46.19358089944756" lon="13.526332634758756"><ele>923.0</ele><time>2026-03-28T13:55:28Z</time></trkpt><trkpt lat="46.19354095318952" lon="13.526173271826863"><ele>916.4</ele><time>2026-03-28T13:55:30Z</time></trkpt><trkpt lat="46.19348347202623" lon="13.52613038912147"><ele>909.8</ele><time>2026-03-28T13:55:31Z</time></trkpt><trkpt lat="46.193403091744706" lon="13.52608239417321"><ele>903.2</ele><time>2026-03-28T13:55:32Z</time></trkpt><trkpt lat="46.19329979101562" lon="13.526077337640707"><ele>896.6</ele><time>2026-03-28T13:55:33Z</time></trkpt><trkpt lat="46.193185023952374" lon="13.526092907958814"><ele>890.0</ele><time>2026-03-28T13:55:34Z</time></trkpt><trkpt lat="46.193059182922376" lon="13.526129396070063"><ele>890.0</ele><time>2026-03-28T13:55:35Z</time></trkpt><trkpt lat="46.19293375949925" lon="13.526174637106424"><ele>890.0</ele><time>2026-03-28T13:55:36Z</time></trkpt><trkpt lat="46.19281673360501" lon="13.526218462571078"><ele>890.0</ele><time>2026-03-28T13:55:37Z</time></trkpt><trkpt lat="46.192710742711796" lon="13.526254462282294"><ele>890.0</ele><time>2026-03-28T13:55:38Z</time></trkpt><trkpt lat="46.192608780335" lon="13.526277172903468"><ele>886.5</ele><time>2026-03-28T13:55:39Z</time></trkpt><trkpt lat="46.19249769141514" lon="13.526303975934294"><ele>883.0</ele><time>2026-03-28T13:55:40Z</time></trkpt><trkpt lat="46.192397853990876" lon="13.526383448932421"><ele>879.5</ele><time>2026-03-28T13:55:41Z</time></trkpt><trkpt lat="46.192294998230985" lon="13.526467990601928"><ele>876.0</ele><time>2026-03-28T13:55:42Z</time></trkpt><trkpt lat="46.19220095555693" lon="13.526588136652162"><ele>876.0</ele><time>2026-03-28T13:55:43Z</time></trkpt><trkpt lat="46.19209337365571" lon="13.526716561750279"><ele>876.0</ele><time>2026-03-28T13:55:44Z</time></trkpt><trkpt lat="46.19198198160957" lon="13.52685151792745"><ele>876.0</ele><time>2026-03-28T13:55:45Z</time></trkpt><trkpt lat="46.1918700657325" lon="13.526981583784124"><ele>876.0</ele><time>2026-03-28T13:55:46Z</time></trkpt><trkpt lat="46.19176381213036" lon="13.527106293378637"><ele>872.0</ele><time>2026-03-28T13:55:47Z</time></trkpt><trkpt lat="46.1916521912087" lon="13.527202626940003"><ele>868.0</ele><time>2026-03-28T13:55:48Z</time></trkpt><trkpt lat="46.19154971872577" lon="13.52731202298545"><ele>864.0</ele><time>2026-03-28T13:55:49Z</time></trkpt><trkpt lat="46.19144414905805" lon="13.527412970821478"><ele>860.0</ele><time>2026-03-28T13:55:50Z</time></trkpt><trkpt lat="46.19133997370948" lon="13.527512725291835"><ele>860.0</ele><time>2026-03-28T13:55:51Z</time></trkpt><trkpt lat="46.19123977298387" lon="13.527612135009436"><ele>860.0</ele><time>2026-03-28T13:55:52Z</time></trkpt><trkpt lat="46.191149105887426" lon="13.527741125175062"><ele>860.0</ele><time>2026-03-28T13:55:53Z</time></trkpt><trkpt lat="46.191093839624045" lon="13.527904929152754"><ele>860.0</ele><time>2026-03-28T13:55:54Z</time></trkpt><trkpt lat="46.191016252828305" lon="13.528047566838362"><ele>857.5</ele><time>2026-03-28T13:55:55Z</time></trkpt><trkpt lat="46.1909585160448" lon="13.528216988742662"><ele>855.0</ele><time>2026-03-28T13:55:56Z</time></trkpt><trkpt lat="46.19093102842834" lon="13.528404098280188"><ele>852.5</ele><time>2026-03-28T13:55:57Z</time></trkpt><trkpt lat="46.19085595295335" lon="13.528565711890447"><ele>850.0</ele><time>2026-03-28T13:55:58Z</time></trkpt><trkpt lat="46.190800759494905" lon="13.528752745127404"><ele>843.75</ele><time>2026-03-28T13:55:59Z</time></trkpt><trkpt lat="46.19076590132118" lon="13.528943556344096"><ele>837.5</ele><time>2026-03-28T13:56:00Z</time></trkpt><trkpt lat="46.190733772243654" lon="13.529112729045858"><ele>831.25</ele><time>2026-03-28T13:56:01Z</time></trkpt><trkpt lat="46.19070129888756" lon="13.529258261116183"><ele>825.0</ele><time>2026-03-28T13:56:02Z</time></trkpt><trkpt lat="46.19066827057554" lon="13.529384133727646"><ele>825.0</ele><time>2026-03-28T13:56:03Z</time></trkpt><trkpt lat="46.1906274101064" lon="13.529494494913951"><ele>825.0</ele><time>2026-03-28T13:56:04Z</time></trkpt><trkpt lat="46.19057630803898" lon="13.52957510671893"><ele>825.0</ele><time>2026-03-28T13:56:05Z</time></trkpt><trkpt lat="46.190496030950165" lon="13.529575261439193"><ele>825.0</ele><time>2026-03-28T13:56:06Z</time></trkpt><trkpt lat="46.19041818736879" lon="13.52955795558819"><ele>825.0</ele><time>2026-03-28T13:56:07Z</time></trkpt><trkpt lat="46.190340955856854" lon="13.529506845715135"><ele>825.0</ele><time>2026-03-28T13:56:08Z</time></trkpt><trkpt lat="46.19030344450849" lon="13.529416893999803"><ele>825.0</ele><time>2026-03-28T13:56:09Z</time></trkpt><trkpt lat="46.19025773904103" lon="13.52930429839726"><ele>825.0</ele><time>2026-03-28T13:56:10Z</time></trkpt><trkpt lat="46.190221166666944" lon="13.529191425243873"><ele>825.0</ele><time>2026-03-28T13:56:11Z</time></trkpt><trkpt lat="46.190184606764916" lon="13.529079021637857"><ele>825.0</ele><time>2026-03-28T13:56:11.999Z</time></trkpt><trkpt lat="46.19014661894666" lon="13.528971679681634"><ele>825.0</ele><time>2026-03-28T13:56:12.999Z</time></trkpt><trkpt lat="46.19010760219145" lon="13.528882732686027"><ele>825.0</ele><time>2026-03-28T13:56:13.999Z</time></trkpt><trkpt lat="46.19003123243912" lon="13.528793689496887"><ele>825.0</ele><time>2026-03-28T13:56:14.999Z</time></trkpt><trkpt lat="46.1899442973402" lon="13.528755905153808"><ele>825.0</ele><time>2026-03-28T13:56:15.999Z</time></trkpt><trkpt lat="46.18983563592969" lon="13.52876242221623"><ele>825.0</ele><time>2026-03-28T13:56:16.999Z</time></trkpt><trkpt lat="46.18972059270308" lon="13.52878366530592"><ele>825.0</ele><time>2026-03-28T13:56:17.999Z</time></trkpt><trkpt lat="46.18960054401828" lon="13.528826910792645"><ele>825.0</ele><time>2026-03-28T13:56:18.999Z</time></trkpt><trkpt lat="46.18949696702364" lon="13.528880808787349"><ele>821.1666666666666</ele><time>2026-03-28T13:56:19.999Z</time></trkpt><trkpt lat="46.189403641085605" lon="13.528933125730376"><ele>817.3333333333333</ele><time>2026-03-28T13:56:21Z</time></trkpt><trkpt lat="46.18932337914601" lon="13.52896335602835"><ele>813.5</ele><time>2026-03-28T13:56:22Z</time></trkpt><trkpt lat="46.189251394695134" lon="13.528969137404353"><ele>809.6666666666666</ele><time>2026-03-28T13:56:23Z</time></trkpt><trkpt lat="46.18918608966106" lon="13.528936672553224"><ele>805.8333333333333</ele><time>2026-03-28T13:56:24Z</time></trkpt><trkpt lat="46.18912418808061" lon="13.52885620725525"><ele>802.0</ele><time>2026-03-28T13:56:25Z</time></trkpt><trkpt lat="46.18906549137315" lon="13.52873665428413"><ele>804.6</ele><time>2026-03-28T13:56:26Z</time></trkpt><trkpt lat="46.18902767543175" lon="13.528584853112243"><ele>807.2</ele><time>2026-03-28T13:56:27Z</time></trkpt><trkpt lat="46.188970411909736" lon="13.528460086944145"><ele>809.8</ele><time>2026-03-28T13:56:28Z</time></trkpt><trkpt lat="46.18894640548743" lon="13.528341518902394"><ele>812.4</ele><time>2026-03-28T13:56:29Z</time></trkpt><trkpt lat="46.188880771278434" lon="13.528261587662117"><ele>815.0</ele><time>2026-03-28T13:56:30Z</time></trkpt><trkpt lat="46.18881185618702" lon="13.528176475697109"><ele>810.5000000000001</ele><time>2026-03-28T13:56:31Z</time></trkpt><trkpt lat="46.188700406078276" lon="13.528159037361679"><ele>806.0</ele><time>2026-03-28T13:56:32Z</time></trkpt><trkpt lat="46.188601704183945" lon="13.528192957752042"><ele>801.5</ele><time>2026-03-28T13:56:33Z</time></trkpt><trkpt lat="46.18852244994256" lon="13.528244107448037"><ele>797.0</ele><time>2026-03-28T13:56:34Z</time></trkpt><trkpt lat="46.18845563874505" lon="13.528215593190684"><ele>792.5000000000001</ele><time>2026-03-28T13:56:35Z</time></trkpt><trkpt lat="46.188406522805195" lon="13.528145256928221"><ele>788.0</ele><time>2026-03-28T13:56:36Z</time></trkpt><trkpt lat="46.18838502991015" lon="13.528004734698076"><ele>791.25</ele><time>2026-03-28T13:56:37Z</time></trkpt><trkpt lat="46.1883571989003" lon="13.527813124306563"><ele>794.5</ele><time>2026-03-28T13:56:38Z</time></trkpt><trkpt lat="46.18829067071168" lon="13.52765878452048"><ele>797.75</ele><time>2026-03-28T13:56:39Z</time></trkpt><trkpt lat="46.188215942992194" lon="13.527518944635144"><ele>801.0</ele><time>2026-03-28T13:56:40Z</time></trkpt><trkpt lat="46.18815520651038" lon="13.527395564550293"><ele>795.4</ele><time>2026-03-28T13:56:41Z</time></trkpt><trkpt lat="46.18811105959791" lon="13.527268765497249"><ele>789.8</ele><time>2026-03-28T13:56:42Z</time></trkpt><trkpt lat="46.18808177835224" lon="13.527141341815456"><ele>784.1999999999999</ele><time>2026-03-28T13:56:43Z</time></trkpt><trkpt lat="46.188065184519715" lon="13.527008787600298"><ele>778.5999999999999</ele><time>2026-03-28T13:56:44Z</time></trkpt><trkpt lat="46.188042156316776" lon="13.526882860784355"><ele>773.0</ele><time>2026-03-28T13:56:45Z</time></trkpt><trkpt lat="46.188007356038156" lon="13.526769068564366"><ele>773.0</ele><time>2026-03-28T13:56:46Z</time></trkpt><trkpt lat="46.18794552486473" lon="13.526681377849773"><ele>773.0</ele><time>2026-03-28T13:56:47Z</time></trkpt><trkpt lat="46.18786246172314" lon="13.526603892144294"><ele>773.0</ele><time>2026-03-28T13:56:48Z</time></trkpt><trkpt lat="46.1877754421599" lon="13.526521414667666"><ele>773.0</ele><time>2026-03-28T13:56:49Z</time></trkpt><trkpt lat="46.18769320672652" lon="13.52644520447338"><ele>773.0</ele><time>2026-03-28T13:56:50Z</time></trkpt><trkpt lat="46.1876192349632" lon="13.5263401883921"><ele>773.0</ele><time>2026-03-28T13:56:51Z</time></trkpt><trkpt lat="46.1875674712671" lon="13.526234670409314"><ele>773.0</ele><time>2026-03-28T13:56:52Z</time></trkpt><trkpt lat="46.18754280658276" lon="13.526126442837056"><ele>773.0</ele><time>2026-03-28T13:56:53Z</time></trkpt><trkpt lat="46.187540716263484" lon="13.525982793546799"><ele>773.0</ele><time>2026-03-28T13:56:54Z</time></trkpt><trkpt lat="46.18754331832294" lon="13.525829313529766"><ele>773.0</ele><time>2026-03-28T13:56:55Z</time></trkpt><trkpt lat="46.18753607832793" lon="13.525679708451973"><ele>773.0</ele><time>2026-03-28T13:56:56Z</time></trkpt><trkpt lat="46.18752740670605" lon="13.525548547220327"><ele>773.0</ele><time>2026-03-28T13:56:57Z</time></trkpt><trkpt lat="46.18754174612317" lon="13.525443681920967"><ele>773.0</ele><time>2026-03-28T13:56:58Z</time></trkpt><trkpt lat="46.18753506356713" lon="13.52531215329134"><ele>773.0</ele><time>2026-03-28T13:57:00Z</time></trkpt><trkpt lat="46.18741110660704" lon="13.52530843748627"><ele>773.0</ele><time>2026-03-28T13:57:02Z</time></trkpt><trkpt lat="46.187360641735445" lon="13.525427008268517"><ele>773.0</ele><time>2026-03-28T13:57:03Z</time></trkpt><trkpt lat="46.18739388815578" lon="13.52557601314953"><ele>773.0</ele><time>2026-03-28T13:57:04Z</time></trkpt><trkpt lat="46.18736436436283" lon="13.525722780804491"><ele>773.0</ele><time>2026-03-28T13:57:05Z</time></trkpt><trkpt lat="46.18732758896142" lon="13.52589488185942"><ele>773.0</ele><time>2026-03-28T13:57:06Z</time></trkpt><trkpt lat="46.18728422788135" lon="13.526104204087002"><ele>773.0</ele><time>2026-03-28T13:57:07Z</time></trkpt><trkpt lat="46.18725688828892" lon="13.526320829507652"><ele>773.0</ele><time>2026-03-28T13:57:08Z</time></trkpt><trkpt lat="46.18722194434282" lon="13.526509027904469"><ele>773.0</ele><time>2026-03-28T13:57:09Z</time></trkpt><trkpt lat="46.187176089859" lon="13.526676463964893"><ele>773.0</ele><time>2026-03-28T13:57:10Z</time></trkpt><trkpt lat="46.18713867130456" lon="13.526829087932818"><ele>767.8</ele><time>2026-03-28T13:57:11Z</time></trkpt><trkpt lat="46.187097889492954" lon="13.52696932069416"><ele>762.5999999999999</ele><time>2026-03-28T13:57:12Z</time></trkpt><trkpt lat="46.18709640663561" lon="13.527113632310872"><ele>757.4000000000001</ele><time>2026-03-28T13:57:13Z</time></trkpt><trkpt lat="46.18709349736529" lon="13.52724290973404"><ele>752.2</ele><time>2026-03-28T13:57:14Z</time></trkpt><trkpt lat="46.187100605776166" lon="13.527391447424689"><ele>747.0</ele><time>2026-03-28T13:57:15Z</time></trkpt><trkpt lat="46.187094952739734" lon="13.527536549538791"><ele>747.0</ele><time>2026-03-28T13:57:16Z</time></trkpt><trkpt lat="46.187064102990895" lon="13.527662701329787"><ele>747.0</ele><time>2026-03-28T13:57:17Z</time></trkpt><trkpt lat="46.18701648530095" lon="13.527793441191932"><ele>747.0</ele><time>2026-03-28T13:57:18Z</time></trkpt><trkpt lat="46.18698778023605" lon="13.527938567576351"><ele>747.0</ele><time>2026-03-28T13:57:19Z</time></trkpt><trkpt lat="46.18694497402912" lon="13.528063061780973"><ele>747.0</ele><time>2026-03-28T13:57:20Z</time></trkpt><trkpt lat="46.18692155677579" lon="13.528194740452198"><ele>744.6</ele><time>2026-03-28T13:57:21Z</time></trkpt><trkpt lat="46.186925705987115" lon="13.528329019665515"><ele>742.2</ele><time>2026-03-28T13:57:22Z</time></trkpt><trkpt lat="46.18693253785571" lon="13.528463009222625"><ele>739.8</ele><time>2026-03-28T13:57:23Z</time></trkpt><trkpt lat="46.18695307493353" lon="13.528591290434344"><ele>737.4</ele><time>2026-03-28T13:57:24Z</time></trkpt><trkpt lat="46.18695679624258" lon="13.52872833366695"><ele>735.0</ele><time>2026-03-28T13:57:25Z</time></trkpt><trkpt lat="46.18690399735461" lon="13.528857233454147"><ele>734.0</ele><time>2026-03-28T13:57:26Z</time></trkpt><trkpt lat="46.18687147003274" lon="13.529010324687471"><ele>733.0</ele><time>2026-03-28T13:57:27Z</time></trkpt><trkpt lat="46.18682990775827" lon="13.529155931101183"><ele>732.0</ele><time>2026-03-28T13:57:28Z</time></trkpt><trkpt lat="46.186794614136694" lon="13.529301689183997"><ele>731.0</ele><time>2026-03-28T13:57:29Z</time></trkpt><trkpt lat="46.18677237051053" lon="13.529428192364797"><ele>730.0</ele><time>2026-03-28T13:57:30Z</time></trkpt><trkpt lat="46.18676827591738" lon="13.529543628097283"><ele>727.8</ele><time>2026-03-28T13:57:31Z</time></trkpt><trkpt lat="46.186782667407016" lon="13.529649605093748"><ele>725.6</ele><time>2026-03-28T13:57:32Z</time></trkpt><trkpt lat="46.186822221210214" lon="13.529741641559111"><ele>723.4000000000001</ele><time>2026-03-28T13:57:33Z</time></trkpt><trkpt lat="46.18687847936355" lon="13.529855001253715"><ele>721.2</ele><time>2026-03-28T13:57:34Z</time></trkpt><trkpt lat="46.18695565099901" lon="13.52995636881693"><ele>719.0</ele><time>2026-03-28T13:57:35Z</time></trkpt><trkpt lat="46.18704217632353" lon="13.530048077123421"><ele>719.0</ele><time>2026-03-28T13:57:36Z</time></trkpt><trkpt lat="46.18713485438567" lon="13.530134351485888"><ele>719.0</ele><time>2026-03-28T13:57:37Z</time></trkpt><trkpt lat="46.187231596992795" lon="13.530213968778995"><ele>719.0</ele><time>2026-03-28T13:57:38Z</time></trkpt><trkpt lat="46.18732895505493" lon="13.530270937454189"><ele>719.0</ele><time>2026-03-28T13:57:39Z</time></trkpt><trkpt lat="46.18742391929775" lon="13.530305140209046"><ele>719.0</ele><time>2026-03-28T13:57:40Z</time></trkpt><trkpt lat="46.187509889662294" lon="13.530333427937002"><ele>719.0</ele><time>2026-03-28T13:57:41Z</time></trkpt><trkpt lat="46.18758451153153" lon="13.530363038548542"><ele>719.0</ele><time>2026-03-28T13:57:42Z</time></trkpt><trkpt lat="46.18767234866158" lon="13.530429362587485"><ele>719.0</ele><time>2026-03-28T13:57:44Z</time></trkpt><trkpt lat="46.18770547313979" lon="13.530570726775464"><ele>719.0</ele><time>2026-03-28T13:57:46Z</time></trkpt><trkpt lat="46.187655645775386" lon="13.530671152757876"><ele>719.0</ele><time>2026-03-28T13:57:47Z</time></trkpt><trkpt lat="46.18760007430303" lon="13.530785263172174"><ele>719.0</ele><time>2026-03-28T13:57:48Z</time></trkpt><trkpt lat="46.1875428284767" lon="13.530916614377167"><ele>719.0</ele><time>2026-03-28T13:57:49Z</time></trkpt><trkpt lat="46.187495615364675" lon="13.531053778123901"><ele>719.0</ele><time>2026-03-28T13:57:50Z</time></trkpt><trkpt lat="46.187459247551956" lon="13.53120385642013"><ele>719.0</ele><time>2026-03-28T13:57:51Z</time></trkpt><trkpt lat="46.18742253437091" lon="13.53135598408634"><ele>719.0</ele><time>2026-03-28T13:57:52Z</time></trkpt><trkpt lat="46.18738557872738" lon="13.531505868197435"><ele>718.0</ele><time>2026-03-28T13:57:53Z</time></trkpt><trkpt lat="46.187354439842686" lon="13.531644636029405"><ele>717.0</ele><time>2026-03-28T13:57:54Z</time></trkpt><trkpt lat="46.18731550084381" lon="13.531773706421712"><ele>716.0</ele><time>2026-03-28T13:57:55Z</time></trkpt><trkpt lat="46.18727129355139" lon="13.53188944068999"><ele>715.0</ele><time>2026-03-28T13:57:56Z</time></trkpt><trkpt lat="46.18719916952778" lon="13.531974906140805"><ele>714.0</ele><time>2026-03-28T13:57:57Z</time></trkpt><trkpt lat="46.187128705243005" lon="13.532075059942333"><ele>711.5</ele><time>2026-03-28T13:57:58Z</time></trkpt><trkpt lat="46.18706469140421" lon="13.532164361082616"><ele>709.0</ele><time>2026-03-28T13:57:59Z</time></trkpt><trkpt lat="46.187008339609854" lon="13.5322476584202"><ele>706.5</ele><time>2026-03-28T13:58:00Z</time></trkpt><trkpt lat="46.18695400914768" lon="13.532327816806347"><ele>704.0</ele><time>2026-03-28T13:58:01Z</time></trkpt><trkpt lat="46.18689504822927" lon="13.532404892511813"><ele>701.5</ele><time>2026-03-28T13:58:02Z</time></trkpt><trkpt lat="46.18682947381329" lon="13.532464191424134"><ele>699.0</ele><time>2026-03-28T13:58:03Z</time></trkpt><trkpt lat="46.18675510646733" lon="13.532502978590333"><ele>699.0</ele><time>2026-03-28T13:58:04Z</time></trkpt><trkpt lat="46.186706053936476" lon="13.532596287080061"><ele>699.0</ele><time>2026-03-28T13:58:05Z</time></trkpt><trkpt lat="46.18666538175086" lon="13.532688332125032"><ele>699.0</ele><time>2026-03-28T13:58:06Z</time></trkpt><trkpt lat="46.18664331995904" lon="13.53279831962868"><ele>699.0</ele><time>2026-03-28T13:58:07Z</time></trkpt><trkpt lat="46.18663378166938" lon="13.532911762248006"><ele>699.0</ele><time>2026-03-28T13:58:08Z</time></trkpt><trkpt lat="46.18663548549315" lon="13.533022581030075"><ele>699.0</ele><time>2026-03-28T13:58:09Z</time></trkpt><trkpt lat="46.18665014203158" lon="13.53313705897019"><ele>697.8571428571428</ele><time>2026-03-28T13:58:10Z</time></trkpt><trkpt lat="46.18669021814081" lon="13.533247751061543"><ele>696.7142857142858</ele><time>2026-03-28T13:58:11Z</time></trkpt><trkpt lat="46.18673260723164" lon="13.533340469820416"><ele>695.5714285714286</ele><time>2026-03-28T13:58:12Z</time></trkpt><trkpt lat="46.186776182018804" lon="13.533413643546073"><ele>694.4285714285713</ele><time>2026-03-28T13:58:13Z</time></trkpt><trkpt lat="46.186834103357384" lon="13.53345158094331"><ele>693.2857142857142</ele><time>2026-03-28T13:58:14Z</time></trkpt><trkpt lat="46.18690854055272" lon="13.53343836504754"><ele>692.1428571428571</ele><time>2026-03-28T13:58:15Z</time></trkpt><trkpt lat="46.1869771163098" lon="13.533385729518281"><ele>691.0</ele><time>2026-03-28T13:58:15.999Z</time></trkpt><trkpt lat="46.18705940084721" lon="13.533465116076982"><ele>691.0</ele><time>2026-03-28T13:58:17.999Z</time></trkpt><trkpt lat="46.18705532955158" lon="13.533558374135435"><ele>691.0</ele><time>2026-03-28T13:58:18.999Z</time></trkpt><trkpt lat="46.186997019264865" lon="13.533632020302948"><ele>691.0</ele><time>2026-03-28T13:58:19.999Z</time></trkpt><trkpt lat="46.186903716863135" lon="13.533659969578745"><ele>691.0</ele><time>2026-03-28T13:58:20.999Z</time></trkpt><trkpt lat="46.1868031303305" lon="13.533697663887267"><ele>691.0</ele><time>2026-03-28T13:58:21.999Z</time></trkpt><trkpt lat="46.186700848302756" lon="13.53374707774937"><ele>691.0</ele><time>2026-03-28T13:58:22.999Z</time></trkpt><trkpt lat="46.18661744154182" lon="13.533786173721108"><ele>689.0</ele><time>2026-03-28T13:58:23.999Z</time></trkpt><trkpt lat="46.186539832757205" lon="13.533794307133713"><ele>687.0</ele><time>2026-03-28T13:58:24.999Z</time></trkpt><trkpt lat="46.18646676201618" lon="13.533738966438705"><ele>685.0</ele><time>2026-03-28T13:58:25.999Z</time></trkpt><trkpt lat="46.18640165536855" lon="13.533642814592378"><ele>683.0</ele><time>2026-03-28T13:58:27Z</time></trkpt><trkpt lat="46.18634866221462" lon="13.533531672335865"><ele>681.0</ele><time>2026-03-28T13:58:28Z</time></trkpt><trkpt lat="46.18632198467912" lon="13.53343146065992"><ele>679.0</ele><time>2026-03-28T13:58:29Z</time></trkpt><trkpt lat="46.18632809813827" lon="13.533320289160388"><ele>677.1666666666667</ele><time>2026-03-28T13:58:30Z</time></trkpt><trkpt lat="46.186372945046266" lon="13.533222680825583"><ele>675.3333333333334</ele><time>2026-03-28T13:58:31Z</time></trkpt><trkpt lat="46.18634722837384" lon="13.533092320286338"><ele>673.5</ele><time>2026-03-28T13:58:33Z</time></trkpt><trkpt lat="46.186273950129234" lon="13.533127297906043"><ele>671.6666666666666</ele><time>2026-03-28T13:58:34Z</time></trkpt><trkpt lat="46.18623241743128" lon="13.53321807565182"><ele>669.8333333333333</ele><time>2026-03-28T13:58:35Z</time></trkpt><trkpt lat="46.18623110422702" lon="13.5333538559269"><ele>668.0</ele><time>2026-03-28T13:58:36Z</time></trkpt><trkpt lat="46.186237269467185" lon="13.533496747185644"><ele>668.0</ele><time>2026-03-28T13:58:37Z</time></trkpt><trkpt lat="46.18621934892753" lon="13.533664482549964"><ele>668.0</ele><time>2026-03-28T13:58:38Z</time></trkpt><trkpt lat="46.18619072086895" lon="13.533829956767354"><ele>668.0</ele><time>2026-03-28T13:58:39Z</time></trkpt><trkpt lat="46.18617401364551" lon="13.533977456774116"><ele>668.0</ele><time>2026-03-28T13:58:40Z</time></trkpt><trkpt lat="46.18616535072623" lon="13.534108637717441"><ele>668.0</ele><time>2026-03-28T13:58:41Z</time></trkpt><trkpt lat="46.18618397613422" lon="13.534241493870436"><ele>666.1666666666666</ele><time>2026-03-28T13:58:42Z</time></trkpt><trkpt lat="46.186221536666736" lon="13.534385522530858"><ele>664.3333333333333</ele><time>2026-03-28T13:58:43Z</time></trkpt><trkpt lat="46.1862459605908" lon="13.534495888389923"><ele>662.5</ele><time>2026-03-28T13:58:44Z</time></trkpt><trkpt lat="46.18626339386791" lon="13.534588597093657"><ele>660.6666666666666</ele><time>2026-03-28T13:58:45Z</time></trkpt><trkpt lat="46.186290768024776" lon="13.534680748538914"><ele>658.8333333333334</ele><time>2026-03-28T13:58:46Z</time></trkpt><trkpt lat="46.18633629276762" lon="13.534758153825965"><ele>657.0</ele><time>2026-03-28T13:58:47Z</time></trkpt><trkpt lat="46.18641211392717" lon="13.534814835559628"><ele>657.5</ele><time>2026-03-28T13:58:48Z</time></trkpt><trkpt lat="46.18649732122723" lon="13.534840411058225"><ele>658.0</ele><time>2026-03-28T13:58:49Z</time></trkpt><trkpt lat="46.18657892618005" lon="13.534842162646147"><ele>658.5</ele><time>2026-03-28T13:58:50Z</time></trkpt><trkpt lat="46.18665568828941" lon="13.534817299120293"><ele>659.0</ele><time>2026-03-28T13:58:51Z</time></trkpt><trkpt lat="46.18672030519687" lon="13.53477656708092"><ele>659.5</ele><time>2026-03-28T13:58:52Z</time></trkpt><trkpt lat="46.18680300531832" lon="13.53471629395608"><ele>660.0</ele><time>2026-03-28T13:58:54Z</time></trkpt><trkpt lat="46.186843497104256" lon="13.534842613815234"><ele>660.0</ele><time>2026-03-28T13:58:56Z</time></trkpt><trkpt lat="46.18680561357076" lon="13.534923477682572"><ele>660.0</ele><time>2026-03-28T13:58:57Z</time></trkpt><trkpt lat="46.18673295062409" lon="13.534946865045447"><ele>660.0</ele><time>2026-03-28T13:58:58Z</time></trkpt><trkpt lat="46.186643784295164" lon="13.535024414824905"><ele>660.0</ele><time>2026-03-28T13:58:59Z</time></trkpt><trkpt lat="46.1865391706342" lon="13.535143566561867"><ele>660.0</ele><time>2026-03-28T13:59:00Z</time></trkpt><trkpt lat="46.186419724174506" lon="13.535252544256272"><ele>657.75</ele><time>2026-03-28T13:59:01Z</time></trkpt><trkpt lat="46.18629144307565" lon="13.535327138519579"><ele>655.5</ele><time>2026-03-28T13:59:02Z</time></trkpt><trkpt lat="46.186182042712886" lon="13.535407626863378"><ele>653.25</ele><time>2026-03-28T13:59:03Z</time></trkpt><trkpt lat="46.186077936758686" lon="13.53548033148707"><ele>651.0</ele><time>2026-03-28T13:59:04Z</time></trkpt><trkpt lat="46.18599549192184" lon="13.535533186862423"><ele>651.0</ele><time>2026-03-28T13:59:05Z</time></trkpt><trkpt lat="46.185925709396685" lon="13.535573983197759"><ele>651.0</ele><time>2026-03-28T13:59:06Z</time></trkpt><trkpt lat="46.185808711152276" lon="13.535565274893111"><ele>651.0</ele><time>2026-03-28T13:59:08Z</time></trkpt><trkpt lat="46.185776336838124" lon="13.535482805662781"><ele>651.0</ele><time>2026-03-28T13:59:09Z</time></trkpt><trkpt lat="46.185721605570635" lon="13.53537178157099"><ele>651.0</ele><time>2026-03-28T13:59:10Z</time></trkpt><trkpt lat="46.18564903452288" lon="13.53523106747794"><ele>645.4</ele><time>2026-03-28T13:59:11Z</time></trkpt><trkpt lat="46.18558901146708" lon="13.535116658783107"><ele>639.8</ele><time>2026-03-28T13:59:12Z</time></trkpt><trkpt lat="46.185543246448184" lon="13.535001018858168"><ele>634.1999999999999</ele><time>2026-03-28T13:59:13Z</time></trkpt><trkpt lat="46.185528457915694" lon="13.53485997871855"><ele>628.5999999999999</ele><time>2026-03-28T13:59:14Z</time></trkpt><trkpt lat="46.185504766368354" lon="13.53468671097105"><ele>623.0</ele><time>2026-03-28T13:59:15Z</time></trkpt><trkpt lat="46.18546927879581" lon="13.534550352703878"><ele>623.0</ele><time>2026-03-28T13:59:16Z</time></trkpt><trkpt lat="46.18539062818161" lon="13.53437534431752"><ele>623.0</ele><time>2026-03-28T13:59:17Z</time></trkpt><trkpt lat="46.185319419476045" lon="13.53425272507789"><ele>623.0</ele><time>2026-03-28T13:59:18Z</time></trkpt><trkpt lat="46.18526402653584" lon="13.534144529319903"><ele>623.0</ele><time>2026-03-28T13:59:19Z</time></trkpt><trkpt lat="46.18524446325254" lon="13.534033801193518"><ele>623.0</ele><time>2026-03-28T13:59:20Z</time></trkpt><trkpt lat="46.18519183782086" lon="13.533889367241526"><ele>623.0</ele><time>2026-03-28T13:59:22Z</time></trkpt><trkpt lat="46.18508228514438" lon="13.533897272677308"><ele>623.0</ele><time>2026-03-28T13:59:24Z</time></trkpt><trkpt lat="46.185045931778546" lon="13.534015808674356"><ele>623.0</ele><time>2026-03-28T13:59:25Z</time></trkpt><trkpt lat="46.1850667360642" lon="13.534138795968994"><ele>623.0</ele><time>2026-03-28T13:59:26Z</time></trkpt><trkpt lat="46.185094875379" lon="13.534269788503444"><ele>623.0</ele><time>2026-03-28T13:59:27Z</time></trkpt><trkpt lat="46.1850989435608" lon="13.534425520395345"><ele>621.4</ele><time>2026-03-28T13:59:28Z</time></trkpt><trkpt lat="46.18512763294268" lon="13.5345727660166"><ele>619.8</ele><time>2026-03-28T13:59:29Z</time></trkpt><trkpt lat="46.185135888947606" lon="13.534721232541317"><ele>618.2</ele><time>2026-03-28T13:59:30Z</time></trkpt><trkpt lat="46.18515007059853" lon="13.534861794095406"><ele>616.6</ele><time>2026-03-28T13:59:31Z</time></trkpt><trkpt lat="46.185173875977206" lon="13.534982783581112"><ele>615.0</ele><time>2026-03-28T13:59:32Z</time></trkpt><trkpt lat="46.18518110478296" lon="13.53510979717638"><ele>615.0</ele><time>2026-03-28T13:59:33Z</time></trkpt><trkpt lat="46.18515911084621" lon="13.535240511914685"><ele>615.0</ele><time>2026-03-28T13:59:34Z</time></trkpt><trkpt lat="46.18512171418923" lon="13.535367444479235"><ele>615.0</ele><time>2026-03-28T13:59:35Z</time></trkpt><trkpt lat="46.18511039066279" lon="13.535502951255628"><ele>615.0</ele><time>2026-03-28T13:59:36Z</time></trkpt><trkpt lat="46.18511531418181" lon="13.53564176663961"><ele>615.0</ele><time>2026-03-28T13:59:37Z</time></trkpt><trkpt lat="46.18512891857061" lon="13.535786077304284"><ele>614.4</ele><time>2026-03-28T13:59:38Z</time></trkpt><trkpt lat="46.18513182160796" lon="13.535925769228554"><ele>613.8</ele><time>2026-03-28T13:59:39Z</time></trkpt><trkpt lat="46.18513847372311" lon="13.536088426326302"><ele>613.2</ele><time>2026-03-28T13:59:40Z</time></trkpt><trkpt lat="46.18514364821843" lon="13.536225494754305"><ele>612.6</ele><time>2026-03-28T13:59:41Z</time></trkpt><trkpt lat="46.185162477667085" lon="13.53635936987609"><ele>612.0</ele><time>2026-03-28T13:59:42Z</time></trkpt><trkpt lat="46.185165091331434" lon="13.536494339261424"><ele>610.2</ele><time>2026-03-28T13:59:43Z</time></trkpt><trkpt lat="46.18516858871758" lon="13.536622502627335"><ele>608.4000000000001</ele><time>2026-03-28T13:59:44Z</time></trkpt><trkpt lat="46.18515582661407" lon="13.53675342804572"><ele>606.5999999999999</ele><time>2026-03-28T13:59:45Z</time></trkpt><trkpt lat="46.18516863111462" lon="13.536876313804363"><ele>604.8</ele><time>2026-03-28T13:59:46Z</time></trkpt><trkpt lat="46.185201411422554" lon="13.53698363320722"><ele>603.0</ele><time>2026-03-28T13:59:47Z</time></trkpt><trkpt lat="46.185265587962746" lon="13.537114227398577"><ele>603.0</ele><time>2026-03-28T13:59:49Z</time></trkpt><trkpt lat="46.18528717346597" lon="13.537222202653071"><ele>603.0</ele><time>2026-03-28T13:59:51Z</time></trkpt><trkpt lat="46.18519554531482" lon="13.537216556211828"><ele>603.0</ele><time>2026-03-28T13:59:53Z</time></trkpt><trkpt lat="46.18516861044481" lon="13.537112748674197"><ele>603.0</ele><time>2026-03-28T13:59:54Z</time></trkpt><trkpt lat="46.185128190169785" lon="13.537004077824701"><ele>603.0</ele><time>2026-03-28T13:59:55Z</time></trkpt><trkpt lat="46.18509069380513" lon="13.53688138591489"><ele>603.0</ele><time>2026-03-28T13:59:56Z</time></trkpt><trkpt lat="46.18504985587907" lon="13.536751736784849"><ele>603.0</ele><time>2026-03-28T13:59:57Z</time></trkpt><trkpt lat="46.18500463054255" lon="13.536622434210955"><ele>603.0</ele><time>2026-03-28T13:59:58Z</time></trkpt><trkpt lat="46.18495107374026" lon="13.536474897802275"><ele>603.0</ele><time>2026-03-28T13:59:59Z</time></trkpt><trkpt lat="46.18491056465749" lon="13.536306805046367"><ele>603.0</ele><time>2026-03-28T14:00:00Z</time></trkpt><trkpt lat="46.18485094106396" lon="13.536150249771477"><ele>596.75</ele><time>2026-03-28T14:00:01Z</time></trkpt><trkpt lat="46.184770305201845" lon="13.53601877744041"><ele>590.5</ele><time>2026-03-28T14:00:02Z</time></trkpt><trkpt lat="46.18471039215097" lon="13.535876522677954"><ele>584.25</ele><time>2026-03-28T14:00:03Z</time></trkpt><trkpt lat="46.18465888174313" lon="13.535726823532002"><ele>578.0</ele><time>2026-03-28T14:00:04Z</time></trkpt><trkpt lat="46.18461586253675" lon="13.535579394168675"><ele>578.0</ele><time>2026-03-28T14:00:05Z</time></trkpt><trkpt lat="46.18457314176688" lon="13.53544762536253"><ele>578.0</ele><time>2026-03-28T14:00:06Z</time></trkpt><trkpt lat="46.18453898673557" lon="13.535316810982273"><ele>578.0</ele><time>2026-03-28T14:00:07Z</time></trkpt><trkpt lat="46.18450985628234" lon="13.53519095353578"><ele>578.0</ele><time>2026-03-28T14:00:08Z</time></trkpt><trkpt lat="46.1844878225115" lon="13.535058952500535"><ele>578.0</ele><time>2026-03-28T14:00:09Z</time></trkpt><trkpt lat="46.184430850006294" lon="13.53494738925654"><ele>580.0</ele><time>2026-03-28T14:00:10Z</time></trkpt><trkpt lat="46.18433344857845" lon="13.534879379635786"><ele>582.0</ele><time>2026-03-28T14:00:11Z</time></trkpt><trkpt lat="46.184218450351715" lon="13.534834034946682"><ele>584.0</ele><time>2026-03-28T14:00:12Z</time></trkpt><trkpt lat="46.184105564116734" lon="13.534780644430734"><ele>586.0</ele><time>2026-03-28T14:00:13Z</time></trkpt><trkpt lat="46.18399259056381" lon="13.534726728546953"><ele>582.6666666666667</ele><time>2026-03-28T14:00:14Z</time></trkpt><trkpt lat="46.18389475195489" lon="13.534686657494266"><ele>579.3333333333334</ele><time>2026-03-28T14:00:15Z</time></trkpt><trkpt lat="46.18381256041157" lon="13.534650894847172"><ele>576.0</ele><time>2026-03-28T14:00:16Z</time></trkpt><trkpt lat="46.1837482108901" lon="13.534615983331781"><ele>572.6666666666666</ele><time>2026-03-28T14:00:17Z</time></trkpt><trkpt lat="46.183691354397894" lon="13.534557361347833"><ele>569.3333333333333</ele><time>2026-03-28T14:00:18Z</time></trkpt><trkpt lat="46.18366691423523" lon="13.534456488132989"><ele>566.0</ele><time>2026-03-28T14:00:19Z</time></trkpt><trkpt lat="46.183659290908274" lon="13.534331841970644"><ele>566.0</ele><time>2026-03-28T14:00:20Z</time></trkpt><trkpt lat="46.183654608267624" lon="13.534207204846828"><ele>566.0</ele><time>2026-03-28T14:00:20.999Z</time></trkpt><trkpt lat="46.1836587663638" lon="13.534086841410934"><ele>566.0</ele><time>2026-03-28T14:00:21.999Z</time></trkpt><trkpt lat="46.18367976044721" lon="13.533954506876974"><ele>566.0</ele><time>2026-03-28T14:00:22.999Z</time></trkpt><trkpt lat="46.183720767250456" lon="13.533809667374344"><ele>566.0</ele><time>2026-03-28T14:00:23.999Z</time></trkpt><trkpt lat="46.183764240457066" lon="13.533651681774435"><ele>566.0</ele><time>2026-03-28T14:00:24.999Z</time></trkpt><trkpt lat="46.183796417361044" lon="13.533503032604997"><ele>566.0</ele><time>2026-03-28T14:00:25.999Z</time></trkpt><trkpt lat="46.18381941780143" lon="13.53335599053513"><ele>566.0</ele><time>2026-03-28T14:00:26.999Z</time></trkpt><trkpt lat="46.18383718239419" lon="13.533203957818605"><ele>566.0</ele><time>2026-03-28T14:00:27.999Z</time></trkpt><trkpt lat="46.18385216414777" lon="13.533055439893634"><ele>566.0</ele><time>2026-03-28T14:00:28.999Z</time></trkpt><trkpt lat="46.18387833003658" lon="13.532939352702478"><ele>566.0</ele><time>2026-03-28T14:00:29.999Z</time></trkpt><trkpt lat="46.183920298537885" lon="13.532847014573196"><ele>566.0</ele><time>2026-03-28T14:00:30.999Z</time></trkpt><trkpt lat="46.183970562553355" lon="13.532698478213574"><ele>566.0</ele><time>2026-03-28T14:00:33Z</time></trkpt><trkpt lat="46.183893660388" lon="13.532615902828145"><ele>566.0</ele><time>2026-03-28T14:00:35Z</time></trkpt><trkpt lat="46.18378537352357" lon="13.532725226994847"><ele>566.0</ele><time>2026-03-28T14:00:37Z</time></trkpt><trkpt lat="46.18375755740416" lon="13.532836778787969"><ele>566.0</ele><time>2026-03-28T14:00:38Z</time></trkpt><trkpt lat="46.183721887735985" lon="13.53295542548898"><ele>566.0</ele><time>2026-03-28T14:00:39Z</time></trkpt><trkpt lat="46.18367578359254" lon="13.533085906428788"><ele>566.0</ele><time>2026-03-28T14:00:40Z</time></trkpt><trkpt lat="46.183628795143996" lon="13.533203454299528"><ele>566.0</ele><time>2026-03-28T14:00:41Z</time></trkpt><trkpt lat="46.18358466278209" lon="13.533316370600444"><ele>566.0</ele><time>2026-03-28T14:00:42Z</time></trkpt><trkpt lat="46.18354250450327" lon="13.533431822727927"><ele>566.0</ele><time>2026-03-28T14:00:43Z</time></trkpt><trkpt lat="46.18350892141917" lon="13.533544736284442"><ele>566.0</ele><time>2026-03-28T14:00:44Z</time></trkpt><trkpt lat="46.183475444979145" lon="13.533656793980953"><ele>566.0</ele><time>2026-03-28T14:00:45Z</time></trkpt><trkpt lat="46.18343863958968" lon="13.533798338066005"><ele>566.0</ele><time>2026-03-28T14:00:46Z</time></trkpt><trkpt lat="46.18337474472396" lon="13.533931763127342"><ele>566.0</ele><time>2026-03-28T14:00:47Z</time></trkpt><trkpt lat="46.18331912816845" lon="13.534058709229306"><ele>566.0</ele><time>2026-03-28T14:00:48Z</time></trkpt><trkpt lat="46.18326038641267" lon="13.534171157498546"><ele>566.0</ele><time>2026-03-28T14:00:49Z</time></trkpt><trkpt lat="46.18323998425242" lon="13.534311575070689"><ele>566.0</ele><time>2026-03-28T14:00:50Z</time></trkpt><trkpt lat="46.18321447626645" lon="13.53445397125948"><ele>566.0</ele><time>2026-03-28T14:00:51Z</time></trkpt><trkpt lat="46.18319366833032" lon="13.5346184678534"><ele>566.0</ele><time>2026-03-28T14:00:52Z</time></trkpt><trkpt lat="46.1831855559761" lon="13.534787125655752"><ele>566.0</ele><time>2026-03-28T14:00:53Z</time></trkpt><trkpt lat="46.183175397909324" lon="13.534966168356672"><ele>566.0</ele><time>2026-03-28T14:00:54Z</time></trkpt><trkpt lat="46.1831564552178" lon="13.535144257293522"><ele>566.0</ele><time>2026-03-28T14:00:55Z</time></trkpt><trkpt lat="46.1831439832401" lon="13.535305785505937"><ele>566.0</ele><time>2026-03-28T14:00:56Z</time></trkpt><trkpt lat="46.18312469099669" lon="13.53545176965306"><ele>566.0</ele><time>2026-03-28T14:00:57Z</time></trkpt><trkpt lat="46.18309339061948" lon="13.535594090459725"><ele>566.0</ele><time>2026-03-28T14:00:58Z</time></trkpt><trkpt lat="46.18305016911875" lon="13.535751096848657"><ele>566.0</ele><time>2026-03-28T14:00:59Z</time></trkpt><trkpt lat="46.18300028828839" lon="13.535910163430492"><ele>566.0</ele><time>2026-03-28T14:01:00Z</time></trkpt><trkpt lat="46.182956644970496" lon="13.536060719173705"><ele>558.6</ele><time>2026-03-28T14:01:01Z</time></trkpt><trkpt lat="46.182925269791724" lon="13.536204875342854"><ele>551.2</ele><time>2026-03-28T14:01:02Z</time></trkpt><trkpt lat="46.182915123925774" lon="13.536345536300162"><ele>543.8</ele><time>2026-03-28T14:01:03Z</time></trkpt><trkpt lat="46.18291615066164" lon="13.536495473528923"><ele>536.4</ele><time>2026-03-28T14:01:04Z</time></trkpt><trkpt lat="46.18291854766222" lon="13.53663538525144"><ele>529.0</ele><time>2026-03-28T14:01:05Z</time></trkpt><trkpt lat="46.18292101671065" lon="13.536754751828939"><ele>529.0</ele><time>2026-03-28T14:01:06Z</time></trkpt><trkpt lat="46.18293362163174" lon="13.53685650665583"><ele>529.0</ele><time>2026-03-28T14:01:07Z</time></trkpt><trkpt lat="46.18297808950489" lon="13.536942424088018"><ele>529.0</ele><time>2026-03-28T14:01:08Z</time></trkpt><trkpt lat="46.18302647738875" lon="13.537007832107516"><ele>529.0</ele><time>2026-03-28T14:01:09Z</time></trkpt><trkpt lat="46.183095123264735" lon="13.537076967028623"><ele>529.0</ele><time>2026-03-28T14:01:11Z</time></trkpt><trkpt lat="46.18300123286309" lon="13.537160903146269"><ele>529.0</ele><time>2026-03-28T14:01:13Z</time></trkpt><trkpt lat="46.18294006077766" lon="13.537063871838575"><ele>529.0</ele><time>2026-03-28T14:01:14Z</time></trkpt><trkpt lat="46.182897008097" lon="13.536957792045765"><ele>529.0</ele><time>2026-03-28T14:01:15Z</time></trkpt><trkpt lat="46.18285683050062" lon="13.536845883304547"><ele>529.0</ele><time>2026-03-28T14:01:16Z</time></trkpt><trkpt lat="46.182806228307754" lon="13.53670086766974"><ele>529.0</ele><time>2026-03-28T14:01:17Z</time></trkpt><trkpt lat="46.18277292090735" lon="13.536545644774685"><ele>529.0</ele><time>2026-03-28T14:01:18Z</time></trkpt><trkpt lat="46.18271797393994" lon="13.53642189391178"><ele>529.0</ele><time>2026-03-28T14:01:19Z</time></trkpt><trkpt lat="46.18269498697087" lon="13.53629581224521"><ele>529.0</ele><time>2026-03-28T14:01:20Z</time></trkpt><trkpt lat="46.18268563768657" lon="13.536135531690055"><ele>529.0</ele><time>2026-03-28T14:01:21Z</time></trkpt><trkpt lat="46.18268512909011" lon="13.535982143676788"><ele>529.0</ele><time>2026-03-28T14:01:22Z</time></trkpt><trkpt lat="46.18269703723751" lon="13.535837831755195"><ele>529.0</ele><time>2026-03-28T14:01:23Z</time></trkpt><trkpt lat="46.18271677103943" lon="13.535706650187848"><ele>529.0</ele><time>2026-03-28T14:01:24Z</time></trkpt><trkpt lat="46.1827316376465" lon="13.535578636310492"><ele>529.0</ele><time>2026-03-28T14:01:25Z</time></trkpt><trkpt lat="46.1827613164558" lon="13.535476477694601"><ele>529.0</ele><time>2026-03-28T14:01:26Z</time></trkpt><trkpt lat="46.18276774581043" lon="13.535325996774233"><ele>529.0</ele><time>2026-03-28T14:01:28Z</time></trkpt><trkpt lat="46.18265039524161" lon="13.535306693579452"><ele>529.0</ele><time>2026-03-28T14:01:30Z</time></trkpt><trkpt lat="46.18260209561549" lon="13.535397797167166"><ele>529.0</ele><time>2026-03-28T14:01:31Z</time></trkpt><trkpt lat="46.182582176330186" lon="13.535547365777882"><ele>529.0</ele><time>2026-03-28T14:01:32Z</time></trkpt><trkpt lat="46.182563725868555" lon="13.53573372082591"><ele>529.0</ele><time>2026-03-28T14:01:33Z</time></trkpt><trkpt lat="46.18251777204893" lon="13.535935710005141"><ele>529.0</ele><time>2026-03-28T14:01:34Z</time></trkpt><trkpt lat="46.182465031766604" lon="13.536105785395064"><ele>529.0</ele><time>2026-03-28T14:01:35Z</time></trkpt><trkpt lat="46.182430863778706" lon="13.536255942960313"><ele>529.0</ele><time>2026-03-28T14:01:36Z</time></trkpt><trkpt lat="46.18241650877255" lon="13.53638309218076"><ele>529.0</ele><time>2026-03-28T14:01:37Z</time></trkpt><trkpt lat="46.18243116529374" lon="13.536501156237362"><ele>529.0</ele><time>2026-03-28T14:01:38Z</time></trkpt><trkpt lat="46.18244831528229" lon="13.536606535419619"><ele>529.0</ele><time>2026-03-28T14:01:39Z</time></trkpt><trkpt lat="46.18247713431054" lon="13.536704948107715"><ele>529.0</ele><time>2026-03-28T14:01:40Z</time></trkpt><trkpt lat="46.18252430725146" lon="13.536785573059486"><ele>529.0</ele><time>2026-03-28T14:01:41Z</time></trkpt><trkpt lat="46.18258175294536" lon="13.53684505785902"><ele>529.0</ele><time>2026-03-28T14:01:42Z</time></trkpt><trkpt lat="46.182626670171636" lon="13.536960200779951"><ele>529.0</ele><time>2026-03-28T14:01:44Z</time></trkpt><trkpt lat="46.182528482638595" lon="13.53697691477166"><ele>529.0</ele><time>2026-03-28T14:01:46Z</time></trkpt><trkpt lat="46.18248602656239" lon="13.536871720361132"><ele>529.0</ele><time>2026-03-28T14:01:47Z</time></trkpt><trkpt lat="46.18243281711777" lon="13.53675958529852"><ele>529.0</ele><time>2026-03-28T14:01:48Z</time></trkpt><trkpt lat="46.18235294286765" lon="13.536668309537895"><ele>529.0</ele><time>2026-03-28T14:01:49Z</time></trkpt><trkpt lat="46.182287889330794" lon="13.536586848695945"><ele>529.0</ele><time>2026-03-28T14:01:50Z</time></trkpt><trkpt lat="46.182242793396995" lon="13.536514754365676"><ele>529.0</ele><time>2026-03-28T14:01:51Z</time></trkpt><trkpt lat="46.182280612487524" lon="13.536397962087538"><ele>529.0</ele><time>2026-03-28T14:01:52Z</time></trkpt><trkpt lat="46.18226656526909" lon="13.536301084799417"><ele>529.0</ele><time>2026-03-28T14:01:53Z</time></trkpt><trkpt lat="46.18219624583082" lon="13.536190513881973"><ele>529.0</ele><time>2026-03-28T14:01:55Z</time></trkpt><trkpt lat="46.182113096269624" lon="13.53625928448296"><ele>529.0</ele><time>2026-03-28T14:01:56Z</time></trkpt><trkpt lat="46.18210200906453" lon="13.536386600736192"><ele>529.0</ele><time>2026-03-28T14:01:57Z</time></trkpt><trkpt lat="46.18210917411683" lon="13.536485931503497"><ele>529.0</ele><time>2026-03-28T14:01:58Z</time></trkpt><trkpt lat="46.18212451241931" lon="13.536585939187235"><ele>529.0</ele><time>2026-03-28T14:01:59Z</time></trkpt><trkpt lat="46.18214769726409" lon="13.536701303297644"><ele>529.0</ele><time>2026-03-28T14:02:00Z</time></trkpt><trkpt lat="46.182193464651846" lon="13.536819289966198"><ele>529.0</ele><time>2026-03-28T14:02:01Z</time></trkpt><trkpt lat="46.18225836422387" lon="13.536960007551498"><ele>529.0</ele><time>2026-03-28T14:02:02Z</time></trkpt><trkpt lat="46.18231446219357" lon="13.537136935303664"><ele>529.0</ele><time>2026-03-28T14:02:03Z</time></trkpt><trkpt lat="46.182357389248615" lon="13.537299208243997"><ele>529.0</ele><time>2026-03-28T14:02:04Z</time></trkpt><trkpt lat="46.18240750557553" lon="13.53743937216811"><ele>529.0</ele><time>2026-03-28T14:02:05Z</time></trkpt><trkpt lat="46.182470560506836" lon="13.53754290899785"><ele>529.0</ele><time>2026-03-28T14:02:06Z</time></trkpt><trkpt lat="46.18252577841688" lon="13.53761367427201"><ele>529.0</ele><time>2026-03-28T14:02:07Z</time></trkpt><trkpt lat="46.18253162841122" lon="13.537770788334944"><ele>529.0</ele><time>2026-03-28T14:02:09Z</time></trkpt><trkpt lat="46.18240948283309" lon="13.537751132981631"><ele>529.0</ele><time>2026-03-28T14:02:11Z</time></trkpt><trkpt lat="46.182333172212054" lon="13.537642137430618"><ele>529.0</ele><time>2026-03-28T14:02:12Z</time></trkpt><trkpt lat="46.182231280756426" lon="13.537485584136363"><ele>529.0</ele><time>2026-03-28T14:02:13Z</time></trkpt><trkpt lat="46.18214961982557" lon="13.537356312461648"><ele>529.0</ele><time>2026-03-28T14:02:14Z</time></trkpt><trkpt lat="46.182050218636086" lon="13.537239003987704"><ele>529.0</ele><time>2026-03-28T14:02:15Z</time></trkpt><trkpt lat="46.18196906056786" lon="13.537139639946787"><ele>529.0</ele><time>2026-03-28T14:02:16Z</time></trkpt><trkpt lat="46.18191495032302" lon="13.537040014289607"><ele>529.0</ele><time>2026-03-28T14:02:17Z</time></trkpt><trkpt lat="46.181895883488664" lon="13.536943804926326"><ele>529.0</ele><time>2026-03-28T14:02:18Z</time></trkpt><trkpt lat="46.18178888007722" lon="13.536895823194039"><ele>529.0</ele><time>2026-03-28T14:02:20Z</time></trkpt><trkpt lat="46.18174909887109" lon="13.536978073354854"><ele>529.0</ele><time>2026-03-28T14:02:21Z</time></trkpt><trkpt lat="46.18175607556355" lon="13.537083102099473"><ele>529.0</ele><time>2026-03-28T14:02:22Z</time></trkpt><trkpt lat="46.18180448878795" lon="13.537169611612542"><ele>529.0</ele><time>2026-03-28T14:02:22.999Z</time></trkpt><trkpt lat="46.18189105047482" lon="13.537225993637296"><ele>529.0</ele><time>2026-03-28T14:02:23.999Z</time></trkpt><trkpt lat="46.181966738078664" lon="13.537319447366428"><ele>529.0</ele><time>2026-03-28T14:02:24.999Z</time></trkpt><trkpt lat="46.182041714635716" lon="13.53748761675421"><ele>529.0</ele><time>2026-03-28T14:02:25.999Z</time></trkpt><trkpt lat="46.182098058849405" lon="13.537698328940047"><ele>529.0</ele><time>2026-03-28T14:02:26.999Z</time></trkpt><trkpt lat="46.18215151082525" lon="13.537878169113213"><ele>529.0</ele><time>2026-03-28T14:02:27.999Z</time></trkpt><trkpt lat="46.182210568920546" lon="13.538015918294581"><ele>518.5</ele><time>2026-03-28T14:02:28.999Z</time></trkpt><trkpt lat="46.18227195800628" lon="13.538115350601402"><ele>508.0</ele><time>2026-03-28T14:02:29.999Z</time></trkpt><trkpt lat="46.18234277332687" lon="13.538181016174551"><ele>497.5</ele><time>2026-03-28T14:02:30.999Z</time></trkpt><trkpt lat="46.18239783694064" lon="13.538231277385504"><ele>487.0</ele><time>2026-03-28T14:02:31.999Z</time></trkpt><trkpt lat="46.18239553198465" lon="13.538369054309728"><ele>476.50000000000006</ele><time>2026-03-28T14:02:33.999Z</time></trkpt><trkpt lat="46.182334972799985" lon="13.538403569056094"><ele>466.0</ele><time>2026-03-28T14:02:34.999Z</time></trkpt><trkpt lat="46.18226873961982" lon="13.538363288998452"><ele>466.0</ele><time>2026-03-28T14:02:35.999Z</time></trkpt><trkpt lat="46.182208768105376" lon="13.538260447437478"><ele>466.0</ele><time>2026-03-28T14:02:36.999Z</time></trkpt><trkpt lat="46.18212188195641" lon="13.538118736694335"><ele>466.0</ele><time>2026-03-28T14:02:37.999Z</time></trkpt><trkpt lat="46.18202003412839" lon="13.537973560299639"><ele>466.0</ele><time>2026-03-28T14:02:39Z</time></trkpt><trkpt lat="46.18193165446341" lon="13.537821726519445"><ele>466.0</ele><time>2026-03-28T14:02:40Z</time></trkpt><trkpt lat="46.18184535064398" lon="13.537691752696851"><ele>466.0</ele><time>2026-03-28T14:02:41Z</time></trkpt><trkpt lat="46.1817351079645" lon="13.537587758673766"><ele>466.0</ele><time>2026-03-28T14:02:42Z</time></trkpt><trkpt lat="46.181630054013624" lon="13.537522875134005"><ele>466.0</ele><time>2026-03-28T14:02:43Z</time></trkpt><trkpt lat="46.18155091256644" lon="13.537447806010942"><ele>466.0</ele><time>2026-03-28T14:02:44Z</time></trkpt><trkpt lat="46.18150838337661" lon="13.537326963971072"><ele>466.0</ele><time>2026-03-28T14:02:45Z</time></trkpt><trkpt lat="46.181461797135505" lon="13.537206772220015"><ele>466.0</ele><time>2026-03-28T14:02:46Z</time></trkpt><trkpt lat="46.18143679733244" lon="13.537077485342609"><ele>466.0</ele><time>2026-03-28T14:02:47Z</time></trkpt><trkpt lat="46.1814201328694" lon="13.536947021716315"><ele>466.0</ele><time>2026-03-28T14:02:48Z</time></trkpt><trkpt lat="46.181447855435145" lon="13.536793609242048"><ele>466.0</ele><time>2026-03-28T14:02:49Z</time></trkpt><trkpt lat="46.18146656588677" lon="13.536608809008493"><ele>466.0</ele><time>2026-03-28T14:02:50Z</time></trkpt><trkpt lat="46.18147928592027" lon="13.53643689481472"><ele>466.0</ele><time>2026-03-28T14:02:51Z</time></trkpt><trkpt lat="46.18149858488302" lon="13.536289754957952"><ele>466.0</ele><time>2026-03-28T14:02:52Z</time></trkpt><trkpt lat="46.181497835340814" lon="13.536149124131793"><ele>466.0</ele><time>2026-03-28T14:02:53Z</time></trkpt><trkpt lat="46.18148027898054" lon="13.536008414597385"><ele>466.0</ele><time>2026-03-28T14:02:54Z</time></trkpt><trkpt lat="46.18144034526303" lon="13.535879641913162"><ele>466.0</ele><time>2026-03-28T14:02:55Z</time></trkpt><trkpt lat="46.181402577047535" lon="13.535761427023978"><ele>466.0</ele><time>2026-03-28T14:02:56Z</time></trkpt><trkpt lat="46.18133715302142" lon="13.535663231222912"><ele>466.0</ele><time>2026-03-28T14:02:57Z</time></trkpt><trkpt lat="46.18125134910044" lon="13.535603796213492"><ele>466.0</ele><time>2026-03-28T14:02:58Z</time></trkpt><trkpt lat="46.18114110176922" lon="13.53556115391053"><ele>466.0</ele><time>2026-03-28T14:02:59Z</time></trkpt><trkpt lat="46.181039528288856" lon="13.535528740498462"><ele>466.0</ele><time>2026-03-28T14:03:00Z</time></trkpt><trkpt lat="46.18095342593329" lon="13.53546370551298"><ele>466.0</ele><time>2026-03-28T14:03:01Z</time></trkpt><trkpt lat="46.18087852963655" lon="13.53545910344717"><ele>466.0</ele><time>2026-03-28T14:03:02Z</time></trkpt><trkpt lat="46.180774341740296" lon="13.535443516149831"><ele>466.0</ele><time>2026-03-28T14:03:04Z</time></trkpt><trkpt lat="46.180720099315266" lon="13.535626994657695"><ele>466.0</ele><time>2026-03-28T14:03:06Z</time></trkpt><trkpt lat="46.18075404952914" lon="13.53576485740596"><ele>466.0</ele><time>2026-03-28T14:03:07Z</time></trkpt><trkpt lat="46.180740262630295" lon="13.535888459105932"><ele>466.0</ele><time>2026-03-28T14:03:08Z</time></trkpt><trkpt lat="46.180697155580795" lon="13.536035333706431"><ele>466.0</ele><time>2026-03-28T14:03:09Z</time></trkpt><trkpt lat="46.18063898104766" lon="13.536235905510129"><ele>466.0</ele><time>2026-03-28T14:03:10Z</time></trkpt><trkpt lat="46.18058119692735" lon="13.536454437362423"><ele>466.0</ele><time>2026-03-28T14:03:11Z</time></trkpt><trkpt lat="46.180529668939855" lon="13.536670308573218"><ele>466.0</ele><time>2026-03-28T14:03:12Z</time></trkpt><trkpt lat="46.18048658628195" lon="13.536851726741547"><ele>466.0</ele><time>2026-03-28T14:03:13Z</time></trkpt><trkpt lat="46.180446962931065" lon="13.537019923415409"><ele>466.0</ele><time>2026-03-28T14:03:14Z</time></trkpt><trkpt lat="46.18042312381015" lon="13.537179224218054"><ele>466.0</ele><time>2026-03-28T14:03:15Z</time></trkpt><trkpt lat="46.18042687078002" lon="13.53733805466344"><ele>466.0</ele><time>2026-03-28T14:03:16Z</time></trkpt><trkpt lat="46.18045190160375" lon="13.537472420515028"><ele>466.0</ele><time>2026-03-28T14:03:17Z</time></trkpt><trkpt lat="46.18047031707334" lon="13.537561471735325"><ele>466.00000000000006</ele><time>2026-03-28T14:03:18Z</time></trkpt><trkpt lat="46.18043214059565" lon="13.53763873564986"><ele>466.0</ele><time>2026-03-28T14:03:19Z</time></trkpt><trkpt lat="46.1803685070451" lon="13.537676431381463"><ele>466.0</ele><time>2026-03-28T14:03:20Z</time></trkpt><trkpt lat="46.18029398260797" lon="13.5376568332731"><ele>466.0</ele><time>2026-03-28T14:03:21Z</time></trkpt><trkpt lat="46.18019892411974" lon="13.537571710418945"><ele>466.00000000000006</ele><time>2026-03-28T14:03:22Z</time></trkpt><trkpt lat="46.18013194569555" lon="13.53747536987953"><ele>466.0</ele><time>2026-03-28T14:03:23Z</time></trkpt><trkpt lat="46.18009811408468" lon="13.537359637857362"><ele>466.0</ele><time>2026-03-28T14:03:24Z</time></trkpt><trkpt lat="46.18009192838007" lon="13.53721012011365"><ele>466.0</ele><time>2026-03-28T14:03:25Z</time></trkpt><trkpt lat="46.180055874187204" lon="13.537070771714033"><ele>466.0</ele><time>2026-03-28T14:03:26Z</time></trkpt><trkpt lat="46.179987269068825" lon="13.536960585995294"><ele>466.0</ele><time>2026-03-28T14:03:27Z</time></trkpt><trkpt lat="46.17991715201561" lon="13.536891934242703"><ele>466.0</ele><time>2026-03-28T14:03:28Z</time></trkpt><trkpt lat="46.17984834778204" lon="13.536870017425592"><ele>466.00000000000006</ele><time>2026-03-28T14:03:29Z</time></trkpt><trkpt lat="46.17977584827526" lon="13.53700563483921"><ele>466.0</ele><time>2026-03-28T14:03:31Z</time></trkpt><trkpt lat="46.17981288593047" lon="13.537093154422267"><ele>466.0</ele><time>2026-03-28T14:03:32Z</time></trkpt><trkpt lat="46.179875756292894" lon="13.537145205666347"><ele>466.0</ele><time>2026-03-28T14:03:33Z</time></trkpt><trkpt lat="46.17991968801013" lon="13.537271560122992"><ele>466.00000000000006</ele><time>2026-03-28T14:03:35Z</time></trkpt><trkpt lat="46.17985971565891" lon="13.537333805495425"><ele>466.0</ele><time>2026-03-28T14:03:36Z</time></trkpt><trkpt lat="46.179778133617795" lon="13.537306439288269"><ele>466.00000000000006</ele><time>2026-03-28T14:03:37Z</time></trkpt><trkpt lat="46.17969620955404" lon="13.537212912106108"><ele>466.0</ele><time>2026-03-28T14:03:38Z</time></trkpt><trkpt lat="46.17960919635649" lon="13.537172662287809"><ele>466.0</ele><time>2026-03-28T14:03:39Z</time></trkpt><trkpt lat="46.17952389640772" lon="13.537166029613216"><ele>466.0</ele><time>2026-03-28T14:03:40Z</time></trkpt><trkpt lat="46.179457345729595" lon="13.537119150935425"><ele>466.00000000000006</ele><time>2026-03-28T14:03:41Z</time></trkpt><trkpt lat="46.17943900769844" lon="13.53701473191727"><ele>466.0</ele><time>2026-03-28T14:03:42Z</time></trkpt><trkpt lat="46.17945048542442" lon="13.536897450018948"><ele>466.0</ele><time>2026-03-28T14:03:43Z</time></trkpt><trkpt lat="46.17936401793846" lon="13.536789256108403"><ele>466.0</ele><time>2026-03-28T14:03:45Z</time></trkpt><trkpt lat="46.17927813050705" lon="13.536824125835986"><ele>466.0</ele><time>2026-03-28T14:03:46Z</time></trkpt><trkpt lat="46.17918104370786" lon="13.536878971785029"><ele>466.0</ele><time>2026-03-28T14:03:47Z</time></trkpt><trkpt lat="46.179062964353854" lon="13.536949920631239"><ele>466.0</ele><time>2026-03-28T14:03:48Z</time></trkpt><trkpt lat="46.178949192192306" lon="13.537033918988753"><ele>466.0</ele><time>2026-03-28T14:03:49Z</time></trkpt><trkpt lat="46.178843029580754" lon="13.537109715138627"><ele>466.0</ele><time>2026-03-28T14:03:50Z</time></trkpt><trkpt lat="46.17874376145836" lon="13.537120897026806"><ele>466.0</ele><time>2026-03-28T14:03:51Z</time></trkpt><trkpt lat="46.178641531160345" lon="13.537174279387644"><ele>466.0</ele><time>2026-03-28T14:03:52Z</time></trkpt><trkpt lat="46.178539730712316" lon="13.537199056149879"><ele>466.0</ele><time>2026-03-28T14:03:53Z</time></trkpt><trkpt lat="46.17838921542717" lon="13.537223048601302"><ele>466.0</ele><time>2026-03-28T14:03:54Z</time></trkpt><trkpt lat="46.1782546605633" lon="13.537256445542276"><ele>466.0</ele><time>2026-03-28T14:03:55Z</time></trkpt><trkpt lat="46.17814542913204" lon="13.53729653998474"><ele>466.0</ele><time>2026-03-28T14:03:56Z</time></trkpt><trkpt lat="46.178053605566724" lon="13.537313153801774"><ele>466.0</ele><time>2026-03-28T14:03:57Z</time></trkpt><trkpt lat="46.177969092584355" lon="13.53732749860153"><ele>466.0</ele><time>2026-03-28T14:03:58Z</time></trkpt><trkpt lat="46.17787555179468" lon="13.537304295647772"><ele>466.0</ele><time>2026-03-28T14:03:59Z</time></trkpt><trkpt lat="46.177793701987184" lon="13.537253128081005"><ele>466.0</ele><time>2026-03-28T14:04:00Z</time></trkpt><trkpt lat="46.177710835441104" lon="13.537164630587496"><ele>466.0</ele><time>2026-03-28T14:04:01Z</time></trkpt><trkpt lat="46.17764733966321" lon="13.537023474637595"><ele>466.0</ele><time>2026-03-28T14:04:02Z</time></trkpt><trkpt lat="46.17759141895517" lon="13.536877965425141"><ele>466.0</ele><time>2026-03-28T14:04:03Z</time></trkpt><trkpt lat="46.17754413213782" lon="13.536771129754625"><ele>466.00000000000006</ele><time>2026-03-28T14:04:04Z</time></trkpt><trkpt lat="46.17749460633431" lon="13.536705419093305"><ele>466.0</ele><time>2026-03-28T14:04:05Z</time></trkpt><trkpt lat="46.177425725244845" lon="13.536675831326711"><ele>466.0</ele><time>2026-03-28T14:04:06Z</time></trkpt><trkpt lat="46.177345816511675" lon="13.536699455282086"><ele>466.0</ele><time>2026-03-28T14:04:07Z</time></trkpt><trkpt lat="46.17726361729196" lon="13.53677051333109"><ele>466.00000000000006</ele><time>2026-03-28T14:04:08Z</time></trkpt><trkpt lat="46.17716036393513" lon="13.536850036759764"><ele>466.0</ele><time>2026-03-28T14:04:09Z</time></trkpt><trkpt lat="46.177064312345664" lon="13.536961831397976"><ele>466.0</ele><time>2026-03-28T14:04:10Z</time></trkpt><trkpt lat="46.176966056925046" lon="13.53707079026293"><ele>466.0</ele><time>2026-03-28T14:04:11Z</time></trkpt><trkpt lat="46.176875934216255" lon="13.53716912150741"><ele>466.0</ele><time>2026-03-28T14:04:12Z</time></trkpt><trkpt lat="46.17680314855506" lon="13.537244776088869"><ele>466.0</ele><time>2026-03-28T14:04:13Z</time></trkpt><trkpt lat="46.176740018103246" lon="13.537269171593818"><ele>466.0</ele><time>2026-03-28T14:04:14Z</time></trkpt><trkpt lat="46.17661496747003" lon="13.537314779475903"><ele>466.0</ele><time>2026-03-28T14:04:16Z</time></trkpt><trkpt lat="46.176542271099436" lon="13.53735683414172"><ele>466.0</ele><time>2026-03-28T14:04:17Z</time></trkpt><trkpt lat="46.17645742076216" lon="13.53735652205678"><ele>466.0</ele><time>2026-03-28T14:04:18Z</time></trkpt><trkpt lat="46.17635421959566" lon="13.537365464103036"><ele>466.0</ele><time>2026-03-28T14:04:19Z</time></trkpt><trkpt lat="46.17623625982022" lon="13.537344186306907"><ele>466.0</ele><time>2026-03-28T14:04:20Z</time></trkpt><trkpt lat="46.17611966471246" lon="13.537367353852572"><ele>466.0</ele><time>2026-03-28T14:04:21Z</time></trkpt><trkpt lat="46.175994208888795" lon="13.537364672310119"><ele>466.0</ele><time>2026-03-28T14:04:22Z</time></trkpt><trkpt lat="46.17586020221477" lon="13.537359480521806"><ele>466.0</ele><time>2026-03-28T14:04:23Z</time></trkpt><trkpt lat="46.1757272990251" lon="13.537368424836401"><ele>466.0</ele><time>2026-03-28T14:04:24Z</time></trkpt><trkpt lat="46.175606942693705" lon="13.537352161987029"><ele>466.0</ele><time>2026-03-28T14:04:25Z</time></trkpt><trkpt lat="46.17548852197771" lon="13.53735564744471"><ele>466.0</ele><time>2026-03-28T14:04:26Z</time></trkpt><trkpt lat="46.175371810348075" lon="13.537384310162613"><ele>466.0</ele><time>2026-03-28T14:04:26.999Z</time></trkpt><trkpt lat="46.17524988731033" lon="13.537380397708663"><ele>466.0</ele><time>2026-03-28T14:04:27.999Z</time></trkpt><trkpt lat="46.175115595192814" lon="13.53735379269625"><ele>466.0</ele><time>2026-03-28T14:04:28.999Z</time></trkpt><trkpt lat="46.174972650970965" lon="13.53732920669159"><ele>466.0</ele><time>2026-03-28T14:04:29.999Z</time></trkpt><trkpt lat="46.17481551700504" lon="13.537319653170988"><ele>466.0</ele><time>2026-03-28T14:04:30.999Z</time></trkpt><trkpt lat="46.17465384598636" lon="13.53727358783474"><ele>466.0</ele><time>2026-03-28T14:04:31.999Z</time></trkpt><trkpt lat="46.1744811348875" lon="13.537245958131287"><ele>466.0</ele><time>2026-03-28T14:04:32.999Z</time></trkpt><trkpt lat="46.17429767672221" lon="13.537216652185151"><ele>466.0</ele><time>2026-03-28T14:04:33.999Z</time></trkpt><trkpt lat="46.174110310592184" lon="13.537181242014231"><ele>466.0</ele><time>2026-03-28T14:04:34.999Z</time></trkpt><trkpt lat="46.173917284432875" lon="13.537145454160386"><ele>466.0</ele><time>2026-03-28T14:04:35.999Z</time></trkpt><trkpt lat="46.17372932359268" lon="13.537108395266984"><ele>466.0</ele><time>2026-03-28T14:04:36.999Z</time></trkpt><trkpt lat="46.173544705467826" lon="13.537066226920086"><ele>466.0</ele><time>2026-03-28T14:04:37.999Z</time></trkpt><trkpt lat="46.173362564505766" lon="13.537025494975968"><ele>466.0</ele><time>2026-03-28T14:04:38.999Z</time></trkpt><trkpt lat="46.1731798560611" lon="13.536992493794274"><ele>466.0</ele><time>2026-03-28T14:04:39.999Z</time></trkpt><trkpt lat="46.17299694458121" lon="13.536958715344854"><ele>466.0</ele><time>2026-03-28T14:04:40.999Z</time></trkpt><trkpt lat="46.17282137107987" lon="13.536923679375219"><ele>466.0</ele><time>2026-03-28T14:04:41.999Z</time></trkpt><trkpt lat="46.17264870964538" lon="13.536891092218031"><ele>466.0</ele><time>2026-03-28T14:04:42.999Z</time></trkpt><trkpt lat="46.1724820540604" lon="13.536835314869803"><ele>466.0</ele><time>2026-03-28T14:04:43.999Z</time></trkpt><trkpt lat="46.1723179961122" lon="13.536800591995819"><ele>466.0</ele><time>2026-03-28T14:04:45Z</time></trkpt><trkpt lat="46.17215351984565" lon="13.536764429422659"><ele>466.0</ele><time>2026-03-28T14:04:46Z</time></trkpt><trkpt lat="46.17198069029537" lon="13.536724758923949"><ele>420.6666666666667</ele><time>2026-03-28T14:04:47Z</time></trkpt><trkpt lat="46.17179447806282" lon="13.536706905678374"><ele>375.33333333333337</ele><time>2026-03-28T14:04:48Z</time></trkpt><trkpt lat="46.17160259130562" lon="13.536664070428937"><ele>330.0</ele><time>2026-03-28T14:04:49Z</time></trkpt><trkpt lat="46.17140531000749" lon="13.536624003179348"><ele>330.0</ele><time>2026-03-28T14:04:50Z</time></trkpt><trkpt lat="46.171213588015505" lon="13.536583465847778"><ele>330.0</ele><time>2026-03-28T14:04:51Z</time></trkpt><trkpt lat="46.17104320850303" lon="13.536546972407468"><ele>330.0</ele><time>2026-03-28T14:04:52Z</time></trkpt><trkpt lat="46.17087060306295" lon="13.536512138282738"><ele>330.0</ele><time>2026-03-28T14:04:53Z</time></trkpt><trkpt lat="46.17069305140104" lon="13.536480243166432"><ele>330.0</ele><time>2026-03-28T14:04:54Z</time></trkpt><trkpt lat="46.17052466570748" lon="13.536427827645552"><ele>330.0</ele><time>2026-03-28T14:04:55Z</time></trkpt><trkpt lat="46.17034654468686" lon="13.536406061465023"><ele>332.3333333333333</ele><time>2026-03-28T14:04:56Z</time></trkpt><trkpt lat="46.170160897948584" lon="13.536413015048979"><ele>334.66666666666663</ele><time>2026-03-28T14:04:57Z</time></trkpt><trkpt lat="46.16999077977956" lon="13.536445926887684"><ele>337.0</ele><time>2026-03-28T14:04:58Z</time></trkpt><trkpt lat="46.169833683885386" lon="13.53644503526542"><ele>340.66666666666663</ele><time>2026-03-28T14:04:59Z</time></trkpt><trkpt lat="46.16968369123505" lon="13.536418885285904"><ele>344.3333333333333</ele><time>2026-03-28T14:05:00Z</time></trkpt><trkpt lat="46.16953657795954" lon="13.536291281456378"><ele>348.0</ele><time>2026-03-28T14:05:01Z</time></trkpt><trkpt lat="46.169367163176275" lon="13.536219566323293"><ele>348.0</ele><time>2026-03-28T14:05:02Z</time></trkpt><trkpt lat="46.16918118924567" lon="13.536130225138416"><ele>348.0</ele><time>2026-03-28T14:05:03Z</time></trkpt><trkpt lat="46.16898494710141" lon="13.536071293822404"><ele>348.0</ele><time>2026-03-28T14:05:04Z</time></trkpt><trkpt lat="46.16880332111312" lon="13.536027960761551"><ele>348.0</ele><time>2026-03-28T14:05:05Z</time></trkpt><trkpt lat="46.16862719179595" lon="13.536000932563143"><ele>348.0</ele><time>2026-03-28T14:05:06Z</time></trkpt><trkpt lat="46.16844836869848" lon="13.536004530666688"><ele>348.0</ele><time>2026-03-28T14:05:07Z</time></trkpt><trkpt lat="46.16827722030721" lon="13.536006711966424"><ele>348.0</ele><time>2026-03-28T14:05:08Z</time></trkpt><trkpt lat="46.168119372587036" lon="13.536005803673461"><ele>348.0</ele><time>2026-03-28T14:05:09Z</time></trkpt><trkpt lat="46.167971458679716" lon="13.536011272489207"><ele>348.0</ele><time>2026-03-28T14:05:10Z</time></trkpt><trkpt lat="46.16781649023234" lon="13.536054342259527"><ele>348.0</ele><time>2026-03-28T14:05:11Z</time></trkpt><trkpt lat="46.16765160386675" lon="13.536124156319493"><ele>348.0</ele><time>2026-03-28T14:05:12Z</time></trkpt><trkpt lat="46.16750898351313" lon="13.536164992892553"><ele>348.0</ele><time>2026-03-28T14:05:13Z</time></trkpt><trkpt lat="46.16737411572985" lon="13.536141034653895"><ele>342.5</ele><time>2026-03-28T14:05:14Z</time></trkpt><trkpt lat="46.16723715420312" lon="13.536155456698598"><ele>337.0</ele><time>2026-03-28T14:05:15Z</time></trkpt><trkpt lat="46.167096705950385" lon="13.536202957040938"><ele>331.5</ele><time>2026-03-28T14:05:16Z</time></trkpt><trkpt lat="46.166962843247184" lon="13.536262569295197"><ele>326.0</ele><time>2026-03-28T14:05:17Z</time></trkpt><trkpt lat="46.16685185127259" lon="13.53631910272753"><ele>326.0</ele><time>2026-03-28T14:05:18Z</time></trkpt><trkpt lat="46.166735784419224" lon="13.536248980345624"><ele>326.0</ele><time>2026-03-28T14:05:19Z</time></trkpt><trkpt lat="46.16658175482413" lon="13.536227251676758"><ele>326.0</ele><time>2026-03-28T14:05:20Z</time></trkpt><trkpt lat="46.166402641902614" lon="13.536216036956603"><ele>326.0</ele><time>2026-03-28T14:05:21Z</time></trkpt><trkpt lat="46.166206373779026" lon="13.53620390323631"><ele>326.0</ele><time>2026-03-28T14:05:22Z</time></trkpt><trkpt lat="46.16599470057687" lon="13.536194403546766"><ele>326.0</ele><time>2026-03-28T14:05:23Z</time></trkpt><trkpt lat="46.165798400240114" lon="13.536184408852437"><ele>317.33333333333337</ele><time>2026-03-28T14:05:24Z</time></trkpt><trkpt lat="46.16562651582969" lon="13.53617422611676"><ele>308.6666666666667</ele><time>2026-03-28T14:05:25Z</time></trkpt><trkpt lat="46.165477450491885" lon="13.536160902821633"><ele>300.0</ele><time>2026-03-28T14:05:26Z</time></trkpt><trkpt lat="46.16534730072803" lon="13.536135129217115"><ele>300.0</ele><time>2026-03-28T14:05:27Z</time></trkpt><trkpt lat="46.16522728684526" lon="13.536074490662084"><ele>300.0</ele><time>2026-03-28T14:05:28Z</time></trkpt><trkpt lat="46.16512003493307" lon="13.53598392916079"><ele>300.0</ele><time>2026-03-28T14:05:29Z</time></trkpt><trkpt lat="46.165030905902896" lon="13.535861113529762"><ele>300.0</ele><time>2026-03-28T14:05:30Z</time></trkpt><trkpt lat="46.164940368697565" lon="13.535721772248158"><ele>300.0</ele><time>2026-03-28T14:05:31Z</time></trkpt><trkpt lat="46.16486686255774" lon="13.535557543652923"><ele>300.0</ele><time>2026-03-28T14:05:32Z</time></trkpt><trkpt lat="46.16478773498474" lon="13.53538839983256"><ele>300.0</ele><time>2026-03-28T14:05:33Z</time></trkpt><trkpt lat="46.16471071837543" lon="13.535223835266267"><ele>300.0</ele><time>2026-03-28T14:05:34Z</time></trkpt><trkpt lat="46.164638222982305" lon="13.535071344724011"><ele>300.0</ele><time>2026-03-28T14:05:35Z</time></trkpt><trkpt lat="46.16456050909203" lon="13.534935226981958"><ele>300.0</ele><time>2026-03-28T14:05:36Z</time></trkpt><trkpt lat="46.164475876438395" lon="13.5348097190174"><ele>300.0</ele><time>2026-03-28T14:05:37Z</time></trkpt><trkpt lat="46.16438618210039" lon="13.534691755288943"><ele>300.0</ele><time>2026-03-28T14:05:38Z</time></trkpt><trkpt lat="46.16429162717135" lon="13.534558852285768"><ele>291.5</ele><time>2026-03-28T14:05:39Z</time></trkpt><trkpt lat="46.16419051941183" lon="13.534419682945527"><ele>283.0</ele><time>2026-03-28T14:05:40Z</time></trkpt><trkpt lat="46.16408620063827" lon="13.534291340251874"><ele>274.5</ele><time>2026-03-28T14:05:41Z</time></trkpt><trkpt lat="46.1639832878589" lon="13.534187297017672"><ele>266.0</ele><time>2026-03-28T14:05:42Z</time></trkpt><trkpt lat="46.16387566780823" lon="13.534112170178558"><ele>264.25</ele><time>2026-03-28T14:05:43Z</time></trkpt><trkpt lat="46.16376668755451" lon="13.534058552332702"><ele>262.5</ele><time>2026-03-28T14:05:44Z</time></trkpt><trkpt lat="46.16366772352663" lon="13.534011065353507"><ele>260.75</ele><time>2026-03-28T14:05:45Z</time></trkpt><trkpt lat="46.16355402799039" lon="13.534022170381219"><ele>259.0</ele><time>2026-03-28T14:05:46Z</time></trkpt><trkpt lat="46.163426667799456" lon="13.534062731347197"><ele>259.0</ele><time>2026-03-28T14:05:47Z</time></trkpt><trkpt lat="46.16328555911028" lon="13.534140398053543"><ele>259.0</ele><time>2026-03-28T14:05:48Z</time></trkpt><trkpt lat="46.16313661908001" lon="13.534238507551443"><ele>259.0</ele><time>2026-03-28T14:05:49Z</time></trkpt><trkpt lat="46.162975734891056" lon="13.534346349090363"><ele>256.3333333333333</ele><time>2026-03-28T14:05:50Z</time></trkpt><trkpt lat="46.162806961511734" lon="13.534462726472194"><ele>253.66666666666669</ele><time>2026-03-28T14:05:51Z</time></trkpt><trkpt lat="46.16264217443265" lon="13.53457557488429"><ele>251.0</ele><time>2026-03-28T14:05:52Z</time></trkpt><trkpt lat="46.162489827021595" lon="13.534671605332552"><ele>252.0</ele><time>2026-03-28T14:05:53Z</time></trkpt><trkpt lat="46.16234986317841" lon="13.53476733619828"><ele>253.0</ele><time>2026-03-28T14:05:54Z</time></trkpt><trkpt lat="46.16220922290911" lon="13.534825197359474"><ele>254.0</ele><time>2026-03-28T14:05:55Z</time></trkpt><trkpt lat="46.162068612431725" lon="13.534876429826028"><ele>255.0</ele><time>2026-03-28T14:05:56Z</time></trkpt><trkpt lat="46.16191946293228" lon="13.53489840934926"><ele>255.0</ele><time>2026-03-28T14:05:57Z</time></trkpt><trkpt lat="46.161772897659716" lon="13.53493927029203"><ele>255.0</ele><time>2026-03-28T14:05:58Z</time></trkpt><trkpt lat="46.16162734859451" lon="13.534946054178327"><ele>255.0</ele><time>2026-03-28T14:05:59Z</time></trkpt><trkpt lat="46.16148227362786" lon="13.534962544798558"><ele>255.0</ele><time>2026-03-28T14:06:00Z</time></trkpt><trkpt lat="46.16134566619672" lon="13.534953512044321"><ele>251.5</ele><time>2026-03-28T14:06:01Z</time></trkpt><trkpt lat="46.16122154210219" lon="13.534944944239744"><ele>248.0</ele><time>2026-03-28T14:06:02Z</time></trkpt><trkpt lat="46.16109992202831" lon="13.534923047423229"><ele>244.5</ele><time>2026-03-28T14:06:03Z</time></trkpt><trkpt lat="46.160978543209865" lon="13.534943447864347"><ele>241.0</ele><time>2026-03-28T14:06:04Z</time></trkpt><trkpt lat="46.16086233059674" lon="13.534992340282773"><ele>241.0</ele><time>2026-03-28T14:06:05Z</time></trkpt><trkpt lat="46.16075309301752" lon="13.535045953134189"><ele>241.00000000000003</ele><time>2026-03-28T14:06:06Z</time></trkpt><trkpt lat="46.16066074618194" lon="13.535084552313917"><ele>241.00000000000003</ele><time>2026-03-28T14:06:07Z</time></trkpt><trkpt lat="46.16057827850871" lon="13.535099437391382"><ele>241.0</ele><time>2026-03-28T14:06:08Z</time></trkpt><trkpt lat="46.1605010441145" lon="13.535085840486056"><ele>241.0</ele><time>2026-03-28T14:06:09Z</time></trkpt><trkpt lat="46.16042669859911" lon="13.535032511883294"><ele>237.83333333333331</ele><time>2026-03-28T14:06:10Z</time></trkpt><trkpt lat="46.160351662466326" lon="13.534958227021296"><ele>234.66666666666666</ele><time>2026-03-28T14:06:11Z</time></trkpt><trkpt lat="46.16027882273794" lon="13.534891206186021"><ele>231.5</ele><time>2026-03-28T14:06:12Z</time></trkpt><trkpt lat="46.160209272793374" lon="13.53482729426705"><ele>228.33333333333331</ele><time>2026-03-28T14:06:13Z</time></trkpt><trkpt lat="46.16014083979808" lon="13.534758484783106"><ele>225.16666666666666</ele><time>2026-03-28T14:06:14Z</time></trkpt><trkpt lat="46.16008054906187" lon="13.534680063581272"><ele>222.0</ele><time>2026-03-28T14:06:15Z</time></trkpt><trkpt lat="46.160034848537904" lon="13.534585410730388"><ele>221.83333333333334</ele><time>2026-03-28T14:06:16Z</time></trkpt><trkpt lat="46.159994489802564" lon="13.534484539218363"><ele>221.66666666666669</ele><time>2026-03-28T14:06:17Z</time></trkpt><trkpt lat="46.15995457908125" lon="13.53438622232416"><ele>221.5</ele><time>2026-03-28T14:06:18Z</time></trkpt><trkpt lat="46.15992868719811" lon="13.534274862854689"><ele>221.33333333333334</ele><time>2026-03-28T14:06:19Z</time></trkpt><trkpt lat="46.159904112177024" lon="13.534165886974826"><ele>221.16666666666669</ele><time>2026-03-28T14:06:20Z</time></trkpt><trkpt lat="46.159882999792046" lon="13.534073314164157"><ele>221.0</ele><time>2026-03-28T14:06:21Z</time></trkpt><trkpt lat="46.159856350746416" lon="13.533932459215908"><ele>220.50000000000003</ele><time>2026-03-28T14:06:23Z</time></trkpt><trkpt lat="46.15976704367139" lon="13.533800616023532"><ele>220.0</ele><time>2026-03-28T14:06:25Z</time></trkpt><trkpt lat="46.15971068854216" lon="13.533720295817934"><ele>219.5</ele><time>2026-03-28T14:06:26Z</time></trkpt><trkpt lat="46.159651703104544" lon="13.533629844426883"><ele>219.0</ele><time>2026-03-28T14:06:27Z</time></trkpt><trkpt lat="46.15959890409784" lon="13.533555976987856"><ele>218.50000000000003</ele><time>2026-03-28T14:06:27.999Z</time></trkpt><trkpt lat="46.159538407091674" lon="13.533475009614747"><ele>218.0</ele><time>2026-03-28T14:06:28.999Z</time></trkpt><trkpt lat="46.15943352744412" lon="13.5334731074375"><ele>217.60000000000002</ele><time>2026-03-28T14:06:29.999Z</time></trkpt><trkpt lat="46.159320941016844" lon="13.533483633726673"><ele>217.20000000000002</ele><time>2026-03-28T14:06:30.999Z</time></trkpt><trkpt lat="46.15921585236159" lon="13.533515480300036"><ele>216.8</ele><time>2026-03-28T14:06:31.999Z</time></trkpt><trkpt lat="46.159123040773174" lon="13.53352481959968"><ele>216.4</ele><time>2026-03-28T14:06:32.999Z</time></trkpt><trkpt lat="46.159028849512886" lon="13.533533575257891"><ele>216.0</ele><time>2026-03-28T14:06:33.999Z</time></trkpt><trkpt lat="46.158932510792226" lon="13.533513724583452"><ele>215.4</ele><time>2026-03-28T14:06:34.999Z</time></trkpt><trkpt lat="46.158837638942025" lon="13.533468233027431"><ele>214.8</ele><time>2026-03-28T14:06:35.999Z</time></trkpt><trkpt lat="46.15874598587324" lon="13.533375291112426"><ele>214.20000000000002</ele><time>2026-03-28T14:06:36.999Z</time></trkpt><trkpt lat="46.158664566872424" lon="13.533252645203953"><ele>213.60000000000002</ele><time>2026-03-28T14:06:37.999Z</time></trkpt><trkpt lat="46.15859296574351" lon="13.533120879372275"><ele>213.0</ele><time>2026-03-28T14:06:38.999Z</time></trkpt><trkpt lat="46.15851607128444" lon="13.533000381068232"><ele>212.60000000000002</ele><time>2026-03-28T14:06:39.999Z</time></trkpt><trkpt lat="46.15843773661852" lon="13.532878737096114"><ele>212.20000000000002</ele><time>2026-03-28T14:06:40.999Z</time></trkpt><trkpt lat="46.15837364871981" lon="13.532755722900585"><ele>211.8</ele><time>2026-03-28T14:06:41.999Z</time></trkpt><trkpt lat="46.15831190096887" lon="13.532626282242667"><ele>211.4</ele><time>2026-03-28T14:06:42.999Z</time></trkpt><trkpt lat="46.158250560545504" lon="13.532488784800465"><ele>211.0</ele><time>2026-03-28T14:06:43.999Z</time></trkpt><trkpt lat="46.15819018929363" lon="13.53234934642855"><ele>211.0</ele><time>2026-03-28T14:06:44.999Z</time></trkpt><trkpt lat="46.1581208742106" lon="13.532210965240917"><ele>211.0</ele><time>2026-03-28T14:06:45.999Z</time></trkpt><trkpt lat="46.15805897758202" lon="13.532079844715213"><ele>211.0</ele><time>2026-03-28T14:06:46.999Z</time></trkpt><trkpt lat="46.15800049374273" lon="13.531945620321189"><ele>211.0</ele><time>2026-03-28T14:06:47.999Z</time></trkpt><trkpt lat="46.15793994908548" lon="13.53181598788001"><ele>211.0</ele><time>2026-03-28T14:06:48.999Z</time></trkpt><trkpt lat="46.157878171772175" lon="13.531695673388295"><ele>211.0</ele><time>2026-03-28T14:06:49.999Z</time></trkpt><trkpt lat="46.157823319903315" lon="13.531570952116178"><ele>211.0</ele><time>2026-03-28T14:06:51Z</time></trkpt><trkpt lat="46.157768722698634" lon="13.531445027728406"><ele>211.0</ele><time>2026-03-28T14:06:52Z</time></trkpt><trkpt lat="46.15771141131491" lon="13.531317447465433"><ele>211.0</ele><time>2026-03-28T14:06:53Z</time></trkpt><trkpt lat="46.157650110951074" lon="13.531183607097631"><ele>211.0</ele><time>2026-03-28T14:06:54Z</time></trkpt><trkpt lat="46.157588775746056" lon="13.531054233504138"><ele>210.4</ele><time>2026-03-28T14:06:55Z</time></trkpt><trkpt lat="46.15753038019625" lon="13.530931404399723"><ele>209.8</ele><time>2026-03-28T14:06:56Z</time></trkpt><trkpt lat="46.15747683529759" lon="13.530815284504895"><ele>209.20000000000002</ele><time>2026-03-28T14:06:57Z</time></trkpt><trkpt lat="46.15742463050153" lon="13.5307053721953"><ele>208.60000000000002</ele><time>2026-03-28T14:06:58Z</time></trkpt><trkpt lat="46.157374596387996" lon="13.530601539604916"><ele>208.0</ele><time>2026-03-28T14:06:59Z</time></trkpt><trkpt lat="46.15732206677949" lon="13.530498372927319"><ele>208.4</ele><time>2026-03-28T14:07:00Z</time></trkpt><trkpt lat="46.1572641454359" lon="13.530383187372994"><ele>208.8</ele><time>2026-03-28T14:07:01Z</time></trkpt><trkpt lat="46.1571980709058" lon="13.5302607638587"><ele>209.2</ele><time>2026-03-28T14:07:02Z</time></trkpt><trkpt lat="46.15712358315243" lon="13.530134262101145"><ele>209.6</ele><time>2026-03-28T14:07:03Z</time></trkpt><trkpt lat="46.1570438294529" lon="13.530012843508706"><ele>210.0</ele><time>2026-03-28T14:07:04Z</time></trkpt><trkpt lat="46.156959831918286" lon="13.529892597703874"><ele>210.0</ele><time>2026-03-28T14:07:05Z</time></trkpt><trkpt lat="46.15687600000607" lon="13.529767495625812"><ele>210.0</ele><time>2026-03-28T14:07:06Z</time></trkpt><trkpt lat="46.15678853866391" lon="13.529647115119323"><ele>210.0</ele><time>2026-03-28T14:07:07Z</time></trkpt><trkpt lat="46.15670007182456" lon="13.52952889537592"><ele>210.0</ele><time>2026-03-28T14:07:08Z</time></trkpt><trkpt lat="46.156610248470884" lon="13.529399158308946"><ele>208.25</ele><time>2026-03-28T14:07:09Z</time></trkpt><trkpt lat="46.15651791872676" lon="13.52926431287637"><ele>206.5</ele><time>2026-03-28T14:07:10Z</time></trkpt><trkpt lat="46.15642752973848" lon="13.529118752793012"><ele>204.75</ele><time>2026-03-28T14:07:11Z</time></trkpt><trkpt lat="46.15634330292901" lon="13.528959742499056"><ele>203.0</ele><time>2026-03-28T14:07:12Z</time></trkpt><trkpt lat="46.15627050200775" lon="13.52878609954596"><ele>202.0</ele><time>2026-03-28T14:07:13Z</time></trkpt><trkpt lat="46.1562011548748" lon="13.528584417355587"><ele>201.0</ele><time>2026-03-28T14:07:14Z</time></trkpt><trkpt lat="46.15613361922597" lon="13.52837253395585"><ele>200.0</ele><time>2026-03-28T14:07:15Z</time></trkpt><trkpt lat="46.185543246448184" lon="13.535001018858168"><ele>303.75</ele><time>2026-03-28T13:59:13Z</time></trkpt><trkpt lat="46.185528457915694" lon="13.53485997871855"><ele>407.5</ele><time>2026-03-28T13:59:14Z</time></trkpt><trkpt lat="46.185504766368354" lon="13.53468671097105"><ele>511.25</ele><time>2026-03-28T13:59:15Z</time></trkpt><trkpt lat="46.18546927879581" lon="13.534550352703878"><ele>615.0</ele><time>2026-03-28T13:59:16Z</time></trkpt><trkpt lat="46.18539062818161" lon="13.53437534431752"><ele>616.6</ele><time>2026-03-28T13:59:17Z</time></trkpt><trkpt lat="46.185319419476045" lon="13.53425272507789"><ele>618.2</ele><time>2026-03-28T13:59:18Z</time></trkpt><trkpt lat="46.18526402653584" lon="13.534144529319903"><ele>619.8</ele><time>2026-03-28T13:59:19Z</time></trkpt><trkpt lat="46.18524446325254" lon="13.534033801193518"><ele>621.4</ele><time>2026-03-28T13:59:20Z</time></trkpt><trkpt lat="46.18519183782086" lon="13.533889367241526"><ele>623.0</ele><time>2026-03-28T13:59:22Z</time></trkpt><trkpt lat="46.18508228514438" lon="13.533897272677308"><ele>623.0</ele><time>2026-03-28T13:59:24Z</time></trkpt><trkpt lat="46.185045931778546" lon="13.534015808674356"><ele>623.0</ele><time>2026-03-28T13:59:25Z</time></trkpt><trkpt lat="46.1850667360642" lon="13.534138795968994"><ele>623.0</ele><time>2026-03-28T13:59:26Z</time></trkpt><trkpt lat="46.185094875379" lon="13.534269788503444"><ele>623.0</ele><time>2026-03-28T13:59:27Z</time></trkpt><trkpt lat="46.1850989435608" lon="13.534425520395345"><ele>623.0</ele><time>2026-03-28T13:59:28Z</time></trkpt><trkpt lat="46.18512763294268" lon="13.5345727660166"><ele>621.4</ele><time>2026-03-28T13:59:29Z</time></trkpt><trkpt lat="46.185135888947606" lon="13.534721232541317"><ele>619.8</ele><time>2026-03-28T13:59:30Z</time></trkpt><trkpt lat="46.18515007059853" lon="13.534861794095406"><ele>618.2</ele><time>2026-03-28T13:59:31Z</time></trkpt><trkpt lat="46.185173875977206" lon="13.534982783581112"><ele>616.6</ele><time>2026-03-28T13:59:32Z</time></trkpt><trkpt lat="46.18518110478296" lon="13.53510979717638"><ele>615.0</ele><time>2026-03-28T13:59:33Z</time></trkpt><trkpt lat="46.18515911084621" lon="13.535240511914685"><ele>615.0</ele><time>2026-03-28T13:59:34Z</time></trkpt><trkpt lat="46.18512171418923" lon="13.535367444479235"><ele>615.0</ele><time>2026-03-28T13:59:35Z</time></trkpt><trkpt lat="46.18511039066279" lon="13.535502951255628"><ele>615.0</ele><time>2026-03-28T13:59:36Z</time></trkpt><trkpt lat="46.18511531418181" lon="13.53564176663961"><ele>615.0</ele><time>2026-03-28T13:59:37Z</time></trkpt><trkpt lat="46.18512891857061" lon="13.535786077304284"><ele>615.0</ele><time>2026-03-28T13:59:38Z</time></trkpt><trkpt lat="46.18513182160796" lon="13.535925769228554"><ele>614.4</ele><time>2026-03-28T13:59:39Z</time></trkpt><trkpt lat="46.18513847372311" lon="13.536088426326302"><ele>613.8</ele><time>2026-03-28T13:59:40Z</time></trkpt><trkpt lat="46.18514364821843" lon="13.536225494754305"><ele>613.2</ele><time>2026-03-28T13:59:41Z</time></trkpt><trkpt lat="46.185162477667085" lon="13.53635936987609"><ele>612.6</ele><time>2026-03-28T13:59:42Z</time></trkpt><trkpt lat="46.185165091331434" lon="13.536494339261424"><ele>612.0</ele><time>2026-03-28T13:59:43Z</time></trkpt><trkpt lat="46.18516858871758" lon="13.536622502627335"><ele>610.5</ele><time>2026-03-28T13:59:44Z</time></trkpt><trkpt lat="46.18515582661407" lon="13.53675342804572"><ele>609.0</ele><time>2026-03-28T13:59:45Z</time></trkpt><trkpt lat="46.18516863111462" lon="13.536876313804363"><ele>607.5</ele><time>2026-03-28T13:59:46Z</time></trkpt><trkpt lat="46.185201411422554" lon="13.53698363320722"><ele>606.0</ele><time>2026-03-28T13:59:47Z</time></trkpt><trkpt lat="46.185265587962746" lon="13.537114227398577"><ele>604.5</ele><time>2026-03-28T13:59:49Z</time></trkpt><trkpt lat="46.18528717346597" lon="13.537222202653071"><ele>603.0</ele><time>2026-03-28T13:59:51Z</time></trkpt><trkpt lat="46.18519554531482" lon="13.537216556211828"><ele>603.0</ele><time>2026-03-28T13:59:53Z</time></trkpt><trkpt lat="46.18516861044481" lon="13.537112748674197"><ele>603.0</ele><time>2026-03-28T13:59:54Z</time></trkpt><trkpt lat="46.185128190169785" lon="13.537004077824701"><ele>603.0</ele><time>2026-03-28T13:59:55Z</time></trkpt><trkpt lat="46.18509069380513" lon="13.53688138591489"><ele>603.0</ele><time>2026-03-28T13:59:56Z</time></trkpt><trkpt lat="46.18504985587907" lon="13.536751736784849"><ele>603.0</ele><time>2026-03-28T13:59:57Z</time></trkpt><trkpt lat="46.18500463054255" lon="13.536622434210955"><ele>603.0</ele><time>2026-03-28T13:59:58Z</time></trkpt><trkpt lat="46.18495107374026" lon="13.536474897802275"><ele>603.0</ele><time>2026-03-28T13:59:59Z</time></trkpt><trkpt lat="46.18491056465749" lon="13.536306805046367"><ele>603.0</ele><time>2026-03-28T14:00:00Z</time></trkpt><trkpt lat="46.18485094106396" lon="13.536150249771477"><ele>603.0</ele><time>2026-03-28T14:00:01Z</time></trkpt><trkpt lat="46.184770305201845" lon="13.53601877744041"><ele>599.6</ele><time>2026-03-28T14:00:02Z</time></trkpt><trkpt lat="46.18471039215097" lon="13.535876522677954"><ele>596.1999999999999</ele><time>2026-03-28T14:00:03Z</time></trkpt><trkpt lat="46.18465888174313" lon="13.535726823532002"><ele>592.8</ele><time>2026-03-28T14:00:04Z</time></trkpt><trkpt lat="46.18461586253675" lon="13.535579394168675"><ele>589.4</ele><time>2026-03-28T14:00:05Z</time></trkpt><trkpt lat="46.18457314176688" lon="13.53544762536253"><ele>586.0</ele><time>2026-03-28T14:00:06Z</time></trkpt><trkpt lat="46.18453898673557" lon="13.535316810982273"><ele>586.0</ele><time>2026-03-28T14:00:07Z</time></trkpt><trkpt lat="46.18450985628234" lon="13.53519095353578"><ele>586.0</ele><time>2026-03-28T14:00:08Z</time></trkpt><trkpt lat="46.1844878225115" lon="13.535058952500535"><ele>586.0</ele><time>2026-03-28T14:00:09Z</time></trkpt><trkpt lat="46.184430850006294" lon="13.53494738925654"><ele>586.0</ele><time>2026-03-28T14:00:10Z</time></trkpt><trkpt lat="46.18433344857845" lon="13.534879379635786"><ele>586.0</ele><time>2026-03-28T14:00:11Z</time></trkpt><trkpt lat="46.184218450351715" lon="13.534834034946682"><ele>586.0</ele><time>2026-03-28T14:00:12Z</time></trkpt><trkpt lat="46.184105564116734" lon="13.534780644430734"><ele>586.0</ele><time>2026-03-28T14:00:13Z</time></trkpt><trkpt lat="46.18399259056381" lon="13.534726728546953"><ele>586.0</ele><time>2026-03-28T14:00:14Z</time></trkpt><trkpt lat="46.18389475195489" lon="13.534686657494266"><ele>586.0</ele><time>2026-03-28T14:00:15Z</time></trkpt><trkpt lat="46.18381256041157" lon="13.534650894847172"><ele>586.0</ele><time>2026-03-28T14:00:16Z</time></trkpt><trkpt lat="46.1837482108901" lon="13.534615983331781"><ele>582.6666666666667</ele><time>2026-03-28T14:00:17Z</time></trkpt><trkpt lat="46.183691354397894" lon="13.534557361347833"><ele>579.3333333333334</ele><time>2026-03-28T14:00:18Z</time></trkpt><trkpt lat="46.18366691423523" lon="13.534456488132989"><ele>576.0</ele><time>2026-03-28T14:00:19Z</time></trkpt><trkpt lat="46.183659290908274" lon="13.534331841970644"><ele>572.6666666666666</ele><time>2026-03-28T14:00:20Z</time></trkpt><trkpt lat="46.183654608267624" lon="13.534207204846828"><ele>569.3333333333333</ele><time>2026-03-28T14:00:20.999Z</time></trkpt><trkpt lat="46.1836587663638" lon="13.534086841410934"><ele>566.0</ele><time>2026-03-28T14:00:21.999Z</time></trkpt><trkpt lat="46.18367976044721" lon="13.533954506876974"><ele>566.0</ele><time>2026-03-28T14:00:22.999Z</time></trkpt><trkpt lat="46.183720767250456" lon="13.533809667374344"><ele>566.0</ele><time>2026-03-28T14:00:23.999Z</time></trkpt><trkpt lat="46.183764240457066" lon="13.533651681774435"><ele>566.0</ele><time>2026-03-28T14:00:24.999Z</time></trkpt><trkpt lat="46.183796417361044" lon="13.533503032604997"><ele>566.0</ele><time>2026-03-28T14:00:25.999Z</time></trkpt><trkpt lat="46.18381941780143" lon="13.53335599053513"><ele>566.0</ele><time>2026-03-28T14:00:26.999Z</time></trkpt><trkpt lat="46.18383718239419" lon="13.533203957818605"><ele>566.0</ele><time>2026-03-28T14:00:27.999Z</time></trkpt><trkpt lat="46.18385216414777" lon="13.533055439893634"><ele>566.0</ele><time>2026-03-28T14:00:28.999Z</time></trkpt><trkpt lat="46.18387833003658" lon="13.532939352702478"><ele>566.0</ele><time>2026-03-28T14:00:29.999Z</time></trkpt><trkpt lat="46.183920298537885" lon="13.532847014573196"><ele>566.0</ele><time>2026-03-28T14:00:30.999Z</time></trkpt><trkpt lat="46.183970562553355" lon="13.532698478213574"><ele>566.0</ele><time>2026-03-28T14:00:33Z</time></trkpt><trkpt lat="46.183893660388" lon="13.532615902828145"><ele>566.0</ele><time>2026-03-28T14:00:35Z</time></trkpt><trkpt lat="46.18378537352357" lon="13.532725226994847"><ele>566.0</ele><time>2026-03-28T14:00:37Z</time></trkpt><trkpt lat="46.18375755740416" lon="13.532836778787969"><ele>566.0</ele><time>2026-03-28T14:00:38Z</time></trkpt><trkpt lat="46.183721887735985" lon="13.53295542548898"><ele>566.0</ele><time>2026-03-28T14:00:39Z</time></trkpt><trkpt lat="46.18367578359254" lon="13.533085906428788"><ele>566.0</ele><time>2026-03-28T14:00:40Z</time></trkpt><trkpt lat="46.183628795143996" lon="13.533203454299528"><ele>566.0</ele><time>2026-03-28T14:00:41Z</time></trkpt><trkpt lat="46.18358466278209" lon="13.533316370600444"><ele>566.0</ele><time>2026-03-28T14:00:42Z</time></trkpt><trkpt lat="46.18354250450327" lon="13.533431822727927"><ele>566.0</ele><time>2026-03-28T14:00:43Z</time></trkpt><trkpt lat="46.18350892141917" lon="13.533544736284442"><ele>566.0</ele><time>2026-03-28T14:00:44Z</time></trkpt><trkpt lat="46.183475444979145" lon="13.533656793980953"><ele>566.0</ele><time>2026-03-28T14:00:45Z</time></trkpt><trkpt lat="46.18343863958968" lon="13.533798338066005"><ele>566.0</ele><time>2026-03-28T14:00:46Z</time></trkpt><trkpt lat="46.18337474472396" lon="13.533931763127342"><ele>566.0</ele><time>2026-03-28T14:00:47Z</time></trkpt><trkpt lat="46.18331912816845" lon="13.534058709229306"><ele>566.0</ele><time>2026-03-28T14:00:48Z</time></trkpt><trkpt lat="46.18326038641267" lon="13.534171157498546"><ele>566.0</ele><time>2026-03-28T14:00:49Z</time></trkpt><trkpt lat="46.18323998425242" lon="13.534311575070689"><ele>566.0</ele><time>2026-03-28T14:00:50Z</time></trkpt><trkpt lat="46.18321447626645" lon="13.53445397125948"><ele>566.0</ele><time>2026-03-28T14:00:51Z</time></trkpt><trkpt lat="46.18319366833032" lon="13.5346184678534"><ele>566.0</ele><time>2026-03-28T14:00:52Z</time></trkpt><trkpt lat="46.1831855559761" lon="13.534787125655752"><ele>566.0</ele><time>2026-03-28T14:00:53Z</time></trkpt><trkpt lat="46.183175397909324" lon="13.534966168356672"><ele>566.0</ele><time>2026-03-28T14:00:54Z</time></trkpt><trkpt lat="46.1831564552178" lon="13.535144257293522"><ele>566.0</ele><time>2026-03-28T14:00:55Z</time></trkpt><trkpt lat="46.1831439832401" lon="13.535305785505937"><ele>566.0</ele><time>2026-03-28T14:00:56Z</time></trkpt><trkpt lat="46.18312469099669" lon="13.53545176965306"><ele>566.0</ele><time>2026-03-28T14:00:57Z</time></trkpt><trkpt lat="46.18309339061948" lon="13.535594090459725"><ele>566.0</ele><time>2026-03-28T14:00:58Z</time></trkpt><trkpt lat="46.18305016911875" lon="13.535751096848657"><ele>566.0</ele><time>2026-03-28T14:00:59Z</time></trkpt><trkpt lat="46.18300028828839" lon="13.535910163430492"><ele>558.6</ele><time>2026-03-28T14:01:00Z</time></trkpt><trkpt lat="46.182956644970496" lon="13.536060719173705"><ele>551.2</ele><time>2026-03-28T14:01:01Z</time></trkpt><trkpt lat="46.182925269791724" lon="13.536204875342854"><ele>543.8</ele><time>2026-03-28T14:01:02Z</time></trkpt><trkpt lat="46.182915123925774" lon="13.536345536300162"><ele>536.4</ele><time>2026-03-28T14:01:03Z</time></trkpt><trkpt lat="46.18291615066164" lon="13.536495473528923"><ele>529.0</ele><time>2026-03-28T14:01:04Z</time></trkpt><trkpt lat="46.18291854766222" lon="13.53663538525144"><ele>529.0</ele><time>2026-03-28T14:01:05Z</time></trkpt><trkpt lat="46.18292101671065" lon="13.536754751828939"><ele>529.0</ele><time>2026-03-28T14:01:06Z</time></trkpt><trkpt lat="46.18293362163174" lon="13.53685650665583"><ele>529.0</ele><time>2026-03-28T14:01:07Z</time></trkpt><trkpt lat="46.18297808950489" lon="13.536942424088018"><ele>529.0</ele><time>2026-03-28T14:01:08Z</time></trkpt><trkpt lat="46.18302647738875" lon="13.537007832107516"><ele>529.0</ele><time>2026-03-28T14:01:09Z</time></trkpt><trkpt lat="46.183095123264735" lon="13.537076967028623"><ele>529.0</ele><time>2026-03-28T14:01:11Z</time></trkpt><trkpt lat="46.18300123286309" lon="13.537160903146269"><ele>529.0</ele><time>2026-03-28T14:01:13Z</time></trkpt><trkpt lat="46.18294006077766" lon="13.537063871838575"><ele>529.0</ele><time>2026-03-28T14:01:14Z</time></trkpt><trkpt lat="46.182897008097" lon="13.536957792045765"><ele>529.0</ele><time>2026-03-28T14:01:15Z</time></trkpt><trkpt lat="46.18285683050062" lon="13.536845883304547"><ele>529.0</ele><time>2026-03-28T14:01:16Z</time></trkpt><trkpt lat="46.182806228307754" lon="13.53670086766974"><ele>529.0</ele><time>2026-03-28T14:01:17Z</time></trkpt><trkpt lat="46.18277292090735" lon="13.536545644774685"><ele>529.0</ele><time>2026-03-28T14:01:18Z</time></trkpt><trkpt lat="46.18271797393994" lon="13.53642189391178"><ele>529.0</ele><time>2026-03-28T14:01:19Z</time></trkpt><trkpt lat="46.18269498697087" lon="13.53629581224521"><ele>529.0</ele><time>2026-03-28T14:01:20Z</time></trkpt><trkpt lat="46.18268563768657" lon="13.536135531690055"><ele>529.0</ele><time>2026-03-28T14:01:21Z</time></trkpt><trkpt lat="46.18268512909011" lon="13.535982143676788"><ele>529.0</ele><time>2026-03-28T14:01:22Z</time></trkpt><trkpt lat="46.18269703723751" lon="13.535837831755195"><ele>529.0</ele><time>2026-03-28T14:01:23Z</time></trkpt><trkpt lat="46.18271677103943" lon="13.535706650187848"><ele>529.0</ele><time>2026-03-28T14:01:24Z</time></trkpt><trkpt lat="46.1827316376465" lon="13.535578636310492"><ele>529.0</ele><time>2026-03-28T14:01:25Z</time></trkpt><trkpt lat="46.1827613164558" lon="13.535476477694601"><ele>529.0</ele><time>2026-03-28T14:01:26Z</time></trkpt><trkpt lat="46.18276774581043" lon="13.535325996774233"><ele>529.0</ele><time>2026-03-28T14:01:28Z</time></trkpt><trkpt lat="46.18265039524161" lon="13.535306693579452"><ele>529.0</ele><time>2026-03-28T14:01:30Z</time></trkpt><trkpt lat="46.18260209561549" lon="13.535397797167166"><ele>529.0</ele><time>2026-03-28T14:01:31Z</time></trkpt><trkpt lat="46.182582176330186" lon="13.535547365777882"><ele>529.0</ele><time>2026-03-28T14:01:32Z</time></trkpt><trkpt lat="46.182563725868555" lon="13.53573372082591"><ele>529.0</ele><time>2026-03-28T14:01:33Z</time></trkpt><trkpt lat="46.18251777204893" lon="13.535935710005141"><ele>529.0</ele><time>2026-03-28T14:01:34Z</time></trkpt><trkpt lat="46.182465031766604" lon="13.536105785395064"><ele>529.0</ele><time>2026-03-28T14:01:35Z</time></trkpt><trkpt lat="46.182430863778706" lon="13.536255942960313"><ele>529.0</ele><time>2026-03-28T14:01:36Z</time></trkpt><trkpt lat="46.18241650877255" lon="13.53638309218076"><ele>529.0</ele><time>2026-03-28T14:01:37Z</time></trkpt><trkpt lat="46.18243116529374" lon="13.536501156237362"><ele>529.0</ele><time>2026-03-28T14:01:38Z</time></trkpt><trkpt lat="46.18244831528229" lon="13.536606535419619"><ele>529.0</ele><time>2026-03-28T14:01:39Z</time></trkpt><trkpt lat="46.18247713431054" lon="13.536704948107715"><ele>529.0</ele><time>2026-03-28T14:01:40Z</time></trkpt><trkpt lat="46.18252430725146" lon="13.536785573059486"><ele>529.0</ele><time>2026-03-28T14:01:41Z</time></trkpt><trkpt lat="46.18258175294536" lon="13.53684505785902"><ele>529.0</ele><time>2026-03-28T14:01:42Z</time></trkpt><trkpt lat="46.182626670171636" lon="13.536960200779951"><ele>529.0</ele><time>2026-03-28T14:01:44Z</time></trkpt><trkpt lat="46.182528482638595" lon="13.53697691477166"><ele>529.0</ele><time>2026-03-28T14:01:46Z</time></trkpt><trkpt lat="46.18248602656239" lon="13.536871720361132"><ele>529.0</ele><time>2026-03-28T14:01:47Z</time></trkpt><trkpt lat="46.18243281711777" lon="13.53675958529852"><ele>529.0</ele><time>2026-03-28T14:01:48Z</time></trkpt><trkpt lat="46.18235294286765" lon="13.536668309537895"><ele>529.0</ele><time>2026-03-28T14:01:49Z</time></trkpt><trkpt lat="46.182287889330794" lon="13.536586848695945"><ele>529.0</ele><time>2026-03-28T14:01:50Z</time></trkpt><trkpt lat="46.182242793396995" lon="13.536514754365676"><ele>529.0</ele><time>2026-03-28T14:01:51Z</time></trkpt><trkpt lat="46.182280612487524" lon="13.536397962087538"><ele>529.0</ele><time>2026-03-28T14:01:52Z</time></trkpt><trkpt lat="46.18226656526909" lon="13.536301084799417"><ele>529.0</ele><time>2026-03-28T14:01:53Z</time></trkpt><trkpt lat="46.18219624583082" lon="13.536190513881973"><ele>529.0</ele><time>2026-03-28T14:01:55Z</time></trkpt><trkpt lat="46.182113096269624" lon="13.53625928448296"><ele>529.0</ele><time>2026-03-28T14:01:56Z</time></trkpt><trkpt lat="46.18210200906453" lon="13.536386600736192"><ele>529.0</ele><time>2026-03-28T14:01:57Z</time></trkpt><trkpt lat="46.18210917411683" lon="13.536485931503497"><ele>529.0</ele><time>2026-03-28T14:01:58Z</time></trkpt><trkpt lat="46.18212451241931" lon="13.536585939187235"><ele>529.0</ele><time>2026-03-28T14:01:59Z</time></trkpt><trkpt lat="46.18214769726409" lon="13.536701303297644"><ele>529.0</ele><time>2026-03-28T14:02:00Z</time></trkpt><trkpt lat="46.182193464651846" lon="13.536819289966198"><ele>529.0</ele><time>2026-03-28T14:02:01Z</time></trkpt><trkpt lat="46.18225836422387" lon="13.536960007551498"><ele>529.0</ele><time>2026-03-28T14:02:02Z</time></trkpt><trkpt lat="46.18231446219357" lon="13.537136935303664"><ele>529.0</ele><time>2026-03-28T14:02:03Z</time></trkpt><trkpt lat="46.182357389248615" lon="13.537299208243997"><ele>529.0</ele><time>2026-03-28T14:02:04Z</time></trkpt><trkpt lat="46.18240750557553" lon="13.53743937216811"><ele>529.0</ele><time>2026-03-28T14:02:05Z</time></trkpt><trkpt lat="46.182470560506836" lon="13.53754290899785"><ele>529.0</ele><time>2026-03-28T14:02:06Z</time></trkpt><trkpt lat="46.18252577841688" lon="13.53761367427201"><ele>529.0</ele><time>2026-03-28T14:02:07Z</time></trkpt><trkpt lat="46.18253162841122" lon="13.537770788334944"><ele>529.0</ele><time>2026-03-28T14:02:09Z</time></trkpt><trkpt lat="46.18240948283309" lon="13.537751132981631"><ele>529.0</ele><time>2026-03-28T14:02:11Z</time></trkpt><trkpt lat="46.182333172212054" lon="13.537642137430618"><ele>529.0</ele><time>2026-03-28T14:02:12Z</time></trkpt><trkpt lat="46.182231280756426" lon="13.537485584136363"><ele>529.0</ele><time>2026-03-28T14:02:13Z</time></trkpt><trkpt lat="46.18214961982557" lon="13.537356312461648"><ele>529.0</ele><time>2026-03-28T14:02:14Z</time></trkpt><trkpt lat="46.182050218636086" lon="13.537239003987704"><ele>529.0</ele><time>2026-03-28T14:02:15Z</time></trkpt><trkpt lat="46.18196906056786" lon="13.537139639946787"><ele>529.0</ele><time>2026-03-28T14:02:16Z</time></trkpt><trkpt lat="46.18191495032302" lon="13.537040014289607"><ele>529.0</ele><time>2026-03-28T14:02:17Z</time></trkpt><trkpt lat="46.181895883488664" lon="13.536943804926326"><ele>529.0</ele><time>2026-03-28T14:02:18Z</time></trkpt><trkpt lat="46.18178888007722" lon="13.536895823194039"><ele>529.0</ele><time>2026-03-28T14:02:20Z</time></trkpt><trkpt lat="46.18174909887109" lon="13.536978073354854"><ele>529.0</ele><time>2026-03-28T14:02:21Z</time></trkpt><trkpt lat="46.18175607556355" lon="13.537083102099473"><ele>529.0</ele><time>2026-03-28T14:02:22Z</time></trkpt><trkpt lat="46.18180448878795" lon="13.537169611612542"><ele>529.0</ele><time>2026-03-28T14:02:22.999Z</time></trkpt><trkpt lat="46.18189105047482" lon="13.537225993637296"><ele>529.0</ele><time>2026-03-28T14:02:23.999Z</time></trkpt><trkpt lat="46.181966738078664" lon="13.537319447366428"><ele>529.0</ele><time>2026-03-28T14:02:24.999Z</time></trkpt><trkpt lat="46.182041714635716" lon="13.53748761675421"><ele>529.0</ele><time>2026-03-28T14:02:25.999Z</time></trkpt><trkpt lat="46.182098058849405" lon="13.537698328940047"><ele>516.4</ele><time>2026-03-28T14:02:26.999Z</time></trkpt><trkpt lat="46.18215151082525" lon="13.537878169113213"><ele>503.79999999999995</ele><time>2026-03-28T14:02:27.999Z</time></trkpt><trkpt lat="46.182210568920546" lon="13.538015918294581"><ele>491.20000000000005</ele><time>2026-03-28T14:02:28.999Z</time></trkpt><trkpt lat="46.18227195800628" lon="13.538115350601402"><ele>478.6</ele><time>2026-03-28T14:02:29.999Z</time></trkpt><trkpt lat="46.18234277332687" lon="13.538181016174551"><ele>466.0</ele><time>2026-03-28T14:02:30.999Z</time></trkpt><trkpt lat="46.18239783694064" lon="13.538231277385504"><ele>466.0</ele><time>2026-03-28T14:02:31.999Z</time></trkpt><trkpt lat="46.18239553198465" lon="13.538369054309728"><ele>466.0</ele><time>2026-03-28T14:02:33.999Z</time></trkpt><trkpt lat="46.182334972799985" lon="13.538403569056094"><ele>466.0</ele><time>2026-03-28T14:02:34.999Z</time></trkpt><trkpt lat="46.18226873961982" lon="13.538363288998452"><ele>466.0</ele><time>2026-03-28T14:02:35.999Z</time></trkpt><trkpt lat="46.182208768105376" lon="13.538260447437478"><ele>466.0</ele><time>2026-03-28T14:02:36.999Z</time></trkpt><trkpt lat="46.18212188195641" lon="13.538118736694335"><ele>466.0</ele><time>2026-03-28T14:02:37.999Z</time></trkpt><trkpt lat="46.18202003412839" lon="13.537973560299639"><ele>466.0</ele><time>2026-03-28T14:02:39Z</time></trkpt><trkpt lat="46.18193165446341" lon="13.537821726519445"><ele>466.0</ele><time>2026-03-28T14:02:40Z</time></trkpt><trkpt lat="46.18184535064398" lon="13.537691752696851"><ele>466.0</ele><time>2026-03-28T14:02:41Z</time></trkpt><trkpt lat="46.1817351079645" lon="13.537587758673766"><ele>466.0</ele><time>2026-03-28T14:02:42Z</time></trkpt><trkpt lat="46.181630054013624" lon="13.537522875134005"><ele>466.0</ele><time>2026-03-28T14:02:43Z</time></trkpt><trkpt lat="46.18155091256644" lon="13.537447806010942"><ele>466.0</ele><time>2026-03-28T14:02:44Z</time></trkpt><trkpt lat="46.18150838337661" lon="13.537326963971072"><ele>466.0</ele><time>2026-03-28T14:02:45Z</time></trkpt><trkpt lat="46.181461797135505" lon="13.537206772220015"><ele>466.0</ele><time>2026-03-28T14:02:46Z</time></trkpt><trkpt lat="46.18143679733244" lon="13.537077485342609"><ele>466.0</ele><time>2026-03-28T14:02:47Z</time></trkpt><trkpt lat="46.1814201328694" lon="13.536947021716315"><ele>466.0</ele><time>2026-03-28T14:02:48Z</time></trkpt><trkpt lat="46.181447855435145" lon="13.536793609242048"><ele>466.0</ele><time>2026-03-28T14:02:49Z</time></trkpt><trkpt lat="46.18146656588677" lon="13.536608809008493"><ele>466.0</ele><time>2026-03-28T14:02:50Z</time></trkpt><trkpt lat="46.18147928592027" lon="13.53643689481472"><ele>466.0</ele><time>2026-03-28T14:02:51Z</time></trkpt><trkpt lat="46.18149858488302" lon="13.536289754957952"><ele>466.0</ele><time>2026-03-28T14:02:52Z</time></trkpt><trkpt lat="46.181497835340814" lon="13.536149124131793"><ele>466.0</ele><time>2026-03-28T14:02:53Z</time></trkpt><trkpt lat="46.18148027898054" lon="13.536008414597385"><ele>466.0</ele><time>2026-03-28T14:02:54Z</time></trkpt><trkpt lat="46.18144034526303" lon="13.535879641913162"><ele>466.0</ele><time>2026-03-28T14:02:55Z</time></trkpt><trkpt lat="46.181402577047535" lon="13.535761427023978"><ele>466.0</ele><time>2026-03-28T14:02:56Z</time></trkpt><trkpt lat="46.18133715302142" lon="13.535663231222912"><ele>466.0</ele><time>2026-03-28T14:02:57Z</time></trkpt><trkpt lat="46.18125134910044" lon="13.535603796213492"><ele>466.0</ele><time>2026-03-28T14:02:58Z</time></trkpt><trkpt lat="46.18114110176922" lon="13.53556115391053"><ele>466.0</ele><time>2026-03-28T14:02:59Z</time></trkpt><trkpt lat="46.181039528288856" lon="13.535528740498462"><ele>466.0</ele><time>2026-03-28T14:03:00Z</time></trkpt><trkpt lat="46.18095342593329" lon="13.53546370551298"><ele>466.0</ele><time>2026-03-28T14:03:01Z</time></trkpt><trkpt lat="46.18087852963655" lon="13.53545910344717"><ele>466.0</ele><time>2026-03-28T14:03:02Z</time></trkpt><trkpt lat="46.180774341740296" lon="13.535443516149831"><ele>466.0</ele><time>2026-03-28T14:03:04Z</time></trkpt><trkpt lat="46.180720099315266" lon="13.535626994657695"><ele>466.0</ele><time>2026-03-28T14:03:06Z</time></trkpt><trkpt lat="46.18075404952914" lon="13.53576485740596"><ele>466.0</ele><time>2026-03-28T14:03:07Z</time></trkpt><trkpt lat="46.180740262630295" lon="13.535888459105932"><ele>466.0</ele><time>2026-03-28T14:03:08Z</time></trkpt><trkpt lat="46.180697155580795" lon="13.536035333706431"><ele>466.0</ele><time>2026-03-28T14:03:09Z</time></trkpt><trkpt lat="46.18063898104766" lon="13.536235905510129"><ele>466.0</ele><time>2026-03-28T14:03:10Z</time></trkpt><trkpt lat="46.18058119692735" lon="13.536454437362423"><ele>466.0</ele><time>2026-03-28T14:03:11Z</time></trkpt><trkpt lat="46.180529668939855" lon="13.536670308573218"><ele>466.0</ele><time>2026-03-28T14:03:12Z</time></trkpt><trkpt lat="46.18048658628195" lon="13.536851726741547"><ele>466.0</ele><time>2026-03-28T14:03:13Z</time></trkpt><trkpt lat="46.180446962931065" lon="13.537019923415409"><ele>466.0</ele><time>2026-03-28T14:03:14Z</time></trkpt><trkpt lat="46.18042312381015" lon="13.537179224218054"><ele>466.0</ele><time>2026-03-28T14:03:15Z</time></trkpt><trkpt lat="46.18042687078002" lon="13.53733805466344"><ele>466.00000000000006</ele><time>2026-03-28T14:03:16Z</time></trkpt><trkpt lat="46.18045190160375" lon="13.537472420515028"><ele>466.0</ele><time>2026-03-28T14:03:17Z</time></trkpt><trkpt lat="46.18047031707334" lon="13.537561471735325"><ele>466.0</ele><time>2026-03-28T14:03:18Z</time></trkpt><trkpt lat="46.18043214059565" lon="13.53763873564986"><ele>466.0</ele><time>2026-03-28T14:03:19Z</time></trkpt><trkpt lat="46.1803685070451" lon="13.537676431381463"><ele>466.00000000000006</ele><time>2026-03-28T14:03:20Z</time></trkpt><trkpt lat="46.18029398260797" lon="13.5376568332731"><ele>466.0</ele><time>2026-03-28T14:03:21Z</time></trkpt><trkpt lat="46.18019892411974" lon="13.537571710418945"><ele>466.0</ele><time>2026-03-28T14:03:22Z</time></trkpt><trkpt lat="46.18013194569555" lon="13.53747536987953"><ele>466.0</ele><time>2026-03-28T14:03:23Z</time></trkpt><trkpt lat="46.18009811408468" lon="13.537359637857362"><ele>466.0</ele><time>2026-03-28T14:03:24Z</time></trkpt><trkpt lat="46.18009192838007" lon="13.53721012011365"><ele>466.0</ele><time>2026-03-28T14:03:25Z</time></trkpt><trkpt lat="46.180055874187204" lon="13.537070771714033"><ele>466.0</ele><time>2026-03-28T14:03:26Z</time></trkpt><trkpt lat="46.179987269068825" lon="13.536960585995294"><ele>466.00000000000006</ele><time>2026-03-28T14:03:27Z</time></trkpt><trkpt lat="46.17991715201561" lon="13.536891934242703"><ele>466.0</ele><time>2026-03-28T14:03:28Z</time></trkpt><trkpt lat="46.17984834778204" lon="13.536870017425592"><ele>466.0</ele><time>2026-03-28T14:03:29Z</time></trkpt><trkpt lat="46.17977584827526" lon="13.53700563483921"><ele>466.0</ele><time>2026-03-28T14:03:31Z</time></trkpt><trkpt lat="46.17981288593047" lon="13.537093154422267"><ele>466.00000000000006</ele><time>2026-03-28T14:03:32Z</time></trkpt><trkpt lat="46.179875756292894" lon="13.537145205666347"><ele>466.0</ele><time>2026-03-28T14:03:33Z</time></trkpt><trkpt lat="46.17991968801013" lon="13.537271560122992"><ele>466.00000000000006</ele><time>2026-03-28T14:03:35Z</time></trkpt><trkpt lat="46.17985971565891" lon="13.537333805495425"><ele>466.0</ele><time>2026-03-28T14:03:36Z</time></trkpt><trkpt lat="46.179778133617795" lon="13.537306439288269"><ele>466.0</ele><time>2026-03-28T14:03:37Z</time></trkpt><trkpt lat="46.17969620955404" lon="13.537212912106108"><ele>466.0</ele><time>2026-03-28T14:03:38Z</time></trkpt><trkpt lat="46.17960919635649" lon="13.537172662287809"><ele>466.00000000000006</ele><time>2026-03-28T14:03:39Z</time></trkpt><trkpt lat="46.17952389640772" lon="13.537166029613216"><ele>466.0</ele><time>2026-03-28T14:03:40Z</time></trkpt><trkpt lat="46.179457345729595" lon="13.537119150935425"><ele>466.0</ele><time>2026-03-28T14:03:41Z</time></trkpt><trkpt lat="46.17943900769844" lon="13.53701473191727"><ele>466.0</ele><time>2026-03-28T14:03:42Z</time></trkpt><trkpt lat="46.17945048542442" lon="13.536897450018948"><ele>466.0</ele><time>2026-03-28T14:03:43Z</time></trkpt><trkpt lat="46.17936401793846" lon="13.536789256108403"><ele>466.0</ele><time>2026-03-28T14:03:45Z</time></trkpt><trkpt lat="46.17927813050705" lon="13.536824125835986"><ele>466.0</ele><time>2026-03-28T14:03:46Z</time></trkpt><trkpt lat="46.17918104370786" lon="13.536878971785029"><ele>466.0</ele><time>2026-03-28T14:03:47Z</time></trkpt><trkpt lat="46.179062964353854" lon="13.536949920631239"><ele>466.0</ele><time>2026-03-28T14:03:48Z</time></trkpt><trkpt lat="46.178949192192306" lon="13.537033918988753"><ele>466.0</ele><time>2026-03-28T14:03:49Z</time></trkpt><trkpt lat="46.178843029580754" lon="13.537109715138627"><ele>466.0</ele><time>2026-03-28T14:03:50Z</time></trkpt><trkpt lat="46.17874376145836" lon="13.537120897026806"><ele>466.0</ele><time>2026-03-28T14:03:51Z</time></trkpt><trkpt lat="46.178641531160345" lon="13.537174279387644"><ele>466.0</ele><time>2026-03-28T14:03:52Z</time></trkpt><trkpt lat="46.178539730712316" lon="13.537199056149879"><ele>466.0</ele><time>2026-03-28T14:03:53Z</time></trkpt><trkpt lat="46.17838921542717" lon="13.537223048601302"><ele>466.0</ele><time>2026-03-28T14:03:54Z</time></trkpt><trkpt lat="46.1782546605633" lon="13.537256445542276"><ele>466.0</ele><time>2026-03-28T14:03:55Z</time></trkpt><trkpt lat="46.17814542913204" lon="13.53729653998474"><ele>466.0</ele><time>2026-03-28T14:03:56Z</time></trkpt><trkpt lat="46.178053605566724" lon="13.537313153801774"><ele>466.0</ele><time>2026-03-28T14:03:57Z</time></trkpt><trkpt lat="46.177969092584355" lon="13.53732749860153"><ele>466.0</ele><time>2026-03-28T14:03:58Z</time></trkpt><trkpt lat="46.17787555179468" lon="13.537304295647772"><ele>466.0</ele><time>2026-03-28T14:03:59Z</time></trkpt><trkpt lat="46.177793701987184" lon="13.537253128081005"><ele>466.0</ele><time>2026-03-28T14:04:00Z</time></trkpt><trkpt lat="46.177710835441104" lon="13.537164630587496"><ele>466.0</ele><time>2026-03-28T14:04:01Z</time></trkpt><trkpt lat="46.17764733966321" lon="13.537023474637595"><ele>466.0</ele><time>2026-03-28T14:04:02Z</time></trkpt><trkpt lat="46.17759141895517" lon="13.536877965425141"><ele>466.0</ele><time>2026-03-28T14:04:03Z</time></trkpt><trkpt lat="46.17754413213782" lon="13.536771129754625"><ele>466.0</ele><time>2026-03-28T14:04:04Z</time></trkpt><trkpt lat="46.17749460633431" lon="13.536705419093305"><ele>466.0</ele><time>2026-03-28T14:04:05Z</time></trkpt><trkpt lat="46.177425725244845" lon="13.536675831326711"><ele>466.0</ele><time>2026-03-28T14:04:06Z</time></trkpt><trkpt lat="46.177345816511675" lon="13.536699455282086"><ele>466.0</ele><time>2026-03-28T14:04:07Z</time></trkpt><trkpt lat="46.17726361729196" lon="13.53677051333109"><ele>466.0</ele><time>2026-03-28T14:04:08Z</time></trkpt><trkpt lat="46.17716036393513" lon="13.536850036759764"><ele>466.0</ele><time>2026-03-28T14:04:09Z</time></trkpt><trkpt lat="46.177064312345664" lon="13.536961831397976"><ele>466.0</ele><time>2026-03-28T14:04:10Z</time></trkpt><trkpt lat="46.176966056925046" lon="13.53707079026293"><ele>466.0</ele><time>2026-03-28T14:04:11Z</time></trkpt><trkpt lat="46.176875934216255" lon="13.53716912150741"><ele>466.0</ele><time>2026-03-28T14:04:12Z</time></trkpt><trkpt lat="46.17680314855506" lon="13.537244776088869"><ele>466.0</ele><time>2026-03-28T14:04:13Z</time></trkpt><trkpt lat="46.176740018103246" lon="13.537269171593818"><ele>466.0</ele><time>2026-03-28T14:04:14Z</time></trkpt><trkpt lat="46.17661496747003" lon="13.537314779475903"><ele>466.0</ele><time>2026-03-28T14:04:16Z</time></trkpt><trkpt lat="46.176542271099436" lon="13.53735683414172"><ele>466.0</ele><time>2026-03-28T14:04:17Z</time></trkpt><trkpt lat="46.17645742076216" lon="13.53735652205678"><ele>466.0</ele><time>2026-03-28T14:04:18Z</time></trkpt><trkpt lat="46.17635421959566" lon="13.537365464103036"><ele>466.0</ele><time>2026-03-28T14:04:19Z</time></trkpt><trkpt lat="46.17623625982022" lon="13.537344186306907"><ele>466.0</ele><time>2026-03-28T14:04:20Z</time></trkpt><trkpt lat="46.17611966471246" lon="13.537367353852572"><ele>466.0</ele><time>2026-03-28T14:04:21Z</time></trkpt><trkpt lat="46.175994208888795" lon="13.537364672310119"><ele>466.0</ele><time>2026-03-28T14:04:22Z</time></trkpt><trkpt lat="46.17586020221477" lon="13.537359480521806"><ele>466.0</ele><time>2026-03-28T14:04:23Z</time></trkpt><trkpt lat="46.1757272990251" lon="13.537368424836401"><ele>466.0</ele><time>2026-03-28T14:04:24Z</time></trkpt><trkpt lat="46.175606942693705" lon="13.537352161987029"><ele>466.0</ele><time>2026-03-28T14:04:25Z</time></trkpt><trkpt lat="46.17548852197771" lon="13.53735564744471"><ele>466.0</ele><time>2026-03-28T14:04:26Z</time></trkpt><trkpt lat="46.175371810348075" lon="13.537384310162613"><ele>466.0</ele><time>2026-03-28T14:04:26.999Z</time></trkpt><trkpt lat="46.17524988731033" lon="13.537380397708663"><ele>466.0</ele><time>2026-03-28T14:04:27.999Z</time></trkpt><trkpt lat="46.175115595192814" lon="13.53735379269625"><ele>466.0</ele><time>2026-03-28T14:04:28.999Z</time></trkpt><trkpt lat="46.174972650970965" lon="13.53732920669159"><ele>466.0</ele><time>2026-03-28T14:04:29.999Z</time></trkpt><trkpt lat="46.17481551700504" lon="13.537319653170988"><ele>466.0</ele><time>2026-03-28T14:04:30.999Z</time></trkpt><trkpt lat="46.17465384598636" lon="13.53727358783474"><ele>466.0</ele><time>2026-03-28T14:04:31.999Z</time></trkpt><trkpt lat="46.1744811348875" lon="13.537245958131287"><ele>466.0</ele><time>2026-03-28T14:04:32.999Z</time></trkpt><trkpt lat="46.17429767672221" lon="13.537216652185151"><ele>466.0</ele><time>2026-03-28T14:04:33.999Z</time></trkpt><trkpt lat="46.174110310592184" lon="13.537181242014231"><ele>466.0</ele><time>2026-03-28T14:04:34.999Z</time></trkpt><trkpt lat="46.173917284432875" lon="13.537145454160386"><ele>466.0</ele><time>2026-03-28T14:04:35.999Z</time></trkpt><trkpt lat="46.17372932359268" lon="13.537108395266984"><ele>466.0</ele><time>2026-03-28T14:04:36.999Z</time></trkpt><trkpt lat="46.173544705467826" lon="13.537066226920086"><ele>466.0</ele><time>2026-03-28T14:04:37.999Z</time></trkpt><trkpt lat="46.173362564505766" lon="13.537025494975968"><ele>466.0</ele><time>2026-03-28T14:04:38.999Z</time></trkpt><trkpt lat="46.1731798560611" lon="13.536992493794274"><ele>466.0</ele><time>2026-03-28T14:04:39.999Z</time></trkpt><trkpt lat="46.17299694458121" lon="13.536958715344854"><ele>466.0</ele><time>2026-03-28T14:04:40.999Z</time></trkpt><trkpt lat="46.17282137107987" lon="13.536923679375219"><ele>466.0</ele><time>2026-03-28T14:04:41.999Z</time></trkpt><trkpt lat="46.17264870964538" lon="13.536891092218031"><ele>466.0</ele><time>2026-03-28T14:04:42.999Z</time></trkpt><trkpt lat="46.1724820540604" lon="13.536835314869803"><ele>466.0</ele><time>2026-03-28T14:04:43.999Z</time></trkpt><trkpt lat="46.1723179961122" lon="13.536800591995819"><ele>466.0</ele><time>2026-03-28T14:04:45Z</time></trkpt><trkpt lat="46.17215351984565" lon="13.536764429422659"><ele>466.0</ele><time>2026-03-28T14:04:46Z</time></trkpt><trkpt lat="46.17198069029537" lon="13.536724758923949"><ele>420.6666666666667</ele><time>2026-03-28T14:04:47Z</time></trkpt><trkpt lat="46.17179447806282" lon="13.536706905678374"><ele>375.33333333333337</ele><time>2026-03-28T14:04:48Z</time></trkpt><trkpt lat="46.17160259130562" lon="13.536664070428937"><ele>330.0</ele><time>2026-03-28T14:04:49Z</time></trkpt><trkpt lat="46.17140531000749" lon="13.536624003179348"><ele>330.0</ele><time>2026-03-28T14:04:50Z</time></trkpt><trkpt lat="46.171213588015505" lon="13.536583465847778"><ele>330.0</ele><time>2026-03-28T14:04:51Z</time></trkpt><trkpt lat="46.17104320850303" lon="13.536546972407468"><ele>330.0</ele><time>2026-03-28T14:04:52Z</time></trkpt><trkpt lat="46.17087060306295" lon="13.536512138282738"><ele>330.0</ele><time>2026-03-28T14:04:53Z</time></trkpt><trkpt lat="46.17069305140104" lon="13.536480243166432"><ele>330.0</ele><time>2026-03-28T14:04:54Z</time></trkpt><trkpt lat="46.17052466570748" lon="13.536427827645552"><ele>330.0</ele><time>2026-03-28T14:04:55Z</time></trkpt><trkpt lat="46.17034654468686" lon="13.536406061465023"><ele>332.3333333333333</ele><time>2026-03-28T14:04:56Z</time></trkpt><trkpt lat="46.170160897948584" lon="13.536413015048979"><ele>334.66666666666663</ele><time>2026-03-28T14:04:57Z</time></trkpt><trkpt lat="46.16999077977956" lon="13.536445926887684"><ele>337.0</ele><time>2026-03-28T14:04:58Z</time></trkpt><trkpt lat="46.169833683885386" lon="13.53644503526542"><ele>340.66666666666663</ele><time>2026-03-28T14:04:59Z</time></trkpt><trkpt lat="46.16968369123505" lon="13.536418885285904"><ele>344.3333333333333</ele><time>2026-03-28T14:05:00Z</time></trkpt><trkpt lat="46.16953657795954" lon="13.536291281456378"><ele>348.0</ele><time>2026-03-28T14:05:01Z</time></trkpt><trkpt lat="46.169367163176275" lon="13.536219566323293"><ele>348.0</ele><time>2026-03-28T14:05:02Z</time></trkpt><trkpt lat="46.16918118924567" lon="13.536130225138416"><ele>348.0</ele><time>2026-03-28T14:05:03Z</time></trkpt><trkpt lat="46.16898494710141" lon="13.536071293822404"><ele>348.0</ele><time>2026-03-28T14:05:04Z</time></trkpt><trkpt lat="46.16880332111312" lon="13.536027960761551"><ele>348.0</ele><time>2026-03-28T14:05:05Z</time></trkpt><trkpt lat="46.16862719179595" lon="13.536000932563143"><ele>348.0</ele><time>2026-03-28T14:05:06Z</time></trkpt><trkpt lat="46.16844836869848" lon="13.536004530666688"><ele>348.0</ele><time>2026-03-28T14:05:07Z</time></trkpt><trkpt lat="46.16827722030721" lon="13.536006711966424"><ele>348.0</ele><time>2026-03-28T14:05:08Z</time></trkpt><trkpt lat="46.168119372587036" lon="13.536005803673461"><ele>348.0</ele><time>2026-03-28T14:05:09Z</time></trkpt><trkpt lat="46.167971458679716" lon="13.536011272489207"><ele>348.0</ele><time>2026-03-28T14:05:10Z</time></trkpt><trkpt lat="46.16781649023234" lon="13.536054342259527"><ele>348.0</ele><time>2026-03-28T14:05:11Z</time></trkpt><trkpt lat="46.16765160386675" lon="13.536124156319493"><ele>348.0</ele><time>2026-03-28T14:05:12Z</time></trkpt><trkpt lat="46.16750898351313" lon="13.536164992892553"><ele>348.0</ele><time>2026-03-28T14:05:13Z</time></trkpt><trkpt lat="46.16737411572985" lon="13.536141034653895"><ele>342.5</ele><time>2026-03-28T14:05:14Z</time></trkpt><trkpt lat="46.16723715420312" lon="13.536155456698598"><ele>337.0</ele><time>2026-03-28T14:05:15Z</time></trkpt><trkpt lat="46.167096705950385" lon="13.536202957040938"><ele>331.5</ele><time>2026-03-28T14:05:16Z</time></trkpt><trkpt lat="46.166962843247184" lon="13.536262569295197"><ele>326.0</ele><time>2026-03-28T14:05:17Z</time></trkpt><trkpt lat="46.16685185127259" lon="13.53631910272753"><ele>326.0</ele><time>2026-03-28T14:05:18Z</time></trkpt><trkpt lat="46.166735784419224" lon="13.536248980345624"><ele>326.0</ele><time>2026-03-28T14:05:19Z</time></trkpt><trkpt lat="46.16658175482413" lon="13.536227251676758"><ele>326.0</ele><time>2026-03-28T14:05:20Z</time></trkpt><trkpt lat="46.166402641902614" lon="13.536216036956603"><ele>326.0</ele><time>2026-03-28T14:05:21Z</time></trkpt><trkpt lat="46.166206373779026" lon="13.53620390323631"><ele>326.0</ele><time>2026-03-28T14:05:22Z</time></trkpt><trkpt lat="46.16599470057687" lon="13.536194403546766"><ele>326.0</ele><time>2026-03-28T14:05:23Z</time></trkpt><trkpt lat="46.165798400240114" lon="13.536184408852437"><ele>317.33333333333337</ele><time>2026-03-28T14:05:24Z</time></trkpt><trkpt lat="46.16562651582969" lon="13.53617422611676"><ele>308.6666666666667</ele><time>2026-03-28T14:05:25Z</time></trkpt><trkpt lat="46.165477450491885" lon="13.536160902821633"><ele>300.0</ele><time>2026-03-28T14:05:26Z</time></trkpt><trkpt lat="46.16534730072803" lon="13.536135129217115"><ele>300.0</ele><time>2026-03-28T14:05:27Z</time></trkpt><trkpt lat="46.16522728684526" lon="13.536074490662084"><ele>300.0</ele><time>2026-03-28T14:05:28Z</time></trkpt><trkpt lat="46.16512003493307" lon="13.53598392916079"><ele>300.0</ele><time>2026-03-28T14:05:29Z</time></trkpt><trkpt lat="46.165030905902896" lon="13.535861113529762"><ele>300.0</ele><time>2026-03-28T14:05:30Z</time></trkpt><trkpt lat="46.164940368697565" lon="13.535721772248158"><ele>300.0</ele><time>2026-03-28T14:05:31Z</time></trkpt><trkpt lat="46.16486686255774" lon="13.535557543652923"><ele>300.0</ele><time>2026-03-28T14:05:32Z</time></trkpt><trkpt lat="46.16478773498474" lon="13.53538839983256"><ele>300.0</ele><time>2026-03-28T14:05:33Z</time></trkpt><trkpt lat="46.16471071837543" lon="13.535223835266267"><ele>300.0</ele><time>2026-03-28T14:05:34Z</time></trkpt><trkpt lat="46.164638222982305" lon="13.535071344724011"><ele>300.0</ele><time>2026-03-28T14:05:35Z</time></trkpt><trkpt lat="46.16456050909203" lon="13.534935226981958"><ele>300.0</ele><time>2026-03-28T14:05:36Z</time></trkpt><trkpt lat="46.164475876438395" lon="13.5348097190174"><ele>300.0</ele><time>2026-03-28T14:05:37Z</time></trkpt><trkpt lat="46.16438618210039" lon="13.534691755288943"><ele>300.0</ele><time>2026-03-28T14:05:38Z</time></trkpt><trkpt lat="46.16429162717135" lon="13.534558852285768"><ele>291.5</ele><time>2026-03-28T14:05:39Z</time></trkpt><trkpt lat="46.16419051941183" lon="13.534419682945527"><ele>283.0</ele><time>2026-03-28T14:05:40Z</time></trkpt><trkpt lat="46.16408620063827" lon="13.534291340251874"><ele>274.5</ele><time>2026-03-28T14:05:41Z</time></trkpt><trkpt lat="46.1639832878589" lon="13.534187297017672"><ele>266.0</ele><time>2026-03-28T14:05:42Z</time></trkpt><trkpt lat="46.16387566780823" lon="13.534112170178558"><ele>264.25</ele><time>2026-03-28T14:05:43Z</time></trkpt><trkpt lat="46.16376668755451" lon="13.534058552332702"><ele>262.5</ele><time>2026-03-28T14:05:44Z</time></trkpt><trkpt lat="46.16366772352663" lon="13.534011065353507"><ele>260.75</ele><time>2026-03-28T14:05:45Z</time></trkpt><trkpt lat="46.16355402799039" lon="13.534022170381219"><ele>259.0</ele><time>2026-03-28T14:05:46Z</time></trkpt><trkpt lat="46.163426667799456" lon="13.534062731347197"><ele>259.0</ele><time>2026-03-28T14:05:47Z</time></trkpt><trkpt lat="46.16328555911028" lon="13.534140398053543"><ele>259.0</ele><time>2026-03-28T14:05:48Z</time></trkpt><trkpt lat="46.16313661908001" lon="13.534238507551443"><ele>259.0</ele><time>2026-03-28T14:05:49Z</time></trkpt><trkpt lat="46.162975734891056" lon="13.534346349090363"><ele>256.3333333333333</ele><time>2026-03-28T14:05:50Z</time></trkpt><trkpt lat="46.162806961511734" lon="13.534462726472194"><ele>253.66666666666669</ele><time>2026-03-28T14:05:51Z</time></trkpt><trkpt lat="46.16264217443265" lon="13.53457557488429"><ele>251.0</ele><time>2026-03-28T14:05:52Z</time></trkpt><trkpt lat="46.162489827021595" lon="13.534671605332552"><ele>252.0</ele><time>2026-03-28T14:05:53Z</time></trkpt><trkpt lat="46.16234986317841" lon="13.53476733619828"><ele>253.0</ele><time>2026-03-28T14:05:54Z</time></trkpt><trkpt lat="46.16220922290911" lon="13.534825197359474"><ele>254.0</ele><time>2026-03-28T14:05:55Z</time></trkpt><trkpt lat="46.162068612431725" lon="13.534876429826028"><ele>255.0</ele><time>2026-03-28T14:05:56Z</time></trkpt><trkpt lat="46.16191946293228" lon="13.53489840934926"><ele>255.0</ele><time>2026-03-28T14:05:57Z</time></trkpt><trkpt lat="46.161772897659716" lon="13.53493927029203"><ele>255.0</ele><time>2026-03-28T14:05:58Z</time></trkpt><trkpt lat="46.16162734859451" lon="13.534946054178327"><ele>255.0</ele><time>2026-03-28T14:05:59Z</time></trkpt><trkpt lat="46.16148227362786" lon="13.534962544798558"><ele>255.0</ele><time>2026-03-28T14:06:00Z</time></trkpt><trkpt lat="46.16134566619672" lon="13.534953512044321"><ele>251.5</ele><time>2026-03-28T14:06:01Z</time></trkpt><trkpt lat="46.16122154210219" lon="13.534944944239744"><ele>248.0</ele><time>2026-03-28T14:06:02Z</time></trkpt><trkpt lat="46.16109992202831" lon="13.534923047423229"><ele>244.5</ele><time>2026-03-28T14:06:03Z</time></trkpt><trkpt lat="46.160978543209865" lon="13.534943447864347"><ele>241.0</ele><time>2026-03-28T14:06:04Z</time></trkpt><trkpt lat="46.16086233059674" lon="13.534992340282773"><ele>241.0</ele><time>2026-03-28T14:06:05Z</time></trkpt><trkpt lat="46.16075309301752" lon="13.535045953134189"><ele>241.00000000000003</ele><time>2026-03-28T14:06:06Z</time></trkpt><trkpt lat="46.16066074618194" lon="13.535084552313917"><ele>241.00000000000003</ele><time>2026-03-28T14:06:07Z</time></trkpt><trkpt lat="46.16057827850871" lon="13.535099437391382"><ele>241.0</ele><time>2026-03-28T14:06:08Z</time></trkpt><trkpt lat="46.1605010441145" lon="13.535085840486056"><ele>241.0</ele><time>2026-03-28T14:06:09Z</time></trkpt><trkpt lat="46.16042669859911" lon="13.535032511883294"><ele>237.83333333333331</ele><time>2026-03-28T14:06:10Z</time></trkpt><trkpt lat="46.160351662466326" lon="13.534958227021296"><ele>234.66666666666666</ele><time>2026-03-28T14:06:11Z</time></trkpt><trkpt lat="46.16027882273794" lon="13.534891206186021"><ele>231.5</ele><time>2026-03-28T14:06:12Z</time></trkpt><trkpt lat="46.160209272793374" lon="13.53482729426705"><ele>228.33333333333331</ele><time>2026-03-28T14:06:13Z</time></trkpt><trkpt lat="46.16014083979808" lon="13.534758484783106"><ele>225.16666666666666</ele><time>2026-03-28T14:06:14Z</time></trkpt><trkpt lat="46.16008054906187" lon="13.534680063581272"><ele>222.0</ele><time>2026-03-28T14:06:15Z</time></trkpt><trkpt lat="46.160034848537904" lon="13.534585410730388"><ele>221.83333333333334</ele><time>2026-03-28T14:06:16Z</time></trkpt><trkpt lat="46.159994489802564" lon="13.534484539218363"><ele>221.66666666666669</ele><time>2026-03-28T14:06:17Z</time></trkpt><trkpt lat="46.15995457908125" lon="13.53438622232416"><ele>221.5</ele><time>2026-03-28T14:06:18Z</time></trkpt><trkpt lat="46.15992868719811" lon="13.534274862854689"><ele>221.33333333333334</ele><time>2026-03-28T14:06:19Z</time></trkpt><trkpt lat="46.159904112177024" lon="13.534165886974826"><ele>221.16666666666669</ele><time>2026-03-28T14:06:20Z</time></trkpt><trkpt lat="46.159882999792046" lon="13.534073314164157"><ele>221.0</ele><time>2026-03-28T14:06:21Z</time></trkpt><trkpt lat="46.159856350746416" lon="13.533932459215908"><ele>220.50000000000003</ele><time>2026-03-28T14:06:23Z</time></trkpt><trkpt lat="46.15976704367139" lon="13.533800616023532"><ele>220.0</ele><time>2026-03-28T14:06:25Z</time></trkpt><trkpt lat="46.15971068854216" lon="13.533720295817934"><ele>219.5</ele><time>2026-03-28T14:06:26Z</time></trkpt><trkpt lat="46.159651703104544" lon="13.533629844426883"><ele>219.0</ele><time>2026-03-28T14:06:27Z</time></trkpt><trkpt lat="46.15959890409784" lon="13.533555976987856"><ele>218.50000000000003</ele><time>2026-03-28T14:06:27.999Z</time></trkpt><trkpt lat="46.159538407091674" lon="13.533475009614747"><ele>218.0</ele><time>2026-03-28T14:06:28.999Z</time></trkpt><trkpt lat="46.15943352744412" lon="13.5334731074375"><ele>217.60000000000002</ele><time>2026-03-28T14:06:29.999Z</time></trkpt><trkpt lat="46.159320941016844" lon="13.533483633726673"><ele>217.20000000000002</ele><time>2026-03-28T14:06:30.999Z</time></trkpt><trkpt lat="46.15921585236159" lon="13.533515480300036"><ele>216.8</ele><time>2026-03-28T14:06:31.999Z</time></trkpt><trkpt lat="46.159123040773174" lon="13.53352481959968"><ele>216.4</ele><time>2026-03-28T14:06:32.999Z</time></trkpt><trkpt lat="46.159028849512886" lon="13.533533575257891"><ele>216.0</ele><time>2026-03-28T14:06:33.999Z</time></trkpt><trkpt lat="46.158932510792226" lon="13.533513724583452"><ele>215.4</ele><time>2026-03-28T14:06:34.999Z</time></trkpt><trkpt lat="46.158837638942025" lon="13.533468233027431"><ele>214.8</ele><time>2026-03-28T14:06:35.999Z</time></trkpt><trkpt lat="46.15874598587324" lon="13.533375291112426"><ele>214.20000000000002</ele><time>2026-03-28T14:06:36.999Z</time></trkpt><trkpt lat="46.158664566872424" lon="13.533252645203953"><ele>213.60000000000002</ele><time>2026-03-28T14:06:37.999Z</time></trkpt><trkpt lat="46.15859296574351" lon="13.533120879372275"><ele>213.0</ele><time>2026-03-28T14:06:38.999Z</time></trkpt><trkpt lat="46.15851607128444" lon="13.533000381068232"><ele>212.60000000000002</ele><time>2026-03-28T14:06:39.999Z</time></trkpt><trkpt lat="46.15843773661852" lon="13.532878737096114"><ele>212.20000000000002</ele><time>2026-03-28T14:06:40.999Z</time></trkpt><trkpt lat="46.15837364871981" lon="13.532755722900585"><ele>211.8</ele><time>2026-03-28T14:06:41.999Z</time></trkpt><trkpt lat="46.15831190096887" lon="13.532626282242667"><ele>211.4</ele><time>2026-03-28T14:06:42.999Z</time></trkpt><trkpt lat="46.158250560545504" lon="13.532488784800465"><ele>211.0</ele><time>2026-03-28T14:06:43.999Z</time></trkpt><trkpt lat="46.15819018929363" lon="13.53234934642855"><ele>211.0</ele><time>2026-03-28T14:06:44.999Z</time></trkpt><trkpt lat="46.1581208742106" lon="13.532210965240917"><ele>211.0</ele><time>2026-03-28T14:06:45.999Z</time></trkpt><trkpt lat="46.15805897758202" lon="13.532079844715213"><ele>211.0</ele><time>2026-03-28T14:06:46.999Z</time></trkpt><trkpt lat="46.15800049374273" lon="13.531945620321189"><ele>211.0</ele><time>2026-03-28T14:06:47.999Z</time></trkpt><trkpt lat="46.15793994908548" lon="13.53181598788001"><ele>211.0</ele><time>2026-03-28T14:06:48.999Z</time></trkpt><trkpt lat="46.157878171772175" lon="13.531695673388295"><ele>211.0</ele><time>2026-03-28T14:06:49.999Z</time></trkpt><trkpt lat="46.157823319903315" lon="13.531570952116178"><ele>211.0</ele><time>2026-03-28T14:06:51Z</time></trkpt><trkpt lat="46.157768722698634" lon="13.531445027728406"><ele>211.0</ele><time>2026-03-28T14:06:52Z</time></trkpt><trkpt lat="46.15771141131491" lon="13.531317447465433"><ele>211.0</ele><time>2026-03-28T14:06:53Z</time></trkpt><trkpt lat="46.157650110951074" lon="13.531183607097631"><ele>211.0</ele><time>2026-03-28T14:06:54Z</time></trkpt><trkpt lat="46.157588775746056" lon="13.531054233504138"><ele>210.4</ele><time>2026-03-28T14:06:55Z</time></trkpt><trkpt lat="46.15753038019625" lon="13.530931404399723"><ele>209.8</ele><time>2026-03-28T14:06:56Z</time></trkpt><trkpt lat="46.15747683529759" lon="13.530815284504895"><ele>209.20000000000002</ele><time>2026-03-28T14:06:57Z</time></trkpt><trkpt lat="46.15742463050153" lon="13.5307053721953"><ele>208.60000000000002</ele><time>2026-03-28T14:06:58Z</time></trkpt><trkpt lat="46.157374596387996" lon="13.530601539604916"><ele>208.0</ele><time>2026-03-28T14:06:59Z</time></trkpt><trkpt lat="46.15732206677949" lon="13.530498372927319"><ele>208.4</ele><time>2026-03-28T14:07:00Z</time></trkpt><trkpt lat="46.1572641454359" lon="13.530383187372994"><ele>208.8</ele><time>2026-03-28T14:07:01Z</time></trkpt><trkpt lat="46.1571980709058" lon="13.5302607638587"><ele>209.2</ele><time>2026-03-28T14:07:02Z</time></trkpt><trkpt lat="46.15712358315243" lon="13.530134262101145"><ele>209.6</ele><time>2026-03-28T14:07:03Z</time></trkpt><trkpt lat="46.1570438294529" lon="13.530012843508706"><ele>210.0</ele><time>2026-03-28T14:07:04Z</time></trkpt><trkpt lat="46.156959831918286" lon="13.529892597703874"><ele>210.0</ele><time>2026-03-28T14:07:05Z</time></trkpt><trkpt lat="46.15687600000607" lon="13.529767495625812"><ele>210.0</ele><time>2026-03-28T14:07:06Z</time></trkpt><trkpt lat="46.15678853866391" lon="13.529647115119323"><ele>210.0</ele><time>2026-03-28T14:07:07Z</time></trkpt><trkpt lat="46.15670007182456" lon="13.52952889537592"><ele>210.0</ele><time>2026-03-28T14:07:08Z</time></trkpt><trkpt lat="46.156610248470884" lon="13.529399158308946"><ele>208.25</ele><time>2026-03-28T14:07:09Z</time></trkpt><trkpt lat="46.15651791872676" lon="13.52926431287637"><ele>206.5</ele><time>2026-03-28T14:07:10Z</time></trkpt><trkpt lat="46.15642752973848" lon="13.529118752793012"><ele>204.75</ele><time>2026-03-28T14:07:11Z</time></trkpt><trkpt lat="46.15634330292901" lon="13.528959742499056"><ele>203.0</ele><time>2026-03-28T14:07:12Z</time></trkpt><trkpt lat="46.15627050200775" lon="13.52878609954596"><ele>202.0</ele><time>2026-03-28T14:07:13Z</time></trkpt><trkpt lat="46.1562011548748" lon="13.528584417355587"><ele>201.0</ele><time>2026-03-28T14:07:14Z</time></trkpt><trkpt lat="46.15613361922597" lon="13.52837253395585"><ele>200.0</ele><time>2026-03-28T14:07:15Z</time></trkpt><trkpt lat="46.156067289716056" lon="13.528155010999576"><ele>200.0</ele><time>2026-03-28T14:07:16Z</time></trkpt><trkpt lat="46.15600170862634" lon="13.527939058354722"><ele>200.0</ele><time>2026-03-28T14:07:17Z</time></trkpt><trkpt lat="46.15594090258172" lon="13.527733448007051"><ele>200.0</ele><time>2026-03-28T14:07:18Z</time></trkpt><trkpt lat="46.15588027464653" lon="13.527529464164441"><ele>200.0</ele><time>2026-03-28T14:07:19Z</time></trkpt><trkpt lat="46.15581147791368" lon="13.527325976328742"><ele>200.0</ele><time>2026-03-28T14:07:20Z</time></trkpt><trkpt lat="46.15573127848203" lon="13.527121843045174"><ele>200.0</ele><time>2026-03-28T14:07:21Z</time></trkpt><trkpt lat="46.155650667327066" lon="13.526927321838095"><ele>200.0</ele><time>2026-03-28T14:07:22Z</time></trkpt><trkpt lat="46.15557175084788" lon="13.526746744590092"><ele>200.0</ele><time>2026-03-28T14:07:23Z</time></trkpt><trkpt lat="46.15547657608741" lon="13.526586560885773"><ele>200.0</ele><time>2026-03-28T14:07:24Z</time></trkpt><trkpt lat="46.15538805350076" lon="13.526428717145457"><ele>200.0</ele><time>2026-03-28T14:07:25Z</time></trkpt><trkpt lat="46.15529590142472" lon="13.526267103917966"><ele>200.33333333333334</ele><time>2026-03-28T14:07:26Z</time></trkpt><trkpt lat="46.15520102630389" lon="13.526096281779912"><ele>200.66666666666669</ele><time>2026-03-28T14:07:27Z</time></trkpt><trkpt lat="46.15510585924883" lon="13.525922556513864"><ele>201.0</ele><time>2026-03-28T14:07:28Z</time></trkpt><trkpt lat="46.155008111874004" lon="13.525750063525868"><ele>201.0</ele><time>2026-03-28T14:07:29Z</time></trkpt><trkpt lat="46.154908575090396" lon="13.52557743215237"><ele>201.0</ele><time>2026-03-28T14:07:30Z</time></trkpt><trkpt lat="46.154810535585995" lon="13.52541478621616"><ele>201.0</ele><time>2026-03-28T14:07:31Z</time></trkpt><trkpt lat="46.15471493065981" lon="13.525251771846289"><ele>200.5</ele><time>2026-03-28T14:07:32Z</time></trkpt><trkpt lat="46.154618360266056" lon="13.52508620579554"><ele>200.0</ele><time>2026-03-28T14:07:33Z</time></trkpt><trkpt lat="46.15452226716585" lon="13.524918610841091"><ele>199.5</ele><time>2026-03-28T14:07:34Z</time></trkpt><trkpt lat="46.154431131504026" lon="13.524753873658602"><ele>199.0</ele><time>2026-03-28T14:07:35Z</time></trkpt><trkpt lat="46.15434039531043" lon="13.524596702310973"><ele>199.5</ele><time>2026-03-28T14:07:36Z</time></trkpt><trkpt lat="46.15425629809922" lon="13.524433791185249"><ele>200.0</ele><time>2026-03-28T14:07:37Z</time></trkpt><trkpt lat="46.15418145647031" lon="13.524253443496097"><ele>200.5</ele><time>2026-03-28T14:07:38Z</time></trkpt><trkpt lat="46.15411518006377" lon="13.5240575775708"><ele>201.0</ele><time>2026-03-28T14:07:39Z</time></trkpt><trkpt lat="46.15405993711835" lon="13.523853301761966"><ele>200.25</ele><time>2026-03-28T14:07:40Z</time></trkpt><trkpt lat="46.15401038429413" lon="13.523648853835645"><ele>199.5</ele><time>2026-03-28T14:07:41Z</time></trkpt><trkpt lat="46.1539712075047" lon="13.523440032158911"><ele>198.75</ele><time>2026-03-28T14:07:42Z</time></trkpt><trkpt lat="46.153937447940265" lon="13.523231400387214"><ele>198.0</ele><time>2026-03-28T14:07:43Z</time></trkpt><trkpt lat="46.15388868285979" lon="13.523033319708901"><ele>199.0</ele><time>2026-03-28T14:07:44Z</time></trkpt><trkpt lat="46.15382029841118" lon="13.522844792879457"><ele>200.0</ele><time>2026-03-28T14:07:45Z</time></trkpt><trkpt lat="46.153745048840214" lon="13.522667232494904"><ele>201.0</ele><time>2026-03-28T14:07:46Z</time></trkpt><trkpt lat="46.15366674039376" lon="13.52250477163581"><ele>202.0</ele><time>2026-03-28T14:07:47Z</time></trkpt><trkpt lat="46.15357904963986" lon="13.522352625733385"><ele>202.0</ele><time>2026-03-28T14:07:48Z</time></trkpt><trkpt lat="46.15346540189601" lon="13.522226091786141"><ele>202.0</ele><time>2026-03-28T14:07:49Z</time></trkpt><trkpt lat="46.15332211214627" lon="13.522127794125812"><ele>202.0</ele><time>2026-03-28T14:07:50Z</time></trkpt><trkpt lat="46.15317043312791" lon="13.522042723683867"><ele>201.75</ele><time>2026-03-28T14:07:51Z</time></trkpt><trkpt lat="46.15303450615517" lon="13.521956573775446"><ele>201.5</ele><time>2026-03-28T14:07:52Z</time></trkpt><trkpt lat="46.152904801457865" lon="13.521864467778155"><ele>201.25</ele><time>2026-03-28T14:07:53Z</time></trkpt><trkpt lat="46.15276676173868" lon="13.521774206025063"><ele>201.0</ele><time>2026-03-28T14:07:54Z</time></trkpt><trkpt lat="46.15262860948968" lon="13.521687899207667"><ele>201.0</ele><time>2026-03-28T14:07:55Z</time></trkpt><trkpt lat="46.15249034326226" lon="13.521593284489313"><ele>201.0</ele><time>2026-03-28T14:07:56Z</time></trkpt><trkpt lat="46.15235494009903" lon="13.521492583795471"><ele>201.0</ele><time>2026-03-28T14:07:57Z</time></trkpt><trkpt lat="46.1522272592319" lon="13.521384349169326"><ele>201.0</ele><time>2026-03-28T14:07:58Z</time></trkpt><trkpt lat="46.15211049750941" lon="13.521264217491446"><ele>201.0</ele><time>2026-03-28T14:07:59Z</time></trkpt><trkpt lat="46.15199567851491" lon="13.52113216285828"><ele>201.0</ele><time>2026-03-28T14:08:00Z</time></trkpt><trkpt lat="46.151877948888426" lon="13.520982079844588"><ele>201.0</ele><time>2026-03-28T14:08:01Z</time></trkpt><trkpt lat="46.15176925223065" lon="13.520820782130306"><ele>199.0</ele><time>2026-03-28T14:08:02Z</time></trkpt><trkpt lat="46.151670790739495" lon="13.520646459549445"><ele>197.0</ele><time>2026-03-28T14:08:03Z</time></trkpt><trkpt lat="46.151574605012804" lon="13.520466911915824"><ele>195.0</ele><time>2026-03-28T14:08:04Z</time></trkpt><trkpt lat="46.15148918533438" lon="13.520268159388541"><ele>195.0</ele><time>2026-03-28T14:08:05Z</time></trkpt><trkpt lat="46.15141576096509" lon="13.5200603725651"><ele>195.0</ele><time>2026-03-28T14:08:06Z</time></trkpt><trkpt lat="46.15133458148988" lon="13.519814957525387"><ele>195.0</ele><time>2026-03-28T14:08:07Z</time></trkpt><trkpt lat="46.15126357525261" lon="13.519527426095607"><ele>192.0</ele><time>2026-03-28T14:08:08Z</time></trkpt><trkpt lat="46.15116691113046" lon="13.519174759901233"><ele>189.0</ele><time>2026-03-28T14:08:09Z</time></trkpt><trkpt lat="46.15104318989411" lon="13.51878540047961"><ele>187.5</ele><time>2026-03-28T14:08:10Z</time></trkpt><trkpt lat="46.150937021287326" lon="13.518357169958126"><ele>186.0</ele><time>2026-03-28T14:08:11Z</time></trkpt><trkpt lat="46.150820313043404" lon="13.517932083295173"><ele>186.5</ele><time>2026-03-28T14:08:12Z</time></trkpt><trkpt lat="46.15070492688592" lon="13.51751479230975"><ele>187.0</ele><time>2026-03-28T14:08:13Z</time></trkpt><trkpt lat="46.15060426297337" lon="13.51713414416525"><ele>186.5</ele><time>2026-03-28T14:08:14Z</time></trkpt><trkpt lat="46.15050946396274" lon="13.5167792099705"><ele>186.0</ele><time>2026-03-28T14:08:15Z</time></trkpt><trkpt lat="46.15041304478639" lon="13.516457498755644"><ele>186.33333333333334</ele><time>2026-03-28T14:08:16Z</time></trkpt><trkpt lat="46.15031244072274" lon="13.516164003980789"><ele>186.66666666666669</ele><time>2026-03-28T14:08:17Z</time></trkpt><trkpt lat="46.15018962793975" lon="13.515904380463521"><ele>187.0</ele><time>2026-03-28T14:08:18Z</time></trkpt><trkpt lat="46.15003323515233" lon="13.515653769394003"><ele>186.5</ele><time>2026-03-28T14:08:19Z</time></trkpt><trkpt lat="46.14985185939111" lon="13.515412458174765"><ele>186.0</ele><time>2026-03-28T14:08:20Z</time></trkpt><trkpt lat="46.149689308746005" lon="13.515183351359198"><ele>189.33333333333331</ele><time>2026-03-28T14:08:21Z</time></trkpt><trkpt lat="46.149540141345554" lon="13.514981719635484"><ele>192.66666666666666</ele><time>2026-03-28T14:08:22Z</time></trkpt><trkpt lat="46.14938585991345" lon="13.514822781793237"><ele>196.0</ele><time>2026-03-28T14:08:23Z</time></trkpt><trkpt lat="46.14922101841188" lon="13.514716138574885"><ele>196.0</ele><time>2026-03-28T14:08:24Z</time></trkpt><trkpt lat="46.149048004475986" lon="13.514670099650894"><ele>196.0</ele><time>2026-03-28T14:08:25Z</time></trkpt><trkpt lat="46.14886686687152" lon="13.514678948705923"><ele>196.0</ele><time>2026-03-28T14:08:26Z</time></trkpt><trkpt lat="46.1486749368539" lon="13.514726016579079"><ele>194.33333333333331</ele><time>2026-03-28T14:08:27Z</time></trkpt><trkpt lat="46.148472984283245" lon="13.514735256048496"><ele>192.66666666666666</ele><time>2026-03-28T14:08:28Z</time></trkpt><trkpt lat="46.14826863799895" lon="13.514755220629384"><ele>191.0</ele><time>2026-03-28T14:08:28.999Z</time></trkpt><trkpt lat="46.14808071147137" lon="13.51472597381621"><ele>191.0</ele><time>2026-03-28T14:08:29.999Z</time></trkpt><trkpt lat="46.14790799920325" lon="13.51469771139619"><ele>191.0</ele><time>2026-03-28T14:08:30.999Z</time></trkpt><trkpt lat="46.14772798053272" lon="13.51466808941194"><ele>191.0</ele><time>2026-03-28T14:08:31.999Z</time></trkpt><trkpt lat="46.1475559684692" lon="13.514677017762741"><ele>191.0</ele><time>2026-03-28T14:08:32.999Z</time></trkpt><trkpt lat="46.1474018922027" lon="13.514693875353382"><ele>191.0</ele><time>2026-03-28T14:08:33.999Z</time></trkpt><trkpt lat="46.147256802070906" lon="13.514673156650979"><ele>191.0</ele><time>2026-03-28T14:08:34.999Z</time></trkpt><trkpt lat="46.14712110191106" lon="13.514627770151074"><ele>191.0</ele><time>2026-03-28T14:08:35.999Z</time></trkpt><trkpt lat="46.146991702593944" lon="13.514545842819965"><ele>193.0</ele><time>2026-03-28T14:08:36.999Z</time></trkpt><trkpt lat="46.146873205672165" lon="13.514433741403876"><ele>195.0</ele><time>2026-03-28T14:08:37.999Z</time></trkpt><trkpt lat="46.146750165574545" lon="13.514271774537214"><ele>197.0</ele><time>2026-03-28T14:08:38.999Z</time></trkpt><trkpt lat="46.14660360742828" lon="13.514084801431522"><ele>197.0</ele><time>2026-03-28T14:08:39.999Z</time></trkpt><trkpt lat="46.14644083845627" lon="13.513878436254592"><ele>197.0</ele><time>2026-03-28T14:08:40.999Z</time></trkpt><trkpt lat="46.146264813774785" lon="13.513664869165622"><ele>197.0</ele><time>2026-03-28T14:08:41.999Z</time></trkpt><trkpt lat="46.146072789091654" lon="13.51345114226182"><ele>197.0</ele><time>2026-03-28T14:08:42.999Z</time></trkpt><trkpt lat="46.14586587619475" lon="13.513245273231787"><ele>197.0</ele><time>2026-03-28T14:08:43.999Z</time></trkpt><trkpt lat="46.14564708016541" lon="13.51304350087578"><ele>197.5</ele><time>2026-03-28T14:08:44.999Z</time></trkpt><trkpt lat="46.14542685471358" lon="13.512835759422487"><ele>198.0</ele><time>2026-03-28T14:08:45.999Z</time></trkpt><trkpt lat="46.14520972088256" lon="13.512626529394629"><ele>198.0</ele><time>2026-03-28T14:08:46.999Z</time></trkpt><trkpt lat="46.14500226335826" lon="13.512428344709885"><ele>198.0</ele><time>2026-03-28T14:08:47.999Z</time></trkpt><trkpt lat="46.14480234157346" lon="13.512238189199108"><ele>197.0</ele><time>2026-03-28T14:08:48.999Z</time></trkpt><trkpt lat="46.14461136837699" lon="13.51204792270355"><ele>196.0</ele><time>2026-03-28T14:08:49.999Z</time></trkpt><trkpt lat="46.14442563053618" lon="13.511864501823927"><ele>196.0</ele><time>2026-03-28T14:08:50.999Z</time></trkpt><trkpt lat="46.144244090482" lon="13.511686541618754"><ele>196.0</ele><time>2026-03-28T14:08:51.999Z</time></trkpt><trkpt lat="46.14406487077384" lon="13.511507679576821"><ele>196.0</ele><time>2026-03-28T14:08:52.999Z</time></trkpt><trkpt lat="46.14389980300802" lon="13.511311928499913"><ele>191.33333333333331</ele><time>2026-03-28T14:08:53.999Z</time></trkpt><trkpt lat="46.143729852443364" lon="13.511128501922602"><ele>186.66666666666666</ele><time>2026-03-28T14:08:54.999Z</time></trkpt><trkpt lat="46.143552562638945" lon="13.51096496543325"><ele>182.0</ele><time>2026-03-28T14:08:55.999Z</time></trkpt><trkpt lat="46.14339444287749" lon="13.510768626824301"><ele>182.0</ele><time>2026-03-28T14:08:57Z</time></trkpt><trkpt lat="46.14324277000649" lon="13.510558337854272"><ele>182.0</ele><time>2026-03-28T14:08:58Z</time></trkpt><trkpt lat="46.143096071175364" lon="13.510331987204012"><ele>182.0</ele><time>2026-03-28T14:08:59Z</time></trkpt><trkpt lat="46.14295697883379" lon="13.510089345822326"><ele>180.66666666666666</ele><time>2026-03-28T14:09:00Z</time></trkpt><trkpt lat="46.14282403374698" lon="13.509844160928383"><ele>179.33333333333334</ele><time>2026-03-28T14:09:01Z</time></trkpt><trkpt lat="46.14269046852392" lon="13.509605183009011"><ele>178.0</ele><time>2026-03-28T14:09:02Z</time></trkpt><trkpt lat="46.14255899048866" lon="13.509370343639619"><ele>178.0</ele><time>2026-03-28T14:09:03Z</time></trkpt><trkpt lat="46.142433599311374" lon="13.50913570621381"><ele>178.0</ele><time>2026-03-28T14:09:04Z</time></trkpt><trkpt lat="46.142313164183" lon="13.508917503438358"><ele>178.0</ele><time>2026-03-28T14:09:05Z</time></trkpt><trkpt lat="46.14218889423937" lon="13.508720418278305"><ele>176.0</ele><time>2026-03-28T14:09:06Z</time></trkpt><trkpt lat="46.14205188259583" lon="13.508535324371628"><ele>174.0</ele><time>2026-03-28T14:09:07Z</time></trkpt><trkpt lat="46.141903512940836" lon="13.508346307296994"><ele>172.0</ele><time>2026-03-28T14:09:08Z</time></trkpt><trkpt lat="46.14171568107002" lon="13.508216534461122"><ele>171.0</ele><time>2026-03-28T14:09:09Z</time></trkpt><trkpt lat="46.141523147699296" lon="13.508091668653506"><ele>170.0</ele><time>2026-03-28T14:09:10Z</time></trkpt><trkpt lat="46.14132335911918" lon="13.50796816142049"><ele>169.0</ele><time>2026-03-28T14:09:11Z</time></trkpt><trkpt lat="46.14112769960363" lon="13.507816707066965"><ele>169.0</ele><time>2026-03-28T14:09:12Z</time></trkpt><trkpt lat="46.140937851357585" lon="13.507641666260252"><ele>169.0</ele><time>2026-03-28T14:09:13Z</time></trkpt><trkpt lat="46.14075221717624" lon="13.507448794147036"><ele>169.0</ele><time>2026-03-28T14:09:14Z</time></trkpt><trkpt lat="46.140579157784806" lon="13.507230047177778"><ele>169.0</ele><time>2026-03-28T14:09:15Z</time></trkpt><trkpt lat="46.14041691567924" lon="13.506989670912194"><ele>168.0</ele><time>2026-03-28T14:09:16Z</time></trkpt><trkpt lat="46.140260557455065" lon="13.506733824633232"><ele>167.0</ele><time>2026-03-28T14:09:17Z</time></trkpt><trkpt lat="46.140108370668585" lon="13.50647061128409"><ele>168.5</ele><time>2026-03-28T14:09:18Z</time></trkpt><trkpt lat="46.13995205843744" lon="13.506216547936155"><ele>170.0</ele><time>2026-03-28T14:09:19Z</time></trkpt><trkpt lat="46.13979801500979" lon="13.5059636356559"><ele>171.0</ele><time>2026-03-28T14:09:20Z</time></trkpt><trkpt lat="46.139605826366626" lon="13.505770691351056"><ele>172.0</ele><time>2026-03-28T14:09:21Z</time></trkpt><trkpt lat="46.139403695656085" lon="13.505598969692485"><ele>172.0</ele><time>2026-03-28T14:09:22Z</time></trkpt><trkpt lat="46.1391803366097" lon="13.505446987931435"><ele>172.0</ele><time>2026-03-28T14:09:23Z</time></trkpt><trkpt lat="46.13895384437038" lon="13.505293732395407"><ele>173.33333333333334</ele><time>2026-03-28T14:09:24Z</time></trkpt><trkpt lat="46.13874372581829" lon="13.50515097673307"><ele>174.66666666666666</ele><time>2026-03-28T14:09:25Z</time></trkpt><trkpt lat="46.138554519923744" lon="13.505020272152096"><ele>176.0</ele><time>2026-03-28T14:09:26Z</time></trkpt><trkpt lat="46.1383739831886" lon="13.504912948054432"><ele>175.33333333333331</ele><time>2026-03-28T14:09:27Z</time></trkpt><trkpt lat="46.13819844951868" lon="13.50483896466967"><ele>174.66666666666666</ele><time>2026-03-28T14:09:28Z</time></trkpt><trkpt lat="46.138010320868176" lon="13.504808902097349"><ele>174.0</ele><time>2026-03-28T14:09:29Z</time></trkpt><trkpt lat="46.1378178457712" lon="13.504827684345983"><ele>174.0</ele><time>2026-03-28T14:09:30Z</time></trkpt><trkpt lat="46.13763513080235" lon="13.504832791768012"><ele>174.0</ele><time>2026-03-28T14:09:31Z</time></trkpt><trkpt lat="46.13747876562523" lon="13.504873391596734"><ele>174.0</ele><time>2026-03-28T14:09:32Z</time></trkpt><trkpt lat="46.13733324158838" lon="13.504908226639937"><ele>172.25</ele><time>2026-03-28T14:09:33Z</time></trkpt><trkpt lat="46.13719277805557" lon="13.504918939173638"><ele>170.5</ele><time>2026-03-28T14:09:34Z</time></trkpt><trkpt lat="46.13704666057785" lon="13.504900897926257"><ele>168.75</ele><time>2026-03-28T14:09:35Z</time></trkpt><trkpt lat="46.13690265556266" lon="13.504866076645209"><ele>167.0</ele><time>2026-03-28T14:09:36Z</time></trkpt><trkpt lat="46.13677186696592" lon="13.504807321762112"><ele>167.0</ele><time>2026-03-28T14:09:37Z</time></trkpt><trkpt lat="46.136615191091884" lon="13.504724326104098"><ele>167.0</ele><time>2026-03-28T14:09:38Z</time></trkpt><trkpt lat="46.13642118602399" lon="13.50461633265435"><ele>167.0</ele><time>2026-03-28T14:09:39Z</time></trkpt><trkpt lat="46.13619713153551" lon="13.504491585432284"><ele>167.5</ele><time>2026-03-28T14:09:40Z</time></trkpt><trkpt lat="46.13592900970732" lon="13.504341900506995"><ele>168.0</ele><time>2026-03-28T14:09:41Z</time></trkpt><trkpt lat="46.13562960895548" lon="13.504174749941772"><ele>164.0</ele><time>2026-03-28T14:09:42Z</time></trkpt><trkpt lat="46.13530558389748" lon="13.503995807804452"><ele>160.0</ele><time>2026-03-28T14:09:43Z</time></trkpt><trkpt lat="46.13496043454139" lon="13.503837616355813"><ele>158.5</ele><time>2026-03-28T14:09:44Z</time></trkpt><trkpt lat="46.13463586197966" lon="13.503655077176706"><ele>157.0</ele><time>2026-03-28T14:09:45Z</time></trkpt><trkpt lat="46.134322109429604" lon="13.50347827187032"><ele>156.5</ele><time>2026-03-28T14:09:46Z</time></trkpt><trkpt lat="46.134016261386826" lon="13.503304604225017"><ele>156.0</ele><time>2026-03-28T14:09:47Z</time></trkpt><trkpt lat="46.13372729335018" lon="13.503127587442405"><ele>156.0</ele><time>2026-03-28T14:09:48Z</time></trkpt><trkpt lat="46.133449176431185" lon="13.502915933460349"><ele>156.0</ele><time>2026-03-28T14:09:49Z</time></trkpt><trkpt lat="46.13317200805654" lon="13.502661025319073"><ele>156.0</ele><time>2026-03-28T14:09:50Z</time></trkpt><trkpt lat="46.13289279532752" lon="13.502387504740367"><ele>156.0</ele><time>2026-03-28T14:09:51Z</time></trkpt><trkpt lat="46.13261068827275" lon="13.50211644533085"><ele>156.0</ele><time>2026-03-28T14:09:52Z</time></trkpt><trkpt lat="46.132343748127724" lon="13.501861641790128"><ele>156.0</ele><time>2026-03-28T14:09:53Z</time></trkpt><trkpt lat="46.13210591340373" lon="13.501634984575372"><ele>156.0</ele><time>2026-03-28T14:09:54Z</time></trkpt><trkpt lat="46.13188478293424" lon="13.501428422491733"><ele>156.0</ele><time>2026-03-28T14:09:55Z</time></trkpt><trkpt lat="46.13167711610607" lon="13.501233270758329"><ele>154.5</ele><time>2026-03-28T14:09:56Z</time></trkpt><trkpt lat="46.13148284395775" lon="13.50104668382907"><ele>153.0</ele><time>2026-03-28T14:09:57Z</time></trkpt><trkpt lat="46.131292560248355" lon="13.500858940883582"><ele>153.0</ele><time>2026-03-28T14:09:58Z</time></trkpt><trkpt lat="46.131111411204635" lon="13.500663596222266"><ele>153.0</ele><time>2026-03-28T14:09:59Z</time></trkpt><trkpt lat="46.130939030693696" lon="13.500452900501198"><ele>155.0</ele><time>2026-03-28T14:10:00Z</time></trkpt><trkpt lat="46.13077291117234" lon="13.500232187086846"><ele>157.0</ele><time>2026-03-28T14:10:01Z</time></trkpt><trkpt lat="46.130603089670764" lon="13.500019588831735"><ele>157.0</ele><time>2026-03-28T14:10:02Z</time></trkpt><trkpt lat="46.13043299715768" lon="13.49980691555985"><ele>157.0</ele><time>2026-03-28T14:10:03Z</time></trkpt><trkpt lat="46.130271355203114" lon="13.499602227024084"><ele>157.0</ele><time>2026-03-28T14:10:04Z</time></trkpt><trkpt lat="46.13012475653442" lon="13.499417233612652"><ele>156.66666666666669</ele><time>2026-03-28T14:10:05Z</time></trkpt><trkpt lat="46.12998846583951" lon="13.49924656394664"><ele>156.33333333333334</ele><time>2026-03-28T14:10:06Z</time></trkpt><trkpt lat="46.12985668145811" lon="13.49907698593381"><ele>156.0</ele><time>2026-03-28T14:10:07Z</time></trkpt><trkpt lat="46.12972688650902" lon="13.498900713105673"><ele>157.66666666666666</ele><time>2026-03-28T14:10:08Z</time></trkpt><trkpt lat="46.129587566956054" lon="13.498726839049946"><ele>159.33333333333331</ele><time>2026-03-28T14:10:09Z</time></trkpt><trkpt lat="46.12944707612784" lon="13.49856143291303"><ele>161.0</ele><time>2026-03-28T14:10:10Z</time></trkpt><trkpt lat="46.12929979010008" lon="13.498406629209862"><ele>161.0</ele><time>2026-03-28T14:10:11Z</time></trkpt><trkpt lat="46.12913216910137" lon="13.49827499495993"><ele>161.0</ele><time>2026-03-28T14:10:12Z</time></trkpt><trkpt lat="46.12895026812061" lon="13.498153318945736"><ele>161.0</ele><time>2026-03-28T14:10:13Z</time></trkpt><trkpt lat="46.12876179093061" lon="13.498031217827505"><ele>159.0</ele><time>2026-03-28T14:10:14Z</time></trkpt><trkpt lat="46.12856810952671" lon="13.497910503089562"><ele>157.0</ele><time>2026-03-28T14:10:15Z</time></trkpt><trkpt lat="46.128371497531546" lon="13.497788233862043"><ele>155.0</ele><time>2026-03-28T14:10:16Z</time></trkpt><trkpt lat="46.12817288105404" lon="13.497661896583736"><ele>155.0</ele><time>2026-03-28T14:10:17Z</time></trkpt><trkpt lat="46.12797913436636" lon="13.497535797539662"><ele>155.0</ele><time>2026-03-28T14:10:18Z</time></trkpt><trkpt lat="46.12778952233407" lon="13.497413026488621"><ele>155.0</ele><time>2026-03-28T14:10:19Z</time></trkpt><trkpt lat="46.127599505862285" lon="13.497296754908627"><ele>155.0</ele><time>2026-03-28T14:10:20Z</time></trkpt><trkpt lat="46.12740828883901" lon="13.497182058310457"><ele>155.0</ele><time>2026-03-28T14:10:21Z</time></trkpt><trkpt lat="46.12722279014778" lon="13.497061707381565"><ele>155.0</ele><time>2026-03-28T14:10:22Z</time></trkpt><trkpt lat="46.12703992868909" lon="13.49694737150723"><ele>156.33333333333331</ele><time>2026-03-28T14:10:23Z</time></trkpt><trkpt lat="46.126858812642844" lon="13.496837076828871"><ele>157.66666666666666</ele><time>2026-03-28T14:10:24Z</time></trkpt><trkpt lat="46.12668102167535" lon="13.496730142566937"><ele>159.0</ele><time>2026-03-28T14:10:25Z</time></trkpt><trkpt lat="46.12650758283969" lon="13.496620621947725"><ele>156.33333333333334</ele><time>2026-03-28T14:10:26Z</time></trkpt><trkpt lat="46.12633482558412" lon="13.496512597263429"><ele>153.66666666666669</ele><time>2026-03-28T14:10:27Z</time></trkpt><trkpt lat="46.12615904479408" lon="13.496411237494925"><ele>151.0</ele><time>2026-03-28T14:10:28Z</time></trkpt><trkpt lat="46.12598149460529" lon="13.496324843108058"><ele>151.0</ele><time>2026-03-28T14:10:29Z</time></trkpt><trkpt lat="46.125799107453815" lon="13.496263421905567"><ele>151.0</ele><time>2026-03-28T14:10:30Z</time></trkpt><trkpt lat="46.125607024245916" lon="13.49622679138692"><ele>151.0</ele><time>2026-03-28T14:10:30.999Z</time></trkpt><trkpt lat="46.12540916990054" lon="13.496218370381479"><ele>151.33333333333334</ele><time>2026-03-28T14:10:31.999Z</time></trkpt><trkpt lat="46.12520823377067" lon="13.49623216546701"><ele>151.66666666666666</ele><time>2026-03-28T14:10:32.999Z</time></trkpt><trkpt lat="46.1250056225018" lon="13.496263772432169"><ele>152.0</ele><time>2026-03-28T14:10:33.999Z</time></trkpt><trkpt lat="46.12481031175074" lon="13.496297924446598"><ele>152.0</ele><time>2026-03-28T14:10:34.999Z</time></trkpt><trkpt lat="46.124619795588536" lon="13.496302205212617"><ele>152.0</ele><time>2026-03-28T14:10:35.999Z</time></trkpt><trkpt lat="46.1244316412412" lon="13.496278067520562"><ele>152.0</ele><time>2026-03-28T14:10:36.999Z</time></trkpt><trkpt lat="46.12424633570882" lon="13.496235185325668"><ele>153.66666666666666</ele><time>2026-03-28T14:10:37.999Z</time></trkpt><trkpt lat="46.124058518142945" lon="13.496179155535089"><ele>155.33333333333334</ele><time>2026-03-28T14:10:38.999Z</time></trkpt><trkpt lat="46.1238694709306" lon="13.49611996005459"><ele>157.0</ele><time>2026-03-28T14:10:39.999Z</time></trkpt><trkpt lat="46.123681043476914" lon="13.496054183994376"><ele>157.0</ele><time>2026-03-28T14:10:40.999Z</time></trkpt><trkpt lat="46.12349540493638" lon="13.495988827343968"><ele>157.0</ele><time>2026-03-28T14:10:41.999Z</time></trkpt><trkpt lat="46.12332140323803" lon="13.495909742478641"><ele>157.0</ele><time>2026-03-28T14:10:42.999Z</time></trkpt><trkpt lat="46.12315980715837" lon="13.49581813992378"><ele>155.0</ele><time>2026-03-28T14:10:43.999Z</time></trkpt><trkpt lat="46.12299194868173" lon="13.495712853268394"><ele>153.0</ele><time>2026-03-28T14:10:44.999Z</time></trkpt><trkpt lat="46.12282046991946" lon="13.495605257368322"><ele>151.0</ele><time>2026-03-28T14:10:45.999Z</time></trkpt><trkpt lat="46.122645842271304" lon="13.495480261349345"><ele>152.33333333333334</ele><time>2026-03-28T14:10:46.999Z</time></trkpt><trkpt lat="46.12246409792461" lon="13.495344644673715"><ele>153.66666666666666</ele><time>2026-03-28T14:10:47.999Z</time></trkpt><trkpt lat="46.12227916358712" lon="13.495187758450564"><ele>155.0</ele><time>2026-03-28T14:10:48.999Z</time></trkpt><trkpt lat="46.12208231473063" lon="13.495041382554342"><ele>155.0</ele><time>2026-03-28T14:10:49.999Z</time></trkpt><trkpt lat="46.12188142252944" lon="13.494892174922786"><ele>155.0</ele><time>2026-03-28T14:10:50.999Z</time></trkpt><trkpt lat="46.12167082973367" lon="13.494764503392881"><ele>153.33333333333331</ele><time>2026-03-28T14:10:51.999Z</time></trkpt><trkpt lat="46.12147533037042" lon="13.49460576626042"><ele>151.66666666666666</ele><time>2026-03-28T14:10:52.999Z</time></trkpt><trkpt lat="46.121268576125075" lon="13.494485372401824"><ele>150.0</ele><time>2026-03-28T14:10:53.999Z</time></trkpt><trkpt lat="46.12106543159498" lon="13.494344494795248"><ele>150.0</ele><time>2026-03-28T14:10:54.999Z</time></trkpt><trkpt lat="46.12084588417232" lon="13.494239351126282"><ele>150.0</ele><time>2026-03-28T14:10:55.999Z</time></trkpt><trkpt lat="46.12061654820382" lon="13.494145992757979"><ele>149.0</ele><time>2026-03-28T14:10:56.999Z</time></trkpt><trkpt lat="46.120376751620135" lon="13.494078267184321"><ele>148.0</ele><time>2026-03-28T14:10:57.999Z</time></trkpt><trkpt lat="46.12013825870462" lon="13.493984012459068"><ele>148.0</ele><time>2026-03-28T14:10:58.999Z</time></trkpt><trkpt lat="46.11990306065209" lon="13.493894354247248"><ele>148.0</ele><time>2026-03-28T14:10:59.999Z</time></trkpt><trkpt lat="46.119675119628425" lon="13.493810216808072"><ele>148.66666666666669</ele><time>2026-03-28T14:11:00.999Z</time></trkpt><trkpt lat="46.1194552101452" lon="13.493727541260318"><ele>149.33333333333334</ele><time>2026-03-28T14:11:01.999Z</time></trkpt><trkpt lat="46.11924248067099" lon="13.49364722710073"><ele>150.0</ele><time>2026-03-28T14:11:03Z</time></trkpt><trkpt lat="46.11903508916453" lon="13.49357020964661"><ele>150.0</ele><time>2026-03-28T14:11:04Z</time></trkpt><trkpt lat="46.118828495263614" lon="13.493469657241077"><ele>150.0</ele><time>2026-03-28T14:11:05Z</time></trkpt><trkpt lat="46.11861001905612" lon="13.493388345780904"><ele>150.0</ele><time>2026-03-28T14:11:06Z</time></trkpt><trkpt lat="46.11838155859949" lon="13.493298435299796"><ele>149.5</ele><time>2026-03-28T14:11:07Z</time></trkpt><trkpt lat="46.118139521433456" lon="13.493205743768991"><ele>149.0</ele><time>2026-03-28T14:11:08Z</time></trkpt><trkpt lat="46.11788820095077" lon="13.493110764111465"><ele>149.0</ele><time>2026-03-28T14:11:09Z</time></trkpt><trkpt lat="46.117633744907536" lon="13.493014597376193"><ele>149.0</ele><time>2026-03-28T14:11:10Z</time></trkpt><trkpt lat="46.117382073697115" lon="13.492919483033848"><ele>150.0</ele><time>2026-03-28T14:11:11Z</time></trkpt><trkpt lat="46.11713621908909" lon="13.492829321101866"><ele>151.0</ele><time>2026-03-28T14:11:12Z</time></trkpt><trkpt lat="46.11688746330595" lon="13.492762441824967"><ele>151.0</ele><time>2026-03-28T14:11:13Z</time></trkpt><trkpt lat="46.1166463168326" lon="13.492671992219083"><ele>151.0</ele><time>2026-03-28T14:11:14Z</time></trkpt><trkpt lat="46.11640973304395" lon="13.492572553243805"><ele>149.66666666666669</ele><time>2026-03-28T14:11:15Z</time></trkpt><trkpt lat="46.11619041636502" lon="13.492456529449802"><ele>148.33333333333334</ele><time>2026-03-28T14:11:16Z</time></trkpt><trkpt lat="46.11599699622914" lon="13.492337383291074"><ele>147.0</ele><time>2026-03-28T14:11:17Z</time></trkpt><trkpt lat="46.11582979392474" lon="13.49220647168062"><ele>147.0</ele><time>2026-03-28T14:11:18Z</time></trkpt><trkpt lat="46.115681275974374" lon="13.492107848049688"><ele>147.0</ele><time>2026-03-28T14:11:19Z</time></trkpt><trkpt lat="46.11555594241342" lon="13.492014598590078"><ele>147.0</ele><time>2026-03-28T14:11:20Z</time></trkpt><trkpt lat="46.115448652679795" lon="13.491905439290282"><ele>147.0</ele><time>2026-03-28T14:11:21Z</time></trkpt><trkpt lat="46.11535643039144" lon="13.491764245785648"><ele>147.0</ele><time>2026-03-28T14:11:22Z</time></trkpt><trkpt lat="46.11525477282034" lon="13.491605385040359"><ele>147.0</ele><time>2026-03-28T14:11:23Z</time></trkpt><trkpt lat="46.11515797655853" lon="13.49142067665295"><ele>147.0</ele><time>2026-03-28T14:11:24Z</time></trkpt><trkpt lat="46.115050043066624" lon="13.49122497145033"><ele>145.33333333333334</ele><time>2026-03-28T14:11:25Z</time></trkpt><trkpt lat="46.114941414906575" lon="13.49101690726946"><ele>143.66666666666669</ele><time>2026-03-28T14:11:26Z</time></trkpt><trkpt lat="46.114836403831134" lon="13.490800674936562"><ele>142.0</ele><time>2026-03-28T14:11:27Z</time></trkpt><trkpt lat="46.11473900495306" lon="13.490573619051567"><ele>142.66666666666669</ele><time>2026-03-28T14:11:28Z</time></trkpt><trkpt lat="46.11464422577819" lon="13.490333213722403"><ele>143.33333333333334</ele><time>2026-03-28T14:11:29Z</time></trkpt><trkpt lat="46.1145543825753" lon="13.490083503324147"><ele>144.0</ele><time>2026-03-28T14:11:30Z</time></trkpt><trkpt lat="46.11447240175428" lon="13.489818347276378"><ele>145.33333333333334</ele><time>2026-03-28T14:11:31Z</time></trkpt><trkpt lat="46.114399429821816" lon="13.489560420058373"><ele>146.66666666666669</ele><time>2026-03-28T14:11:32Z</time></trkpt><trkpt lat="46.114345470244494" lon="13.489330090958651"><ele>148.0</ele><time>2026-03-28T14:11:33Z</time></trkpt><trkpt lat="46.114302757225765" lon="13.489123760161531"><ele>148.0</ele><time>2026-03-28T14:11:34Z</time></trkpt><trkpt lat="46.11426466184294" lon="13.48893966306413"><ele>148.0</ele><time>2026-03-28T14:11:35Z</time></trkpt><trkpt lat="46.114237759729505" lon="13.488767489664172"><ele>148.0</ele><time>2026-03-28T14:11:36Z</time></trkpt><trkpt lat="46.11423142288191" lon="13.488580922257716"><ele>148.0</ele><time>2026-03-28T14:11:37Z</time></trkpt><trkpt lat="46.11422995279315" lon="13.488385386018075"><ele>149.33333333333334</ele><time>2026-03-28T14:11:38Z</time></trkpt><trkpt lat="46.11421663314599" lon="13.488181297072153"><ele>150.66666666666666</ele><time>2026-03-28T14:11:39Z</time></trkpt><trkpt lat="46.1141918280969" lon="13.487964513262105"><ele>152.0</ele><time>2026-03-28T14:11:40Z</time></trkpt><trkpt lat="46.11415572567584" lon="13.487730023133334"><ele>152.66666666666666</ele><time>2026-03-28T14:11:41Z</time></trkpt><trkpt lat="46.114105930777434" lon="13.487493221898433"><ele>153.33333333333334</ele><time>2026-03-28T14:11:42Z</time></trkpt><trkpt lat="46.1140364889648" lon="13.487259410531873"><ele>154.0</ele><time>2026-03-28T14:11:43Z</time></trkpt><trkpt lat="46.11394188870568" lon="13.487029503922345"><ele>150.66666666666669</ele><time>2026-03-28T14:11:44Z</time></trkpt><trkpt lat="46.11383881218229" lon="13.486786365577949"><ele>147.33333333333334</ele><time>2026-03-28T14:11:45Z</time></trkpt><trkpt lat="46.11374224589351" lon="13.486529861828663"><ele>144.0</ele><time>2026-03-28T14:11:46Z</time></trkpt><trkpt lat="46.11365053047669" lon="13.486278232544159"><ele>145.0</ele><time>2026-03-28T14:11:47Z</time></trkpt><trkpt lat="46.11356494112247" lon="13.486032454659783"><ele>146.0</ele><time>2026-03-28T14:11:48Z</time></trkpt><trkpt lat="46.113478439884645" lon="13.485791983331685"><ele>147.0</ele><time>2026-03-28T14:11:49Z</time></trkpt><trkpt lat="46.113391803155665" lon="13.485564267706232"><ele>147.0</ele><time>2026-03-28T14:11:50Z</time></trkpt><trkpt lat="46.1132869005454" lon="13.485353619550928"><ele>147.0</ele><time>2026-03-28T14:11:51Z</time></trkpt><trkpt lat="46.11316826496177" lon="13.485148702955936"><ele>147.0</ele><time>2026-03-28T14:11:52Z</time></trkpt><trkpt lat="46.113001986905005" lon="13.484995708723657"><ele>147.0</ele><time>2026-03-28T14:11:53Z</time></trkpt><trkpt lat="46.11283542620574" lon="13.4848260074387"><ele>147.0</ele><time>2026-03-28T14:11:54Z</time></trkpt><trkpt lat="46.11265737368471" lon="13.484665538553006"><ele>147.0</ele><time>2026-03-28T14:11:55Z</time></trkpt><trkpt lat="46.112478102303044" lon="13.484534446578614"><ele>146.0</ele><time>2026-03-28T14:11:56Z</time></trkpt><trkpt lat="46.11232463858282" lon="13.484396596081671"><ele>145.0</ele><time>2026-03-28T14:11:57Z</time></trkpt><trkpt lat="46.112177488306834" lon="13.484250040788202"><ele>144.0</ele><time>2026-03-28T14:11:58Z</time></trkpt><trkpt lat="46.11205563857604" lon="13.484069847747385"><ele>144.0</ele><time>2026-03-28T14:11:59Z</time></trkpt><trkpt lat="46.11195924256045" lon="13.483824407124892"><ele>144.0</ele><time>2026-03-28T14:12:00Z</time></trkpt><trkpt lat="46.11187149967827" lon="13.483536349842185"><ele>144.0</ele><time>2026-03-28T14:12:01Z</time></trkpt><trkpt lat="46.111772518549245" lon="13.483236845752923"><ele>144.66666666666666</ele><time>2026-03-28T14:12:02Z</time></trkpt><trkpt lat="46.11168025826448" lon="13.482967626628964"><ele>145.33333333333331</ele><time>2026-03-28T14:12:03Z</time></trkpt><trkpt lat="46.111605440330024" lon="13.482691828071237"><ele>146.0</ele><time>2026-03-28T14:12:04Z</time></trkpt><trkpt lat="46.11156827439014" lon="13.482396699410057"><ele>142.33333333333331</ele><time>2026-03-28T14:12:05Z</time></trkpt><trkpt lat="46.11155736126438" lon="13.482088196818838"><ele>138.66666666666666</ele><time>2026-03-28T14:12:06Z</time></trkpt><trkpt lat="46.11155380793812" lon="13.48176573252948"><ele>135.0</ele><time>2026-03-28T14:12:07Z</time></trkpt><trkpt lat="46.111539617328724" lon="13.48146092041439"><ele>135.66666666666666</ele><time>2026-03-28T14:12:08Z</time></trkpt><trkpt lat="46.11152527792211" lon="13.481174205326871"><ele>136.33333333333331</ele><time>2026-03-28T14:12:09Z</time></trkpt><trkpt lat="46.111518961580735" lon="13.480894683535297"><ele>137.0</ele><time>2026-03-28T14:12:10Z</time></trkpt><trkpt lat="46.111513316538115" lon="13.480622435704072"><ele>137.66666666666666</ele><time>2026-03-28T14:12:11Z</time></trkpt><trkpt lat="46.111505836794" lon="13.480357921986844"><ele>138.33333333333334</ele><time>2026-03-28T14:12:12Z</time></trkpt><trkpt lat="46.11149576432128" lon="13.480101423506465"><ele>139.0</ele><time>2026-03-28T14:12:13Z</time></trkpt><trkpt lat="46.111488021397065" lon="13.479854772288657"><ele>139.0</ele><time>2026-03-28T14:12:14Z</time></trkpt><trkpt lat="46.11148251305001" lon="13.479616840589802"><ele>139.0</ele><time>2026-03-28T14:12:15Z</time></trkpt><trkpt lat="46.11148203857617" lon="13.479389936940462"><ele>139.0</ele><time>2026-03-28T14:12:16Z</time></trkpt><trkpt lat="46.111495403838475" lon="13.479163937232082"><ele>138.5</ele><time>2026-03-28T14:12:17Z</time></trkpt><trkpt lat="46.11153351714576" lon="13.47895275981318"><ele>138.0</ele><time>2026-03-28T14:12:18Z</time></trkpt><trkpt lat="46.11157198721998" lon="13.478763397468487"><ele>137.5</ele><time>2026-03-28T14:12:19Z</time></trkpt><trkpt lat="46.11160515639368" lon="13.478586823070605"><ele>137.0</ele><time>2026-03-28T14:12:20Z</time></trkpt><trkpt lat="46.111636671785654" lon="13.478426651212994"><ele>138.5</ele><time>2026-03-28T14:12:21Z</time></trkpt><trkpt lat="46.11166531815235" lon="13.478288160817637"><ele>140.0</ele><time>2026-03-28T14:12:22Z</time></trkpt><trkpt lat="46.11168877665046" lon="13.478160185892381"><ele>141.5</ele><time>2026-03-28T14:12:23Z</time></trkpt><trkpt lat="46.111710448288534" lon="13.478043633024786"><ele>143.0</ele><time>2026-03-28T14:12:24Z</time></trkpt><trkpt lat="46.11173348187144" lon="13.477934474074122"><ele>144.5</ele><time>2026-03-28T14:12:25Z</time></trkpt><trkpt lat="46.11175444762909" lon="13.477815072968895"><ele>146.0</ele><time>2026-03-28T14:12:26Z</time></trkpt><trkpt lat="46.11177703152005" lon="13.477702033449575"><ele>146.4</ele><time>2026-03-28T14:12:27Z</time></trkpt><trkpt lat="46.11179625971682" lon="13.477604323470764"><ele>146.8</ele><time>2026-03-28T14:12:28Z</time></trkpt><trkpt lat="46.111827126698714" lon="13.477522123626988"><ele>147.20000000000002</ele><time>2026-03-28T14:12:29Z</time></trkpt><trkpt lat="46.11183824202096" lon="13.477410612365487"><ele>147.6</ele><time>2026-03-28T14:12:31Z</time></trkpt><trkpt lat="46.1116412717388" lon="13.47732407872698"><ele>148.0</ele><time>2026-03-28T14:12:32Z</time></trkpt><trkpt lat="46.111525237967804" lon="13.477247901945047"><ele>146.33333333333334</ele><time>2026-03-28T14:12:33Z</time></trkpt><trkpt lat="46.11137468645081" lon="13.477181789912269"><ele>144.66666666666666</ele><time>2026-03-28T14:12:34Z</time></trkpt><trkpt lat="46.111199483038604" lon="13.477109787503228"><ele>143.0</ele><time>2026-03-28T14:12:35Z</time></trkpt><trkpt lat="46.11103661852322" lon="13.476963809382498"><ele>143.0</ele><time>2026-03-28T14:12:35.999Z</time></trkpt><trkpt lat="46.11087473424342" lon="13.476825599261037"><ele>143.0</ele><time>2026-03-28T14:12:36.999Z</time></trkpt><trkpt lat="46.11074528969438" lon="13.476715040865532"><ele>143.0</ele><time>2026-03-28T14:12:37.999Z</time></trkpt><trkpt lat="46.11063855689666" lon="13.476623880539929"><ele>141.5</ele><time>2026-03-28T14:12:38.999Z</time></trkpt><trkpt lat="46.11054491633039" lon="13.476538795814934"><ele>140.0</ele><time>2026-03-28T14:12:39.999Z</time></trkpt><trkpt lat="46.11050431309764" lon="13.476354326804637"><ele>138.5</ele><time>2026-03-28T14:12:40.999Z</time></trkpt><trkpt lat="46.110441111838405" lon="13.476153995833686"><ele>137.0</ele><time>2026-03-28T14:12:41.999Z</time></trkpt><trkpt lat="46.11039740011739" lon="13.475964590459096"><ele>137.0</ele><time>2026-03-28T14:12:42.999Z</time></trkpt><trkpt lat="46.1103268887623" lon="13.475783913904744"><ele>137.0</ele><time>2026-03-28T14:12:43.999Z</time></trkpt><trkpt lat="46.11018405429729" lon="13.475652090400166"><ele>137.0</ele><time>2026-03-28T14:12:44.999Z</time></trkpt><trkpt lat="46.11002214870747" lon="13.47547431593774"><ele>134.0</ele><time>2026-03-28T14:12:45.999Z</time></trkpt><trkpt lat="46.10983011825149" lon="13.475284234792195"><ele>131.0</ele><time>2026-03-28T14:12:46.999Z</time></trkpt><trkpt lat="46.109623225837" lon="13.475079828490559"><ele>131.0</ele><time>2026-03-28T14:12:47.999Z</time></trkpt><trkpt lat="46.109423368166674" lon="13.474881924885008"><ele>131.0</ele><time>2026-03-28T14:12:48.999Z</time></trkpt><trkpt lat="46.10924932364063" lon="13.474709882304435"><ele>131.33333333333331</ele><time>2026-03-28T14:12:49.999Z</time></trkpt><trkpt lat="46.10908647314375" lon="13.474559181925402"><ele>131.66666666666666</ele><time>2026-03-28T14:12:50.999Z</time></trkpt><trkpt lat="46.108889727777616" lon="13.474450768171733"><ele>132.0</ele><time>2026-03-28T14:12:51.999Z</time></trkpt><trkpt lat="46.10867898513239" lon="13.47441917928255"><ele>132.0</ele><time>2026-03-28T14:12:52.999Z</time></trkpt><trkpt lat="46.10845412808262" lon="13.474388477335308"><ele>132.0</ele><time>2026-03-28T14:12:53.999Z</time></trkpt><trkpt lat="46.10819522107232" lon="13.474361993787792"><ele>132.5</ele><time>2026-03-28T14:12:54.999Z</time></trkpt><trkpt lat="46.10791283374809" lon="13.474319824212854"><ele>133.0</ele><time>2026-03-28T14:12:55.999Z</time></trkpt><trkpt lat="46.10759981207873" lon="13.474280720405899"><ele>135.5</ele><time>2026-03-28T14:12:56.999Z</time></trkpt><trkpt lat="46.107288163355506" lon="13.47424059263196"><ele>138.0</ele><time>2026-03-28T14:12:57.999Z</time></trkpt><trkpt lat="46.10701687676716" lon="13.474201625906023"><ele>138.0</ele><time>2026-03-28T14:12:58.999Z</time></trkpt><trkpt lat="46.106783168903476" lon="13.474164992481734"><ele>138.0</ele><time>2026-03-28T14:12:59.999Z</time></trkpt><trkpt lat="46.106570339171874" lon="13.474116077382183"><ele>138.66666666666666</ele><time>2026-03-28T14:13:00.999Z</time></trkpt><trkpt lat="46.10638514339632" lon="13.474041598398916"><ele>139.33333333333331</ele><time>2026-03-28T14:13:01.999Z</time></trkpt><trkpt lat="46.10621878537213" lon="13.473926432387152"><ele>140.0</ele><time>2026-03-28T14:13:02.999Z</time></trkpt><trkpt lat="46.10605993774728" lon="13.473764251818316"><ele>140.0</ele><time>2026-03-28T14:13:03.999Z</time></trkpt><trkpt lat="46.10592107101223" lon="13.473577385189481"><ele>140.0</ele><time>2026-03-28T14:13:04.999Z</time></trkpt><trkpt lat="46.1058104390443" lon="13.473366301743148"><ele>140.0</ele><time>2026-03-28T14:13:05.999Z</time></trkpt><trkpt lat="46.1057188295614" lon="13.473164862835544"><ele>142.0</ele><time>2026-03-28T14:13:06.999Z</time></trkpt><trkpt lat="46.10562385957659" lon="13.472965313965283"><ele>144.0</ele><time>2026-03-28T14:13:07.999Z</time></trkpt><trkpt lat="46.10552143762598" lon="13.472769300970507"><ele>146.0</ele><time>2026-03-28T14:13:09Z</time></trkpt><trkpt lat="46.10542351680229" lon="13.47256950681606"><ele>146.0</ele><time>2026-03-28T14:13:10Z</time></trkpt><trkpt lat="46.10532768793892" lon="13.472377517788376"><ele>146.0</ele><time>2026-03-28T14:13:11Z</time></trkpt><trkpt lat="46.10523070945842" lon="13.472186440263243"><ele>146.0</ele><time>2026-03-28T14:13:12Z</time></trkpt><trkpt lat="46.10513917201123" lon="13.471996976386997"><ele>146.33333333333331</ele><time>2026-03-28T14:13:13Z</time></trkpt><trkpt lat="46.105047898120965" lon="13.47181808503335"><ele>146.66666666666666</ele><time>2026-03-28T14:13:14Z</time></trkpt><trkpt lat="46.10494118320407" lon="13.471662510762899"><ele>147.0</ele><time>2026-03-28T14:13:15Z</time></trkpt><trkpt lat="46.104803967783575" lon="13.471534212773854"><ele>147.0</ele><time>2026-03-28T14:13:16Z</time></trkpt><trkpt lat="46.10465808943452" lon="13.471418743944351"><ele>147.0</ele><time>2026-03-28T14:13:17Z</time></trkpt><trkpt lat="46.10451897468479" lon="13.47131548726355"><ele>147.0</ele><time>2026-03-28T14:13:18Z</time></trkpt><trkpt lat="46.10439124259799" lon="13.471223786314429"><ele>147.0</ele><time>2026-03-28T14:13:19Z</time></trkpt><trkpt lat="46.104263915345626" lon="13.471129541937517"><ele>147.0</ele><time>2026-03-28T14:13:20Z</time></trkpt><trkpt lat="46.10413704002669" lon="13.471038511750614"><ele>147.0</ele><time>2026-03-28T14:13:21Z</time></trkpt><trkpt lat="46.10401926655326" lon="13.470954721669417"><ele>147.0</ele><time>2026-03-28T14:13:22Z</time></trkpt><trkpt lat="46.10391519783049" lon="13.470882506860008"><ele>147.0</ele><time>2026-03-28T14:13:23Z</time></trkpt><trkpt lat="46.103815864726116" lon="13.470814587749148"><ele>147.0</ele><time>2026-03-28T14:13:24Z</time></trkpt><trkpt lat="46.10369174754203" lon="13.470728481901313"><ele>147.0</ele><time>2026-03-28T14:13:25Z</time></trkpt><trkpt lat="46.103550045813236" lon="13.470607185402654"><ele>147.0</ele><time>2026-03-28T14:13:26Z</time></trkpt><trkpt lat="46.10339417418125" lon="13.470443553830737"><ele>146.5</ele><time>2026-03-28T14:13:27Z</time></trkpt><trkpt lat="46.10322386655747" lon="13.470246058536095"><ele>146.0</ele><time>2026-03-28T14:13:28Z</time></trkpt><trkpt lat="46.10304411732241" lon="13.470033967162067"><ele>146.0</ele><time>2026-03-28T14:13:29Z</time></trkpt><trkpt lat="46.10286975900887" lon="13.469818222795686"><ele>146.0</ele><time>2026-03-28T14:13:30Z</time></trkpt><trkpt lat="46.102715623437504" lon="13.46957829176445"><ele>146.0</ele><time>2026-03-28T14:13:31Z</time></trkpt><trkpt lat="46.102573034853364" lon="13.469294183541345"><ele>146.0</ele><time>2026-03-28T14:13:32Z</time></trkpt><trkpt lat="46.10242951085852" lon="13.468968176789282"><ele>146.0</ele><time>2026-03-28T14:13:33Z</time></trkpt><trkpt lat="46.1022881762007" lon="13.468643987956918"><ele>146.0</ele><time>2026-03-28T14:13:34Z</time></trkpt><trkpt lat="46.102144820824364" lon="13.46832636688592"><ele>146.0</ele><time>2026-03-28T14:13:35Z</time></trkpt><trkpt lat="46.10202955941228" lon="13.468014805201117"><ele>146.0</ele><time>2026-03-28T14:13:36Z</time></trkpt><trkpt lat="46.101908057725765" lon="13.467733234757418"><ele>146.0</ele><time>2026-03-28T14:13:37Z</time></trkpt><trkpt lat="46.10177687604808" lon="13.467475588596766"><ele>146.0</ele><time>2026-03-28T14:13:38Z</time></trkpt><trkpt lat="46.10167963136206" lon="13.467206657427164"><ele>146.0</ele><time>2026-03-28T14:13:39Z</time></trkpt><trkpt lat="46.10157064285254" lon="13.466953106925505"><ele>145.33333333333331</ele><time>2026-03-28T14:13:40Z</time></trkpt><trkpt lat="46.101458998576604" lon="13.466693374897602"><ele>144.66666666666666</ele><time>2026-03-28T14:13:41Z</time></trkpt><trkpt lat="46.10133338716815" lon="13.466448141359722"><ele>144.0</ele><time>2026-03-28T14:13:42Z</time></trkpt><trkpt lat="46.10123249630788" lon="13.466180803479716"><ele>144.0</ele><time>2026-03-28T14:13:43Z</time></trkpt><trkpt lat="46.10110008272705" lon="13.465945851912386"><ele>144.0</ele><time>2026-03-28T14:13:44Z</time></trkpt><trkpt lat="46.10097561441214" lon="13.465711613127006"><ele>144.0</ele><time>2026-03-28T14:13:45Z</time></trkpt><trkpt lat="46.10085412412648" lon="13.465478423723559"><ele>144.0</ele><time>2026-03-28T14:13:46Z</time></trkpt><trkpt lat="46.10073504637429" lon="13.465250292815563"><ele>144.0</ele><time>2026-03-28T14:13:47Z</time></trkpt><trkpt lat="46.100612037984384" lon="13.465028697321369"><ele>144.0</ele><time>2026-03-28T14:13:48Z</time></trkpt><trkpt lat="46.10049163875715" lon="13.46480859896978"><ele>144.66666666666666</ele><time>2026-03-28T14:13:49Z</time></trkpt><trkpt lat="46.10037608719219" lon="13.464587995678915"><ele>145.33333333333331</ele><time>2026-03-28T14:13:50Z</time></trkpt><trkpt lat="46.100261708174806" lon="13.46437397641472"><ele>146.0</ele><time>2026-03-28T14:13:51Z</time></trkpt><trkpt lat="46.10014957019394" lon="13.464167373645457"><ele>146.0</ele><time>2026-03-28T14:13:52Z</time></trkpt><trkpt lat="46.10004010142324" lon="13.463963924968187"><ele>146.0</ele><time>2026-03-28T14:13:53Z</time></trkpt><trkpt lat="46.099932945940516" lon="13.463763073998921"><ele>146.0</ele><time>2026-03-28T14:13:54Z</time></trkpt><trkpt lat="46.09982849041019" lon="13.463564471442877"><ele>146.33333333333331</ele><time>2026-03-28T14:13:55Z</time></trkpt><trkpt lat="46.09973344069591" lon="13.463379624688498"><ele>146.66666666666666</ele><time>2026-03-28T14:13:56Z</time></trkpt><trkpt lat="46.099639624956886" lon="13.46319480777687"><ele>147.0</ele><time>2026-03-28T14:13:57Z</time></trkpt><trkpt lat="46.09955096520486" lon="13.463003900673668"><ele>146.66666666666666</ele><time>2026-03-28T14:13:58Z</time></trkpt><trkpt lat="46.09946997805932" lon="13.46280788717544"><ele>146.33333333333331</ele><time>2026-03-28T14:13:59Z</time></trkpt><trkpt lat="46.099388741348726" lon="13.462612755274753"><ele>146.0</ele><time>2026-03-28T14:14:00Z</time></trkpt><trkpt lat="46.099309223796354" lon="13.462414715799317"><ele>146.0</ele><time>2026-03-28T14:14:01Z</time></trkpt><trkpt lat="46.099234576567774" lon="13.462212209070318"><ele>146.0</ele><time>2026-03-28T14:14:02Z</time></trkpt><trkpt lat="46.0991631043757" lon="13.462007214456683"><ele>146.0</ele><time>2026-03-28T14:14:03Z</time></trkpt><trkpt lat="46.099099075871365" lon="13.46180698902331"><ele>145.75</ele><time>2026-03-28T14:14:04Z</time></trkpt><trkpt lat="46.09904365969613" lon="13.461617786175907"><ele>145.5</ele><time>2026-03-28T14:14:05Z</time></trkpt><trkpt lat="46.09898846896114" lon="13.461435589697185"><ele>145.25</ele><time>2026-03-28T14:14:06Z</time></trkpt><trkpt lat="46.09894505135303" lon="13.46123249030507"><ele>145.0</ele><time>2026-03-28T14:14:07Z</time></trkpt><trkpt lat="46.09886793371843" lon="13.46103481426101"><ele>144.66666666666669</ele><time>2026-03-28T14:14:08Z</time></trkpt><trkpt lat="46.09880444815623" lon="13.460819124029355"><ele>144.33333333333334</ele><time>2026-03-28T14:14:09Z</time></trkpt><trkpt lat="46.09874177873551" lon="13.460601529040174"><ele>144.0</ele><time>2026-03-28T14:14:10Z</time></trkpt><trkpt lat="46.09868155868573" lon="13.460383724878964"><ele>143.66666666666666</ele><time>2026-03-28T14:14:11Z</time></trkpt><trkpt lat="46.098622806428416" lon="13.460168128225996"><ele>143.33333333333331</ele><time>2026-03-28T14:14:12Z</time></trkpt><trkpt lat="46.098565921067255" lon="13.459953476290861"><ele>143.0</ele><time>2026-03-28T14:14:13Z</time></trkpt><trkpt lat="46.09851402557141" lon="13.459737893757058"><ele>142.66666666666666</ele><time>2026-03-28T14:14:14Z</time></trkpt><trkpt lat="46.09846439649239" lon="13.45952478543284"><ele>142.33333333333334</ele><time>2026-03-28T14:14:15Z</time></trkpt><trkpt lat="46.09841427218033" lon="13.459313412117272"><ele>142.0</ele><time>2026-03-28T14:14:16Z</time></trkpt><trkpt lat="46.098363180215614" lon="13.45910486763072"><ele>142.0</ele><time>2026-03-28T14:14:17Z</time></trkpt><trkpt lat="46.098313392262924" lon="13.458895209519103"><ele>142.0</ele><time>2026-03-28T14:14:18Z</time></trkpt><trkpt lat="46.09826379960304" lon="13.4586876298409"><ele>142.0</ele><time>2026-03-28T14:14:19Z</time></trkpt><trkpt lat="46.09821296937396" lon="13.458482582829452"><ele>141.33333333333334</ele><time>2026-03-28T14:14:20Z</time></trkpt><trkpt lat="46.098166916165695" lon="13.458267103955777"><ele>140.66666666666666</ele><time>2026-03-28T14:14:21Z</time></trkpt><trkpt lat="46.09811750307728" lon="13.458052550526435"><ele>140.0</ele><time>2026-03-28T14:14:22Z</time></trkpt><trkpt lat="46.09806658841781" lon="13.457850517740368"><ele>140.0</ele><time>2026-03-28T14:14:23Z</time></trkpt><trkpt lat="46.098021307915616" lon="13.457668022166104"><ele>140.0</ele><time>2026-03-28T14:14:24Z</time></trkpt><trkpt lat="46.097978091889296" lon="13.457496699961219"><ele>140.0</ele><time>2026-03-28T14:14:25Z</time></trkpt><trkpt lat="46.09795236911406" lon="13.45732547130602"><ele>140.0</ele><time>2026-03-28T14:14:26Z</time></trkpt><trkpt lat="46.09791097131398" lon="13.457148904523708"><ele>140.33333333333331</ele><time>2026-03-28T14:14:27Z</time></trkpt><trkpt lat="46.097867514204516" lon="13.456976495667632"><ele>140.66666666666666</ele><time>2026-03-28T14:14:28Z</time></trkpt><trkpt lat="46.09779192054835" lon="13.456704586824689"><ele>141.0</ele><time>2026-03-28T14:14:29Z</time></trkpt><trkpt lat="46.097675598728934" lon="13.456382161489561"><ele>141.0</ele><time>2026-03-28T14:14:30Z</time></trkpt><trkpt lat="46.09753599660702" lon="13.456016636266934"><ele>141.0</ele><time>2026-03-28T14:14:31Z</time></trkpt><trkpt lat="46.09738549283548" lon="13.455613855951844"><ele>141.5</ele><time>2026-03-28T14:14:32Z</time></trkpt><trkpt lat="46.09724851872878" lon="13.4552434620826"><ele>142.0</ele><time>2026-03-28T14:14:33Z</time></trkpt><trkpt lat="46.0971124900428" lon="13.454887836903419"><ele>141.0</ele><time>2026-03-28T14:14:34Z</time></trkpt><trkpt lat="46.09695472427545" lon="13.454581254286454"><ele>140.0</ele><time>2026-03-28T14:14:35Z</time></trkpt><trkpt lat="46.096815103729774" lon="13.454282877725047"><ele>140.0</ele><time>2026-03-28T14:14:36Z</time></trkpt><trkpt lat="46.0966811394881" lon="13.45401749913024"><ele>140.0</ele><time>2026-03-28T14:14:36.999Z</time></trkpt><trkpt lat="46.09655586031937" lon="13.453767506353898"><ele>140.0</ele><time>2026-03-28T14:14:37.999Z</time></trkpt><trkpt lat="46.096440814949766" lon="13.453529561529347"><ele>140.0</ele><time>2026-03-28T14:14:38.999Z</time></trkpt><trkpt lat="46.09633114072699" lon="13.453306013311538"><ele>140.0</ele><time>2026-03-28T14:14:39.999Z</time></trkpt><trkpt lat="46.09623865954415" lon="13.453090388720113"><ele>140.0</ele><time>2026-03-28T14:14:40.999Z</time></trkpt><trkpt lat="46.09611127425084" lon="13.452929925250578"><ele>140.33333333333331</ele><time>2026-03-28T14:14:41.999Z</time></trkpt><trkpt lat="46.0960038794038" lon="13.452771756301287"><ele>140.66666666666666</ele><time>2026-03-28T14:14:42.999Z</time></trkpt><trkpt lat="46.09590684690356" lon="13.452603190693189"><ele>141.0</ele><time>2026-03-28T14:14:43.999Z</time></trkpt><trkpt lat="46.095792610752866" lon="13.452441508577214"><ele>140.33333333333334</ele><time>2026-03-28T14:14:44.999Z</time></trkpt><trkpt lat="46.09567050953951" lon="13.452288005263478"><ele>139.66666666666669</ele><time>2026-03-28T14:14:45.999Z</time></trkpt><trkpt lat="46.09557787715872" lon="13.452087558407127"><ele>139.0</ele><time>2026-03-28T14:14:46.999Z</time></trkpt><trkpt lat="46.09548395739699" lon="13.451890630376996"><ele>139.0</ele><time>2026-03-28T14:14:47.999Z</time></trkpt><trkpt lat="46.09537993887424" lon="13.451704052131694"><ele>139.0</ele><time>2026-03-28T14:14:48.999Z</time></trkpt><trkpt lat="46.09527070381853" lon="13.451531008630457"><ele>139.0</ele><time>2026-03-28T14:14:49.999Z</time></trkpt><trkpt lat="46.09515781045232" lon="13.451367733735715"><ele>139.0</ele><time>2026-03-28T14:14:50.999Z</time></trkpt><trkpt lat="46.095038562889584" lon="13.451216986739235"><ele>139.0</ele><time>2026-03-28T14:14:51.999Z</time></trkpt><trkpt lat="46.09491816597524" lon="13.45106927594878"><ele>139.0</ele><time>2026-03-28T14:14:52.999Z</time></trkpt><trkpt lat="46.09480013177474" lon="13.450920298838248"><ele>138.33333333333334</ele><time>2026-03-28T14:14:53.999Z</time></trkpt><trkpt lat="46.094679945226375" lon="13.450774553198915"><ele>137.66666666666666</ele><time>2026-03-28T14:14:54.999Z</time></trkpt><trkpt lat="46.09455880591229" lon="13.450631181249673"><ele>137.0</ele><time>2026-03-28T14:14:55.999Z</time></trkpt><trkpt lat="46.09444150729993" lon="13.450486202114083"><ele>137.33333333333331</ele><time>2026-03-28T14:14:56.999Z</time></trkpt><trkpt lat="46.09432589003899" lon="13.4503443950702"><ele>137.66666666666666</ele><time>2026-03-28T14:14:57.999Z</time></trkpt><trkpt lat="46.094207433158886" lon="13.45020736922762"><ele>138.0</ele><time>2026-03-28T14:14:58.999Z</time></trkpt><trkpt lat="46.09409927939986" lon="13.450047112494067"><ele>137.0</ele><time>2026-03-28T14:14:59.999Z</time></trkpt><trkpt lat="46.0939810862595" lon="13.44990396749294"><ele>136.0</ele><time>2026-03-28T14:15:00.999Z</time></trkpt><trkpt lat="46.093853242723924" lon="13.449776150149823"><ele>135.0</ele><time>2026-03-28T14:15:01.999Z</time></trkpt><trkpt lat="46.09373969531717" lon="13.449622311434808"><ele>133.66666666666666</ele><time>2026-03-28T14:15:02.999Z</time></trkpt><trkpt lat="46.09362847975997" lon="13.449456595861452"><ele>132.33333333333331</ele><time>2026-03-28T14:15:03.999Z</time></trkpt><trkpt lat="46.09352387658062" lon="13.449276177964236"><ele>131.0</ele><time>2026-03-28T14:15:04.999Z</time></trkpt><trkpt lat="46.09343041142655" lon="13.449076156294105"><ele>131.0</ele><time>2026-03-28T14:15:05.999Z</time></trkpt><trkpt lat="46.093337815572205" lon="13.448866838547843"><ele>131.0</ele><time>2026-03-28T14:15:06.999Z</time></trkpt><trkpt lat="46.0932365495966" lon="13.448651930447047"><ele>131.0</ele><time>2026-03-28T14:15:07.999Z</time></trkpt><trkpt lat="46.093132223760705" lon="13.448431363097539"><ele>134.0</ele><time>2026-03-28T14:15:08.999Z</time></trkpt><trkpt lat="46.093029752302606" lon="13.448215173653784"><ele>137.0</ele><time>2026-03-28T14:15:09.999Z</time></trkpt><trkpt lat="46.09292636640636" lon="13.448008704995729"><ele>140.0</ele><time>2026-03-28T14:15:10.999Z</time></trkpt><trkpt lat="46.09282271509909" lon="13.447812995171086"><ele>140.0</ele><time>2026-03-28T14:15:11.999Z</time></trkpt><trkpt lat="46.09272551718481" lon="13.447630455851256"><ele>140.0</ele><time>2026-03-28T14:15:12.999Z</time></trkpt><trkpt lat="46.092634629468996" lon="13.447458244144377"><ele>140.0</ele><time>2026-03-28T14:15:13.999Z</time></trkpt><trkpt lat="46.09254756353754" lon="13.447291577495475"><ele>140.0</ele><time>2026-03-28T14:15:15Z</time></trkpt><trkpt lat="46.09246385629784" lon="13.447132300306011"><ele>140.0</ele><time>2026-03-28T14:15:16Z</time></trkpt><trkpt lat="46.09238565062758" lon="13.446988978261498"><ele>140.0</ele><time>2026-03-28T14:15:17Z</time></trkpt><trkpt lat="46.09231775125372" lon="13.44685448218588"><ele>140.0</ele><time>2026-03-28T14:15:18Z</time></trkpt><trkpt lat="46.09221147524086" lon="13.446786385478536"><ele>140.33333333333331</ele><time>2026-03-28T14:15:19Z</time></trkpt><trkpt lat="46.092111724826246" lon="13.446728943810923"><ele>140.66666666666666</ele><time>2026-03-28T14:15:20Z</time></trkpt><trkpt lat="46.09201831766057" lon="13.446666142325112"><ele>141.0</ele><time>2026-03-28T14:15:21Z</time></trkpt><trkpt lat="46.09195010611638" lon="13.446581812440112"><ele>141.33333333333334</ele><time>2026-03-28T14:15:22Z</time></trkpt><trkpt lat="46.09190421332521" lon="13.446517348661803"><ele>141.66666666666669</ele><time>2026-03-28T14:15:23Z</time></trkpt><trkpt lat="46.09186074316022" lon="13.446429562634359"><ele>142.0</ele><time>2026-03-28T14:15:25Z</time></trkpt><trkpt lat="46.091807334992396" lon="13.446307848733504"><ele>141.83333333333334</ele><time>2026-03-28T14:15:34Z</time></trkpt><trkpt lat="46.09179361998415" lon="13.446217733890768"><ele>141.66666666666669</ele><time>2026-03-28T14:15:35Z</time></trkpt><trkpt lat="46.09176792515414" lon="13.446119360285266"><ele>141.5</ele><time>2026-03-28T14:15:36Z</time></trkpt><trkpt lat="46.09173832419574" lon="13.446006705427136"><ele>141.33333333333334</ele><time>2026-03-28T14:15:37Z</time></trkpt><trkpt lat="46.09171115779181" lon="13.445896216783044"><ele>141.16666666666666</ele><time>2026-03-28T14:15:38Z</time></trkpt><trkpt lat="46.09168781269845" lon="13.445779859823315"><ele>141.0</ele><time>2026-03-28T14:15:39Z</time></trkpt><trkpt lat="46.091670092242" lon="13.44565147974481"><ele>141.0</ele><time>2026-03-28T14:15:40Z</time></trkpt><trkpt lat="46.091652868717645" lon="13.445512343939276"><ele>141.0</ele><time>2026-03-28T14:15:41Z</time></trkpt><trkpt lat="46.09163669924905" lon="13.445376052714417"><ele>141.0</ele><time>2026-03-28T14:15:42Z</time></trkpt><trkpt lat="46.09162129649939" lon="13.44524622466207"><ele>141.0</ele><time>2026-03-28T14:15:43Z</time></trkpt><trkpt lat="46.091605634192746" lon="13.445114208341137"><ele>141.0</ele><time>2026-03-28T14:15:44Z</time></trkpt><trkpt lat="46.09158951411162" lon="13.444978333511822"><ele>140.8</ele><time>2026-03-28T14:15:45Z</time></trkpt><trkpt lat="46.09155903686928" lon="13.44484431561625"><ele>140.6</ele><time>2026-03-28T14:15:46Z</time></trkpt><trkpt lat="46.0915392390719" lon="13.444705629704586"><ele>140.4</ele><time>2026-03-28T14:15:47Z</time></trkpt><trkpt lat="46.091517622843135" lon="13.44456738920152"><ele>140.2</ele><time>2026-03-28T14:15:48Z</time></trkpt><trkpt lat="46.091492502286414" lon="13.444427727346413"><ele>140.0</ele><time>2026-03-28T14:15:49Z</time></trkpt><trkpt lat="46.09147704584906" lon="13.444274886661628"><ele>139.75</ele><time>2026-03-28T14:15:50Z</time></trkpt><trkpt lat="46.09143959368443" lon="13.444120640173427"><ele>139.5</ele><time>2026-03-28T14:15:51Z</time></trkpt><trkpt lat="46.09139979802775" lon="13.443959106424353"><ele>139.25</ele><time>2026-03-28T14:15:52Z</time></trkpt><trkpt lat="46.09135095363677" lon="13.443799079627235"><ele>139.0</ele><time>2026-03-28T14:15:53Z</time></trkpt><trkpt lat="46.091303584086425" lon="13.443639082636206"><ele>139.0</ele><time>2026-03-28T14:15:54Z</time></trkpt><trkpt lat="46.09125449576013" lon="13.443477525982095"><ele>139.0</ele><time>2026-03-28T14:15:55Z</time></trkpt><trkpt lat="46.091202277267506" lon="13.443313182930188"><ele>139.0</ele><time>2026-03-28T14:15:56Z</time></trkpt><trkpt lat="46.09114809927863" lon="13.443144321109868"><ele>139.0</ele><time>2026-03-28T14:15:57Z</time></trkpt><trkpt lat="46.091093814274274" lon="13.442967940107057"><ele>138.75</ele><time>2026-03-28T14:15:58Z</time></trkpt><trkpt lat="46.091037486454795" lon="13.4427837157174"><ele>138.5</ele><time>2026-03-28T14:15:59Z</time></trkpt><trkpt lat="46.090971346043375" lon="13.442602493946142"><ele>138.25</ele><time>2026-03-28T14:16:00Z</time></trkpt><trkpt lat="46.090924453707096" lon="13.44241047121405"><ele>138.0</ele><time>2026-03-28T14:16:01Z</time></trkpt><trkpt lat="46.09087824368232" lon="13.442215570469578"><ele>138.0</ele><time>2026-03-28T14:16:02Z</time></trkpt><trkpt lat="46.09083065914529" lon="13.44201784027702"><ele>138.0</ele><time>2026-03-28T14:16:03Z</time></trkpt><trkpt lat="46.090785928678926" lon="13.441813085025387"><ele>138.0</ele><time>2026-03-28T14:16:04Z</time></trkpt><trkpt lat="46.090741819081444" lon="13.441609994362153"><ele>138.0</ele><time>2026-03-28T14:16:05Z</time></trkpt><trkpt lat="46.09071333676293" lon="13.441395239088083"><ele>137.75</ele><time>2026-03-28T14:16:06Z</time></trkpt><trkpt lat="46.09067027873753" lon="13.441194261310592"><ele>137.5</ele><time>2026-03-28T14:16:07Z</time></trkpt><trkpt lat="46.090627711849024" lon="13.440996847218283"><ele>137.25</ele><time>2026-03-28T14:16:08Z</time></trkpt><trkpt lat="46.09057048754337" lon="13.440811441817196"><ele>137.0</ele><time>2026-03-28T14:16:09Z</time></trkpt><trkpt lat="46.0905305093783" lon="13.440626056045227"><ele>137.5</ele><time>2026-03-28T14:16:10Z</time></trkpt><trkpt lat="46.09050446310939" lon="13.440428763829576"><ele>138.0</ele><time>2026-03-28T14:16:11Z</time></trkpt><trkpt lat="46.09044695954256" lon="13.440251520288726"><ele>138.5</ele><time>2026-03-28T14:16:12Z</time></trkpt><trkpt lat="46.090403694916134" lon="13.440071466442202"><ele>139.0</ele><time>2026-03-28T14:16:13Z</time></trkpt><trkpt lat="46.09037292455367" lon="13.43988247234904"><ele>139.0</ele><time>2026-03-28T14:16:14Z</time></trkpt><trkpt lat="46.090324773841495" lon="13.439699301980555"><ele>139.0</ele><time>2026-03-28T14:16:15Z</time></trkpt><trkpt lat="46.09025661022424" lon="13.439515609632508"><ele>139.0</ele><time>2026-03-28T14:16:16Z</time></trkpt><trkpt lat="46.09021512934052" lon="13.439313378392598"><ele>139.0</ele><time>2026-03-28T14:16:17Z</time></trkpt><trkpt lat="46.09014709274182" lon="13.43913004961124"><ele>139.0</ele><time>2026-03-28T14:16:18Z</time></trkpt><trkpt lat="46.090089649852224" lon="13.438953134355954"><ele>139.0</ele><time>2026-03-28T14:16:19Z</time></trkpt><trkpt lat="46.090035610236335" lon="13.438775280903139"><ele>139.0</ele><time>2026-03-28T14:16:20Z</time></trkpt><trkpt lat="46.08998678075333" lon="13.438610186847672"><ele>139.0</ele><time>2026-03-28T14:16:21Z</time></trkpt><trkpt lat="46.0899346381688" lon="13.438448642961946"><ele>139.25</ele><time>2026-03-28T14:16:22Z</time></trkpt><trkpt lat="46.089887898190376" lon="13.438290478778052"><ele>139.5</ele><time>2026-03-28T14:16:23Z</time></trkpt><trkpt lat="46.08984248628101" lon="13.438143474054383"><ele>139.75</ele><time>2026-03-28T14:16:24Z</time></trkpt><trkpt lat="46.08979110479888" lon="13.43800213339877"><ele>140.0</ele><time>2026-03-28T14:16:25Z</time></trkpt><trkpt lat="46.089729354148325" lon="13.43786954855605"><ele>140.0</ele><time>2026-03-28T14:16:26Z</time></trkpt><trkpt lat="46.08967327795375" lon="13.43775709879629"><ele>140.0</ele><time>2026-03-28T14:16:27Z</time></trkpt><trkpt lat="46.08961364774862" lon="13.437645839891196"><ele>140.0</ele><time>2026-03-28T14:16:28Z</time></trkpt><trkpt lat="46.08956989596892" lon="13.437570112773257"><ele>140.0</ele><time>2026-03-28T14:16:29Z</time></trkpt><trkpt lat="46.08947493392429" lon="13.437469989162901"><ele>140.0</ele><time>2026-03-28T14:16:31Z</time></trkpt><trkpt lat="46.08943100169134" lon="13.437393465144714"><ele>140.0</ele><time>2026-03-28T14:16:32Z</time></trkpt><trkpt lat="46.08936927259321" lon="13.437310265844637"><ele>140.0</ele><time>2026-03-28T14:16:33Z</time></trkpt><trkpt lat="46.08935417739042" lon="13.437139090567305"><ele>140.0</ele><time>2026-03-28T14:16:34Z</time></trkpt><trkpt lat="46.08934774705878" lon="13.436986328769061"><ele>140.0</ele><time>2026-03-28T14:16:35Z</time></trkpt><trkpt lat="46.08934484834722" lon="13.436812844843088"><ele>140.0</ele><time>2026-03-28T14:16:36Z</time></trkpt><trkpt lat="46.08934717335502" lon="13.436653860582428"><ele>139.6</ele><time>2026-03-28T14:16:37Z</time></trkpt><trkpt lat="46.08935364473156" lon="13.436496254824544"><ele>139.2</ele><time>2026-03-28T14:16:38Z</time></trkpt><trkpt lat="46.089358434711116" lon="13.436341370954224"><ele>138.8</ele><time>2026-03-28T14:16:39Z</time></trkpt><trkpt lat="46.0893663676811" lon="13.436186497540058"><ele>138.4</ele><time>2026-03-28T14:16:40Z</time></trkpt><trkpt lat="46.0893748323684" lon="13.43603160242295"><ele>138.0</ele><time>2026-03-28T14:16:41Z</time></trkpt><trkpt lat="46.08938021464504" lon="13.435876102902524"><ele>138.0</ele><time>2026-03-28T14:16:41.999Z</time></trkpt><trkpt lat="46.089393122937125" lon="13.43572304708147"><ele>138.0</ele><time>2026-03-28T14:16:42.999Z</time></trkpt><trkpt lat="46.08940462435954" lon="13.435566784758374"><ele>138.0</ele><time>2026-03-28T14:16:43.999Z</time></trkpt><trkpt lat="46.08941253550933" lon="13.43540750324087"><ele>138.0</ele><time>2026-03-28T14:16:44.999Z</time></trkpt><trkpt lat="46.089420857973025" lon="13.43524843840368"><ele>138.0</ele><time>2026-03-28T14:16:45.999Z</time></trkpt><trkpt lat="46.089430581393465" lon="13.435097733077125"><ele>138.0</ele><time>2026-03-28T14:16:46.999Z</time></trkpt><trkpt lat="46.08943704572815" lon="13.43494954288236"><ele>138.0</ele><time>2026-03-28T14:16:47.999Z</time></trkpt><trkpt lat="46.089443005696694" lon="13.43480515783424"><ele>138.0</ele><time>2026-03-28T14:16:48.999Z</time></trkpt><trkpt lat="46.08945077972282" lon="13.434675356519293"><ele>138.0</ele><time>2026-03-28T14:16:49.999Z</time></trkpt><trkpt lat="46.08945778252377" lon="13.434560402716428"><ele>138.0</ele><time>2026-03-28T14:16:50.999Z</time></trkpt><trkpt lat="46.08946461012209" lon="13.434459184031196"><ele>138.0</ele><time>2026-03-28T14:16:51.999Z</time></trkpt><trkpt lat="46.089473076673634" lon="13.434295920091484"><ele>137.83333333333334</ele><time>2026-03-28T14:16:53.999Z</time></trkpt><trkpt lat="46.08948077528084" lon="13.43417088872924"><ele>137.66666666666666</ele><time>2026-03-28T14:16:55.999Z</time></trkpt><trkpt lat="46.089487172386434" lon="13.434059535916502"><ele>137.5</ele><time>2026-03-28T14:16:57.999Z</time></trkpt><trkpt lat="46.08949669771465" lon="13.433951815568244"><ele>137.33333333333331</ele><time>2026-03-28T14:16:59.999Z</time></trkpt><trkpt lat="46.08948927869809" lon="13.433831204685543"><ele>137.16666666666666</ele><time>2026-03-28T14:17:02.999Z</time></trkpt><trkpt lat="46.08951165899161" lon="13.433722864952449"><ele>137.0</ele><time>2026-03-28T14:17:05.999Z</time></trkpt><trkpt lat="46.08950947504051" lon="13.433554335042398"><ele>137.25</ele><time>2026-03-28T14:17:37Z</time></trkpt><trkpt lat="46.08954721625143" lon="13.43342448899168"><ele>137.5</ele><time>2026-03-28T14:17:38Z</time></trkpt><trkpt lat="46.08958512721813" lon="13.433291214515712"><ele>137.75</ele><time>2026-03-28T14:17:39Z</time></trkpt><trkpt lat="46.08942663776226" lon="13.433054625178244"><ele>138.0</ele><time>2026-03-28T14:17:40Z</time></trkpt><trkpt lat="46.089331326363364" lon="13.432852982072529"><ele>138.0</ele><time>2026-03-28T14:17:41Z</time></trkpt><trkpt lat="46.08922900520297" lon="13.43262446919905"><ele>138.0</ele><time>2026-03-28T14:17:42Z</time></trkpt><trkpt lat="46.08912336905753" lon="13.432368126870804"><ele>138.0</ele><time>2026-03-28T14:17:43Z</time></trkpt><trkpt lat="46.08901713502547" lon="13.432101159884784"><ele>137.0</ele><time>2026-03-28T14:17:44Z</time></trkpt><trkpt lat="46.08891116249559" lon="13.431837992726578"><ele>136.0</ele><time>2026-03-28T14:17:45Z</time></trkpt><trkpt lat="46.08881288838318" lon="13.431581775447405"><ele>135.0</ele><time>2026-03-28T14:17:46Z</time></trkpt><trkpt lat="46.08871617516553" lon="13.431336382730104"><ele>134.66666666666666</ele><time>2026-03-28T14:17:47Z</time></trkpt><trkpt lat="46.088618021805495" lon="13.431097780157806"><ele>134.33333333333331</ele><time>2026-03-28T14:17:48Z</time></trkpt><trkpt lat="46.088523150776716" lon="13.430862296710337"><ele>134.0</ele><time>2026-03-28T14:17:49Z</time></trkpt><trkpt lat="46.088429723712366" lon="13.430631963967938"><ele>134.0</ele><time>2026-03-28T14:17:50Z</time></trkpt><trkpt lat="46.088338842780104" lon="13.430403431403594"><ele>134.0</ele><time>2026-03-28T14:17:51Z</time></trkpt><trkpt lat="46.08825017387778" lon="13.430184352255878"><ele>134.0</ele><time>2026-03-28T14:17:52Z</time></trkpt><trkpt lat="46.088164332570194" lon="13.429969564164606"><ele>133.33333333333331</ele><time>2026-03-28T14:17:53Z</time></trkpt><trkpt lat="46.088071789291625" lon="13.429766269081666"><ele>132.66666666666666</ele><time>2026-03-28T14:17:54Z</time></trkpt><trkpt lat="46.08797771457164" lon="13.429573213790059"><ele>132.0</ele><time>2026-03-28T14:17:55Z</time></trkpt><trkpt lat="46.08787950022945" lon="13.429392537083215"><ele>132.0</ele><time>2026-03-28T14:17:56Z</time></trkpt><trkpt lat="46.087775098078566" lon="13.429222778386128"><ele>132.0</ele><time>2026-03-28T14:17:57Z</time></trkpt><trkpt lat="46.087672045049864" lon="13.429071340654932"><ele>132.0</ele><time>2026-03-28T14:17:58Z</time></trkpt><trkpt lat="46.08757468168971" lon="13.428942715384226"><ele>132.0</ele><time>2026-03-28T14:17:59Z</time></trkpt><trkpt lat="46.08748619924541" lon="13.4288416553567"><ele>132.2</ele><time>2026-03-28T14:18:00Z</time></trkpt><trkpt lat="46.08741369899612" lon="13.428765206223902"><ele>132.39999999999998</ele><time>2026-03-28T14:18:01Z</time></trkpt><trkpt lat="46.0873577536232" lon="13.428688584660852"><ele>132.60000000000002</ele><time>2026-03-28T14:18:02Z</time></trkpt><trkpt lat="46.08729302785203" lon="13.428573712995254"><ele>132.8</ele><time>2026-03-28T14:18:04Z</time></trkpt><trkpt lat="46.08723222010863" lon="13.428489088618802"><ele>133.0</ele><time>2026-03-28T14:18:06Z</time></trkpt><trkpt lat="46.08712570427388" lon="13.428396023543606"><ele>133.0</ele><time>2026-03-28T14:18:08Z</time></trkpt><trkpt lat="46.087040422553265" lon="13.428307937608256"><ele>133.0</ele><time>2026-03-28T14:18:10Z</time></trkpt><trkpt lat="46.086974228645744" lon="13.428273743151033"><ele>133.0</ele><time>2026-03-28T14:18:11Z</time></trkpt><trkpt lat="46.08689315707353" lon="13.428209817506334"><ele>133.0</ele><time>2026-03-28T14:18:12Z</time></trkpt><trkpt lat="46.08680121662758" lon="13.428123722272792"><ele>133.0</ele><time>2026-03-28T14:18:13Z</time></trkpt><trkpt lat="46.0866997585181" lon="13.428021204487537"><ele>132.33333333333334</ele><time>2026-03-28T14:18:14Z</time></trkpt><trkpt lat="46.086588191689465" lon="13.427891401951328"><ele>131.66666666666666</ele><time>2026-03-28T14:18:15Z</time></trkpt><trkpt lat="46.08645630990257" lon="13.427757844863077"><ele>131.0</ele><time>2026-03-28T14:18:16Z</time></trkpt><trkpt lat="46.086304613493425" lon="13.427632861847911"><ele>131.0</ele><time>2026-03-28T14:18:17Z</time></trkpt><trkpt lat="46.086159603645896" lon="13.427485646210563"><ele>131.0</ele><time>2026-03-28T14:18:18Z</time></trkpt><trkpt lat="46.08601000298193" lon="13.427334606712105"><ele>131.0</ele><time>2026-03-28T14:18:19Z</time></trkpt><trkpt lat="46.08586316327343" lon="13.427184679191807"><ele>130.33333333333331</ele><time>2026-03-28T14:18:20Z</time></trkpt><trkpt lat="46.08572693785927" lon="13.42701803315825"><ele>129.66666666666666</ele><time>2026-03-28T14:18:21Z</time></trkpt><trkpt lat="46.08558417326146" lon="13.426873010578046"><ele>129.0</ele><time>2026-03-28T14:18:22Z</time></trkpt><trkpt lat="46.08544293065278" lon="13.42672953399773"><ele>129.0</ele><time>2026-03-28T14:18:23Z</time></trkpt><trkpt lat="46.085303747656255" lon="13.426588149631863"><ele>129.0</ele><time>2026-03-28T14:18:24Z</time></trkpt><trkpt lat="46.08515802617817" lon="13.426464813567964"><ele>129.0</ele><time>2026-03-28T14:18:25Z</time></trkpt><trkpt lat="46.08502678406508" lon="13.42631512657196"><ele>129.66666666666666</ele><time>2026-03-28T14:18:26Z</time></trkpt><trkpt lat="46.08490070079302" lon="13.426160372741162"><ele>130.33333333333331</ele><time>2026-03-28T14:18:27Z</time></trkpt><trkpt lat="46.084784097942546" lon="13.425996641413782"><ele>131.0</ele><time>2026-03-28T14:18:28Z</time></trkpt><trkpt lat="46.08467307897287" lon="13.425825685035136"><ele>131.0</ele><time>2026-03-28T14:18:29Z</time></trkpt><trkpt lat="46.08456622330426" lon="13.425647111457499"><ele>131.0</ele><time>2026-03-28T14:18:30Z</time></trkpt><trkpt lat="46.08446560257904" lon="13.425461212657645"><ele>131.0</ele><time>2026-03-28T14:18:31Z</time></trkpt><trkpt lat="46.08437205634266" lon="13.425266603106099"><ele>131.0</ele><time>2026-03-28T14:18:32Z</time></trkpt><trkpt lat="46.084287848170064" lon="13.425064012639655"><ele>131.0</ele><time>2026-03-28T14:18:33Z</time></trkpt><trkpt lat="46.08421259314788" lon="13.424850154111216"><ele>131.0</ele><time>2026-03-28T14:18:34Z</time></trkpt><trkpt lat="46.0841400903335" lon="13.424631009451229"><ele>131.0</ele><time>2026-03-28T14:18:35Z</time></trkpt><trkpt lat="46.084062585283895" lon="13.424411671573552"><ele>131.0</ele><time>2026-03-28T14:18:36Z</time></trkpt><trkpt lat="46.08398702143062" lon="13.424207074661881"><ele>131.0</ele><time>2026-03-28T14:18:37Z</time></trkpt><trkpt lat="46.08391382124177" lon="13.42402770054427"><ele>131.0</ele><time>2026-03-28T14:18:38Z</time></trkpt><trkpt lat="46.08383065198836" lon="13.423871984249033"><ele>131.0</ele><time>2026-03-28T14:18:39Z</time></trkpt><trkpt lat="46.083728148034325" lon="13.423729310460862"><ele>131.0</ele><time>2026-03-28T14:18:40Z</time></trkpt><trkpt lat="46.08361096394562" lon="13.423618499765693"><ele>131.0</ele><time>2026-03-28T14:18:41Z</time></trkpt><trkpt lat="46.083498334804524" lon="13.423538496543626"><ele>131.0</ele><time>2026-03-28T14:18:42Z</time></trkpt><trkpt lat="46.08339293876857" lon="13.42346530515103"><ele>131.0</ele><time>2026-03-28T14:18:43Z</time></trkpt><trkpt lat="46.08329081760509" lon="13.423405869231988"><ele>131.0</ele><time>2026-03-28T14:18:44Z</time></trkpt><trkpt lat="46.083225563198944" lon="13.423196232988108"><ele>131.0</ele><time>2026-03-28T14:18:45Z</time></trkpt><trkpt lat="46.08313191489881" lon="13.423026635126716"><ele>130.33333333333331</ele><time>2026-03-28T14:18:45.999Z</time></trkpt><trkpt lat="46.0830338231645" lon="13.42284400860113"><ele>129.66666666666666</ele><time>2026-03-28T14:18:46.999Z</time></trkpt><trkpt lat="46.08291332670686" lon="13.42268238065361"><ele>129.0</ele><time>2026-03-28T14:18:47.999Z</time></trkpt><trkpt lat="46.08281696267094" lon="13.422494517113016"><ele>129.0</ele><time>2026-03-28T14:18:48.999Z</time></trkpt><trkpt lat="46.08273027422901" lon="13.422305831990334"><ele>129.0</ele><time>2026-03-28T14:18:49.999Z</time></trkpt><trkpt lat="46.08264718825804" lon="13.422121990463205"><ele>129.0</ele><time>2026-03-28T14:18:50.999Z</time></trkpt><trkpt lat="46.082585571352524" lon="13.421940410912264"><ele>129.0</ele><time>2026-03-28T14:18:51.999Z</time></trkpt><trkpt lat="46.08251267263302" lon="13.4217705642513"><ele>128.66666666666666</ele><time>2026-03-28T14:18:52.999Z</time></trkpt><trkpt lat="46.08245602817427" lon="13.421566166578513"><ele>128.33333333333331</ele><time>2026-03-28T14:18:53.999Z</time></trkpt><trkpt lat="46.082392388487094" lon="13.421338474189863"><ele>128.0</ele><time>2026-03-28T14:18:54.999Z</time></trkpt><trkpt lat="46.08230086102971" lon="13.421096574869424"><ele>127.66666666666666</ele><time>2026-03-28T14:18:55.999Z</time></trkpt><trkpt lat="46.08219091954324" lon="13.420846867904746"><ele>127.33333333333334</ele><time>2026-03-28T14:18:56.999Z</time></trkpt><trkpt lat="46.08207384055712" lon="13.420585420328935"><ele>127.0</ele><time>2026-03-28T14:18:57.999Z</time></trkpt><trkpt lat="46.08195447556355" lon="13.420311568973249"><ele>126.5</ele><time>2026-03-28T14:18:58.999Z</time></trkpt><trkpt lat="46.0818308914698" lon="13.420028038367183"><ele>126.0</ele><time>2026-03-28T14:18:59.999Z</time></trkpt><trkpt lat="46.08170988167521" lon="13.419745380324208"><ele>125.66666666666666</ele><time>2026-03-28T14:19:00.999Z</time></trkpt><trkpt lat="46.08158938878189" lon="13.419477988870128"><ele>125.33333333333333</ele><time>2026-03-28T14:19:01.999Z</time></trkpt><trkpt lat="46.08147014780037" lon="13.419228621304812"><ele>125.0</ele><time>2026-03-28T14:19:02.999Z</time></trkpt><trkpt lat="46.08134347989445" lon="13.418993111688911"><ele>124.33333333333333</ele><time>2026-03-28T14:19:03.999Z</time></trkpt><trkpt lat="46.081204235986796" lon="13.418784123041915"><ele>123.66666666666666</ele><time>2026-03-28T14:19:04.999Z</time></trkpt><trkpt lat="46.0810583030812" lon="13.418584825571394"><ele>123.0</ele><time>2026-03-28T14:19:05.999Z</time></trkpt><trkpt lat="46.080909296109816" lon="13.418401664661078"><ele>123.0</ele><time>2026-03-28T14:19:06.999Z</time></trkpt><trkpt lat="46.080758027936106" lon="13.418232450695633"><ele>123.0</ele><time>2026-03-28T14:19:07.999Z</time></trkpt><trkpt lat="46.08061014435281" lon="13.418069153371887"><ele>123.0</ele><time>2026-03-28T14:19:08.999Z</time></trkpt><trkpt lat="46.08046599957894" lon="13.417904503871764"><ele>124.0</ele><time>2026-03-28T14:19:09.999Z</time></trkpt><trkpt lat="46.080324921945866" lon="13.417740419843788"><ele>125.0</ele><time>2026-03-28T14:19:10.999Z</time></trkpt><trkpt lat="46.08019606035818" lon="13.41756434661088"><ele>126.0</ele><time>2026-03-28T14:19:11.999Z</time></trkpt><trkpt lat="46.0800567292607" lon="13.417398073994002"><ele>126.0</ele><time>2026-03-28T14:19:12.999Z</time></trkpt><trkpt lat="46.07993149534033" lon="13.417208848919369"><ele>126.0</ele><time>2026-03-28T14:19:13.999Z</time></trkpt><trkpt lat="46.07980977154766" lon="13.417010863664174"><ele>126.0</ele><time>2026-03-28T14:19:14.999Z</time></trkpt><trkpt lat="46.07969123222881" lon="13.416807928331286"><ele>126.0</ele><time>2026-03-28T14:19:15.999Z</time></trkpt><trkpt lat="46.07957939387281" lon="13.41658975206796"><ele>126.0</ele><time>2026-03-28T14:19:16.999Z</time></trkpt><trkpt lat="46.079440185662136" lon="13.416402961028906"><ele>126.0</ele><time>2026-03-28T14:19:17.999Z</time></trkpt><trkpt lat="46.07928652776571" lon="13.416241630717575"><ele>126.0</ele><time>2026-03-28T14:19:18.999Z</time></trkpt><trkpt lat="46.0791286249687" lon="13.416098364257218"><ele>126.0</ele><time>2026-03-28T14:19:19.999Z</time></trkpt><trkpt lat="46.07895474459864" lon="13.415998740669638"><ele>126.0</ele><time>2026-03-28T14:19:20.999Z</time></trkpt><trkpt lat="46.078784784741394" lon="13.41589186452708"><ele>124.66666666666666</ele><time>2026-03-28T14:19:21.999Z</time></trkpt><trkpt lat="46.07860694030143" lon="13.415794448584428"><ele>123.33333333333333</ele><time>2026-03-28T14:19:22.999Z</time></trkpt><trkpt lat="46.078429413527665" lon="13.415694154106301"><ele>122.0</ele><time>2026-03-28T14:19:23.999Z</time></trkpt><trkpt lat="46.07825251194717" lon="13.415586145013704"><ele>121.0</ele><time>2026-03-28T14:19:24.999Z</time></trkpt><trkpt lat="46.078069488866845" lon="13.415482836770796"><ele>120.0</ele><time>2026-03-28T14:19:25.999Z</time></trkpt><trkpt lat="46.07787062329427" lon="13.415398167774143"><ele>119.0</ele><time>2026-03-28T14:19:27Z</time></trkpt><trkpt lat="46.077652661866146" lon="13.415341165566494"><ele>119.5</ele><time>2026-03-28T14:19:28Z</time></trkpt><trkpt lat="46.07742181565831" lon="13.415289082586364"><ele>120.0</ele><time>2026-03-28T14:19:29Z</time></trkpt><trkpt lat="46.0771810671503" lon="13.415225864785796"><ele>120.0</ele><time>2026-03-28T14:19:30Z</time></trkpt><trkpt lat="46.07692784872286" lon="13.415159848600156"><ele>120.0</ele><time>2026-03-28T14:19:31Z</time></trkpt><trkpt lat="46.076665074031816" lon="13.415100352017742"><ele>120.33333333333334</ele><time>2026-03-28T14:19:32Z</time></trkpt><trkpt lat="46.07642820186529" lon="13.415047377962482"><ele>120.66666666666667</ele><time>2026-03-28T14:19:33Z</time></trkpt><trkpt lat="46.076222306512285" lon="13.415004668188887"><ele>121.0</ele><time>2026-03-28T14:19:34Z</time></trkpt><trkpt lat="46.0760226417664" lon="13.414959702868572"><ele>121.0</ele><time>2026-03-28T14:19:35Z</time></trkpt><trkpt lat="46.075852192769794" lon="13.414882752812922"><ele>121.0</ele><time>2026-03-28T14:19:36Z</time></trkpt><trkpt lat="46.07570859447591" lon="13.41481506361759"><ele>121.0</ele><time>2026-03-28T14:19:37Z</time></trkpt><trkpt lat="46.07557871823415" lon="13.41475070760273"><ele>121.33333333333334</ele><time>2026-03-28T14:19:38Z</time></trkpt><trkpt lat="46.07545744326471" lon="13.414692428573"><ele>121.66666666666666</ele><time>2026-03-28T14:19:39Z</time></trkpt><trkpt lat="46.075313626868436" lon="13.414624312454915"><ele>122.0</ele><time>2026-03-28T14:19:40Z</time></trkpt><trkpt lat="46.07513347307102" lon="13.414548985717124"><ele>122.66666666666666</ele><time>2026-03-28T14:19:41Z</time></trkpt><trkpt lat="46.07493204883038" lon="13.414492873847836"><ele>123.33333333333334</ele><time>2026-03-28T14:19:42Z</time></trkpt><trkpt lat="46.074724721110165" lon="13.414450221817084"><ele>124.0</ele><time>2026-03-28T14:19:43Z</time></trkpt><trkpt lat="46.07451748915426" lon="13.41441197053201"><ele>124.0</ele><time>2026-03-28T14:19:44Z</time></trkpt><trkpt lat="46.074330687840416" lon="13.4143642801663"><ele>124.0</ele><time>2026-03-28T14:19:45Z</time></trkpt><trkpt lat="46.07415418465595" lon="13.414304950250207"><ele>124.0</ele><time>2026-03-28T14:19:46Z</time></trkpt><trkpt lat="46.07399398114653" lon="13.414220043520881"><ele>124.0</ele><time>2026-03-28T14:19:47Z</time></trkpt><trkpt lat="46.07384340398373" lon="13.414113874621412"><ele>124.0</ele><time>2026-03-28T14:19:48Z</time></trkpt><trkpt lat="46.07373444602293" lon="13.413915455480366"><ele>124.0</ele><time>2026-03-28T14:19:49Z</time></trkpt><trkpt lat="46.073641182676" lon="13.413689695743404"><ele>123.0</ele><time>2026-03-28T14:19:50Z</time></trkpt><trkpt lat="46.073548963419476" lon="13.413436934135715"><ele>122.0</ele><time>2026-03-28T14:19:51Z</time></trkpt><trkpt lat="46.07341430263216" lon="13.413196957033483"><ele>121.0</ele><time>2026-03-28T14:19:52Z</time></trkpt><trkpt lat="46.0732458247603" lon="13.41297417761523"><ele>121.0</ele><time>2026-03-28T14:19:53Z</time></trkpt><trkpt lat="46.073066261464504" lon="13.412754231051299"><ele>121.0</ele><time>2026-03-28T14:19:54Z</time></trkpt><trkpt lat="46.07287706325013" lon="13.412543658454373"><ele>121.0</ele><time>2026-03-28T14:19:55Z</time></trkpt><trkpt lat="46.0726634065164" lon="13.412361369143298"><ele>121.0</ele><time>2026-03-28T14:19:56Z</time></trkpt><trkpt lat="46.07242946437099" lon="13.412208042424558"><ele>120.0</ele><time>2026-03-28T14:19:57Z</time></trkpt><trkpt lat="46.07218845161624" lon="13.412053711097768"><ele>119.0</ele><time>2026-03-28T14:19:58Z</time></trkpt><trkpt lat="46.07194516231196" lon="13.411900596701972"><ele>119.0</ele><time>2026-03-28T14:19:59Z</time></trkpt><trkpt lat="46.071692059039435" lon="13.411768267991517"><ele>119.0</ele><time>2026-03-28T14:20:00Z</time></trkpt><trkpt lat="46.07144880149896" lon="13.411617725845446"><ele>119.0</ele><time>2026-03-28T14:20:01Z</time></trkpt><trkpt lat="46.0712133088515" lon="13.411472144197084"><ele>119.0</ele><time>2026-03-28T14:20:02Z</time></trkpt><trkpt lat="46.070988652219484" lon="13.411310434540372"><ele>118.5</ele><time>2026-03-28T14:20:03Z</time></trkpt><trkpt lat="46.070753219623406" lon="13.411184113433695"><ele>118.0</ele><time>2026-03-28T14:20:04Z</time></trkpt><trkpt lat="46.07051029425015" lon="13.411073407212982"><ele>118.0</ele><time>2026-03-28T14:20:05Z</time></trkpt><trkpt lat="46.07025887892028" lon="13.410964471737689"><ele>118.0</ele><time>2026-03-28T14:20:06Z</time></trkpt><trkpt lat="46.07000024135131" lon="13.410855344501597"><ele>118.5</ele><time>2026-03-28T14:20:07Z</time></trkpt><trkpt lat="46.06973493546946" lon="13.410743790809274"><ele>119.0</ele><time>2026-03-28T14:20:08Z</time></trkpt><trkpt lat="46.069461660488976" lon="13.4106281135897"><ele>119.0</ele><time>2026-03-28T14:20:09Z</time></trkpt><trkpt lat="46.06918265795202" lon="13.410507663150604"><ele>119.0</ele><time>2026-03-28T14:20:10Z</time></trkpt><trkpt lat="46.06889946761414" lon="13.410386905022504"><ele>118.0</ele><time>2026-03-28T14:20:11Z</time></trkpt><trkpt lat="46.06862164829337" lon="13.410269580596918"><ele>117.0</ele><time>2026-03-28T14:20:12Z</time></trkpt><trkpt lat="46.06834971534617" lon="13.410151622007882"><ele>117.0</ele><time>2026-03-28T14:20:13Z</time></trkpt><trkpt lat="46.06808175073023" lon="13.410035504008468"><ele>117.0</ele><time>2026-03-28T14:20:14Z</time></trkpt><trkpt lat="46.06782019941046" lon="13.409924989794538"><ele>117.0</ele><time>2026-03-28T14:20:15Z</time></trkpt><trkpt lat="46.06757327984993" lon="13.40982065798892"><ele>117.0</ele><time>2026-03-28T14:20:16Z</time></trkpt><trkpt lat="46.0673374819485" lon="13.409721025455841"><ele>117.0</ele><time>2026-03-28T14:20:17Z</time></trkpt><trkpt lat="46.06711009241556" lon="13.409626259404448"><ele>117.0</ele><time>2026-03-28T14:20:18Z</time></trkpt><trkpt lat="46.06688331191182" lon="13.409539076710546"><ele>117.0</ele><time>2026-03-28T14:20:19Z</time></trkpt><trkpt lat="46.06666008221211" lon="13.409464117891341"><ele>117.0</ele><time>2026-03-28T14:20:20Z</time></trkpt><trkpt lat="46.06644428919304" lon="13.4093929732338"><ele>117.66666666666666</ele><time>2026-03-28T14:20:21Z</time></trkpt><trkpt lat="46.06623398415294" lon="13.409323637905135"><ele>118.33333333333333</ele><time>2026-03-28T14:20:22Z</time></trkpt><trkpt lat="46.06601853638544" lon="13.40931179947036"><ele>119.0</ele><time>2026-03-28T14:20:23Z</time></trkpt><trkpt lat="46.06581073495521" lon="13.409258146734613"><ele>118.0</ele><time>2026-03-28T14:20:24Z</time></trkpt><trkpt lat="46.06560470407102" lon="13.409211912102496"><ele>117.0</ele><time>2026-03-28T14:20:25Z</time></trkpt><trkpt lat="46.06540187456172" lon="13.40916058922124"><ele>116.0</ele><time>2026-03-28T14:20:26Z</time></trkpt><trkpt lat="46.06521764647056" lon="13.40911202712706"><ele>116.0</ele><time>2026-03-28T14:20:27Z</time></trkpt><trkpt lat="46.065041269789376" lon="13.409064598042267"><ele>116.0</ele><time>2026-03-28T14:20:28Z</time></trkpt><trkpt lat="46.064866249426736" lon="13.409001766118688"><ele>116.0</ele><time>2026-03-28T14:20:29Z</time></trkpt><trkpt lat="46.06469579873535" lon="13.408917024739587"><ele>116.0</ele><time>2026-03-28T14:20:30Z</time></trkpt><trkpt lat="46.064533919327395" lon="13.40880769399595"><ele>116.0</ele><time>2026-03-28T14:20:31Z</time></trkpt><trkpt lat="46.06438681886049" lon="13.408671222020738"><ele>116.0</ele><time>2026-03-28T14:20:32Z</time></trkpt><trkpt lat="46.064259503780065" lon="13.40849481971743"><ele>116.0</ele><time>2026-03-28T14:20:33Z</time></trkpt><trkpt lat="46.06414368712618" lon="13.408306287911971"><ele>116.0</ele><time>2026-03-28T14:20:34Z</time></trkpt><trkpt lat="46.06402311234614" lon="13.408130918691075"><ele>116.0</ele><time>2026-03-28T14:20:35Z</time></trkpt><trkpt lat="46.06391210273807" lon="13.407972460478618"><ele>116.25</ele><time>2026-03-28T14:20:36Z</time></trkpt><trkpt lat="46.0638082153523" lon="13.407824019515651"><ele>116.5</ele><time>2026-03-28T14:20:37Z</time></trkpt><trkpt lat="46.06370993344298" lon="13.40768708751266"><ele>116.75</ele><time>2026-03-28T14:20:38Z</time></trkpt><trkpt lat="46.063617038661555" lon="13.407559688803044"><ele>117.0</ele><time>2026-03-28T14:20:39Z</time></trkpt><trkpt lat="46.06353030837258" lon="13.407444119288645"><ele>117.0</ele><time>2026-03-28T14:20:40Z</time></trkpt><trkpt lat="46.06343532728709" lon="13.407364485682065"><ele>117.0</ele><time>2026-03-28T14:20:41Z</time></trkpt><trkpt lat="46.06331230827472" lon="13.407323889558631"><ele>117.0</ele><time>2026-03-28T14:20:42Z</time></trkpt><trkpt lat="46.063166600354414" lon="13.407292358530448"><ele>117.0</ele><time>2026-03-28T14:20:43Z</time></trkpt><trkpt lat="46.063034180880116" lon="13.40724847429938"><ele>117.0</ele><time>2026-03-28T14:20:44Z</time></trkpt><trkpt lat="46.06292432615353" lon="13.40720650771188"><ele>116.99999999999999</ele><time>2026-03-28T14:20:45Z</time></trkpt><trkpt lat="46.062819570934494" lon="13.407171574461351"><ele>116.99999999999999</ele><time>2026-03-28T14:20:46Z</time></trkpt><trkpt lat="46.06273575026944" lon="13.407139023505627"><ele>117.0</ele><time>2026-03-28T14:20:47Z</time></trkpt><trkpt lat="46.062661672017015" lon="13.407105650200418"><ele>117.0</ele><time>2026-03-28T14:20:48Z</time></trkpt><trkpt lat="46.0625820897719" lon="13.407075876150493"><ele>116.8</ele><time>2026-03-28T14:20:49Z</time></trkpt><trkpt lat="46.062492433626616" lon="13.407042789964667"><ele>116.6</ele><time>2026-03-28T14:20:49.999Z</time></trkpt><trkpt lat="46.06239314951052" lon="13.407004295565748"><ele>116.39999999999999</ele><time>2026-03-28T14:20:50.999Z</time></trkpt><trkpt lat="46.062281227330544" lon="13.406959317743464"><ele>116.19999999999999</ele><time>2026-03-28T14:20:51.999Z</time></trkpt><trkpt lat="46.06215952072309" lon="13.406898023422032"><ele>116.0</ele><time>2026-03-28T14:20:52.999Z</time></trkpt><trkpt lat="46.06203487965993" lon="13.406822211681588"><ele>115.75</ele><time>2026-03-28T14:20:53.999Z</time></trkpt><trkpt lat="46.06190639896508" lon="13.40673100837701"><ele>115.5</ele><time>2026-03-28T14:20:54.999Z</time></trkpt><trkpt lat="46.06178248597155" lon="13.406641710019418"><ele>115.25</ele><time>2026-03-28T14:20:55.999Z</time></trkpt><trkpt lat="46.061668732691324" lon="13.40656070464783"><ele>115.0</ele><time>2026-03-28T14:20:56.999Z</time></trkpt><trkpt lat="46.06156914681833" lon="13.406490577041353"><ele>115.0</ele><time>2026-03-28T14:20:57.999Z</time></trkpt><trkpt lat="46.061479724878694" lon="13.406428346583235"><ele>115.0</ele><time>2026-03-28T14:20:58.999Z</time></trkpt><trkpt lat="46.06140107201329" lon="13.406367822081844"><ele>115.0</ele><time>2026-03-28T14:20:59.999Z</time></trkpt><trkpt lat="46.061324767819244" lon="13.406309947895704"><ele>115.0</ele><time>2026-03-28T14:21:00.999Z</time></trkpt><trkpt lat="46.06123743809561" lon="13.406250365270202"><ele>115.0</ele><time>2026-03-28T14:21:01.999Z</time></trkpt><trkpt lat="46.06113196815607" lon="13.406174227533773"><ele>115.33333333333334</ele><time>2026-03-28T14:21:02.999Z</time></trkpt><trkpt lat="46.06100583137649" lon="13.406096707109791"><ele>115.66666666666666</ele><time>2026-03-28T14:21:03.999Z</time></trkpt><trkpt lat="46.06085831606738" lon="13.406039410160986"><ele>116.0</ele><time>2026-03-28T14:21:04.999Z</time></trkpt><trkpt lat="46.060689563451845" lon="13.405981670473682"><ele>116.0</ele><time>2026-03-28T14:21:05.999Z</time></trkpt><trkpt lat="46.06050343405436" lon="13.40592569582481"><ele>116.0</ele><time>2026-03-28T14:21:06.999Z</time></trkpt><trkpt lat="46.06029628677212" lon="13.405853606958969"><ele>116.0</ele><time>2026-03-28T14:21:07.999Z</time></trkpt><trkpt lat="46.06004735501561" lon="13.405775359726388"><ele>114.5</ele><time>2026-03-28T14:21:08.999Z</time></trkpt><trkpt lat="46.05980394249962" lon="13.405701423441812"><ele>113.0</ele><time>2026-03-28T14:21:09.999Z</time></trkpt><trkpt lat="46.05955194676421" lon="13.405621269906396"><ele>113.0</ele><time>2026-03-28T14:21:10.999Z</time></trkpt><trkpt lat="46.05929604688012" lon="13.405541411074505"><ele>113.0</ele><time>2026-03-28T14:21:11.999Z</time></trkpt><trkpt lat="46.05903657542261" lon="13.405464557111948"><ele>112.5</ele><time>2026-03-28T14:21:12.999Z</time></trkpt><trkpt lat="46.05877659982751" lon="13.40538882107917"><ele>112.0</ele><time>2026-03-28T14:21:13.999Z</time></trkpt><trkpt lat="46.058520467510334" lon="13.405311008500282"><ele>112.5</ele><time>2026-03-28T14:21:14.999Z</time></trkpt><trkpt lat="46.05827128811016" lon="13.40523177971998"><ele>113.0</ele><time>2026-03-28T14:21:15.999Z</time></trkpt><trkpt lat="46.058027479295575" lon="13.405154510006808"><ele>113.0</ele><time>2026-03-28T14:21:16.999Z</time></trkpt><trkpt lat="46.05778684682576" lon="13.405081729646987"><ele>113.0</ele><time>2026-03-28T14:21:17.999Z</time></trkpt><trkpt lat="46.057550210193675" lon="13.405011000977089"><ele>112.5</ele><time>2026-03-28T14:21:18.999Z</time></trkpt><trkpt lat="46.0573181450883" lon="13.40494404537875"><ele>112.0</ele><time>2026-03-28T14:21:19.999Z</time></trkpt><trkpt lat="46.05709295633362" lon="13.404878056050288"><ele>112.0</ele><time>2026-03-28T14:21:20.999Z</time></trkpt><trkpt lat="46.056874302101065" lon="13.404807520569065"><ele>112.0</ele><time>2026-03-28T14:21:21.999Z</time></trkpt><trkpt lat="46.05667323356092" lon="13.404742864945645"><ele>112.0</ele><time>2026-03-28T14:21:22.999Z</time></trkpt><trkpt lat="46.05648291217092" lon="13.404688983794811"><ele>110.5</ele><time>2026-03-28T14:21:23.999Z</time></trkpt><trkpt lat="46.05632835232752" lon="13.40464361868114"><ele>109.0</ele><time>2026-03-28T14:21:24.999Z</time></trkpt><trkpt lat="46.05619660666669" lon="13.404599491605023"><ele>107.5</ele><time>2026-03-28T14:21:25.999Z</time></trkpt><trkpt lat="46.056084945396805" lon="13.404540996507727"><ele>106.0</ele><time>2026-03-28T14:21:26.999Z</time></trkpt><trkpt lat="46.055994247324925" lon="13.404443823422351"><ele>106.0</ele><time>2026-03-28T14:21:27.999Z</time></trkpt><trkpt lat="46.05591876299949" lon="13.404304871678447"><ele>106.0</ele><time>2026-03-28T14:21:28.999Z</time></trkpt><trkpt lat="46.0558524771635" lon="13.404136516283167"><ele>106.0</ele><time>2026-03-28T14:21:29.999Z</time></trkpt><trkpt lat="46.05581156502222" lon="13.403919247014052"><ele>106.0</ele><time>2026-03-28T14:21:30.999Z</time></trkpt><trkpt lat="46.05577734985939" lon="13.403653480362754"><ele>106.0</ele><time>2026-03-28T14:21:31.999Z</time></trkpt><trkpt lat="46.05572765126655" lon="13.403337460971066"><ele>106.0</ele><time>2026-03-28T14:21:33Z</time></trkpt><trkpt lat="46.055674089837616" lon="13.402991193941219"><ele>106.0</ele><time>2026-03-28T14:21:34Z</time></trkpt><trkpt lat="46.05560740942551" lon="13.40260061464976"><ele>106.0</ele><time>2026-03-28T14:21:35Z</time></trkpt><trkpt lat="46.05555296333764" lon="13.402267329732187"><ele>106.0</ele><time>2026-03-28T14:21:36Z</time></trkpt><trkpt lat="46.055506947298404" lon="13.401962648822447"><ele>106.0</ele><time>2026-03-28T14:21:37Z</time></trkpt><trkpt lat="46.05546620006275" lon="13.40168136335283"><ele>106.0</ele><time>2026-03-28T14:21:38Z</time></trkpt><trkpt lat="46.05542435286266" lon="13.40142657598659"><ele>105.75</ele><time>2026-03-28T14:21:39Z</time></trkpt><trkpt lat="46.055393309115345" lon="13.401203416467837"><ele>105.5</ele><time>2026-03-28T14:21:40Z</time></trkpt><trkpt lat="46.055389645980185" lon="13.40100752350889"><ele>105.25</ele><time>2026-03-28T14:21:41Z</time></trkpt><trkpt lat="46.05542229569031" lon="13.40082253561947"><ele>105.0</ele><time>2026-03-28T14:21:42Z</time></trkpt><trkpt lat="46.055502061410515" lon="13.400624556787363"><ele>105.0</ele><time>2026-03-28T14:21:43Z</time></trkpt><trkpt lat="46.05558835259289" lon="13.400457840466421"><ele>105.0</ele><time>2026-03-28T14:21:44Z</time></trkpt><trkpt lat="46.05566048173372" lon="13.400327568036413"><ele>105.0</ele><time>2026-03-28T14:21:45Z</time></trkpt><trkpt lat="46.05572864940263" lon="13.400236961255365"><ele>105.0</ele><time>2026-03-28T14:21:46Z</time></trkpt><trkpt lat="46.05581782836438" lon="13.400187501849661"><ele>105.0</ele><time>2026-03-28T14:21:47Z</time></trkpt><trkpt lat="46.05593198165697" lon="13.400177362945538"><ele>105.0</ele><time>2026-03-28T14:21:48Z</time></trkpt><trkpt lat="46.056063711464056" lon="13.400226141187197"><ele>105.0</ele><time>2026-03-28T14:21:49Z</time></trkpt><trkpt lat="46.05618725914426" lon="13.400308535309428"><ele>105.0</ele><time>2026-03-28T14:21:50Z</time></trkpt><trkpt lat="46.05628236250534" lon="13.400395747856509"><ele>105.0</ele><time>2026-03-28T14:21:51Z</time></trkpt><trkpt lat="46.056364994504655" lon="13.400468923649662"><ele>105.0</ele><time>2026-03-28T14:21:52Z</time></trkpt><trkpt lat="46.05645208070418" lon="13.400494938121245"><ele>105.0</ele><time>2026-03-28T14:21:53Z</time></trkpt><trkpt lat="46.056544723857954" lon="13.40047753247628"><ele>105.0</ele><time>2026-03-28T14:21:54Z</time></trkpt><trkpt lat="46.05663445484313" lon="13.40041382368588"><ele>105.0</ele><time>2026-03-28T14:21:55Z</time></trkpt><trkpt lat="46.05673009337861" lon="13.400302576910342"><ele>105.0</ele><time>2026-03-28T14:21:56Z</time></trkpt><trkpt lat="46.05681552396296" lon="13.400181728103176"><ele>104.4</ele><time>2026-03-28T14:21:57Z</time></trkpt><trkpt lat="46.05686935771845" lon="13.400031928976412"><ele>103.8</ele><time>2026-03-28T14:21:58Z</time></trkpt><trkpt lat="46.056883189650975" lon="13.399859483105988"><ele>103.19999999999999</ele><time>2026-03-28T14:21:59Z</time></trkpt><trkpt lat="46.056877888682244" lon="13.399702079700216"><ele>102.6</ele><time>2026-03-28T14:22:00Z</time></trkpt><trkpt lat="46.05687577593584" lon="13.399557442888552"><ele>102.0</ele><time>2026-03-28T14:22:01Z</time></trkpt><trkpt lat="46.056874987361745" lon="13.399421278308171"><ele>102.0</ele><time>2026-03-28T14:22:02Z</time></trkpt><trkpt lat="46.05687114594396" lon="13.39928790042112"><ele>102.0</ele><time>2026-03-28T14:22:03Z</time></trkpt><trkpt lat="46.05686409875886" lon="13.39915064754104"><ele>102.0</ele><time>2026-03-28T14:22:04Z</time></trkpt><trkpt lat="46.0568611034546" lon="13.39900628000221"><ele>102.0</ele><time>2026-03-28T14:22:05Z</time></trkpt><trkpt lat="46.056860347195894" lon="13.398860085726767"><ele>102.0</ele><time>2026-03-28T14:22:06Z</time></trkpt><trkpt lat="46.056856203447275" lon="13.398713619246863"><ele>102.6</ele><time>2026-03-28T14:22:07Z</time></trkpt><trkpt lat="46.056850910628846" lon="13.3985655289012"><ele>103.19999999999999</ele><time>2026-03-28T14:22:08Z</time></trkpt><trkpt lat="46.05686632283497" lon="13.398412934197019"><ele>103.8</ele><time>2026-03-28T14:22:09Z</time></trkpt><trkpt lat="46.056850077058535" lon="13.398254611247564"><ele>104.4</ele><time>2026-03-28T14:22:10Z</time></trkpt><trkpt lat="46.05685126552426" lon="13.398091873385495"><ele>105.0</ele><time>2026-03-28T14:22:11Z</time></trkpt><trkpt lat="46.05685076591505" lon="13.397926912745406"><ele>106.5</ele><time>2026-03-28T14:22:12Z</time></trkpt><trkpt lat="46.05685362768534" lon="13.397758114892428"><ele>108.0</ele><time>2026-03-28T14:22:13Z</time></trkpt><trkpt lat="46.05686191571631" lon="13.397589360362025"><ele>109.5</ele><time>2026-03-28T14:22:14Z</time></trkpt><trkpt lat="46.05687268286267" lon="13.397416945193584"><ele>111.0</ele><time>2026-03-28T14:22:15Z</time></trkpt><trkpt lat="46.05688891169427" lon="13.39724844959552"><ele>111.0</ele><time>2026-03-28T14:22:16Z</time></trkpt><trkpt lat="46.056912346016546" lon="13.397087404203228"><ele>111.0</ele><time>2026-03-28T14:22:17Z</time></trkpt><trkpt lat="46.056937024636476" lon="13.396938677898918"><ele>111.0</ele><time>2026-03-28T14:22:18Z</time></trkpt><trkpt lat="46.056960160525264" lon="13.396799011341527"><ele>111.0</ele><time>2026-03-28T14:22:19Z</time></trkpt><trkpt lat="46.05698154396361" lon="13.396662476043307"><ele>111.0</ele><time>2026-03-28T14:22:20Z</time></trkpt><trkpt lat="46.057003728248645" lon="13.396525284588321"><ele>111.0</ele><time>2026-03-28T14:22:21Z</time></trkpt><trkpt lat="46.05702778720418" lon="13.396386740073343"><ele>111.0</ele><time>2026-03-28T14:22:22Z</time></trkpt><trkpt lat="46.05705426975925" lon="13.396249320295691"><ele>111.0</ele><time>2026-03-28T14:22:23Z</time></trkpt><trkpt lat="46.05708193270394" lon="13.396111160357172"><ele>111.0</ele><time>2026-03-28T14:22:24Z</time></trkpt><trkpt lat="46.05710594905717" lon="13.395969715948148"><ele>111.0</ele><time>2026-03-28T14:22:25Z</time></trkpt><trkpt lat="46.05712658255683" lon="13.395827919228108"><ele>111.16666666666667</ele><time>2026-03-28T14:22:26Z</time></trkpt><trkpt lat="46.05715089809827" lon="13.39568639599506"><ele>111.33333333333334</ele><time>2026-03-28T14:22:27Z</time></trkpt><trkpt lat="46.05717468135903" lon="13.395544404400868"><ele>111.5</ele><time>2026-03-28T14:22:28Z</time></trkpt><trkpt lat="46.05719777032987" lon="13.395416251595606"><ele>111.66666666666667</ele><time>2026-03-28T14:22:29Z</time></trkpt><trkpt lat="46.057222328687615" lon="13.39530958414485"><ele>111.83333333333334</ele><time>2026-03-28T14:22:30Z</time></trkpt><trkpt lat="46.05724219571957" lon="13.395207202215266"><ele>112.0</ele><time>2026-03-28T14:22:31Z</time></trkpt><trkpt lat="46.05725874364615" lon="13.395104299521135"><ele>112.19999999999999</ele><time>2026-03-28T14:22:32Z</time></trkpt><trkpt lat="46.057274330470776" lon="13.395010780930289"><ele>112.39999999999999</ele><time>2026-03-28T14:22:33Z</time></trkpt><trkpt lat="46.05730293492285" lon="13.394843471803442"><ele>112.60000000000001</ele><time>2026-03-28T14:22:35Z</time></trkpt><trkpt lat="46.05732787280952" lon="13.39467968333184"><ele>112.80000000000001</ele><time>2026-03-28T14:22:37Z</time></trkpt><trkpt lat="46.0573656773434" lon="13.394548683489498"><ele>113.0</ele><time>2026-03-28T14:22:39Z</time></trkpt><trkpt lat="46.05737536798062" lon="13.39442435262677"><ele>113.0</ele><time>2026-03-28T14:22:41Z</time></trkpt><trkpt lat="46.057445295239106" lon="13.394300396082196"><ele>113.00000000000001</ele><time>2026-03-28T14:22:43Z</time></trkpt><trkpt lat="46.05741848873143" lon="13.394152101578946"><ele>113.00000000000001</ele><time>2026-03-28T14:22:45Z</time></trkpt><trkpt lat="46.05729955292237" lon="13.394164857513264"><ele>113.0</ele><time>2026-03-28T14:22:47Z</time></trkpt><trkpt lat="46.05724721220749" lon="13.394249573152292"><ele>113.0</ele><time>2026-03-28T14:22:48Z</time></trkpt><trkpt lat="46.05714778664686" lon="13.394257016600625"><ele>113.0</ele><time>2026-03-28T14:22:49Z</time></trkpt><trkpt lat="46.05703178454416" lon="13.394266661725515"><ele>113.0</ele><time>2026-03-28T14:22:50Z</time></trkpt><trkpt lat="46.056901832337026" lon="13.39428321819432"><ele>113.0</ele><time>2026-03-28T14:22:51Z</time></trkpt><trkpt lat="46.05675787447262" lon="13.3942949306763"><ele>113.0</ele><time>2026-03-28T14:22:52Z</time></trkpt><trkpt lat="46.05661439503828" lon="13.394290904537344"><ele>112.25</ele><time>2026-03-28T14:22:52.999Z</time></trkpt><trkpt lat="46.05647192512524" lon="13.39426843649217"><ele>111.5</ele><time>2026-03-28T14:22:53.999Z</time></trkpt><trkpt lat="46.0563402392216" lon="13.394202864994554"><ele>110.75</ele><time>2026-03-28T14:22:54.999Z</time></trkpt><trkpt lat="46.0562075057517" lon="13.39412807853653"><ele>110.0</ele><time>2026-03-28T14:22:55.999Z</time></trkpt><trkpt lat="46.05606763379279" lon="13.394057768490502"><ele>110.0</ele><time>2026-03-28T14:22:56.999Z</time></trkpt><trkpt lat="46.0559193829339" lon="13.394001357807376"><ele>110.0</ele><time>2026-03-28T14:22:57.999Z</time></trkpt><trkpt lat="46.05576361676214" lon="13.393968976360824"><ele>110.0</ele><time>2026-03-28T14:22:58.999Z</time></trkpt><trkpt lat="46.05560247360635" lon="13.393953426602186"><ele>110.0</ele><time>2026-03-28T14:22:59.999Z</time></trkpt><trkpt lat="46.05544661902637" lon="13.393959111039013"><ele>110.0</ele><time>2026-03-28T14:23:00.999Z</time></trkpt><trkpt lat="46.05529603130888" lon="13.39393730554043"><ele>110.0</ele><time>2026-03-28T14:23:01.999Z</time></trkpt><trkpt lat="46.05514923787031" lon="13.393932692002048"><ele>110.0</ele><time>2026-03-28T14:23:02.999Z</time></trkpt><trkpt lat="46.05500433910465" lon="13.39388367780171"><ele>110.0</ele><time>2026-03-28T14:23:03.999Z</time></trkpt><trkpt lat="46.05485546612557" lon="13.393819511222523"><ele>110.0</ele><time>2026-03-28T14:23:04.999Z</time></trkpt><trkpt lat="46.054701838774484" lon="13.393757259195487"><ele>110.0</ele><time>2026-03-28T14:23:05.999Z</time></trkpt><trkpt lat="46.05454469161772" lon="13.393697364784524"><ele>110.0</ele><time>2026-03-28T14:23:06.999Z</time></trkpt><trkpt lat="46.05438311126878" lon="13.393630720188806"><ele>110.0</ele><time>2026-03-28T14:23:07.999Z</time></trkpt><trkpt lat="46.05421610758738" lon="13.393561216836774"><ele>110.0</ele><time>2026-03-28T14:23:08.999Z</time></trkpt><trkpt lat="46.05404011964663" lon="13.393487927994526"><ele>110.0</ele><time>2026-03-28T14:23:09.999Z</time></trkpt><trkpt lat="46.05387047272739" lon="13.39341670121838"><ele>110.0</ele><time>2026-03-28T14:23:10.999Z</time></trkpt><trkpt lat="46.05370285103907" lon="13.3933479684831"><ele>110.0</ele><time>2026-03-28T14:23:11.999Z</time></trkpt><trkpt lat="46.05353651511705" lon="13.393279884867537"><ele>110.0</ele><time>2026-03-28T14:23:12.999Z</time></trkpt><trkpt lat="46.0533719336602" lon="13.393211658117947"><ele>110.0</ele><time>2026-03-28T14:23:13.999Z</time></trkpt><trkpt lat="46.05320942596943" lon="13.393144939778496"><ele>109.66666666666666</ele><time>2026-03-28T14:23:14.999Z</time></trkpt><trkpt lat="46.05305071978351" lon="13.393076808036316"><ele>109.33333333333334</ele><time>2026-03-28T14:23:15.999Z</time></trkpt><trkpt lat="46.052893664915445" lon="13.39301374808405"><ele>109.0</ele><time>2026-03-28T14:23:16.999Z</time></trkpt><trkpt lat="46.052743134362935" lon="13.392929869963341"><ele>109.0</ele><time>2026-03-28T14:23:17.999Z</time></trkpt><trkpt lat="46.052587627732684" lon="13.392888306245283"><ele>109.0</ele><time>2026-03-28T14:23:18.999Z</time></trkpt><trkpt lat="46.052439011986685" lon="13.392820224137182"><ele>109.0</ele><time>2026-03-28T14:23:19.999Z</time></trkpt><trkpt lat="46.052291759831995" lon="13.392752292945056"><ele>108.66666666666667</ele><time>2026-03-28T14:23:20.999Z</time></trkpt><trkpt lat="46.05214240685367" lon="13.392681162722575"><ele>108.33333333333334</ele><time>2026-03-28T14:23:21.999Z</time></trkpt><trkpt lat="46.05199280282649" lon="13.392613483791578"><ele>108.0</ele><time>2026-03-28T14:23:22.999Z</time></trkpt><trkpt lat="46.051842855048655" lon="13.392544210546534"><ele>108.0</ele><time>2026-03-28T14:23:23.999Z</time></trkpt><trkpt lat="46.051695208503084" lon="13.392472221303985"><ele>108.0</ele><time>2026-03-28T14:23:24.999Z</time></trkpt><trkpt lat="46.05154565267846" lon="13.392398330231606"><ele>108.0</ele><time>2026-03-28T14:23:25.999Z</time></trkpt><trkpt lat="46.05139285872689" lon="13.392322088491973"><ele>107.66666666666666</ele><time>2026-03-28T14:23:26.999Z</time></trkpt><trkpt lat="46.051235064715875" lon="13.392244067166327"><ele>107.33333333333333</ele><time>2026-03-28T14:23:27.999Z</time></trkpt><trkpt lat="46.05107655366846" lon="13.39216446691317"><ele>107.0</ele><time>2026-03-28T14:23:28.999Z</time></trkpt><trkpt lat="46.05091636182791" lon="13.392083953960377"><ele>106.66666666666666</ele><time>2026-03-28T14:23:29.999Z</time></trkpt><trkpt lat="46.05075393292018" lon="13.392005011535083"><ele>106.33333333333334</ele><time>2026-03-28T14:23:30.999Z</time></trkpt><trkpt lat="46.050593464630715" lon="13.39192536386664"><ele>106.0</ele><time>2026-03-28T14:23:31.999Z</time></trkpt><trkpt lat="46.050434984953576" lon="13.391844858537327"><ele>106.0</ele><time>2026-03-28T14:23:32.999Z</time></trkpt><trkpt lat="46.05027956449198" lon="13.391759890087014"><ele>106.0</ele><time>2026-03-28T14:23:33.999Z</time></trkpt><trkpt lat="46.05012285140614" lon="13.391681408383102"><ele>106.0</ele><time>2026-03-28T14:23:34.999Z</time></trkpt><trkpt lat="46.04996914040696" lon="13.39159093191173"><ele>106.0</ele><time>2026-03-28T14:23:35.999Z</time></trkpt><trkpt lat="46.04981863238753" lon="13.391492388906256"><ele>106.0</ele><time>2026-03-28T14:23:36.999Z</time></trkpt><trkpt lat="46.0496659026927" lon="13.391396646837995"><ele>106.0</ele><time>2026-03-28T14:23:37.999Z</time></trkpt><trkpt lat="46.049513085687515" lon="13.391298750714231"><ele>106.0</ele><time>2026-03-28T14:23:39Z</time></trkpt><trkpt lat="46.049362886541154" lon="13.391194203330603"><ele>106.0</ele><time>2026-03-28T14:23:40Z</time></trkpt><trkpt lat="46.04921158547973" lon="13.391088939730801"><ele>106.0</ele><time>2026-03-28T14:23:41Z</time></trkpt><trkpt lat="46.04906840110407" lon="13.390977429925837"><ele>105.66666666666667</ele><time>2026-03-28T14:23:42Z</time></trkpt><trkpt lat="46.04892702834574" lon="13.390861247961325"><ele>105.33333333333334</ele><time>2026-03-28T14:23:43Z</time></trkpt><trkpt lat="46.048786614143644" lon="13.390748109926111"><ele>105.0</ele><time>2026-03-28T14:23:44Z</time></trkpt><trkpt lat="46.04864980448531" lon="13.390634413608769"><ele>105.0</ele><time>2026-03-28T14:23:45Z</time></trkpt><trkpt lat="46.048514246445656" lon="13.390522865906954"><ele>105.0</ele><time>2026-03-28T14:23:46Z</time></trkpt><trkpt lat="46.0483802378368" lon="13.390413441672914"><ele>105.0</ele><time>2026-03-28T14:23:47Z</time></trkpt><trkpt lat="46.04824875627642" lon="13.390303498998053"><ele>105.33333333333334</ele><time>2026-03-28T14:23:48Z</time></trkpt><trkpt lat="46.04811840930444" lon="13.390191925911298"><ele>105.66666666666667</ele><time>2026-03-28T14:23:49Z</time></trkpt><trkpt lat="46.047988104886" lon="13.39008170303473"><ele>106.0</ele><time>2026-03-28T14:23:50Z</time></trkpt><trkpt lat="46.04785725705511" lon="13.389977667598684"><ele>106.0</ele><time>2026-03-28T14:23:51Z</time></trkpt><trkpt lat="46.04772643925244" lon="13.389874453102777"><ele>106.0</ele><time>2026-03-28T14:23:52Z</time></trkpt><trkpt lat="46.04759576716504" lon="13.38976883278367"><ele>106.0</ele><time>2026-03-28T14:23:53Z</time></trkpt><trkpt lat="46.04746517574752" lon="13.3896612133167"><ele>106.0</ele><time>2026-03-28T14:23:54Z</time></trkpt><trkpt lat="46.047333579782396" lon="13.389547313819579"><ele>105.33333333333334</ele><time>2026-03-28T14:23:55Z</time></trkpt><trkpt lat="46.04719867457758" lon="13.38944204438729"><ele>104.66666666666666</ele><time>2026-03-28T14:23:56Z</time></trkpt><trkpt lat="46.047062147514886" lon="13.389330194307934"><ele>104.0</ele><time>2026-03-28T14:23:57Z</time></trkpt><trkpt lat="46.046926554987934" lon="13.389220908316169"><ele>104.0</ele><time>2026-03-28T14:23:58Z</time></trkpt><trkpt lat="46.04679174941544" lon="13.3891072134999"><ele>104.0</ele><time>2026-03-28T14:23:59Z</time></trkpt><trkpt lat="46.046654809073196" lon="13.388996367767891"><ele>104.0</ele><time>2026-03-28T14:24:00Z</time></trkpt><trkpt lat="46.04651729194824" lon="13.388884773551418"><ele>104.0</ele><time>2026-03-28T14:24:01Z</time></trkpt><trkpt lat="46.046378474863374" lon="13.388770126402333"><ele>104.0</ele><time>2026-03-28T14:24:02Z</time></trkpt><trkpt lat="46.046237573570956" lon="13.388654549335424"><ele>104.0</ele><time>2026-03-28T14:24:03Z</time></trkpt><trkpt lat="46.04609730155781" lon="13.388538641802063"><ele>104.0</ele><time>2026-03-28T14:24:04Z</time></trkpt><trkpt lat="46.04595884803869" lon="13.388422534742427"><ele>104.0</ele><time>2026-03-28T14:24:05Z</time></trkpt><trkpt lat="46.04582090838961" lon="13.38830302362821"><ele>104.0</ele><time>2026-03-28T14:24:06Z</time></trkpt><trkpt lat="46.045682705642236" lon="13.388180635292112"><ele>103.66666666666666</ele><time>2026-03-28T14:24:07Z</time></trkpt><trkpt lat="46.04554331324927" lon="13.388053647479582"><ele>103.33333333333334</ele><time>2026-03-28T14:24:08Z</time></trkpt><trkpt lat="46.04540423594875" lon="13.387918413123478"><ele>103.0</ele><time>2026-03-28T14:24:09Z</time></trkpt><trkpt lat="46.045271459736824" lon="13.387767289515565"><ele>103.0</ele><time>2026-03-28T14:24:10Z</time></trkpt><trkpt lat="46.04514070125874" lon="13.387604272474512"><ele>103.0</ele><time>2026-03-28T14:24:11Z</time></trkpt><trkpt lat="46.04501308907009" lon="13.387428086943226"><ele>103.0</ele><time>2026-03-28T14:24:12Z</time></trkpt><trkpt lat="46.044896719265736" lon="13.387232107564031"><ele>102.0</ele><time>2026-03-28T14:24:13Z</time></trkpt><trkpt lat="46.04478940235385" lon="13.387022782610739"><ele>101.0</ele><time>2026-03-28T14:24:14Z</time></trkpt><trkpt lat="46.04468177068268" lon="13.386801933076555"><ele>100.0</ele><time>2026-03-28T14:24:15Z</time></trkpt><trkpt lat="46.04458324637842" lon="13.38657151120313"><ele>101.0</ele><time>2026-03-28T14:24:16Z</time></trkpt><trkpt lat="46.044492879476" lon="13.386332877895743"><ele>102.0</ele><time>2026-03-28T14:24:17Z</time></trkpt><trkpt lat="46.044410787574975" lon="13.386081506007983"><ele>103.0</ele><time>2026-03-28T14:24:18Z</time></trkpt><trkpt lat="46.04432761759856" lon="13.38583534143622"><ele>103.0</ele><time>2026-03-28T14:24:19Z</time></trkpt><trkpt lat="46.04425014743307" lon="13.3855764563147"><ele>103.0</ele><time>2026-03-28T14:24:20Z</time></trkpt><trkpt lat="46.044174502625765" lon="13.385317666040072"><ele>103.0</ele><time>2026-03-28T14:24:21Z</time></trkpt><trkpt lat="46.04409708104756" lon="13.38505832175867"><ele>102.33333333333334</ele><time>2026-03-28T14:24:22Z</time></trkpt><trkpt lat="46.044018181264775" lon="13.384797922302061"><ele>101.66666666666666</ele><time>2026-03-28T14:24:23Z</time></trkpt><trkpt lat="46.04394050635906" lon="13.38453637492566"><ele>101.0</ele><time>2026-03-28T14:24:24Z</time></trkpt><trkpt lat="46.04386468940782" lon="13.384272909996486"><ele>101.0</ele><time>2026-03-28T14:24:25Z</time></trkpt><trkpt lat="46.04378692812527" lon="13.384008954293728"><ele>101.0</ele><time>2026-03-28T14:24:26Z</time></trkpt><trkpt lat="46.04370905177897" lon="13.383742947118302"><ele>101.0</ele><time>2026-03-28T14:24:27Z</time></trkpt><trkpt lat="46.04362952362571" lon="13.383477100658276"><ele>101.0</ele><time>2026-03-28T14:24:28Z</time></trkpt><trkpt lat="46.04354989155174" lon="13.383211267618425"><ele>101.0</ele><time>2026-03-28T14:24:29Z</time></trkpt><trkpt lat="46.04347041280045" lon="13.38294352408872"><ele>101.0</ele><time>2026-03-28T14:24:30Z</time></trkpt><trkpt lat="46.04339062024929" lon="13.382676410496737"><ele>101.0</ele><time>2026-03-28T14:24:31Z</time></trkpt><trkpt lat="46.04331060771668" lon="13.382406120418153"><ele>101.0</ele><time>2026-03-28T14:24:32Z</time></trkpt><trkpt lat="46.043230529523065" lon="13.382133639476702"><ele>101.0</ele><time>2026-03-28T14:24:33Z</time></trkpt><trkpt lat="46.04315007694609" lon="13.381861418732077"><ele>100.33333333333333</ele><time>2026-03-28T14:24:34Z</time></trkpt><trkpt lat="46.04306675607983" lon="13.381591062174888"><ele>99.66666666666666</ele><time>2026-03-28T14:24:35Z</time></trkpt><trkpt lat="46.04298342248962" lon="13.381317107225755"><ele>99.0</ele><time>2026-03-28T14:24:36Z</time></trkpt><trkpt lat="46.04290176283629" lon="13.381044036444798"><ele>99.0</ele><time>2026-03-28T14:24:37Z</time></trkpt><trkpt lat="46.04281969636255" lon="13.380768480621283"><ele>99.0</ele><time>2026-03-28T14:24:38Z</time></trkpt><trkpt lat="46.04273642071374" lon="13.380492606039365"><ele>99.0</ele><time>2026-03-28T14:24:39Z</time></trkpt><trkpt lat="46.04265315323103" lon="13.38021838864809"><ele>99.33333333333334</ele><time>2026-03-28T14:24:40Z</time></trkpt><trkpt lat="46.04257263037767" lon="13.379944401944728"><ele>99.66666666666667</ele><time>2026-03-28T14:24:41Z</time></trkpt><trkpt lat="46.04249340861862" lon="13.379670174726353"><ele>100.0</ele><time>2026-03-28T14:24:42Z</time></trkpt><trkpt lat="46.04241286444574" lon="13.379397421201443"><ele>100.0</ele><time>2026-03-28T14:24:43Z</time></trkpt><trkpt lat="46.04233265721781" lon="13.379125780344955"><ele>100.0</ele><time>2026-03-28T14:24:44Z</time></trkpt><trkpt lat="46.04225309905879" lon="13.378855841300172"><ele>100.0</ele><time>2026-03-28T14:24:45Z</time></trkpt><trkpt lat="46.04217435261327" lon="13.378590719876371"><ele>100.0</ele><time>2026-03-28T14:24:46Z</time></trkpt><trkpt lat="46.04209756211748" lon="13.378332292005076"><ele>100.0</ele><time>2026-03-28T14:24:47Z</time></trkpt><trkpt lat="46.04202366277624" lon="13.378079634528818"><ele>100.0</ele><time>2026-03-28T14:24:48Z</time></trkpt><trkpt lat="46.041948758970705" lon="13.37783281521501"><ele>99.66666666666667</ele><time>2026-03-28T14:24:49Z</time></trkpt><trkpt lat="46.041876181806416" lon="13.377602134021535"><ele>99.33333333333334</ele><time>2026-03-28T14:24:50Z</time></trkpt><trkpt lat="46.04180528461237" lon="13.377392123992127"><ele>99.0</ele><time>2026-03-28T14:24:51Z</time></trkpt><trkpt lat="46.041734361764334" lon="13.377202203681358"><ele>99.0</ele><time>2026-03-28T14:24:52Z</time></trkpt><trkpt lat="46.04166334476119" lon="13.377034138462381"><ele>99.0</ele><time>2026-03-28T14:24:53Z</time></trkpt><trkpt lat="46.04159689853549" lon="13.37688725189342"><ele>99.0</ele><time>2026-03-28T14:24:54Z</time></trkpt><trkpt lat="46.04154478284088" lon="13.376747222148792"><ele>99.0</ele><time>2026-03-28T14:24:55Z</time></trkpt><trkpt lat="46.041514037504044" lon="13.376611175499207"><ele>99.0</ele><time>2026-03-28T14:24:55.999Z</time></trkpt><trkpt lat="46.041503868925034" lon="13.376454517057814"><ele>99.0</ele><time>2026-03-28T14:24:56.999Z</time></trkpt><trkpt lat="46.0415253266858" lon="13.376285111406625"><ele>99.0</ele><time>2026-03-28T14:24:57.999Z</time></trkpt><trkpt lat="46.0415631208728" lon="13.37612419908897"><ele>99.0</ele><time>2026-03-28T14:24:58.999Z</time></trkpt><trkpt lat="46.04158916794607" lon="13.375983794692957"><ele>99.0</ele><time>2026-03-28T14:24:59.999Z</time></trkpt><trkpt lat="46.04160868381179" lon="13.375865411969077"><ele>99.0</ele><time>2026-03-28T14:25:00.999Z</time></trkpt><trkpt lat="46.041623218948814" lon="13.375767499074064"><ele>99.0</ele><time>2026-03-28T14:25:01.999Z</time></trkpt><trkpt lat="46.04164458717145" lon="13.375631850947798"><ele>99.0</ele><time>2026-03-28T14:25:03.999Z</time></trkpt><trkpt lat="46.04147557434989" lon="13.375547939257302"><ele>99.0</ele><time>2026-03-28T14:25:04.999Z</time></trkpt><trkpt lat="46.0413609610164" lon="13.375537043774196"><ele>99.66666666666666</ele><time>2026-03-28T14:25:05.999Z</time></trkpt><trkpt lat="46.041206373387666" lon="13.37551740616566"><ele>100.33333333333333</ele><time>2026-03-28T14:25:06.999Z</time></trkpt><trkpt lat="46.0409948515189" lon="13.375461995575048"><ele>101.0</ele><time>2026-03-28T14:25:07.999Z</time></trkpt><trkpt lat="46.04073889600449" lon="13.375369805497753"><ele>101.0</ele><time>2026-03-28T14:25:08.999Z</time></trkpt><trkpt lat="46.040474365188516" lon="13.375225821224706"><ele>101.0</ele><time>2026-03-28T14:25:09.999Z</time></trkpt><trkpt lat="46.04019912809061" lon="13.375038834864574"><ele>100.5</ele><time>2026-03-28T14:25:10.999Z</time></trkpt><trkpt lat="46.03991918338808" lon="13.37479591315724"><ele>100.0</ele><time>2026-03-28T14:25:11.999Z</time></trkpt><trkpt lat="46.039639377211536" lon="13.374502451437385"><ele>99.5</ele><time>2026-03-28T14:25:12.999Z</time></trkpt><trkpt lat="46.039366849857636" lon="13.37419977572669"><ele>99.0</ele><time>2026-03-28T14:25:13.999Z</time></trkpt><trkpt lat="46.03910667000618" lon="13.37391247560993"><ele>98.5</ele><time>2026-03-28T14:25:14.999Z</time></trkpt><trkpt lat="46.038859197494176" lon="13.37364196108015"><ele>98.0</ele><time>2026-03-28T14:25:15.999Z</time></trkpt><trkpt lat="46.03862080834144" lon="13.373382336046337"><ele>98.0</ele><time>2026-03-28T14:25:16.999Z</time></trkpt><trkpt lat="46.038389765072885" lon="13.373136329025078"><ele>98.0</ele><time>2026-03-28T14:25:17.999Z</time></trkpt><trkpt lat="46.03816818612224" lon="13.372900347657627"><ele>99.0</ele><time>2026-03-28T14:25:18.999Z</time></trkpt><trkpt lat="46.03795449973134" lon="13.372686794071683"><ele>100.0</ele><time>2026-03-28T14:25:19.999Z</time></trkpt><trkpt lat="46.03774280812863" lon="13.372492563971882"><ele>100.0</ele><time>2026-03-28T14:25:20.999Z</time></trkpt><trkpt lat="46.03753025372961" lon="13.372309309402874"><ele>100.0</ele><time>2026-03-28T14:25:21.999Z</time></trkpt><trkpt lat="46.03730929762339" lon="13.372144514294558"><ele>99.5</ele><time>2026-03-28T14:25:22.999Z</time></trkpt><trkpt lat="46.037088225450304" lon="13.371974967411308"><ele>99.0</ele><time>2026-03-28T14:25:23.999Z</time></trkpt><trkpt lat="46.03685687538499" lon="13.371834948189028"><ele>98.0</ele><time>2026-03-28T14:25:24.999Z</time></trkpt><trkpt lat="46.036621423583206" lon="13.371711498709738"><ele>97.0</ele><time>2026-03-28T14:25:25.999Z</time></trkpt><trkpt lat="46.03639403536727" lon="13.371598905645683"><ele>97.0</ele><time>2026-03-28T14:25:26.999Z</time></trkpt><trkpt lat="46.03618439444922" lon="13.371519941260475"><ele>97.0</ele><time>2026-03-28T14:25:27.999Z</time></trkpt><trkpt lat="46.036010236303596" lon="13.371429029422309"><ele>97.0</ele><time>2026-03-28T14:25:28.999Z</time></trkpt><trkpt lat="46.03586158206119" lon="13.371345139865323"><ele>96.75</ele><time>2026-03-28T14:25:29.999Z</time></trkpt><trkpt lat="46.03573630448055" lon="13.371258229286793"><ele>96.5</ele><time>2026-03-28T14:25:30.999Z</time></trkpt><trkpt lat="46.0356385165293" lon="13.371156223772728"><ele>96.25</ele><time>2026-03-28T14:25:31.999Z</time></trkpt><trkpt lat="46.03556158598949" lon="13.371028115608237"><ele>96.0</ele><time>2026-03-28T14:25:32.999Z</time></trkpt><trkpt lat="46.03548873834599" lon="13.370895558095706"><ele>96.0</ele><time>2026-03-28T14:25:33.999Z</time></trkpt><trkpt lat="46.03535209432263" lon="13.370894024290324"><ele>96.0</ele><time>2026-03-28T14:25:34.999Z</time></trkpt><trkpt lat="46.03521153157046" lon="13.37092311874005"><ele>96.0</ele><time>2026-03-28T14:25:35.999Z</time></trkpt><trkpt lat="46.03505018747883" lon="13.37093266601656"><ele>96.0</ele><time>2026-03-28T14:25:36.999Z</time></trkpt><trkpt lat="46.03486419198936" lon="13.370860514565495"><ele>97.0</ele><time>2026-03-28T14:25:37.999Z</time></trkpt><trkpt lat="46.034645903757365" lon="13.370761970796769"><ele>98.0</ele><time>2026-03-28T14:25:38.999Z</time></trkpt><trkpt lat="46.03436935738879" lon="13.370641697945832"><ele>97.5</ele><time>2026-03-28T14:25:39.999Z</time></trkpt><trkpt lat="46.03406643768126" lon="13.370475669438314"><ele>97.0</ele><time>2026-03-28T14:25:40.999Z</time></trkpt><trkpt lat="46.03377674593181" lon="13.370358854378507"><ele>97.0</ele><time>2026-03-28T14:25:41.999Z</time></trkpt><trkpt lat="46.03352572592995" lon="13.37022216793313"><ele>97.0</ele><time>2026-03-28T14:25:42.999Z</time></trkpt><trkpt lat="46.03329540015459" lon="13.37006232904958"><ele>96.5</ele><time>2026-03-28T14:25:43.999Z</time></trkpt><trkpt lat="46.0330781377277" lon="13.369860479680487"><ele>96.0</ele><time>2026-03-28T14:25:45Z</time></trkpt><trkpt lat="46.03286691916317" lon="13.369628785036777"><ele>96.0</ele><time>2026-03-28T14:25:46Z</time></trkpt><trkpt lat="46.03266333524232" lon="13.36937262353814"><ele>96.0</ele><time>2026-03-28T14:25:47Z</time></trkpt><trkpt lat="46.032466880867915" lon="13.369089963604559"><ele>96.5</ele><time>2026-03-28T14:25:48Z</time></trkpt><trkpt lat="46.03226600324727" lon="13.368778785475575"><ele>97.0</ele><time>2026-03-28T14:25:49Z</time></trkpt><trkpt lat="46.032058633321455" lon="13.368460271293438"><ele>97.0</ele><time>2026-03-28T14:25:50Z</time></trkpt><trkpt lat="46.03184641451666" lon="13.368141544945155"><ele>97.0</ele><time>2026-03-28T14:25:51Z</time></trkpt><trkpt lat="46.03163838988121" lon="13.367827760604358"><ele>96.5</ele><time>2026-03-28T14:25:52Z</time></trkpt><trkpt lat="46.031440120976505" lon="13.367523476039612"><ele>96.0</ele><time>2026-03-28T14:25:53Z</time></trkpt><trkpt lat="46.031245547378774" lon="13.367232569641866"><ele>95.5</ele><time>2026-03-28T14:25:54Z</time></trkpt><trkpt lat="46.03105766319628" lon="13.366937043305866"><ele>95.0</ele><time>2026-03-28T14:25:55Z</time></trkpt><trkpt lat="46.03084871124101" lon="13.366675448562848"><ele>94.5</ele><time>2026-03-28T14:25:56Z</time></trkpt><trkpt lat="46.03063095980742" lon="13.366431786515475"><ele>94.0</ele><time>2026-03-28T14:25:57Z</time></trkpt><trkpt lat="46.030438048323695" lon="13.366170551174156"><ele>94.0</ele><time>2026-03-28T14:25:58Z</time></trkpt><trkpt lat="46.030257213277935" lon="13.365916437303373"><ele>94.0</ele><time>2026-03-28T14:25:59Z</time></trkpt><trkpt lat="46.03008564481898" lon="13.365669420381593"><ele>93.0</ele><time>2026-03-28T14:26:00Z</time></trkpt><trkpt lat="46.029923272458845" lon="13.365429135717147"><ele>92.0</ele><time>2026-03-28T14:26:01Z</time></trkpt><trkpt lat="46.0297742148986" lon="13.36518075838789"><ele>92.0</ele><time>2026-03-28T14:26:02Z</time></trkpt><trkpt lat="46.02964105967583" lon="13.364907973988194"><ele>92.0</ele><time>2026-03-28T14:26:03Z</time></trkpt><trkpt lat="46.02951590822153" lon="13.364621033025541"><ele>92.0</ele><time>2026-03-28T14:26:04Z</time></trkpt><trkpt lat="46.029394056691075" lon="13.364327323862094"><ele>92.0</ele><time>2026-03-28T14:26:05Z</time></trkpt><trkpt lat="46.02926614222726" lon="13.364052209266031"><ele>91.0</ele><time>2026-03-28T14:26:06Z</time></trkpt><trkpt lat="46.029138825919105" lon="13.363784532715103"><ele>90.0</ele><time>2026-03-28T14:26:07Z</time></trkpt><trkpt lat="46.02900950310298" lon="13.363527393663157"><ele>89.0</ele><time>2026-03-28T14:26:08Z</time></trkpt><trkpt lat="46.02887749052749" lon="13.363276232451996"><ele>89.66666666666667</ele><time>2026-03-28T14:26:09Z</time></trkpt><trkpt lat="46.02874898770566" lon="13.363024652005928"><ele>90.33333333333333</ele><time>2026-03-28T14:26:10Z</time></trkpt><trkpt lat="46.02862160783748" lon="13.362769841457286"><ele>91.0</ele><time>2026-03-28T14:26:11Z</time></trkpt><trkpt lat="46.02849356980998" lon="13.362518374184123"><ele>91.0</ele><time>2026-03-28T14:26:12Z</time></trkpt><trkpt lat="46.02836669139949" lon="13.362263708343178"><ele>91.0</ele><time>2026-03-28T14:26:13Z</time></trkpt><trkpt lat="46.028241408400554" lon="13.362022074456588"><ele>91.0</ele><time>2026-03-28T14:26:14Z</time></trkpt><trkpt lat="46.028122762120404" lon="13.361778290012294"><ele>90.66666666666666</ele><time>2026-03-28T14:26:15Z</time></trkpt><trkpt lat="46.02801239691131" lon="13.36153249620504"><ele>90.33333333333333</ele><time>2026-03-28T14:26:16Z</time></trkpt><trkpt lat="46.02790393484159" lon="13.361280760064146"><ele>90.0</ele><time>2026-03-28T14:26:17Z</time></trkpt><trkpt lat="46.02779454328189" lon="13.361016213055757"><ele>89.5</ele><time>2026-03-28T14:26:18Z</time></trkpt><trkpt lat="46.0276851785863" lon="13.360737105499684"><ele>89.0</ele><time>2026-03-28T14:26:19Z</time></trkpt><trkpt lat="46.027566101378156" lon="13.360441152303823"><ele>89.0</ele><time>2026-03-28T14:26:20Z</time></trkpt><trkpt lat="46.02742814350094" lon="13.360118477630358"><ele>89.0</ele><time>2026-03-28T14:26:21Z</time></trkpt><trkpt lat="46.02729532208823" lon="13.359764078721684"><ele>89.0</ele><time>2026-03-28T14:26:22Z</time></trkpt><trkpt lat="46.027175141604694" lon="13.35937765783175"><ele>89.0</ele><time>2026-03-28T14:26:23Z</time></trkpt><trkpt lat="46.027064214865284" lon="13.358966362210584"><ele>88.0</ele><time>2026-03-28T14:26:24Z</time></trkpt><trkpt lat="46.02695119013964" lon="13.358548648957116"><ele>87.0</ele><time>2026-03-28T14:26:25Z</time></trkpt><trkpt lat="46.02682889433533" lon="13.358143066083478"><ele>86.5</ele><time>2026-03-28T14:26:26Z</time></trkpt><trkpt lat="46.026709800151885" lon="13.35774943541925"><ele>86.0</ele><time>2026-03-28T14:26:27Z</time></trkpt><trkpt lat="46.02659924709081" lon="13.357378123240036"><ele>86.0</ele><time>2026-03-28T14:26:28Z</time></trkpt><trkpt lat="46.026478966826254" lon="13.357013543607367"><ele>86.0</ele><time>2026-03-28T14:26:29Z</time></trkpt><trkpt lat="46.02634425532317" lon="13.356661838481825"><ele>86.0</ele><time>2026-03-28T14:26:30Z</time></trkpt><trkpt lat="46.02619192084066" lon="13.356320445493347"><ele>86.0</ele><time>2026-03-28T14:26:31Z</time></trkpt><trkpt lat="46.026027879526346" lon="13.35598244509685"><ele>86.0</ele><time>2026-03-28T14:26:32Z</time></trkpt><trkpt lat="46.025865037719896" lon="13.355638240839516"><ele>86.0</ele><time>2026-03-28T14:26:33Z</time></trkpt><trkpt lat="46.025701123725355" lon="13.35528781075544"><ele>86.0</ele><time>2026-03-28T14:26:34Z</time></trkpt><trkpt lat="46.02552819002001" lon="13.354942239851042"><ele>86.0</ele><time>2026-03-28T14:26:35Z</time></trkpt><trkpt lat="46.02534452714382" lon="13.35460533012937"><ele>86.0</ele><time>2026-03-28T14:26:36Z</time></trkpt><trkpt lat="46.02515403575352" lon="13.35427443578976"><ele>86.0</ele><time>2026-03-28T14:26:37Z</time></trkpt><trkpt lat="46.02496456946745" lon="13.353942418192505"><ele>86.5</ele><time>2026-03-28T14:26:38Z</time></trkpt><trkpt lat="46.02477818320934" lon="13.353603432553179"><ele>87.0</ele><time>2026-03-28T14:26:39Z</time></trkpt><trkpt lat="46.02459521813943" lon="13.353257862018378"><ele>87.0</ele><time>2026-03-28T14:26:40Z</time></trkpt><trkpt lat="46.024415681260514" lon="13.35290823806428"><ele>87.0</ele><time>2026-03-28T14:26:41Z</time></trkpt><trkpt lat="46.02424350232201" lon="13.352550156914026"><ele>86.5</ele><time>2026-03-28T14:26:42Z</time></trkpt><trkpt lat="46.02408087496251" lon="13.352182207706072"><ele>86.0</ele><time>2026-03-28T14:26:43Z</time></trkpt><trkpt lat="46.02392293333445" lon="13.351809350298547"><ele>86.0</ele><time>2026-03-28T14:26:44Z</time></trkpt><trkpt lat="46.0237671484521" lon="13.3514343560116"><ele>86.0</ele><time>2026-03-28T14:26:45Z</time></trkpt><trkpt lat="46.02361397876394" lon="13.351058865636153"><ele>85.0</ele><time>2026-03-28T14:26:46Z</time></trkpt><trkpt lat="46.02346382000356" lon="13.350689150027215"><ele>84.0</ele><time>2026-03-28T14:26:47Z</time></trkpt><trkpt lat="46.02331472997469" lon="13.350325875667412"><ele>84.5</ele><time>2026-03-28T14:26:48Z</time></trkpt><trkpt lat="46.02316681117558" lon="13.349971067513719"><ele>85.0</ele><time>2026-03-28T14:26:49Z</time></trkpt><trkpt lat="46.02303005692997" lon="13.349636572985256"><ele>85.0</ele><time>2026-03-28T14:26:50Z</time></trkpt><trkpt lat="46.02290401606266" lon="13.349333516021819"><ele>85.0</ele><time>2026-03-28T14:26:51Z</time></trkpt><trkpt lat="46.022775736477286" lon="13.349045731108266"><ele>84.0</ele><time>2026-03-28T14:26:52Z</time></trkpt><trkpt lat="46.022643158582504" lon="13.348769330115555"><ele>83.0</ele><time>2026-03-28T14:26:53Z</time></trkpt><trkpt lat="46.02250882652516" lon="13.348500828210577"><ele>83.5</ele><time>2026-03-28T14:26:54Z</time></trkpt><trkpt lat="46.022370414508686" lon="13.348247401076929"><ele>84.0</ele><time>2026-03-28T14:26:55Z</time></trkpt><trkpt lat="46.02221897342582" lon="13.348005694158154"><ele>84.0</ele><time>2026-03-28T14:26:56Z</time></trkpt><trkpt lat="46.02205409778464" lon="13.347780030953176"><ele>84.0</ele><time>2026-03-28T14:26:57Z</time></trkpt><trkpt lat="46.02187925462997" lon="13.347565626236888"><ele>84.0</ele><time>2026-03-28T14:26:58Z</time></trkpt><trkpt lat="46.02169865187863" lon="13.347356370603654"><ele>84.0</ele><time>2026-03-28T14:26:58.999Z</time></trkpt><trkpt lat="46.02152174917608" lon="13.347141610978815"><ele>84.5</ele><time>2026-03-28T14:26:59.999Z</time></trkpt><trkpt lat="46.02135001569629" lon="13.346926282549074"><ele>85.0</ele><time>2026-03-28T14:27:00.999Z</time></trkpt><trkpt lat="46.02118547471933" lon="13.346708156326239"><ele>85.0</ele><time>2026-03-28T14:27:01.999Z</time></trkpt><trkpt lat="46.021032119226774" lon="13.346483413295442"><ele>85.0</ele><time>2026-03-28T14:27:02.999Z</time></trkpt><trkpt lat="46.020892420507515" lon="13.34625779042915"><ele>85.0</ele><time>2026-03-28T14:27:03.999Z</time></trkpt><trkpt lat="46.02076313425488" lon="13.346038279139192"><ele>84.66666666666666</ele><time>2026-03-28T14:27:04.999Z</time></trkpt><trkpt lat="46.020642802698674" lon="13.345816680346438"><ele>84.33333333333333</ele><time>2026-03-28T14:27:05.999Z</time></trkpt><trkpt lat="46.020532912162224" lon="13.345586663087586"><ele>84.0</ele><time>2026-03-28T14:27:06.999Z</time></trkpt><trkpt lat="46.02043449432555" lon="13.345353396089562"><ele>84.0</ele><time>2026-03-28T14:27:07.999Z</time></trkpt><trkpt lat="46.02034661584923" lon="13.345125958732858"><ele>84.0</ele><time>2026-03-28T14:27:08.999Z</time></trkpt><trkpt lat="46.02026643980584" lon="13.344898628075763"><ele>84.0</ele><time>2026-03-28T14:27:09.999Z</time></trkpt><trkpt lat="46.020199350646365" lon="13.344705943191386"><ele>84.25</ele><time>2026-03-28T14:27:10.999Z</time></trkpt><trkpt lat="46.02014662625745" lon="13.34453892099751"><ele>84.5</ele><time>2026-03-28T14:27:11.999Z</time></trkpt><trkpt lat="46.0201039547436" lon="13.344363153917296"><ele>84.75</ele><time>2026-03-28T14:27:12.999Z</time></trkpt><trkpt lat="46.02006474813402" lon="13.344175579191226"><ele>85.0</ele><time>2026-03-28T14:27:13.999Z</time></trkpt><trkpt lat="46.02002535876237" lon="13.343993522735142"><ele>84.5</ele><time>2026-03-28T14:27:14.999Z</time></trkpt><trkpt lat="46.01997780867855" lon="13.343817730029146"><ele>84.0</ele><time>2026-03-28T14:27:15.999Z</time></trkpt><trkpt lat="46.01992462898464" lon="13.343646935308504"><ele>83.5</ele><time>2026-03-28T14:27:16.999Z</time></trkpt><trkpt lat="46.019857982321035" lon="13.34347379045645"><ele>83.0</ele><time>2026-03-28T14:27:17.999Z</time></trkpt><trkpt lat="46.01979884427515" lon="13.343284615034277"><ele>83.0</ele><time>2026-03-28T14:27:18.999Z</time></trkpt><trkpt lat="46.01973220084537" lon="13.343125229279034"><ele>83.0</ele><time>2026-03-28T14:27:19.999Z</time></trkpt><trkpt lat="46.01965724390027" lon="13.343001477163224"><ele>83.0</ele><time>2026-03-28T14:27:20.999Z</time></trkpt><trkpt lat="46.01960525182125" lon="13.342883365604871"><ele>83.0</ele><time>2026-03-28T14:27:21.999Z</time></trkpt><trkpt lat="46.01956527757203" lon="13.34279840003808"><ele>83.0</ele><time>2026-03-28T14:27:22.999Z</time></trkpt><trkpt lat="46.019537642750876" lon="13.342706136362265"><ele>83.0</ele><time>2026-03-28T14:27:24.999Z</time></trkpt><trkpt lat="46.01944202947155" lon="13.342973354747318"><ele>83.0</ele><time>2026-03-28T14:27:27.999Z</time></trkpt><trkpt lat="46.01942188768323" lon="13.343114721714327"><ele>83.0</ele><time>2026-03-28T14:27:28.999Z</time></trkpt><trkpt lat="46.019366184395814" lon="13.343288645790743"><ele>83.0</ele><time>2026-03-28T14:27:29.999Z</time></trkpt><trkpt lat="46.01930515536428" lon="13.343486775656398"><ele>83.0</ele><time>2026-03-28T14:27:30.999Z</time></trkpt><trkpt lat="46.01926412418225" lon="13.343684231683449"><ele>83.0</ele><time>2026-03-28T14:27:31.999Z</time></trkpt><trkpt lat="46.019248176666544" lon="13.343881990484599"><ele>83.0</ele><time>2026-03-28T14:27:32.999Z</time></trkpt><trkpt lat="46.019254387858254" lon="13.344082585338507"><ele>83.0</ele><time>2026-03-28T14:27:33.999Z</time></trkpt><trkpt lat="46.01927182921002" lon="13.344276268948184"><ele>83.0</ele><time>2026-03-28T14:27:34.999Z</time></trkpt><trkpt lat="46.01928680480189" lon="13.344461773107374"><ele>83.0</ele><time>2026-03-28T14:27:35.999Z</time></trkpt><trkpt lat="46.01928662874124" lon="13.34464223958307"><ele>83.0</ele><time>2026-03-28T14:27:36.999Z</time></trkpt><trkpt lat="46.01929910913838" lon="13.34482217608362"><ele>83.0</ele><time>2026-03-28T14:27:37.999Z</time></trkpt><trkpt lat="46.01931385247737" lon="13.345003247772567"><ele>83.25</ele><time>2026-03-28T14:27:38.999Z</time></trkpt><trkpt lat="46.019345924020385" lon="13.34518441117831"><ele>83.5</ele><time>2026-03-28T14:27:39.999Z</time></trkpt><trkpt lat="46.01937388771645" lon="13.345365479842997"><ele>83.75</ele><time>2026-03-28T14:27:40.999Z</time></trkpt><trkpt lat="46.01938334008231" lon="13.345540909880514"><ele>84.0</ele><time>2026-03-28T14:27:41.999Z</time></trkpt><trkpt lat="46.01935190413448" lon="13.345724416333654"><ele>85.0</ele><time>2026-03-28T14:27:42.999Z</time></trkpt><trkpt lat="46.01929979713885" lon="13.345922664309649"><ele>86.0</ele><time>2026-03-28T14:27:43.999Z</time></trkpt><trkpt lat="46.01923965391503" lon="13.346137045854205"><ele>87.0</ele><time>2026-03-28T14:27:44.999Z</time></trkpt><trkpt lat="46.019186961703845" lon="13.346368118212894"><ele>86.33333333333333</ele><time>2026-03-28T14:27:45.999Z</time></trkpt><trkpt lat="46.019149757215665" lon="13.346610108130195"><ele>85.66666666666666</ele><time>2026-03-28T14:27:46.999Z</time></trkpt><trkpt lat="46.01907776449866" lon="13.346847596543778"><ele>85.0</ele><time>2026-03-28T14:27:47.999Z</time></trkpt><trkpt lat="46.01902678618582" lon="13.347110853047091"><ele>85.33333333333333</ele><time>2026-03-28T14:27:48.999Z</time></trkpt><trkpt lat="46.01895947713969" lon="13.347375188869028"><ele>85.66666666666667</ele><time>2026-03-28T14:27:49.999Z</time></trkpt><trkpt lat="46.018898568208996" lon="13.347644733119617"><ele>86.0</ele><time>2026-03-28T14:27:51Z</time></trkpt><trkpt lat="46.01883681929481" lon="13.347912913316344"><ele>86.66666666666667</ele><time>2026-03-28T14:27:52Z</time></trkpt><trkpt lat="46.01877055980506" lon="13.348178765492333"><ele>87.33333333333333</ele><time>2026-03-28T14:27:53Z</time></trkpt><trkpt lat="46.018708799472286" lon="13.348441775485808"><ele>88.0</ele><time>2026-03-28T14:27:54Z</time></trkpt><trkpt lat="46.018648039183404" lon="13.348706831612777"><ele>88.0</ele><time>2026-03-28T14:27:55Z</time></trkpt><trkpt lat="46.01858849696528" lon="13.348962576444363"><ele>88.0</ele><time>2026-03-28T14:27:56Z</time></trkpt><trkpt lat="46.0185317167285" lon="13.349199972245657"><ele>88.0</ele><time>2026-03-28T14:27:57Z</time></trkpt><trkpt lat="46.01847120893554" lon="13.349409240456616"><ele>88.0</ele><time>2026-03-28T14:27:58Z</time></trkpt><trkpt lat="46.01840027692183" lon="13.349581925810577"><ele>88.0</ele><time>2026-03-28T14:27:59Z</time></trkpt><trkpt lat="46.018331216780645" lon="13.349727840478273"><ele>88.0</ele><time>2026-03-28T14:28:00Z</time></trkpt><trkpt lat="46.018277431467546" lon="13.349863898232167"><ele>88.0</ele><time>2026-03-28T14:28:01Z</time></trkpt><trkpt lat="46.018262064996016" lon="13.350004772567473"><ele>88.0</ele><time>2026-03-28T14:28:02Z</time></trkpt><trkpt lat="46.018303120227465" lon="13.350150742254712"><ele>88.0</ele><time>2026-03-28T14:28:03Z</time></trkpt><trkpt lat="46.018392256175936" lon="13.350308603503155"><ele>88.0</ele><time>2026-03-28T14:28:04Z</time></trkpt><trkpt lat="46.018510514815056" lon="13.350492578777816"><ele>88.0</ele><time>2026-03-28T14:28:05Z</time></trkpt><trkpt lat="46.01862886523861" lon="13.350708462733317"><ele>89.0</ele><time>2026-03-28T14:28:06Z</time></trkpt><trkpt lat="46.0187454512391" lon="13.350920751406521"><ele>90.0</ele><time>2026-03-28T14:28:07Z</time></trkpt><trkpt lat="46.01883400377522" lon="13.351111253625263"><ele>91.0</ele><time>2026-03-28T14:28:08Z</time></trkpt><trkpt lat="46.0188934131255" lon="13.351308271898688"><ele>94.66666666666666</ele><time>2026-03-28T14:28:09Z</time></trkpt><trkpt lat="46.018928532759546" lon="13.35152712312725"><ele>98.33333333333333</ele><time>2026-03-28T14:28:10Z</time></trkpt><trkpt lat="46.018948087502295" lon="13.351787676207106"><ele>102.0</ele><time>2026-03-28T14:28:11Z</time></trkpt><trkpt lat="46.01897046174871" lon="13.352082661863367"><ele>105.5</ele><time>2026-03-28T14:28:12Z</time></trkpt><trkpt lat="46.01900571867216" lon="13.352411111569925"><ele>109.0</ele><time>2026-03-28T14:28:13Z</time></trkpt><trkpt lat="46.019043812153" lon="13.352775195157829"><ele>110.0</ele><time>2026-03-28T14:28:14Z</time></trkpt><trkpt lat="46.019083870100985" lon="13.35313660202152"><ele>111.0</ele><time>2026-03-28T14:28:15Z</time></trkpt><trkpt lat="46.0191202042408" lon="13.353445596830158"><ele>107.0</ele><time>2026-03-28T14:28:16Z</time></trkpt><trkpt lat="46.01915300743622" lon="13.35372457017722"><ele>103.0</ele><time>2026-03-28T14:28:17Z</time></trkpt><trkpt lat="46.01917897110997" lon="13.353968562177425"><ele>99.0</ele><time>2026-03-28T14:28:18Z</time></trkpt><trkpt lat="46.01918947972271" lon="13.354176363417903"><ele>99.0</ele><time>2026-03-28T14:28:19Z</time></trkpt><trkpt lat="46.0191846130177" lon="13.354369861584948"><ele>99.0</ele><time>2026-03-28T14:28:20Z</time></trkpt><trkpt lat="46.01915972569892" lon="13.354557465527336"><ele>99.0</ele><time>2026-03-28T14:28:21Z</time></trkpt><trkpt lat="46.019122503068694" lon="13.35473906084605"><ele>99.0</ele><time>2026-03-28T14:28:22Z</time></trkpt><trkpt lat="46.01907510463118" lon="13.354898403484984"><ele>100.80000000000001</ele><time>2026-03-28T14:28:23Z</time></trkpt><trkpt lat="46.019017206506085" lon="13.355025827334261"><ele>102.60000000000001</ele><time>2026-03-28T14:28:24Z</time></trkpt><trkpt lat="46.01893956781318" lon="13.355110451688306"><ele>104.4</ele><time>2026-03-28T14:28:25Z</time></trkpt><trkpt lat="46.01884272767957" lon="13.35514744589989"><ele>106.2</ele><time>2026-03-28T14:28:26Z</time></trkpt><trkpt lat="46.01874361156558" lon="13.35512671264393"><ele>108.0</ele><time>2026-03-28T14:28:27Z</time></trkpt><trkpt lat="46.01866278942575" lon="13.355015979445103"><ele>108.0</ele><time>2026-03-28T14:28:28Z</time></trkpt><trkpt lat="46.01855452511866" lon="13.35493826865329"><ele>108.0</ele><time>2026-03-28T14:28:29Z</time></trkpt><trkpt lat="46.01845375727306" lon="13.354824650430707"><ele>108.0</ele><time>2026-03-28T14:28:30Z</time></trkpt><trkpt lat="46.01834370546544" lon="13.35475305776079"><ele>108.0</ele><time>2026-03-28T14:28:31Z</time></trkpt><trkpt lat="46.01821776147845" lon="13.354723002598021"><ele>108.0</ele><time>2026-03-28T14:28:32Z</time></trkpt><trkpt lat="46.018092313950085" lon="13.354752176711992"><ele>108.0</ele><time>2026-03-28T14:28:33Z</time></trkpt><trkpt lat="46.017977798750756" lon="13.354851370107681"><ele>108.0</ele><time>2026-03-28T14:28:34Z</time></trkpt><trkpt lat="46.01787637197442" lon="13.35497210314334"><ele>108.0</ele><time>2026-03-28T14:28:35Z</time></trkpt><trkpt lat="46.01779065992677" lon="13.355125899421035"><ele>108.0</ele><time>2026-03-28T14:28:36Z</time></trkpt><trkpt lat="46.01772858707277" lon="13.355318792908369"><ele>108.0</ele><time>2026-03-28T14:28:37Z</time></trkpt><trkpt lat="46.01768642541774" lon="13.355543094572235"><ele>108.0</ele><time>2026-03-28T14:28:38Z</time></trkpt><trkpt lat="46.01764831286721" lon="13.35578350988367"><ele>108.33333333333334</ele><time>2026-03-28T14:28:39Z</time></trkpt><trkpt lat="46.01761204834168" lon="13.356037397032527"><ele>108.66666666666667</ele><time>2026-03-28T14:28:40Z</time></trkpt><trkpt lat="46.0175603277584" lon="13.35628508546789"><ele>109.0</ele><time>2026-03-28T14:28:41Z</time></trkpt><trkpt lat="46.01752260794622" lon="13.356519697771686"><ele>108.0</ele><time>2026-03-28T14:28:42Z</time></trkpt><trkpt lat="46.017485115481435" lon="13.356742980938037"><ele>107.0</ele><time>2026-03-28T14:28:43Z</time></trkpt><trkpt lat="46.01745246778506" lon="13.356969262297584"><ele>106.0</ele><time>2026-03-28T14:28:44Z</time></trkpt><trkpt lat="46.01740717850252" lon="13.357190602756162"><ele>107.66666666666667</ele><time>2026-03-28T14:28:45Z</time></trkpt><trkpt lat="46.01737126662615" lon="13.357407914419674"><ele>109.33333333333334</ele><time>2026-03-28T14:28:46Z</time></trkpt><trkpt lat="46.01734029560505" lon="13.35762176172777"><ele>111.0</ele><time>2026-03-28T14:28:47Z</time></trkpt><trkpt lat="46.01730897807992" lon="13.357845795944122"><ele>111.33333333333334</ele><time>2026-03-28T14:28:48Z</time></trkpt><trkpt lat="46.01726003050148" lon="13.35807119171502"><ele>111.66666666666667</ele><time>2026-03-28T14:28:49Z</time></trkpt><trkpt lat="46.01722234855167" lon="13.358297889878914"><ele>112.0</ele><time>2026-03-28T14:28:50Z</time></trkpt><trkpt lat="46.01718652733991" lon="13.35850623139794"><ele>112.0</ele><time>2026-03-28T14:28:51Z</time></trkpt><trkpt lat="46.01716494655501" lon="13.358721691827276"><ele>112.0</ele><time>2026-03-28T14:28:52Z</time></trkpt><trkpt lat="46.01715497385768" lon="13.358937093055301"><ele>112.0</ele><time>2026-03-28T14:28:53Z</time></trkpt><trkpt lat="46.01715377064025" lon="13.359138632407351"><ele>112.0</ele><time>2026-03-28T14:28:54Z</time></trkpt><trkpt lat="46.017101798391344" lon="13.359333765981566"><ele>112.0</ele><time>2026-03-28T14:28:55Z</time></trkpt><trkpt lat="46.01702931839629" lon="13.359511820440114"><ele>112.0</ele><time>2026-03-28T14:28:56Z</time></trkpt><trkpt lat="46.0169003971547" lon="13.359645818730419"><ele>112.0</ele><time>2026-03-28T14:28:57Z</time></trkpt><trkpt lat="46.016769980091574" lon="13.359813675941414"><ele>111.0</ele><time>2026-03-28T14:28:58Z</time></trkpt><trkpt lat="46.01664095506738" lon="13.359964015294667"><ele>110.0</ele><time>2026-03-28T14:28:59Z</time></trkpt><trkpt lat="46.016530842340586" lon="13.360152699428149"><ele>109.0</ele><time>2026-03-28T14:29:00Z</time></trkpt><trkpt lat="46.016435273428236" lon="13.36039033253253"><ele>110.0</ele><time>2026-03-28T14:29:01Z</time></trkpt><trkpt lat="46.01635838631361" lon="13.360670722668857"><ele>111.0</ele><time>2026-03-28T14:29:02Z</time></trkpt><trkpt lat="46.016297856353404" lon="13.360933139755513"><ele>112.0</ele><time>2026-03-28T14:29:03Z</time></trkpt><trkpt lat="46.01626209055157" lon="13.361157801375786"><ele>112.0</ele><time>2026-03-28T14:29:04Z</time></trkpt><trkpt lat="46.0162129942425" lon="13.361350507008355"><ele>112.0</ele><time>2026-03-28T14:29:04.999Z</time></trkpt><trkpt lat="46.016179709131315" lon="13.361527135333874"><ele>112.0</ele><time>2026-03-28T14:29:05.999Z</time></trkpt><trkpt lat="46.01609553169285" lon="13.361671419845713"><ele>112.0</ele><time>2026-03-28T14:29:06.999Z</time></trkpt><trkpt lat="46.01596019532225" lon="13.361753078030867"><ele>113.33333333333334</ele><time>2026-03-28T14:29:07.999Z</time></trkpt><trkpt lat="46.015806429697875" lon="13.361868253563536"><ele>114.66666666666666</ele><time>2026-03-28T14:29:08.999Z</time></trkpt><trkpt lat="46.0156253895907" lon="13.36200385795861"><ele>116.0</ele><time>2026-03-28T14:29:09.999Z</time></trkpt><trkpt lat="46.01543172751939" lon="13.362152113988149"><ele>116.66666666666666</ele><time>2026-03-28T14:29:10.999Z</time></trkpt><trkpt lat="46.01523581814882" lon="13.36230384179991"><ele>117.33333333333334</ele><time>2026-03-28T14:29:11.999Z</time></trkpt><trkpt lat="46.015045934800774" lon="13.36244055953216"><ele>118.0</ele><time>2026-03-28T14:29:12.999Z</time></trkpt><trkpt lat="46.014873906910374" lon="13.362542087769944"><ele>118.0</ele><time>2026-03-28T14:29:13.999Z</time></trkpt><trkpt lat="46.01470615880364" lon="13.362624071453533"><ele>118.0</ele><time>2026-03-28T14:29:14.999Z</time></trkpt><trkpt lat="46.014538935028924" lon="13.362706537447655"><ele>118.0</ele><time>2026-03-28T14:29:15.999Z</time></trkpt><trkpt lat="46.01439301453467" lon="13.362779079406689"><ele>118.0</ele><time>2026-03-28T14:29:16.999Z</time></trkpt><trkpt lat="46.01425671141884" lon="13.36284766071927"><ele>118.0</ele><time>2026-03-28T14:29:17.999Z</time></trkpt><trkpt lat="46.01411415784241" lon="13.362919386969558"><ele>118.0</ele><time>2026-03-28T14:29:18.999Z</time></trkpt><trkpt lat="46.01397829647617" lon="13.362987746032031"><ele>118.0</ele><time>2026-03-28T14:29:19.999Z</time></trkpt><trkpt lat="46.013842268696365" lon="13.36305611456606"><ele>120.75</ele><time>2026-03-28T14:29:20.999Z</time></trkpt><trkpt lat="46.01370583103952" lon="13.363123150939082"><ele>123.5</ele><time>2026-03-28T14:29:21.999Z</time></trkpt><trkpt lat="46.01359222341028" lon="13.363191081707528"><ele>126.25</ele><time>2026-03-28T14:29:22.999Z</time></trkpt><trkpt lat="46.01348204997496" lon="13.363170141324675"><ele>129.0</ele><time>2026-03-28T14:29:23.999Z</time></trkpt><trkpt lat="46.01338528484953" lon="13.36314684613142"><ele>129.2</ele><time>2026-03-28T14:29:24.999Z</time></trkpt><trkpt lat="46.01330458890861" lon="13.36309861271756"><ele>129.4</ele><time>2026-03-28T14:29:25.999Z</time></trkpt><trkpt lat="46.013237371927914" lon="13.363015991608968"><ele>129.6</ele><time>2026-03-28T14:29:26.999Z</time></trkpt><trkpt lat="46.01317523348599" lon="13.362916770685134"><ele>129.8</ele><time>2026-03-28T14:29:27.999Z</time></trkpt><trkpt lat="46.013117423531455" lon="13.362813406381024"><ele>130.0</ele><time>2026-03-28T14:29:28.999Z</time></trkpt><trkpt lat="46.013086056523626" lon="13.362685900638363"><ele>130.0</ele><time>2026-03-28T14:29:29.999Z</time></trkpt><trkpt lat="46.013080396717136" lon="13.362563684983463"><ele>130.0</ele><time>2026-03-28T14:29:30.999Z</time></trkpt><trkpt lat="46.013074719499436" lon="13.362452361952316"><ele>130.0</ele><time>2026-03-28T14:29:31.999Z</time></trkpt><trkpt lat="46.01307330520121" lon="13.36232716249114"><ele>130.0</ele><time>2026-03-28T14:29:32.999Z</time></trkpt><trkpt lat="46.01313848423834" lon="13.362213100952008"><ele>130.0</ele><time>2026-03-28T14:29:33.999Z</time></trkpt><trkpt lat="46.01320438874175" lon="13.362075595641969"><ele>128.75</ele><time>2026-03-28T14:29:34.999Z</time></trkpt><trkpt lat="46.013265903660944" lon="13.361917774344379"><ele>127.5</ele><time>2026-03-28T14:29:35.999Z</time></trkpt><trkpt lat="46.013331258064646" lon="13.361753531547459"><ele>126.25</ele><time>2026-03-28T14:29:36.999Z</time></trkpt><trkpt lat="46.0133878853937" lon="13.361554287696219"><ele>125.0</ele><time>2026-03-28T14:29:37.999Z</time></trkpt><trkpt lat="46.01345394393341" lon="13.361374357163514"><ele>124.0</ele><time>2026-03-28T14:29:38.999Z</time></trkpt><trkpt lat="46.01352726879416" lon="13.361218146805802"><ele>123.0</ele><time>2026-03-28T14:29:39.999Z</time></trkpt><trkpt lat="46.01359854833778" lon="13.36107521928955"><ele>122.0</ele><time>2026-03-28T14:29:40.999Z</time></trkpt><trkpt lat="46.013651370251885" lon="13.360948282262497"><ele>121.0</ele><time>2026-03-28T14:29:41.999Z</time></trkpt><trkpt lat="46.01368279425349" lon="13.36082777509455"><ele>120.0</ele><time>2026-03-28T14:29:42.999Z</time></trkpt><trkpt lat="46.01367451360984" lon="13.36070810706555"><ele>120.0</ele><time>2026-03-28T14:29:43.999Z</time></trkpt><trkpt lat="46.01366608712461" lon="13.360583989860874"><ele>120.0</ele><time>2026-03-28T14:29:44.999Z</time></trkpt><trkpt lat="46.01360092131991" lon="13.360479254079017"><ele>120.0</ele><time>2026-03-28T14:29:45.999Z</time></trkpt><trkpt lat="46.01352870724211" lon="13.360387281062435"><ele>120.0</ele><time>2026-03-28T14:29:46.999Z</time></trkpt><trkpt lat="46.01345188219159" lon="13.360262851381066"><ele>120.0</ele><time>2026-03-28T14:29:47.999Z</time></trkpt><trkpt lat="46.013354089846814" lon="13.360133165936087"><ele>117.4</ele><time>2026-03-28T14:29:48.999Z</time></trkpt><trkpt lat="46.013264861753896" lon="13.360023672411915"><ele>114.8</ele><time>2026-03-28T14:29:49.999Z</time></trkpt><trkpt lat="46.013190776456916" lon="13.359925198923118"><ele>112.19999999999999</ele><time>2026-03-28T14:29:50.999Z</time></trkpt><trkpt lat="46.01312333359856" lon="13.359833590558447"><ele>109.6</ele><time>2026-03-28T14:29:51.999Z</time></trkpt><trkpt lat="46.01308618613625" lon="13.359709182872152"><ele>107.0</ele><time>2026-03-28T14:29:52.999Z</time></trkpt><trkpt lat="46.01307157380008" lon="13.359563283365734"><ele>107.0</ele><time>2026-03-28T14:29:53.999Z</time></trkpt><trkpt lat="46.013073035987205" lon="13.359391601864889"><ele>107.0</ele><time>2026-03-28T14:29:54.999Z</time></trkpt><trkpt lat="46.013075686277396" lon="13.359195727135507"><ele>107.0</ele><time>2026-03-28T14:29:56Z</time></trkpt><trkpt lat="46.01309255205441" lon="13.358984445388595"><ele>107.0</ele><time>2026-03-28T14:29:57Z</time></trkpt><trkpt lat="46.013058979457114" lon="13.358770684155962"><ele>107.0</ele><time>2026-03-28T14:29:58Z</time></trkpt><trkpt lat="46.01303096064981" lon="13.358565742303108"><ele>107.0</ele><time>2026-03-28T14:29:59Z</time></trkpt><trkpt lat="46.01300054828552" lon="13.358368384943205"><ele>107.0</ele><time>2026-03-28T14:30:00Z</time></trkpt><trkpt lat="46.012978345442725" lon="13.358194990227622"><ele>107.0</ele><time>2026-03-28T14:30:01Z</time></trkpt><trkpt lat="46.01295798749968" lon="13.358035158132939"><ele>107.39999999999999</ele><time>2026-03-28T14:30:02Z</time></trkpt><trkpt lat="46.0129334776223" lon="13.357890243775762"><ele>107.79999999999998</ele><time>2026-03-28T14:30:03Z</time></trkpt><trkpt lat="46.01291452927958" lon="13.35778113221288"><ele>108.2</ele><time>2026-03-28T14:30:04Z</time></trkpt><trkpt lat="46.01283678936235" lon="13.357722670997113"><ele>108.6</ele><time>2026-03-28T14:30:05Z</time></trkpt><trkpt lat="46.01276226464609" lon="13.357643852327673"><ele>109.0</ele><time>2026-03-28T14:30:06Z</time></trkpt><trkpt lat="46.01264332168283" lon="13.357641313435067"><ele>109.0</ele><time>2026-03-28T14:30:07Z</time></trkpt><trkpt lat="46.01250190126499" lon="13.357640755732278"><ele>109.0</ele><time>2026-03-28T14:30:08Z</time></trkpt><trkpt lat="46.01234574207701" lon="13.357653337665512"><ele>109.0</ele><time>2026-03-28T14:30:09Z</time></trkpt><trkpt lat="46.012188541256236" lon="13.357659734290513"><ele>110.5</ele><time>2026-03-28T14:30:10Z</time></trkpt><trkpt lat="46.01204043257292" lon="13.357751480337736"><ele>112.0</ele><time>2026-03-28T14:30:11Z</time></trkpt><trkpt lat="46.011903704357636" lon="13.357844052956168"><ele>113.5</ele><time>2026-03-28T14:30:12Z</time></trkpt><trkpt lat="46.01178323564357" lon="13.357905751814908"><ele>115.0</ele><time>2026-03-28T14:30:13Z</time></trkpt><trkpt lat="46.011668107462576" lon="13.357927432402322"><ele>113.75</ele><time>2026-03-28T14:30:14Z</time></trkpt><trkpt lat="46.01156520316957" lon="13.357889317739412"><ele>112.5</ele><time>2026-03-28T14:30:15Z</time></trkpt><trkpt lat="46.01146772394292" lon="13.35776370786078"><ele>111.25</ele><time>2026-03-28T14:30:16Z</time></trkpt><trkpt lat="46.011320136708186" lon="13.357654837017842"><ele>110.0</ele><time>2026-03-28T14:30:17Z</time></trkpt><trkpt lat="46.01115989555985" lon="13.357537191765898"><ele>110.0</ele><time>2026-03-28T14:30:18Z</time></trkpt><trkpt lat="46.011004662000204" lon="13.357442965886849"><ele>110.0</ele><time>2026-03-28T14:30:19Z</time></trkpt><trkpt lat="46.01087504664418" lon="13.357391149154767"><ele>110.0</ele><time>2026-03-28T14:30:20Z</time></trkpt><trkpt lat="46.010759284610344" lon="13.357334065212266"><ele>110.0</ele><time>2026-03-28T14:30:21Z</time></trkpt><trkpt lat="46.010667806664095" lon="13.35723123142186"><ele>110.0</ele><time>2026-03-28T14:30:22Z</time></trkpt><trkpt lat="46.010602419940746" lon="13.357058338584388"><ele>110.0</ele><time>2026-03-28T14:30:23Z</time></trkpt><trkpt lat="46.01049285715426" lon="13.356864440642537"><ele>110.0</ele><time>2026-03-28T14:30:24Z</time></trkpt><trkpt lat="46.01036263816205" lon="13.356647503442456"><ele>110.0</ele><time>2026-03-28T14:30:25Z</time></trkpt><trkpt lat="46.01022088191317" lon="13.356426825819883"><ele>110.0</ele><time>2026-03-28T14:30:26Z</time></trkpt><trkpt lat="46.01009788256634" lon="13.356214321652008"><ele>110.0</ele><time>2026-03-28T14:30:27Z</time></trkpt><trkpt lat="46.009989975279645" lon="13.356026864602862"><ele>108.5</ele><time>2026-03-28T14:30:28Z</time></trkpt><trkpt lat="46.00989972312992" lon="13.355864541339436"><ele>107.0</ele><time>2026-03-28T14:30:29Z</time></trkpt><trkpt lat="46.00986581729509" lon="13.355698766997246"><ele>105.5</ele><time>2026-03-28T14:30:30Z</time></trkpt><trkpt lat="46.0098460604772" lon="13.355552625131075"><ele>104.0</ele><time>2026-03-28T14:30:31Z</time></trkpt><trkpt lat="46.00982346266873" lon="13.35541412996334"><ele>104.0</ele><time>2026-03-28T14:30:32Z</time></trkpt><trkpt lat="46.009771443703016" lon="13.355283624670971"><ele>104.0</ele><time>2026-03-28T14:30:33Z</time></trkpt><trkpt lat="46.009707194698194" lon="13.355169825213721"><ele>104.0</ele><time>2026-03-28T14:30:34Z</time></trkpt><trkpt lat="46.00964453284343" lon="13.355067246991693"><ele>104.0</ele><time>2026-03-28T14:30:35Z</time></trkpt><trkpt lat="46.00958774243023" lon="13.35496143608619"><ele>104.0</ele><time>2026-03-28T14:30:36Z</time></trkpt><trkpt lat="46.00957374675982" lon="13.354825229922026"><ele>106.75</ele><time>2026-03-28T14:30:37Z</time></trkpt><trkpt lat="46.00960946788611" lon="13.354695406373084"><ele>109.5</ele><time>2026-03-28T14:30:38Z</time></trkpt><trkpt lat="46.00966982878801" lon="13.354555617869375"><ele>112.25</ele><time>2026-03-28T14:30:39Z</time></trkpt><trkpt lat="46.0097472802423" lon="13.354375345771965"><ele>115.0</ele><time>2026-03-28T14:30:40Z</time></trkpt><trkpt lat="46.00983496873782" lon="13.35417124664025"><ele>115.0</ele><time>2026-03-28T14:30:41Z</time></trkpt><trkpt lat="46.00989701592777" lon="13.353978795533271"><ele>115.0</ele><time>2026-03-28T14:30:42Z</time></trkpt><trkpt lat="46.00995785518531" lon="13.353809494780142"><ele>115.0</ele><time>2026-03-28T14:30:43Z</time></trkpt><trkpt lat="46.01000475123929" lon="13.35364079362672"><ele>115.0</ele><time>2026-03-28T14:30:44Z</time></trkpt><trkpt lat="46.01003438180559" lon="13.353491642789109"><ele>117.0</ele><time>2026-03-28T14:30:45Z</time></trkpt><trkpt lat="46.0100361442807" lon="13.353345135405807"><ele>119.0</ele><time>2026-03-28T14:30:46Z</time></trkpt><trkpt lat="46.010000746523204" lon="13.353192433268697"><ele>121.0</ele><time>2026-03-28T14:30:47Z</time></trkpt><trkpt lat="46.00992791225689" lon="13.353030593771749"><ele>123.0</ele><time>2026-03-28T14:30:48Z</time></trkpt><trkpt lat="46.00984892138373" lon="13.352844451267238"><ele>123.0</ele><time>2026-03-28T14:30:49Z</time></trkpt><trkpt lat="46.00980097900776" lon="13.352637849844514"><ele>123.0</ele><time>2026-03-28T14:30:50Z</time></trkpt><trkpt lat="46.00979076037815" lon="13.352404567009117"><ele>123.0</ele><time>2026-03-28T14:30:51Z</time></trkpt><trkpt lat="46.00980886762833" lon="13.352192793338803"><ele>121.80000000000001</ele><time>2026-03-28T14:30:52Z</time></trkpt><trkpt lat="46.00984132480326" lon="13.352025487372705"><ele>120.60000000000001</ele><time>2026-03-28T14:30:53Z</time></trkpt><trkpt lat="46.00985981250705" lon="13.351872622518325"><ele>119.39999999999999</ele><time>2026-03-28T14:30:54Z</time></trkpt><trkpt lat="46.009833963426374" lon="13.351714371814467"><ele>118.19999999999999</ele><time>2026-03-28T14:30:55Z</time></trkpt><trkpt lat="46.009817292676075" lon="13.351568441925878"><ele>117.0</ele><time>2026-03-28T14:30:56Z</time></trkpt><trkpt lat="46.00980466310526" lon="13.35142446157182"><ele>113.0</ele><time>2026-03-28T14:30:57Z</time></trkpt><trkpt lat="46.00986466879694" lon="13.351256187467717"><ele>109.0</ele><time>2026-03-28T14:30:58Z</time></trkpt><trkpt lat="46.00992683823588" lon="13.35105439738479"><ele>105.0</ele><time>2026-03-28T14:30:59Z</time></trkpt><trkpt lat="46.00994767539608" lon="13.350784334279217"><ele>102.66666666666666</ele><time>2026-03-28T14:31:00Z</time></trkpt><trkpt lat="46.009949994694274" lon="13.350491403930967"><ele>100.33333333333333</ele><time>2026-03-28T14:31:01Z</time></trkpt><trkpt lat="46.00995030984895" lon="13.350177702250411"><ele>98.0</ele><time>2026-03-28T14:31:02Z</time></trkpt><trkpt lat="46.0099461581924" lon="13.349905193099584"><ele>98.0</ele><time>2026-03-28T14:31:02.999Z</time></trkpt><trkpt lat="46.00994206621406" lon="13.349682247255082"><ele>98.0</ele><time>2026-03-28T14:31:03.999Z</time></trkpt><trkpt lat="46.00999906884206" lon="13.349491614640634"><ele>98.0</ele><time>2026-03-28T14:31:04.999Z</time></trkpt><trkpt lat="46.010060741077645" lon="13.349266007382303"><ele>101.66666666666666</ele><time>2026-03-28T14:31:05.999Z</time></trkpt><trkpt lat="46.01016159409366" lon="13.349010759510087"><ele>105.33333333333334</ele><time>2026-03-28T14:31:06.999Z</time></trkpt><trkpt lat="46.0102587464233" lon="13.348764826459337"><ele>109.0</ele><time>2026-03-28T14:31:07.999Z</time></trkpt><trkpt lat="46.01033150115213" lon="13.348570899556558"><ele>109.0</ele><time>2026-03-28T14:31:08.999Z</time></trkpt><trkpt lat="46.01038314846058" lon="13.348395562192849"><ele>109.0</ele><time>2026-03-28T14:31:09.999Z</time></trkpt><trkpt lat="46.01042221999913" lon="13.348211921779637"><ele>109.0</ele><time>2026-03-28T14:31:10.999Z</time></trkpt><trkpt lat="46.010400801139504" lon="13.34799125670654"><ele>109.0</ele><time>2026-03-28T14:31:11.999Z</time></trkpt><trkpt lat="46.01039647542183" lon="13.347755070841375"><ele>107.5</ele><time>2026-03-28T14:31:12.999Z</time></trkpt><trkpt lat="46.010422336851704" lon="13.347522940834772"><ele>106.0</ele><time>2026-03-28T14:31:13.999Z</time></trkpt><trkpt lat="46.01042206859847" lon="13.347311976868923"><ele>104.5</ele><time>2026-03-28T14:31:14.999Z</time></trkpt><trkpt lat="46.01043767583069" lon="13.34713719884093"><ele>103.0</ele><time>2026-03-28T14:31:15.999Z</time></trkpt><trkpt lat="46.01045702635915" lon="13.346996629951112"><ele>102.0</ele><time>2026-03-28T14:31:16.999Z</time></trkpt><trkpt lat="46.01049405762119" lon="13.346869460036661"><ele>101.0</ele><time>2026-03-28T14:31:17.999Z</time></trkpt><trkpt lat="46.010555722286014" lon="13.346747901532105"><ele>100.0</ele><time>2026-03-28T14:31:18.999Z</time></trkpt><trkpt lat="46.01064765712331" lon="13.346619506329839"><ele>99.0</ele><time>2026-03-28T14:31:19.999Z</time></trkpt><trkpt lat="46.01074871676615" lon="13.346470953343415"><ele>103.0</ele><time>2026-03-28T14:31:20.999Z</time></trkpt><trkpt lat="46.010835234924826" lon="13.346305822799964"><ele>107.0</ele><time>2026-03-28T14:31:21.999Z</time></trkpt><trkpt lat="46.01089557800785" lon="13.346135230966553"><ele>111.0</ele><time>2026-03-28T14:31:22.999Z</time></trkpt><trkpt lat="46.01094526445654" lon="13.345994942187057"><ele>115.0</ele><time>2026-03-28T14:31:23.999Z</time></trkpt><trkpt lat="46.011005382915144" lon="13.345885839385287"><ele>115.0</ele><time>2026-03-28T14:31:24.999Z</time></trkpt><trkpt lat="46.011081347874985" lon="13.345804956160993"><ele>115.0</ele><time>2026-03-28T14:31:25.999Z</time></trkpt><trkpt lat="46.01117766894415" lon="13.345763254952885"><ele>115.0</ele><time>2026-03-28T14:31:26.999Z</time></trkpt><trkpt lat="46.01129137388301" lon="13.345772734283111"><ele>115.0</ele><time>2026-03-28T14:31:27.999Z</time></trkpt><trkpt lat="46.011421555765374" lon="13.345793962528639"><ele>115.0</ele><time>2026-03-28T14:31:28.999Z</time></trkpt><trkpt lat="46.01156321801125" lon="13.345804758697358"><ele>117.0</ele><time>2026-03-28T14:31:29.999Z</time></trkpt><trkpt lat="46.01171507633236" lon="13.345810279493698"><ele>119.0</ele><time>2026-03-28T14:31:30.999Z</time></trkpt><trkpt lat="46.011863448616566" lon="13.345813246654219"><ele>121.0</ele><time>2026-03-28T14:31:31.999Z</time></trkpt><trkpt lat="46.0119933341159" lon="13.345811192338925"><ele>123.0</ele><time>2026-03-28T14:31:32.999Z</time></trkpt><trkpt lat="46.01211377104085" lon="13.345798370205394"><ele>123.0</ele><time>2026-03-28T14:31:33.999Z</time></trkpt><trkpt lat="46.01222809949167" lon="13.345775314588243"><ele>123.0</ele><time>2026-03-28T14:31:34.999Z</time></trkpt><trkpt lat="46.01232603853436" lon="13.345728632327466"><ele>123.0</ele><time>2026-03-28T14:31:35.999Z</time></trkpt><trkpt lat="46.01242584651882" lon="13.34566580621253"><ele>123.0</ele><time>2026-03-28T14:31:36.999Z</time></trkpt><trkpt lat="46.01249128123251" lon="13.345513023365966"><ele>123.25</ele><time>2026-03-28T14:31:37.999Z</time></trkpt><trkpt lat="46.01256110564595" lon="13.345346143943267"><ele>123.5</ele><time>2026-03-28T14:31:38.999Z</time></trkpt><trkpt lat="46.01263060281244" lon="13.345159777716972"><ele>123.75</ele><time>2026-03-28T14:31:39.999Z</time></trkpt><trkpt lat="46.012689635197674" lon="13.34496554056138"><ele>124.0</ele><time>2026-03-28T14:31:40.999Z</time></trkpt><trkpt lat="46.01272673334198" lon="13.344751680008502"><ele>123.0</ele><time>2026-03-28T14:31:41.999Z</time></trkpt><trkpt lat="46.01274534360418" lon="13.344524958983154"><ele>122.0</ele><time>2026-03-28T14:31:42.999Z</time></trkpt><trkpt lat="46.01273513223987" lon="13.34428554078962"><ele>121.0</ele><time>2026-03-28T14:31:43.999Z</time></trkpt><trkpt lat="46.01273900035382" lon="13.344039135487273"><ele>121.0</ele><time>2026-03-28T14:31:44.999Z</time></trkpt><trkpt lat="46.01275567280415" lon="13.343791434028747"><ele>121.0</ele><time>2026-03-28T14:31:45.999Z</time></trkpt><trkpt lat="46.01278426697852" lon="13.343548052357663"><ele>121.0</ele><time>2026-03-28T14:31:46.999Z</time></trkpt><trkpt lat="46.012801165433636" lon="13.343312002268297"><ele>121.0</ele><time>2026-03-28T14:31:47.999Z</time></trkpt><trkpt lat="46.01279602948116" lon="13.343083089129928"><ele>121.0</ele><time>2026-03-28T14:31:48.999Z</time></trkpt><trkpt lat="46.01277239600653" lon="13.342860743222957"><ele>121.0</ele><time>2026-03-28T14:31:49.999Z</time></trkpt><trkpt lat="46.01275116204869" lon="13.342653741297605"><ele>120.5</ele><time>2026-03-28T14:31:50.999Z</time></trkpt><trkpt lat="46.012734761314476" lon="13.34246247666632"><ele>120.0</ele><time>2026-03-28T14:31:51.999Z</time></trkpt><trkpt lat="46.01273010218851" lon="13.342282559378182"><ele>119.5</ele><time>2026-03-28T14:31:52.999Z</time></trkpt><trkpt lat="46.01274754369292" lon="13.342114984150312"><ele>119.0</ele><time>2026-03-28T14:31:53.999Z</time></trkpt><trkpt lat="46.01280290419132" lon="13.341948351768696"><ele>117.33333333333333</ele><time>2026-03-28T14:31:54.999Z</time></trkpt><trkpt lat="46.01287929000626" lon="13.341774542473274"><ele>115.66666666666666</ele><time>2026-03-28T14:31:55.999Z</time></trkpt><trkpt lat="46.012950120534306" lon="13.341576894504666"><ele>114.0</ele><time>2026-03-28T14:31:56.999Z</time></trkpt><trkpt lat="46.013010895398054" lon="13.34136234654881"><ele>113.25</ele><time>2026-03-28T14:31:57.999Z</time></trkpt><trkpt lat="46.013058428887874" lon="13.34116935950784"><ele>112.5</ele><time>2026-03-28T14:31:58.999Z</time></trkpt><trkpt lat="46.013096822766" lon="13.340992290678887"><ele>111.75</ele><time>2026-03-28T14:31:59.999Z</time></trkpt><trkpt lat="46.01312406943893" lon="13.340809777501462"><ele>111.0</ele><time>2026-03-28T14:32:00.999Z</time></trkpt><trkpt lat="46.013130780759745" lon="13.34064023586183"><ele>109.25</ele><time>2026-03-28T14:32:02Z</time></trkpt><trkpt lat="46.013117293776524" lon="13.340477130473744"><ele>107.5</ele><time>2026-03-28T14:32:03Z</time></trkpt><trkpt lat="46.01309430087741" lon="13.340314593279896"><ele>105.75</ele><time>2026-03-28T14:32:04Z</time></trkpt><trkpt lat="46.013048630098254" lon="13.340152632873576"><ele>104.0</ele><time>2026-03-28T14:32:05Z</time></trkpt><trkpt lat="46.01299695943894" lon="13.339988128106972"><ele>104.0</ele><time>2026-03-28T14:32:06Z</time></trkpt><trkpt lat="46.012975664305976" lon="13.339795822010242"><ele>104.0</ele><time>2026-03-28T14:32:07Z</time></trkpt><trkpt lat="46.012960141159674" lon="13.339564523934955"><ele>104.0</ele><time>2026-03-28T14:32:08Z</time></trkpt><trkpt lat="46.0129319029677" lon="13.339315494053462"><ele>103.33333333333333</ele><time>2026-03-28T14:32:09Z</time></trkpt><trkpt lat="46.012907945866964" lon="13.339044218910912"><ele>102.66666666666666</ele><time>2026-03-28T14:32:10Z</time></trkpt><trkpt lat="46.01288251282452" lon="13.338785208167746"><ele>102.0</ele><time>2026-03-28T14:32:11Z</time></trkpt><trkpt lat="46.012859206378955" lon="13.33854780572143"><ele>101.66666666666666</ele><time>2026-03-28T14:32:12Z</time></trkpt><trkpt lat="46.0128364460867" lon="13.338325436566565"><ele>101.33333333333333</ele><time>2026-03-28T14:32:13Z</time></trkpt><trkpt lat="46.01282148329484" lon="13.338109562479705"><ele>101.0</ele><time>2026-03-28T14:32:14Z</time></trkpt><trkpt lat="46.012821605026325" lon="13.337888788892878"><ele>99.5</ele><time>2026-03-28T14:32:15Z</time></trkpt><trkpt lat="46.01285001492523" lon="13.337679635707302"><ele>98.0</ele><time>2026-03-28T14:32:16Z</time></trkpt><trkpt lat="46.0129069012792" lon="13.337493721080358"><ele>96.5</ele><time>2026-03-28T14:32:17Z</time></trkpt><trkpt lat="46.01298358120357" lon="13.337316221078368"><ele>95.0</ele><time>2026-03-28T14:32:18Z</time></trkpt><trkpt lat="46.0130851986692" lon="13.337151738829704"><ele>93.66666666666667</ele><time>2026-03-28T14:32:19Z</time></trkpt><trkpt lat="46.0131868652393" lon="13.336978713776933"><ele>92.33333333333333</ele><time>2026-03-28T14:32:20Z</time></trkpt><trkpt lat="46.01328995599489" lon="13.33679338229759"><ele>91.0</ele><time>2026-03-28T14:32:21Z</time></trkpt><trkpt lat="46.01338979763202" lon="13.336609405539871"><ele>91.0</ele><time>2026-03-28T14:32:22Z</time></trkpt><trkpt lat="46.01347501161278" lon="13.336427019040253"><ele>91.0</ele><time>2026-03-28T14:32:23Z</time></trkpt><trkpt lat="46.013552581430204" lon="13.336241297776231"><ele>91.0</ele><time>2026-03-28T14:32:24Z</time></trkpt><trkpt lat="46.01362813993537" lon="13.336049137916158"><ele>90.25</ele><time>2026-03-28T14:32:25Z</time></trkpt><trkpt lat="46.013701128219374" lon="13.335875117433615"><ele>89.5</ele><time>2026-03-28T14:32:26Z</time></trkpt><trkpt lat="46.013766257931394" lon="13.335711086801204"><ele>88.75</ele><time>2026-03-28T14:32:27Z</time></trkpt><trkpt lat="46.013817533341" lon="13.33555727393668"><ele>88.0</ele><time>2026-03-28T14:32:28Z</time></trkpt><trkpt lat="46.01384876096124" lon="13.335402633770101"><ele>87.60000000000001</ele><time>2026-03-28T14:32:29Z</time></trkpt><trkpt lat="46.01384640290839" lon="13.335253896770546"><ele>87.2</ele><time>2026-03-28T14:32:30Z</time></trkpt><trkpt lat="46.01380962085781" lon="13.335117835929433"><ele>86.8</ele><time>2026-03-28T14:32:31Z</time></trkpt><trkpt lat="46.013761934527444" lon="13.334975854936337"><ele>86.4</ele><time>2026-03-28T14:32:32Z</time></trkpt><trkpt lat="46.01369102217494" lon="13.334875172827171"><ele>86.0</ele><time>2026-03-28T14:32:33Z</time></trkpt><trkpt lat="46.0136655085006" lon="13.334759876371432"><ele>84.8</ele><time>2026-03-28T14:32:34Z</time></trkpt><trkpt lat="46.01367406278162" lon="13.334644397077343"><ele>83.6</ele><time>2026-03-28T14:32:35Z</time></trkpt><trkpt lat="46.01372497948497" lon="13.33454507927942"><ele>82.4</ele><time>2026-03-28T14:32:36Z</time></trkpt><trkpt lat="46.013763452707956" lon="13.334408913967332"><ele>81.2</ele><time>2026-03-28T14:32:37Z</time></trkpt><trkpt lat="46.01380526475748" lon="13.334260931850846"><ele>80.0</ele><time>2026-03-28T14:32:38Z</time></trkpt><trkpt lat="46.013835947798725" lon="13.334098790543251"><ele>80.0</ele><time>2026-03-28T14:32:39Z</time></trkpt><trkpt lat="46.0138769168041" lon="13.333963220701317"><ele>80.0</ele><time>2026-03-28T14:32:40Z</time></trkpt><trkpt lat="46.013911659447935" lon="13.333839168205506"><ele>80.0</ele><time>2026-03-28T14:32:41Z</time></trkpt><trkpt lat="46.01395508445412" lon="13.333730686300463"><ele>80.0</ele><time>2026-03-28T14:32:42Z</time></trkpt><trkpt lat="46.013988475449736" lon="13.333616802035966"><ele>80.0</ele><time>2026-03-28T14:32:43Z</time></trkpt><trkpt lat="46.01400730812563" lon="13.333504193326474"><ele>80.0</ele><time>2026-03-28T14:32:44Z</time></trkpt><trkpt lat="46.0140371624227" lon="13.333415918940677"><ele>79.8</ele><time>2026-03-28T14:32:45Z</time></trkpt><trkpt lat="46.01407143252783" lon="13.33333530667869"><ele>79.6</ele><time>2026-03-28T14:32:48Z</time></trkpt><trkpt lat="46.01411397354015" lon="13.33326243878745"><ele>79.4</ele><time>2026-03-28T14:32:50Z</time></trkpt><trkpt lat="46.01422127636974" lon="13.333294396706469"><ele>79.2</ele><time>2026-03-28T14:32:51Z</time></trkpt><trkpt lat="46.01433306144591" lon="13.333327786223942"><ele>79.0</ele><time>2026-03-28T14:32:52Z</time></trkpt><trkpt lat="46.0144676827094" lon="13.333340097425397"><ele>79.0</ele><time>2026-03-28T14:32:53Z</time></trkpt><trkpt lat="46.01460825518127" lon="13.333329511986067"><ele>79.0</ele><time>2026-03-28T14:32:54Z</time></trkpt><trkpt lat="46.01474329419512" lon="13.333284687788241"><ele>79.0</ele><time>2026-03-28T14:32:55Z</time></trkpt><trkpt lat="46.01485675205279" lon="13.333228768954537"><ele>79.0</ele><time>2026-03-28T14:32:56Z</time></trkpt><trkpt lat="46.01496003193749" lon="13.333156655608276"><ele>79.0</ele><time>2026-03-28T14:32:57Z</time></trkpt><trkpt lat="46.015066342019736" lon="13.333059882607111"><ele>79.0</ele><time>2026-03-28T14:32:58Z</time></trkpt><trkpt lat="46.015176210446874" lon="13.332976199166445"><ele>79.0</ele><time>2026-03-28T14:32:59Z</time></trkpt><trkpt lat="46.015270934826475" lon="13.332911269420723"><ele>79.0</ele><time>2026-03-28T14:33:00Z</time></trkpt><trkpt lat="46.01534293748851" lon="13.332862922192488"><ele>79.0</ele><time>2026-03-28T14:33:01Z</time></trkpt><trkpt lat="46.015425631340534" lon="13.332820465530357"><ele>79.0</ele><time>2026-03-28T14:33:03Z</time></trkpt><trkpt lat="46.01550605769012" lon="13.33275423428587"><ele>79.0</ele><time>2026-03-28T14:33:06Z</time></trkpt><trkpt lat="46.015393090145935" lon="13.332586213648762"><ele>79.0</ele><time>2026-03-28T14:33:08.999Z</time></trkpt><trkpt lat="46.01529956977141" lon="13.332566514267002"><ele>79.0</ele><time>2026-03-28T14:33:09.999Z</time></trkpt><trkpt lat="46.015196046773696" lon="13.33251845197128"><ele>79.0</ele><time>2026-03-28T14:33:10.999Z</time></trkpt><trkpt lat="46.01508273721217" lon="13.332453303969348"><ele>79.0</ele><time>2026-03-28T14:33:11.999Z</time></trkpt><trkpt lat="46.014967972795645" lon="13.332360227812888"><ele>79.0</ele><time>2026-03-28T14:33:12.999Z</time></trkpt><trkpt lat="46.0148672313836" lon="13.332260548067959"><ele>79.0</ele><time>2026-03-28T14:33:13.999Z</time></trkpt><trkpt lat="46.014770540552185" lon="13.332180633451513"><ele>78.60000000000001</ele><time>2026-03-28T14:33:14.999Z</time></trkpt><trkpt lat="46.01467837346543" lon="13.332106408845693"><ele>78.2</ele><time>2026-03-28T14:33:15.999Z</time></trkpt><trkpt lat="46.014593635074945" lon="13.332031499290789"><ele>77.80000000000001</ele><time>2026-03-28T14:33:16.999Z</time></trkpt><trkpt lat="46.0145154667263" lon="13.331960611704273"><ele>77.4</ele><time>2026-03-28T14:33:17.999Z</time></trkpt><trkpt lat="46.01444258982972" lon="13.33189393017411"><ele>77.0</ele><time>2026-03-28T14:33:18.999Z</time></trkpt><trkpt lat="46.014380113446435" lon="13.331820623110884"><ele>77.0</ele><time>2026-03-28T14:33:19.999Z</time></trkpt><trkpt lat="46.01433965730988" lon="13.331732787619412"><ele>77.0</ele><time>2026-03-28T14:33:20.999Z</time></trkpt><trkpt lat="46.01428338686595" lon="13.331662100375562"><ele>77.0</ele><time>2026-03-28T14:33:21.999Z</time></trkpt><trkpt lat="46.01420531853935" lon="13.331635191178147"><ele>77.0</ele><time>2026-03-28T14:33:22.999Z</time></trkpt><trkpt lat="46.014111882651484" lon="13.33162227148676"><ele>77.0</ele><time>2026-03-28T14:33:23.999Z</time></trkpt><trkpt lat="46.014011467123666" lon="13.331562325649335"><ele>77.0</ele><time>2026-03-28T14:33:24.999Z</time></trkpt><trkpt lat="46.01390818333305" lon="13.331501784234467"><ele>76.6</ele><time>2026-03-28T14:33:25.999Z</time></trkpt><trkpt lat="46.01381540163612" lon="13.33145361875248"><ele>76.2</ele><time>2026-03-28T14:33:26.999Z</time></trkpt><trkpt lat="46.013725811132566" lon="13.331399974389866"><ele>75.8</ele><time>2026-03-28T14:33:27.999Z</time></trkpt><trkpt lat="46.013635137866" lon="13.331355098328848"><ele>75.4</ele><time>2026-03-28T14:33:28.999Z</time></trkpt><trkpt lat="46.01354645809474" lon="13.331303758527978"><ele>75.0</ele><time>2026-03-28T14:33:29.999Z</time></trkpt><trkpt lat="46.013454152441234" lon="13.331242471871821"><ele>74.75</ele><time>2026-03-28T14:33:30.999Z</time></trkpt><trkpt lat="46.01334784149685" lon="13.331192397378022"><ele>74.5</ele><time>2026-03-28T14:33:31.999Z</time></trkpt><trkpt lat="46.01323430475612" lon="13.331128830466508"><ele>74.25</ele><time>2026-03-28T14:33:32.999Z</time></trkpt><trkpt lat="46.0131197591277" lon="13.331057800109736"><ele>74.0</ele><time>2026-03-28T14:33:33.999Z</time></trkpt><trkpt lat="46.01300611897457" lon="13.330988886295115"><ele>73.5</ele><time>2026-03-28T14:33:34.999Z</time></trkpt><trkpt lat="46.01289598109691" lon="13.330922637650458"><ele>73.0</ele><time>2026-03-28T14:33:35.999Z</time></trkpt><trkpt lat="46.01278354582479" lon="13.330859783015985"><ele>72.5</ele><time>2026-03-28T14:33:36.999Z</time></trkpt><trkpt lat="46.012674575895446" lon="13.330796462160068"><ele>72.0</ele><time>2026-03-28T14:33:37.999Z</time></trkpt><trkpt lat="46.01256912510728" lon="13.330733561076215"><ele>71.75</ele><time>2026-03-28T14:33:38.999Z</time></trkpt><trkpt lat="46.01246375072162" lon="13.330675975089799"><ele>71.5</ele><time>2026-03-28T14:33:39.999Z</time></trkpt><trkpt lat="46.012357356224705" lon="13.330613731661742"><ele>71.25</ele><time>2026-03-28T14:33:40.999Z</time></trkpt><trkpt lat="46.0122492436406" lon="13.330550035431509"><ele>71.0</ele><time>2026-03-28T14:33:41.999Z</time></trkpt><trkpt lat="46.01214150329088" lon="13.330488158126133"><ele>71.0</ele><time>2026-03-28T14:33:42.999Z</time></trkpt><trkpt lat="46.012031459242536" lon="13.330422442679989"><ele>71.0</ele><time>2026-03-28T14:33:43.999Z</time></trkpt><trkpt lat="46.01191932196059" lon="13.33035934714098"><ele>71.0</ele><time>2026-03-28T14:33:44.999Z</time></trkpt><trkpt lat="46.01180434305505" lon="13.330294222095896"><ele>71.0</ele><time>2026-03-28T14:33:45.999Z</time></trkpt><trkpt lat="46.0116909398008" lon="13.330227073620014"><ele>70.5</ele><time>2026-03-28T14:33:46.999Z</time></trkpt><trkpt lat="46.01157515483573" lon="13.330159571472514"><ele>70.0</ele><time>2026-03-28T14:33:47.999Z</time></trkpt><trkpt lat="46.01145997314604" lon="13.330090227474743"><ele>69.5</ele><time>2026-03-28T14:33:48.999Z</time></trkpt><trkpt lat="46.01134390401751" lon="13.330019866317048"><ele>69.0</ele><time>2026-03-28T14:33:49.999Z</time></trkpt><trkpt lat="46.01122991353687" lon="13.32995320969356"><ele>69.0</ele><time>2026-03-28T14:33:50.999Z</time></trkpt><trkpt lat="46.011116930222194" lon="13.329885519833585"><ele>69.0</ele><time>2026-03-28T14:33:51.999Z</time></trkpt><trkpt lat="46.011004844954414" lon="13.329818096220759"><ele>69.0</ele><time>2026-03-28T14:33:52.999Z</time></trkpt><trkpt lat="46.01089489404574" lon="13.32975376128623"><ele>69.0</ele><time>2026-03-28T14:33:53.999Z</time></trkpt><trkpt lat="46.010790897894694" lon="13.329691249978664"><ele>69.4</ele><time>2026-03-28T14:33:54.999Z</time></trkpt><trkpt lat="46.010691191568874" lon="13.329631110040799"><ele>69.80000000000001</ele><time>2026-03-28T14:33:55.999Z</time></trkpt><trkpt lat="46.010588578132754" lon="13.329576941418779"><ele>70.19999999999999</ele><time>2026-03-28T14:33:56.999Z</time></trkpt><trkpt lat="46.01048625353821" lon="13.3295217997539"><ele>70.6</ele><time>2026-03-28T14:33:57.999Z</time></trkpt><trkpt lat="46.01038827216973" lon="13.329460024853818"><ele>71.0</ele><time>2026-03-28T14:33:58.999Z</time></trkpt><trkpt lat="46.010294225015784" lon="13.32940563832251"><ele>71.0</ele><time>2026-03-28T14:33:59.999Z</time></trkpt><trkpt lat="46.01020834628019" lon="13.32935936365363"><ele>71.0</ele><time>2026-03-28T14:34:00.999Z</time></trkpt><trkpt lat="46.010125599031134" lon="13.329310447529927"><ele>71.0</ele><time>2026-03-28T14:34:01.999Z</time></trkpt><trkpt lat="46.010053579526065" lon="13.32926160665636"><ele>71.0</ele><time>2026-03-28T14:34:02.999Z</time></trkpt><trkpt lat="46.00996914068233" lon="13.329190093628979"><ele>71.0</ele><time>2026-03-28T14:34:04.999Z</time></trkpt><trkpt lat="46.00991773665188" lon="13.329131300947557"><ele>71.0</ele><time>2026-03-28T14:34:15Z</time></trkpt><trkpt lat="46.00988508274893" lon="13.329048005482239"><ele>70.83333333333334</ele><time>2026-03-28T14:34:18Z</time></trkpt><trkpt lat="46.00985693088744" lon="13.328920992792868"><ele>70.66666666666667</ele><time>2026-03-28T14:34:21Z</time></trkpt><trkpt lat="46.00982456375144" lon="13.328838548406322"><ele>70.5</ele><time>2026-03-28T14:34:22Z</time></trkpt><trkpt lat="46.00976115940051" lon="13.328764128914072"><ele>70.33333333333333</ele><time>2026-03-28T14:34:23Z</time></trkpt><trkpt lat="46.00967415497208" lon="13.328710468396709"><ele>70.16666666666666</ele><time>2026-03-28T14:34:24Z</time></trkpt><trkpt lat="46.0095624916835" lon="13.32871008390615"><ele>70.0</ele><time>2026-03-28T14:34:25Z</time></trkpt><trkpt lat="46.00944098546728" lon="13.328731400397139"><ele>70.5</ele><time>2026-03-28T14:34:26Z</time></trkpt><trkpt lat="46.009323224144914" lon="13.328690017172386"><ele>71.0</ele><time>2026-03-28T14:34:27Z</time></trkpt><trkpt lat="46.009203671992985" lon="13.328585720987899"><ele>71.5</ele><time>2026-03-28T14:34:28Z</time></trkpt><trkpt lat="46.009082327305805" lon="13.328442404527985"><ele>72.0</ele><time>2026-03-28T14:34:29Z</time></trkpt><trkpt lat="46.00894455594091" lon="13.32829303794347"><ele>70.66666666666667</ele><time>2026-03-28T14:34:30Z</time></trkpt><trkpt lat="46.00879885167919" lon="13.328135417367148"><ele>69.33333333333334</ele><time>2026-03-28T14:34:31Z</time></trkpt><trkpt lat="46.00865204467634" lon="13.327964542084596"><ele>68.0</ele><time>2026-03-28T14:34:32Z</time></trkpt><trkpt lat="46.008505678075316" lon="13.327800601920817"><ele>68.0</ele><time>2026-03-28T14:34:33Z</time></trkpt><trkpt lat="46.00836395386108" lon="13.327646237819838"><ele>68.0</ele><time>2026-03-28T14:34:34Z</time></trkpt><trkpt lat="46.00823415257226" lon="13.32750399214432"><ele>68.0</ele><time>2026-03-28T14:34:35Z</time></trkpt><trkpt lat="46.0081184835888" lon="13.327373189230471"><ele>68.2</ele><time>2026-03-28T14:34:36Z</time></trkpt><trkpt lat="46.008013106826674" lon="13.32725646395264"><ele>68.4</ele><time>2026-03-28T14:34:37Z</time></trkpt><trkpt lat="46.00792623182964" lon="13.32716239516881"><ele>68.60000000000001</ele><time>2026-03-28T14:34:38Z</time></trkpt><trkpt lat="46.00786079341596" lon="13.32710199483443"><ele>68.8</ele><time>2026-03-28T14:34:39Z</time></trkpt><trkpt lat="46.00782137001308" lon="13.327026509184503"><ele>69.0</ele><time>2026-03-28T14:34:40Z</time></trkpt><trkpt lat="46.00765936123454" lon="13.327190225069813"><ele>69.0</ele><time>2026-03-28T14:34:42Z</time></trkpt><trkpt lat="46.00758002837487" lon="13.327308166019082"><ele>69.0</ele><time>2026-03-28T14:34:43Z</time></trkpt><trkpt lat="46.00747291580482" lon="13.327437321738879"><ele>69.0</ele><time>2026-03-28T14:34:44Z</time></trkpt><trkpt lat="46.00735701912685" lon="13.327583851801176"><ele>69.0</ele><time>2026-03-28T14:34:45Z</time></trkpt><trkpt lat="46.00723887185635" lon="13.327740726041123"><ele>69.0</ele><time>2026-03-28T14:34:46Z</time></trkpt><trkpt lat="46.007123795452664" lon="13.327886909179707"><ele>69.0</ele><time>2026-03-28T14:34:47Z</time></trkpt><trkpt lat="46.007023024500505" lon="13.328015772490605"><ele>69.0</ele><time>2026-03-28T14:34:48Z</time></trkpt><trkpt lat="46.00693510790605" lon="13.328131861775262"><ele>69.0</ele><time>2026-03-28T14:34:49Z</time></trkpt><trkpt lat="46.00685098935544" lon="13.328241123030969"><ele>69.0</ele><time>2026-03-28T14:34:50Z</time></trkpt><trkpt lat="46.00677023333576" lon="13.328346168052766"><ele>69.0</ele><time>2026-03-28T14:34:51Z</time></trkpt><trkpt lat="46.006695910916456" lon="13.328445484610143"><ele>69.0</ele><time>2026-03-28T14:34:52Z</time></trkpt><trkpt lat="46.006627686257254" lon="13.328533159840896"><ele>69.0</ele><time>2026-03-28T14:34:53Z</time></trkpt><trkpt lat="46.00656342887893" lon="13.328613053483982"><ele>69.0</ele><time>2026-03-28T14:34:54Z</time></trkpt><trkpt lat="46.00650604599029" lon="13.328674242742872"><ele>69.0</ele><time>2026-03-28T14:34:55Z</time></trkpt><trkpt lat="46.00645087913932" lon="13.328725311442007"><ele>69.0</ele><time>2026-03-28T14:34:56Z</time></trkpt><trkpt lat="46.00637015734012" lon="13.328822561202621"><ele>69.0</ele><time>2026-03-28T14:34:58Z</time></trkpt><trkpt lat="46.00633465620371" lon="13.32890726632061"><ele>69.0</ele><time>2026-03-28T14:35:00Z</time></trkpt><trkpt lat="46.00628190395276" lon="13.32899430936981"><ele>69.0</ele><time>2026-03-28T14:35:03Z</time></trkpt><trkpt lat="46.00620264285802" lon="13.329096683722495"><ele>69.0</ele><time>2026-03-28T14:35:05Z</time></trkpt><trkpt lat="46.006154905368945" lon="13.329164951863097"><ele>68.75</ele><time>2026-03-28T14:35:06Z</time></trkpt><trkpt lat="46.00607297773466" lon="13.32921525404613"><ele>68.5</ele><time>2026-03-28T14:35:07Z</time></trkpt><trkpt lat="46.005994690533015" lon="13.329315148376477"><ele>68.25</ele><time>2026-03-28T14:35:08Z</time></trkpt><trkpt lat="46.005915192357314" lon="13.329451318493216"><ele>68.0</ele><time>2026-03-28T14:35:09Z</time></trkpt><trkpt lat="46.00579183017366" lon="13.329571949202329"><ele>67.66666666666667</ele><time>2026-03-28T14:35:10Z</time></trkpt><trkpt lat="46.00565979656305" lon="13.329739451117751"><ele>67.33333333333333</ele><time>2026-03-28T14:35:11Z</time></trkpt><trkpt lat="46.00551622288255" lon="13.32993067969265"><ele>67.0</ele><time>2026-03-28T14:35:12Z</time></trkpt><trkpt lat="46.00536378639095" lon="13.330132764924745"><ele>67.0</ele><time>2026-03-28T14:35:13Z</time></trkpt><trkpt lat="46.005208526922104" lon="13.330329140690216"><ele>67.0</ele><time>2026-03-28T14:35:13.999Z</time></trkpt><trkpt lat="46.0050628700985" lon="13.330513804865582"><ele>67.0</ele><time>2026-03-28T14:35:14.999Z</time></trkpt><trkpt lat="46.00492702159381" lon="13.330690161106958"><ele>67.33333333333333</ele><time>2026-03-28T14:35:15.999Z</time></trkpt><trkpt lat="46.00479618254881" lon="13.330855468689355"><ele>67.66666666666667</ele><time>2026-03-28T14:35:16.999Z</time></trkpt><trkpt lat="46.00467192002415" lon="13.331011754933769"><ele>68.0</ele><time>2026-03-28T14:35:17.999Z</time></trkpt><trkpt lat="46.00455925573163" lon="13.33115420482051"><ele>68.0</ele><time>2026-03-28T14:35:18.999Z</time></trkpt><trkpt lat="46.00445808460939" lon="13.331283521706531"><ele>68.0</ele><time>2026-03-28T14:35:19.999Z</time></trkpt><trkpt lat="46.00436528225757" lon="13.331407941581393"><ele>68.0</ele><time>2026-03-28T14:35:20.999Z</time></trkpt><trkpt lat="46.00428481077693" lon="13.331515980967579"><ele>68.0</ele><time>2026-03-28T14:35:21.999Z</time></trkpt><trkpt lat="46.004220510633" lon="13.331623181997397"><ele>68.0</ele><time>2026-03-28T14:35:22.999Z</time></trkpt><trkpt lat="46.00416387007661" lon="13.331726202666264"><ele>68.0</ele><time>2026-03-28T14:35:23.999Z</time></trkpt><trkpt lat="46.00415465349449" lon="13.331827542421308"><ele>68.0</ele><time>2026-03-28T14:35:24.999Z</time></trkpt><trkpt lat="46.004005829641244" lon="13.331865173329325"><ele>68.0</ele><time>2026-03-28T14:35:25.999Z</time></trkpt><trkpt lat="46.00388681266773" lon="13.331912969277289"><ele>68.0</ele><time>2026-03-28T14:35:26.999Z</time></trkpt><trkpt lat="46.003747392696965" lon="13.33195311526693"><ele>68.0</ele><time>2026-03-28T14:35:27.999Z</time></trkpt><trkpt lat="46.00358776007412" lon="13.331996922148862"><ele>68.0</ele><time>2026-03-28T14:35:28.999Z</time></trkpt><trkpt lat="46.003409540415724" lon="13.332056101977287"><ele>68.0</ele><time>2026-03-28T14:35:29.999Z</time></trkpt><trkpt lat="46.00323207733413" lon="13.33210769173847"><ele>67.5</ele><time>2026-03-28T14:35:30.999Z</time></trkpt><trkpt lat="46.00307600919449" lon="13.332150696338473"><ele>67.0</ele><time>2026-03-28T14:35:31.999Z</time></trkpt><trkpt lat="46.00293228390048" lon="13.332194894054263"><ele>66.5</ele><time>2026-03-28T14:35:32.999Z</time></trkpt><trkpt lat="46.0028146058721" lon="13.332232195862016"><ele>66.0</ele><time>2026-03-28T14:35:33.999Z</time></trkpt><trkpt lat="46.002721519709446" lon="13.33225790634501"><ele>65.83333333333333</ele><time>2026-03-28T14:35:34.999Z</time></trkpt><trkpt lat="46.002654959118246" lon="13.332278150027296"><ele>65.66666666666667</ele><time>2026-03-28T14:35:35.999Z</time></trkpt><trkpt lat="46.002551401596925" lon="13.332314550002934"><ele>65.5</ele><time>2026-03-28T14:35:37.999Z</time></trkpt><trkpt lat="46.00247181363999" lon="13.33234498941875"><ele>65.33333333333334</ele><time>2026-03-28T14:35:39.999Z</time></trkpt><trkpt lat="46.00240184476878" lon="13.332379863255925"><ele>65.16666666666667</ele><time>2026-03-28T14:35:41.999Z</time></trkpt><trkpt lat="46.00231322402689" lon="13.332415149639052"><ele>65.0</ele><time>2026-03-28T14:35:44.999Z</time></trkpt><trkpt lat="46.002358857314746" lon="13.332635590171153"><ele>65.0</ele><time>2026-03-28T14:35:45.999Z</time></trkpt><trkpt lat="46.00239258988163" lon="13.332787634496569"><ele>65.0</ele><time>2026-03-28T14:35:46.999Z</time></trkpt><trkpt lat="46.00242497923679" lon="13.332967213777499"><ele>65.0</ele><time>2026-03-28T14:35:47.999Z</time></trkpt><trkpt lat="46.00245345955179" lon="13.333157427998295"><ele>65.0</ele><time>2026-03-28T14:35:48.999Z</time></trkpt><trkpt lat="46.0024838459105" lon="13.333315929958612"><ele>65.4</ele><time>2026-03-28T14:35:49.999Z</time></trkpt><trkpt lat="46.00252783737183" lon="13.333452221527404"><ele>65.8</ele><time>2026-03-28T14:35:50.999Z</time></trkpt><trkpt lat="46.00259169356843" lon="13.33355527095305"><ele>66.2</ele><time>2026-03-28T14:35:51.999Z</time></trkpt><trkpt lat="46.00265955352367" lon="13.333648997555288"><ele>66.6</ele><time>2026-03-28T14:35:52.999Z</time></trkpt><trkpt lat="46.00270943477056" lon="13.333762631080576"><ele>67.0</ele><time>2026-03-28T14:35:53.999Z</time></trkpt><trkpt lat="46.00273596089486" lon="13.333883688361006"><ele>67.2</ele><time>2026-03-28T14:35:54.999Z</time></trkpt><trkpt lat="46.002732731626324" lon="13.334000133697659"><ele>67.4</ele><time>2026-03-28T14:35:55.999Z</time></trkpt><trkpt lat="46.00268451740162" lon="13.33411035049731"><ele>67.6</ele><time>2026-03-28T14:35:56.999Z</time></trkpt><trkpt lat="46.00262595804215" lon="13.334201820161566"><ele>67.8</ele><time>2026-03-28T14:35:57.999Z</time></trkpt><trkpt lat="46.00249042494233" lon="13.334219731509185"><ele>68.0</ele><time>2026-03-28T14:35:58.999Z</time></trkpt><trkpt lat="46.00235885380882" lon="13.334257917133273"><ele>67.33333333333334</ele><time>2026-03-28T14:35:59.999Z</time></trkpt><trkpt lat="46.002199055945674" lon="13.334322993823854"><ele>66.66666666666667</ele><time>2026-03-28T14:36:00.999Z</time></trkpt><trkpt lat="46.002024684674964" lon="13.334397564128949"><ele>66.0</ele><time>2026-03-28T14:36:01.999Z</time></trkpt><trkpt lat="46.00185874892788" lon="13.334460054520372"><ele>66.0</ele><time>2026-03-28T14:36:02.999Z</time></trkpt><trkpt lat="46.00170268507033" lon="13.334522244952481"><ele>66.0</ele><time>2026-03-28T14:36:03.999Z</time></trkpt><trkpt lat="46.00154703606894" lon="13.334586631374032"><ele>66.0</ele><time>2026-03-28T14:36:04.999Z</time></trkpt><trkpt lat="46.001367455103875" lon="13.334660661288495"><ele>66.0</ele><time>2026-03-28T14:36:05.999Z</time></trkpt><trkpt lat="46.00117782355809" lon="13.33473119797405"><ele>66.0</ele><time>2026-03-28T14:36:06.999Z</time></trkpt><trkpt lat="46.000993074301626" lon="13.33480253137052"><ele>66.0</ele><time>2026-03-28T14:36:07.999Z</time></trkpt><trkpt lat="46.00082089801146" lon="13.334871423535501"><ele>65.5</ele><time>2026-03-28T14:36:08.999Z</time></trkpt><trkpt lat="46.000668078366665" lon="13.334932037741224"><ele>65.0</ele><time>2026-03-28T14:36:09.999Z</time></trkpt><trkpt lat="46.00052772340362" lon="13.334986014982158"><ele>64.5</ele><time>2026-03-28T14:36:10.999Z</time></trkpt><trkpt lat="46.00039461002319" lon="13.33503782282675"><ele>64.0</ele><time>2026-03-28T14:36:11.999Z</time></trkpt><trkpt lat="46.000273644409475" lon="13.335083027872432"><ele>63.99999999999999</ele><time>2026-03-28T14:36:12.999Z</time></trkpt><trkpt lat="46.0001709367611" lon="13.33512060939865"><ele>64.0</ele><time>2026-03-28T14:36:14Z</time></trkpt><trkpt lat="46.00009521218823" lon="13.335155253613076"><ele>64.0</ele><time>2026-03-28T14:36:15Z</time></trkpt><trkpt lat="46.00003855775565" lon="13.335202788394218"><ele>64.0</ele><time>2026-03-28T14:36:16Z</time></trkpt><trkpt lat="46.00001259516589" lon="13.335296646235582"><ele>63.99999999999999</ele><time>2026-03-28T14:36:17Z</time></trkpt><trkpt lat="46.000014373454086" lon="13.335427088317982"><ele>64.0</ele><time>2026-03-28T14:36:18Z</time></trkpt><trkpt lat="46.00005173706199" lon="13.335605894354428"><ele>64.33333333333333</ele><time>2026-03-28T14:36:19Z</time></trkpt><trkpt lat="46.00008823619535" lon="13.33582355064148"><ele>64.66666666666667</ele><time>2026-03-28T14:36:20Z</time></trkpt><trkpt lat="46.000118353340355" lon="13.336056247411218"><ele>65.0</ele><time>2026-03-28T14:36:21Z</time></trkpt><trkpt lat="46.00015289015102" lon="13.33625454471358"><ele>65.25</ele><time>2026-03-28T14:36:22Z</time></trkpt><trkpt lat="46.00019145116505" lon="13.336425453566948"><ele>65.5</ele><time>2026-03-28T14:36:23Z</time></trkpt><trkpt lat="46.00022294249592" lon="13.336592740067042"><ele>65.75</ele><time>2026-03-28T14:36:24Z</time></trkpt><trkpt lat="46.0002262649549" lon="13.336769367761539"><ele>66.0</ele><time>2026-03-28T14:36:25Z</time></trkpt><trkpt lat="46.000187880736064" lon="13.33695338726472"><ele>66.0</ele><time>2026-03-28T14:36:26Z</time></trkpt><trkpt lat="46.00013203905815" lon="13.337138371138478"><ele>66.0</ele><time>2026-03-28T14:36:27Z</time></trkpt><trkpt lat="46.00009636457089" lon="13.337341503137603"><ele>66.0</ele><time>2026-03-28T14:36:28Z</time></trkpt><trkpt lat="46.00008153884126" lon="13.3375489560702"><ele>66.0</ele><time>2026-03-28T14:36:29Z</time></trkpt><trkpt lat="46.00008242953924" lon="13.33775757045977"><ele>65.75</ele><time>2026-03-28T14:36:30Z</time></trkpt><trkpt lat="46.00008495074244" lon="13.337939164266661"><ele>65.5</ele><time>2026-03-28T14:36:31Z</time></trkpt><trkpt lat="46.00007757279098" lon="13.33807432209231"><ele>65.25</ele><time>2026-03-28T14:36:32Z</time></trkpt><trkpt lat="46.00005785109827" lon="13.338224107203816"><ele>65.0</ele><time>2026-03-28T14:36:34Z</time></trkpt><trkpt lat="45.99992901410624" lon="13.33827414014996"><ele>65.0</ele><time>2026-03-28T14:36:36Z</time></trkpt><trkpt lat="45.99986882438954" lon="13.338395893290357"><ele>65.0</ele><time>2026-03-28T14:36:37Z</time></trkpt><trkpt lat="45.999833203042975" lon="13.338559563809898"><ele>65.0</ele><time>2026-03-28T14:36:38Z</time></trkpt><trkpt lat="45.99977315092739" lon="13.338752507889708"><ele>65.0</ele><time>2026-03-28T14:36:39Z</time></trkpt><trkpt lat="45.999715169039305" lon="13.338908459565285"><ele>65.25</ele><time>2026-03-28T14:36:40Z</time></trkpt><trkpt lat="45.999651844706456" lon="13.339055039863078"><ele>65.5</ele><time>2026-03-28T14:36:41Z</time></trkpt><trkpt lat="45.9995712722368" lon="13.33918829062415"><ele>65.75</ele><time>2026-03-28T14:36:42Z</time></trkpt><trkpt lat="45.99946285882517" lon="13.339273707689056"><ele>66.0</ele><time>2026-03-28T14:36:43Z</time></trkpt><trkpt lat="45.99935672784156" lon="13.339398565406103"><ele>66.0</ele><time>2026-03-28T14:36:44Z</time></trkpt><trkpt lat="45.999211498354" lon="13.339482948281486"><ele>66.0</ele><time>2026-03-28T14:36:45Z</time></trkpt><trkpt lat="45.99906342183346" lon="13.33958929825688"><ele>66.0</ele><time>2026-03-28T14:36:46Z</time></trkpt><trkpt lat="45.9989333251782" lon="13.339678180489457"><ele>65.75</ele><time>2026-03-28T14:36:47Z</time></trkpt><trkpt lat="45.99879820641737" lon="13.33974452535589"><ele>65.5</ele><time>2026-03-28T14:36:48Z</time></trkpt><trkpt lat="45.99864877323866" lon="13.33977730272457"><ele>65.25</ele><time>2026-03-28T14:36:49Z</time></trkpt><trkpt lat="45.99849919638599" lon="13.339771347507057"><ele>65.0</ele><time>2026-03-28T14:36:50Z</time></trkpt><trkpt lat="45.998343697037484" lon="13.339726799287364"><ele>64.5</ele><time>2026-03-28T14:36:51Z</time></trkpt><trkpt lat="45.99820177974592" lon="13.339665382644462"><ele>64.0</ele><time>2026-03-28T14:36:52Z</time></trkpt><trkpt lat="45.998084701554696" lon="13.339619342783541"><ele>63.5</ele><time>2026-03-28T14:36:53Z</time></trkpt><trkpt lat="45.997980494758814" lon="13.339591169664288"><ele>63.0</ele><time>2026-03-28T14:36:54Z</time></trkpt><trkpt lat="45.997873239435165" lon="13.339609891700192"><ele>63.0</ele><time>2026-03-28T14:36:55Z</time></trkpt><trkpt lat="45.997775727617636" lon="13.339662103346"><ele>63.0</ele><time>2026-03-28T14:36:56Z</time></trkpt><trkpt lat="45.99768895469758" lon="13.339771608821858"><ele>63.0</ele><time>2026-03-28T14:36:57Z</time></trkpt><trkpt lat="45.99762172902915" lon="13.339943040095333"><ele>63.0</ele><time>2026-03-28T14:36:58Z</time></trkpt><trkpt lat="45.9975522983086" lon="13.340152309468044"><ele>63.25</ele><time>2026-03-28T14:36:59Z</time></trkpt><trkpt lat="45.99748325029674" lon="13.340335573471862"><ele>63.5</ele><time>2026-03-28T14:37:00Z</time></trkpt><trkpt lat="45.997384261966225" lon="13.340446149087226"><ele>63.75</ele><time>2026-03-28T14:37:01Z</time></trkpt><trkpt lat="45.99727047828961" lon="13.340518306091774"><ele>64.0</ele><time>2026-03-28T14:37:02Z</time></trkpt><trkpt lat="45.997133937074636" lon="13.340540234490797"><ele>64.0</ele><time>2026-03-28T14:37:03Z</time></trkpt><trkpt lat="45.99699298204314" lon="13.340543270421334"><ele>64.0</ele><time>2026-03-28T14:37:04Z</time></trkpt><trkpt lat="45.996853581299895" lon="13.340455191999263"><ele>64.0</ele><time>2026-03-28T14:37:05Z</time></trkpt><trkpt lat="45.99671762905761" lon="13.340347668737765"><ele>64.0</ele><time>2026-03-28T14:37:06Z</time></trkpt><trkpt lat="45.99660327908875" lon="13.340263398532665"><ele>64.0</ele><time>2026-03-28T14:37:07Z</time></trkpt><trkpt lat="45.99649512938603" lon="13.340192969571293"><ele>64.0</ele><time>2026-03-28T14:37:08Z</time></trkpt><trkpt lat="45.99640456551166" lon="13.34012729501937"><ele>64.0</ele><time>2026-03-28T14:37:09Z</time></trkpt><trkpt lat="45.996315110304785" lon="13.34006794316934"><ele>64.0</ele><time>2026-03-28T14:37:10Z</time></trkpt><trkpt lat="45.996195928363186" lon="13.339997421460083"><ele>64.0</ele><time>2026-03-28T14:37:11Z</time></trkpt><trkpt lat="45.99605558227001" lon="13.33994467281441"><ele>64.0</ele><time>2026-03-28T14:37:12Z</time></trkpt><trkpt lat="45.99589647038079" lon="13.339923841908707"><ele>64.0</ele><time>2026-03-28T14:37:13Z</time></trkpt><trkpt lat="45.995731286081686" lon="13.339949231213826"><ele>64.0</ele><time>2026-03-28T14:37:14Z</time></trkpt><trkpt lat="45.995562499556236" lon="13.340029979445724"><ele>63.33333333333333</ele><time>2026-03-28T14:37:14.999Z</time></trkpt><trkpt lat="45.99538993547151" lon="13.340140179522438"><ele>62.66666666666667</ele><time>2026-03-28T14:37:15.999Z</time></trkpt><trkpt lat="45.99520315932212" lon="13.340227394922621"><ele>62.0</ele><time>2026-03-28T14:37:16.999Z</time></trkpt><trkpt lat="45.99503614733302" lon="13.340355481600911"><ele>62.0</ele><time>2026-03-28T14:37:17.999Z</time></trkpt><trkpt lat="45.994880248600865" lon="13.340427177977157"><ele>62.0</ele><time>2026-03-28T14:37:18.999Z</time></trkpt><trkpt lat="45.99474140761527" lon="13.340513523311602"><ele>62.0</ele><time>2026-03-28T14:37:19.999Z</time></trkpt><trkpt lat="45.99461581716919" lon="13.340591628367925"><ele>62.0</ele><time>2026-03-28T14:37:20.999Z</time></trkpt><trkpt lat="45.994498424412484" lon="13.340664635231793"><ele>62.0</ele><time>2026-03-28T14:37:21.999Z</time></trkpt><trkpt lat="45.994392144336246" lon="13.340755976461255"><ele>62.0</ele><time>2026-03-28T14:37:22.999Z</time></trkpt><trkpt lat="45.99427749693306" lon="13.34082685070291"><ele>62.0</ele><time>2026-03-28T14:37:23.999Z</time></trkpt><trkpt lat="45.99416148249673" lon="13.340898930811703"><ele>62.0</ele><time>2026-03-28T14:37:24.999Z</time></trkpt><trkpt lat="45.994041141494186" lon="13.340968060638282"><ele>62.0</ele><time>2026-03-28T14:37:25.999Z</time></trkpt><trkpt lat="45.993905047106985" lon="13.341037215868694"><ele>62.0</ele><time>2026-03-28T14:37:26.999Z</time></trkpt><trkpt lat="45.99375267452288" lon="13.341067322404385"><ele>62.0</ele><time>2026-03-28T14:37:27.999Z</time></trkpt><trkpt lat="45.993592667450955" lon="13.341113563833526"><ele>62.0</ele><time>2026-03-28T14:37:28.999Z</time></trkpt><trkpt lat="45.99341812469271" lon="13.341161758178071"><ele>62.0</ele><time>2026-03-28T14:37:29.999Z</time></trkpt><trkpt lat="45.99323166049255" lon="13.341215612994088"><ele>62.0</ele><time>2026-03-28T14:37:30.999Z</time></trkpt><trkpt lat="45.99303348389748" lon="13.341275029711827"><ele>61.333333333333336</ele><time>2026-03-28T14:37:31.999Z</time></trkpt><trkpt lat="45.99283367231887" lon="13.34134133418662"><ele>60.66666666666667</ele><time>2026-03-28T14:37:32.999Z</time></trkpt><trkpt lat="45.99263412478668" lon="13.341411970826222"><ele>60.0</ele><time>2026-03-28T14:37:33.999Z</time></trkpt><trkpt lat="45.99244235038983" lon="13.341482613068873"><ele>59.66666666666667</ele><time>2026-03-28T14:37:34.999Z</time></trkpt><trkpt lat="45.992259184809434" lon="13.341550138960944"><ele>59.333333333333336</ele><time>2026-03-28T14:37:35.999Z</time></trkpt><trkpt lat="45.99208428231606" lon="13.341614618619031"><ele>59.0</ele><time>2026-03-28T14:37:36.999Z</time></trkpt><trkpt lat="45.99191522829755" lon="13.341676942187005"><ele>59.0</ele><time>2026-03-28T14:37:37.999Z</time></trkpt><trkpt lat="45.99174841011951" lon="13.341738441442972"><ele>59.0</ele><time>2026-03-28T14:37:38.999Z</time></trkpt><trkpt lat="45.99158060667568" lon="13.341800303927062"><ele>59.0</ele><time>2026-03-28T14:37:39.999Z</time></trkpt><trkpt lat="45.99141193109175" lon="13.341863763175315"><ele>58.333333333333336</ele><time>2026-03-28T14:37:40.999Z</time></trkpt><trkpt lat="45.99123757651939" lon="13.341929489678343"><ele>57.66666666666667</ele><time>2026-03-28T14:37:41.999Z</time></trkpt><trkpt lat="45.99105117014366" lon="13.341999945217387"><ele>57.0</ele><time>2026-03-28T14:37:42.999Z</time></trkpt><trkpt lat="45.99085363123436" lon="13.342073924486016"><ele>57.0</ele><time>2026-03-28T14:37:43.999Z</time></trkpt><trkpt lat="45.99064802696149" lon="13.342149888475593"><ele>57.0</ele><time>2026-03-28T14:37:44.999Z</time></trkpt><trkpt lat="45.99043760808929" lon="13.342227631238643"><ele>57.0</ele><time>2026-03-28T14:37:45.999Z</time></trkpt><trkpt lat="45.9902239353041" lon="13.342330338828285"><ele>57.5</ele><time>2026-03-28T14:37:46.999Z</time></trkpt><trkpt lat="45.99000022494259" lon="13.342402733903233"><ele>58.0</ele><time>2026-03-28T14:37:47.999Z</time></trkpt><trkpt lat="45.98976823639693" lon="13.342458341076858"><ele>58.0</ele><time>2026-03-28T14:37:48.999Z</time></trkpt><trkpt lat="45.98953101386766" lon="13.342498940030236"><ele>58.0</ele><time>2026-03-28T14:37:49.999Z</time></trkpt><trkpt lat="45.989292741857724" lon="13.342528139416803"><ele>58.5</ele><time>2026-03-28T14:37:50.999Z</time></trkpt><trkpt lat="45.98905505488776" lon="13.342559213444067"><ele>59.0</ele><time>2026-03-28T14:37:51.999Z</time></trkpt><trkpt lat="45.98882482292318" lon="13.342592566952062"><ele>59.0</ele><time>2026-03-28T14:37:52.999Z</time></trkpt><trkpt lat="45.98859794100405" lon="13.342603657830933"><ele>59.0</ele><time>2026-03-28T14:37:53.999Z</time></trkpt><trkpt lat="45.98837741081388" lon="13.342646646583479"><ele>58.66666666666667</ele><time>2026-03-28T14:37:54.999Z</time></trkpt><trkpt lat="45.98816235684614" lon="13.342700284828553"><ele>58.33333333333333</ele><time>2026-03-28T14:37:55.999Z</time></trkpt><trkpt lat="45.987955064538745" lon="13.342768429088109"><ele>58.0</ele><time>2026-03-28T14:37:56.999Z</time></trkpt><trkpt lat="45.98775206502247" lon="13.342842865833516"><ele>58.0</ele><time>2026-03-28T14:37:57.999Z</time></trkpt><trkpt lat="45.98755812172875" lon="13.342934277530265"><ele>58.0</ele><time>2026-03-28T14:37:58.999Z</time></trkpt><trkpt lat="45.98737079979518" lon="13.343026953597796"><ele>58.0</ele><time>2026-03-28T14:37:59.999Z</time></trkpt><trkpt lat="45.98718847512972" lon="13.343120781739813"><ele>57.666666666666664</ele><time>2026-03-28T14:38:00.999Z</time></trkpt><trkpt lat="45.98701615520544" lon="13.343236574713845"><ele>57.33333333333333</ele><time>2026-03-28T14:38:01.999Z</time></trkpt><trkpt lat="45.986838056221764" lon="13.343329857299087"><ele>57.0</ele><time>2026-03-28T14:38:02.999Z</time></trkpt><trkpt lat="45.98666064191579" lon="13.343426134679119"><ele>57.0</ele><time>2026-03-28T14:38:03.999Z</time></trkpt><trkpt lat="45.9864902660507" lon="13.34352038675468"><ele>57.0</ele><time>2026-03-28T14:38:04.999Z</time></trkpt><trkpt lat="45.986328431929074" lon="13.343608621655637"><ele>57.0</ele><time>2026-03-28T14:38:05.999Z</time></trkpt><trkpt lat="45.98618307097158" lon="13.343687813873848"><ele>57.0</ele><time>2026-03-28T14:38:06.999Z</time></trkpt><trkpt lat="45.98604811204765" lon="13.34376148605094"><ele>57.0</ele><time>2026-03-28T14:38:07.999Z</time></trkpt><trkpt lat="45.98592348361518" lon="13.343832139324302"><ele>57.0</ele><time>2026-03-28T14:38:08.999Z</time></trkpt><trkpt lat="45.98581445271116" lon="13.343892049639683"><ele>57.0</ele><time>2026-03-28T14:38:09.999Z</time></trkpt><trkpt lat="45.985719732136175" lon="13.34394346365442"><ele>57.0</ele><time>2026-03-28T14:38:10.999Z</time></trkpt><trkpt lat="45.98563952783331" lon="13.343960566548214"><ele>57.0</ele><time>2026-03-28T14:38:11.999Z</time></trkpt><trkpt lat="45.98556591660709" lon="13.343940933393426"><ele>57.0</ele><time>2026-03-28T14:38:12.999Z</time></trkpt><trkpt lat="45.98551255797074" lon="13.343859252528022"><ele>57.0</ele><time>2026-03-28T14:38:13.999Z</time></trkpt><trkpt lat="45.985433224793724" lon="13.343779680043273"><ele>57.0</ele><time>2026-03-28T14:38:14.999Z</time></trkpt><trkpt lat="45.98534334476563" lon="13.343681096924872"><ele>57.0</ele><time>2026-03-28T14:38:15.999Z</time></trkpt><trkpt lat="45.98523640004923" lon="13.343582930440238"><ele>57.0</ele><time>2026-03-28T14:38:16.999Z</time></trkpt><trkpt lat="45.98514043437472" lon="13.34348736884105"><ele>57.0</ele><time>2026-03-28T14:38:17.999Z</time></trkpt><trkpt lat="45.98505354055905" lon="13.343408359697472"><ele>57.0</ele><time>2026-03-28T14:38:18.999Z</time></trkpt><trkpt lat="45.984959424440724" lon="13.3433530744425"><ele>57.0</ele><time>2026-03-28T14:38:20Z</time></trkpt><trkpt lat="45.98486374563597" lon="13.343347488968162"><ele>57.0</ele><time>2026-03-28T14:38:21Z</time></trkpt><trkpt lat="45.98476633305589" lon="13.343386264078383"><ele>57.400000000000006</ele><time>2026-03-28T14:38:22Z</time></trkpt><trkpt lat="45.98467734780045" lon="13.343460490240101"><ele>57.800000000000004</ele><time>2026-03-28T14:38:23Z</time></trkpt><trkpt lat="45.984607061275305" lon="13.34356964261545"><ele>58.2</ele><time>2026-03-28T14:38:24Z</time></trkpt><trkpt lat="45.98453318990203" lon="13.343677444665559"><ele>58.6</ele><time>2026-03-28T14:38:25Z</time></trkpt><trkpt lat="45.984443101366516" lon="13.343751267088834"><ele>59.0</ele><time>2026-03-28T14:38:26Z</time></trkpt><trkpt lat="45.98433038345555" lon="13.343807085532108"><ele>59.0</ele><time>2026-03-28T14:38:27Z</time></trkpt><trkpt lat="45.98420380139243" lon="13.343860903168896"><ele>59.0</ele><time>2026-03-28T14:38:28Z</time></trkpt><trkpt lat="45.984078841884994" lon="13.343924145437667"><ele>59.0</ele><time>2026-03-28T14:38:29Z</time></trkpt><trkpt lat="45.98397498865208" lon="13.343992266240967"><ele>59.0</ele><time>2026-03-28T14:38:30Z</time></trkpt><trkpt lat="45.98389154504797" lon="13.344064765624225"><ele>58.400000000000006</ele><time>2026-03-28T14:38:31Z</time></trkpt><trkpt lat="45.98381894422014" lon="13.344133712082712"><ele>57.800000000000004</ele><time>2026-03-28T14:38:32Z</time></trkpt><trkpt lat="45.98375569354702" lon="13.344187851518637"><ele>57.199999999999996</ele><time>2026-03-28T14:38:33Z</time></trkpt><trkpt lat="45.983692643645604" lon="13.344193345207454"><ele>56.599999999999994</ele><time>2026-03-28T14:38:34Z</time></trkpt><trkpt lat="45.98360039780888" lon="13.344033089946844"><ele>56.0</ele><time>2026-03-28T14:38:36Z</time></trkpt><trkpt lat="45.98355987145912" lon="13.343915808377902"><ele>56.0</ele><time>2026-03-28T14:38:37Z</time></trkpt><trkpt lat="45.98351147280266" lon="13.343774788211286"><ele>56.0</ele><time>2026-03-28T14:38:38Z</time></trkpt><trkpt lat="45.98345579960229" lon="13.34361975197259"><ele>56.0</ele><time>2026-03-28T14:38:39Z</time></trkpt><trkpt lat="45.98338533370701" lon="13.343451283439224"><ele>56.0</ele><time>2026-03-28T14:38:40Z</time></trkpt><trkpt lat="45.983316425852856" lon="13.343298373473775"><ele>56.0</ele><time>2026-03-28T14:38:41Z</time></trkpt><trkpt lat="45.983255799037025" lon="13.34317576421505"><ele>55.99999999999999</ele><time>2026-03-28T14:38:42Z</time></trkpt><trkpt lat="45.983184938930805" lon="13.343074619429093"><ele>55.99999999999999</ele><time>2026-03-28T14:38:43Z</time></trkpt><trkpt lat="45.98309384769385" lon="13.343011082223143"><ele>56.0</ele><time>2026-03-28T14:38:44Z</time></trkpt><trkpt lat="45.98297943037644" lon="13.342994423652282"><ele>56.0</ele><time>2026-03-28T14:38:45Z</time></trkpt><trkpt lat="45.98285291924411" lon="13.343016790451564"><ele>56.0</ele><time>2026-03-28T14:38:46Z</time></trkpt><trkpt lat="45.982723740638576" lon="13.343070678103816"><ele>56.0</ele><time>2026-03-28T14:38:47Z</time></trkpt><trkpt lat="45.982609612868906" lon="13.343116596710246"><ele>56.0</ele><time>2026-03-28T14:38:48Z</time></trkpt><trkpt lat="45.98249187153028" lon="13.343106697203375"><ele>56.0</ele><time>2026-03-28T14:38:49Z</time></trkpt><trkpt lat="45.982370109655236" lon="13.343039050270336"><ele>55.4</ele><time>2026-03-28T14:38:50Z</time></trkpt><trkpt lat="45.98227463956752" lon="13.342963786698261"><ele>54.8</ele><time>2026-03-28T14:38:51Z</time></trkpt><trkpt lat="45.9821997518807" lon="13.34289312312642"><ele>54.199999999999996</ele><time>2026-03-28T14:38:52Z</time></trkpt><trkpt lat="45.98215060933803" lon="13.342812301346978"><ele>53.599999999999994</ele><time>2026-03-28T14:38:53Z</time></trkpt><trkpt lat="45.9821082856114" lon="13.342635760211696"><ele>53.0</ele><time>2026-03-28T14:38:55Z</time></trkpt><trkpt lat="45.98207485388812" lon="13.342509774859295"><ele>53.0</ele><time>2026-03-28T14:38:56Z</time></trkpt><trkpt lat="45.982029596679" lon="13.342357836404409"><ele>53.0</ele><time>2026-03-28T14:38:57Z</time></trkpt><trkpt lat="45.98197195785522" lon="13.342155102126153"><ele>53.0</ele><time>2026-03-28T14:38:58Z</time></trkpt><trkpt lat="45.981898354758094" lon="13.341912423727376"><ele>53.0</ele><time>2026-03-28T14:38:59Z</time></trkpt><trkpt lat="45.981816194377096" lon="13.341644747942484"><ele>53.0</ele><time>2026-03-28T14:39:00Z</time></trkpt><trkpt lat="45.98172724805218" lon="13.341340734462658"><ele>53.0</ele><time>2026-03-28T14:39:01Z</time></trkpt><trkpt lat="45.9816301794185" lon="13.341014143750362"><ele>53.0</ele><time>2026-03-28T14:39:02Z</time></trkpt><trkpt lat="45.981519557835355" lon="13.340680676293939"><ele>53.0</ele><time>2026-03-28T14:39:03Z</time></trkpt><trkpt lat="45.98140870662371" lon="13.34033110709807"><ele>53.0</ele><time>2026-03-28T14:39:04Z</time></trkpt><trkpt lat="45.981244837923825" lon="13.340017760237172"><ele>53.0</ele><time>2026-03-28T14:39:05Z</time></trkpt><trkpt lat="45.98108293468365" lon="13.339688424579563"><ele>53.5</ele><time>2026-03-28T14:39:06Z</time></trkpt><trkpt lat="45.98091732457791" lon="13.339358189681452"><ele>54.0</ele><time>2026-03-28T14:39:07Z</time></trkpt><trkpt lat="45.980750527251644" lon="13.339021749148005"><ele>55.5</ele><time>2026-03-28T14:39:08Z</time></trkpt><trkpt lat="45.980583435994426" lon="13.338681580210789"><ele>57.0</ele><time>2026-03-28T14:39:09Z</time></trkpt><trkpt lat="45.98041628954246" lon="13.33833786927617"><ele>57.0</ele><time>2026-03-28T14:39:10Z</time></trkpt><trkpt lat="45.98024533336863" lon="13.33799367870451"><ele>57.0</ele><time>2026-03-28T14:39:11Z</time></trkpt><trkpt lat="45.98007342818827" lon="13.337645686629937"><ele>57.0</ele><time>2026-03-28T14:39:12Z</time></trkpt><trkpt lat="45.97989976808004" lon="13.33729273593136"><ele>57.0</ele><time>2026-03-28T14:39:13Z</time></trkpt><trkpt lat="45.97972582522364" lon="13.336935990993158"><ele>57.0</ele><time>2026-03-28T14:39:14Z</time></trkpt><trkpt lat="45.97955504705359" lon="13.336574310925236"><ele>57.0</ele><time>2026-03-28T14:39:15Z</time></trkpt><trkpt lat="45.97939238441041" lon="13.33621980968037"><ele>57.0</ele><time>2026-03-28T14:39:16Z</time></trkpt><trkpt lat="45.97923666156647" lon="13.335871007528883"><ele>57.0</ele><time>2026-03-28T14:39:17Z</time></trkpt><trkpt lat="45.97908519895214" lon="13.335528961981094"><ele>58.0</ele><time>2026-03-28T14:39:18Z</time></trkpt><trkpt lat="45.978938468271714" lon="13.33519364670494"><ele>59.0</ele><time>2026-03-28T14:39:18.999Z</time></trkpt><trkpt lat="45.978793998206534" lon="13.334866228033482"><ele>59.0</ele><time>2026-03-28T14:39:19.999Z</time></trkpt><trkpt lat="45.978652788343204" lon="13.334545420341147"><ele>59.0</ele><time>2026-03-28T14:39:20.999Z</time></trkpt><trkpt lat="45.97851692985179" lon="13.334233011471545"><ele>59.0</ele><time>2026-03-28T14:39:21.999Z</time></trkpt><trkpt lat="45.97838433198266" lon="13.333925693178285"><ele>59.0</ele><time>2026-03-28T14:39:22.999Z</time></trkpt><trkpt lat="45.97825338515621" lon="13.333621086350309"><ele>57.0</ele><time>2026-03-28T14:39:23.999Z</time></trkpt><trkpt lat="45.978122726014185" lon="13.333322253897148"><ele>55.0</ele><time>2026-03-28T14:39:24.999Z</time></trkpt><trkpt lat="45.97799238249923" lon="13.333031673949993"><ele>55.0</ele><time>2026-03-28T14:39:25.999Z</time></trkpt><trkpt lat="45.97786272957883" lon="13.332747400382774"><ele>55.0</ele><time>2026-03-28T14:39:26.999Z</time></trkpt><trkpt lat="45.97773942234413" lon="13.332461491950735"><ele>56.0</ele><time>2026-03-28T14:39:27.999Z</time></trkpt><trkpt lat="45.97761844554089" lon="13.332177744181108"><ele>57.0</ele><time>2026-03-28T14:39:28.999Z</time></trkpt><trkpt lat="45.97749609743224" lon="13.331901050948911"><ele>57.0</ele><time>2026-03-28T14:39:29.999Z</time></trkpt><trkpt lat="45.97737500692211" lon="13.331628277815271"><ele>57.0</ele><time>2026-03-28T14:39:30.999Z</time></trkpt><trkpt lat="45.97725645005016" lon="13.331357135489238"><ele>57.0</ele><time>2026-03-28T14:39:31.999Z</time></trkpt><trkpt lat="45.977141115626154" lon="13.331088859039895"><ele>57.0</ele><time>2026-03-28T14:39:32.999Z</time></trkpt><trkpt lat="45.9770293996098" lon="13.330830987882356"><ele>57.0</ele><time>2026-03-28T14:39:33.999Z</time></trkpt><trkpt lat="45.976922664412385" lon="13.330585977813499"><ele>57.0</ele><time>2026-03-28T14:39:34.999Z</time></trkpt><trkpt lat="45.97681816187477" lon="13.330351297281979"><ele>57.66666666666667</ele><time>2026-03-28T14:39:35.999Z</time></trkpt><trkpt lat="45.97672114407675" lon="13.330131181713567"><ele>58.333333333333336</ele><time>2026-03-28T14:39:36.999Z</time></trkpt><trkpt lat="45.9766325524979" lon="13.32992172397482"><ele>59.0</ele><time>2026-03-28T14:39:37.999Z</time></trkpt><trkpt lat="45.97655278453425" lon="13.329717747972913"><ele>59.0</ele><time>2026-03-28T14:39:38.999Z</time></trkpt><trkpt lat="45.97647945532116" lon="13.329497194959762"><ele>59.0</ele><time>2026-03-28T14:39:39.999Z</time></trkpt><trkpt lat="45.97641117283799" lon="13.329262858870027"><ele>59.0</ele><time>2026-03-28T14:39:40.999Z</time></trkpt><trkpt lat="45.97634946484218" lon="13.329035335864656"><ele>58.75</ele><time>2026-03-28T14:39:41.999Z</time></trkpt><trkpt lat="45.97629390216492" lon="13.328830015184513"><ele>58.5</ele><time>2026-03-28T14:39:42.999Z</time></trkpt><trkpt lat="45.9762425304924" lon="13.328642405445636"><ele>58.25</ele><time>2026-03-28T14:39:43.999Z</time></trkpt><trkpt lat="45.976190725163896" lon="13.328466675077035"><ele>58.0</ele><time>2026-03-28T14:39:44.999Z</time></trkpt><trkpt lat="45.97614038047252" lon="13.328315120227511"><ele>58.0</ele><time>2026-03-28T14:39:45.999Z</time></trkpt><trkpt lat="45.97608570845069" lon="13.328183418959778"><ele>58.0</ele><time>2026-03-28T14:39:46.999Z</time></trkpt><trkpt lat="45.9760269930568" lon="13.328064745527985"><ele>58.0</ele><time>2026-03-28T14:39:47.999Z</time></trkpt><trkpt lat="45.97598037493668" lon="13.327925034956364"><ele>58.0</ele><time>2026-03-28T14:39:48.999Z</time></trkpt><trkpt lat="45.97595547222489" lon="13.327750832965611"><ele>58.0</ele><time>2026-03-28T14:39:49.999Z</time></trkpt><trkpt lat="45.975918546269426" lon="13.327554559149133"><ele>58.33333333333333</ele><time>2026-03-28T14:39:50.999Z</time></trkpt><trkpt lat="45.97586963258567" lon="13.32733581088133"><ele>58.66666666666667</ele><time>2026-03-28T14:39:51.999Z</time></trkpt><trkpt lat="45.97581820316052" lon="13.327099879162347"><ele>59.0</ele><time>2026-03-28T14:39:52.999Z</time></trkpt><trkpt lat="45.97575158598465" lon="13.326858150472892"><ele>59.0</ele><time>2026-03-28T14:39:53.999Z</time></trkpt><trkpt lat="45.97567665644727" lon="13.326610144301446"><ele>59.0</ele><time>2026-03-28T14:39:54.999Z</time></trkpt><trkpt lat="45.97560303023201" lon="13.326363235433098"><ele>59.0</ele><time>2026-03-28T14:39:55.999Z</time></trkpt><trkpt lat="45.975535759570064" lon="13.326123968477576"><ele>58.333333333333336</ele><time>2026-03-28T14:39:56.999Z</time></trkpt><trkpt lat="45.9754697673943" lon="13.325891710729483"><ele>57.66666666666667</ele><time>2026-03-28T14:39:57.999Z</time></trkpt><trkpt lat="45.97540619189674" lon="13.325664986630274"><ele>57.0</ele><time>2026-03-28T14:39:58.999Z</time></trkpt><trkpt lat="45.97534628010606" lon="13.325437557971469"><ele>57.0</ele><time>2026-03-28T14:39:59.999Z</time></trkpt><trkpt lat="45.9752870929418" lon="13.325213104692454"><ele>57.0</ele><time>2026-03-28T14:40:00.999Z</time></trkpt><trkpt lat="45.975225224644916" lon="13.324992013994146"><ele>57.0</ele><time>2026-03-28T14:40:01.999Z</time></trkpt><trkpt lat="45.975163167467834" lon="13.324774558931928"><ele>56.66666666666667</ele><time>2026-03-28T14:40:02.999Z</time></trkpt><trkpt lat="45.975100192904115" lon="13.324561817282698"><ele>56.333333333333336</ele><time>2026-03-28T14:40:03.999Z</time></trkpt><trkpt lat="45.97504116270607" lon="13.32436215483486"><ele>56.0</ele><time>2026-03-28T14:40:04.999Z</time></trkpt><trkpt lat="45.97498479219218" lon="13.324176198460865"><ele>56.5</ele><time>2026-03-28T14:40:05.999Z</time></trkpt><trkpt lat="45.97492807644478" lon="13.323988739401754"><ele>57.0</ele><time>2026-03-28T14:40:06.999Z</time></trkpt><trkpt lat="45.97487130880551" lon="13.323804119931125"><ele>57.5</ele><time>2026-03-28T14:40:07.999Z</time></trkpt><trkpt lat="45.97481512122228" lon="13.323623642415821"><ele>58.0</ele><time>2026-03-28T14:40:08.999Z</time></trkpt><trkpt lat="45.97476095367423" lon="13.323447696354886"><ele>58.0</ele><time>2026-03-28T14:40:09.999Z</time></trkpt><trkpt lat="45.97471050393525" lon="13.323280523843696"><ele>58.0</ele><time>2026-03-28T14:40:10.999Z</time></trkpt><trkpt lat="45.974663864729905" lon="13.323127065210816"><ele>58.0</ele><time>2026-03-28T14:40:11.999Z</time></trkpt><trkpt lat="45.97462323330992" lon="13.322986479141935"><ele>58.0</ele><time>2026-03-28T14:40:12.999Z</time></trkpt><trkpt lat="45.974588655041366" lon="13.322858930144053"><ele>58.0</ele><time>2026-03-28T14:40:13.999Z</time></trkpt><trkpt lat="45.97455510827315" lon="13.322739886674723"><ele>57.99999999999999</ele><time>2026-03-28T14:40:14.999Z</time></trkpt><trkpt lat="45.974521223873104" lon="13.32261348526543"><ele>58.0</ele><time>2026-03-28T14:40:15.999Z</time></trkpt><trkpt lat="45.97449318011707" lon="13.322476391044445"><ele>58.0</ele><time>2026-03-28T14:40:16.999Z</time></trkpt><trkpt lat="45.974469787379576" lon="13.322346571006877"><ele>58.0</ele><time>2026-03-28T14:40:17.999Z</time></trkpt><trkpt lat="45.97445098398929" lon="13.32223427112347"><ele>57.99999999999999</ele><time>2026-03-28T14:40:18.999Z</time></trkpt><trkpt lat="45.97443223372113" lon="13.32213011273479"><ele>58.0</ele><time>2026-03-28T14:40:19.999Z</time></trkpt><trkpt lat="45.97439321048779" lon="13.32203654816482"><ele>58.0</ele><time>2026-03-28T14:40:20.999Z</time></trkpt><trkpt lat="45.97432567851469" lon="13.321950370399982"><ele>58.0</ele><time>2026-03-28T14:40:21.999Z</time></trkpt><trkpt lat="45.974247379908505" lon="13.32187315951248"><ele>58.0</ele><time>2026-03-28T14:40:22.999Z</time></trkpt><trkpt lat="45.97417196787155" lon="13.321777196567927"><ele>58.0</ele><time>2026-03-28T14:40:23.999Z</time></trkpt><trkpt lat="45.97409651803153" lon="13.321659845628972"><ele>58.0</ele><time>2026-03-28T14:40:24.999Z</time></trkpt><trkpt lat="45.974021088976905" lon="13.321532701240649"><ele>57.75</ele><time>2026-03-28T14:40:26Z</time></trkpt><trkpt lat="45.97395010388478" lon="13.321397273325696"><ele>57.5</ele><time>2026-03-28T14:40:27Z</time></trkpt><trkpt lat="45.97389009029908" lon="13.321251238177387"><ele>57.25</ele><time>2026-03-28T14:40:28Z</time></trkpt><trkpt lat="45.973837430162526" lon="13.321097616982769"><ele>57.0</ele><time>2026-03-28T14:40:29Z</time></trkpt><trkpt lat="45.97377900540555" lon="13.320938564870955"><ele>57.0</ele><time>2026-03-28T14:40:30Z</time></trkpt><trkpt lat="45.97372010076659" lon="13.320776493071289"><ele>57.0</ele><time>2026-03-28T14:40:31Z</time></trkpt><trkpt lat="45.97366322253249" lon="13.320628072551582"><ele>57.0</ele><time>2026-03-28T14:40:32Z</time></trkpt><trkpt lat="45.973608319639325" lon="13.320497781217494"><ele>57.0</ele><time>2026-03-28T14:40:33Z</time></trkpt><trkpt lat="45.97355825673941" lon="13.32037838273494"><ele>57.0</ele><time>2026-03-28T14:40:34Z</time></trkpt><trkpt lat="45.97350621789486" lon="13.320265883799213"><ele>57.0</ele><time>2026-03-28T14:40:35Z</time></trkpt><trkpt lat="45.97343284850936" lon="13.320177418422738"><ele>57.0</ele><time>2026-03-28T14:40:36Z</time></trkpt><trkpt lat="45.973340977167865" lon="13.32013541349448"><ele>57.0</ele><time>2026-03-28T14:40:37Z</time></trkpt><trkpt lat="45.9732419883739" lon="13.320131192959852"><ele>57.0</ele><time>2026-03-28T14:40:38Z</time></trkpt><trkpt lat="45.97314386696763" lon="13.320136456987"><ele>57.0</ele><time>2026-03-28T14:40:39Z</time></trkpt><trkpt lat="45.97304634265809" lon="13.320118892940862"><ele>56.8</ele><time>2026-03-28T14:40:40Z</time></trkpt><trkpt lat="45.97295309522815" lon="13.320088354807122"><ele>56.6</ele><time>2026-03-28T14:40:41Z</time></trkpt><trkpt lat="45.972857926965304" lon="13.320055919059591"><ele>56.39999999999999</ele><time>2026-03-28T14:40:42Z</time></trkpt><trkpt lat="45.97275905799619" lon="13.320009310230855"><ele>56.199999999999996</ele><time>2026-03-28T14:40:43Z</time></trkpt><trkpt lat="45.972658930687835" lon="13.319954974131042"><ele>56.0</ele><time>2026-03-28T14:40:44Z</time></trkpt><trkpt lat="45.97256633549191" lon="13.319872332260317"><ele>56.0</ele><time>2026-03-28T14:40:45Z</time></trkpt><trkpt lat="45.972480362144346" lon="13.319784176622672"><ele>55.99999999999999</ele><time>2026-03-28T14:40:46Z</time></trkpt><trkpt lat="45.97240962888745" lon="13.319683176287793"><ele>55.99999999999999</ele><time>2026-03-28T14:40:47Z</time></trkpt><trkpt lat="45.97235210110544" lon="13.319588191795331"><ele>56.0</ele><time>2026-03-28T14:40:48Z</time></trkpt><trkpt lat="45.97229898622422" lon="13.319496071911072"><ele>56.0</ele><time>2026-03-28T14:40:49Z</time></trkpt><trkpt lat="45.97225051544812" lon="13.319410351885788"><ele>56.00000000000001</ele><time>2026-03-28T14:40:50Z</time></trkpt><trkpt lat="45.972202158374074" lon="13.319329409561192"><ele>56.0</ele><time>2026-03-28T14:40:51Z</time></trkpt><trkpt lat="45.97215541831917" lon="13.319252337169607"><ele>56.0</ele><time>2026-03-28T14:40:52Z</time></trkpt><trkpt lat="45.97211117711635" lon="13.319175506676086"><ele>56.0</ele><time>2026-03-28T14:40:53Z</time></trkpt><trkpt lat="45.97206218416133" lon="13.319089006937293"><ele>56.00000000000001</ele><time>2026-03-28T14:40:54Z</time></trkpt><trkpt lat="45.97200941208785" lon="13.318992107726407"><ele>56.0</ele><time>2026-03-28T14:40:55Z</time></trkpt><trkpt lat="45.97195677088546" lon="13.318884363127784"><ele>55.8</ele><time>2026-03-28T14:40:56Z</time></trkpt><trkpt lat="45.971903969986734" lon="13.318762257550812"><ele>55.599999999999994</ele><time>2026-03-28T14:40:57Z</time></trkpt><trkpt lat="45.97185326394264" lon="13.318631264390916"><ele>55.4</ele><time>2026-03-28T14:40:58Z</time></trkpt><trkpt lat="45.971801089236756" lon="13.318493537229964"><ele>55.2</ele><time>2026-03-28T14:40:59Z</time></trkpt><trkpt lat="45.971744931933095" lon="13.318345119447866"><ele>55.0</ele><time>2026-03-28T14:41:00Z</time></trkpt><trkpt lat="45.97167139253174" lon="13.318200367169"><ele>54.75</ele><time>2026-03-28T14:41:01Z</time></trkpt><trkpt lat="45.9716298739946" lon="13.318039748216993"><ele>54.5</ele><time>2026-03-28T14:41:02Z</time></trkpt><trkpt lat="45.97157154464364" lon="13.31789866782566"><ele>54.25</ele><time>2026-03-28T14:41:03Z</time></trkpt><trkpt lat="45.971524285056994" lon="13.317757218705681"><ele>54.0</ele><time>2026-03-28T14:41:04Z</time></trkpt><trkpt lat="45.97146016571596" lon="13.3176334113689"><ele>54.0</ele><time>2026-03-28T14:41:05Z</time></trkpt><trkpt lat="45.97140161777644" lon="13.317508701663243"><ele>54.0</ele><time>2026-03-28T14:41:06Z</time></trkpt><trkpt lat="45.97132142433597" lon="13.31740357208883"><ele>54.0</ele><time>2026-03-28T14:41:07Z</time></trkpt><trkpt lat="45.971223167352456" lon="13.317314342676228"><ele>54.0</ele><time>2026-03-28T14:41:08Z</time></trkpt><trkpt lat="45.97110133519321" lon="13.317212032035028"><ele>54.0</ele><time>2026-03-28T14:41:09Z</time></trkpt><trkpt lat="45.97093760483461" lon="13.317117410185514"><ele>54.0</ele><time>2026-03-28T14:41:10Z</time></trkpt><trkpt lat="45.97075414700715" lon="13.317034468456324"><ele>54.0</ele><time>2026-03-28T14:41:11Z</time></trkpt><trkpt lat="45.97057573419682" lon="13.316916115165501"><ele>54.0</ele><time>2026-03-28T14:41:12Z</time></trkpt><trkpt lat="45.970400523457485" lon="13.316819984701256"><ele>54.0</ele><time>2026-03-28T14:41:13Z</time></trkpt><trkpt lat="45.97022484571404" lon="13.31673618169537"><ele>54.0</ele><time>2026-03-28T14:41:14Z</time></trkpt><trkpt lat="45.97004870657785" lon="13.316654284442867"><ele>54.0</ele><time>2026-03-28T14:41:15Z</time></trkpt><trkpt lat="45.96986685098228" lon="13.316614154390443"><ele>54.0</ele><time>2026-03-28T14:41:16Z</time></trkpt><trkpt lat="45.96969503066448" lon="13.316578913094645"><ele>54.0</ele><time>2026-03-28T14:41:17Z</time></trkpt><trkpt lat="45.96953407766201" lon="13.316565962382548"><ele>54.0</ele><time>2026-03-28T14:41:18Z</time></trkpt><trkpt lat="45.969389070298206" lon="13.316482848334337"><ele>54.0</ele><time>2026-03-28T14:41:19Z</time></trkpt><trkpt lat="45.96927254978769" lon="13.316350575792953"><ele>54.0</ele><time>2026-03-28T14:41:20Z</time></trkpt><trkpt lat="45.969166274642184" lon="13.316179780605703"><ele>53.75</ele><time>2026-03-28T14:41:21Z</time></trkpt><trkpt lat="45.96905633564201" lon="13.31599829030509"><ele>53.5</ele><time>2026-03-28T14:41:22Z</time></trkpt><trkpt lat="45.96896736010067" lon="13.31583504014706"><ele>53.25</ele><time>2026-03-28T14:41:23Z</time></trkpt><trkpt lat="45.96888724409731" lon="13.315700465206481"><ele>53.0</ele><time>2026-03-28T14:41:23.999Z</time></trkpt><trkpt lat="45.96880344477787" lon="13.315594143917858"><ele>52.75</ele><time>2026-03-28T14:41:24.999Z</time></trkpt><trkpt lat="45.968703732646574" lon="13.315522238549587"><ele>52.5</ele><time>2026-03-28T14:41:25.999Z</time></trkpt><trkpt lat="45.96857654679143" lon="13.31549891295779"><ele>52.25</ele><time>2026-03-28T14:41:26.999Z</time></trkpt><trkpt lat="45.96842015382701" lon="13.315545150958737"><ele>52.0</ele><time>2026-03-28T14:41:27.999Z</time></trkpt><trkpt lat="45.96825444080128" lon="13.31562779429658"><ele>52.666666666666664</ele><time>2026-03-28T14:41:28.999Z</time></trkpt><trkpt lat="45.968078689066886" lon="13.315758004474445"><ele>53.33333333333333</ele><time>2026-03-28T14:41:29.999Z</time></trkpt><trkpt lat="45.96790609275439" lon="13.315894006780391"><ele>54.0</ele><time>2026-03-28T14:41:30.999Z</time></trkpt><trkpt lat="45.967763635864856" lon="13.316008247950222"><ele>54.0</ele><time>2026-03-28T14:41:31.999Z</time></trkpt><trkpt lat="45.96763338257974" lon="13.31610285663946"><ele>54.0</ele><time>2026-03-28T14:41:32.999Z</time></trkpt><trkpt lat="45.96750994866282" lon="13.316165363242767"><ele>54.0</ele><time>2026-03-28T14:41:33.999Z</time></trkpt><trkpt lat="45.96738560937408" lon="13.316192769196972"><ele>54.0</ele><time>2026-03-28T14:41:34.999Z</time></trkpt><trkpt lat="45.9672508219226" lon="13.31617061577297"><ele>53.66666666666667</ele><time>2026-03-28T14:41:35.999Z</time></trkpt><trkpt lat="45.96710902824339" lon="13.316084387481736"><ele>53.333333333333336</ele><time>2026-03-28T14:41:36.999Z</time></trkpt><trkpt lat="45.96695436782335" lon="13.315971481632973"><ele>53.0</ele><time>2026-03-28T14:41:37.999Z</time></trkpt><trkpt lat="45.96679342442647" lon="13.315863269924595"><ele>53.0</ele><time>2026-03-28T14:41:38.999Z</time></trkpt><trkpt lat="45.96665983462107" lon="13.315772666166716"><ele>53.0</ele><time>2026-03-28T14:41:39.999Z</time></trkpt><trkpt lat="45.96651694483051" lon="13.315675583832896"><ele>53.0</ele><time>2026-03-28T14:41:40.999Z</time></trkpt><trkpt lat="45.966351535577736" lon="13.315566612251994"><ele>53.0</ele><time>2026-03-28T14:41:41.999Z</time></trkpt><trkpt lat="45.96618433888934" lon="13.315453362890594"><ele>53.0</ele><time>2026-03-28T14:41:42.999Z</time></trkpt><trkpt lat="45.966027032556866" lon="13.315350752734643"><ele>53.0</ele><time>2026-03-28T14:41:43.999Z</time></trkpt><trkpt lat="45.965877666349414" lon="13.31526025996689"><ele>52.5</ele><time>2026-03-28T14:41:44.999Z</time></trkpt><trkpt lat="45.96575258219842" lon="13.31516124387872"><ele>52.0</ele><time>2026-03-28T14:41:45.999Z</time></trkpt><trkpt lat="45.96562154609153" lon="13.315089116672409"><ele>51.5</ele><time>2026-03-28T14:41:46.999Z</time></trkpt><trkpt lat="45.965503064095174" lon="13.314955881130908"><ele>51.0</ele><time>2026-03-28T14:41:47.999Z</time></trkpt><trkpt lat="45.9654093848186" lon="13.314768999704903"><ele>52.0</ele><time>2026-03-28T14:41:48.999Z</time></trkpt><trkpt lat="45.96532195893567" lon="13.314544433333573"><ele>53.0</ele><time>2026-03-28T14:41:49.999Z</time></trkpt><trkpt lat="45.96521607037589" lon="13.314291348667227"><ele>54.0</ele><time>2026-03-28T14:41:50.999Z</time></trkpt><trkpt lat="45.965123796221214" lon="13.314042530691804"><ele>53.66666666666667</ele><time>2026-03-28T14:41:51.999Z</time></trkpt><trkpt lat="45.96504392991" lon="13.31383192724442"><ele>53.333333333333336</ele><time>2026-03-28T14:41:52.999Z</time></trkpt><trkpt lat="45.964970520672" lon="13.313645713954926"><ele>53.0</ele><time>2026-03-28T14:41:53.999Z</time></trkpt><trkpt lat="45.96490541861486" lon="13.313463599166507"><ele>53.0</ele><time>2026-03-28T14:41:54.999Z</time></trkpt><trkpt lat="45.964794635839056" lon="13.313331358794597"><ele>53.0</ele><time>2026-03-28T14:41:55.999Z</time></trkpt><trkpt lat="45.96469378593328" lon="13.313191002164094"><ele>53.0</ele><time>2026-03-28T14:41:56.999Z</time></trkpt><trkpt lat="45.964569015820935" lon="13.313135846761787"><ele>53.0</ele><time>2026-03-28T14:41:57.999Z</time></trkpt><trkpt lat="45.9644620863066" lon="13.313059792627039"><ele>53.0</ele><time>2026-03-28T14:41:58.999Z</time></trkpt><trkpt lat="45.96435874677717" lon="13.313029607793197"><ele>53.0</ele><time>2026-03-28T14:41:59.999Z</time></trkpt><trkpt lat="45.964279208503164" lon="13.312945703956263"><ele>53.0</ele><time>2026-03-28T14:42:00.999Z</time></trkpt><trkpt lat="45.96420620889175" lon="13.312860181546725"><ele>53.0</ele><time>2026-03-28T14:42:01.999Z</time></trkpt><trkpt lat="45.96413961446369" lon="13.312754731746686"><ele>53.0</ele><time>2026-03-28T14:42:02.999Z</time></trkpt><trkpt lat="45.96407381419579" lon="13.312620220313702"><ele>53.0</ele><time>2026-03-28T14:42:03.999Z</time></trkpt><trkpt lat="45.96397761893667" lon="13.312459935766542"><ele>53.0</ele><time>2026-03-28T14:42:04.999Z</time></trkpt><trkpt lat="45.963882044246205" lon="13.312281330692219"><ele>53.0</ele><time>2026-03-28T14:42:05.999Z</time></trkpt><trkpt lat="45.963750973238724" lon="13.31216127337832"><ele>53.0</ele><time>2026-03-28T14:42:06.999Z</time></trkpt><trkpt lat="45.963615229053545" lon="13.312088367563364"><ele>53.0</ele><time>2026-03-28T14:42:07.999Z</time></trkpt><trkpt lat="45.963497410689435" lon="13.312040475097472"><ele>53.0</ele><time>2026-03-28T14:42:08.999Z</time></trkpt><trkpt lat="45.9634036391513" lon="13.311981785604853"><ele>53.0</ele><time>2026-03-28T14:42:09.999Z</time></trkpt><trkpt lat="45.96332196448816" lon="13.311922922040003"><ele>53.0</ele><time>2026-03-28T14:42:10.999Z</time></trkpt><trkpt lat="45.963287781680464" lon="13.311764297755357"><ele>53.0</ele><time>2026-03-28T14:42:11.999Z</time></trkpt><trkpt lat="45.96321537831887" lon="13.311566029487354"><ele>53.0</ele><time>2026-03-28T14:42:12.999Z</time></trkpt><trkpt lat="45.963158583630474" lon="13.31132518283192"><ele>53.0</ele><time>2026-03-28T14:42:13.999Z</time></trkpt><trkpt lat="45.96307075023963" lon="13.311080610982954"><ele>52.66666666666667</ele><time>2026-03-28T14:42:14.999Z</time></trkpt><trkpt lat="45.962970744319534" lon="13.310829686722963"><ele>52.33333333333333</ele><time>2026-03-28T14:42:15.999Z</time></trkpt><trkpt lat="45.96286897205778" lon="13.310599427505359"><ele>52.0</ele><time>2026-03-28T14:42:16.999Z</time></trkpt><trkpt lat="45.96277857227807" lon="13.31039774871997"><ele>52.0</ele><time>2026-03-28T14:42:17.999Z</time></trkpt><trkpt lat="45.96268737364401" lon="13.310222105824677"><ele>52.0</ele><time>2026-03-28T14:42:18.999Z</time></trkpt><trkpt lat="45.96261481514802" lon="13.310067069781988"><ele>52.0</ele><time>2026-03-28T14:42:19.999Z</time></trkpt><trkpt lat="45.96255585578115" lon="13.30992241663655"><ele>52.0</ele><time>2026-03-28T14:42:20.999Z</time></trkpt><trkpt lat="45.96246489276002" lon="13.309825490386125"><ele>51.75</ele><time>2026-03-28T14:42:21.999Z</time></trkpt><trkpt lat="45.96231997557308" lon="13.309786926127607"><ele>51.5</ele><time>2026-03-28T14:42:22.999Z</time></trkpt><trkpt lat="45.962169062379616" lon="13.309831234533481"><ele>51.25</ele><time>2026-03-28T14:42:23.999Z</time></trkpt><trkpt lat="45.96205067054285" lon="13.30981646687973"><ele>51.0</ele><time>2026-03-28T14:42:24.999Z</time></trkpt><trkpt lat="45.96193832067006" lon="13.309795727624145"><ele>51.0</ele><time>2026-03-28T14:42:25.999Z</time></trkpt><trkpt lat="45.961832907884954" lon="13.309698597342933"><ele>51.0</ele><time>2026-03-28T14:42:26.999Z</time></trkpt><trkpt lat="45.961750675388814" lon="13.309537774501278"><ele>51.0</ele><time>2026-03-28T14:42:27.999Z</time></trkpt><trkpt lat="45.9616800334339" lon="13.309336020213792"><ele>51.0</ele><time>2026-03-28T14:42:28.999Z</time></trkpt><trkpt lat="45.96158988832685" lon="13.3091202509305"><ele>51.33333333333333</ele><time>2026-03-28T14:42:29.999Z</time></trkpt><trkpt lat="45.96149766783173" lon="13.308898381942695"><ele>51.666666666666664</ele><time>2026-03-28T14:42:30.999Z</time></trkpt><trkpt lat="45.96142228533151" lon="13.308694015569012"><ele>52.0</ele><time>2026-03-28T14:42:32Z</time></trkpt><trkpt lat="45.96135815242982" lon="13.308520247192838"><ele>51.99999999999999</ele><time>2026-03-28T14:42:33Z</time></trkpt><trkpt lat="45.96130947436645" lon="13.308379248592857"><ele>52.0</ele><time>2026-03-28T14:42:34Z</time></trkpt><trkpt lat="45.961267472779426" lon="13.308270982687176"><ele>52.0</ele><time>2026-03-28T14:42:35Z</time></trkpt><trkpt lat="45.96124525553544" lon="13.308179167216757"><ele>52.0</ele><time>2026-03-28T14:42:36Z</time></trkpt><trkpt lat="45.96126282897693" lon="13.308090345111829"><ele>51.99999999999999</ele><time>2026-03-28T14:42:37Z</time></trkpt><trkpt lat="45.961321486221145" lon="13.30801667254073"><ele>52.0</ele><time>2026-03-28T14:42:38Z</time></trkpt><trkpt lat="45.96139223758934" lon="13.30797529506642"><ele>52.0</ele><time>2026-03-28T14:42:39Z</time></trkpt><trkpt lat="45.96143454711615" lon="13.307897764944679"><ele>52.0</ele><time>2026-03-28T14:42:40Z</time></trkpt><trkpt lat="45.96144006978698" lon="13.307786152117666"><ele>52.0</ele><time>2026-03-28T14:42:41Z</time></trkpt><trkpt lat="45.96139980087814" lon="13.307661617683937"><ele>52.0</ele><time>2026-03-28T14:42:42Z</time></trkpt><trkpt lat="45.961343619365806" lon="13.307521845312882"><ele>52.0</ele><time>2026-03-28T14:42:43Z</time></trkpt><trkpt lat="45.96128237971085" lon="13.307351892220808"><ele>51.6</ele><time>2026-03-28T14:42:44Z</time></trkpt><trkpt lat="45.961222676877114" lon="13.307186727679788"><ele>51.2</ele><time>2026-03-28T14:42:45Z</time></trkpt><trkpt lat="45.961178057983275" lon="13.307057152961434"><ele>50.8</ele><time>2026-03-28T14:42:46Z</time></trkpt><trkpt lat="45.96114591724573" lon="13.306951211799463"><ele>50.4</ele><time>2026-03-28T14:42:47Z</time></trkpt><trkpt lat="45.96110399593449" lon="13.30687339747203"><ele>50.0</ele><time>2026-03-28T14:42:48Z</time></trkpt><trkpt lat="45.96096891532015" lon="13.306889883352124"><ele>50.0</ele><time>2026-03-28T14:42:50Z</time></trkpt><trkpt lat="45.96089628018301" lon="13.306972714589435"><ele>50.0</ele><time>2026-03-28T14:42:51Z</time></trkpt><trkpt lat="45.96082716629652" lon="13.306998973708628"><ele>50.0</ele><time>2026-03-28T14:42:52Z</time></trkpt><trkpt lat="45.960764582915054" lon="13.306940065148675"><ele>50.0</ele><time>2026-03-28T14:42:53Z</time></trkpt><trkpt lat="45.96071792845516" lon="13.306814682502063"><ele>50.0</ele><time>2026-03-28T14:42:54Z</time></trkpt><trkpt lat="45.960671174743865" lon="13.30664863071126"><ele>50.0</ele><time>2026-03-28T14:42:55Z</time></trkpt><trkpt lat="45.9605996195332" lon="13.306434825097535"><ele>50.0</ele><time>2026-03-28T14:42:56Z</time></trkpt><trkpt lat="45.96051009469145" lon="13.30618440094502"><ele>50.0</ele><time>2026-03-28T14:42:57Z</time></trkpt><trkpt lat="45.96041107809509" lon="13.305912431931322"><ele>50.0</ele><time>2026-03-28T14:42:58Z</time></trkpt><trkpt lat="45.96030138097408" lon="13.305634936329179"><ele>50.0</ele><time>2026-03-28T14:42:59Z</time></trkpt><trkpt lat="45.96019825035897" lon="13.305369004789744"><ele>50.0</ele><time>2026-03-28T14:43:00Z</time></trkpt><trkpt lat="45.960110042046914" lon="13.30512685190917"><ele>50.0</ele><time>2026-03-28T14:43:01Z</time></trkpt><trkpt lat="45.96002999516951" lon="13.304902719749453"><ele>50.0</ele><time>2026-03-28T14:43:02Z</time></trkpt><trkpt lat="45.95995972831805" lon="13.304703814859765"><ele>50.0</ele><time>2026-03-28T14:43:03Z</time></trkpt><trkpt lat="45.959896288531276" lon="13.304527180908924"><ele>49.8</ele><time>2026-03-28T14:43:04Z</time></trkpt><trkpt lat="45.95983576524523" lon="13.304365760420426"><ele>49.6</ele><time>2026-03-28T14:43:05Z</time></trkpt><trkpt lat="45.95978241254842" lon="13.304222857935795"><ele>49.400000000000006</ele><time>2026-03-28T14:43:06Z</time></trkpt><trkpt lat="45.95973733843959" lon="13.30409985414461"><ele>49.2</ele><time>2026-03-28T14:43:07Z</time></trkpt><trkpt lat="45.95969893685578" lon="13.304000504032858"><ele>49.0</ele><time>2026-03-28T14:43:08Z</time></trkpt><trkpt lat="45.95964257420373" lon="13.30393362731756"><ele>49.0</ele><time>2026-03-28T14:43:09Z</time></trkpt><trkpt lat="45.959559228662705" lon="13.303910895328706"><ele>49.0</ele><time>2026-03-28T14:43:10Z</time></trkpt><trkpt lat="45.95944824381984" lon="13.303978599571042"><ele>49.0</ele><time>2026-03-28T14:43:11Z</time></trkpt><trkpt lat="45.95929725631905" lon="13.304092378292902"><ele>49.0</ele><time>2026-03-28T14:43:12Z</time></trkpt><trkpt lat="45.95907335620962" lon="13.304236202324933"><ele>48.0</ele><time>2026-03-28T14:43:13Z</time></trkpt><trkpt lat="45.95881431639223" lon="13.304387035283158"><ele>47.0</ele><time>2026-03-28T14:43:14Z</time></trkpt><trkpt lat="45.95853447964562" lon="13.304555504479495"><ele>47.0</ele><time>2026-03-28T14:43:15Z</time></trkpt><trkpt lat="45.95828548797926" lon="13.304711115036794"><ele>47.0</ele><time>2026-03-28T14:43:16Z</time></trkpt><trkpt lat="45.95806308306479" lon="13.304850825942864"><ele>47.0</ele><time>2026-03-28T14:43:17Z</time></trkpt><trkpt lat="45.957846358822266" lon="13.304971765135598"><ele>47.0</ele><time>2026-03-28T14:43:18Z</time></trkpt><trkpt lat="45.95765585349572" lon="13.305177207604197"><ele>47.0</ele><time>2026-03-28T14:43:19Z</time></trkpt><trkpt lat="45.957497378284884" lon="13.305449442471797"><ele>47.0</ele><time>2026-03-28T14:43:20Z</time></trkpt><trkpt lat="45.95732204774249" lon="13.305698607577376"><ele>47.5</ele><time>2026-03-28T14:43:21Z</time></trkpt><trkpt lat="45.95711476801852" lon="13.305890018053766"><ele>48.0</ele><time>2026-03-28T14:43:22Z</time></trkpt><trkpt lat="45.95686192336214" lon="13.306013723781351"><ele>48.0</ele><time>2026-03-28T14:43:23Z</time></trkpt><trkpt lat="45.956582888986844" lon="13.306191512471912"><ele>48.0</ele><time>2026-03-28T14:43:24Z</time></trkpt><trkpt lat="45.95626969369818" lon="13.30635920089995"><ele>47.5</ele><time>2026-03-28T14:43:25Z</time></trkpt><trkpt lat="45.95593293366928" lon="13.30655022629204"><ele>47.0</ele><time>2026-03-28T14:43:26Z</time></trkpt><trkpt lat="45.95557405454742" lon="13.306758449816444"><ele>46.5</ele><time>2026-03-28T14:43:27Z</time></trkpt><trkpt lat="45.955181510380456" lon="13.306989264817872"><ele>46.0</ele><time>2026-03-28T14:43:27.999Z</time></trkpt><trkpt lat="45.9547701462416" lon="13.307221463525671"><ele>46.0</ele><time>2026-03-28T14:43:28.999Z</time></trkpt><trkpt lat="45.954342071310705" lon="13.307443363328446"><ele>45.5</ele><time>2026-03-28T14:43:29.999Z</time></trkpt><trkpt lat="45.953915494418005" lon="13.307637873115786"><ele>45.0</ele><time>2026-03-28T14:43:30.999Z</time></trkpt><trkpt lat="45.95347856376181" lon="13.307809881060578"><ele>45.0</ele><time>2026-03-28T14:43:31.999Z</time></trkpt><trkpt lat="45.95301622908453" lon="13.307989331025531"><ele>45.0</ele><time>2026-03-28T14:43:32.999Z</time></trkpt><trkpt lat="45.952560022230266" lon="13.308172788672563"><ele>45.5</ele><time>2026-03-28T14:43:33.999Z</time></trkpt><trkpt lat="45.95217864254279" lon="13.308325054403083"><ele>46.0</ele><time>2026-03-28T14:43:34.999Z</time></trkpt><trkpt lat="45.95183279551" lon="13.308463870929804"><ele>46.0</ele><time>2026-03-28T14:43:35.999Z</time></trkpt><trkpt lat="45.951526418566225" lon="13.308590579866769"><ele>46.0</ele><time>2026-03-28T14:43:36.999Z</time></trkpt><trkpt lat="45.9512660237408" lon="13.308695737227875"><ele>46.0</ele><time>2026-03-28T14:43:37.999Z</time></trkpt><trkpt lat="45.95104962950702" lon="13.308780264264955"><ele>46.0</ele><time>2026-03-28T14:43:38.999Z</time></trkpt><trkpt lat="45.95082866079888" lon="13.308868429784297"><ele>45.66666666666667</ele><time>2026-03-28T14:43:39.999Z</time></trkpt><trkpt lat="45.950632989321136" lon="13.308947489510695"><ele>45.333333333333336</ele><time>2026-03-28T14:43:40.999Z</time></trkpt><trkpt lat="45.9504529072628" lon="13.309019572778386"><ele>45.0</ele><time>2026-03-28T14:43:41.999Z</time></trkpt><trkpt lat="45.95028941306156" lon="13.309082220049437"><ele>45.0</ele><time>2026-03-28T14:43:42.999Z</time></trkpt><trkpt lat="45.950144846393044" lon="13.309136469983295"><ele>45.0</ele><time>2026-03-28T14:43:43.999Z</time></trkpt><trkpt lat="45.95002950050648" lon="13.309177707072843"><ele>45.0</ele><time>2026-03-28T14:43:44.999Z</time></trkpt><trkpt lat="45.94992986447243" lon="13.309214383092266"><ele>45.0</ele><time>2026-03-28T14:43:45.999Z</time></trkpt><trkpt lat="45.94984975302908" lon="13.309249171164407"><ele>45.2</ele><time>2026-03-28T14:43:46.999Z</time></trkpt><trkpt lat="45.9497638592181" lon="13.309275412246501"><ele>45.4</ele><time>2026-03-28T14:43:48.999Z</time></trkpt><trkpt lat="45.94970894373811" lon="13.309379550465321"><ele>45.599999999999994</ele><time>2026-03-28T14:43:52.999Z</time></trkpt><trkpt lat="45.9497448190591" lon="13.309494846944206"><ele>45.8</ele><time>2026-03-28T14:43:53.999Z</time></trkpt><trkpt lat="45.94979903978031" lon="13.309595631882127"><ele>46.0</ele><time>2026-03-28T14:43:54.999Z</time></trkpt><trkpt lat="45.94984912579604" lon="13.309729152221273"><ele>46.0</ele><time>2026-03-28T14:43:55.999Z</time></trkpt><trkpt lat="45.94991330174451" lon="13.309886225900433"><ele>46.0</ele><time>2026-03-28T14:43:56.999Z</time></trkpt><trkpt lat="45.94999570204114" lon="13.310055853436168"><ele>46.0</ele><time>2026-03-28T14:43:57.999Z</time></trkpt><trkpt lat="45.950085922567254" lon="13.310235351330904"><ele>46.0</ele><time>2026-03-28T14:43:58.999Z</time></trkpt><trkpt lat="45.950184515474994" lon="13.310415102973575"><ele>46.0</ele><time>2026-03-28T14:43:59.999Z</time></trkpt><trkpt lat="45.95029617347549" lon="13.310592534522879"><ele>46.0</ele><time>2026-03-28T14:44:00.999Z</time></trkpt><trkpt lat="45.95041575360075" lon="13.310768344860326"><ele>46.0</ele><time>2026-03-28T14:44:01.999Z</time></trkpt><trkpt lat="45.95054057809309" lon="13.310948282870948"><ele>46.0</ele><time>2026-03-28T14:44:02.999Z</time></trkpt><trkpt lat="45.950666196688" lon="13.31113441419259"><ele>46.0</ele><time>2026-03-28T14:44:03.999Z</time></trkpt><trkpt lat="45.95079468375496" lon="13.311323548156668"><ele>46.0</ele><time>2026-03-28T14:44:04.999Z</time></trkpt><trkpt lat="45.95092131376508" lon="13.311517468012514"><ele>46.333333333333336</ele><time>2026-03-28T14:44:05.999Z</time></trkpt><trkpt lat="45.95104678309393" lon="13.311714736066758"><ele>46.666666666666664</ele><time>2026-03-28T14:44:06.999Z</time></trkpt><trkpt lat="45.95117048201857" lon="13.311921257532445"><ele>47.0</ele><time>2026-03-28T14:44:07.999Z</time></trkpt><trkpt lat="45.95128781222705" lon="13.3121426285429"><ele>47.0</ele><time>2026-03-28T14:44:08.999Z</time></trkpt><trkpt lat="45.95140586170865" lon="13.312383329064406"><ele>47.0</ele><time>2026-03-28T14:44:09.999Z</time></trkpt><trkpt lat="45.951522506039524" lon="13.312607085523952"><ele>47.0</ele><time>2026-03-28T14:44:10.999Z</time></trkpt><trkpt lat="45.9516335873763" lon="13.312807600946075"><ele>47.0</ele><time>2026-03-28T14:44:11.999Z</time></trkpt><trkpt lat="45.95173456979564" lon="13.313000408903184"><ele>47.0</ele><time>2026-03-28T14:44:12.999Z</time></trkpt><trkpt lat="45.95183514824598" lon="13.313214963354305"><ele>47.0</ele><time>2026-03-28T14:44:13.999Z</time></trkpt><trkpt lat="45.95194958556748" lon="13.31344334383696"><ele>47.33333333333333</ele><time>2026-03-28T14:44:14.999Z</time></trkpt><trkpt lat="45.95205562036786" lon="13.313645947313875"><ele>47.666666666666664</ele><time>2026-03-28T14:44:15.999Z</time></trkpt><trkpt lat="45.952145740878336" lon="13.313831883827142"><ele>48.0</ele><time>2026-03-28T14:44:16.999Z</time></trkpt><trkpt lat="45.95222596584199" lon="13.314021369109758"><ele>48.33333333333333</ele><time>2026-03-28T14:44:17.999Z</time></trkpt><trkpt lat="45.95229235358223" lon="13.314235365903661"><ele>48.666666666666664</ele><time>2026-03-28T14:44:18.999Z</time></trkpt><trkpt lat="45.95233428551235" lon="13.31447449861073"><ele>49.0</ele><time>2026-03-28T14:44:19.999Z</time></trkpt><trkpt lat="45.95234202104606" lon="13.31474168897837"><ele>48.33333333333333</ele><time>2026-03-28T14:44:20.999Z</time></trkpt><trkpt lat="45.9523183049357" lon="13.315044753260239"><ele>47.666666666666664</ele><time>2026-03-28T14:44:21.999Z</time></trkpt><trkpt lat="45.952288823119" lon="13.315366131207897"><ele>47.0</ele><time>2026-03-28T14:44:22.999Z</time></trkpt><trkpt lat="45.95225754998249" lon="13.315711196363292"><ele>46.0</ele><time>2026-03-28T14:44:23.999Z</time></trkpt><trkpt lat="45.952230578058625" lon="13.316042324685652"><ele>45.0</ele><time>2026-03-28T14:44:24.999Z</time></trkpt><trkpt lat="45.95221452878637" lon="13.316361961137469"><ele>45.5</ele><time>2026-03-28T14:44:25.999Z</time></trkpt><trkpt lat="45.95222892780141" lon="13.316681703515266"><ele>46.0</ele><time>2026-03-28T14:44:26.999Z</time></trkpt><trkpt lat="45.952272993860355" lon="13.317012079416516"><ele>46.0</ele><time>2026-03-28T14:44:27.999Z</time></trkpt><trkpt lat="45.952338645225026" lon="13.317344730204416"><ele>46.0</ele><time>2026-03-28T14:44:28.999Z</time></trkpt><trkpt lat="45.95242307872539" lon="13.317683759169796"><ele>46.0</ele><time>2026-03-28T14:44:29.999Z</time></trkpt><trkpt lat="45.95251358968283" lon="13.318025527933626"><ele>46.0</ele><time>2026-03-28T14:44:30.999Z</time></trkpt><trkpt lat="45.95260005349384" lon="13.318375753048722"><ele>46.0</ele><time>2026-03-28T14:44:31.999Z</time></trkpt><trkpt lat="45.95268218272104" lon="13.318706895305533"><ele>46.0</ele><time>2026-03-28T14:44:32.999Z</time></trkpt><trkpt lat="45.95275777712638" lon="13.319009291588998"><ele>46.333333333333336</ele><time>2026-03-28T14:44:33.999Z</time></trkpt><trkpt lat="45.95282792964589" lon="13.319287081018212"><ele>46.666666666666664</ele><time>2026-03-28T14:44:34.999Z</time></trkpt><trkpt lat="45.952890303321595" lon="13.319540547610375"><ele>47.0</ele><time>2026-03-28T14:44:35.999Z</time></trkpt><trkpt lat="45.95294703156706" lon="13.31977440457174"><ele>47.0</ele><time>2026-03-28T14:44:37Z</time></trkpt><trkpt lat="45.95299824854863" lon="13.319988218914155"><ele>47.0</ele><time>2026-03-28T14:44:38Z</time></trkpt><trkpt lat="45.95303887402253" lon="13.320185913134463"><ele>47.0</ele><time>2026-03-28T14:44:39Z</time></trkpt><trkpt lat="45.95308192314877" lon="13.320372807837549"><ele>47.0</ele><time>2026-03-28T14:44:40Z</time></trkpt><trkpt lat="45.953142846248056" lon="13.320554370120856"><ele>47.0</ele><time>2026-03-28T14:44:41Z</time></trkpt><trkpt lat="45.953230868285665" lon="13.320710816419327"><ele>47.0</ele><time>2026-03-28T14:44:42Z</time></trkpt><trkpt lat="45.953352257129545" lon="13.320829861768358"><ele>47.0</ele><time>2026-03-28T14:44:43Z</time></trkpt><trkpt lat="45.95348495759738" lon="13.320936889517837"><ele>47.0</ele><time>2026-03-28T14:44:44Z</time></trkpt><trkpt lat="45.953629689627626" lon="13.321020818119907"><ele>47.0</ele><time>2026-03-28T14:44:45Z</time></trkpt><trkpt lat="45.95375662827291" lon="13.321134725614394"><ele>47.0</ele><time>2026-03-28T14:44:46Z</time></trkpt><trkpt lat="45.95387346147578" lon="13.32127823885722"><ele>47.0</ele><time>2026-03-28T14:44:47Z</time></trkpt><trkpt lat="45.953991839983594" lon="13.321423196906474"><ele>47.25</ele><time>2026-03-28T14:44:48Z</time></trkpt><trkpt lat="45.954091272320795" lon="13.321556423336983"><ele>47.5</ele><time>2026-03-28T14:44:49Z</time></trkpt><trkpt lat="45.95417408806262" lon="13.321676036262437"><ele>47.75</ele><time>2026-03-28T14:44:50Z</time></trkpt><trkpt lat="45.95423720971298" lon="13.321801500014127"><ele>48.0</ele><time>2026-03-28T14:44:51Z</time></trkpt><trkpt lat="45.954316924548884" lon="13.321935363167416"><ele>48.66666666666667</ele><time>2026-03-28T14:44:52Z</time></trkpt><trkpt lat="45.95443587095644" lon="13.32203390743585"><ele>49.333333333333336</ele><time>2026-03-28T14:44:53Z</time></trkpt><trkpt lat="45.95457325281953" lon="13.322176493580537"><ele>50.0</ele><time>2026-03-28T14:44:54Z</time></trkpt><trkpt lat="45.95471103467264" lon="13.322417014816573"><ele>50.0</ele><time>2026-03-28T14:44:55Z</time></trkpt><trkpt lat="45.95487111398428" lon="13.32273593578615"><ele>50.0</ele><time>2026-03-28T14:44:56Z</time></trkpt><trkpt lat="45.95505439671813" lon="13.323088361713618"><ele>49.5</ele><time>2026-03-28T14:44:57Z</time></trkpt><trkpt lat="45.95522153544672" lon="13.323394877963924"><ele>49.0</ele><time>2026-03-28T14:44:58Z</time></trkpt><trkpt lat="45.95537077992902" lon="13.323661697224212"><ele>48.666666666666664</ele><time>2026-03-28T14:44:59Z</time></trkpt><trkpt lat="45.95550834148804" lon="13.323920064602477"><ele>48.33333333333333</ele><time>2026-03-28T14:45:00Z</time></trkpt><trkpt lat="45.9556327715723" lon="13.324181109869786"><ele>48.0</ele><time>2026-03-28T14:45:01Z</time></trkpt><trkpt lat="45.95572745398746" lon="13.324472455531598"><ele>47.5</ele><time>2026-03-28T14:45:02Z</time></trkpt><trkpt lat="45.95580529937637" lon="13.324815255322518"><ele>47.0</ele><time>2026-03-28T14:45:03Z</time></trkpt><trkpt lat="45.95585706422333" lon="13.325216272850321"><ele>47.0</ele><time>2026-03-28T14:45:04Z</time></trkpt><trkpt lat="45.95589581794139" lon="13.325668820895098"><ele>47.0</ele><time>2026-03-28T14:45:05Z</time></trkpt><trkpt lat="45.95593854480501" lon="13.326157845263644"><ele>47.5</ele><time>2026-03-28T14:45:06Z</time></trkpt><trkpt lat="45.955987766541156" lon="13.32667389712871"><ele>48.0</ele><time>2026-03-28T14:45:07Z</time></trkpt><trkpt lat="45.9560398872243" lon="13.327216307879127"><ele>47.5</ele><time>2026-03-28T14:45:08Z</time></trkpt><trkpt lat="45.956086357170946" lon="13.327769187465414"><ele>47.0</ele><time>2026-03-28T14:45:09Z</time></trkpt><trkpt lat="45.95613463458624" lon="13.328283541106567"><ele>47.0</ele><time>2026-03-28T14:45:10Z</time></trkpt><trkpt lat="45.95618161841745" lon="13.328756717635757"><ele>47.0</ele><time>2026-03-28T14:45:11Z</time></trkpt><trkpt lat="45.95622428436231" lon="13.329207616283835"><ele>46.5</ele><time>2026-03-28T14:45:12Z</time></trkpt><trkpt lat="45.95625863148555" lon="13.329637801512614"><ele>46.0</ele><time>2026-03-28T14:45:13Z</time></trkpt><trkpt lat="45.95627067707936" lon="13.330052014628308"><ele>46.0</ele><time>2026-03-28T14:45:14Z</time></trkpt><trkpt lat="45.956251893394715" lon="13.330477772023302"><ele>46.0</ele><time>2026-03-28T14:45:15Z</time></trkpt><trkpt lat="45.95621089491677" lon="13.330911865689028"><ele>46.5</ele><time>2026-03-28T14:45:16Z</time></trkpt><trkpt lat="45.95616103713443" lon="13.331338273659089"><ele>47.0</ele><time>2026-03-28T14:45:17Z</time></trkpt><trkpt lat="45.95611950604086" lon="13.331729427721685"><ele>47.0</ele><time>2026-03-28T14:45:18Z</time></trkpt><trkpt lat="45.95608248168152" lon="13.332093044226978"><ele>47.0</ele><time>2026-03-28T14:45:19Z</time></trkpt><trkpt lat="45.95604822391149" lon="13.332420920658329"><ele>47.33333333333333</ele><time>2026-03-28T14:45:20Z</time></trkpt><trkpt lat="45.956028224431655" lon="13.332725619897435"><ele>47.666666666666664</ele><time>2026-03-28T14:45:21Z</time></trkpt><trkpt lat="45.95603808899843" lon="13.333019038861382"><ele>48.0</ele><time>2026-03-28T14:45:22Z</time></trkpt><trkpt lat="45.95608920314679" lon="13.333326623038689"><ele>48.0</ele><time>2026-03-28T14:45:23Z</time></trkpt><trkpt lat="45.95618129073252" lon="13.333639256450189"><ele>48.0</ele><time>2026-03-28T14:45:24Z</time></trkpt><trkpt lat="45.95630933321546" lon="13.333962212590746"><ele>47.5</ele><time>2026-03-28T14:45:25Z</time></trkpt><trkpt lat="45.95645797981836" lon="13.334317324560857"><ele>47.0</ele><time>2026-03-28T14:45:26Z</time></trkpt><trkpt lat="45.956608045881296" lon="13.334691023292642"><ele>47.0</ele><time>2026-03-28T14:45:27Z</time></trkpt><trkpt lat="45.95673898948164" lon="13.33501793355067"><ele>47.0</ele><time>2026-03-28T14:45:28Z</time></trkpt><trkpt lat="45.95685900345173" lon="13.335316639789358"><ele>47.33333333333333</ele><time>2026-03-28T14:45:29Z</time></trkpt><trkpt lat="45.956960530859355" lon="13.335572256806728"><ele>47.666666666666664</ele><time>2026-03-28T14:45:29.999Z</time></trkpt><trkpt lat="45.95704009079606" lon="13.335775769743222"><ele>48.0</ele><time>2026-03-28T14:45:30.999Z</time></trkpt><trkpt lat="45.95709918117085" lon="13.335944938183422"><ele>48.0</ele><time>2026-03-28T14:45:31.999Z</time></trkpt><trkpt lat="45.957138631810025" lon="13.336075597257866"><ele>48.0</ele><time>2026-03-28T14:45:32.999Z</time></trkpt><trkpt lat="45.95715548786152" lon="13.336169970645882"><ele>48.0</ele><time>2026-03-28T14:45:33.999Z</time></trkpt><trkpt lat="45.95720354984206" lon="13.336259715704646"><ele>48.0</ele><time>2026-03-28T14:45:36.999Z</time></trkpt><trkpt lat="45.95709874789179" lon="13.336372698915344"><ele>48.0</ele><time>2026-03-28T14:45:37.999Z</time></trkpt><trkpt lat="45.95702565432514" lon="13.336429125579448"><ele>48.0</ele><time>2026-03-28T14:45:38.999Z</time></trkpt><trkpt lat="45.95693106693544" lon="13.336491542195269"><ele>48.0</ele><time>2026-03-28T14:45:39.999Z</time></trkpt><trkpt lat="45.956823898798255" lon="13.336597234026947"><ele>48.0</ele><time>2026-03-28T14:45:40.999Z</time></trkpt><trkpt lat="45.956684887398055" lon="13.336702207185121"><ele>48.0</ele><time>2026-03-28T14:45:41.999Z</time></trkpt><trkpt lat="45.95652216536131" lon="13.336814233342318"><ele>47.666666666666664</ele><time>2026-03-28T14:45:42.999Z</time></trkpt><trkpt lat="45.95634648837187" lon="13.336934927027709"><ele>47.33333333333333</ele><time>2026-03-28T14:45:43.999Z</time></trkpt><trkpt lat="45.956159096526676" lon="13.337063635051068"><ele>47.0</ele><time>2026-03-28T14:45:44.999Z</time></trkpt><trkpt lat="45.95596343408605" lon="13.337199859129225"><ele>47.0</ele><time>2026-03-28T14:45:45.999Z</time></trkpt><trkpt lat="45.95576756921334" lon="13.337335587861093"><ele>47.0</ele><time>2026-03-28T14:45:46.999Z</time></trkpt><trkpt lat="45.955576828389944" lon="13.33746389595228"><ele>47.0</ele><time>2026-03-28T14:45:47.999Z</time></trkpt><trkpt lat="45.955391601248266" lon="13.33758856928922"><ele>47.0</ele><time>2026-03-28T14:45:48.999Z</time></trkpt><trkpt lat="45.95521000196727" lon="13.337716298388228"><ele>47.0</ele><time>2026-03-28T14:45:49.999Z</time></trkpt><trkpt lat="45.95502892631926" lon="13.337842960035175"><ele>47.0</ele><time>2026-03-28T14:45:50.999Z</time></trkpt><trkpt lat="45.95484606436227" lon="13.337965861099908"><ele>46.33333333333333</ele><time>2026-03-28T14:45:51.999Z</time></trkpt><trkpt lat="45.95466018637951" lon="13.338093264507378"><ele>45.666666666666664</ele><time>2026-03-28T14:45:52.999Z</time></trkpt><trkpt lat="45.9544718623119" lon="13.33822557207754"><ele>45.0</ele><time>2026-03-28T14:45:53.999Z</time></trkpt><trkpt lat="45.95428265464487" lon="13.338357302447621"><ele>45.666666666666664</ele><time>2026-03-28T14:45:54.999Z</time></trkpt><trkpt lat="45.95409328270991" lon="13.338487304557606"><ele>46.33333333333333</ele><time>2026-03-28T14:45:55.999Z</time></trkpt><trkpt lat="45.95390399577432" lon="13.338616777320414"><ele>47.0</ele><time>2026-03-28T14:45:56.999Z</time></trkpt><trkpt lat="45.953714799915275" lon="13.338746387757176"><ele>47.0</ele><time>2026-03-28T14:45:57.999Z</time></trkpt><trkpt lat="45.95352842405267" lon="13.338876707759193"><ele>47.0</ele><time>2026-03-28T14:45:58.999Z</time></trkpt><trkpt lat="45.953359056219234" lon="13.338994504500809"><ele>47.0</ele><time>2026-03-28T14:45:59.999Z</time></trkpt><trkpt lat="45.95320067507632" lon="13.339102633089412"><ele>47.0</ele><time>2026-03-28T14:46:00.999Z</time></trkpt><trkpt lat="45.95304334525841" lon="13.339214332941053"><ele>47.0</ele><time>2026-03-28T14:46:01.999Z</time></trkpt><trkpt lat="45.95288520279319" lon="13.33932385383202"><ele>47.0</ele><time>2026-03-28T14:46:02.999Z</time></trkpt><trkpt lat="45.95272755004084" lon="13.339432016381439"><ele>47.0</ele><time>2026-03-28T14:46:03.999Z</time></trkpt><trkpt lat="45.95257460487629" lon="13.339542149346977"><ele>47.0</ele><time>2026-03-28T14:46:04.999Z</time></trkpt><trkpt lat="45.952422852590686" lon="13.339650004825783"><ele>47.0</ele><time>2026-03-28T14:46:05.999Z</time></trkpt><trkpt lat="45.952270697584915" lon="13.339757013294838"><ele>46.666666666666664</ele><time>2026-03-28T14:46:06.999Z</time></trkpt><trkpt lat="45.95211847019053" lon="13.339865047564539"><ele>46.333333333333336</ele><time>2026-03-28T14:46:07.999Z</time></trkpt><trkpt lat="45.95196309574286" lon="13.339967995391278"><ele>46.0</ele><time>2026-03-28T14:46:08.999Z</time></trkpt><trkpt lat="45.95180578167054" lon="13.340076211267172"><ele>46.0</ele><time>2026-03-28T14:46:09.999Z</time></trkpt><trkpt lat="45.95164908753999" lon="13.34018382522315"><ele>46.0</ele><time>2026-03-28T14:46:10.999Z</time></trkpt><trkpt lat="45.951490726511274" lon="13.34029743023772"><ele>46.0</ele><time>2026-03-28T14:46:11.999Z</time></trkpt><trkpt lat="45.95133268886968" lon="13.340417652237042"><ele>46.0</ele><time>2026-03-28T14:46:12.999Z</time></trkpt><trkpt lat="45.95117407123547" lon="13.34054466354242"><ele>46.0</ele><time>2026-03-28T14:46:13.999Z</time></trkpt><trkpt lat="45.95101494883415" lon="13.340684920843257"><ele>46.0</ele><time>2026-03-28T14:46:14.999Z</time></trkpt><trkpt lat="45.95085266117117" lon="13.340830221561387"><ele>46.0</ele><time>2026-03-28T14:46:15.999Z</time></trkpt><trkpt lat="45.9506891711513" lon="13.34098325392374"><ele>46.0</ele><time>2026-03-28T14:46:16.999Z</time></trkpt><trkpt lat="45.950525168525644" lon="13.341145351490447"><ele>46.0</ele><time>2026-03-28T14:46:17.999Z</time></trkpt><trkpt lat="45.950363721227" lon="13.341313885594724"><ele>46.333333333333336</ele><time>2026-03-28T14:46:18.999Z</time></trkpt><trkpt lat="45.950202636505516" lon="13.341480057982512"><ele>46.666666666666664</ele><time>2026-03-28T14:46:19.999Z</time></trkpt><trkpt lat="45.950040030314064" lon="13.341645180671682"><ele>47.0</ele><time>2026-03-28T14:46:20.999Z</time></trkpt><trkpt lat="45.94988084434847" lon="13.341808613143591"><ele>46.33333333333333</ele><time>2026-03-28T14:46:21.999Z</time></trkpt><trkpt lat="45.949724587195476" lon="13.341973167724248"><ele>45.666666666666664</ele><time>2026-03-28T14:46:22.999Z</time></trkpt><trkpt lat="45.94957234984312" lon="13.342149029982389"><ele>45.0</ele><time>2026-03-28T14:46:23.999Z</time></trkpt><trkpt lat="45.949425281058694" lon="13.342344259273068"><ele>45.0</ele><time>2026-03-28T14:46:24.999Z</time></trkpt><trkpt lat="45.949282791730084" lon="13.342559385452073"><ele>45.0</ele><time>2026-03-28T14:46:25.999Z</time></trkpt><trkpt lat="45.949146496477184" lon="13.342793936125693"><ele>45.0</ele><time>2026-03-28T14:46:26.999Z</time></trkpt><trkpt lat="45.94900908019014" lon="13.343038453627251"><ele>44.0</ele><time>2026-03-28T14:46:27.999Z</time></trkpt><trkpt lat="45.94887672186096" lon="13.343296466397163"><ele>43.0</ele><time>2026-03-28T14:46:28.999Z</time></trkpt><trkpt lat="45.94873960657397" lon="13.343559676722759"><ele>43.0</ele><time>2026-03-28T14:46:29.999Z</time></trkpt><trkpt lat="45.94859931144169" lon="13.343827136106809"><ele>43.0</ele><time>2026-03-28T14:46:30.999Z</time></trkpt><trkpt lat="45.94845782707824" lon="13.344100495718738"><ele>43.5</ele><time>2026-03-28T14:46:31.999Z</time></trkpt><trkpt lat="45.948316191298545" lon="13.344377746091077"><ele>44.0</ele><time>2026-03-28T14:46:32.999Z</time></trkpt><trkpt lat="45.94817272515221" lon="13.344653971071711"><ele>43.0</ele><time>2026-03-28T14:46:33.999Z</time></trkpt><trkpt lat="45.94803227343138" lon="13.34492601680627"><ele>42.0</ele><time>2026-03-28T14:46:34.999Z</time></trkpt><trkpt lat="45.947892558118646" lon="13.345191382148768"><ele>42.0</ele><time>2026-03-28T14:46:35.999Z</time></trkpt><trkpt lat="45.94775435748992" lon="13.345457403646982"><ele>42.0</ele><time>2026-03-28T14:46:36.999Z</time></trkpt><trkpt lat="45.94761014928374" lon="13.345715930938308"><ele>41.5</ele><time>2026-03-28T14:46:37.999Z</time></trkpt><trkpt lat="45.947450254969674" lon="13.345953585195396"><ele>41.0</ele><time>2026-03-28T14:46:38.999Z</time></trkpt><trkpt lat="45.94726937295911" lon="13.346160706285529"><ele>41.0</ele><time>2026-03-28T14:46:39.999Z</time></trkpt><trkpt lat="45.94706204427353" lon="13.346342709711754"><ele>41.0</ele><time>2026-03-28T14:46:40.999Z</time></trkpt><trkpt lat="45.94682166616948" lon="13.346464621262614"><ele>41.5</ele><time>2026-03-28T14:46:41.999Z</time></trkpt><trkpt lat="45.94655970610804" lon="13.346596201192758"><ele>42.0</ele><time>2026-03-28T14:46:43Z</time></trkpt><trkpt lat="45.94628138026537" lon="13.346751651620092"><ele>42.0</ele><time>2026-03-28T14:46:44Z</time></trkpt><trkpt lat="45.94598195161239" lon="13.346893901079202"><ele>42.0</ele><time>2026-03-28T14:46:45Z</time></trkpt><trkpt lat="45.9456743973918" lon="13.347043234879628"><ele>42.0</ele><time>2026-03-28T14:46:46Z</time></trkpt><trkpt lat="45.94535758829679" lon="13.347195742256678"><ele>42.0</ele><time>2026-03-28T14:46:47Z</time></trkpt><trkpt lat="45.94503842932856" lon="13.347348709439117"><ele>42.0</ele><time>2026-03-28T14:46:48Z</time></trkpt><trkpt lat="45.94472613493877" lon="13.347501614768627"><ele>42.0</ele><time>2026-03-28T14:46:49Z</time></trkpt><trkpt lat="45.94441777614429" lon="13.34765313485948"><ele>42.0</ele><time>2026-03-28T14:46:50Z</time></trkpt><trkpt lat="45.94411777709236" lon="13.347800484775394"><ele>42.0</ele><time>2026-03-28T14:46:51Z</time></trkpt><trkpt lat="45.943842249153136" lon="13.34793589381197"><ele>42.0</ele><time>2026-03-28T14:46:52Z</time></trkpt><trkpt lat="45.94358257817813" lon="13.348061777229777"><ele>42.0</ele><time>2026-03-28T14:46:53Z</time></trkpt><trkpt lat="45.94333868590562" lon="13.34817579767657"><ele>41.5</ele><time>2026-03-28T14:46:54Z</time></trkpt><trkpt lat="45.94311126878862" lon="13.348282996677304"><ele>41.0</ele><time>2026-03-28T14:46:55Z</time></trkpt><trkpt lat="45.942901459064466" lon="13.348385149613057"><ele>41.0</ele><time>2026-03-28T14:46:56Z</time></trkpt><trkpt lat="45.94269750444122" lon="13.348483835308468"><ele>41.0</ele><time>2026-03-28T14:46:57Z</time></trkpt><trkpt lat="45.94251071157912" lon="13.348582141859579"><ele>41.0</ele><time>2026-03-28T14:46:58Z</time></trkpt><trkpt lat="45.94232900852874" lon="13.348707793236038"><ele>40.33333333333333</ele><time>2026-03-28T14:46:59Z</time></trkpt><trkpt lat="45.94216276062253" lon="13.348880442321665"><ele>39.666666666666664</ele><time>2026-03-28T14:47:00Z</time></trkpt><trkpt lat="45.942017713117636" lon="13.349083806551468"><ele>39.0</ele><time>2026-03-28T14:47:01Z</time></trkpt><trkpt lat="45.941889938891144" lon="13.349310414794568"><ele>39.0</ele><time>2026-03-28T14:47:02Z</time></trkpt><trkpt lat="45.941782425958266" lon="13.349558905218718"><ele>39.0</ele><time>2026-03-28T14:47:03Z</time></trkpt><trkpt lat="45.94170028379343" lon="13.34983518230977"><ele>39.0</ele><time>2026-03-28T14:47:04Z</time></trkpt><trkpt lat="45.941642819108544" lon="13.350135425334267"><ele>39.0</ele><time>2026-03-28T14:47:05Z</time></trkpt><trkpt lat="45.941589224698916" lon="13.350450855348704"><ele>39.0</ele><time>2026-03-28T14:47:06Z</time></trkpt><trkpt lat="45.941531118382144" lon="13.350773840784838"><ele>39.5</ele><time>2026-03-28T14:47:07Z</time></trkpt><trkpt lat="45.94147089997883" lon="13.351100776286465"><ele>40.0</ele><time>2026-03-28T14:47:08Z</time></trkpt><trkpt lat="45.941414447758184" lon="13.351431792104663"><ele>40.5</ele><time>2026-03-28T14:47:09Z</time></trkpt><trkpt lat="45.94136006038557" lon="13.351756345798016"><ele>41.0</ele><time>2026-03-28T14:47:10Z</time></trkpt><trkpt lat="45.94130487964356" lon="13.352076745591011"><ele>40.666666666666664</ele><time>2026-03-28T14:47:11Z</time></trkpt><trkpt lat="45.941249620463175" lon="13.352392144850842"><ele>40.333333333333336</ele><time>2026-03-28T14:47:12Z</time></trkpt><trkpt lat="45.94119836356086" lon="13.35270163564505"><ele>40.0</ele><time>2026-03-28T14:47:13Z</time></trkpt><trkpt lat="45.941151038520275" lon="13.353007163828838"><ele>39.66666666666667</ele><time>2026-03-28T14:47:14Z</time></trkpt><trkpt lat="45.941101804902644" lon="13.35330935061322"><ele>39.333333333333336</ele><time>2026-03-28T14:47:15Z</time></trkpt><trkpt lat="45.941050979958355" lon="13.353595619495145"><ele>39.0</ele><time>2026-03-28T14:47:16Z</time></trkpt><trkpt lat="45.9409928136609" lon="13.353860005369178"><ele>39.0</ele><time>2026-03-28T14:47:17Z</time></trkpt><trkpt lat="45.94091249790989" lon="13.354118687535541"><ele>39.0</ele><time>2026-03-28T14:47:18Z</time></trkpt><trkpt lat="45.94081111558656" lon="13.354369776416075"><ele>39.0</ele><time>2026-03-28T14:47:19Z</time></trkpt><trkpt lat="45.94070486699012" lon="13.354622412500246"><ele>38.666666666666664</ele><time>2026-03-28T14:47:20Z</time></trkpt><trkpt lat="45.94059729740821" lon="13.354877597945563"><ele>38.33333333333333</ele><time>2026-03-28T14:47:21Z</time></trkpt><trkpt lat="45.94048897582689" lon="13.355131260086"><ele>38.0</ele><time>2026-03-28T14:47:22Z</time></trkpt><trkpt lat="45.94038289275236" lon="13.355383480264633"><ele>38.33333333333333</ele><time>2026-03-28T14:47:23Z</time></trkpt><trkpt lat="45.94027847798932" lon="13.355625705097392"><ele>38.666666666666664</ele><time>2026-03-28T14:47:24Z</time></trkpt><trkpt lat="45.94017891369288" lon="13.355841000861028"><ele>39.0</ele><time>2026-03-28T14:47:25Z</time></trkpt><trkpt lat="45.94006628977351" lon="13.35603418564151"><ele>39.0</ele><time>2026-03-28T14:47:26Z</time></trkpt><trkpt lat="45.939932650915836" lon="13.356208680252653"><ele>39.0</ele><time>2026-03-28T14:47:27Z</time></trkpt><trkpt lat="45.939785705703784" lon="13.356361264792941"><ele>39.0</ele><time>2026-03-28T14:47:28Z</time></trkpt><trkpt lat="45.93963658706138" lon="13.356509437333598"><ele>39.0</ele><time>2026-03-28T14:47:29Z</time></trkpt><trkpt lat="45.939476926383755" lon="13.356678948513014"><ele>39.0</ele><time>2026-03-28T14:47:30Z</time></trkpt><trkpt lat="45.93931732094482" lon="13.356865963785712"><ele>39.0</ele><time>2026-03-28T14:47:31Z</time></trkpt><trkpt lat="45.93913995518502" lon="13.357076224752467"><ele>38.5</ele><time>2026-03-28T14:47:31.999Z</time></trkpt><trkpt lat="45.93896664026581" lon="13.35737576632931"><ele>38.0</ele><time>2026-03-28T14:47:32.999Z</time></trkpt><trkpt lat="45.93879987839736" lon="13.357746507126754"><ele>38.5</ele><time>2026-03-28T14:47:33.999Z</time></trkpt><trkpt lat="45.938661642384396" lon="13.358188179676857"><ele>39.0</ele><time>2026-03-28T14:47:34.999Z</time></trkpt><trkpt lat="45.93850524893757" lon="13.358650714179499"><ele>38.5</ele><time>2026-03-28T14:47:35.999Z</time></trkpt><trkpt lat="45.938351018959594" lon="13.359128363663329"><ele>38.0</ele><time>2026-03-28T14:47:36.999Z</time></trkpt><trkpt lat="45.93819881631363" lon="13.359590283924904"><ele>38.5</ele><time>2026-03-28T14:47:37.999Z</time></trkpt><trkpt lat="45.93805755853899" lon="13.360037272276738"><ele>39.0</ele><time>2026-03-28T14:47:38.999Z</time></trkpt><trkpt lat="45.937925011935796" lon="13.360461016697643"><ele>38.5</ele><time>2026-03-28T14:47:39.999Z</time></trkpt><trkpt lat="45.93781150849408" lon="13.36087350840827"><ele>38.0</ele><time>2026-03-28T14:47:40.999Z</time></trkpt><trkpt lat="45.93772554185573" lon="13.361294411091185"><ele>38.0</ele><time>2026-03-28T14:47:41.999Z</time></trkpt><trkpt lat="45.93765510084624" lon="13.361711857953754"><ele>38.0</ele><time>2026-03-28T14:47:42.999Z</time></trkpt><trkpt lat="45.93758228589551" lon="13.362101899584504"><ele>38.0</ele><time>2026-03-28T14:47:43.999Z</time></trkpt><trkpt lat="45.93751142932741" lon="13.36245955683339"><ele>38.0</ele><time>2026-03-28T14:47:44.999Z</time></trkpt><trkpt lat="45.93744783449358" lon="13.36279399274454"><ele>38.0</ele><time>2026-03-28T14:47:45.999Z</time></trkpt><trkpt lat="45.937388090343504" lon="13.36310727528744"><ele>38.0</ele><time>2026-03-28T14:47:46.999Z</time></trkpt><trkpt lat="45.9373306680643" lon="13.363402741918174"><ele>38.0</ele><time>2026-03-28T14:47:47.999Z</time></trkpt><trkpt lat="45.93727614043202" lon="13.363678212436728"><ele>39.0</ele><time>2026-03-28T14:47:48.999Z</time></trkpt><trkpt lat="45.937208243438576" lon="13.363950201974575"><ele>40.0</ele><time>2026-03-28T14:47:49.999Z</time></trkpt><trkpt lat="45.93710380589239" lon="13.364206950247226"><ele>41.0</ele><time>2026-03-28T14:47:50.999Z</time></trkpt><trkpt lat="45.936963012366625" lon="13.364431993559926"><ele>41.0</ele><time>2026-03-28T14:47:51.999Z</time></trkpt><trkpt lat="45.93678802611032" lon="13.364615925685094"><ele>41.0</ele><time>2026-03-28T14:47:52.999Z</time></trkpt><trkpt lat="45.93658362457873" lon="13.364750449999448"><ele>41.0</ele><time>2026-03-28T14:47:53.999Z</time></trkpt><trkpt lat="45.9363505116894" lon="13.36480143318081"><ele>39.5</ele><time>2026-03-28T14:47:54.999Z</time></trkpt><trkpt lat="45.936091418856876" lon="13.36484898438531"><ele>38.0</ele><time>2026-03-28T14:47:55.999Z</time></trkpt><trkpt lat="45.93581495263258" lon="13.364922800339471"><ele>37.0</ele><time>2026-03-28T14:47:56.999Z</time></trkpt><trkpt lat="45.935523671917046" lon="13.36497303509863"><ele>36.0</ele><time>2026-03-28T14:47:57.999Z</time></trkpt><trkpt lat="45.935230171609426" lon="13.365025606503009"><ele>36.5</ele><time>2026-03-28T14:47:58.999Z</time></trkpt><trkpt lat="45.934939443839326" lon="13.365052764280025"><ele>37.0</ele><time>2026-03-28T14:47:59.999Z</time></trkpt><trkpt lat="45.93465263686364" lon="13.36510348470735"><ele>37.0</ele><time>2026-03-28T14:48:00.999Z</time></trkpt><trkpt lat="45.934367947215904" lon="13.365154810543423"><ele>37.0</ele><time>2026-03-28T14:48:01.999Z</time></trkpt><trkpt lat="45.93408490289958" lon="13.365202317953225"><ele>37.0</ele><time>2026-03-28T14:48:02.999Z</time></trkpt><trkpt lat="45.933804004255194" lon="13.365251482451068"><ele>37.0</ele><time>2026-03-28T14:48:03.999Z</time></trkpt><trkpt lat="45.93352713379982" lon="13.365323080791779"><ele>36.0</ele><time>2026-03-28T14:48:04.999Z</time></trkpt><trkpt lat="45.93324963325414" lon="13.365369749453775"><ele>35.0</ele><time>2026-03-28T14:48:05.999Z</time></trkpt><trkpt lat="45.9329736544592" lon="13.365413770958423"><ele>35.0</ele><time>2026-03-28T14:48:06.999Z</time></trkpt><trkpt lat="45.93269987517547" lon="13.365460911858719"><ele>35.0</ele><time>2026-03-28T14:48:07.999Z</time></trkpt><trkpt lat="45.932428493167" lon="13.36551532980017"><ele>36.0</ele><time>2026-03-28T14:48:08.999Z</time></trkpt><trkpt lat="45.93215448850951" lon="13.365555427757025"><ele>37.0</ele><time>2026-03-28T14:48:09.999Z</time></trkpt><trkpt lat="45.93188674555317" lon="13.365676657611871"><ele>36.0</ele><time>2026-03-28T14:48:10.999Z</time></trkpt><trkpt lat="45.931613756943946" lon="13.365802247156392"><ele>35.0</ele><time>2026-03-28T14:48:11.999Z</time></trkpt><trkpt lat="45.93133262890345" lon="13.365934792391968"><ele>35.0</ele><time>2026-03-28T14:48:12.999Z</time></trkpt><trkpt lat="45.93104293785399" lon="13.366059143358422"><ele>35.0</ele><time>2026-03-28T14:48:13.999Z</time></trkpt><trkpt lat="45.9307522455791" lon="13.36618873208682"><ele>35.0</ele><time>2026-03-28T14:48:14.999Z</time></trkpt><trkpt lat="45.93045690705198" lon="13.366317927433478"><ele>35.0</ele><time>2026-03-28T14:48:15.999Z</time></trkpt><trkpt lat="45.93016442794079" lon="13.36644424068433"><ele>35.0</ele><time>2026-03-28T14:48:16.999Z</time></trkpt><trkpt lat="45.92987782095507" lon="13.366571276956673"><ele>35.0</ele><time>2026-03-28T14:48:17.999Z</time></trkpt><trkpt lat="45.929601115861786" lon="13.366697137136377"><ele>35.0</ele><time>2026-03-28T14:48:18.999Z</time></trkpt><trkpt lat="45.929329481457835" lon="13.36681708976622"><ele>35.0</ele><time>2026-03-28T14:48:19.999Z</time></trkpt><trkpt lat="45.92906923459065" lon="13.366933373973662"><ele>34.5</ele><time>2026-03-28T14:48:20.999Z</time></trkpt><trkpt lat="45.92882645953464" lon="13.36703834552384"><ele>34.0</ele><time>2026-03-28T14:48:21.999Z</time></trkpt><trkpt lat="45.92859683305641" lon="13.367140935290083"><ele>34.0</ele><time>2026-03-28T14:48:22.999Z</time></trkpt><trkpt lat="45.92837491810858" lon="13.367241658761241"><ele>34.0</ele><time>2026-03-28T14:48:23.999Z</time></trkpt><trkpt lat="45.92815966898295" lon="13.367346433634095"><ele>34.0</ele><time>2026-03-28T14:48:24.999Z</time></trkpt><trkpt lat="45.92795021516807" lon="13.367486066363819"><ele>34.0</ele><time>2026-03-28T14:48:25.999Z</time></trkpt><trkpt lat="45.92774164231846" lon="13.367649047716684"><ele>34.0</ele><time>2026-03-28T14:48:26.999Z</time></trkpt><trkpt lat="45.927537137606066" lon="13.36783091353445"><ele>34.0</ele><time>2026-03-28T14:48:27.999Z</time></trkpt><trkpt lat="45.92733983923936" lon="13.368013948004663"><ele>34.0</ele><time>2026-03-28T14:48:28.999Z</time></trkpt><trkpt lat="45.92714352213848" lon="13.36819858814597"><ele>34.0</ele><time>2026-03-28T14:48:29.999Z</time></trkpt><trkpt lat="45.926945318506505" lon="13.368378669823402"><ele>34.0</ele><time>2026-03-28T14:48:30.999Z</time></trkpt><trkpt lat="45.926747069826014" lon="13.368558991009195"><ele>34.0</ele><time>2026-03-28T14:48:31.999Z</time></trkpt><trkpt lat="45.92655164559824" lon="13.368741534247896"><ele>34.0</ele><time>2026-03-28T14:48:32.999Z</time></trkpt><trkpt lat="45.92635690639809" lon="13.36892298801245"><ele>34.0</ele><time>2026-03-28T14:48:33.999Z</time></trkpt><trkpt lat="45.92616257150872" lon="13.369103650873086"><ele>34.0</ele><time>2026-03-28T14:48:34.999Z</time></trkpt><trkpt lat="45.925966559665724" lon="13.369282260402445"><ele>34.0</ele><time>2026-03-28T14:48:35.999Z</time></trkpt><trkpt lat="45.925768106649755" lon="13.369458900878207"><ele>34.0</ele><time>2026-03-28T14:48:36.999Z</time></trkpt><trkpt lat="45.92556895688899" lon="13.369630913006262"><ele>34.0</ele><time>2026-03-28T14:48:37.999Z</time></trkpt><trkpt lat="45.92536901397115" lon="13.369804700433832"><ele>34.0</ele><time>2026-03-28T14:48:38.999Z</time></trkpt><trkpt lat="45.92516936433739" lon="13.369979083486875"><ele>34.0</ele><time>2026-03-28T14:48:39.999Z</time></trkpt><trkpt lat="45.92497187067819" lon="13.370150621894302"><ele>33.5</ele><time>2026-03-28T14:48:40.999Z</time></trkpt><trkpt lat="45.92477535488418" lon="13.370322971665525"><ele>33.0</ele><time>2026-03-28T14:48:41.999Z</time></trkpt><trkpt lat="45.9245839637283" lon="13.370498206405452"><ele>33.0</ele><time>2026-03-28T14:48:42.999Z</time></trkpt><trkpt lat="45.9243928963917" lon="13.37067319194118"><ele>33.0</ele><time>2026-03-28T14:48:43.999Z</time></trkpt><trkpt lat="45.92419992505595" lon="13.370841467210955"><ele>33.0</ele><time>2026-03-28T14:48:44.999Z</time></trkpt><trkpt lat="45.92400644109443" lon="13.371010941718493"><ele>33.0</ele><time>2026-03-28T14:48:45.999Z</time></trkpt><trkpt lat="45.9238128228324" lon="13.371181765697761"><ele>33.0</ele><time>2026-03-28T14:48:46.999Z</time></trkpt><trkpt lat="45.923621519822454" lon="13.371351374534795"><ele>33.0</ele><time>2026-03-28T14:48:47.999Z</time></trkpt><trkpt lat="45.92342994059023" lon="13.371517037501631"><ele>33.0</ele><time>2026-03-28T14:48:49Z</time></trkpt><trkpt lat="45.92323891735776" lon="13.371681986888579"><ele>33.0</ele><time>2026-03-28T14:48:50Z</time></trkpt><trkpt lat="45.92304855498691" lon="13.371847904766973"><ele>33.0</ele><time>2026-03-28T14:48:51Z</time></trkpt><trkpt lat="45.92285892162823" lon="13.37201288850964"><ele>33.0</ele><time>2026-03-28T14:48:52Z</time></trkpt><trkpt lat="45.92267469894303" lon="13.372177350670944"><ele>33.333333333333336</ele><time>2026-03-28T14:48:53Z</time></trkpt><trkpt lat="45.92249748596097" lon="13.372334294935163"><ele>33.66666666666667</ele><time>2026-03-28T14:48:54Z</time></trkpt><trkpt lat="45.92233345986086" lon="13.372479629399072"><ele>34.0</ele><time>2026-03-28T14:48:55Z</time></trkpt><trkpt lat="45.922181757933885" lon="13.372615126604613"><ele>34.0</ele><time>2026-03-28T14:48:56Z</time></trkpt><trkpt lat="45.92204620629928" lon="13.372733896737428"><ele>34.0</ele><time>2026-03-28T14:48:57Z</time></trkpt><trkpt lat="45.92193074714817" lon="13.37283119345262"><ele>34.0</ele><time>2026-03-28T14:48:58Z</time></trkpt><trkpt lat="45.921838918211556" lon="13.372899327699555"><ele>34.0</ele><time>2026-03-28T14:48:59Z</time></trkpt><trkpt lat="45.9217698733481" lon="13.37294299024518"><ele>34.0</ele><time>2026-03-28T14:49:00Z</time></trkpt><trkpt lat="45.9216996776892" lon="13.372968669372554"><ele>34.0</ele><time>2026-03-28T14:49:02Z</time></trkpt><trkpt lat="45.92161257269611" lon="13.372980503522253"><ele>34.0</ele><time>2026-03-28T14:49:17Z</time></trkpt><trkpt lat="45.921548310323324" lon="13.372989212619444"><ele>34.0</ele><time>2026-03-28T14:49:18Z</time></trkpt><trkpt lat="45.92145459520978" lon="13.372996485488931"><ele>34.0</ele><time>2026-03-28T14:49:19Z</time></trkpt><trkpt lat="45.92135819005877" lon="13.373127809721717"><ele>33.333333333333336</ele><time>2026-03-28T14:49:20Z</time></trkpt><trkpt lat="45.92127613964902" lon="13.373288766958655"><ele>32.666666666666664</ele><time>2026-03-28T14:49:21Z</time></trkpt><trkpt lat="45.92116389409269" lon="13.37345593269832"><ele>32.0</ele><time>2026-03-28T14:49:22Z</time></trkpt><trkpt lat="45.9210126947752" lon="13.373618295999382"><ele>32.0</ele><time>2026-03-28T14:49:23Z</time></trkpt><trkpt lat="45.92084480499102" lon="13.37377234487395"><ele>32.0</ele><time>2026-03-28T14:49:24Z</time></trkpt><trkpt lat="45.92066900828303" lon="13.373918759956625"><ele>32.0</ele><time>2026-03-28T14:49:25Z</time></trkpt><trkpt lat="45.92050431425468" lon="13.374055394504435"><ele>32.0</ele><time>2026-03-28T14:49:26Z</time></trkpt><trkpt lat="45.92035462936161" lon="13.374188444091741"><ele>32.0</ele><time>2026-03-28T14:49:27Z</time></trkpt><trkpt lat="45.920212371060856" lon="13.374319658224527"><ele>32.0</ele><time>2026-03-28T14:49:28Z</time></trkpt><trkpt lat="45.92007877225933" lon="13.374452149365881"><ele>31.666666666666664</ele><time>2026-03-28T14:49:29Z</time></trkpt><trkpt lat="45.91994777599105" lon="13.374593782258236"><ele>31.333333333333336</ele><time>2026-03-28T14:49:30Z</time></trkpt><trkpt lat="45.91980860752049" lon="13.374745304691837"><ele>31.0</ele><time>2026-03-28T14:49:31Z</time></trkpt><trkpt lat="45.91964706691673" lon="13.374898849299125"><ele>31.0</ele><time>2026-03-28T14:49:32Z</time></trkpt><trkpt lat="45.91945254771805" lon="13.37510611286278"><ele>31.0</ele><time>2026-03-28T14:49:33Z</time></trkpt><trkpt lat="45.91922614489832" lon="13.37534823890847"><ele>31.5</ele><time>2026-03-28T14:49:34Z</time></trkpt><trkpt lat="45.91898609697662" lon="13.375558000809752"><ele>32.0</ele><time>2026-03-28T14:49:34.999Z</time></trkpt><trkpt lat="45.91874469690292" lon="13.375697114490762"><ele>32.0</ele><time>2026-03-28T14:49:35.999Z</time></trkpt><trkpt lat="45.91851264441337" lon="13.375791269555684"><ele>32.0</ele><time>2026-03-28T14:49:36.999Z</time></trkpt><trkpt lat="45.918296237951026" lon="13.37584789908416"><ele>32.0</ele><time>2026-03-28T14:49:37.999Z</time></trkpt><trkpt lat="45.918102479969875" lon="13.375895745414162"><ele>32.0</ele><time>2026-03-28T14:49:38.999Z</time></trkpt><trkpt lat="45.91791534198294" lon="13.375926594888995"><ele>32.0</ele><time>2026-03-28T14:49:39.999Z</time></trkpt><trkpt lat="45.91774574509104" lon="13.375955688928462"><ele>32.0</ele><time>2026-03-28T14:49:40.999Z</time></trkpt><trkpt lat="45.91758949075539" lon="13.375986058294849"><ele>32.0</ele><time>2026-03-28T14:49:41.999Z</time></trkpt><trkpt lat="45.9174420416694" lon="13.376013035631534"><ele>32.0</ele><time>2026-03-28T14:49:42.999Z</time></trkpt><trkpt lat="45.91729307247523" lon="13.37604027559402"><ele>32.25</ele><time>2026-03-28T14:49:43.999Z</time></trkpt><trkpt lat="45.91714481126763" lon="13.376064748613434"><ele>32.5</ele><time>2026-03-28T14:49:44.999Z</time></trkpt><trkpt lat="45.916998498857566" lon="13.376092387969779"><ele>32.75</ele><time>2026-03-28T14:49:45.999Z</time></trkpt><trkpt lat="45.916851880449485" lon="13.376118787056534"><ele>33.0</ele><time>2026-03-28T14:49:46.999Z</time></trkpt><trkpt lat="45.91670011057536" lon="13.376138310747026"><ele>33.0</ele><time>2026-03-28T14:49:47.999Z</time></trkpt><trkpt lat="45.91654842125736" lon="13.376154205753606"><ele>33.0</ele><time>2026-03-28T14:49:48.999Z</time></trkpt><trkpt lat="45.916398758971155" lon="13.376158830622963"><ele>33.0</ele><time>2026-03-28T14:49:49.999Z</time></trkpt><trkpt lat="45.916251926800996" lon="13.37616267521014"><ele>33.0</ele><time>2026-03-28T14:49:50.999Z</time></trkpt><trkpt lat="45.916106012655554" lon="13.376168536332775"><ele>33.0</ele><time>2026-03-28T14:49:51.999Z</time></trkpt><trkpt lat="45.91596274473511" lon="13.376166784793298"><ele>33.0</ele><time>2026-03-28T14:49:52.999Z</time></trkpt><trkpt lat="45.91582011549395" lon="13.376165874599398"><ele>33.0</ele><time>2026-03-28T14:49:53.999Z</time></trkpt><trkpt lat="45.91568610055691" lon="13.376177844783408"><ele>33.0</ele><time>2026-03-28T14:49:54.999Z</time></trkpt><trkpt lat="45.91554980501246" lon="13.376195290094572"><ele>33.25</ele><time>2026-03-28T14:49:55.999Z</time></trkpt><trkpt lat="45.915415100908895" lon="13.376216796180671"><ele>33.5</ele><time>2026-03-28T14:49:56.999Z</time></trkpt><trkpt lat="45.915281321091506" lon="13.376241595311967"><ele>33.75</ele><time>2026-03-28T14:49:57.999Z</time></trkpt><trkpt lat="45.91514808292994" lon="13.376265377171244"><ele>34.0</ele><time>2026-03-28T14:49:58.999Z</time></trkpt><trkpt lat="45.91501388865012" lon="13.37628651401351"><ele>33.75</ele><time>2026-03-28T14:49:59.999Z</time></trkpt><trkpt lat="45.914881597479734" lon="13.376308850556958"><ele>33.5</ele><time>2026-03-28T14:50:00.999Z</time></trkpt><trkpt lat="45.91475059886286" lon="13.376333069549924"><ele>33.25</ele><time>2026-03-28T14:50:01.999Z</time></trkpt><trkpt lat="45.91462379179874" lon="13.376354757025304"><ele>33.0</ele><time>2026-03-28T14:50:02.999Z</time></trkpt><trkpt lat="45.914508812005955" lon="13.376375873094922"><ele>33.0</ele><time>2026-03-28T14:50:03.999Z</time></trkpt><trkpt lat="45.91439178436462" lon="13.376398532817596"><ele>33.0</ele><time>2026-03-28T14:50:04.999Z</time></trkpt><trkpt lat="45.91426715404839" lon="13.37642846639996"><ele>33.0</ele><time>2026-03-28T14:50:05.999Z</time></trkpt><trkpt lat="45.91414759801613" lon="13.37646791628223"><ele>33.0</ele><time>2026-03-28T14:50:06.999Z</time></trkpt><trkpt lat="45.91404154941215" lon="13.376509441738095"><ele>33.0</ele><time>2026-03-28T14:50:07.999Z</time></trkpt><trkpt lat="45.913938914874954" lon="13.37654931227327"><ele>33.0</ele><time>2026-03-28T14:50:08.999Z</time></trkpt><trkpt lat="45.913825225248495" lon="13.376597172775142"><ele>33.0</ele><time>2026-03-28T14:50:09.999Z</time></trkpt><trkpt lat="45.913713422795674" lon="13.376643060625394"><ele>33.0</ele><time>2026-03-28T14:50:10.999Z</time></trkpt><trkpt lat="45.91360021570937" lon="13.376693641138061"><ele>33.0</ele><time>2026-03-28T14:50:11.999Z</time></trkpt><trkpt lat="45.913503823761985" lon="13.376733879556788"><ele>33.0</ele><time>2026-03-28T14:50:12.999Z</time></trkpt><trkpt lat="45.9134042807545" lon="13.376764718647559"><ele>33.0</ele><time>2026-03-28T14:50:13.999Z</time></trkpt><trkpt lat="45.913295823336604" lon="13.376795138886099"><ele>33.0</ele><time>2026-03-28T14:50:14.999Z</time></trkpt><trkpt lat="45.91318853173432" lon="13.376828050077748"><ele>33.0</ele><time>2026-03-28T14:50:15.999Z</time></trkpt><trkpt lat="45.913086415210934" lon="13.376883831476864"><ele>33.0</ele><time>2026-03-28T14:50:16.999Z</time></trkpt><trkpt lat="45.912987081752746" lon="13.376956059120799"><ele>33.0</ele><time>2026-03-28T14:50:17.999Z</time></trkpt><trkpt lat="45.9128944398229" lon="13.377040243166512"><ele>33.0</ele><time>2026-03-28T14:50:18.999Z</time></trkpt><trkpt lat="45.9128001461787" lon="13.3771373485103"><ele>33.0</ele><time>2026-03-28T14:50:19.999Z</time></trkpt><trkpt lat="45.91270165119393" lon="13.377237419898771"><ele>33.0</ele><time>2026-03-28T14:50:20.999Z</time></trkpt><trkpt lat="45.91259809219279" lon="13.377345514681387"><ele>33.0</ele><time>2026-03-28T14:50:21.999Z</time></trkpt><trkpt lat="45.91248849919595" lon="13.377453400066587"><ele>33.0</ele><time>2026-03-28T14:50:22.999Z</time></trkpt><trkpt lat="45.91238153617167" lon="13.377558778940577"><ele>33.0</ele><time>2026-03-28T14:50:23.999Z</time></trkpt><trkpt lat="45.912277431954436" lon="13.377663094803138"><ele>32.75</ele><time>2026-03-28T14:50:24.999Z</time></trkpt><trkpt lat="45.91217677038407" lon="13.3777668035993"><ele>32.5</ele><time>2026-03-28T14:50:25.999Z</time></trkpt><trkpt lat="45.9120776716812" lon="13.377872435970454"><ele>32.25</ele><time>2026-03-28T14:50:26.999Z</time></trkpt><trkpt lat="45.91197671945694" lon="13.377975978071216"><ele>32.0</ele><time>2026-03-28T14:50:27.999Z</time></trkpt><trkpt lat="45.91187309959139" lon="13.378079350151031"><ele>31.75</ele><time>2026-03-28T14:50:28.999Z</time></trkpt><trkpt lat="45.91176096409554" lon="13.378195146160966"><ele>31.5</ele><time>2026-03-28T14:50:29.999Z</time></trkpt><trkpt lat="45.911639451803055" lon="13.378310210185637"><ele>31.25</ele><time>2026-03-28T14:50:30.999Z</time></trkpt><trkpt lat="45.911510513063384" lon="13.378405820181964"><ele>31.0</ele><time>2026-03-28T14:50:31.999Z</time></trkpt><trkpt lat="45.911373857085415" lon="13.378484798917228"><ele>31.0</ele><time>2026-03-28T14:50:32.999Z</time></trkpt><trkpt lat="45.91123351342462" lon="13.378548695014063"><ele>31.0</ele><time>2026-03-28T14:50:33.999Z</time></trkpt><trkpt lat="45.91108994622336" lon="13.378603193685047"><ele>31.0</ele><time>2026-03-28T14:50:34.999Z</time></trkpt><trkpt lat="45.91093161111114" lon="13.378651482612597"><ele>30.666666666666668</ele><time>2026-03-28T14:50:35.999Z</time></trkpt><trkpt lat="45.91076561535214" lon="13.378681378728285"><ele>30.333333333333336</ele><time>2026-03-28T14:50:36.999Z</time></trkpt><trkpt lat="45.9106002587572" lon="13.378681992637093"><ele>30.0</ele><time>2026-03-28T14:50:37.999Z</time></trkpt><trkpt lat="45.910434288685686" lon="13.378673676072399"><ele>30.0</ele><time>2026-03-28T14:50:38.999Z</time></trkpt><trkpt lat="45.910268291538515" lon="13.378662282216085"><ele>30.0</ele><time>2026-03-28T14:50:39.999Z</time></trkpt><trkpt lat="45.91010134647881" lon="13.378648080086498"><ele>30.0</ele><time>2026-03-28T14:50:40.999Z</time></trkpt><trkpt lat="45.9099321525985" lon="13.37863714808137"><ele>29.333333333333336</ele><time>2026-03-28T14:50:41.999Z</time></trkpt><trkpt lat="45.90975114726176" lon="13.378633708676839"><ele>28.666666666666668</ele><time>2026-03-28T14:50:42.999Z</time></trkpt><trkpt lat="45.90956392533023" lon="13.378637653022633"><ele>28.0</ele><time>2026-03-28T14:50:43.999Z</time></trkpt><trkpt lat="45.90937103330012" lon="13.378645053479618"><ele>28.333333333333336</ele><time>2026-03-28T14:50:44.999Z</time></trkpt><trkpt lat="45.90917540670303" lon="13.378659805680854"><ele>28.666666666666664</ele><time>2026-03-28T14:50:45.999Z</time></trkpt><trkpt lat="45.9089832978042" lon="13.378680688645531"><ele>29.0</ele><time>2026-03-28T14:50:46.999Z</time></trkpt><trkpt lat="45.908782701865434" lon="13.378710643814216"><ele>29.0</ele><time>2026-03-28T14:50:47.999Z</time></trkpt><trkpt lat="45.90858230861444" lon="13.378750671983312"><ele>29.0</ele><time>2026-03-28T14:50:48.999Z</time></trkpt><trkpt lat="45.90837913769604" lon="13.378791615365094"><ele>29.0</ele><time>2026-03-28T14:50:49.999Z</time></trkpt><trkpt lat="45.908174535271996" lon="13.37883454809418"><ele>29.0</ele><time>2026-03-28T14:50:50.999Z</time></trkpt><trkpt lat="45.90797183103426" lon="13.378886379001232"><ele>29.0</ele><time>2026-03-28T14:50:51.999Z</time></trkpt><trkpt lat="45.90777625484403" lon="13.378951485712223"><ele>29.0</ele><time>2026-03-28T14:50:52.999Z</time></trkpt><trkpt lat="45.90758375652619" lon="13.379022286413228"><ele>29.0</ele><time>2026-03-28T14:50:53.999Z</time></trkpt><trkpt lat="45.90738995689333" lon="13.379103854391202"><ele>29.0</ele><time>2026-03-28T14:50:55Z</time></trkpt><trkpt lat="45.9071885996621" lon="13.379182615161328"><ele>29.0</ele><time>2026-03-28T14:50:56Z</time></trkpt><trkpt lat="45.906978328027755" lon="13.379255604753709"><ele>29.0</ele><time>2026-03-28T14:50:57Z</time></trkpt><trkpt lat="45.90676169614314" lon="13.379323242875447"><ele>29.0</ele><time>2026-03-28T14:50:58Z</time></trkpt><trkpt lat="45.906535845602676" lon="13.379373857892462"><ele>29.0</ele><time>2026-03-28T14:50:59Z</time></trkpt><trkpt lat="45.90630144135327" lon="13.379383677502442"><ele>29.0</ele><time>2026-03-28T14:51:00Z</time></trkpt><trkpt lat="45.90606681185339" lon="13.379431271714955"><ele>28.5</ele><time>2026-03-28T14:51:01Z</time></trkpt><trkpt lat="45.90583282557654" lon="13.379454051798925"><ele>28.0</ele><time>2026-03-28T14:51:02Z</time></trkpt><trkpt lat="45.905604215595076" lon="13.379481837798423"><ele>28.0</ele><time>2026-03-28T14:51:03Z</time></trkpt><trkpt lat="45.90537882935147" lon="13.379513668672208"><ele>28.0</ele><time>2026-03-28T14:51:04Z</time></trkpt><trkpt lat="45.90515187860453" lon="13.37954304678126"><ele>27.0</ele><time>2026-03-28T14:51:05Z</time></trkpt><trkpt lat="45.904921478829415" lon="13.379570782993838"><ele>26.0</ele><time>2026-03-28T14:51:06Z</time></trkpt><trkpt lat="45.90468591461156" lon="13.379600551029366"><ele>26.0</ele><time>2026-03-28T14:51:07Z</time></trkpt><trkpt lat="45.90444410850041" lon="13.379627421688278"><ele>26.0</ele><time>2026-03-28T14:51:08Z</time></trkpt><trkpt lat="45.90420210863392" lon="13.379664556479751"><ele>26.5</ele><time>2026-03-28T14:51:09Z</time></trkpt><trkpt lat="45.90396602457089" lon="13.379715817040715"><ele>27.0</ele><time>2026-03-28T14:51:10Z</time></trkpt><trkpt lat="45.90373675663805" lon="13.379786936314659"><ele>27.0</ele><time>2026-03-28T14:51:11Z</time></trkpt><trkpt lat="45.903503143967086" lon="13.379821957999043"><ele>27.0</ele><time>2026-03-28T14:51:12Z</time></trkpt><trkpt lat="45.90326545439916" lon="13.379873883239535"><ele>27.0</ele><time>2026-03-28T14:51:13Z</time></trkpt><trkpt lat="45.903029671051456" lon="13.379946778502589"><ele>27.0</ele><time>2026-03-28T14:51:14Z</time></trkpt><trkpt lat="45.90279602568001" lon="13.379992961627751"><ele>26.5</ele><time>2026-03-28T14:51:15Z</time></trkpt><trkpt lat="45.90256609177734" lon="13.380039551844586"><ele>26.0</ele><time>2026-03-28T14:51:16Z</time></trkpt><trkpt lat="45.90234833598554" lon="13.380088651537328"><ele>26.0</ele><time>2026-03-28T14:51:17Z</time></trkpt><trkpt lat="45.90213886824038" lon="13.380135215748805"><ele>26.0</ele><time>2026-03-28T14:51:18Z</time></trkpt><trkpt lat="45.901934991299846" lon="13.380177613102694"><ele>26.0</ele><time>2026-03-28T14:51:19Z</time></trkpt><trkpt lat="45.90174587532805" lon="13.380217456838865"><ele>25.666666666666664</ele><time>2026-03-28T14:51:20Z</time></trkpt><trkpt lat="45.90156123843248" lon="13.380244276582758"><ele>25.333333333333336</ele><time>2026-03-28T14:51:21Z</time></trkpt><trkpt lat="45.9013810366227" lon="13.380273905116457"><ele>25.0</ele><time>2026-03-28T14:51:22Z</time></trkpt><trkpt lat="45.901202628031854" lon="13.380295668415192"><ele>25.0</ele><time>2026-03-28T14:51:23Z</time></trkpt><trkpt lat="45.9010270091941" lon="13.380316651035999"><ele>25.0</ele><time>2026-03-28T14:51:24Z</time></trkpt><trkpt lat="45.90086320162161" lon="13.38033771091003"><ele>25.0</ele><time>2026-03-28T14:51:25Z</time></trkpt><trkpt lat="45.90071500847578" lon="13.380362552484751"><ele>25.25</ele><time>2026-03-28T14:51:26Z</time></trkpt><trkpt lat="45.900577825230044" lon="13.380383432613666"><ele>25.5</ele><time>2026-03-28T14:51:27Z</time></trkpt><trkpt lat="45.90045084800328" lon="13.380401877275933"><ele>25.75</ele><time>2026-03-28T14:51:28Z</time></trkpt><trkpt lat="45.900318012987476" lon="13.38042095445726"><ele>26.0</ele><time>2026-03-28T14:51:29Z</time></trkpt><trkpt lat="45.900183030821616" lon="13.380438095945298"><ele>26.0</ele><time>2026-03-28T14:51:30Z</time></trkpt><trkpt lat="45.90007310810821" lon="13.380454720858559"><ele>26.0</ele><time>2026-03-28T14:51:31Z</time></trkpt><trkpt lat="45.89997749024384" lon="13.380467817077736"><ele>26.0</ele><time>2026-03-28T14:51:32Z</time></trkpt><trkpt lat="45.8998824100859" lon="13.380483017480273"><ele>26.0</ele><time>2026-03-28T14:51:33Z</time></trkpt><trkpt lat="45.899781623806824" lon="13.380502167153319"><ele>26.0</ele><time>2026-03-28T14:51:34Z</time></trkpt><trkpt lat="45.89967558341401" lon="13.380523783160076"><ele>26.0</ele><time>2026-03-28T14:51:35Z</time></trkpt><trkpt lat="45.89956841842735" lon="13.38054467126189"><ele>26.0</ele><time>2026-03-28T14:51:36Z</time></trkpt><trkpt lat="45.899459729938755" lon="13.380566916601373"><ele>26.0</ele><time>2026-03-28T14:51:36.999Z</time></trkpt><trkpt lat="45.89935043295414" lon="13.380593758115499"><ele>26.0</ele><time>2026-03-28T14:51:37.999Z</time></trkpt><trkpt lat="45.89923941371435" lon="13.380623034674265"><ele>26.0</ele><time>2026-03-28T14:51:38.999Z</time></trkpt><trkpt lat="45.89912692416448" lon="13.380654787126996"><ele>25.5</ele><time>2026-03-28T14:51:39.999Z</time></trkpt><trkpt lat="45.89901287940165" lon="13.380690568577425"><ele>25.0</ele><time>2026-03-28T14:51:40.999Z</time></trkpt><trkpt lat="45.89889609386153" lon="13.380728606719925"><ele>24.5</ele><time>2026-03-28T14:51:41.999Z</time></trkpt><trkpt lat="45.898780341089875" lon="13.380771224733525"><ele>24.0</ele><time>2026-03-28T14:51:42.999Z</time></trkpt><trkpt lat="45.89866611744894" lon="13.38081742908058"><ele>24.0</ele><time>2026-03-28T14:51:43.999Z</time></trkpt><trkpt lat="45.89855224444893" lon="13.38086385083754"><ele>24.0</ele><time>2026-03-28T14:51:44.999Z</time></trkpt><trkpt lat="45.898438044769975" lon="13.380910974502244"><ele>24.0</ele><time>2026-03-28T14:51:45.999Z</time></trkpt><trkpt lat="45.89832373024047" lon="13.380952326732219"><ele>24.0</ele><time>2026-03-28T14:51:46.999Z</time></trkpt><trkpt lat="45.898208525634104" lon="13.380996932557869"><ele>24.5</ele><time>2026-03-28T14:51:47.999Z</time></trkpt><trkpt lat="45.89809330356959" lon="13.381042564564504"><ele>25.0</ele><time>2026-03-28T14:51:48.999Z</time></trkpt><trkpt lat="45.89797888613144" lon="13.381090376012505"><ele>25.5</ele><time>2026-03-28T14:51:49.999Z</time></trkpt><trkpt lat="45.897864320151534" lon="13.381137498242273"><ele>26.0</ele><time>2026-03-28T14:51:50.999Z</time></trkpt><trkpt lat="45.89774753436529" lon="13.38118320149733"><ele>26.0</ele><time>2026-03-28T14:51:51.999Z</time></trkpt><trkpt lat="45.89763211509758" lon="13.381233289140383"><ele>26.0</ele><time>2026-03-28T14:51:52.999Z</time></trkpt><trkpt lat="45.897516562300694" lon="13.381281666738811"><ele>26.0</ele><time>2026-03-28T14:51:53.999Z</time></trkpt><trkpt lat="45.897402757070246" lon="13.381328858081423"><ele>26.0</ele><time>2026-03-28T14:51:54.999Z</time></trkpt><trkpt lat="45.89728969667265" lon="13.381375610564854"><ele>26.0</ele><time>2026-03-28T14:51:55.999Z</time></trkpt><trkpt lat="45.89717782149718" lon="13.381421886086056"><ele>26.0</ele><time>2026-03-28T14:51:56.999Z</time></trkpt><trkpt lat="45.89706575288949" lon="13.381467831140156"><ele>26.0</ele><time>2026-03-28T14:51:57.999Z</time></trkpt><trkpt lat="45.89695444197594" lon="13.381517626384776"><ele>26.0</ele><time>2026-03-28T14:51:58.999Z</time></trkpt><trkpt lat="45.89684214769702" lon="13.381568801668996"><ele>26.0</ele><time>2026-03-28T14:51:59.999Z</time></trkpt><trkpt lat="45.89673060047199" lon="13.38162013765152"><ele>26.0</ele><time>2026-03-28T14:52:00.999Z</time></trkpt><trkpt lat="45.896618662078104" lon="13.381670531182648"><ele>26.0</ele><time>2026-03-28T14:52:01.999Z</time></trkpt><trkpt lat="45.89650575073641" lon="13.381721347404431"><ele>26.0</ele><time>2026-03-28T14:52:02.999Z</time></trkpt><trkpt lat="45.89639108726332" lon="13.381775269042498"><ele>26.0</ele><time>2026-03-28T14:52:03.999Z</time></trkpt><trkpt lat="45.89627579068433" lon="13.38182749229994"><ele>26.0</ele><time>2026-03-28T14:52:04.999Z</time></trkpt><trkpt lat="45.8961590713064" lon="13.38187774901566"><ele>26.0</ele><time>2026-03-28T14:52:05.999Z</time></trkpt><trkpt lat="45.896050056970516" lon="13.381925368291762"><ele>26.0</ele><time>2026-03-28T14:52:06.999Z</time></trkpt><trkpt lat="45.89595260159196" lon="13.381963228240673"><ele>26.200000000000003</ele><time>2026-03-28T14:52:07.999Z</time></trkpt><trkpt lat="45.895863766937424" lon="13.381980647331295"><ele>26.400000000000002</ele><time>2026-03-28T14:52:08.999Z</time></trkpt><trkpt lat="45.895790840381444" lon="13.382000140641619"><ele>26.6</ele><time>2026-03-28T14:52:09.999Z</time></trkpt><trkpt lat="45.895796240631554" lon="13.381839495439811"><ele>26.8</ele><time>2026-03-28T14:52:14.999Z</time></trkpt><trkpt lat="45.89582742301284" lon="13.381694555775164"><ele>27.0</ele><time>2026-03-28T14:52:16.999Z</time></trkpt><trkpt lat="45.89585739001689" lon="13.381553069160365"><ele>27.0</ele><time>2026-03-28T14:52:18.999Z</time></trkpt><trkpt lat="45.895883563919824" lon="13.38143293924727"><ele>27.0</ele><time>2026-03-28T14:52:20.999Z</time></trkpt><trkpt lat="45.895904726998886" lon="13.381328775278677"><ele>27.0</ele><time>2026-03-28T14:52:22.999Z</time></trkpt><trkpt lat="45.89598069912314" lon="13.381290716908252"><ele>27.0</ele><time>2026-03-28T14:52:24.999Z</time></trkpt><trkpt lat="45.896065513296506" lon="13.381271831188299"><ele>27.0</ele><time>2026-03-28T14:52:26.999Z</time></trkpt><trkpt lat="45.89612909329583" lon="13.381254350518288"><ele>27.0</ele><time>2026-03-28T14:52:28.999Z</time></trkpt><trkpt lat="45.896192726133904" lon="13.381235788164277"><ele>26.0</ele><time>2026-03-28T14:52:31.999Z</time></trkpt></trkseg></trk></gpx>